<?xml version="1.0" encoding="UTF-8" standalone="no" ?>
<gpx xmlns="http://www.topografix.com/GPX/1/1" xmlns:xsi="http://www.w3.org/2001/XMLSchema-instance" xsi:schemaLocation="http://www.topografix.com/GPX/1/1 http://www.topografix.com/GPX/1/1/gpx.xsd" version="1.1" creator="VisuGPX - https://www.visugpx.com">
  <metadata>
    <name>20190219113516-ED8X7</name>
    <desc><![CDATA[

]]></desc>
  </metadata>
  <trk>
    <name><![CDATA[20190219113516-ED8X7]]></name>
    <trkseg>
      <trkpt lat="46.81031" lon="0.41406">
        <ele>88</ele>
        <time>2019-02-17T08:10:30.000Z</time>
      </trkpt>
      <trkpt lat="46.81031" lon="0.41406">
        <ele>88</ele>
        <time>2019-02-17T08:10:30.000Z</time>
      </trkpt>
      <trkpt lat="46.81028" lon="0.41404">
        <ele>88</ele>
        <time>2019-02-17T08:10:31.000Z</time>
      </trkpt>
      <trkpt lat="46.81025" lon="0.41402">
        <ele>88</ele>
        <time>2019-02-17T08:10:32.000Z</time>
      </trkpt>
      <trkpt lat="46.81021" lon="0.41402">
        <ele>88</ele>
        <time>2019-02-17T08:10:33.000Z</time>
      </trkpt>
      <trkpt lat="46.81018" lon="0.41403">
        <ele>88</ele>
        <time>2019-02-17T08:10:34.000Z</time>
      </trkpt>
      <trkpt lat="46.81014" lon="0.41405">
        <ele>88</ele>
        <time>2019-02-17T08:10:35.000Z</time>
      </trkpt>
      <trkpt lat="46.81011" lon="0.41408">
        <ele>88</ele>
        <time>2019-02-17T08:10:36.000Z</time>
      </trkpt>
      <trkpt lat="46.81007" lon="0.41411">
        <ele>89</ele>
        <time>2019-02-17T08:10:37.000Z</time>
      </trkpt>
      <trkpt lat="46.81004" lon="0.41415">
        <ele>88</ele>
        <time>2019-02-17T08:10:38.000Z</time>
      </trkpt>
      <trkpt lat="46.81" lon="0.41419">
        <ele>88</ele>
        <time>2019-02-17T08:10:39.000Z</time>
      </trkpt>
      <trkpt lat="46.80996" lon="0.41424">
        <ele>88</ele>
        <time>2019-02-17T08:10:40.000Z</time>
      </trkpt>
      <trkpt lat="46.80992" lon="0.41428">
        <ele>88</ele>
        <time>2019-02-17T08:10:41.000Z</time>
      </trkpt>
      <trkpt lat="46.80988" lon="0.41432">
        <ele>88</ele>
        <time>2019-02-17T08:10:42.000Z</time>
      </trkpt>
      <trkpt lat="46.80984" lon="0.41436">
        <ele>88</ele>
        <time>2019-02-17T08:10:43.000Z</time>
      </trkpt>
      <trkpt lat="46.8098" lon="0.4144">
        <ele>88</ele>
        <time>2019-02-17T08:10:44.000Z</time>
      </trkpt>
      <trkpt lat="46.80976" lon="0.41444">
        <ele>88</ele>
        <time>2019-02-17T08:10:45.000Z</time>
      </trkpt>
      <trkpt lat="46.80972" lon="0.41447">
        <ele>87</ele>
        <time>2019-02-17T08:10:46.000Z</time>
      </trkpt>
      <trkpt lat="46.80968" lon="0.4145">
        <ele>87</ele>
        <time>2019-02-17T08:10:47.000Z</time>
      </trkpt>
      <trkpt lat="46.80963" lon="0.41453">
        <ele>87</ele>
        <time>2019-02-17T08:10:48.000Z</time>
      </trkpt>
      <trkpt lat="46.80958" lon="0.41455">
        <ele>86</ele>
        <time>2019-02-17T08:10:49.000Z</time>
      </trkpt>
      <trkpt lat="46.80953" lon="0.41457">
        <ele>86</ele>
        <time>2019-02-17T08:10:50.000Z</time>
      </trkpt>
      <trkpt lat="46.80949" lon="0.41458">
        <ele>86</ele>
        <time>2019-02-17T08:10:51.000Z</time>
      </trkpt>
      <trkpt lat="46.80944" lon="0.4146">
        <ele>85</ele>
        <time>2019-02-17T08:10:52.000Z</time>
      </trkpt>
      <trkpt lat="46.80939" lon="0.41461">
        <ele>85</ele>
        <time>2019-02-17T08:10:53.000Z</time>
      </trkpt>
      <trkpt lat="46.80933" lon="0.41461">
        <ele>84</ele>
        <time>2019-02-17T08:10:54.000Z</time>
      </trkpt>
      <trkpt lat="46.80928" lon="0.41462">
        <ele>84</ele>
        <time>2019-02-17T08:10:55.000Z</time>
      </trkpt>
      <trkpt lat="46.80923" lon="0.41463">
        <ele>83</ele>
        <time>2019-02-17T08:10:56.000Z</time>
      </trkpt>
      <trkpt lat="46.80918" lon="0.41463">
        <ele>83</ele>
        <time>2019-02-17T08:10:57.000Z</time>
      </trkpt>
      <trkpt lat="46.80913" lon="0.41464">
        <ele>83</ele>
        <time>2019-02-17T08:10:58.000Z</time>
      </trkpt>
      <trkpt lat="46.80907" lon="0.41464">
        <ele>82</ele>
        <time>2019-02-17T08:10:59.000Z</time>
      </trkpt>
      <trkpt lat="46.80902" lon="0.41465">
        <ele>82</ele>
        <time>2019-02-17T08:11:00.000Z</time>
      </trkpt>
      <trkpt lat="46.80896" lon="0.41466">
        <ele>82</ele>
        <time>2019-02-17T08:11:01.000Z</time>
      </trkpt>
      <trkpt lat="46.80891" lon="0.41467">
        <ele>82</ele>
        <time>2019-02-17T08:11:02.000Z</time>
      </trkpt>
      <trkpt lat="46.80885" lon="0.41468">
        <ele>82</ele>
        <time>2019-02-17T08:11:03.000Z</time>
      </trkpt>
      <trkpt lat="46.8088" lon="0.41468">
        <ele>82</ele>
        <time>2019-02-17T08:11:04.000Z</time>
      </trkpt>
      <trkpt lat="46.80874" lon="0.41469">
        <ele>82</ele>
        <time>2019-02-17T08:11:05.000Z</time>
      </trkpt>
      <trkpt lat="46.80869" lon="0.4147">
        <ele>82</ele>
        <time>2019-02-17T08:11:06.000Z</time>
      </trkpt>
      <trkpt lat="46.80863" lon="0.4147">
        <ele>82</ele>
        <time>2019-02-17T08:11:07.000Z</time>
      </trkpt>
      <trkpt lat="46.80858" lon="0.41471">
        <ele>82</ele>
        <time>2019-02-17T08:11:08.000Z</time>
      </trkpt>
      <trkpt lat="46.80852" lon="0.41472">
        <ele>82</ele>
        <time>2019-02-17T08:11:09.000Z</time>
      </trkpt>
      <trkpt lat="46.80847" lon="0.41474">
        <ele>82</ele>
        <time>2019-02-17T08:11:10.000Z</time>
      </trkpt>
      <trkpt lat="46.80841" lon="0.41476">
        <ele>81</ele>
        <time>2019-02-17T08:11:11.000Z</time>
      </trkpt>
      <trkpt lat="46.80836" lon="0.41478">
        <ele>81</ele>
        <time>2019-02-17T08:11:12.000Z</time>
      </trkpt>
      <trkpt lat="46.80831" lon="0.41482">
        <ele>80</ele>
        <time>2019-02-17T08:11:13.000Z</time>
      </trkpt>
      <trkpt lat="46.80826" lon="0.41486">
        <ele>80</ele>
        <time>2019-02-17T08:11:14.000Z</time>
      </trkpt>
      <trkpt lat="46.80822" lon="0.41492">
        <ele>78</ele>
        <time>2019-02-17T08:11:15.000Z</time>
      </trkpt>
      <trkpt lat="46.80818" lon="0.41498">
        <ele>79</ele>
        <time>2019-02-17T08:11:16.000Z</time>
      </trkpt>
      <trkpt lat="46.80815" lon="0.41505">
        <ele>79</ele>
        <time>2019-02-17T08:11:17.000Z</time>
      </trkpt>
      <trkpt lat="46.80811" lon="0.41512">
        <ele>80</ele>
        <time>2019-02-17T08:11:18.000Z</time>
      </trkpt>
      <trkpt lat="46.80808" lon="0.41519">
        <ele>79</ele>
        <time>2019-02-17T08:11:19.000Z</time>
      </trkpt>
      <trkpt lat="46.80805" lon="0.41525">
        <ele>80</ele>
        <time>2019-02-17T08:11:20.000Z</time>
      </trkpt>
      <trkpt lat="46.80802" lon="0.41532">
        <ele>80</ele>
        <time>2019-02-17T08:11:21.000Z</time>
      </trkpt>
      <trkpt lat="46.80799" lon="0.41539">
        <ele>79</ele>
        <time>2019-02-17T08:11:22.000Z</time>
      </trkpt>
      <trkpt lat="46.80796" lon="0.41546">
        <ele>80</ele>
        <time>2019-02-17T08:11:23.000Z</time>
      </trkpt>
      <trkpt lat="46.80793" lon="0.41554">
        <ele>80</ele>
        <time>2019-02-17T08:11:24.000Z</time>
      </trkpt>
      <trkpt lat="46.80791" lon="0.41561">
        <ele>80</ele>
        <time>2019-02-17T08:11:25.000Z</time>
      </trkpt>
      <trkpt lat="46.80789" lon="0.41568">
        <ele>81</ele>
        <time>2019-02-17T08:11:26.000Z</time>
      </trkpt>
      <trkpt lat="46.80787" lon="0.41576">
        <ele>81</ele>
        <time>2019-02-17T08:11:27.000Z</time>
      </trkpt>
      <trkpt lat="46.80786" lon="0.41584">
        <ele>80</ele>
        <time>2019-02-17T08:11:28.000Z</time>
      </trkpt>
      <trkpt lat="46.80784" lon="0.41592">
        <ele>80</ele>
        <time>2019-02-17T08:11:29.000Z</time>
      </trkpt>
      <trkpt lat="46.80783" lon="0.416">
        <ele>81</ele>
        <time>2019-02-17T08:11:30.000Z</time>
      </trkpt>
      <trkpt lat="46.80782" lon="0.41608">
        <ele>81</ele>
        <time>2019-02-17T08:11:31.000Z</time>
      </trkpt>
      <trkpt lat="46.80781" lon="0.41615">
        <ele>81</ele>
        <time>2019-02-17T08:11:32.000Z</time>
      </trkpt>
      <trkpt lat="46.8078" lon="0.41623">
        <ele>81</ele>
        <time>2019-02-17T08:11:33.000Z</time>
      </trkpt>
      <trkpt lat="46.80779" lon="0.4163">
        <ele>81</ele>
        <time>2019-02-17T08:11:34.000Z</time>
      </trkpt>
      <trkpt lat="46.80777" lon="0.41638">
        <ele>81</ele>
        <time>2019-02-17T08:11:35.000Z</time>
      </trkpt>
      <trkpt lat="46.80775" lon="0.41645">
        <ele>80</ele>
        <time>2019-02-17T08:11:36.000Z</time>
      </trkpt>
      <trkpt lat="46.80772" lon="0.41651">
        <ele>79</ele>
        <time>2019-02-17T08:11:37.000Z</time>
      </trkpt>
      <trkpt lat="46.80768" lon="0.41657">
        <ele>79</ele>
        <time>2019-02-17T08:11:38.000Z</time>
      </trkpt>
      <trkpt lat="46.80765" lon="0.41664">
        <ele>79</ele>
        <time>2019-02-17T08:11:39.000Z</time>
      </trkpt>
      <trkpt lat="46.80761" lon="0.41671">
        <ele>79</ele>
        <time>2019-02-17T08:11:40.000Z</time>
      </trkpt>
      <trkpt lat="46.80758" lon="0.41678">
        <ele>79</ele>
        <time>2019-02-17T08:11:41.000Z</time>
      </trkpt>
      <trkpt lat="46.80754" lon="0.41685">
        <ele>79</ele>
        <time>2019-02-17T08:11:42.000Z</time>
      </trkpt>
      <trkpt lat="46.80751" lon="0.41692">
        <ele>79</ele>
        <time>2019-02-17T08:11:43.000Z</time>
      </trkpt>
      <trkpt lat="46.80747" lon="0.41699">
        <ele>78</ele>
        <time>2019-02-17T08:11:44.000Z</time>
      </trkpt>
      <trkpt lat="46.80743" lon="0.41706">
        <ele>78</ele>
        <time>2019-02-17T08:11:45.000Z</time>
      </trkpt>
      <trkpt lat="46.80739" lon="0.41714">
        <ele>78</ele>
        <time>2019-02-17T08:11:46.000Z</time>
      </trkpt>
      <trkpt lat="46.80736" lon="0.41722">
        <ele>78</ele>
        <time>2019-02-17T08:11:47.000Z</time>
      </trkpt>
      <trkpt lat="46.80732" lon="0.4173">
        <ele>78</ele>
        <time>2019-02-17T08:11:48.000Z</time>
      </trkpt>
      <trkpt lat="46.80729" lon="0.41739">
        <ele>78</ele>
        <time>2019-02-17T08:11:49.000Z</time>
      </trkpt>
      <trkpt lat="46.80726" lon="0.41747">
        <ele>79</ele>
        <time>2019-02-17T08:11:50.000Z</time>
      </trkpt>
      <trkpt lat="46.80724" lon="0.41756">
        <ele>79</ele>
        <time>2019-02-17T08:11:51.000Z</time>
      </trkpt>
      <trkpt lat="46.80723" lon="0.41766">
        <ele>79</ele>
        <time>2019-02-17T08:11:52.000Z</time>
      </trkpt>
      <trkpt lat="46.80722" lon="0.41775">
        <ele>79</ele>
        <time>2019-02-17T08:11:53.000Z</time>
      </trkpt>
      <trkpt lat="46.80722" lon="0.41785">
        <ele>78</ele>
        <time>2019-02-17T08:11:54.000Z</time>
      </trkpt>
      <trkpt lat="46.80722" lon="0.41794">
        <ele>78</ele>
        <time>2019-02-17T08:11:55.000Z</time>
      </trkpt>
      <trkpt lat="46.80722" lon="0.41804">
        <ele>78</ele>
        <time>2019-02-17T08:11:56.000Z</time>
      </trkpt>
      <trkpt lat="46.80722" lon="0.41814">
        <ele>78</ele>
        <time>2019-02-17T08:11:57.000Z</time>
      </trkpt>
      <trkpt lat="46.80722" lon="0.41824">
        <ele>77</ele>
        <time>2019-02-17T08:11:58.000Z</time>
      </trkpt>
      <trkpt lat="46.80723" lon="0.41834">
        <ele>78</ele>
        <time>2019-02-17T08:11:59.000Z</time>
      </trkpt>
      <trkpt lat="46.80723" lon="0.41844">
        <ele>78</ele>
        <time>2019-02-17T08:12:00.000Z</time>
      </trkpt>
      <trkpt lat="46.80724" lon="0.41853">
        <ele>78</ele>
        <time>2019-02-17T08:12:01.000Z</time>
      </trkpt>
      <trkpt lat="46.80724" lon="0.41863">
        <ele>78</ele>
        <time>2019-02-17T08:12:02.000Z</time>
      </trkpt>
      <trkpt lat="46.80725" lon="0.41873">
        <ele>78</ele>
        <time>2019-02-17T08:12:03.000Z</time>
      </trkpt>
      <trkpt lat="46.80725" lon="0.41883">
        <ele>78</ele>
        <time>2019-02-17T08:12:04.000Z</time>
      </trkpt>
      <trkpt lat="46.80726" lon="0.41893">
        <ele>78</ele>
        <time>2019-02-17T08:12:05.000Z</time>
      </trkpt>
      <trkpt lat="46.80726" lon="0.41903">
        <ele>78</ele>
        <time>2019-02-17T08:12:06.000Z</time>
      </trkpt>
      <trkpt lat="46.80727" lon="0.41913">
        <ele>77</ele>
        <time>2019-02-17T08:12:07.000Z</time>
      </trkpt>
      <trkpt lat="46.80727" lon="0.41923">
        <ele>77</ele>
        <time>2019-02-17T08:12:08.000Z</time>
      </trkpt>
      <trkpt lat="46.80728" lon="0.41933">
        <ele>77</ele>
        <time>2019-02-17T08:12:09.000Z</time>
      </trkpt>
      <trkpt lat="46.80728" lon="0.41943">
        <ele>77</ele>
        <time>2019-02-17T08:12:10.000Z</time>
      </trkpt>
      <trkpt lat="46.80727" lon="0.41953">
        <ele>77</ele>
        <time>2019-02-17T08:12:11.000Z</time>
      </trkpt>
      <trkpt lat="46.80727" lon="0.41963">
        <ele>77</ele>
        <time>2019-02-17T08:12:12.000Z</time>
      </trkpt>
      <trkpt lat="46.80726" lon="0.41972">
        <ele>77</ele>
        <time>2019-02-17T08:12:13.000Z</time>
      </trkpt>
      <trkpt lat="46.80725" lon="0.41982">
        <ele>77</ele>
        <time>2019-02-17T08:12:14.000Z</time>
      </trkpt>
      <trkpt lat="46.80724" lon="0.41992">
        <ele>77</ele>
        <time>2019-02-17T08:12:15.000Z</time>
      </trkpt>
      <trkpt lat="46.80723" lon="0.42001">
        <ele>77</ele>
        <time>2019-02-17T08:12:16.000Z</time>
      </trkpt>
      <trkpt lat="46.80722" lon="0.42011">
        <ele>77</ele>
        <time>2019-02-17T08:12:17.000Z</time>
      </trkpt>
      <trkpt lat="46.8072" lon="0.4202">
        <ele>77</ele>
        <time>2019-02-17T08:12:18.000Z</time>
      </trkpt>
      <trkpt lat="46.80719" lon="0.42029">
        <ele>77</ele>
        <time>2019-02-17T08:12:19.000Z</time>
      </trkpt>
      <trkpt lat="46.80717" lon="0.42039">
        <ele>77</ele>
        <time>2019-02-17T08:12:20.000Z</time>
      </trkpt>
      <trkpt lat="46.80715" lon="0.42048">
        <ele>77</ele>
        <time>2019-02-17T08:12:21.000Z</time>
      </trkpt>
      <trkpt lat="46.80713" lon="0.42058">
        <ele>76</ele>
        <time>2019-02-17T08:12:22.000Z</time>
      </trkpt>
      <trkpt lat="46.80712" lon="0.42067">
        <ele>76</ele>
        <time>2019-02-17T08:12:23.000Z</time>
      </trkpt>
      <trkpt lat="46.8071" lon="0.42076">
        <ele>76</ele>
        <time>2019-02-17T08:12:24.000Z</time>
      </trkpt>
      <trkpt lat="46.80708" lon="0.42085">
        <ele>76</ele>
        <time>2019-02-17T08:12:25.000Z</time>
      </trkpt>
      <trkpt lat="46.80706" lon="0.42094">
        <ele>76</ele>
        <time>2019-02-17T08:12:26.000Z</time>
      </trkpt>
      <trkpt lat="46.80704" lon="0.42103">
        <ele>76</ele>
        <time>2019-02-17T08:12:27.000Z</time>
      </trkpt>
      <trkpt lat="46.80701" lon="0.42112">
        <ele>76</ele>
        <time>2019-02-17T08:12:28.000Z</time>
      </trkpt>
      <trkpt lat="46.80699" lon="0.4212">
        <ele>76</ele>
        <time>2019-02-17T08:12:29.000Z</time>
      </trkpt>
      <trkpt lat="46.80696" lon="0.42128">
        <ele>76</ele>
        <time>2019-02-17T08:12:30.000Z</time>
      </trkpt>
      <trkpt lat="46.80693" lon="0.42136">
        <ele>76</ele>
        <time>2019-02-17T08:12:31.000Z</time>
      </trkpt>
      <trkpt lat="46.8069" lon="0.42144">
        <ele>76</ele>
        <time>2019-02-17T08:12:32.000Z</time>
      </trkpt>
      <trkpt lat="46.80688" lon="0.42152">
        <ele>76</ele>
        <time>2019-02-17T08:12:33.000Z</time>
      </trkpt>
      <trkpt lat="46.80685" lon="0.4216">
        <ele>75</ele>
        <time>2019-02-17T08:12:34.000Z</time>
      </trkpt>
      <trkpt lat="46.80682" lon="0.42167">
        <ele>75</ele>
        <time>2019-02-17T08:12:35.000Z</time>
      </trkpt>
      <trkpt lat="46.80679" lon="0.42175">
        <ele>75</ele>
        <time>2019-02-17T08:12:36.000Z</time>
      </trkpt>
      <trkpt lat="46.80676" lon="0.42182">
        <ele>75</ele>
        <time>2019-02-17T08:12:37.000Z</time>
      </trkpt>
      <trkpt lat="46.80674" lon="0.42189">
        <ele>75</ele>
        <time>2019-02-17T08:12:38.000Z</time>
      </trkpt>
      <trkpt lat="46.80671" lon="0.42196">
        <ele>75</ele>
        <time>2019-02-17T08:12:39.000Z</time>
      </trkpt>
      <trkpt lat="46.80668" lon="0.42204">
        <ele>75</ele>
        <time>2019-02-17T08:12:40.000Z</time>
      </trkpt>
      <trkpt lat="46.80666" lon="0.42211">
        <ele>75</ele>
        <time>2019-02-17T08:12:41.000Z</time>
      </trkpt>
      <trkpt lat="46.80663" lon="0.42217">
        <ele>76</ele>
        <time>2019-02-17T08:12:42.000Z</time>
      </trkpt>
      <trkpt lat="46.80659" lon="0.42223">
        <ele>75</ele>
        <time>2019-02-17T08:12:43.000Z</time>
      </trkpt>
      <trkpt lat="46.80654" lon="0.42226">
        <ele>75</ele>
        <time>2019-02-17T08:12:44.000Z</time>
      </trkpt>
      <trkpt lat="46.80649" lon="0.42228">
        <ele>74</ele>
        <time>2019-02-17T08:12:45.000Z</time>
      </trkpt>
      <trkpt lat="46.80643" lon="0.42228">
        <ele>74</ele>
        <time>2019-02-17T08:12:46.000Z</time>
      </trkpt>
      <trkpt lat="46.80637" lon="0.42227">
        <ele>74</ele>
        <time>2019-02-17T08:12:47.000Z</time>
      </trkpt>
      <trkpt lat="46.80632" lon="0.42227">
        <ele>75</ele>
        <time>2019-02-17T08:12:48.000Z</time>
      </trkpt>
      <trkpt lat="46.80627" lon="0.42225">
        <ele>75</ele>
        <time>2019-02-17T08:12:49.000Z</time>
      </trkpt>
      <trkpt lat="46.80622" lon="0.42224">
        <ele>75</ele>
        <time>2019-02-17T08:12:50.000Z</time>
      </trkpt>
      <trkpt lat="46.80616" lon="0.42223">
        <ele>75</ele>
        <time>2019-02-17T08:12:51.000Z</time>
      </trkpt>
      <trkpt lat="46.80611" lon="0.42222">
        <ele>75</ele>
        <time>2019-02-17T08:12:52.000Z</time>
      </trkpt>
      <trkpt lat="46.80606" lon="0.42221">
        <ele>74</ele>
        <time>2019-02-17T08:12:53.000Z</time>
      </trkpt>
      <trkpt lat="46.80601" lon="0.4222">
        <ele>74</ele>
        <time>2019-02-17T08:12:54.000Z</time>
      </trkpt>
      <trkpt lat="46.80596" lon="0.42219">
        <ele>74</ele>
        <time>2019-02-17T08:12:55.000Z</time>
      </trkpt>
      <trkpt lat="46.8059" lon="0.42219">
        <ele>74</ele>
        <time>2019-02-17T08:12:56.000Z</time>
      </trkpt>
      <trkpt lat="46.80585" lon="0.42218">
        <ele>74</ele>
        <time>2019-02-17T08:12:57.000Z</time>
      </trkpt>
      <trkpt lat="46.80579" lon="0.42216">
        <ele>74</ele>
        <time>2019-02-17T08:12:58.000Z</time>
      </trkpt>
      <trkpt lat="46.80574" lon="0.42215">
        <ele>74</ele>
        <time>2019-02-17T08:12:59.000Z</time>
      </trkpt>
      <trkpt lat="46.80568" lon="0.42214">
        <ele>74</ele>
        <time>2019-02-17T08:13:00.000Z</time>
      </trkpt>
      <trkpt lat="46.80563" lon="0.42213">
        <ele>74</ele>
        <time>2019-02-17T08:13:01.000Z</time>
      </trkpt>
      <trkpt lat="46.80557" lon="0.42212">
        <ele>74</ele>
        <time>2019-02-17T08:13:02.000Z</time>
      </trkpt>
      <trkpt lat="46.80552" lon="0.42211">
        <ele>73</ele>
        <time>2019-02-17T08:13:03.000Z</time>
      </trkpt>
      <trkpt lat="46.80547" lon="0.4221">
        <ele>73</ele>
        <time>2019-02-17T08:13:04.000Z</time>
      </trkpt>
      <trkpt lat="46.80541" lon="0.42209">
        <ele>73</ele>
        <time>2019-02-17T08:13:05.000Z</time>
      </trkpt>
      <trkpt lat="46.80536" lon="0.42208">
        <ele>73</ele>
        <time>2019-02-17T08:13:06.000Z</time>
      </trkpt>
      <trkpt lat="46.8053" lon="0.42207">
        <ele>73</ele>
        <time>2019-02-17T08:13:07.000Z</time>
      </trkpt>
      <trkpt lat="46.80525" lon="0.42206">
        <ele>72</ele>
        <time>2019-02-17T08:13:08.000Z</time>
      </trkpt>
      <trkpt lat="46.80519" lon="0.42205">
        <ele>72</ele>
        <time>2019-02-17T08:13:09.000Z</time>
      </trkpt>
      <trkpt lat="46.80514" lon="0.42204">
        <ele>72</ele>
        <time>2019-02-17T08:13:10.000Z</time>
      </trkpt>
      <trkpt lat="46.80508" lon="0.42203">
        <ele>72</ele>
        <time>2019-02-17T08:13:11.000Z</time>
      </trkpt>
      <trkpt lat="46.80503" lon="0.42202">
        <ele>72</ele>
        <time>2019-02-17T08:13:12.000Z</time>
      </trkpt>
      <trkpt lat="46.80497" lon="0.42201">
        <ele>72</ele>
        <time>2019-02-17T08:13:13.000Z</time>
      </trkpt>
      <trkpt lat="46.80492" lon="0.422">
        <ele>72</ele>
        <time>2019-02-17T08:13:14.000Z</time>
      </trkpt>
      <trkpt lat="46.80486" lon="0.42199">
        <ele>72</ele>
        <time>2019-02-17T08:13:15.000Z</time>
      </trkpt>
      <trkpt lat="46.80481" lon="0.42198">
        <ele>72</ele>
        <time>2019-02-17T08:13:16.000Z</time>
      </trkpt>
      <trkpt lat="46.80476" lon="0.42197">
        <ele>71</ele>
        <time>2019-02-17T08:13:17.000Z</time>
      </trkpt>
      <trkpt lat="46.8047" lon="0.42196">
        <ele>71</ele>
        <time>2019-02-17T08:13:18.000Z</time>
      </trkpt>
      <trkpt lat="46.80465" lon="0.42195">
        <ele>71</ele>
        <time>2019-02-17T08:13:19.000Z</time>
      </trkpt>
      <trkpt lat="46.8046" lon="0.42194">
        <ele>71</ele>
        <time>2019-02-17T08:13:20.000Z</time>
      </trkpt>
      <trkpt lat="46.80454" lon="0.42193">
        <ele>71</ele>
        <time>2019-02-17T08:13:21.000Z</time>
      </trkpt>
      <trkpt lat="46.80449" lon="0.42192">
        <ele>71</ele>
        <time>2019-02-17T08:13:22.000Z</time>
      </trkpt>
      <trkpt lat="46.80443" lon="0.42191">
        <ele>71</ele>
        <time>2019-02-17T08:13:23.000Z</time>
      </trkpt>
      <trkpt lat="46.80438" lon="0.42189">
        <ele>71</ele>
        <time>2019-02-17T08:13:24.000Z</time>
      </trkpt>
      <trkpt lat="46.80432" lon="0.42188">
        <ele>71</ele>
        <time>2019-02-17T08:13:25.000Z</time>
      </trkpt>
      <trkpt lat="46.80426" lon="0.42187">
        <ele>72</ele>
        <time>2019-02-17T08:13:26.000Z</time>
      </trkpt>
      <trkpt lat="46.80421" lon="0.42186">
        <ele>72</ele>
        <time>2019-02-17T08:13:27.000Z</time>
      </trkpt>
      <trkpt lat="46.80415" lon="0.42185">
        <ele>72</ele>
        <time>2019-02-17T08:13:28.000Z</time>
      </trkpt>
      <trkpt lat="46.80409" lon="0.42184">
        <ele>72</ele>
        <time>2019-02-17T08:13:29.000Z</time>
      </trkpt>
      <trkpt lat="46.80404" lon="0.42183">
        <ele>72</ele>
        <time>2019-02-17T08:13:30.000Z</time>
      </trkpt>
      <trkpt lat="46.80398" lon="0.42182">
        <ele>72</ele>
        <time>2019-02-17T08:13:31.000Z</time>
      </trkpt>
      <trkpt lat="46.80392" lon="0.42181">
        <ele>71</ele>
        <time>2019-02-17T08:13:32.000Z</time>
      </trkpt>
      <trkpt lat="46.80386" lon="0.42179">
        <ele>71</ele>
        <time>2019-02-17T08:13:33.000Z</time>
      </trkpt>
      <trkpt lat="46.8038" lon="0.42178">
        <ele>71</ele>
        <time>2019-02-17T08:13:34.000Z</time>
      </trkpt>
      <trkpt lat="46.80375" lon="0.42176">
        <ele>71</ele>
        <time>2019-02-17T08:13:35.000Z</time>
      </trkpt>
      <trkpt lat="46.80369" lon="0.42174">
        <ele>71</ele>
        <time>2019-02-17T08:13:36.000Z</time>
      </trkpt>
      <trkpt lat="46.80363" lon="0.42173">
        <ele>70</ele>
        <time>2019-02-17T08:13:37.000Z</time>
      </trkpt>
      <trkpt lat="46.80357" lon="0.4217">
        <ele>70</ele>
        <time>2019-02-17T08:13:38.000Z</time>
      </trkpt>
      <trkpt lat="46.80351" lon="0.42168">
        <ele>70</ele>
        <time>2019-02-17T08:13:39.000Z</time>
      </trkpt>
      <trkpt lat="46.80345" lon="0.42167">
        <ele>69</ele>
        <time>2019-02-17T08:13:40.000Z</time>
      </trkpt>
      <trkpt lat="46.8034" lon="0.42167">
        <ele>69</ele>
        <time>2019-02-17T08:13:41.000Z</time>
      </trkpt>
      <trkpt lat="46.80336" lon="0.42169">
        <ele>70</ele>
        <time>2019-02-17T08:13:42.000Z</time>
      </trkpt>
      <trkpt lat="46.80332" lon="0.42174">
        <ele>69</ele>
        <time>2019-02-17T08:13:43.000Z</time>
      </trkpt>
      <trkpt lat="46.80329" lon="0.42181">
        <ele>69</ele>
        <time>2019-02-17T08:13:44.000Z</time>
      </trkpt>
      <trkpt lat="46.80326" lon="0.42189">
        <ele>70</ele>
        <time>2019-02-17T08:13:45.000Z</time>
      </trkpt>
      <trkpt lat="46.80325" lon="0.42197">
        <ele>70</ele>
        <time>2019-02-17T08:13:46.000Z</time>
      </trkpt>
      <trkpt lat="46.80324" lon="0.42204">
        <ele>70</ele>
        <time>2019-02-17T08:13:47.000Z</time>
      </trkpt>
      <trkpt lat="46.80323" lon="0.42212">
        <ele>70</ele>
        <time>2019-02-17T08:13:48.000Z</time>
      </trkpt>
      <trkpt lat="46.80322" lon="0.4222">
        <ele>71</ele>
        <time>2019-02-17T08:13:49.000Z</time>
      </trkpt>
      <trkpt lat="46.80321" lon="0.42227">
        <ele>71</ele>
        <time>2019-02-17T08:13:50.000Z</time>
      </trkpt>
      <trkpt lat="46.8032" lon="0.42235">
        <ele>71</ele>
        <time>2019-02-17T08:13:51.000Z</time>
      </trkpt>
      <trkpt lat="46.80319" lon="0.42242">
        <ele>72</ele>
        <time>2019-02-17T08:13:52.000Z</time>
      </trkpt>
      <trkpt lat="46.80318" lon="0.42248">
        <ele>72</ele>
        <time>2019-02-17T08:13:53.000Z</time>
      </trkpt>
      <trkpt lat="46.80316" lon="0.42253">
        <ele>70</ele>
        <time>2019-02-17T08:13:54.000Z</time>
      </trkpt>
      <trkpt lat="46.80313" lon="0.42255">
        <ele>69</ele>
        <time>2019-02-17T08:13:55.000Z</time>
      </trkpt>
      <trkpt lat="46.8031" lon="0.42254">
        <ele>69</ele>
        <time>2019-02-17T08:13:56.000Z</time>
      </trkpt>
      <trkpt lat="46.80307" lon="0.42252">
        <ele>68</ele>
        <time>2019-02-17T08:13:57.000Z</time>
      </trkpt>
      <trkpt lat="46.80305" lon="0.42249">
        <ele>67</ele>
        <time>2019-02-17T08:13:58.000Z</time>
      </trkpt>
      <trkpt lat="46.80302" lon="0.42245">
        <ele>66</ele>
        <time>2019-02-17T08:13:59.000Z</time>
      </trkpt>
      <trkpt lat="46.80298" lon="0.42241">
        <ele>66</ele>
        <time>2019-02-17T08:14:00.000Z</time>
      </trkpt>
      <trkpt lat="46.80295" lon="0.42236">
        <ele>66</ele>
        <time>2019-02-17T08:14:01.000Z</time>
      </trkpt>
      <trkpt lat="46.80291" lon="0.42232">
        <ele>65</ele>
        <time>2019-02-17T08:14:02.000Z</time>
      </trkpt>
      <trkpt lat="46.80288" lon="0.42227">
        <ele>65</ele>
        <time>2019-02-17T08:14:03.000Z</time>
      </trkpt>
      <trkpt lat="46.80284" lon="0.42222">
        <ele>65</ele>
        <time>2019-02-17T08:14:04.000Z</time>
      </trkpt>
      <trkpt lat="46.80281" lon="0.42217">
        <ele>64</ele>
        <time>2019-02-17T08:14:05.000Z</time>
      </trkpt>
      <trkpt lat="46.80278" lon="0.42213">
        <ele>63</ele>
        <time>2019-02-17T08:14:06.000Z</time>
      </trkpt>
      <trkpt lat="46.80274" lon="0.42207">
        <ele>63</ele>
        <time>2019-02-17T08:14:07.000Z</time>
      </trkpt>
      <trkpt lat="46.80271" lon="0.42202">
        <ele>63</ele>
        <time>2019-02-17T08:14:08.000Z</time>
      </trkpt>
      <trkpt lat="46.80267" lon="0.42197">
        <ele>62</ele>
        <time>2019-02-17T08:14:09.000Z</time>
      </trkpt>
      <trkpt lat="46.80263" lon="0.42192">
        <ele>61</ele>
        <time>2019-02-17T08:14:10.000Z</time>
      </trkpt>
      <trkpt lat="46.8026" lon="0.42188">
        <ele>60</ele>
        <time>2019-02-17T08:14:11.000Z</time>
      </trkpt>
      <trkpt lat="46.80256" lon="0.42183">
        <ele>59</ele>
        <time>2019-02-17T08:14:12.000Z</time>
      </trkpt>
      <trkpt lat="46.80252" lon="0.42178">
        <ele>59</ele>
        <time>2019-02-17T08:14:13.000Z</time>
      </trkpt>
      <trkpt lat="46.80247" lon="0.42173">
        <ele>59</ele>
        <time>2019-02-17T08:14:14.000Z</time>
      </trkpt>
      <trkpt lat="46.80242" lon="0.42169">
        <ele>60</ele>
        <time>2019-02-17T08:14:15.000Z</time>
      </trkpt>
      <trkpt lat="46.80236" lon="0.42165">
        <ele>62</ele>
        <time>2019-02-17T08:14:16.000Z</time>
      </trkpt>
      <trkpt lat="46.80231" lon="0.42162">
        <ele>63</ele>
        <time>2019-02-17T08:14:17.000Z</time>
      </trkpt>
      <trkpt lat="46.80225" lon="0.42159">
        <ele>63</ele>
        <time>2019-02-17T08:14:18.000Z</time>
      </trkpt>
      <trkpt lat="46.80219" lon="0.42157">
        <ele>63</ele>
        <time>2019-02-17T08:14:19.000Z</time>
      </trkpt>
      <trkpt lat="46.80214" lon="0.42155">
        <ele>64</ele>
        <time>2019-02-17T08:14:20.000Z</time>
      </trkpt>
      <trkpt lat="46.80209" lon="0.42153">
        <ele>64</ele>
        <time>2019-02-17T08:14:21.000Z</time>
      </trkpt>
      <trkpt lat="46.80203" lon="0.42152">
        <ele>63</ele>
        <time>2019-02-17T08:14:22.000Z</time>
      </trkpt>
      <trkpt lat="46.80198" lon="0.4215">
        <ele>64</ele>
        <time>2019-02-17T08:14:23.000Z</time>
      </trkpt>
      <trkpt lat="46.80192" lon="0.42149">
        <ele>64</ele>
        <time>2019-02-17T08:14:24.000Z</time>
      </trkpt>
      <trkpt lat="46.80187" lon="0.42147">
        <ele>63</ele>
        <time>2019-02-17T08:14:25.000Z</time>
      </trkpt>
      <trkpt lat="46.80181" lon="0.42146">
        <ele>63</ele>
        <time>2019-02-17T08:14:26.000Z</time>
      </trkpt>
      <trkpt lat="46.80176" lon="0.42144">
        <ele>64</ele>
        <time>2019-02-17T08:14:27.000Z</time>
      </trkpt>
      <trkpt lat="46.80171" lon="0.42143">
        <ele>63</ele>
        <time>2019-02-17T08:14:28.000Z</time>
      </trkpt>
      <trkpt lat="46.80166" lon="0.42142">
        <ele>63</ele>
        <time>2019-02-17T08:14:29.000Z</time>
      </trkpt>
      <trkpt lat="46.80161" lon="0.42142">
        <ele>63</ele>
        <time>2019-02-17T08:14:30.000Z</time>
      </trkpt>
      <trkpt lat="46.80155" lon="0.42142">
        <ele>62</ele>
        <time>2019-02-17T08:14:31.000Z</time>
      </trkpt>
      <trkpt lat="46.8015" lon="0.42142">
        <ele>62</ele>
        <time>2019-02-17T08:14:32.000Z</time>
      </trkpt>
      <trkpt lat="46.80144" lon="0.42142">
        <ele>63</ele>
        <time>2019-02-17T08:14:33.000Z</time>
      </trkpt>
      <trkpt lat="46.80139" lon="0.42142">
        <ele>63</ele>
        <time>2019-02-17T08:14:34.000Z</time>
      </trkpt>
      <trkpt lat="46.80133" lon="0.42141">
        <ele>64</ele>
        <time>2019-02-17T08:14:35.000Z</time>
      </trkpt>
      <trkpt lat="46.80127" lon="0.42141">
        <ele>63</ele>
        <time>2019-02-17T08:14:36.000Z</time>
      </trkpt>
      <trkpt lat="46.80122" lon="0.42141">
        <ele>63</ele>
        <time>2019-02-17T08:14:37.000Z</time>
      </trkpt>
      <trkpt lat="46.80116" lon="0.42141">
        <ele>64</ele>
        <time>2019-02-17T08:14:38.000Z</time>
      </trkpt>
      <trkpt lat="46.80111" lon="0.42141">
        <ele>64</ele>
        <time>2019-02-17T08:14:39.000Z</time>
      </trkpt>
      <trkpt lat="46.80106" lon="0.42142">
        <ele>63</ele>
        <time>2019-02-17T08:14:40.000Z</time>
      </trkpt>
      <trkpt lat="46.80101" lon="0.42142">
        <ele>63</ele>
        <time>2019-02-17T08:14:41.000Z</time>
      </trkpt>
      <trkpt lat="46.80096" lon="0.42142">
        <ele>63</ele>
        <time>2019-02-17T08:14:42.000Z</time>
      </trkpt>
      <trkpt lat="46.80091" lon="0.42142">
        <ele>62</ele>
        <time>2019-02-17T08:14:43.000Z</time>
      </trkpt>
      <trkpt lat="46.80086" lon="0.42142">
        <ele>61</ele>
        <time>2019-02-17T08:14:44.000Z</time>
      </trkpt>
      <trkpt lat="46.80082" lon="0.42143">
        <ele>61</ele>
        <time>2019-02-17T08:14:45.000Z</time>
      </trkpt>
      <trkpt lat="46.80077" lon="0.42143">
        <ele>60</ele>
        <time>2019-02-17T08:14:46.000Z</time>
      </trkpt>
      <trkpt lat="46.80073" lon="0.42143">
        <ele>61</ele>
        <time>2019-02-17T08:14:47.000Z</time>
      </trkpt>
      <trkpt lat="46.80068" lon="0.42142">
        <ele>61</ele>
        <time>2019-02-17T08:14:48.000Z</time>
      </trkpt>
      <trkpt lat="46.80063" lon="0.42142">
        <ele>60</ele>
        <time>2019-02-17T08:14:49.000Z</time>
      </trkpt>
      <trkpt lat="46.80058" lon="0.42141">
        <ele>59</ele>
        <time>2019-02-17T08:14:50.000Z</time>
      </trkpt>
      <trkpt lat="46.80052" lon="0.42139">
        <ele>62</ele>
        <time>2019-02-17T08:14:51.000Z</time>
      </trkpt>
      <trkpt lat="46.80046" lon="0.42137">
        <ele>63</ele>
        <time>2019-02-17T08:14:52.000Z</time>
      </trkpt>
      <trkpt lat="46.80041" lon="0.42136">
        <ele>64</ele>
        <time>2019-02-17T08:14:53.000Z</time>
      </trkpt>
      <trkpt lat="46.80036" lon="0.42135">
        <ele>63</ele>
        <time>2019-02-17T08:14:54.000Z</time>
      </trkpt>
      <trkpt lat="46.80031" lon="0.42134">
        <ele>63</ele>
        <time>2019-02-17T08:14:55.000Z</time>
      </trkpt>
      <trkpt lat="46.80026" lon="0.42134">
        <ele>63</ele>
        <time>2019-02-17T08:14:56.000Z</time>
      </trkpt>
      <trkpt lat="46.80021" lon="0.42133">
        <ele>63</ele>
        <time>2019-02-17T08:14:57.000Z</time>
      </trkpt>
      <trkpt lat="46.80016" lon="0.42133">
        <ele>64</ele>
        <time>2019-02-17T08:14:58.000Z</time>
      </trkpt>
      <trkpt lat="46.80011" lon="0.42133">
        <ele>64</ele>
        <time>2019-02-17T08:14:59.000Z</time>
      </trkpt>
      <trkpt lat="46.80006" lon="0.42133">
        <ele>65</ele>
        <time>2019-02-17T08:15:00.000Z</time>
      </trkpt>
      <trkpt lat="46.8" lon="0.42133">
        <ele>65</ele>
        <time>2019-02-17T08:15:01.000Z</time>
      </trkpt>
      <trkpt lat="46.79995" lon="0.42133">
        <ele>66</ele>
        <time>2019-02-17T08:15:02.000Z</time>
      </trkpt>
      <trkpt lat="46.79989" lon="0.42132">
        <ele>66</ele>
        <time>2019-02-17T08:15:03.000Z</time>
      </trkpt>
      <trkpt lat="46.79984" lon="0.42132">
        <ele>68</ele>
        <time>2019-02-17T08:15:04.000Z</time>
      </trkpt>
      <trkpt lat="46.79978" lon="0.42131">
        <ele>69</ele>
        <time>2019-02-17T08:15:05.000Z</time>
      </trkpt>
      <trkpt lat="46.79973" lon="0.4213">
        <ele>69</ele>
        <time>2019-02-17T08:15:06.000Z</time>
      </trkpt>
      <trkpt lat="46.79967" lon="0.42129">
        <ele>70</ele>
        <time>2019-02-17T08:15:07.000Z</time>
      </trkpt>
      <trkpt lat="46.79962" lon="0.42129">
        <ele>70</ele>
        <time>2019-02-17T08:15:08.000Z</time>
      </trkpt>
      <trkpt lat="46.79957" lon="0.42129">
        <ele>69</ele>
        <time>2019-02-17T08:15:09.000Z</time>
      </trkpt>
      <trkpt lat="46.79952" lon="0.42129">
        <ele>69</ele>
        <time>2019-02-17T08:15:10.000Z</time>
      </trkpt>
      <trkpt lat="46.79946" lon="0.4213">
        <ele>69</ele>
        <time>2019-02-17T08:15:11.000Z</time>
      </trkpt>
      <trkpt lat="46.79941" lon="0.42131">
        <ele>68</ele>
        <time>2019-02-17T08:15:12.000Z</time>
      </trkpt>
      <trkpt lat="46.79935" lon="0.42132">
        <ele>68</ele>
        <time>2019-02-17T08:15:13.000Z</time>
      </trkpt>
      <trkpt lat="46.7993" lon="0.42134">
        <ele>68</ele>
        <time>2019-02-17T08:15:14.000Z</time>
      </trkpt>
      <trkpt lat="46.79924" lon="0.42135">
        <ele>68</ele>
        <time>2019-02-17T08:15:15.000Z</time>
      </trkpt>
      <trkpt lat="46.79919" lon="0.42136">
        <ele>68</ele>
        <time>2019-02-17T08:15:16.000Z</time>
      </trkpt>
      <trkpt lat="46.79913" lon="0.42138">
        <ele>68</ele>
        <time>2019-02-17T08:15:17.000Z</time>
      </trkpt>
      <trkpt lat="46.79908" lon="0.42139">
        <ele>68</ele>
        <time>2019-02-17T08:15:18.000Z</time>
      </trkpt>
      <trkpt lat="46.79903" lon="0.42141">
        <ele>68</ele>
        <time>2019-02-17T08:15:19.000Z</time>
      </trkpt>
      <trkpt lat="46.79897" lon="0.42143">
        <ele>67</ele>
        <time>2019-02-17T08:15:20.000Z</time>
      </trkpt>
      <trkpt lat="46.79892" lon="0.42144">
        <ele>67</ele>
        <time>2019-02-17T08:15:21.000Z</time>
      </trkpt>
      <trkpt lat="46.79887" lon="0.42146">
        <ele>67</ele>
        <time>2019-02-17T08:15:22.000Z</time>
      </trkpt>
      <trkpt lat="46.79882" lon="0.42148">
        <ele>67</ele>
        <time>2019-02-17T08:15:23.000Z</time>
      </trkpt>
      <trkpt lat="46.79876" lon="0.4215">
        <ele>67</ele>
        <time>2019-02-17T08:15:24.000Z</time>
      </trkpt>
      <trkpt lat="46.79871" lon="0.42152">
        <ele>67</ele>
        <time>2019-02-17T08:15:25.000Z</time>
      </trkpt>
      <trkpt lat="46.79866" lon="0.42155">
        <ele>66</ele>
        <time>2019-02-17T08:15:26.000Z</time>
      </trkpt>
      <trkpt lat="46.79861" lon="0.42157">
        <ele>67</ele>
        <time>2019-02-17T08:15:27.000Z</time>
      </trkpt>
      <trkpt lat="46.79855" lon="0.42159">
        <ele>67</ele>
        <time>2019-02-17T08:15:28.000Z</time>
      </trkpt>
      <trkpt lat="46.7985" lon="0.42162">
        <ele>67</ele>
        <time>2019-02-17T08:15:29.000Z</time>
      </trkpt>
      <trkpt lat="46.79845" lon="0.42165">
        <ele>67</ele>
        <time>2019-02-17T08:15:30.000Z</time>
      </trkpt>
      <trkpt lat="46.7984" lon="0.42167">
        <ele>67</ele>
        <time>2019-02-17T08:15:31.000Z</time>
      </trkpt>
      <trkpt lat="46.79835" lon="0.42169">
        <ele>67</ele>
        <time>2019-02-17T08:15:32.000Z</time>
      </trkpt>
      <trkpt lat="46.7983" lon="0.42171">
        <ele>66</ele>
        <time>2019-02-17T08:15:33.000Z</time>
      </trkpt>
      <trkpt lat="46.79826" lon="0.42173">
        <ele>66</ele>
        <time>2019-02-17T08:15:34.000Z</time>
      </trkpt>
      <trkpt lat="46.79821" lon="0.42174">
        <ele>66</ele>
        <time>2019-02-17T08:15:35.000Z</time>
      </trkpt>
      <trkpt lat="46.79816" lon="0.42175">
        <ele>66</ele>
        <time>2019-02-17T08:15:36.000Z</time>
      </trkpt>
      <trkpt lat="46.79811" lon="0.42176">
        <ele>66</ele>
        <time>2019-02-17T08:15:37.000Z</time>
      </trkpt>
      <trkpt lat="46.79807" lon="0.42177">
        <ele>66</ele>
        <time>2019-02-17T08:15:38.000Z</time>
      </trkpt>
      <trkpt lat="46.79802" lon="0.42177">
        <ele>66</ele>
        <time>2019-02-17T08:15:39.000Z</time>
      </trkpt>
      <trkpt lat="46.79797" lon="0.42178">
        <ele>67</ele>
        <time>2019-02-17T08:15:40.000Z</time>
      </trkpt>
      <trkpt lat="46.79792" lon="0.42178">
        <ele>67</ele>
        <time>2019-02-17T08:15:41.000Z</time>
      </trkpt>
      <trkpt lat="46.79787" lon="0.42179">
        <ele>67</ele>
        <time>2019-02-17T08:15:42.000Z</time>
      </trkpt>
      <trkpt lat="46.79783" lon="0.42179">
        <ele>68</ele>
        <time>2019-02-17T08:15:43.000Z</time>
      </trkpt>
      <trkpt lat="46.79778" lon="0.42179">
        <ele>69</ele>
        <time>2019-02-17T08:15:44.000Z</time>
      </trkpt>
      <trkpt lat="46.79773" lon="0.42179">
        <ele>69</ele>
        <time>2019-02-17T08:15:45.000Z</time>
      </trkpt>
      <trkpt lat="46.79769" lon="0.4218">
        <ele>69</ele>
        <time>2019-02-17T08:15:46.000Z</time>
      </trkpt>
      <trkpt lat="46.79764" lon="0.4218">
        <ele>70</ele>
        <time>2019-02-17T08:15:47.000Z</time>
      </trkpt>
      <trkpt lat="46.7976" lon="0.42181">
        <ele>70</ele>
        <time>2019-02-17T08:15:48.000Z</time>
      </trkpt>
      <trkpt lat="46.79756" lon="0.42181">
        <ele>70</ele>
        <time>2019-02-17T08:15:49.000Z</time>
      </trkpt>
      <trkpt lat="46.79751" lon="0.42181">
        <ele>69</ele>
        <time>2019-02-17T08:15:50.000Z</time>
      </trkpt>
      <trkpt lat="46.79747" lon="0.42182">
        <ele>70</ele>
        <time>2019-02-17T08:15:51.000Z</time>
      </trkpt>
      <trkpt lat="46.79742" lon="0.42182">
        <ele>70</ele>
        <time>2019-02-17T08:15:52.000Z</time>
      </trkpt>
      <trkpt lat="46.79738" lon="0.42183">
        <ele>69</ele>
        <time>2019-02-17T08:15:53.000Z</time>
      </trkpt>
      <trkpt lat="46.79733" lon="0.42185">
        <ele>69</ele>
        <time>2019-02-17T08:15:54.000Z</time>
      </trkpt>
      <trkpt lat="46.79729" lon="0.42186">
        <ele>70</ele>
        <time>2019-02-17T08:15:55.000Z</time>
      </trkpt>
      <trkpt lat="46.79724" lon="0.42188">
        <ele>70</ele>
        <time>2019-02-17T08:15:56.000Z</time>
      </trkpt>
      <trkpt lat="46.79719" lon="0.42191">
        <ele>70</ele>
        <time>2019-02-17T08:15:57.000Z</time>
      </trkpt>
      <trkpt lat="46.79714" lon="0.42193">
        <ele>69</ele>
        <time>2019-02-17T08:15:58.000Z</time>
      </trkpt>
      <trkpt lat="46.79709" lon="0.42195">
        <ele>69</ele>
        <time>2019-02-17T08:15:59.000Z</time>
      </trkpt>
      <trkpt lat="46.79704" lon="0.42198">
        <ele>69</ele>
        <time>2019-02-17T08:16:00.000Z</time>
      </trkpt>
      <trkpt lat="46.79699" lon="0.422">
        <ele>69</ele>
        <time>2019-02-17T08:16:01.000Z</time>
      </trkpt>
      <trkpt lat="46.79695" lon="0.42202">
        <ele>68</ele>
        <time>2019-02-17T08:16:02.000Z</time>
      </trkpt>
      <trkpt lat="46.7969" lon="0.42204">
        <ele>68</ele>
        <time>2019-02-17T08:16:03.000Z</time>
      </trkpt>
      <trkpt lat="46.79685" lon="0.42206">
        <ele>68</ele>
        <time>2019-02-17T08:16:04.000Z</time>
      </trkpt>
      <trkpt lat="46.79681" lon="0.42208">
        <ele>68</ele>
        <time>2019-02-17T08:16:05.000Z</time>
      </trkpt>
      <trkpt lat="46.79676" lon="0.4221">
        <ele>68</ele>
        <time>2019-02-17T08:16:06.000Z</time>
      </trkpt>
      <trkpt lat="46.79671" lon="0.42212">
        <ele>68</ele>
        <time>2019-02-17T08:16:07.000Z</time>
      </trkpt>
      <trkpt lat="46.79666" lon="0.42214">
        <ele>67</ele>
        <time>2019-02-17T08:16:08.000Z</time>
      </trkpt>
      <trkpt lat="46.79661" lon="0.42216">
        <ele>67</ele>
        <time>2019-02-17T08:16:09.000Z</time>
      </trkpt>
      <trkpt lat="46.79655" lon="0.42218">
        <ele>67</ele>
        <time>2019-02-17T08:16:10.000Z</time>
      </trkpt>
      <trkpt lat="46.7965" lon="0.4222">
        <ele>67</ele>
        <time>2019-02-17T08:16:11.000Z</time>
      </trkpt>
      <trkpt lat="46.79645" lon="0.42222">
        <ele>66</ele>
        <time>2019-02-17T08:16:12.000Z</time>
      </trkpt>
      <trkpt lat="46.7964" lon="0.42224">
        <ele>66</ele>
        <time>2019-02-17T08:16:13.000Z</time>
      </trkpt>
      <trkpt lat="46.79635" lon="0.42227">
        <ele>65</ele>
        <time>2019-02-17T08:16:14.000Z</time>
      </trkpt>
      <trkpt lat="46.79629" lon="0.42229">
        <ele>65</ele>
        <time>2019-02-17T08:16:15.000Z</time>
      </trkpt>
      <trkpt lat="46.79624" lon="0.42231">
        <ele>65</ele>
        <time>2019-02-17T08:16:16.000Z</time>
      </trkpt>
      <trkpt lat="46.79619" lon="0.42233">
        <ele>65</ele>
        <time>2019-02-17T08:16:17.000Z</time>
      </trkpt>
      <trkpt lat="46.79614" lon="0.42235">
        <ele>65</ele>
        <time>2019-02-17T08:16:18.000Z</time>
      </trkpt>
      <trkpt lat="46.79609" lon="0.42237">
        <ele>65</ele>
        <time>2019-02-17T08:16:19.000Z</time>
      </trkpt>
      <trkpt lat="46.79604" lon="0.42239">
        <ele>65</ele>
        <time>2019-02-17T08:16:20.000Z</time>
      </trkpt>
      <trkpt lat="46.79599" lon="0.4224">
        <ele>64</ele>
        <time>2019-02-17T08:16:21.000Z</time>
      </trkpt>
      <trkpt lat="46.79594" lon="0.42242">
        <ele>64</ele>
        <time>2019-02-17T08:16:22.000Z</time>
      </trkpt>
      <trkpt lat="46.79589" lon="0.42243">
        <ele>64</ele>
        <time>2019-02-17T08:16:23.000Z</time>
      </trkpt>
      <trkpt lat="46.79584" lon="0.42244">
        <ele>64</ele>
        <time>2019-02-17T08:16:24.000Z</time>
      </trkpt>
      <trkpt lat="46.79579" lon="0.42245">
        <ele>65</ele>
        <time>2019-02-17T08:16:25.000Z</time>
      </trkpt>
      <trkpt lat="46.79573" lon="0.42245">
        <ele>65</ele>
        <time>2019-02-17T08:16:26.000Z</time>
      </trkpt>
      <trkpt lat="46.79568" lon="0.42246">
        <ele>64</ele>
        <time>2019-02-17T08:16:27.000Z</time>
      </trkpt>
      <trkpt lat="46.79563" lon="0.42247">
        <ele>65</ele>
        <time>2019-02-17T08:16:28.000Z</time>
      </trkpt>
      <trkpt lat="46.79558" lon="0.42248">
        <ele>65</ele>
        <time>2019-02-17T08:16:29.000Z</time>
      </trkpt>
      <trkpt lat="46.79552" lon="0.4225">
        <ele>65</ele>
        <time>2019-02-17T08:16:30.000Z</time>
      </trkpt>
      <trkpt lat="46.79547" lon="0.42251">
        <ele>65</ele>
        <time>2019-02-17T08:16:31.000Z</time>
      </trkpt>
      <trkpt lat="46.79542" lon="0.42252">
        <ele>64</ele>
        <time>2019-02-17T08:16:32.000Z</time>
      </trkpt>
      <trkpt lat="46.79537" lon="0.42254">
        <ele>65</ele>
        <time>2019-02-17T08:16:33.000Z</time>
      </trkpt>
      <trkpt lat="46.79532" lon="0.42255">
        <ele>65</ele>
        <time>2019-02-17T08:16:34.000Z</time>
      </trkpt>
      <trkpt lat="46.79527" lon="0.42256">
        <ele>65</ele>
        <time>2019-02-17T08:16:35.000Z</time>
      </trkpt>
      <trkpt lat="46.79522" lon="0.42257">
        <ele>64</ele>
        <time>2019-02-17T08:16:36.000Z</time>
      </trkpt>
      <trkpt lat="46.79517" lon="0.42257">
        <ele>64</ele>
        <time>2019-02-17T08:16:37.000Z</time>
      </trkpt>
      <trkpt lat="46.79512" lon="0.42257">
        <ele>64</ele>
        <time>2019-02-17T08:16:38.000Z</time>
      </trkpt>
      <trkpt lat="46.79507" lon="0.42257">
        <ele>64</ele>
        <time>2019-02-17T08:16:39.000Z</time>
      </trkpt>
      <trkpt lat="46.79502" lon="0.42257">
        <ele>64</ele>
        <time>2019-02-17T08:16:40.000Z</time>
      </trkpt>
      <trkpt lat="46.79497" lon="0.42257">
        <ele>64</ele>
        <time>2019-02-17T08:16:41.000Z</time>
      </trkpt>
      <trkpt lat="46.79492" lon="0.42257">
        <ele>64</ele>
        <time>2019-02-17T08:16:42.000Z</time>
      </trkpt>
      <trkpt lat="46.79487" lon="0.42257">
        <ele>64</ele>
        <time>2019-02-17T08:16:43.000Z</time>
      </trkpt>
      <trkpt lat="46.79482" lon="0.42256">
        <ele>63</ele>
        <time>2019-02-17T08:16:44.000Z</time>
      </trkpt>
      <trkpt lat="46.79477" lon="0.42256">
        <ele>63</ele>
        <time>2019-02-17T08:16:45.000Z</time>
      </trkpt>
      <trkpt lat="46.79472" lon="0.42255">
        <ele>63</ele>
        <time>2019-02-17T08:16:46.000Z</time>
      </trkpt>
      <trkpt lat="46.79467" lon="0.42254">
        <ele>63</ele>
        <time>2019-02-17T08:16:47.000Z</time>
      </trkpt>
      <trkpt lat="46.79462" lon="0.42253">
        <ele>63</ele>
        <time>2019-02-17T08:16:48.000Z</time>
      </trkpt>
      <trkpt lat="46.79458" lon="0.4225">
        <ele>63</ele>
        <time>2019-02-17T08:16:49.000Z</time>
      </trkpt>
      <trkpt lat="46.79453" lon="0.42248">
        <ele>62</ele>
        <time>2019-02-17T08:16:50.000Z</time>
      </trkpt>
      <trkpt lat="46.79449" lon="0.42244">
        <ele>62</ele>
        <time>2019-02-17T08:16:51.000Z</time>
      </trkpt>
      <trkpt lat="46.79445" lon="0.42241">
        <ele>62</ele>
        <time>2019-02-17T08:16:52.000Z</time>
      </trkpt>
      <trkpt lat="46.79441" lon="0.42237">
        <ele>62</ele>
        <time>2019-02-17T08:16:53.000Z</time>
      </trkpt>
      <trkpt lat="46.79437" lon="0.42233">
        <ele>62</ele>
        <time>2019-02-17T08:16:54.000Z</time>
      </trkpt>
      <trkpt lat="46.79433" lon="0.4223">
        <ele>61</ele>
        <time>2019-02-17T08:16:55.000Z</time>
      </trkpt>
      <trkpt lat="46.79428" lon="0.42226">
        <ele>61</ele>
        <time>2019-02-17T08:16:56.000Z</time>
      </trkpt>
      <trkpt lat="46.79424" lon="0.42223">
        <ele>61</ele>
        <time>2019-02-17T08:16:57.000Z</time>
      </trkpt>
      <trkpt lat="46.79419" lon="0.42221">
        <ele>61</ele>
        <time>2019-02-17T08:16:58.000Z</time>
      </trkpt>
      <trkpt lat="46.79415" lon="0.42218">
        <ele>60</ele>
        <time>2019-02-17T08:16:59.000Z</time>
      </trkpt>
      <trkpt lat="46.7941" lon="0.42216">
        <ele>60</ele>
        <time>2019-02-17T08:17:00.000Z</time>
      </trkpt>
      <trkpt lat="46.79406" lon="0.42214">
        <ele>59</ele>
        <time>2019-02-17T08:17:01.000Z</time>
      </trkpt>
      <trkpt lat="46.79402" lon="0.42212">
        <ele>59</ele>
        <time>2019-02-17T08:17:02.000Z</time>
      </trkpt>
      <trkpt lat="46.79397" lon="0.4221">
        <ele>58</ele>
        <time>2019-02-17T08:17:03.000Z</time>
      </trkpt>
      <trkpt lat="46.79393" lon="0.42208">
        <ele>58</ele>
        <time>2019-02-17T08:17:04.000Z</time>
      </trkpt>
      <trkpt lat="46.79389" lon="0.42205">
        <ele>57</ele>
        <time>2019-02-17T08:17:05.000Z</time>
      </trkpt>
      <trkpt lat="46.79384" lon="0.42204">
        <ele>57</ele>
        <time>2019-02-17T08:17:06.000Z</time>
      </trkpt>
      <trkpt lat="46.79379" lon="0.42202">
        <ele>57</ele>
        <time>2019-02-17T08:17:07.000Z</time>
      </trkpt>
      <trkpt lat="46.79374" lon="0.422">
        <ele>56</ele>
        <time>2019-02-17T08:17:08.000Z</time>
      </trkpt>
      <trkpt lat="46.7937" lon="0.42198">
        <ele>56</ele>
        <time>2019-02-17T08:17:09.000Z</time>
      </trkpt>
      <trkpt lat="46.79365" lon="0.42196">
        <ele>57</ele>
        <time>2019-02-17T08:17:10.000Z</time>
      </trkpt>
      <trkpt lat="46.79361" lon="0.42194">
        <ele>57</ele>
        <time>2019-02-17T08:17:11.000Z</time>
      </trkpt>
      <trkpt lat="46.79356" lon="0.42191">
        <ele>58</ele>
        <time>2019-02-17T08:17:12.000Z</time>
      </trkpt>
      <trkpt lat="46.79351" lon="0.42189">
        <ele>59</ele>
        <time>2019-02-17T08:17:13.000Z</time>
      </trkpt>
      <trkpt lat="46.79346" lon="0.42187">
        <ele>59</ele>
        <time>2019-02-17T08:17:14.000Z</time>
      </trkpt>
      <trkpt lat="46.79342" lon="0.42185">
        <ele>59</ele>
        <time>2019-02-17T08:17:15.000Z</time>
      </trkpt>
      <trkpt lat="46.79337" lon="0.42183">
        <ele>59</ele>
        <time>2019-02-17T08:17:16.000Z</time>
      </trkpt>
      <trkpt lat="46.79332" lon="0.42182">
        <ele>59</ele>
        <time>2019-02-17T08:17:17.000Z</time>
      </trkpt>
      <trkpt lat="46.79328" lon="0.4218">
        <ele>59</ele>
        <time>2019-02-17T08:17:18.000Z</time>
      </trkpt>
      <trkpt lat="46.79323" lon="0.42178">
        <ele>59</ele>
        <time>2019-02-17T08:17:19.000Z</time>
      </trkpt>
      <trkpt lat="46.79319" lon="0.42176">
        <ele>59</ele>
        <time>2019-02-17T08:17:20.000Z</time>
      </trkpt>
      <trkpt lat="46.79314" lon="0.42174">
        <ele>59</ele>
        <time>2019-02-17T08:17:21.000Z</time>
      </trkpt>
      <trkpt lat="46.7931" lon="0.42173">
        <ele>58</ele>
        <time>2019-02-17T08:17:22.000Z</time>
      </trkpt>
      <trkpt lat="46.79305" lon="0.42171">
        <ele>58</ele>
        <time>2019-02-17T08:17:23.000Z</time>
      </trkpt>
      <trkpt lat="46.79301" lon="0.4217">
        <ele>58</ele>
        <time>2019-02-17T08:17:24.000Z</time>
      </trkpt>
      <trkpt lat="46.79297" lon="0.42168">
        <ele>58</ele>
        <time>2019-02-17T08:17:25.000Z</time>
      </trkpt>
      <trkpt lat="46.79293" lon="0.42167">
        <ele>58</ele>
        <time>2019-02-17T08:17:26.000Z</time>
      </trkpt>
      <trkpt lat="46.79289" lon="0.42165">
        <ele>57</ele>
        <time>2019-02-17T08:17:27.000Z</time>
      </trkpt>
      <trkpt lat="46.79284" lon="0.42164">
        <ele>57</ele>
        <time>2019-02-17T08:17:28.000Z</time>
      </trkpt>
      <trkpt lat="46.7928" lon="0.42163">
        <ele>57</ele>
        <time>2019-02-17T08:17:29.000Z</time>
      </trkpt>
      <trkpt lat="46.79275" lon="0.42163">
        <ele>56</ele>
        <time>2019-02-17T08:17:30.000Z</time>
      </trkpt>
      <trkpt lat="46.79271" lon="0.42163">
        <ele>56</ele>
        <time>2019-02-17T08:17:31.000Z</time>
      </trkpt>
      <trkpt lat="46.79266" lon="0.42163">
        <ele>56</ele>
        <time>2019-02-17T08:17:32.000Z</time>
      </trkpt>
      <trkpt lat="46.79261" lon="0.42162">
        <ele>56</ele>
        <time>2019-02-17T08:17:33.000Z</time>
      </trkpt>
      <trkpt lat="46.79255" lon="0.42161">
        <ele>56</ele>
        <time>2019-02-17T08:17:34.000Z</time>
      </trkpt>
      <trkpt lat="46.7925" lon="0.4216">
        <ele>56</ele>
        <time>2019-02-17T08:17:35.000Z</time>
      </trkpt>
      <trkpt lat="46.79245" lon="0.4216">
        <ele>56</ele>
        <time>2019-02-17T08:17:36.000Z</time>
      </trkpt>
      <trkpt lat="46.7924" lon="0.42159">
        <ele>55</ele>
        <time>2019-02-17T08:17:37.000Z</time>
      </trkpt>
      <trkpt lat="46.79235" lon="0.42159">
        <ele>55</ele>
        <time>2019-02-17T08:17:38.000Z</time>
      </trkpt>
      <trkpt lat="46.7923" lon="0.42159">
        <ele>55</ele>
        <time>2019-02-17T08:17:39.000Z</time>
      </trkpt>
      <trkpt lat="46.79225" lon="0.42158">
        <ele>55</ele>
        <time>2019-02-17T08:17:40.000Z</time>
      </trkpt>
      <trkpt lat="46.7922" lon="0.42158">
        <ele>55</ele>
        <time>2019-02-17T08:17:41.000Z</time>
      </trkpt>
      <trkpt lat="46.79216" lon="0.42158">
        <ele>55</ele>
        <time>2019-02-17T08:17:42.000Z</time>
      </trkpt>
      <trkpt lat="46.79211" lon="0.42158">
        <ele>55</ele>
        <time>2019-02-17T08:17:43.000Z</time>
      </trkpt>
      <trkpt lat="46.79206" lon="0.42158">
        <ele>55</ele>
        <time>2019-02-17T08:17:44.000Z</time>
      </trkpt>
      <trkpt lat="46.79202" lon="0.42159">
        <ele>56</ele>
        <time>2019-02-17T08:17:45.000Z</time>
      </trkpt>
      <trkpt lat="46.79197" lon="0.4216">
        <ele>56</ele>
        <time>2019-02-17T08:17:46.000Z</time>
      </trkpt>
      <trkpt lat="46.79192" lon="0.42161">
        <ele>56</ele>
        <time>2019-02-17T08:17:47.000Z</time>
      </trkpt>
      <trkpt lat="46.79187" lon="0.42163">
        <ele>56</ele>
        <time>2019-02-17T08:17:48.000Z</time>
      </trkpt>
      <trkpt lat="46.79182" lon="0.42164">
        <ele>56</ele>
        <time>2019-02-17T08:17:49.000Z</time>
      </trkpt>
      <trkpt lat="46.79178" lon="0.42166">
        <ele>57</ele>
        <time>2019-02-17T08:17:50.000Z</time>
      </trkpt>
      <trkpt lat="46.79173" lon="0.42167">
        <ele>57</ele>
        <time>2019-02-17T08:17:51.000Z</time>
      </trkpt>
      <trkpt lat="46.79168" lon="0.42169">
        <ele>58</ele>
        <time>2019-02-17T08:17:52.000Z</time>
      </trkpt>
      <trkpt lat="46.79163" lon="0.4217">
        <ele>58</ele>
        <time>2019-02-17T08:17:53.000Z</time>
      </trkpt>
      <trkpt lat="46.79158" lon="0.42171">
        <ele>58</ele>
        <time>2019-02-17T08:17:54.000Z</time>
      </trkpt>
      <trkpt lat="46.79153" lon="0.42173">
        <ele>58</ele>
        <time>2019-02-17T08:17:55.000Z</time>
      </trkpt>
      <trkpt lat="46.79148" lon="0.42174">
        <ele>58</ele>
        <time>2019-02-17T08:17:56.000Z</time>
      </trkpt>
      <trkpt lat="46.79143" lon="0.42176">
        <ele>59</ele>
        <time>2019-02-17T08:17:57.000Z</time>
      </trkpt>
      <trkpt lat="46.79138" lon="0.42177">
        <ele>59</ele>
        <time>2019-02-17T08:17:58.000Z</time>
      </trkpt>
      <trkpt lat="46.79134" lon="0.42179">
        <ele>59</ele>
        <time>2019-02-17T08:17:59.000Z</time>
      </trkpt>
      <trkpt lat="46.79129" lon="0.42181">
        <ele>60</ele>
        <time>2019-02-17T08:18:00.000Z</time>
      </trkpt>
      <trkpt lat="46.79124" lon="0.42182">
        <ele>60</ele>
        <time>2019-02-17T08:18:01.000Z</time>
      </trkpt>
      <trkpt lat="46.7912" lon="0.42184">
        <ele>60</ele>
        <time>2019-02-17T08:18:02.000Z</time>
      </trkpt>
      <trkpt lat="46.79115" lon="0.42186">
        <ele>60</ele>
        <time>2019-02-17T08:18:03.000Z</time>
      </trkpt>
      <trkpt lat="46.79111" lon="0.42187">
        <ele>60</ele>
        <time>2019-02-17T08:18:04.000Z</time>
      </trkpt>
      <trkpt lat="46.79106" lon="0.42189">
        <ele>60</ele>
        <time>2019-02-17T08:18:05.000Z</time>
      </trkpt>
      <trkpt lat="46.79101" lon="0.4219">
        <ele>60</ele>
        <time>2019-02-17T08:18:06.000Z</time>
      </trkpt>
      <trkpt lat="46.79097" lon="0.42192">
        <ele>60</ele>
        <time>2019-02-17T08:18:07.000Z</time>
      </trkpt>
      <trkpt lat="46.79092" lon="0.42194">
        <ele>60</ele>
        <time>2019-02-17T08:18:08.000Z</time>
      </trkpt>
      <trkpt lat="46.79088" lon="0.42195">
        <ele>60</ele>
        <time>2019-02-17T08:18:09.000Z</time>
      </trkpt>
      <trkpt lat="46.79083" lon="0.42197">
        <ele>60</ele>
        <time>2019-02-17T08:18:10.000Z</time>
      </trkpt>
      <trkpt lat="46.79079" lon="0.42199">
        <ele>60</ele>
        <time>2019-02-17T08:18:11.000Z</time>
      </trkpt>
      <trkpt lat="46.79074" lon="0.422">
        <ele>60</ele>
        <time>2019-02-17T08:18:12.000Z</time>
      </trkpt>
      <trkpt lat="46.7907" lon="0.42202">
        <ele>60</ele>
        <time>2019-02-17T08:18:13.000Z</time>
      </trkpt>
      <trkpt lat="46.79066" lon="0.42204">
        <ele>60</ele>
        <time>2019-02-17T08:18:14.000Z</time>
      </trkpt>
      <trkpt lat="46.79062" lon="0.42205">
        <ele>60</ele>
        <time>2019-02-17T08:18:15.000Z</time>
      </trkpt>
      <trkpt lat="46.79059" lon="0.42208">
        <ele>60</ele>
        <time>2019-02-17T08:18:16.000Z</time>
      </trkpt>
      <trkpt lat="46.79056" lon="0.42212">
        <ele>60</ele>
        <time>2019-02-17T08:18:17.000Z</time>
      </trkpt>
      <trkpt lat="46.79054" lon="0.42217">
        <ele>61</ele>
        <time>2019-02-17T08:18:18.000Z</time>
      </trkpt>
      <trkpt lat="46.79053" lon="0.42222">
        <ele>61</ele>
        <time>2019-02-17T08:18:19.000Z</time>
      </trkpt>
      <trkpt lat="46.79052" lon="0.42228">
        <ele>61</ele>
        <time>2019-02-17T08:18:20.000Z</time>
      </trkpt>
      <trkpt lat="46.79051" lon="0.42234">
        <ele>61</ele>
        <time>2019-02-17T08:18:21.000Z</time>
      </trkpt>
      <trkpt lat="46.7905" lon="0.4224">
        <ele>61</ele>
        <time>2019-02-17T08:18:22.000Z</time>
      </trkpt>
      <trkpt lat="46.7905" lon="0.42246">
        <ele>62</ele>
        <time>2019-02-17T08:18:23.000Z</time>
      </trkpt>
      <trkpt lat="46.79049" lon="0.42252">
        <ele>61</ele>
        <time>2019-02-17T08:18:24.000Z</time>
      </trkpt>
      <trkpt lat="46.79048" lon="0.42258">
        <ele>62</ele>
        <time>2019-02-17T08:18:25.000Z</time>
      </trkpt>
      <trkpt lat="46.79047" lon="0.42264">
        <ele>62</ele>
        <time>2019-02-17T08:18:26.000Z</time>
      </trkpt>
      <trkpt lat="46.79046" lon="0.42271">
        <ele>62</ele>
        <time>2019-02-17T08:18:27.000Z</time>
      </trkpt>
      <trkpt lat="46.79045" lon="0.42277">
        <ele>62</ele>
        <time>2019-02-17T08:18:28.000Z</time>
      </trkpt>
      <trkpt lat="46.79044" lon="0.42284">
        <ele>62</ele>
        <time>2019-02-17T08:18:29.000Z</time>
      </trkpt>
      <trkpt lat="46.79044" lon="0.4229">
        <ele>62</ele>
        <time>2019-02-17T08:18:30.000Z</time>
      </trkpt>
      <trkpt lat="46.79043" lon="0.42297">
        <ele>62</ele>
        <time>2019-02-17T08:18:31.000Z</time>
      </trkpt>
      <trkpt lat="46.79042" lon="0.42303">
        <ele>62</ele>
        <time>2019-02-17T08:18:32.000Z</time>
      </trkpt>
      <trkpt lat="46.79041" lon="0.4231">
        <ele>62</ele>
        <time>2019-02-17T08:18:33.000Z</time>
      </trkpt>
      <trkpt lat="46.7904" lon="0.42317">
        <ele>62</ele>
        <time>2019-02-17T08:18:34.000Z</time>
      </trkpt>
      <trkpt lat="46.7904" lon="0.42324">
        <ele>62</ele>
        <time>2019-02-17T08:18:35.000Z</time>
      </trkpt>
      <trkpt lat="46.79039" lon="0.4233">
        <ele>62</ele>
        <time>2019-02-17T08:18:36.000Z</time>
      </trkpt>
      <trkpt lat="46.79038" lon="0.42337">
        <ele>62</ele>
        <time>2019-02-17T08:18:37.000Z</time>
      </trkpt>
      <trkpt lat="46.79037" lon="0.42344">
        <ele>62</ele>
        <time>2019-02-17T08:18:38.000Z</time>
      </trkpt>
      <trkpt lat="46.79037" lon="0.42351">
        <ele>62</ele>
        <time>2019-02-17T08:18:39.000Z</time>
      </trkpt>
      <trkpt lat="46.79036" lon="0.42358">
        <ele>62</ele>
        <time>2019-02-17T08:18:40.000Z</time>
      </trkpt>
      <trkpt lat="46.79036" lon="0.42365">
        <ele>62</ele>
        <time>2019-02-17T08:18:41.000Z</time>
      </trkpt>
      <trkpt lat="46.79035" lon="0.42372">
        <ele>62</ele>
        <time>2019-02-17T08:18:42.000Z</time>
      </trkpt>
      <trkpt lat="46.79035" lon="0.42379">
        <ele>62</ele>
        <time>2019-02-17T08:18:43.000Z</time>
      </trkpt>
      <trkpt lat="46.79034" lon="0.42387">
        <ele>62</ele>
        <time>2019-02-17T08:18:44.000Z</time>
      </trkpt>
      <trkpt lat="46.79033" lon="0.42394">
        <ele>62</ele>
        <time>2019-02-17T08:18:45.000Z</time>
      </trkpt>
      <trkpt lat="46.79033" lon="0.42401">
        <ele>63</ele>
        <time>2019-02-17T08:18:46.000Z</time>
      </trkpt>
      <trkpt lat="46.79032" lon="0.42409">
        <ele>63</ele>
        <time>2019-02-17T08:18:47.000Z</time>
      </trkpt>
      <trkpt lat="46.79032" lon="0.42416">
        <ele>63</ele>
        <time>2019-02-17T08:18:48.000Z</time>
      </trkpt>
      <trkpt lat="46.79031" lon="0.42423">
        <ele>63</ele>
        <time>2019-02-17T08:18:49.000Z</time>
      </trkpt>
      <trkpt lat="46.7903" lon="0.4243">
        <ele>63</ele>
        <time>2019-02-17T08:18:50.000Z</time>
      </trkpt>
      <trkpt lat="46.7903" lon="0.42437">
        <ele>63</ele>
        <time>2019-02-17T08:18:51.000Z</time>
      </trkpt>
      <trkpt lat="46.79029" lon="0.42445">
        <ele>63</ele>
        <time>2019-02-17T08:18:52.000Z</time>
      </trkpt>
      <trkpt lat="46.79029" lon="0.42452">
        <ele>63</ele>
        <time>2019-02-17T08:18:53.000Z</time>
      </trkpt>
      <trkpt lat="46.79028" lon="0.42459">
        <ele>63</ele>
        <time>2019-02-17T08:18:54.000Z</time>
      </trkpt>
      <trkpt lat="46.79027" lon="0.42466">
        <ele>63</ele>
        <time>2019-02-17T08:18:55.000Z</time>
      </trkpt>
      <trkpt lat="46.79027" lon="0.42473">
        <ele>63</ele>
        <time>2019-02-17T08:18:56.000Z</time>
      </trkpt>
      <trkpt lat="46.79026" lon="0.4248">
        <ele>63</ele>
        <time>2019-02-17T08:18:57.000Z</time>
      </trkpt>
      <trkpt lat="46.79025" lon="0.42487">
        <ele>63</ele>
        <time>2019-02-17T08:18:58.000Z</time>
      </trkpt>
      <trkpt lat="46.79025" lon="0.42495">
        <ele>63</ele>
        <time>2019-02-17T08:18:59.000Z</time>
      </trkpt>
      <trkpt lat="46.79024" lon="0.42502">
        <ele>63</ele>
        <time>2019-02-17T08:19:00.000Z</time>
      </trkpt>
      <trkpt lat="46.79023" lon="0.42509">
        <ele>63</ele>
        <time>2019-02-17T08:19:01.000Z</time>
      </trkpt>
      <trkpt lat="46.79022" lon="0.42516">
        <ele>63</ele>
        <time>2019-02-17T08:19:02.000Z</time>
      </trkpt>
      <trkpt lat="46.79021" lon="0.42523">
        <ele>63</ele>
        <time>2019-02-17T08:19:03.000Z</time>
      </trkpt>
      <trkpt lat="46.7902" lon="0.4253">
        <ele>63</ele>
        <time>2019-02-17T08:19:04.000Z</time>
      </trkpt>
      <trkpt lat="46.79019" lon="0.42537">
        <ele>63</ele>
        <time>2019-02-17T08:19:05.000Z</time>
      </trkpt>
      <trkpt lat="46.79018" lon="0.42544">
        <ele>63</ele>
        <time>2019-02-17T08:19:06.000Z</time>
      </trkpt>
      <trkpt lat="46.79016" lon="0.42551">
        <ele>63</ele>
        <time>2019-02-17T08:19:07.000Z</time>
      </trkpt>
      <trkpt lat="46.79015" lon="0.42558">
        <ele>63</ele>
        <time>2019-02-17T08:19:08.000Z</time>
      </trkpt>
      <trkpt lat="46.79014" lon="0.42566">
        <ele>63</ele>
        <time>2019-02-17T08:19:09.000Z</time>
      </trkpt>
      <trkpt lat="46.79013" lon="0.42573">
        <ele>63</ele>
        <time>2019-02-17T08:19:10.000Z</time>
      </trkpt>
      <trkpt lat="46.79012" lon="0.4258">
        <ele>63</ele>
        <time>2019-02-17T08:19:11.000Z</time>
      </trkpt>
      <trkpt lat="46.79011" lon="0.42587">
        <ele>63</ele>
        <time>2019-02-17T08:19:12.000Z</time>
      </trkpt>
      <trkpt lat="46.7901" lon="0.42594">
        <ele>63</ele>
        <time>2019-02-17T08:19:13.000Z</time>
      </trkpt>
      <trkpt lat="46.79009" lon="0.42601">
        <ele>63</ele>
        <time>2019-02-17T08:19:14.000Z</time>
      </trkpt>
      <trkpt lat="46.79008" lon="0.42608">
        <ele>63</ele>
        <time>2019-02-17T08:19:15.000Z</time>
      </trkpt>
      <trkpt lat="46.79006" lon="0.42615">
        <ele>63</ele>
        <time>2019-02-17T08:19:16.000Z</time>
      </trkpt>
      <trkpt lat="46.79005" lon="0.42623">
        <ele>63</ele>
        <time>2019-02-17T08:19:17.000Z</time>
      </trkpt>
      <trkpt lat="46.79004" lon="0.4263">
        <ele>63</ele>
        <time>2019-02-17T08:19:18.000Z</time>
      </trkpt>
      <trkpt lat="46.79003" lon="0.42637">
        <ele>63</ele>
        <time>2019-02-17T08:19:19.000Z</time>
      </trkpt>
      <trkpt lat="46.79001" lon="0.42644">
        <ele>63</ele>
        <time>2019-02-17T08:19:20.000Z</time>
      </trkpt>
      <trkpt lat="46.79" lon="0.42651">
        <ele>63</ele>
        <time>2019-02-17T08:19:21.000Z</time>
      </trkpt>
      <trkpt lat="46.78999" lon="0.42659">
        <ele>63</ele>
        <time>2019-02-17T08:19:22.000Z</time>
      </trkpt>
      <trkpt lat="46.78998" lon="0.42666">
        <ele>63</ele>
        <time>2019-02-17T08:19:23.000Z</time>
      </trkpt>
      <trkpt lat="46.78997" lon="0.42673">
        <ele>63</ele>
        <time>2019-02-17T08:19:24.000Z</time>
      </trkpt>
      <trkpt lat="46.78995" lon="0.4268">
        <ele>63</ele>
        <time>2019-02-17T08:19:25.000Z</time>
      </trkpt>
      <trkpt lat="46.78994" lon="0.42687">
        <ele>62</ele>
        <time>2019-02-17T08:19:26.000Z</time>
      </trkpt>
      <trkpt lat="46.78993" lon="0.42695">
        <ele>62</ele>
        <time>2019-02-17T08:19:27.000Z</time>
      </trkpt>
      <trkpt lat="46.78992" lon="0.42702">
        <ele>63</ele>
        <time>2019-02-17T08:19:28.000Z</time>
      </trkpt>
      <trkpt lat="46.78991" lon="0.42709">
        <ele>62</ele>
        <time>2019-02-17T08:19:29.000Z</time>
      </trkpt>
      <trkpt lat="46.78991" lon="0.42716">
        <ele>62</ele>
        <time>2019-02-17T08:19:30.000Z</time>
      </trkpt>
      <trkpt lat="46.7899" lon="0.42724">
        <ele>62</ele>
        <time>2019-02-17T08:19:31.000Z</time>
      </trkpt>
      <trkpt lat="46.78989" lon="0.42731">
        <ele>62</ele>
        <time>2019-02-17T08:19:32.000Z</time>
      </trkpt>
      <trkpt lat="46.78988" lon="0.42738">
        <ele>62</ele>
        <time>2019-02-17T08:19:33.000Z</time>
      </trkpt>
      <trkpt lat="46.78987" lon="0.42745">
        <ele>61</ele>
        <time>2019-02-17T08:19:34.000Z</time>
      </trkpt>
      <trkpt lat="46.78986" lon="0.42752">
        <ele>61</ele>
        <time>2019-02-17T08:19:35.000Z</time>
      </trkpt>
      <trkpt lat="46.78984" lon="0.42758">
        <ele>61</ele>
        <time>2019-02-17T08:19:36.000Z</time>
      </trkpt>
      <trkpt lat="46.78983" lon="0.42765">
        <ele>61</ele>
        <time>2019-02-17T08:19:37.000Z</time>
      </trkpt>
      <trkpt lat="46.78981" lon="0.42771">
        <ele>60</ele>
        <time>2019-02-17T08:19:38.000Z</time>
      </trkpt>
      <trkpt lat="46.78979" lon="0.42777">
        <ele>60</ele>
        <time>2019-02-17T08:19:39.000Z</time>
      </trkpt>
      <trkpt lat="46.78978" lon="0.42783">
        <ele>60</ele>
        <time>2019-02-17T08:19:40.000Z</time>
      </trkpt>
      <trkpt lat="46.78977" lon="0.42789">
        <ele>60</ele>
        <time>2019-02-17T08:19:41.000Z</time>
      </trkpt>
      <trkpt lat="46.78975" lon="0.42794">
        <ele>60</ele>
        <time>2019-02-17T08:19:42.000Z</time>
      </trkpt>
      <trkpt lat="46.78974" lon="0.42801">
        <ele>60</ele>
        <time>2019-02-17T08:19:43.000Z</time>
      </trkpt>
      <trkpt lat="46.78973" lon="0.42807">
        <ele>60</ele>
        <time>2019-02-17T08:19:44.000Z</time>
      </trkpt>
      <trkpt lat="46.78972" lon="0.42814">
        <ele>59</ele>
        <time>2019-02-17T08:19:45.000Z</time>
      </trkpt>
      <trkpt lat="46.78971" lon="0.42821">
        <ele>58</ele>
        <time>2019-02-17T08:19:46.000Z</time>
      </trkpt>
      <trkpt lat="46.7897" lon="0.42828">
        <ele>58</ele>
        <time>2019-02-17T08:19:47.000Z</time>
      </trkpt>
      <trkpt lat="46.78969" lon="0.42836">
        <ele>57</ele>
        <time>2019-02-17T08:19:48.000Z</time>
      </trkpt>
      <trkpt lat="46.78968" lon="0.42843">
        <ele>57</ele>
        <time>2019-02-17T08:19:49.000Z</time>
      </trkpt>
      <trkpt lat="46.78968" lon="0.4285">
        <ele>56</ele>
        <time>2019-02-17T08:19:50.000Z</time>
      </trkpt>
      <trkpt lat="46.78968" lon="0.42857">
        <ele>56</ele>
        <time>2019-02-17T08:19:51.000Z</time>
      </trkpt>
      <trkpt lat="46.78968" lon="0.42864">
        <ele>56</ele>
        <time>2019-02-17T08:19:52.000Z</time>
      </trkpt>
      <trkpt lat="46.78968" lon="0.42872">
        <ele>56</ele>
        <time>2019-02-17T08:19:53.000Z</time>
      </trkpt>
      <trkpt lat="46.78968" lon="0.42879">
        <ele>55</ele>
        <time>2019-02-17T08:19:54.000Z</time>
      </trkpt>
      <trkpt lat="46.78968" lon="0.42886">
        <ele>56</ele>
        <time>2019-02-17T08:19:55.000Z</time>
      </trkpt>
      <trkpt lat="46.78967" lon="0.42893">
        <ele>56</ele>
        <time>2019-02-17T08:19:56.000Z</time>
      </trkpt>
      <trkpt lat="46.78966" lon="0.42899">
        <ele>56</ele>
        <time>2019-02-17T08:19:57.000Z</time>
      </trkpt>
      <trkpt lat="46.78965" lon="0.42906">
        <ele>56</ele>
        <time>2019-02-17T08:19:58.000Z</time>
      </trkpt>
      <trkpt lat="46.78963" lon="0.42912">
        <ele>56</ele>
        <time>2019-02-17T08:19:59.000Z</time>
      </trkpt>
      <trkpt lat="46.78961" lon="0.42918">
        <ele>57</ele>
        <time>2019-02-17T08:20:00.000Z</time>
      </trkpt>
      <trkpt lat="46.78958" lon="0.42924">
        <ele>57</ele>
        <time>2019-02-17T08:20:01.000Z</time>
      </trkpt>
      <trkpt lat="46.78955" lon="0.4293">
        <ele>57</ele>
        <time>2019-02-17T08:20:02.000Z</time>
      </trkpt>
      <trkpt lat="46.78952" lon="0.42936">
        <ele>57</ele>
        <time>2019-02-17T08:20:03.000Z</time>
      </trkpt>
      <trkpt lat="46.7895" lon="0.42942">
        <ele>57</ele>
        <time>2019-02-17T08:20:04.000Z</time>
      </trkpt>
      <trkpt lat="46.78948" lon="0.42949">
        <ele>57</ele>
        <time>2019-02-17T08:20:05.000Z</time>
      </trkpt>
      <trkpt lat="46.78947" lon="0.42957">
        <ele>57</ele>
        <time>2019-02-17T08:20:06.000Z</time>
      </trkpt>
      <trkpt lat="46.78946" lon="0.42964">
        <ele>57</ele>
        <time>2019-02-17T08:20:07.000Z</time>
      </trkpt>
      <trkpt lat="46.78945" lon="0.42972">
        <ele>57</ele>
        <time>2019-02-17T08:20:08.000Z</time>
      </trkpt>
      <trkpt lat="46.78945" lon="0.4298">
        <ele>57</ele>
        <time>2019-02-17T08:20:09.000Z</time>
      </trkpt>
      <trkpt lat="46.78944" lon="0.42988">
        <ele>57</ele>
        <time>2019-02-17T08:20:10.000Z</time>
      </trkpt>
      <trkpt lat="46.78944" lon="0.42996">
        <ele>57</ele>
        <time>2019-02-17T08:20:11.000Z</time>
      </trkpt>
      <trkpt lat="46.78944" lon="0.43003">
        <ele>57</ele>
        <time>2019-02-17T08:20:12.000Z</time>
      </trkpt>
      <trkpt lat="46.78943" lon="0.43011">
        <ele>58</ele>
        <time>2019-02-17T08:20:13.000Z</time>
      </trkpt>
      <trkpt lat="46.78943" lon="0.43019">
        <ele>58</ele>
        <time>2019-02-17T08:20:14.000Z</time>
      </trkpt>
      <trkpt lat="46.78943" lon="0.43027">
        <ele>58</ele>
        <time>2019-02-17T08:20:15.000Z</time>
      </trkpt>
      <trkpt lat="46.78942" lon="0.43034">
        <ele>59</ele>
        <time>2019-02-17T08:20:16.000Z</time>
      </trkpt>
      <trkpt lat="46.78942" lon="0.43042">
        <ele>59</ele>
        <time>2019-02-17T08:20:17.000Z</time>
      </trkpt>
      <trkpt lat="46.78941" lon="0.4305">
        <ele>59</ele>
        <time>2019-02-17T08:20:18.000Z</time>
      </trkpt>
      <trkpt lat="46.78941" lon="0.43058">
        <ele>59</ele>
        <time>2019-02-17T08:20:19.000Z</time>
      </trkpt>
      <trkpt lat="46.7894" lon="0.43066">
        <ele>59</ele>
        <time>2019-02-17T08:20:20.000Z</time>
      </trkpt>
      <trkpt lat="46.7894" lon="0.43074">
        <ele>59</ele>
        <time>2019-02-17T08:20:21.000Z</time>
      </trkpt>
      <trkpt lat="46.78939" lon="0.43082">
        <ele>59</ele>
        <time>2019-02-17T08:20:22.000Z</time>
      </trkpt>
      <trkpt lat="46.78939" lon="0.43091">
        <ele>59</ele>
        <time>2019-02-17T08:20:23.000Z</time>
      </trkpt>
      <trkpt lat="46.78938" lon="0.43099">
        <ele>59</ele>
        <time>2019-02-17T08:20:24.000Z</time>
      </trkpt>
      <trkpt lat="46.78938" lon="0.43107">
        <ele>59</ele>
        <time>2019-02-17T08:20:25.000Z</time>
      </trkpt>
      <trkpt lat="46.78937" lon="0.43115">
        <ele>59</ele>
        <time>2019-02-17T08:20:26.000Z</time>
      </trkpt>
      <trkpt lat="46.78937" lon="0.43122">
        <ele>59</ele>
        <time>2019-02-17T08:20:27.000Z</time>
      </trkpt>
      <trkpt lat="46.78936" lon="0.4313">
        <ele>60</ele>
        <time>2019-02-17T08:20:28.000Z</time>
      </trkpt>
      <trkpt lat="46.78936" lon="0.43138">
        <ele>60</ele>
        <time>2019-02-17T08:20:29.000Z</time>
      </trkpt>
      <trkpt lat="46.78936" lon="0.43146">
        <ele>60</ele>
        <time>2019-02-17T08:20:30.000Z</time>
      </trkpt>
      <trkpt lat="46.78935" lon="0.43154">
        <ele>60</ele>
        <time>2019-02-17T08:20:31.000Z</time>
      </trkpt>
      <trkpt lat="46.78934" lon="0.43162">
        <ele>60</ele>
        <time>2019-02-17T08:20:32.000Z</time>
      </trkpt>
      <trkpt lat="46.78933" lon="0.43169">
        <ele>60</ele>
        <time>2019-02-17T08:20:33.000Z</time>
      </trkpt>
      <trkpt lat="46.78931" lon="0.43176">
        <ele>61</ele>
        <time>2019-02-17T08:20:34.000Z</time>
      </trkpt>
      <trkpt lat="46.78929" lon="0.43183">
        <ele>61</ele>
        <time>2019-02-17T08:20:35.000Z</time>
      </trkpt>
      <trkpt lat="46.78927" lon="0.4319">
        <ele>61</ele>
        <time>2019-02-17T08:20:36.000Z</time>
      </trkpt>
      <trkpt lat="46.78925" lon="0.43197">
        <ele>61</ele>
        <time>2019-02-17T08:20:37.000Z</time>
      </trkpt>
      <trkpt lat="46.78922" lon="0.43204">
        <ele>61</ele>
        <time>2019-02-17T08:20:38.000Z</time>
      </trkpt>
      <trkpt lat="46.7892" lon="0.4321">
        <ele>61</ele>
        <time>2019-02-17T08:20:39.000Z</time>
      </trkpt>
      <trkpt lat="46.78917" lon="0.43217">
        <ele>61</ele>
        <time>2019-02-17T08:20:40.000Z</time>
      </trkpt>
      <trkpt lat="46.78915" lon="0.43224">
        <ele>61</ele>
        <time>2019-02-17T08:20:41.000Z</time>
      </trkpt>
      <trkpt lat="46.78912" lon="0.43231">
        <ele>61</ele>
        <time>2019-02-17T08:20:42.000Z</time>
      </trkpt>
      <trkpt lat="46.7891" lon="0.43237">
        <ele>62</ele>
        <time>2019-02-17T08:20:43.000Z</time>
      </trkpt>
      <trkpt lat="46.78907" lon="0.43244">
        <ele>62</ele>
        <time>2019-02-17T08:20:44.000Z</time>
      </trkpt>
      <trkpt lat="46.78905" lon="0.4325">
        <ele>62</ele>
        <time>2019-02-17T08:20:45.000Z</time>
      </trkpt>
      <trkpt lat="46.78903" lon="0.43257">
        <ele>62</ele>
        <time>2019-02-17T08:20:46.000Z</time>
      </trkpt>
      <trkpt lat="46.78901" lon="0.43264">
        <ele>62</ele>
        <time>2019-02-17T08:20:47.000Z</time>
      </trkpt>
      <trkpt lat="46.78899" lon="0.43271">
        <ele>62</ele>
        <time>2019-02-17T08:20:48.000Z</time>
      </trkpt>
      <trkpt lat="46.78898" lon="0.43278">
        <ele>63</ele>
        <time>2019-02-17T08:20:49.000Z</time>
      </trkpt>
      <trkpt lat="46.78896" lon="0.43284">
        <ele>63</ele>
        <time>2019-02-17T08:20:50.000Z</time>
      </trkpt>
      <trkpt lat="46.78894" lon="0.43291">
        <ele>63</ele>
        <time>2019-02-17T08:20:51.000Z</time>
      </trkpt>
      <trkpt lat="46.78893" lon="0.43297">
        <ele>63</ele>
        <time>2019-02-17T08:20:52.000Z</time>
      </trkpt>
      <trkpt lat="46.78892" lon="0.43304">
        <ele>63</ele>
        <time>2019-02-17T08:20:53.000Z</time>
      </trkpt>
      <trkpt lat="46.78891" lon="0.4331">
        <ele>63</ele>
        <time>2019-02-17T08:20:54.000Z</time>
      </trkpt>
      <trkpt lat="46.78889" lon="0.43317">
        <ele>63</ele>
        <time>2019-02-17T08:20:55.000Z</time>
      </trkpt>
      <trkpt lat="46.78888" lon="0.43324">
        <ele>63</ele>
        <time>2019-02-17T08:20:56.000Z</time>
      </trkpt>
      <trkpt lat="46.78888" lon="0.43331">
        <ele>63</ele>
        <time>2019-02-17T08:20:57.000Z</time>
      </trkpt>
      <trkpt lat="46.78887" lon="0.43338">
        <ele>63</ele>
        <time>2019-02-17T08:20:58.000Z</time>
      </trkpt>
      <trkpt lat="46.78886" lon="0.43345">
        <ele>62</ele>
        <time>2019-02-17T08:20:59.000Z</time>
      </trkpt>
      <trkpt lat="46.78886" lon="0.43353">
        <ele>62</ele>
        <time>2019-02-17T08:21:00.000Z</time>
      </trkpt>
      <trkpt lat="46.78885" lon="0.4336">
        <ele>62</ele>
        <time>2019-02-17T08:21:01.000Z</time>
      </trkpt>
      <trkpt lat="46.78885" lon="0.43367">
        <ele>62</ele>
        <time>2019-02-17T08:21:02.000Z</time>
      </trkpt>
      <trkpt lat="46.78885" lon="0.43375">
        <ele>62</ele>
        <time>2019-02-17T08:21:03.000Z</time>
      </trkpt>
      <trkpt lat="46.78885" lon="0.43382">
        <ele>62</ele>
        <time>2019-02-17T08:21:04.000Z</time>
      </trkpt>
      <trkpt lat="46.78885" lon="0.43389">
        <ele>62</ele>
        <time>2019-02-17T08:21:05.000Z</time>
      </trkpt>
      <trkpt lat="46.78885" lon="0.43396">
        <ele>62</ele>
        <time>2019-02-17T08:21:06.000Z</time>
      </trkpt>
      <trkpt lat="46.78885" lon="0.43403">
        <ele>62</ele>
        <time>2019-02-17T08:21:07.000Z</time>
      </trkpt>
      <trkpt lat="46.78886" lon="0.43409">
        <ele>62</ele>
        <time>2019-02-17T08:21:08.000Z</time>
      </trkpt>
      <trkpt lat="46.78886" lon="0.43416">
        <ele>62</ele>
        <time>2019-02-17T08:21:09.000Z</time>
      </trkpt>
      <trkpt lat="46.78887" lon="0.43422">
        <ele>62</ele>
        <time>2019-02-17T08:21:10.000Z</time>
      </trkpt>
      <trkpt lat="46.78888" lon="0.43428">
        <ele>62</ele>
        <time>2019-02-17T08:21:11.000Z</time>
      </trkpt>
      <trkpt lat="46.78888" lon="0.43434">
        <ele>62</ele>
        <time>2019-02-17T08:21:12.000Z</time>
      </trkpt>
      <trkpt lat="46.78889" lon="0.43441">
        <ele>62</ele>
        <time>2019-02-17T08:21:13.000Z</time>
      </trkpt>
      <trkpt lat="46.78889" lon="0.43448">
        <ele>61</ele>
        <time>2019-02-17T08:21:14.000Z</time>
      </trkpt>
      <trkpt lat="46.7889" lon="0.43454">
        <ele>61</ele>
        <time>2019-02-17T08:21:15.000Z</time>
      </trkpt>
      <trkpt lat="46.7889" lon="0.43462">
        <ele>61</ele>
        <time>2019-02-17T08:21:16.000Z</time>
      </trkpt>
      <trkpt lat="46.7889" lon="0.43469">
        <ele>60</ele>
        <time>2019-02-17T08:21:17.000Z</time>
      </trkpt>
      <trkpt lat="46.78891" lon="0.43477">
        <ele>60</ele>
        <time>2019-02-17T08:21:18.000Z</time>
      </trkpt>
      <trkpt lat="46.78891" lon="0.43484">
        <ele>60</ele>
        <time>2019-02-17T08:21:19.000Z</time>
      </trkpt>
      <trkpt lat="46.78891" lon="0.43492">
        <ele>59</ele>
        <time>2019-02-17T08:21:20.000Z</time>
      </trkpt>
      <trkpt lat="46.78891" lon="0.43499">
        <ele>59</ele>
        <time>2019-02-17T08:21:21.000Z</time>
      </trkpt>
      <trkpt lat="46.78891" lon="0.43506">
        <ele>59</ele>
        <time>2019-02-17T08:21:22.000Z</time>
      </trkpt>
      <trkpt lat="46.78891" lon="0.43513">
        <ele>59</ele>
        <time>2019-02-17T08:21:23.000Z</time>
      </trkpt>
      <trkpt lat="46.78891" lon="0.4352">
        <ele>58</ele>
        <time>2019-02-17T08:21:24.000Z</time>
      </trkpt>
      <trkpt lat="46.7889" lon="0.43527">
        <ele>57</ele>
        <time>2019-02-17T08:21:25.000Z</time>
      </trkpt>
      <trkpt lat="46.7889" lon="0.43534">
        <ele>56</ele>
        <time>2019-02-17T08:21:26.000Z</time>
      </trkpt>
      <trkpt lat="46.78889" lon="0.43541">
        <ele>55</ele>
        <time>2019-02-17T08:21:27.000Z</time>
      </trkpt>
      <trkpt lat="46.78889" lon="0.43548">
        <ele>54</ele>
        <time>2019-02-17T08:21:28.000Z</time>
      </trkpt>
      <trkpt lat="46.78888" lon="0.43555">
        <ele>54</ele>
        <time>2019-02-17T08:21:29.000Z</time>
      </trkpt>
      <trkpt lat="46.78888" lon="0.43561">
        <ele>52</ele>
        <time>2019-02-17T08:21:30.000Z</time>
      </trkpt>
      <trkpt lat="46.78888" lon="0.43567">
        <ele>52</ele>
        <time>2019-02-17T08:21:31.000Z</time>
      </trkpt>
      <trkpt lat="46.78888" lon="0.43573">
        <ele>51</ele>
        <time>2019-02-17T08:21:32.000Z</time>
      </trkpt>
      <trkpt lat="46.78889" lon="0.43579">
        <ele>52</ele>
        <time>2019-02-17T08:21:33.000Z</time>
      </trkpt>
      <trkpt lat="46.78891" lon="0.43585">
        <ele>52</ele>
        <time>2019-02-17T08:21:34.000Z</time>
      </trkpt>
      <trkpt lat="46.78893" lon="0.43592">
        <ele>55</ele>
        <time>2019-02-17T08:21:35.000Z</time>
      </trkpt>
      <trkpt lat="46.78896" lon="0.43598">
        <ele>56</ele>
        <time>2019-02-17T08:21:36.000Z</time>
      </trkpt>
      <trkpt lat="46.78898" lon="0.43604">
        <ele>58</ele>
        <time>2019-02-17T08:21:37.000Z</time>
      </trkpt>
      <trkpt lat="46.78901" lon="0.4361">
        <ele>59</ele>
        <time>2019-02-17T08:21:38.000Z</time>
      </trkpt>
      <trkpt lat="46.78903" lon="0.43616">
        <ele>59</ele>
        <time>2019-02-17T08:21:39.000Z</time>
      </trkpt>
      <trkpt lat="46.78906" lon="0.43622">
        <ele>60</ele>
        <time>2019-02-17T08:21:40.000Z</time>
      </trkpt>
      <trkpt lat="46.78908" lon="0.43628">
        <ele>60</ele>
        <time>2019-02-17T08:21:41.000Z</time>
      </trkpt>
      <trkpt lat="46.78911" lon="0.43634">
        <ele>60</ele>
        <time>2019-02-17T08:21:42.000Z</time>
      </trkpt>
      <trkpt lat="46.78913" lon="0.4364">
        <ele>60</ele>
        <time>2019-02-17T08:21:43.000Z</time>
      </trkpt>
      <trkpt lat="46.78915" lon="0.43646">
        <ele>60</ele>
        <time>2019-02-17T08:21:44.000Z</time>
      </trkpt>
      <trkpt lat="46.78918" lon="0.43652">
        <ele>60</ele>
        <time>2019-02-17T08:21:45.000Z</time>
      </trkpt>
      <trkpt lat="46.7892" lon="0.43658">
        <ele>60</ele>
        <time>2019-02-17T08:21:46.000Z</time>
      </trkpt>
      <trkpt lat="46.78923" lon="0.43664">
        <ele>60</ele>
        <time>2019-02-17T08:21:47.000Z</time>
      </trkpt>
      <trkpt lat="46.78926" lon="0.43669">
        <ele>60</ele>
        <time>2019-02-17T08:21:48.000Z</time>
      </trkpt>
      <trkpt lat="46.7893" lon="0.43673">
        <ele>61</ele>
        <time>2019-02-17T08:21:49.000Z</time>
      </trkpt>
      <trkpt lat="46.78933" lon="0.43677">
        <ele>61</ele>
        <time>2019-02-17T08:21:50.000Z</time>
      </trkpt>
      <trkpt lat="46.78937" lon="0.4368">
        <ele>62</ele>
        <time>2019-02-17T08:21:51.000Z</time>
      </trkpt>
      <trkpt lat="46.78941" lon="0.43683">
        <ele>62</ele>
        <time>2019-02-17T08:21:52.000Z</time>
      </trkpt>
      <trkpt lat="46.78944" lon="0.43686">
        <ele>62</ele>
        <time>2019-02-17T08:21:53.000Z</time>
      </trkpt>
      <trkpt lat="46.78947" lon="0.43689">
        <ele>61</ele>
        <time>2019-02-17T08:21:54.000Z</time>
      </trkpt>
      <trkpt lat="46.7895" lon="0.43693">
        <ele>61</ele>
        <time>2019-02-17T08:21:55.000Z</time>
      </trkpt>
      <trkpt lat="46.78953" lon="0.43697">
        <ele>61</ele>
        <time>2019-02-17T08:21:56.000Z</time>
      </trkpt>
      <trkpt lat="46.78956" lon="0.43701">
        <ele>61</ele>
        <time>2019-02-17T08:21:57.000Z</time>
      </trkpt>
      <trkpt lat="46.78959" lon="0.43706">
        <ele>61</ele>
        <time>2019-02-17T08:21:58.000Z</time>
      </trkpt>
      <trkpt lat="46.78962" lon="0.43711">
        <ele>61</ele>
        <time>2019-02-17T08:21:59.000Z</time>
      </trkpt>
      <trkpt lat="46.78965" lon="0.43716">
        <ele>60</ele>
        <time>2019-02-17T08:22:00.000Z</time>
      </trkpt>
      <trkpt lat="46.78968" lon="0.43721">
        <ele>60</ele>
        <time>2019-02-17T08:22:01.000Z</time>
      </trkpt>
      <trkpt lat="46.78971" lon="0.43726">
        <ele>59</ele>
        <time>2019-02-17T08:22:02.000Z</time>
      </trkpt>
      <trkpt lat="46.78974" lon="0.43731">
        <ele>59</ele>
        <time>2019-02-17T08:22:03.000Z</time>
      </trkpt>
      <trkpt lat="46.78977" lon="0.43736">
        <ele>58</ele>
        <time>2019-02-17T08:22:04.000Z</time>
      </trkpt>
      <trkpt lat="46.7898" lon="0.43741">
        <ele>57</ele>
        <time>2019-02-17T08:22:05.000Z</time>
      </trkpt>
      <trkpt lat="46.78983" lon="0.43746">
        <ele>56</ele>
        <time>2019-02-17T08:22:06.000Z</time>
      </trkpt>
      <trkpt lat="46.78986" lon="0.43751">
        <ele>55</ele>
        <time>2019-02-17T08:22:07.000Z</time>
      </trkpt>
      <trkpt lat="46.78989" lon="0.43756">
        <ele>56</ele>
        <time>2019-02-17T08:22:08.000Z</time>
      </trkpt>
      <trkpt lat="46.78992" lon="0.43761">
        <ele>55</ele>
        <time>2019-02-17T08:22:09.000Z</time>
      </trkpt>
      <trkpt lat="46.78996" lon="0.43767">
        <ele>54</ele>
        <time>2019-02-17T08:22:10.000Z</time>
      </trkpt>
      <trkpt lat="46.78999" lon="0.43772">
        <ele>54</ele>
        <time>2019-02-17T08:22:11.000Z</time>
      </trkpt>
      <trkpt lat="46.79003" lon="0.43776">
        <ele>52</ele>
        <time>2019-02-17T08:22:12.000Z</time>
      </trkpt>
      <trkpt lat="46.79006" lon="0.43781">
        <ele>53</ele>
        <time>2019-02-17T08:22:13.000Z</time>
      </trkpt>
      <trkpt lat="46.7901" lon="0.43786">
        <ele>52</ele>
        <time>2019-02-17T08:22:14.000Z</time>
      </trkpt>
      <trkpt lat="46.79012" lon="0.43792">
        <ele>51</ele>
        <time>2019-02-17T08:22:15.000Z</time>
      </trkpt>
      <trkpt lat="46.79015" lon="0.43798">
        <ele>51</ele>
        <time>2019-02-17T08:22:16.000Z</time>
      </trkpt>
      <trkpt lat="46.79018" lon="0.43803">
        <ele>51</ele>
        <time>2019-02-17T08:22:17.000Z</time>
      </trkpt>
      <trkpt lat="46.79021" lon="0.43808">
        <ele>50</ele>
        <time>2019-02-17T08:22:18.000Z</time>
      </trkpt>
      <trkpt lat="46.79025" lon="0.43813">
        <ele>50</ele>
        <time>2019-02-17T08:22:19.000Z</time>
      </trkpt>
      <trkpt lat="46.7903" lon="0.43818">
        <ele>50</ele>
        <time>2019-02-17T08:22:20.000Z</time>
      </trkpt>
      <trkpt lat="46.79033" lon="0.43822">
        <ele>49</ele>
        <time>2019-02-17T08:22:21.000Z</time>
      </trkpt>
      <trkpt lat="46.79036" lon="0.43827">
        <ele>49</ele>
        <time>2019-02-17T08:22:22.000Z</time>
      </trkpt>
      <trkpt lat="46.79041" lon="0.43831">
        <ele>49</ele>
        <time>2019-02-17T08:22:23.000Z</time>
      </trkpt>
      <trkpt lat="46.79045" lon="0.43836">
        <ele>49</ele>
        <time>2019-02-17T08:22:24.000Z</time>
      </trkpt>
      <trkpt lat="46.79049" lon="0.43841">
        <ele>49</ele>
        <time>2019-02-17T08:22:25.000Z</time>
      </trkpt>
      <trkpt lat="46.79053" lon="0.43846">
        <ele>49</ele>
        <time>2019-02-17T08:22:26.000Z</time>
      </trkpt>
      <trkpt lat="46.79057" lon="0.4385">
        <ele>49</ele>
        <time>2019-02-17T08:22:27.000Z</time>
      </trkpt>
      <trkpt lat="46.79061" lon="0.43854">
        <ele>50</ele>
        <time>2019-02-17T08:22:28.000Z</time>
      </trkpt>
      <trkpt lat="46.79065" lon="0.43859">
        <ele>50</ele>
        <time>2019-02-17T08:22:29.000Z</time>
      </trkpt>
      <trkpt lat="46.7907" lon="0.43863">
        <ele>51</ele>
        <time>2019-02-17T08:22:30.000Z</time>
      </trkpt>
      <trkpt lat="46.79073" lon="0.43868">
        <ele>51</ele>
        <time>2019-02-17T08:22:31.000Z</time>
      </trkpt>
      <trkpt lat="46.79077" lon="0.43873">
        <ele>51</ele>
        <time>2019-02-17T08:22:32.000Z</time>
      </trkpt>
      <trkpt lat="46.79081" lon="0.43877">
        <ele>52</ele>
        <time>2019-02-17T08:22:33.000Z</time>
      </trkpt>
      <trkpt lat="46.79085" lon="0.43882">
        <ele>53</ele>
        <time>2019-02-17T08:22:34.000Z</time>
      </trkpt>
      <trkpt lat="46.79089" lon="0.43887">
        <ele>53</ele>
        <time>2019-02-17T08:22:35.000Z</time>
      </trkpt>
      <trkpt lat="46.79094" lon="0.43891">
        <ele>53</ele>
        <time>2019-02-17T08:22:36.000Z</time>
      </trkpt>
      <trkpt lat="46.79097" lon="0.43896">
        <ele>52</ele>
        <time>2019-02-17T08:22:37.000Z</time>
      </trkpt>
      <trkpt lat="46.79101" lon="0.43901">
        <ele>53</ele>
        <time>2019-02-17T08:22:38.000Z</time>
      </trkpt>
      <trkpt lat="46.79105" lon="0.43905">
        <ele>53</ele>
        <time>2019-02-17T08:22:39.000Z</time>
      </trkpt>
      <trkpt lat="46.79109" lon="0.4391">
        <ele>52</ele>
        <time>2019-02-17T08:22:40.000Z</time>
      </trkpt>
      <trkpt lat="46.79113" lon="0.43915">
        <ele>52</ele>
        <time>2019-02-17T08:22:41.000Z</time>
      </trkpt>
      <trkpt lat="46.79117" lon="0.43919">
        <ele>52</ele>
        <time>2019-02-17T08:22:42.000Z</time>
      </trkpt>
      <trkpt lat="46.79121" lon="0.43924">
        <ele>52</ele>
        <time>2019-02-17T08:22:43.000Z</time>
      </trkpt>
      <trkpt lat="46.79126" lon="0.43929">
        <ele>51</ele>
        <time>2019-02-17T08:22:44.000Z</time>
      </trkpt>
      <trkpt lat="46.7913" lon="0.43933">
        <ele>51</ele>
        <time>2019-02-17T08:22:45.000Z</time>
      </trkpt>
      <trkpt lat="46.79135" lon="0.43937">
        <ele>52</ele>
        <time>2019-02-17T08:22:46.000Z</time>
      </trkpt>
      <trkpt lat="46.7914" lon="0.43941">
        <ele>52</ele>
        <time>2019-02-17T08:22:47.000Z</time>
      </trkpt>
      <trkpt lat="46.79145" lon="0.43944">
        <ele>53</ele>
        <time>2019-02-17T08:22:48.000Z</time>
      </trkpt>
      <trkpt lat="46.79149" lon="0.43948">
        <ele>53</ele>
        <time>2019-02-17T08:22:49.000Z</time>
      </trkpt>
      <trkpt lat="46.79153" lon="0.43953">
        <ele>54</ele>
        <time>2019-02-17T08:22:50.000Z</time>
      </trkpt>
      <trkpt lat="46.79157" lon="0.43957">
        <ele>54</ele>
        <time>2019-02-17T08:22:51.000Z</time>
      </trkpt>
      <trkpt lat="46.79161" lon="0.43961">
        <ele>54</ele>
        <time>2019-02-17T08:22:52.000Z</time>
      </trkpt>
      <trkpt lat="46.79165" lon="0.43965">
        <ele>54</ele>
        <time>2019-02-17T08:22:53.000Z</time>
      </trkpt>
      <trkpt lat="46.79169" lon="0.43969">
        <ele>54</ele>
        <time>2019-02-17T08:22:54.000Z</time>
      </trkpt>
      <trkpt lat="46.79173" lon="0.43974">
        <ele>55</ele>
        <time>2019-02-17T08:22:55.000Z</time>
      </trkpt>
      <trkpt lat="46.79176" lon="0.43979">
        <ele>57</ele>
        <time>2019-02-17T08:22:56.000Z</time>
      </trkpt>
      <trkpt lat="46.79181" lon="0.43985">
        <ele>57</ele>
        <time>2019-02-17T08:22:57.000Z</time>
      </trkpt>
      <trkpt lat="46.79185" lon="0.43989">
        <ele>58</ele>
        <time>2019-02-17T08:22:58.000Z</time>
      </trkpt>
      <trkpt lat="46.79188" lon="0.43993">
        <ele>58</ele>
        <time>2019-02-17T08:22:59.000Z</time>
      </trkpt>
      <trkpt lat="46.79191" lon="0.43997">
        <ele>58</ele>
        <time>2019-02-17T08:23:00.000Z</time>
      </trkpt>
      <trkpt lat="46.79193" lon="0.44">
        <ele>60</ele>
        <time>2019-02-17T08:23:01.000Z</time>
      </trkpt>
      <trkpt lat="46.79194" lon="0.44003">
        <ele>60</ele>
        <time>2019-02-17T08:23:02.000Z</time>
      </trkpt>
      <trkpt lat="46.79194" lon="0.44007">
        <ele>59</ele>
        <time>2019-02-17T08:23:03.000Z</time>
      </trkpt>
      <trkpt lat="46.79192" lon="0.44009">
        <ele>56</ele>
        <time>2019-02-17T08:23:04.000Z</time>
      </trkpt>
      <trkpt lat="46.7919" lon="0.4401">
        <ele>56</ele>
        <time>2019-02-17T08:23:05.000Z</time>
      </trkpt>
      <trkpt lat="46.79188" lon="0.44011">
        <ele>56</ele>
        <time>2019-02-17T08:23:06.000Z</time>
      </trkpt>
      <trkpt lat="46.79186" lon="0.44012">
        <ele>56</ele>
        <time>2019-02-17T08:23:07.000Z</time>
      </trkpt>
      <trkpt lat="46.79184" lon="0.44014">
        <ele>55</ele>
        <time>2019-02-17T08:23:08.000Z</time>
      </trkpt>
      <trkpt lat="46.79182" lon="0.44017">
        <ele>55</ele>
        <time>2019-02-17T08:23:09.000Z</time>
      </trkpt>
      <trkpt lat="46.7918" lon="0.44019">
        <ele>55</ele>
        <time>2019-02-17T08:23:10.000Z</time>
      </trkpt>
      <trkpt lat="46.79177" lon="0.44022">
        <ele>55</ele>
        <time>2019-02-17T08:23:11.000Z</time>
      </trkpt>
      <trkpt lat="46.79174" lon="0.44026">
        <ele>55</ele>
        <time>2019-02-17T08:23:12.000Z</time>
      </trkpt>
      <trkpt lat="46.7917" lon="0.4403">
        <ele>55</ele>
        <time>2019-02-17T08:23:13.000Z</time>
      </trkpt>
      <trkpt lat="46.79166" lon="0.44034">
        <ele>54</ele>
        <time>2019-02-17T08:23:14.000Z</time>
      </trkpt>
      <trkpt lat="46.79162" lon="0.44037">
        <ele>55</ele>
        <time>2019-02-17T08:23:15.000Z</time>
      </trkpt>
      <trkpt lat="46.79158" lon="0.4404">
        <ele>55</ele>
        <time>2019-02-17T08:23:16.000Z</time>
      </trkpt>
      <trkpt lat="46.79155" lon="0.44043">
        <ele>55</ele>
        <time>2019-02-17T08:23:17.000Z</time>
      </trkpt>
      <trkpt lat="46.79152" lon="0.44046">
        <ele>56</ele>
        <time>2019-02-17T08:23:18.000Z</time>
      </trkpt>
      <trkpt lat="46.79148" lon="0.44049">
        <ele>56</ele>
        <time>2019-02-17T08:23:19.000Z</time>
      </trkpt>
      <trkpt lat="46.79145" lon="0.44052">
        <ele>56</ele>
        <time>2019-02-17T08:23:20.000Z</time>
      </trkpt>
      <trkpt lat="46.79141" lon="0.44055">
        <ele>56</ele>
        <time>2019-02-17T08:23:21.000Z</time>
      </trkpt>
      <trkpt lat="46.79137" lon="0.44058">
        <ele>56</ele>
        <time>2019-02-17T08:23:22.000Z</time>
      </trkpt>
      <trkpt lat="46.79133" lon="0.44061">
        <ele>56</ele>
        <time>2019-02-17T08:23:23.000Z</time>
      </trkpt>
      <trkpt lat="46.7913" lon="0.44064">
        <ele>56</ele>
        <time>2019-02-17T08:23:24.000Z</time>
      </trkpt>
      <trkpt lat="46.79127" lon="0.44066">
        <ele>56</ele>
        <time>2019-02-17T08:23:25.000Z</time>
      </trkpt>
      <trkpt lat="46.79123" lon="0.44068">
        <ele>57</ele>
        <time>2019-02-17T08:23:26.000Z</time>
      </trkpt>
      <trkpt lat="46.7912" lon="0.4407">
        <ele>57</ele>
        <time>2019-02-17T08:23:27.000Z</time>
      </trkpt>
      <trkpt lat="46.79118" lon="0.44071">
        <ele>57</ele>
        <time>2019-02-17T08:23:28.000Z</time>
      </trkpt>
      <trkpt lat="46.79115" lon="0.44073">
        <ele>57</ele>
        <time>2019-02-17T08:23:29.000Z</time>
      </trkpt>
      <trkpt lat="46.79113" lon="0.44077">
        <ele>57</ele>
        <time>2019-02-17T08:23:30.000Z</time>
      </trkpt>
      <trkpt lat="46.7911" lon="0.44081">
        <ele>56</ele>
        <time>2019-02-17T08:23:31.000Z</time>
      </trkpt>
      <trkpt lat="46.79107" lon="0.44084">
        <ele>57</ele>
        <time>2019-02-17T08:23:32.000Z</time>
      </trkpt>
      <trkpt lat="46.79104" lon="0.44087">
        <ele>57</ele>
        <time>2019-02-17T08:23:33.000Z</time>
      </trkpt>
      <trkpt lat="46.79102" lon="0.4409">
        <ele>57</ele>
        <time>2019-02-17T08:23:34.000Z</time>
      </trkpt>
      <trkpt lat="46.791" lon="0.44094">
        <ele>55</ele>
        <time>2019-02-17T08:23:35.000Z</time>
      </trkpt>
      <trkpt lat="46.79097" lon="0.44099">
        <ele>54</ele>
        <time>2019-02-17T08:23:36.000Z</time>
      </trkpt>
      <trkpt lat="46.79095" lon="0.44105">
        <ele>53</ele>
        <time>2019-02-17T08:23:37.000Z</time>
      </trkpt>
      <trkpt lat="46.79092" lon="0.44111">
        <ele>53</ele>
        <time>2019-02-17T08:23:38.000Z</time>
      </trkpt>
      <trkpt lat="46.7909" lon="0.44115">
        <ele>53</ele>
        <time>2019-02-17T08:23:39.000Z</time>
      </trkpt>
      <trkpt lat="46.79088" lon="0.4412">
        <ele>53</ele>
        <time>2019-02-17T08:23:40.000Z</time>
      </trkpt>
      <trkpt lat="46.79087" lon="0.44124">
        <ele>53</ele>
        <time>2019-02-17T08:23:41.000Z</time>
      </trkpt>
      <trkpt lat="46.79086" lon="0.44128">
        <ele>53</ele>
        <time>2019-02-17T08:23:42.000Z</time>
      </trkpt>
      <trkpt lat="46.79085" lon="0.44131">
        <ele>53</ele>
        <time>2019-02-17T08:23:43.000Z</time>
      </trkpt>
      <trkpt lat="46.79084" lon="0.44134">
        <ele>53</ele>
        <time>2019-02-17T08:23:44.000Z</time>
      </trkpt>
      <trkpt lat="46.79085" lon="0.44136">
        <ele>53</ele>
        <time>2019-02-17T08:23:45.000Z</time>
      </trkpt>
      <trkpt lat="46.79086" lon="0.44139">
        <ele>55</ele>
        <time>2019-02-17T08:23:46.000Z</time>
      </trkpt>
      <trkpt lat="46.79088" lon="0.44141">
        <ele>54</ele>
        <time>2019-02-17T08:23:47.000Z</time>
      </trkpt>
      <trkpt lat="46.79089" lon="0.44144">
        <ele>53</ele>
        <time>2019-02-17T08:23:48.000Z</time>
      </trkpt>
      <trkpt lat="46.79091" lon="0.44146">
        <ele>51</ele>
        <time>2019-02-17T08:23:49.000Z</time>
      </trkpt>
      <trkpt lat="46.79093" lon="0.44149">
        <ele>51</ele>
        <time>2019-02-17T08:23:50.000Z</time>
      </trkpt>
      <trkpt lat="46.79096" lon="0.44151">
        <ele>51</ele>
        <time>2019-02-17T08:23:51.000Z</time>
      </trkpt>
      <trkpt lat="46.79098" lon="0.44153">
        <ele>51</ele>
        <time>2019-02-17T08:23:52.000Z</time>
      </trkpt>
      <trkpt lat="46.791" lon="0.44155">
        <ele>51</ele>
        <time>2019-02-17T08:23:53.000Z</time>
      </trkpt>
      <trkpt lat="46.79102" lon="0.44156">
        <ele>52</ele>
        <time>2019-02-17T08:23:54.000Z</time>
      </trkpt>
      <trkpt lat="46.79104" lon="0.44157">
        <ele>51</ele>
        <time>2019-02-17T08:23:55.000Z</time>
      </trkpt>
      <trkpt lat="46.79109" lon="0.44156">
        <ele>52</ele>
        <time>2019-02-17T08:23:56.000Z</time>
      </trkpt>
      <trkpt lat="46.79113" lon="0.44154">
        <ele>53</ele>
        <time>2019-02-17T08:23:57.000Z</time>
      </trkpt>
      <trkpt lat="46.79118" lon="0.44152">
        <ele>54</ele>
        <time>2019-02-17T08:23:58.000Z</time>
      </trkpt>
      <trkpt lat="46.79122" lon="0.44151">
        <ele>53</ele>
        <time>2019-02-17T08:23:59.000Z</time>
      </trkpt>
      <trkpt lat="46.79125" lon="0.44149">
        <ele>53</ele>
        <time>2019-02-17T08:24:00.000Z</time>
      </trkpt>
      <trkpt lat="46.79127" lon="0.44148">
        <ele>53</ele>
        <time>2019-02-17T08:24:01.000Z</time>
      </trkpt>
      <trkpt lat="46.79129" lon="0.44146">
        <ele>53</ele>
        <time>2019-02-17T08:24:02.000Z</time>
      </trkpt>
      <trkpt lat="46.79131" lon="0.44144">
        <ele>53</ele>
        <time>2019-02-17T08:24:03.000Z</time>
      </trkpt>
      <trkpt lat="46.79133" lon="0.44142">
        <ele>53</ele>
        <time>2019-02-17T08:24:04.000Z</time>
      </trkpt>
      <trkpt lat="46.79136" lon="0.4414">
        <ele>53</ele>
        <time>2019-02-17T08:24:05.000Z</time>
      </trkpt>
      <trkpt lat="46.79138" lon="0.44138">
        <ele>53</ele>
        <time>2019-02-17T08:24:06.000Z</time>
      </trkpt>
      <trkpt lat="46.7914" lon="0.44136">
        <ele>52</ele>
        <time>2019-02-17T08:24:07.000Z</time>
      </trkpt>
      <trkpt lat="46.79142" lon="0.44135">
        <ele>52</ele>
        <time>2019-02-17T08:24:08.000Z</time>
      </trkpt>
      <trkpt lat="46.79144" lon="0.44134">
        <ele>52</ele>
        <time>2019-02-17T08:24:09.000Z</time>
      </trkpt>
      <trkpt lat="46.79146" lon="0.44134">
        <ele>52</ele>
        <time>2019-02-17T08:24:10.000Z</time>
      </trkpt>
      <trkpt lat="46.79147" lon="0.44133">
        <ele>52</ele>
        <time>2019-02-17T08:24:11.000Z</time>
      </trkpt>
      <trkpt lat="46.79148" lon="0.44133">
        <ele>53</ele>
        <time>2019-02-17T08:24:12.000Z</time>
      </trkpt>
      <trkpt lat="46.79149" lon="0.44133">
        <ele>53</ele>
        <time>2019-02-17T08:24:13.000Z</time>
      </trkpt>
      <trkpt lat="46.79151" lon="0.44133">
        <ele>53</ele>
        <time>2019-02-17T08:24:14.000Z</time>
      </trkpt>
      <trkpt lat="46.79153" lon="0.44133">
        <ele>55</ele>
        <time>2019-02-17T08:24:15.000Z</time>
      </trkpt>
      <trkpt lat="46.79155" lon="0.44133">
        <ele>57</ele>
        <time>2019-02-17T08:24:16.000Z</time>
      </trkpt>
      <trkpt lat="46.79157" lon="0.44134">
        <ele>56</ele>
        <time>2019-02-17T08:24:17.000Z</time>
      </trkpt>
      <trkpt lat="46.79159" lon="0.44134">
        <ele>57</ele>
        <time>2019-02-17T08:24:18.000Z</time>
      </trkpt>
      <trkpt lat="46.79161" lon="0.44134">
        <ele>57</ele>
        <time>2019-02-17T08:24:19.000Z</time>
      </trkpt>
      <trkpt lat="46.79163" lon="0.44135">
        <ele>56</ele>
        <time>2019-02-17T08:24:20.000Z</time>
      </trkpt>
      <trkpt lat="46.79165" lon="0.44137">
        <ele>57</ele>
        <time>2019-02-17T08:24:21.000Z</time>
      </trkpt>
      <trkpt lat="46.79167" lon="0.44139">
        <ele>57</ele>
        <time>2019-02-17T08:24:22.000Z</time>
      </trkpt>
      <trkpt lat="46.79168" lon="0.44141">
        <ele>58</ele>
        <time>2019-02-17T08:24:23.000Z</time>
      </trkpt>
      <trkpt lat="46.7917" lon="0.44143">
        <ele>58</ele>
        <time>2019-02-17T08:24:24.000Z</time>
      </trkpt>
      <trkpt lat="46.79171" lon="0.44146">
        <ele>56</ele>
        <time>2019-02-17T08:24:25.000Z</time>
      </trkpt>
      <trkpt lat="46.79172" lon="0.44149">
        <ele>56</ele>
        <time>2019-02-17T08:24:26.000Z</time>
      </trkpt>
      <trkpt lat="46.79173" lon="0.44153">
        <ele>57</ele>
        <time>2019-02-17T08:24:27.000Z</time>
      </trkpt>
      <trkpt lat="46.79174" lon="0.44157">
        <ele>56</ele>
        <time>2019-02-17T08:24:28.000Z</time>
      </trkpt>
      <trkpt lat="46.79175" lon="0.4416">
        <ele>56</ele>
        <time>2019-02-17T08:24:29.000Z</time>
      </trkpt>
      <trkpt lat="46.79176" lon="0.44163">
        <ele>55</ele>
        <time>2019-02-17T08:24:30.000Z</time>
      </trkpt>
      <trkpt lat="46.79177" lon="0.44165">
        <ele>55</ele>
        <time>2019-02-17T08:24:31.000Z</time>
      </trkpt>
      <trkpt lat="46.79178" lon="0.44167">
        <ele>56</ele>
        <time>2019-02-17T08:24:32.000Z</time>
      </trkpt>
      <trkpt lat="46.79179" lon="0.44167">
        <ele>57</ele>
        <time>2019-02-17T08:24:33.000Z</time>
      </trkpt>
      <trkpt lat="46.7918" lon="0.44168">
        <ele>57</ele>
        <time>2019-02-17T08:24:34.000Z</time>
      </trkpt>
      <trkpt lat="46.79181" lon="0.4417">
        <ele>57</ele>
        <time>2019-02-17T08:24:35.000Z</time>
      </trkpt>
      <trkpt lat="46.79181" lon="0.44172">
        <ele>56</ele>
        <time>2019-02-17T08:24:36.000Z</time>
      </trkpt>
      <trkpt lat="46.79182" lon="0.44175">
        <ele>56</ele>
        <time>2019-02-17T08:24:37.000Z</time>
      </trkpt>
      <trkpt lat="46.79182" lon="0.44177">
        <ele>56</ele>
        <time>2019-02-17T08:24:38.000Z</time>
      </trkpt>
      <trkpt lat="46.79183" lon="0.44181">
        <ele>56</ele>
        <time>2019-02-17T08:24:39.000Z</time>
      </trkpt>
      <trkpt lat="46.79183" lon="0.44185">
        <ele>54</ele>
        <time>2019-02-17T08:24:40.000Z</time>
      </trkpt>
      <trkpt lat="46.79183" lon="0.4419">
        <ele>54</ele>
        <time>2019-02-17T08:24:41.000Z</time>
      </trkpt>
      <trkpt lat="46.79183" lon="0.44195">
        <ele>55</ele>
        <time>2019-02-17T08:24:42.000Z</time>
      </trkpt>
      <trkpt lat="46.79183" lon="0.44199">
        <ele>56</ele>
        <time>2019-02-17T08:24:43.000Z</time>
      </trkpt>
      <trkpt lat="46.79184" lon="0.44202">
        <ele>56</ele>
        <time>2019-02-17T08:24:44.000Z</time>
      </trkpt>
      <trkpt lat="46.79185" lon="0.44204">
        <ele>57</ele>
        <time>2019-02-17T08:24:45.000Z</time>
      </trkpt>
      <trkpt lat="46.79187" lon="0.44206">
        <ele>59</ele>
        <time>2019-02-17T08:24:46.000Z</time>
      </trkpt>
      <trkpt lat="46.7919" lon="0.44207">
        <ele>58</ele>
        <time>2019-02-17T08:24:47.000Z</time>
      </trkpt>
      <trkpt lat="46.79194" lon="0.44208">
        <ele>59</ele>
        <time>2019-02-17T08:24:48.000Z</time>
      </trkpt>
      <trkpt lat="46.79197" lon="0.44209">
        <ele>59</ele>
        <time>2019-02-17T08:24:49.000Z</time>
      </trkpt>
      <trkpt lat="46.792" lon="0.4421">
        <ele>59</ele>
        <time>2019-02-17T08:24:50.000Z</time>
      </trkpt>
      <trkpt lat="46.79202" lon="0.44212">
        <ele>60</ele>
        <time>2019-02-17T08:24:51.000Z</time>
      </trkpt>
      <trkpt lat="46.79205" lon="0.44213">
        <ele>61</ele>
        <time>2019-02-17T08:24:52.000Z</time>
      </trkpt>
      <trkpt lat="46.79207" lon="0.44214">
        <ele>61</ele>
        <time>2019-02-17T08:24:53.000Z</time>
      </trkpt>
      <trkpt lat="46.79209" lon="0.44215">
        <ele>61</ele>
        <time>2019-02-17T08:24:54.000Z</time>
      </trkpt>
      <trkpt lat="46.79212" lon="0.44216">
        <ele>62</ele>
        <time>2019-02-17T08:24:55.000Z</time>
      </trkpt>
      <trkpt lat="46.79214" lon="0.44217">
        <ele>62</ele>
        <time>2019-02-17T08:24:56.000Z</time>
      </trkpt>
      <trkpt lat="46.79216" lon="0.44218">
        <ele>62</ele>
        <time>2019-02-17T08:24:57.000Z</time>
      </trkpt>
      <trkpt lat="46.79218" lon="0.44221">
        <ele>61</ele>
        <time>2019-02-17T08:24:58.000Z</time>
      </trkpt>
      <trkpt lat="46.7922" lon="0.44224">
        <ele>61</ele>
        <time>2019-02-17T08:24:59.000Z</time>
      </trkpt>
      <trkpt lat="46.79221" lon="0.44228">
        <ele>59</ele>
        <time>2019-02-17T08:25:00.000Z</time>
      </trkpt>
      <trkpt lat="46.79222" lon="0.44233">
        <ele>59</ele>
        <time>2019-02-17T08:25:01.000Z</time>
      </trkpt>
      <trkpt lat="46.79222" lon="0.44237">
        <ele>60</ele>
        <time>2019-02-17T08:25:02.000Z</time>
      </trkpt>
      <trkpt lat="46.79223" lon="0.4424">
        <ele>60</ele>
        <time>2019-02-17T08:25:03.000Z</time>
      </trkpt>
      <trkpt lat="46.79225" lon="0.44243">
        <ele>60</ele>
        <time>2019-02-17T08:25:04.000Z</time>
      </trkpt>
      <trkpt lat="46.79226" lon="0.44245">
        <ele>62</ele>
        <time>2019-02-17T08:25:05.000Z</time>
      </trkpt>
      <trkpt lat="46.79228" lon="0.44247">
        <ele>62</ele>
        <time>2019-02-17T08:25:06.000Z</time>
      </trkpt>
      <trkpt lat="46.7923" lon="0.44248">
        <ele>62</ele>
        <time>2019-02-17T08:25:07.000Z</time>
      </trkpt>
      <trkpt lat="46.79232" lon="0.44249">
        <ele>63</ele>
        <time>2019-02-17T08:25:08.000Z</time>
      </trkpt>
      <trkpt lat="46.79234" lon="0.44251">
        <ele>63</ele>
        <time>2019-02-17T08:25:09.000Z</time>
      </trkpt>
      <trkpt lat="46.79237" lon="0.44252">
        <ele>63</ele>
        <time>2019-02-17T08:25:10.000Z</time>
      </trkpt>
      <trkpt lat="46.79239" lon="0.44253">
        <ele>63</ele>
        <time>2019-02-17T08:25:11.000Z</time>
      </trkpt>
      <trkpt lat="46.79242" lon="0.44254">
        <ele>64</ele>
        <time>2019-02-17T08:25:12.000Z</time>
      </trkpt>
      <trkpt lat="46.79245" lon="0.44253">
        <ele>63</ele>
        <time>2019-02-17T08:25:13.000Z</time>
      </trkpt>
      <trkpt lat="46.79249" lon="0.4425">
        <ele>62</ele>
        <time>2019-02-17T08:25:14.000Z</time>
      </trkpt>
      <trkpt lat="46.79252" lon="0.44248">
        <ele>63</ele>
        <time>2019-02-17T08:25:15.000Z</time>
      </trkpt>
      <trkpt lat="46.79256" lon="0.44247">
        <ele>62</ele>
        <time>2019-02-17T08:25:16.000Z</time>
      </trkpt>
      <trkpt lat="46.79259" lon="0.44248">
        <ele>63</ele>
        <time>2019-02-17T08:25:17.000Z</time>
      </trkpt>
      <trkpt lat="46.79262" lon="0.44251">
        <ele>61</ele>
        <time>2019-02-17T08:25:18.000Z</time>
      </trkpt>
      <trkpt lat="46.79265" lon="0.44253">
        <ele>63</ele>
        <time>2019-02-17T08:25:19.000Z</time>
      </trkpt>
      <trkpt lat="46.79268" lon="0.44256">
        <ele>64</ele>
        <time>2019-02-17T08:25:20.000Z</time>
      </trkpt>
      <trkpt lat="46.79271" lon="0.44259">
        <ele>64</ele>
        <time>2019-02-17T08:25:21.000Z</time>
      </trkpt>
      <trkpt lat="46.79274" lon="0.4426">
        <ele>65</ele>
        <time>2019-02-17T08:25:22.000Z</time>
      </trkpt>
      <trkpt lat="46.79277" lon="0.44263">
        <ele>65</ele>
        <time>2019-02-17T08:25:23.000Z</time>
      </trkpt>
      <trkpt lat="46.79279" lon="0.44266">
        <ele>65</ele>
        <time>2019-02-17T08:25:24.000Z</time>
      </trkpt>
      <trkpt lat="46.79281" lon="0.44269">
        <ele>66</ele>
        <time>2019-02-17T08:25:25.000Z</time>
      </trkpt>
      <trkpt lat="46.79282" lon="0.44273">
        <ele>66</ele>
        <time>2019-02-17T08:25:26.000Z</time>
      </trkpt>
      <trkpt lat="46.79284" lon="0.44275">
        <ele>66</ele>
        <time>2019-02-17T08:25:27.000Z</time>
      </trkpt>
      <trkpt lat="46.79285" lon="0.44277">
        <ele>66</ele>
        <time>2019-02-17T08:25:28.000Z</time>
      </trkpt>
      <trkpt lat="46.79287" lon="0.44279">
        <ele>66</ele>
        <time>2019-02-17T08:25:29.000Z</time>
      </trkpt>
      <trkpt lat="46.79289" lon="0.4428">
        <ele>65</ele>
        <time>2019-02-17T08:25:30.000Z</time>
      </trkpt>
      <trkpt lat="46.79292" lon="0.4428">
        <ele>65</ele>
        <time>2019-02-17T08:25:31.000Z</time>
      </trkpt>
      <trkpt lat="46.79295" lon="0.4428">
        <ele>64</ele>
        <time>2019-02-17T08:25:32.000Z</time>
      </trkpt>
      <trkpt lat="46.79298" lon="0.44279">
        <ele>64</ele>
        <time>2019-02-17T08:25:33.000Z</time>
      </trkpt>
      <trkpt lat="46.79301" lon="0.4428">
        <ele>65</ele>
        <time>2019-02-17T08:25:34.000Z</time>
      </trkpt>
      <trkpt lat="46.79304" lon="0.4428">
        <ele>65</ele>
        <time>2019-02-17T08:25:35.000Z</time>
      </trkpt>
      <trkpt lat="46.79306" lon="0.4428">
        <ele>65</ele>
        <time>2019-02-17T08:25:36.000Z</time>
      </trkpt>
      <trkpt lat="46.79309" lon="0.44281">
        <ele>65</ele>
        <time>2019-02-17T08:25:37.000Z</time>
      </trkpt>
      <trkpt lat="46.79312" lon="0.44282">
        <ele>65</ele>
        <time>2019-02-17T08:25:38.000Z</time>
      </trkpt>
      <trkpt lat="46.79314" lon="0.44284">
        <ele>65</ele>
        <time>2019-02-17T08:25:39.000Z</time>
      </trkpt>
      <trkpt lat="46.79316" lon="0.44285">
        <ele>64</ele>
        <time>2019-02-17T08:25:40.000Z</time>
      </trkpt>
      <trkpt lat="46.79318" lon="0.44288">
        <ele>64</ele>
        <time>2019-02-17T08:25:41.000Z</time>
      </trkpt>
      <trkpt lat="46.79319" lon="0.4429">
        <ele>63</ele>
        <time>2019-02-17T08:25:42.000Z</time>
      </trkpt>
      <trkpt lat="46.7932" lon="0.44293">
        <ele>63</ele>
        <time>2019-02-17T08:25:43.000Z</time>
      </trkpt>
      <trkpt lat="46.79321" lon="0.44295">
        <ele>62</ele>
        <time>2019-02-17T08:25:44.000Z</time>
      </trkpt>
      <trkpt lat="46.79322" lon="0.44297">
        <ele>62</ele>
        <time>2019-02-17T08:25:45.000Z</time>
      </trkpt>
      <trkpt lat="46.79323" lon="0.44299">
        <ele>63</ele>
        <time>2019-02-17T08:25:46.000Z</time>
      </trkpt>
      <trkpt lat="46.79324" lon="0.44301">
        <ele>63</ele>
        <time>2019-02-17T08:25:47.000Z</time>
      </trkpt>
      <trkpt lat="46.79325" lon="0.44303">
        <ele>63</ele>
        <time>2019-02-17T08:25:48.000Z</time>
      </trkpt>
      <trkpt lat="46.79326" lon="0.44305">
        <ele>64</ele>
        <time>2019-02-17T08:25:49.000Z</time>
      </trkpt>
      <trkpt lat="46.79327" lon="0.44307">
        <ele>64</ele>
        <time>2019-02-17T08:25:50.000Z</time>
      </trkpt>
      <trkpt lat="46.79328" lon="0.44309">
        <ele>64</ele>
        <time>2019-02-17T08:25:51.000Z</time>
      </trkpt>
      <trkpt lat="46.79327" lon="0.44312">
        <ele>63</ele>
        <time>2019-02-17T08:25:52.000Z</time>
      </trkpt>
      <trkpt lat="46.79326" lon="0.44314">
        <ele>63</ele>
        <time>2019-02-17T08:25:53.000Z</time>
      </trkpt>
      <trkpt lat="46.79325" lon="0.44317">
        <ele>63</ele>
        <time>2019-02-17T08:25:54.000Z</time>
      </trkpt>
      <trkpt lat="46.79324" lon="0.4432">
        <ele>62</ele>
        <time>2019-02-17T08:25:55.000Z</time>
      </trkpt>
      <trkpt lat="46.79323" lon="0.44323">
        <ele>63</ele>
        <time>2019-02-17T08:25:56.000Z</time>
      </trkpt>
      <trkpt lat="46.79323" lon="0.44326">
        <ele>63</ele>
        <time>2019-02-17T08:25:57.000Z</time>
      </trkpt>
      <trkpt lat="46.79323" lon="0.44329">
        <ele>63</ele>
        <time>2019-02-17T08:25:58.000Z</time>
      </trkpt>
      <trkpt lat="46.79323" lon="0.44332">
        <ele>63</ele>
        <time>2019-02-17T08:25:59.000Z</time>
      </trkpt>
      <trkpt lat="46.79323" lon="0.44335">
        <ele>63</ele>
        <time>2019-02-17T08:26:00.000Z</time>
      </trkpt>
      <trkpt lat="46.79323" lon="0.44338">
        <ele>63</ele>
        <time>2019-02-17T08:26:01.000Z</time>
      </trkpt>
      <trkpt lat="46.79323" lon="0.4434">
        <ele>62</ele>
        <time>2019-02-17T08:26:02.000Z</time>
      </trkpt>
      <trkpt lat="46.79324" lon="0.44343">
        <ele>62</ele>
        <time>2019-02-17T08:26:03.000Z</time>
      </trkpt>
      <trkpt lat="46.79325" lon="0.44345">
        <ele>61</ele>
        <time>2019-02-17T08:26:04.000Z</time>
      </trkpt>
      <trkpt lat="46.79327" lon="0.44348">
        <ele>60</ele>
        <time>2019-02-17T08:26:05.000Z</time>
      </trkpt>
      <trkpt lat="46.79328" lon="0.4435">
        <ele>60</ele>
        <time>2019-02-17T08:26:06.000Z</time>
      </trkpt>
      <trkpt lat="46.7933" lon="0.44352">
        <ele>58</ele>
        <time>2019-02-17T08:26:07.000Z</time>
      </trkpt>
      <trkpt lat="46.79333" lon="0.44354">
        <ele>57</ele>
        <time>2019-02-17T08:26:08.000Z</time>
      </trkpt>
      <trkpt lat="46.79336" lon="0.44356">
        <ele>55</ele>
        <time>2019-02-17T08:26:09.000Z</time>
      </trkpt>
      <trkpt lat="46.79339" lon="0.44357">
        <ele>53</ele>
        <time>2019-02-17T08:26:10.000Z</time>
      </trkpt>
      <trkpt lat="46.79342" lon="0.44359">
        <ele>53</ele>
        <time>2019-02-17T08:26:11.000Z</time>
      </trkpt>
      <trkpt lat="46.79344" lon="0.44359">
        <ele>52</ele>
        <time>2019-02-17T08:26:12.000Z</time>
      </trkpt>
      <trkpt lat="46.79347" lon="0.4436">
        <ele>53</ele>
        <time>2019-02-17T08:26:13.000Z</time>
      </trkpt>
      <trkpt lat="46.79349" lon="0.44362">
        <ele>54</ele>
        <time>2019-02-17T08:26:14.000Z</time>
      </trkpt>
      <trkpt lat="46.79351" lon="0.44363">
        <ele>54</ele>
        <time>2019-02-17T08:26:15.000Z</time>
      </trkpt>
      <trkpt lat="46.79352" lon="0.44364">
        <ele>54</ele>
        <time>2019-02-17T08:26:16.000Z</time>
      </trkpt>
      <trkpt lat="46.79353" lon="0.44364">
        <ele>53</ele>
        <time>2019-02-17T08:26:17.000Z</time>
      </trkpt>
      <trkpt lat="46.79354" lon="0.44365">
        <ele>52</ele>
        <time>2019-02-17T08:26:18.000Z</time>
      </trkpt>
      <trkpt lat="46.79355" lon="0.44365">
        <ele>53</ele>
        <time>2019-02-17T08:26:19.000Z</time>
      </trkpt>
      <trkpt lat="46.79356" lon="0.44365">
        <ele>54</ele>
        <time>2019-02-17T08:26:20.000Z</time>
      </trkpt>
      <trkpt lat="46.79358" lon="0.44366">
        <ele>56</ele>
        <time>2019-02-17T08:26:21.000Z</time>
      </trkpt>
      <trkpt lat="46.79359" lon="0.44367">
        <ele>57</ele>
        <time>2019-02-17T08:26:22.000Z</time>
      </trkpt>
      <trkpt lat="46.79361" lon="0.44368">
        <ele>58</ele>
        <time>2019-02-17T08:26:23.000Z</time>
      </trkpt>
      <trkpt lat="46.79362" lon="0.4437">
        <ele>58</ele>
        <time>2019-02-17T08:26:24.000Z</time>
      </trkpt>
      <trkpt lat="46.79364" lon="0.44371">
        <ele>58</ele>
        <time>2019-02-17T08:26:25.000Z</time>
      </trkpt>
      <trkpt lat="46.79365" lon="0.44373">
        <ele>60</ele>
        <time>2019-02-17T08:26:26.000Z</time>
      </trkpt>
      <trkpt lat="46.79366" lon="0.44374">
        <ele>60</ele>
        <time>2019-02-17T08:26:27.000Z</time>
      </trkpt>
      <trkpt lat="46.79367" lon="0.44375">
        <ele>60</ele>
        <time>2019-02-17T08:26:28.000Z</time>
      </trkpt>
      <trkpt lat="46.79368" lon="0.44375">
        <ele>60</ele>
        <time>2019-02-17T08:26:29.000Z</time>
      </trkpt>
      <trkpt lat="46.79368" lon="0.44375">
        <ele>61</ele>
        <time>2019-02-17T08:26:30.000Z</time>
      </trkpt>
      <trkpt lat="46.79369" lon="0.44375">
        <ele>61</ele>
        <time>2019-02-17T08:26:31.000Z</time>
      </trkpt>
      <trkpt lat="46.79369" lon="0.44375">
        <ele>62</ele>
        <time>2019-02-17T08:26:32.000Z</time>
      </trkpt>
      <trkpt lat="46.7937" lon="0.44376">
        <ele>62</ele>
        <time>2019-02-17T08:26:33.000Z</time>
      </trkpt>
      <trkpt lat="46.7937" lon="0.44376">
        <ele>62</ele>
        <time>2019-02-17T08:26:34.000Z</time>
      </trkpt>
      <trkpt lat="46.79371" lon="0.44377">
        <ele>61</ele>
        <time>2019-02-17T08:26:35.000Z</time>
      </trkpt>
      <trkpt lat="46.79373" lon="0.44379">
        <ele>61</ele>
        <time>2019-02-17T08:26:36.000Z</time>
      </trkpt>
      <trkpt lat="46.79375" lon="0.44381">
        <ele>61</ele>
        <time>2019-02-17T08:26:37.000Z</time>
      </trkpt>
      <trkpt lat="46.79376" lon="0.44382">
        <ele>61</ele>
        <time>2019-02-17T08:26:38.000Z</time>
      </trkpt>
      <trkpt lat="46.79378" lon="0.44383">
        <ele>60</ele>
        <time>2019-02-17T08:26:39.000Z</time>
      </trkpt>
      <trkpt lat="46.7938" lon="0.44384">
        <ele>60</ele>
        <time>2019-02-17T08:26:40.000Z</time>
      </trkpt>
      <trkpt lat="46.79382" lon="0.44384">
        <ele>59</ele>
        <time>2019-02-17T08:26:41.000Z</time>
      </trkpt>
      <trkpt lat="46.79384" lon="0.44384">
        <ele>59</ele>
        <time>2019-02-17T08:26:42.000Z</time>
      </trkpt>
      <trkpt lat="46.79386" lon="0.44384">
        <ele>59</ele>
        <time>2019-02-17T08:26:43.000Z</time>
      </trkpt>
      <trkpt lat="46.79387" lon="0.44383">
        <ele>59</ele>
        <time>2019-02-17T08:26:44.000Z</time>
      </trkpt>
      <trkpt lat="46.79389" lon="0.44382">
        <ele>59</ele>
        <time>2019-02-17T08:26:45.000Z</time>
      </trkpt>
      <trkpt lat="46.79392" lon="0.44381">
        <ele>59</ele>
        <time>2019-02-17T08:26:46.000Z</time>
      </trkpt>
      <trkpt lat="46.79394" lon="0.44379">
        <ele>59</ele>
        <time>2019-02-17T08:26:47.000Z</time>
      </trkpt>
      <trkpt lat="46.79396" lon="0.44377">
        <ele>59</ele>
        <time>2019-02-17T08:26:48.000Z</time>
      </trkpt>
      <trkpt lat="46.79399" lon="0.44375">
        <ele>59</ele>
        <time>2019-02-17T08:26:49.000Z</time>
      </trkpt>
      <trkpt lat="46.79402" lon="0.44374">
        <ele>59</ele>
        <time>2019-02-17T08:26:50.000Z</time>
      </trkpt>
      <trkpt lat="46.79405" lon="0.44374">
        <ele>60</ele>
        <time>2019-02-17T08:26:51.000Z</time>
      </trkpt>
      <trkpt lat="46.79408" lon="0.44376">
        <ele>60</ele>
        <time>2019-02-17T08:26:52.000Z</time>
      </trkpt>
      <trkpt lat="46.79411" lon="0.44378">
        <ele>59</ele>
        <time>2019-02-17T08:26:53.000Z</time>
      </trkpt>
      <trkpt lat="46.79414" lon="0.44381">
        <ele>60</ele>
        <time>2019-02-17T08:26:54.000Z</time>
      </trkpt>
      <trkpt lat="46.79416" lon="0.44383">
        <ele>59</ele>
        <time>2019-02-17T08:26:55.000Z</time>
      </trkpt>
      <trkpt lat="46.79418" lon="0.44386">
        <ele>59</ele>
        <time>2019-02-17T08:26:56.000Z</time>
      </trkpt>
      <trkpt lat="46.7942" lon="0.44389">
        <ele>59</ele>
        <time>2019-02-17T08:26:57.000Z</time>
      </trkpt>
      <trkpt lat="46.79423" lon="0.44392">
        <ele>59</ele>
        <time>2019-02-17T08:26:58.000Z</time>
      </trkpt>
      <trkpt lat="46.79425" lon="0.44396">
        <ele>59</ele>
        <time>2019-02-17T08:26:59.000Z</time>
      </trkpt>
      <trkpt lat="46.79427" lon="0.44399">
        <ele>59</ele>
        <time>2019-02-17T08:27:00.000Z</time>
      </trkpt>
      <trkpt lat="46.79429" lon="0.44402">
        <ele>59</ele>
        <time>2019-02-17T08:27:01.000Z</time>
      </trkpt>
      <trkpt lat="46.79431" lon="0.44405">
        <ele>58</ele>
        <time>2019-02-17T08:27:02.000Z</time>
      </trkpt>
      <trkpt lat="46.79433" lon="0.44409">
        <ele>58</ele>
        <time>2019-02-17T08:27:03.000Z</time>
      </trkpt>
      <trkpt lat="46.79435" lon="0.44412">
        <ele>58</ele>
        <time>2019-02-17T08:27:04.000Z</time>
      </trkpt>
      <trkpt lat="46.79437" lon="0.44416">
        <ele>58</ele>
        <time>2019-02-17T08:27:05.000Z</time>
      </trkpt>
      <trkpt lat="46.79439" lon="0.44419">
        <ele>58</ele>
        <time>2019-02-17T08:27:06.000Z</time>
      </trkpt>
      <trkpt lat="46.79441" lon="0.44423">
        <ele>58</ele>
        <time>2019-02-17T08:27:07.000Z</time>
      </trkpt>
      <trkpt lat="46.79443" lon="0.44426">
        <ele>57</ele>
        <time>2019-02-17T08:27:08.000Z</time>
      </trkpt>
      <trkpt lat="46.79445" lon="0.44429">
        <ele>57</ele>
        <time>2019-02-17T08:27:09.000Z</time>
      </trkpt>
      <trkpt lat="46.79447" lon="0.44432">
        <ele>57</ele>
        <time>2019-02-17T08:27:10.000Z</time>
      </trkpt>
      <trkpt lat="46.79449" lon="0.44434">
        <ele>57</ele>
        <time>2019-02-17T08:27:11.000Z</time>
      </trkpt>
      <trkpt lat="46.79452" lon="0.44435">
        <ele>58</ele>
        <time>2019-02-17T08:27:12.000Z</time>
      </trkpt>
      <trkpt lat="46.79455" lon="0.44435">
        <ele>57</ele>
        <time>2019-02-17T08:27:13.000Z</time>
      </trkpt>
      <trkpt lat="46.79457" lon="0.44433">
        <ele>56</ele>
        <time>2019-02-17T08:27:14.000Z</time>
      </trkpt>
      <trkpt lat="46.79459" lon="0.44432">
        <ele>56</ele>
        <time>2019-02-17T08:27:15.000Z</time>
      </trkpt>
      <trkpt lat="46.79462" lon="0.4443">
        <ele>55</ele>
        <time>2019-02-17T08:27:16.000Z</time>
      </trkpt>
      <trkpt lat="46.79464" lon="0.44429">
        <ele>55</ele>
        <time>2019-02-17T08:27:17.000Z</time>
      </trkpt>
      <trkpt lat="46.79466" lon="0.44427">
        <ele>55</ele>
        <time>2019-02-17T08:27:18.000Z</time>
      </trkpt>
      <trkpt lat="46.79469" lon="0.44424">
        <ele>54</ele>
        <time>2019-02-17T08:27:19.000Z</time>
      </trkpt>
      <trkpt lat="46.79471" lon="0.44422">
        <ele>55</ele>
        <time>2019-02-17T08:27:20.000Z</time>
      </trkpt>
      <trkpt lat="46.79474" lon="0.4442">
        <ele>55</ele>
        <time>2019-02-17T08:27:21.000Z</time>
      </trkpt>
      <trkpt lat="46.79477" lon="0.4442">
        <ele>53</ele>
        <time>2019-02-17T08:27:22.000Z</time>
      </trkpt>
      <trkpt lat="46.7948" lon="0.44421">
        <ele>54</ele>
        <time>2019-02-17T08:27:23.000Z</time>
      </trkpt>
      <trkpt lat="46.79483" lon="0.44423">
        <ele>56</ele>
        <time>2019-02-17T08:27:24.000Z</time>
      </trkpt>
      <trkpt lat="46.79486" lon="0.44427">
        <ele>56</ele>
        <time>2019-02-17T08:27:25.000Z</time>
      </trkpt>
      <trkpt lat="46.79488" lon="0.4443">
        <ele>56</ele>
        <time>2019-02-17T08:27:26.000Z</time>
      </trkpt>
      <trkpt lat="46.7949" lon="0.44434">
        <ele>57</ele>
        <time>2019-02-17T08:27:27.000Z</time>
      </trkpt>
      <trkpt lat="46.79492" lon="0.44437">
        <ele>57</ele>
        <time>2019-02-17T08:27:28.000Z</time>
      </trkpt>
      <trkpt lat="46.79495" lon="0.4444">
        <ele>57</ele>
        <time>2019-02-17T08:27:29.000Z</time>
      </trkpt>
      <trkpt lat="46.79497" lon="0.44443">
        <ele>57</ele>
        <time>2019-02-17T08:27:30.000Z</time>
      </trkpt>
      <trkpt lat="46.795" lon="0.44446">
        <ele>58</ele>
        <time>2019-02-17T08:27:31.000Z</time>
      </trkpt>
      <trkpt lat="46.79502" lon="0.44448">
        <ele>58</ele>
        <time>2019-02-17T08:27:32.000Z</time>
      </trkpt>
      <trkpt lat="46.79505" lon="0.4445">
        <ele>58</ele>
        <time>2019-02-17T08:27:33.000Z</time>
      </trkpt>
      <trkpt lat="46.79508" lon="0.4445">
        <ele>57</ele>
        <time>2019-02-17T08:27:34.000Z</time>
      </trkpt>
      <trkpt lat="46.79512" lon="0.44449">
        <ele>57</ele>
        <time>2019-02-17T08:27:35.000Z</time>
      </trkpt>
      <trkpt lat="46.79515" lon="0.44447">
        <ele>57</ele>
        <time>2019-02-17T08:27:36.000Z</time>
      </trkpt>
      <trkpt lat="46.79518" lon="0.44446">
        <ele>57</ele>
        <time>2019-02-17T08:27:37.000Z</time>
      </trkpt>
      <trkpt lat="46.79521" lon="0.44445">
        <ele>57</ele>
        <time>2019-02-17T08:27:38.000Z</time>
      </trkpt>
      <trkpt lat="46.79524" lon="0.44444">
        <ele>57</ele>
        <time>2019-02-17T08:27:39.000Z</time>
      </trkpt>
      <trkpt lat="46.79528" lon="0.44443">
        <ele>57</ele>
        <time>2019-02-17T08:27:40.000Z</time>
      </trkpt>
      <trkpt lat="46.79531" lon="0.44442">
        <ele>57</ele>
        <time>2019-02-17T08:27:41.000Z</time>
      </trkpt>
      <trkpt lat="46.79534" lon="0.44442">
        <ele>57</ele>
        <time>2019-02-17T08:27:42.000Z</time>
      </trkpt>
      <trkpt lat="46.79537" lon="0.44442">
        <ele>56</ele>
        <time>2019-02-17T08:27:43.000Z</time>
      </trkpt>
      <trkpt lat="46.79539" lon="0.44444">
        <ele>56</ele>
        <time>2019-02-17T08:27:44.000Z</time>
      </trkpt>
      <trkpt lat="46.79541" lon="0.44446">
        <ele>56</ele>
        <time>2019-02-17T08:27:45.000Z</time>
      </trkpt>
      <trkpt lat="46.79543" lon="0.44449">
        <ele>56</ele>
        <time>2019-02-17T08:27:46.000Z</time>
      </trkpt>
      <trkpt lat="46.79544" lon="0.44452">
        <ele>55</ele>
        <time>2019-02-17T08:27:47.000Z</time>
      </trkpt>
      <trkpt lat="46.79545" lon="0.44455">
        <ele>55</ele>
        <time>2019-02-17T08:27:48.000Z</time>
      </trkpt>
      <trkpt lat="46.79545" lon="0.44459">
        <ele>55</ele>
        <time>2019-02-17T08:27:49.000Z</time>
      </trkpt>
      <trkpt lat="46.79547" lon="0.44461">
        <ele>55</ele>
        <time>2019-02-17T08:27:50.000Z</time>
      </trkpt>
      <trkpt lat="46.79548" lon="0.44463">
        <ele>55</ele>
        <time>2019-02-17T08:27:51.000Z</time>
      </trkpt>
      <trkpt lat="46.7955" lon="0.44463">
        <ele>55</ele>
        <time>2019-02-17T08:27:52.000Z</time>
      </trkpt>
      <trkpt lat="46.79551" lon="0.44463">
        <ele>55</ele>
        <time>2019-02-17T08:27:53.000Z</time>
      </trkpt>
      <trkpt lat="46.79553" lon="0.44463">
        <ele>55</ele>
        <time>2019-02-17T08:27:54.000Z</time>
      </trkpt>
      <trkpt lat="46.79555" lon="0.44462">
        <ele>55</ele>
        <time>2019-02-17T08:27:55.000Z</time>
      </trkpt>
      <trkpt lat="46.79556" lon="0.44462">
        <ele>55</ele>
        <time>2019-02-17T08:27:56.000Z</time>
      </trkpt>
      <trkpt lat="46.79556" lon="0.44462">
        <ele>55</ele>
        <time>2019-02-17T08:27:57.000Z</time>
      </trkpt>
      <trkpt lat="46.79556" lon="0.44462">
        <ele>55</ele>
        <time>2019-02-17T08:27:58.000Z</time>
      </trkpt>
      <trkpt lat="46.79557" lon="0.44462">
        <ele>56</ele>
        <time>2019-02-17T08:27:59.000Z</time>
      </trkpt>
      <trkpt lat="46.79556" lon="0.44463">
        <ele>56</ele>
        <time>2019-02-17T08:28:00.000Z</time>
      </trkpt>
      <trkpt lat="46.79556" lon="0.44463">
        <ele>56</ele>
        <time>2019-02-17T08:28:01.000Z</time>
      </trkpt>
      <trkpt lat="46.79557" lon="0.44463">
        <ele>56</ele>
        <time>2019-02-17T08:28:02.000Z</time>
      </trkpt>
      <trkpt lat="46.79558" lon="0.44463">
        <ele>56</ele>
        <time>2019-02-17T08:28:03.000Z</time>
      </trkpt>
      <trkpt lat="46.79559" lon="0.44462">
        <ele>56</ele>
        <time>2019-02-17T08:28:04.000Z</time>
      </trkpt>
      <trkpt lat="46.79561" lon="0.44461">
        <ele>56</ele>
        <time>2019-02-17T08:28:05.000Z</time>
      </trkpt>
      <trkpt lat="46.79562" lon="0.44458">
        <ele>55</ele>
        <time>2019-02-17T08:28:06.000Z</time>
      </trkpt>
      <trkpt lat="46.79564" lon="0.44456">
        <ele>55</ele>
        <time>2019-02-17T08:28:07.000Z</time>
      </trkpt>
      <trkpt lat="46.79565" lon="0.44453">
        <ele>55</ele>
        <time>2019-02-17T08:28:08.000Z</time>
      </trkpt>
      <trkpt lat="46.79566" lon="0.4445">
        <ele>55</ele>
        <time>2019-02-17T08:28:09.000Z</time>
      </trkpt>
      <trkpt lat="46.79568" lon="0.44447">
        <ele>55</ele>
        <time>2019-02-17T08:28:10.000Z</time>
      </trkpt>
      <trkpt lat="46.79569" lon="0.44443">
        <ele>55</ele>
        <time>2019-02-17T08:28:11.000Z</time>
      </trkpt>
      <trkpt lat="46.79572" lon="0.4444">
        <ele>54</ele>
        <time>2019-02-17T08:28:12.000Z</time>
      </trkpt>
      <trkpt lat="46.79576" lon="0.44437">
        <ele>55</ele>
        <time>2019-02-17T08:28:13.000Z</time>
      </trkpt>
      <trkpt lat="46.7958" lon="0.44436">
        <ele>56</ele>
        <time>2019-02-17T08:28:14.000Z</time>
      </trkpt>
      <trkpt lat="46.79583" lon="0.44436">
        <ele>59</ele>
        <time>2019-02-17T08:28:15.000Z</time>
      </trkpt>
      <trkpt lat="46.79587" lon="0.44436">
        <ele>60</ele>
        <time>2019-02-17T08:28:16.000Z</time>
      </trkpt>
      <trkpt lat="46.7959" lon="0.44437">
        <ele>61</ele>
        <time>2019-02-17T08:28:17.000Z</time>
      </trkpt>
      <trkpt lat="46.79593" lon="0.44438">
        <ele>61</ele>
        <time>2019-02-17T08:28:18.000Z</time>
      </trkpt>
      <trkpt lat="46.79595" lon="0.4444">
        <ele>61</ele>
        <time>2019-02-17T08:28:19.000Z</time>
      </trkpt>
      <trkpt lat="46.79598" lon="0.44441">
        <ele>60</ele>
        <time>2019-02-17T08:28:20.000Z</time>
      </trkpt>
      <trkpt lat="46.79601" lon="0.44443">
        <ele>61</ele>
        <time>2019-02-17T08:28:21.000Z</time>
      </trkpt>
      <trkpt lat="46.79604" lon="0.44445">
        <ele>60</ele>
        <time>2019-02-17T08:28:22.000Z</time>
      </trkpt>
      <trkpt lat="46.79607" lon="0.44446">
        <ele>61</ele>
        <time>2019-02-17T08:28:23.000Z</time>
      </trkpt>
      <trkpt lat="46.7961" lon="0.44448">
        <ele>60</ele>
        <time>2019-02-17T08:28:24.000Z</time>
      </trkpt>
      <trkpt lat="46.79613" lon="0.4445">
        <ele>60</ele>
        <time>2019-02-17T08:28:25.000Z</time>
      </trkpt>
      <trkpt lat="46.79616" lon="0.44452">
        <ele>60</ele>
        <time>2019-02-17T08:28:26.000Z</time>
      </trkpt>
      <trkpt lat="46.7962" lon="0.44455">
        <ele>59</ele>
        <time>2019-02-17T08:28:27.000Z</time>
      </trkpt>
      <trkpt lat="46.79623" lon="0.44456">
        <ele>58</ele>
        <time>2019-02-17T08:28:28.000Z</time>
      </trkpt>
      <trkpt lat="46.79627" lon="0.44457">
        <ele>58</ele>
        <time>2019-02-17T08:28:29.000Z</time>
      </trkpt>
      <trkpt lat="46.79631" lon="0.44457">
        <ele>59</ele>
        <time>2019-02-17T08:28:30.000Z</time>
      </trkpt>
      <trkpt lat="46.79635" lon="0.44456">
        <ele>58</ele>
        <time>2019-02-17T08:28:31.000Z</time>
      </trkpt>
      <trkpt lat="46.79639" lon="0.44455">
        <ele>58</ele>
        <time>2019-02-17T08:28:32.000Z</time>
      </trkpt>
      <trkpt lat="46.79643" lon="0.44454">
        <ele>58</ele>
        <time>2019-02-17T08:28:33.000Z</time>
      </trkpt>
      <trkpt lat="46.79647" lon="0.44452">
        <ele>57</ele>
        <time>2019-02-17T08:28:34.000Z</time>
      </trkpt>
      <trkpt lat="46.79651" lon="0.4445">
        <ele>57</ele>
        <time>2019-02-17T08:28:35.000Z</time>
      </trkpt>
      <trkpt lat="46.79655" lon="0.44449">
        <ele>56</ele>
        <time>2019-02-17T08:28:36.000Z</time>
      </trkpt>
      <trkpt lat="46.79659" lon="0.44447">
        <ele>56</ele>
        <time>2019-02-17T08:28:37.000Z</time>
      </trkpt>
      <trkpt lat="46.79663" lon="0.44446">
        <ele>55</ele>
        <time>2019-02-17T08:28:38.000Z</time>
      </trkpt>
      <trkpt lat="46.79667" lon="0.44445">
        <ele>55</ele>
        <time>2019-02-17T08:28:39.000Z</time>
      </trkpt>
      <trkpt lat="46.7967" lon="0.44444">
        <ele>55</ele>
        <time>2019-02-17T08:28:40.000Z</time>
      </trkpt>
      <trkpt lat="46.79674" lon="0.44443">
        <ele>54</ele>
        <time>2019-02-17T08:28:41.000Z</time>
      </trkpt>
      <trkpt lat="46.79678" lon="0.44441">
        <ele>54</ele>
        <time>2019-02-17T08:28:42.000Z</time>
      </trkpt>
      <trkpt lat="46.79682" lon="0.4444">
        <ele>55</ele>
        <time>2019-02-17T08:28:43.000Z</time>
      </trkpt>
      <trkpt lat="46.79686" lon="0.44438">
        <ele>55</ele>
        <time>2019-02-17T08:28:44.000Z</time>
      </trkpt>
      <trkpt lat="46.7969" lon="0.44437">
        <ele>56</ele>
        <time>2019-02-17T08:28:45.000Z</time>
      </trkpt>
      <trkpt lat="46.79693" lon="0.44435">
        <ele>55</ele>
        <time>2019-02-17T08:28:46.000Z</time>
      </trkpt>
      <trkpt lat="46.79697" lon="0.44434">
        <ele>55</ele>
        <time>2019-02-17T08:28:47.000Z</time>
      </trkpt>
      <trkpt lat="46.79701" lon="0.44433">
        <ele>56</ele>
        <time>2019-02-17T08:28:48.000Z</time>
      </trkpt>
      <trkpt lat="46.79705" lon="0.44432">
        <ele>55</ele>
        <time>2019-02-17T08:28:49.000Z</time>
      </trkpt>
      <trkpt lat="46.79709" lon="0.4443">
        <ele>55</ele>
        <time>2019-02-17T08:28:50.000Z</time>
      </trkpt>
      <trkpt lat="46.79713" lon="0.4443">
        <ele>54</ele>
        <time>2019-02-17T08:28:51.000Z</time>
      </trkpt>
      <trkpt lat="46.79718" lon="0.44428">
        <ele>55</ele>
        <time>2019-02-17T08:28:52.000Z</time>
      </trkpt>
      <trkpt lat="46.79722" lon="0.44427">
        <ele>54</ele>
        <time>2019-02-17T08:28:53.000Z</time>
      </trkpt>
      <trkpt lat="46.79725" lon="0.44426">
        <ele>55</ele>
        <time>2019-02-17T08:28:54.000Z</time>
      </trkpt>
      <trkpt lat="46.79729" lon="0.44424">
        <ele>54</ele>
        <time>2019-02-17T08:28:55.000Z</time>
      </trkpt>
      <trkpt lat="46.79733" lon="0.44422">
        <ele>54</ele>
        <time>2019-02-17T08:28:56.000Z</time>
      </trkpt>
      <trkpt lat="46.79737" lon="0.44421">
        <ele>54</ele>
        <time>2019-02-17T08:28:57.000Z</time>
      </trkpt>
      <trkpt lat="46.79741" lon="0.44418">
        <ele>54</ele>
        <time>2019-02-17T08:28:58.000Z</time>
      </trkpt>
      <trkpt lat="46.79744" lon="0.44415">
        <ele>53</ele>
        <time>2019-02-17T08:28:59.000Z</time>
      </trkpt>
      <trkpt lat="46.79748" lon="0.44412">
        <ele>51</ele>
        <time>2019-02-17T08:29:00.000Z</time>
      </trkpt>
      <trkpt lat="46.79751" lon="0.44408">
        <ele>50</ele>
        <time>2019-02-17T08:29:01.000Z</time>
      </trkpt>
      <trkpt lat="46.79754" lon="0.44404">
        <ele>49</ele>
        <time>2019-02-17T08:29:02.000Z</time>
      </trkpt>
      <trkpt lat="46.79756" lon="0.44399">
        <ele>48</ele>
        <time>2019-02-17T08:29:03.000Z</time>
      </trkpt>
      <trkpt lat="46.79758" lon="0.44394">
        <ele>47</ele>
        <time>2019-02-17T08:29:04.000Z</time>
      </trkpt>
      <trkpt lat="46.7976" lon="0.44389">
        <ele>46</ele>
        <time>2019-02-17T08:29:05.000Z</time>
      </trkpt>
      <trkpt lat="46.79762" lon="0.44382">
        <ele>45</ele>
        <time>2019-02-17T08:29:06.000Z</time>
      </trkpt>
      <trkpt lat="46.79763" lon="0.44376">
        <ele>44</ele>
        <time>2019-02-17T08:29:07.000Z</time>
      </trkpt>
      <trkpt lat="46.79765" lon="0.4437">
        <ele>44</ele>
        <time>2019-02-17T08:29:08.000Z</time>
      </trkpt>
      <trkpt lat="46.79766" lon="0.44364">
        <ele>43</ele>
        <time>2019-02-17T08:29:09.000Z</time>
      </trkpt>
      <trkpt lat="46.79768" lon="0.44359">
        <ele>43</ele>
        <time>2019-02-17T08:29:10.000Z</time>
      </trkpt>
      <trkpt lat="46.79769" lon="0.44353">
        <ele>42</ele>
        <time>2019-02-17T08:29:11.000Z</time>
      </trkpt>
      <trkpt lat="46.79771" lon="0.44347">
        <ele>41</ele>
        <time>2019-02-17T08:29:12.000Z</time>
      </trkpt>
      <trkpt lat="46.79772" lon="0.44341">
        <ele>41</ele>
        <time>2019-02-17T08:29:13.000Z</time>
      </trkpt>
      <trkpt lat="46.79773" lon="0.44334">
        <ele>41</ele>
        <time>2019-02-17T08:29:14.000Z</time>
      </trkpt>
      <trkpt lat="46.79773" lon="0.44327">
        <ele>41</ele>
        <time>2019-02-17T08:29:15.000Z</time>
      </trkpt>
      <trkpt lat="46.79773" lon="0.4432">
        <ele>42</ele>
        <time>2019-02-17T08:29:16.000Z</time>
      </trkpt>
      <trkpt lat="46.79773" lon="0.44313">
        <ele>43</ele>
        <time>2019-02-17T08:29:17.000Z</time>
      </trkpt>
      <trkpt lat="46.79774" lon="0.44306">
        <ele>43</ele>
        <time>2019-02-17T08:29:18.000Z</time>
      </trkpt>
      <trkpt lat="46.79776" lon="0.44299">
        <ele>42</ele>
        <time>2019-02-17T08:29:19.000Z</time>
      </trkpt>
      <trkpt lat="46.79778" lon="0.44293">
        <ele>45</ele>
        <time>2019-02-17T08:29:20.000Z</time>
      </trkpt>
      <trkpt lat="46.79781" lon="0.44288">
        <ele>46</ele>
        <time>2019-02-17T08:29:21.000Z</time>
      </trkpt>
      <trkpt lat="46.79785" lon="0.44282">
        <ele>48</ele>
        <time>2019-02-17T08:29:22.000Z</time>
      </trkpt>
      <trkpt lat="46.79789" lon="0.44278">
        <ele>48</ele>
        <time>2019-02-17T08:29:23.000Z</time>
      </trkpt>
      <trkpt lat="46.79793" lon="0.44273">
        <ele>49</ele>
        <time>2019-02-17T08:29:24.000Z</time>
      </trkpt>
      <trkpt lat="46.79797" lon="0.4427">
        <ele>49</ele>
        <time>2019-02-17T08:29:25.000Z</time>
      </trkpt>
      <trkpt lat="46.79801" lon="0.44267">
        <ele>48</ele>
        <time>2019-02-17T08:29:26.000Z</time>
      </trkpt>
      <trkpt lat="46.79805" lon="0.44264">
        <ele>48</ele>
        <time>2019-02-17T08:29:27.000Z</time>
      </trkpt>
      <trkpt lat="46.79809" lon="0.44261">
        <ele>51</ele>
        <time>2019-02-17T08:29:28.000Z</time>
      </trkpt>
      <trkpt lat="46.79813" lon="0.44258">
        <ele>52</ele>
        <time>2019-02-17T08:29:29.000Z</time>
      </trkpt>
      <trkpt lat="46.79816" lon="0.44255">
        <ele>53</ele>
        <time>2019-02-17T08:29:30.000Z</time>
      </trkpt>
      <trkpt lat="46.7982" lon="0.44252">
        <ele>53</ele>
        <time>2019-02-17T08:29:31.000Z</time>
      </trkpt>
      <trkpt lat="46.79824" lon="0.44249">
        <ele>54</ele>
        <time>2019-02-17T08:29:32.000Z</time>
      </trkpt>
      <trkpt lat="46.79828" lon="0.44247">
        <ele>54</ele>
        <time>2019-02-17T08:29:33.000Z</time>
      </trkpt>
      <trkpt lat="46.79832" lon="0.44245">
        <ele>56</ele>
        <time>2019-02-17T08:29:34.000Z</time>
      </trkpt>
      <trkpt lat="46.79836" lon="0.44243">
        <ele>56</ele>
        <time>2019-02-17T08:29:35.000Z</time>
      </trkpt>
      <trkpt lat="46.7984" lon="0.4424">
        <ele>56</ele>
        <time>2019-02-17T08:29:36.000Z</time>
      </trkpt>
      <trkpt lat="46.79844" lon="0.44238">
        <ele>56</ele>
        <time>2019-02-17T08:29:37.000Z</time>
      </trkpt>
      <trkpt lat="46.79847" lon="0.44236">
        <ele>56</ele>
        <time>2019-02-17T08:29:38.000Z</time>
      </trkpt>
      <trkpt lat="46.79851" lon="0.44234">
        <ele>57</ele>
        <time>2019-02-17T08:29:39.000Z</time>
      </trkpt>
      <trkpt lat="46.79855" lon="0.44231">
        <ele>58</ele>
        <time>2019-02-17T08:29:40.000Z</time>
      </trkpt>
      <trkpt lat="46.79859" lon="0.44228">
        <ele>57</ele>
        <time>2019-02-17T08:29:41.000Z</time>
      </trkpt>
      <trkpt lat="46.79863" lon="0.44225">
        <ele>58</ele>
        <time>2019-02-17T08:29:42.000Z</time>
      </trkpt>
      <trkpt lat="46.79867" lon="0.44222">
        <ele>57</ele>
        <time>2019-02-17T08:29:43.000Z</time>
      </trkpt>
      <trkpt lat="46.79871" lon="0.44219">
        <ele>57</ele>
        <time>2019-02-17T08:29:44.000Z</time>
      </trkpt>
      <trkpt lat="46.79875" lon="0.44216">
        <ele>58</ele>
        <time>2019-02-17T08:29:45.000Z</time>
      </trkpt>
      <trkpt lat="46.79878" lon="0.44212">
        <ele>58</ele>
        <time>2019-02-17T08:29:46.000Z</time>
      </trkpt>
      <trkpt lat="46.79882" lon="0.44207">
        <ele>59</ele>
        <time>2019-02-17T08:29:47.000Z</time>
      </trkpt>
      <trkpt lat="46.79887" lon="0.44203">
        <ele>60</ele>
        <time>2019-02-17T08:29:48.000Z</time>
      </trkpt>
      <trkpt lat="46.7989" lon="0.44199">
        <ele>59</ele>
        <time>2019-02-17T08:29:49.000Z</time>
      </trkpt>
      <trkpt lat="46.79894" lon="0.44194">
        <ele>59</ele>
        <time>2019-02-17T08:29:50.000Z</time>
      </trkpt>
      <trkpt lat="46.79898" lon="0.4419">
        <ele>58</ele>
        <time>2019-02-17T08:29:51.000Z</time>
      </trkpt>
      <trkpt lat="46.79901" lon="0.44186">
        <ele>58</ele>
        <time>2019-02-17T08:29:52.000Z</time>
      </trkpt>
      <trkpt lat="46.79904" lon="0.44182">
        <ele>56</ele>
        <time>2019-02-17T08:29:53.000Z</time>
      </trkpt>
      <trkpt lat="46.79907" lon="0.44178">
        <ele>57</ele>
        <time>2019-02-17T08:29:54.000Z</time>
      </trkpt>
      <trkpt lat="46.7991" lon="0.44175">
        <ele>58</ele>
        <time>2019-02-17T08:29:55.000Z</time>
      </trkpt>
      <trkpt lat="46.79912" lon="0.44172">
        <ele>58</ele>
        <time>2019-02-17T08:29:56.000Z</time>
      </trkpt>
      <trkpt lat="46.79913" lon="0.44171">
        <ele>58</ele>
        <time>2019-02-17T08:29:57.000Z</time>
      </trkpt>
      <trkpt lat="46.79913" lon="0.44171">
        <ele>59</ele>
        <time>2019-02-17T08:29:58.000Z</time>
      </trkpt>
      <trkpt lat="46.79913" lon="0.4417">
        <ele>61</ele>
        <time>2019-02-17T08:29:59.000Z</time>
      </trkpt>
      <trkpt lat="46.79914" lon="0.44169">
        <ele>63</ele>
        <time>2019-02-17T08:30:00.000Z</time>
      </trkpt>
      <trkpt lat="46.79915" lon="0.44169">
        <ele>64</ele>
        <time>2019-02-17T08:30:01.000Z</time>
      </trkpt>
      <trkpt lat="46.79915" lon="0.44168">
        <ele>63</ele>
        <time>2019-02-17T08:30:02.000Z</time>
      </trkpt>
      <trkpt lat="46.79915" lon="0.44168">
        <ele>63</ele>
        <time>2019-02-17T08:30:03.000Z</time>
      </trkpt>
      <trkpt lat="46.79915" lon="0.44168">
        <ele>64</ele>
        <time>2019-02-17T08:30:04.000Z</time>
      </trkpt>
      <trkpt lat="46.79915" lon="0.44167">
        <ele>65</ele>
        <time>2019-02-17T08:30:05.000Z</time>
      </trkpt>
      <trkpt lat="46.79915" lon="0.44167">
        <ele>66</ele>
        <time>2019-02-17T08:30:06.000Z</time>
      </trkpt>
      <trkpt lat="46.79915" lon="0.44167">
        <ele>67</ele>
        <time>2019-02-17T08:30:07.000Z</time>
      </trkpt>
      <trkpt lat="46.79916" lon="0.44166">
        <ele>67</ele>
        <time>2019-02-17T08:30:08.000Z</time>
      </trkpt>
      <trkpt lat="46.79916" lon="0.44166">
        <ele>66</ele>
        <time>2019-02-17T08:30:09.000Z</time>
      </trkpt>
      <trkpt lat="46.79916" lon="0.44166">
        <ele>66</ele>
        <time>2019-02-17T08:30:10.000Z</time>
      </trkpt>
      <trkpt lat="46.79917" lon="0.44166">
        <ele>67</ele>
        <time>2019-02-17T08:30:11.000Z</time>
      </trkpt>
      <trkpt lat="46.79916" lon="0.44166">
        <ele>67</ele>
        <time>2019-02-17T08:30:12.000Z</time>
      </trkpt>
      <trkpt lat="46.79916" lon="0.44166">
        <ele>68</ele>
        <time>2019-02-17T08:30:13.000Z</time>
      </trkpt>
      <trkpt lat="46.79916" lon="0.44165">
        <ele>68</ele>
        <time>2019-02-17T08:30:14.000Z</time>
      </trkpt>
      <trkpt lat="46.79916" lon="0.44165">
        <ele>68</ele>
        <time>2019-02-17T08:30:15.000Z</time>
      </trkpt>
      <trkpt lat="46.79916" lon="0.44165">
        <ele>68</ele>
        <time>2019-02-17T08:30:16.000Z</time>
      </trkpt>
      <trkpt lat="46.79916" lon="0.44165">
        <ele>68</ele>
        <time>2019-02-17T08:30:17.000Z</time>
      </trkpt>
      <trkpt lat="46.79916" lon="0.44164">
        <ele>69</ele>
        <time>2019-02-17T08:30:18.000Z</time>
      </trkpt>
      <trkpt lat="46.79916" lon="0.44164">
        <ele>69</ele>
        <time>2019-02-17T08:30:19.000Z</time>
      </trkpt>
      <trkpt lat="46.79916" lon="0.44164">
        <ele>69</ele>
        <time>2019-02-17T08:30:20.000Z</time>
      </trkpt>
      <trkpt lat="46.79916" lon="0.44164">
        <ele>69</ele>
        <time>2019-02-17T08:30:21.000Z</time>
      </trkpt>
      <trkpt lat="46.79916" lon="0.44164">
        <ele>69</ele>
        <time>2019-02-17T08:30:22.000Z</time>
      </trkpt>
      <trkpt lat="46.79916" lon="0.44163">
        <ele>69</ele>
        <time>2019-02-17T08:30:23.000Z</time>
      </trkpt>
      <trkpt lat="46.79915" lon="0.44163">
        <ele>70</ele>
        <time>2019-02-17T08:30:24.000Z</time>
      </trkpt>
      <trkpt lat="46.79915" lon="0.44163">
        <ele>70</ele>
        <time>2019-02-17T08:30:25.000Z</time>
      </trkpt>
      <trkpt lat="46.79915" lon="0.44163">
        <ele>70</ele>
        <time>2019-02-17T08:30:26.000Z</time>
      </trkpt>
      <trkpt lat="46.79915" lon="0.44163">
        <ele>70</ele>
        <time>2019-02-17T08:30:27.000Z</time>
      </trkpt>
      <trkpt lat="46.79915" lon="0.44163">
        <ele>71</ele>
        <time>2019-02-17T08:30:28.000Z</time>
      </trkpt>
      <trkpt lat="46.79915" lon="0.44163">
        <ele>71</ele>
        <time>2019-02-17T08:30:29.000Z</time>
      </trkpt>
      <trkpt lat="46.79916" lon="0.44163">
        <ele>72</ele>
        <time>2019-02-17T08:30:30.000Z</time>
      </trkpt>
      <trkpt lat="46.79917" lon="0.44162">
        <ele>72</ele>
        <time>2019-02-17T08:30:31.000Z</time>
      </trkpt>
      <trkpt lat="46.79918" lon="0.44161">
        <ele>72</ele>
        <time>2019-02-17T08:30:32.000Z</time>
      </trkpt>
      <trkpt lat="46.79919" lon="0.4416">
        <ele>71</ele>
        <time>2019-02-17T08:30:33.000Z</time>
      </trkpt>
      <trkpt lat="46.7992" lon="0.44158">
        <ele>71</ele>
        <time>2019-02-17T08:30:34.000Z</time>
      </trkpt>
      <trkpt lat="46.79922" lon="0.44157">
        <ele>70</ele>
        <time>2019-02-17T08:30:35.000Z</time>
      </trkpt>
      <trkpt lat="46.79924" lon="0.44155">
        <ele>70</ele>
        <time>2019-02-17T08:30:36.000Z</time>
      </trkpt>
      <trkpt lat="46.79926" lon="0.44153">
        <ele>69</ele>
        <time>2019-02-17T08:30:37.000Z</time>
      </trkpt>
      <trkpt lat="46.79929" lon="0.44151">
        <ele>68</ele>
        <time>2019-02-17T08:30:38.000Z</time>
      </trkpt>
      <trkpt lat="46.79932" lon="0.44148">
        <ele>67</ele>
        <time>2019-02-17T08:30:39.000Z</time>
      </trkpt>
      <trkpt lat="46.79936" lon="0.44145">
        <ele>66</ele>
        <time>2019-02-17T08:30:40.000Z</time>
      </trkpt>
      <trkpt lat="46.7994" lon="0.44141">
        <ele>66</ele>
        <time>2019-02-17T08:30:41.000Z</time>
      </trkpt>
      <trkpt lat="46.79944" lon="0.44137">
        <ele>66</ele>
        <time>2019-02-17T08:30:42.000Z</time>
      </trkpt>
      <trkpt lat="46.79948" lon="0.44132">
        <ele>65</ele>
        <time>2019-02-17T08:30:43.000Z</time>
      </trkpt>
      <trkpt lat="46.79953" lon="0.44127">
        <ele>63</ele>
        <time>2019-02-17T08:30:44.000Z</time>
      </trkpt>
      <trkpt lat="46.79958" lon="0.44123">
        <ele>63</ele>
        <time>2019-02-17T08:30:45.000Z</time>
      </trkpt>
      <trkpt lat="46.79963" lon="0.44118">
        <ele>62</ele>
        <time>2019-02-17T08:30:46.000Z</time>
      </trkpt>
      <trkpt lat="46.79968" lon="0.44113">
        <ele>61</ele>
        <time>2019-02-17T08:30:47.000Z</time>
      </trkpt>
      <trkpt lat="46.79973" lon="0.44108">
        <ele>61</ele>
        <time>2019-02-17T08:30:48.000Z</time>
      </trkpt>
      <trkpt lat="46.79978" lon="0.44102">
        <ele>62</ele>
        <time>2019-02-17T08:30:49.000Z</time>
      </trkpt>
      <trkpt lat="46.79983" lon="0.44097">
        <ele>63</ele>
        <time>2019-02-17T08:30:50.000Z</time>
      </trkpt>
      <trkpt lat="46.79989" lon="0.44091">
        <ele>62</ele>
        <time>2019-02-17T08:30:51.000Z</time>
      </trkpt>
      <trkpt lat="46.79995" lon="0.44085">
        <ele>63</ele>
        <time>2019-02-17T08:30:52.000Z</time>
      </trkpt>
      <trkpt lat="46.80002" lon="0.44079">
        <ele>62</ele>
        <time>2019-02-17T08:30:53.000Z</time>
      </trkpt>
      <trkpt lat="46.80007" lon="0.44073">
        <ele>62</ele>
        <time>2019-02-17T08:30:54.000Z</time>
      </trkpt>
      <trkpt lat="46.80013" lon="0.44067">
        <ele>62</ele>
        <time>2019-02-17T08:30:55.000Z</time>
      </trkpt>
      <trkpt lat="46.80019" lon="0.44061">
        <ele>63</ele>
        <time>2019-02-17T08:30:56.000Z</time>
      </trkpt>
      <trkpt lat="46.80024" lon="0.44055">
        <ele>62</ele>
        <time>2019-02-17T08:30:57.000Z</time>
      </trkpt>
      <trkpt lat="46.80029" lon="0.44049">
        <ele>62</ele>
        <time>2019-02-17T08:30:58.000Z</time>
      </trkpt>
      <trkpt lat="46.80034" lon="0.44043">
        <ele>62</ele>
        <time>2019-02-17T08:30:59.000Z</time>
      </trkpt>
      <trkpt lat="46.80039" lon="0.44038">
        <ele>62</ele>
        <time>2019-02-17T08:31:00.000Z</time>
      </trkpt>
      <trkpt lat="46.80044" lon="0.44032">
        <ele>62</ele>
        <time>2019-02-17T08:31:01.000Z</time>
      </trkpt>
      <trkpt lat="46.80049" lon="0.44027">
        <ele>64</ele>
        <time>2019-02-17T08:31:02.000Z</time>
      </trkpt>
      <trkpt lat="46.80054" lon="0.44022">
        <ele>64</ele>
        <time>2019-02-17T08:31:03.000Z</time>
      </trkpt>
      <trkpt lat="46.8006" lon="0.44016">
        <ele>65</ele>
        <time>2019-02-17T08:31:04.000Z</time>
      </trkpt>
      <trkpt lat="46.80065" lon="0.44012">
        <ele>66</ele>
        <time>2019-02-17T08:31:05.000Z</time>
      </trkpt>
      <trkpt lat="46.8007" lon="0.44009">
        <ele>66</ele>
        <time>2019-02-17T08:31:06.000Z</time>
      </trkpt>
      <trkpt lat="46.80075" lon="0.44009">
        <ele>68</ele>
        <time>2019-02-17T08:31:07.000Z</time>
      </trkpt>
      <trkpt lat="46.8008" lon="0.4401">
        <ele>68</ele>
        <time>2019-02-17T08:31:08.000Z</time>
      </trkpt>
      <trkpt lat="46.80083" lon="0.44012">
        <ele>67</ele>
        <time>2019-02-17T08:31:09.000Z</time>
      </trkpt>
      <trkpt lat="46.80086" lon="0.44015">
        <ele>67</ele>
        <time>2019-02-17T08:31:10.000Z</time>
      </trkpt>
      <trkpt lat="46.80089" lon="0.44018">
        <ele>68</ele>
        <time>2019-02-17T08:31:11.000Z</time>
      </trkpt>
      <trkpt lat="46.80092" lon="0.44021">
        <ele>68</ele>
        <time>2019-02-17T08:31:12.000Z</time>
      </trkpt>
      <trkpt lat="46.80094" lon="0.44024">
        <ele>67</ele>
        <time>2019-02-17T08:31:13.000Z</time>
      </trkpt>
      <trkpt lat="46.80097" lon="0.44027">
        <ele>67</ele>
        <time>2019-02-17T08:31:14.000Z</time>
      </trkpt>
      <trkpt lat="46.80099" lon="0.4403">
        <ele>67</ele>
        <time>2019-02-17T08:31:15.000Z</time>
      </trkpt>
      <trkpt lat="46.80101" lon="0.44034">
        <ele>67</ele>
        <time>2019-02-17T08:31:16.000Z</time>
      </trkpt>
      <trkpt lat="46.80104" lon="0.44037">
        <ele>67</ele>
        <time>2019-02-17T08:31:17.000Z</time>
      </trkpt>
      <trkpt lat="46.80106" lon="0.44041">
        <ele>67</ele>
        <time>2019-02-17T08:31:18.000Z</time>
      </trkpt>
      <trkpt lat="46.80108" lon="0.44046">
        <ele>67</ele>
        <time>2019-02-17T08:31:19.000Z</time>
      </trkpt>
      <trkpt lat="46.8011" lon="0.4405">
        <ele>67</ele>
        <time>2019-02-17T08:31:20.000Z</time>
      </trkpt>
      <trkpt lat="46.80112" lon="0.44054">
        <ele>67</ele>
        <time>2019-02-17T08:31:21.000Z</time>
      </trkpt>
      <trkpt lat="46.80115" lon="0.44058">
        <ele>67</ele>
        <time>2019-02-17T08:31:22.000Z</time>
      </trkpt>
      <trkpt lat="46.80117" lon="0.44061">
        <ele>67</ele>
        <time>2019-02-17T08:31:23.000Z</time>
      </trkpt>
      <trkpt lat="46.8012" lon="0.44065">
        <ele>67</ele>
        <time>2019-02-17T08:31:24.000Z</time>
      </trkpt>
      <trkpt lat="46.80123" lon="0.44069">
        <ele>67</ele>
        <time>2019-02-17T08:31:25.000Z</time>
      </trkpt>
      <trkpt lat="46.80125" lon="0.44073">
        <ele>67</ele>
        <time>2019-02-17T08:31:26.000Z</time>
      </trkpt>
      <trkpt lat="46.80128" lon="0.44077">
        <ele>67</ele>
        <time>2019-02-17T08:31:27.000Z</time>
      </trkpt>
      <trkpt lat="46.80131" lon="0.44081">
        <ele>68</ele>
        <time>2019-02-17T08:31:28.000Z</time>
      </trkpt>
      <trkpt lat="46.80133" lon="0.44086">
        <ele>68</ele>
        <time>2019-02-17T08:31:29.000Z</time>
      </trkpt>
      <trkpt lat="46.80136" lon="0.4409">
        <ele>68</ele>
        <time>2019-02-17T08:31:30.000Z</time>
      </trkpt>
      <trkpt lat="46.80138" lon="0.44094">
        <ele>68</ele>
        <time>2019-02-17T08:31:31.000Z</time>
      </trkpt>
      <trkpt lat="46.8014" lon="0.44098">
        <ele>68</ele>
        <time>2019-02-17T08:31:32.000Z</time>
      </trkpt>
      <trkpt lat="46.80142" lon="0.44103">
        <ele>69</ele>
        <time>2019-02-17T08:31:33.000Z</time>
      </trkpt>
      <trkpt lat="46.80145" lon="0.44107">
        <ele>69</ele>
        <time>2019-02-17T08:31:34.000Z</time>
      </trkpt>
      <trkpt lat="46.80147" lon="0.44111">
        <ele>69</ele>
        <time>2019-02-17T08:31:35.000Z</time>
      </trkpt>
      <trkpt lat="46.80149" lon="0.44115">
        <ele>70</ele>
        <time>2019-02-17T08:31:36.000Z</time>
      </trkpt>
      <trkpt lat="46.80151" lon="0.44119">
        <ele>70</ele>
        <time>2019-02-17T08:31:37.000Z</time>
      </trkpt>
      <trkpt lat="46.80153" lon="0.44123">
        <ele>70</ele>
        <time>2019-02-17T08:31:38.000Z</time>
      </trkpt>
      <trkpt lat="46.80155" lon="0.44127">
        <ele>70</ele>
        <time>2019-02-17T08:31:39.000Z</time>
      </trkpt>
      <trkpt lat="46.80157" lon="0.44131">
        <ele>70</ele>
        <time>2019-02-17T08:31:40.000Z</time>
      </trkpt>
      <trkpt lat="46.80159" lon="0.44135">
        <ele>70</ele>
        <time>2019-02-17T08:31:41.000Z</time>
      </trkpt>
      <trkpt lat="46.80161" lon="0.44139">
        <ele>71</ele>
        <time>2019-02-17T08:31:42.000Z</time>
      </trkpt>
      <trkpt lat="46.80163" lon="0.44143">
        <ele>71</ele>
        <time>2019-02-17T08:31:43.000Z</time>
      </trkpt>
      <trkpt lat="46.80165" lon="0.44147">
        <ele>71</ele>
        <time>2019-02-17T08:31:44.000Z</time>
      </trkpt>
      <trkpt lat="46.80167" lon="0.44151">
        <ele>71</ele>
        <time>2019-02-17T08:31:45.000Z</time>
      </trkpt>
      <trkpt lat="46.80169" lon="0.44156">
        <ele>71</ele>
        <time>2019-02-17T08:31:46.000Z</time>
      </trkpt>
      <trkpt lat="46.80171" lon="0.4416">
        <ele>71</ele>
        <time>2019-02-17T08:31:47.000Z</time>
      </trkpt>
      <trkpt lat="46.80173" lon="0.44164">
        <ele>71</ele>
        <time>2019-02-17T08:31:48.000Z</time>
      </trkpt>
      <trkpt lat="46.80175" lon="0.44168">
        <ele>71</ele>
        <time>2019-02-17T08:31:49.000Z</time>
      </trkpt>
      <trkpt lat="46.80177" lon="0.44173">
        <ele>71</ele>
        <time>2019-02-17T08:31:50.000Z</time>
      </trkpt>
      <trkpt lat="46.80179" lon="0.44177">
        <ele>71</ele>
        <time>2019-02-17T08:31:51.000Z</time>
      </trkpt>
      <trkpt lat="46.80181" lon="0.44181">
        <ele>72</ele>
        <time>2019-02-17T08:31:52.000Z</time>
      </trkpt>
      <trkpt lat="46.80183" lon="0.44185">
        <ele>72</ele>
        <time>2019-02-17T08:31:53.000Z</time>
      </trkpt>
      <trkpt lat="46.80185" lon="0.44189">
        <ele>72</ele>
        <time>2019-02-17T08:31:54.000Z</time>
      </trkpt>
      <trkpt lat="46.80187" lon="0.44193">
        <ele>72</ele>
        <time>2019-02-17T08:31:55.000Z</time>
      </trkpt>
      <trkpt lat="46.8019" lon="0.44197">
        <ele>72</ele>
        <time>2019-02-17T08:31:56.000Z</time>
      </trkpt>
      <trkpt lat="46.80192" lon="0.44201">
        <ele>73</ele>
        <time>2019-02-17T08:31:57.000Z</time>
      </trkpt>
      <trkpt lat="46.80194" lon="0.44205">
        <ele>73</ele>
        <time>2019-02-17T08:31:58.000Z</time>
      </trkpt>
      <trkpt lat="46.80196" lon="0.44209">
        <ele>73</ele>
        <time>2019-02-17T08:31:59.000Z</time>
      </trkpt>
      <trkpt lat="46.80198" lon="0.44214">
        <ele>73</ele>
        <time>2019-02-17T08:32:00.000Z</time>
      </trkpt>
      <trkpt lat="46.802" lon="0.44218">
        <ele>73</ele>
        <time>2019-02-17T08:32:01.000Z</time>
      </trkpt>
      <trkpt lat="46.80202" lon="0.44222">
        <ele>73</ele>
        <time>2019-02-17T08:32:02.000Z</time>
      </trkpt>
      <trkpt lat="46.80204" lon="0.44226">
        <ele>73</ele>
        <time>2019-02-17T08:32:03.000Z</time>
      </trkpt>
      <trkpt lat="46.80206" lon="0.4423">
        <ele>73</ele>
        <time>2019-02-17T08:32:04.000Z</time>
      </trkpt>
      <trkpt lat="46.80208" lon="0.44234">
        <ele>74</ele>
        <time>2019-02-17T08:32:05.000Z</time>
      </trkpt>
      <trkpt lat="46.80209" lon="0.44238">
        <ele>74</ele>
        <time>2019-02-17T08:32:06.000Z</time>
      </trkpt>
      <trkpt lat="46.80211" lon="0.44242">
        <ele>75</ele>
        <time>2019-02-17T08:32:07.000Z</time>
      </trkpt>
      <trkpt lat="46.80213" lon="0.44246">
        <ele>76</ele>
        <time>2019-02-17T08:32:08.000Z</time>
      </trkpt>
      <trkpt lat="46.80214" lon="0.4425">
        <ele>76</ele>
        <time>2019-02-17T08:32:09.000Z</time>
      </trkpt>
      <trkpt lat="46.80216" lon="0.44255">
        <ele>75</ele>
        <time>2019-02-17T08:32:10.000Z</time>
      </trkpt>
      <trkpt lat="46.80217" lon="0.44259">
        <ele>76</ele>
        <time>2019-02-17T08:32:11.000Z</time>
      </trkpt>
      <trkpt lat="46.80219" lon="0.44264">
        <ele>76</ele>
        <time>2019-02-17T08:32:12.000Z</time>
      </trkpt>
      <trkpt lat="46.80221" lon="0.44268">
        <ele>76</ele>
        <time>2019-02-17T08:32:13.000Z</time>
      </trkpt>
      <trkpt lat="46.80223" lon="0.44272">
        <ele>76</ele>
        <time>2019-02-17T08:32:14.000Z</time>
      </trkpt>
      <trkpt lat="46.80225" lon="0.44276">
        <ele>76</ele>
        <time>2019-02-17T08:32:15.000Z</time>
      </trkpt>
      <trkpt lat="46.80226" lon="0.44281">
        <ele>76</ele>
        <time>2019-02-17T08:32:16.000Z</time>
      </trkpt>
      <trkpt lat="46.80228" lon="0.44285">
        <ele>76</ele>
        <time>2019-02-17T08:32:17.000Z</time>
      </trkpt>
      <trkpt lat="46.8023" lon="0.44289">
        <ele>76</ele>
        <time>2019-02-17T08:32:18.000Z</time>
      </trkpt>
      <trkpt lat="46.80231" lon="0.44293">
        <ele>76</ele>
        <time>2019-02-17T08:32:19.000Z</time>
      </trkpt>
      <trkpt lat="46.80233" lon="0.44296">
        <ele>76</ele>
        <time>2019-02-17T08:32:20.000Z</time>
      </trkpt>
      <trkpt lat="46.80235" lon="0.443">
        <ele>77</ele>
        <time>2019-02-17T08:32:21.000Z</time>
      </trkpt>
      <trkpt lat="46.80236" lon="0.44303">
        <ele>77</ele>
        <time>2019-02-17T08:32:22.000Z</time>
      </trkpt>
      <trkpt lat="46.80237" lon="0.44307">
        <ele>77</ele>
        <time>2019-02-17T08:32:23.000Z</time>
      </trkpt>
      <trkpt lat="46.80239" lon="0.4431">
        <ele>77</ele>
        <time>2019-02-17T08:32:24.000Z</time>
      </trkpt>
      <trkpt lat="46.8024" lon="0.44314">
        <ele>77</ele>
        <time>2019-02-17T08:32:25.000Z</time>
      </trkpt>
      <trkpt lat="46.80241" lon="0.44317">
        <ele>77</ele>
        <time>2019-02-17T08:32:26.000Z</time>
      </trkpt>
      <trkpt lat="46.80242" lon="0.4432">
        <ele>77</ele>
        <time>2019-02-17T08:32:27.000Z</time>
      </trkpt>
      <trkpt lat="46.80244" lon="0.44323">
        <ele>77</ele>
        <time>2019-02-17T08:32:28.000Z</time>
      </trkpt>
      <trkpt lat="46.80244" lon="0.44327">
        <ele>76</ele>
        <time>2019-02-17T08:32:29.000Z</time>
      </trkpt>
      <trkpt lat="46.80245" lon="0.4433">
        <ele>76</ele>
        <time>2019-02-17T08:32:30.000Z</time>
      </trkpt>
      <trkpt lat="46.80246" lon="0.44334">
        <ele>76</ele>
        <time>2019-02-17T08:32:31.000Z</time>
      </trkpt>
      <trkpt lat="46.80246" lon="0.44337">
        <ele>76</ele>
        <time>2019-02-17T08:32:32.000Z</time>
      </trkpt>
      <trkpt lat="46.80247" lon="0.4434">
        <ele>77</ele>
        <time>2019-02-17T08:32:33.000Z</time>
      </trkpt>
      <trkpt lat="46.80248" lon="0.44343">
        <ele>77</ele>
        <time>2019-02-17T08:32:34.000Z</time>
      </trkpt>
      <trkpt lat="46.8025" lon="0.44346">
        <ele>77</ele>
        <time>2019-02-17T08:32:35.000Z</time>
      </trkpt>
      <trkpt lat="46.8025" lon="0.44349">
        <ele>78</ele>
        <time>2019-02-17T08:32:36.000Z</time>
      </trkpt>
      <trkpt lat="46.80251" lon="0.44352">
        <ele>78</ele>
        <time>2019-02-17T08:32:37.000Z</time>
      </trkpt>
      <trkpt lat="46.80252" lon="0.44356">
        <ele>78</ele>
        <time>2019-02-17T08:32:38.000Z</time>
      </trkpt>
      <trkpt lat="46.80253" lon="0.44359">
        <ele>78</ele>
        <time>2019-02-17T08:32:39.000Z</time>
      </trkpt>
      <trkpt lat="46.80255" lon="0.44362">
        <ele>78</ele>
        <time>2019-02-17T08:32:40.000Z</time>
      </trkpt>
      <trkpt lat="46.80257" lon="0.44365">
        <ele>79</ele>
        <time>2019-02-17T08:32:41.000Z</time>
      </trkpt>
      <trkpt lat="46.80259" lon="0.44368">
        <ele>80</ele>
        <time>2019-02-17T08:32:42.000Z</time>
      </trkpt>
      <trkpt lat="46.80261" lon="0.44371">
        <ele>80</ele>
        <time>2019-02-17T08:32:43.000Z</time>
      </trkpt>
      <trkpt lat="46.80263" lon="0.44375">
        <ele>81</ele>
        <time>2019-02-17T08:32:44.000Z</time>
      </trkpt>
      <trkpt lat="46.80264" lon="0.44379">
        <ele>80</ele>
        <time>2019-02-17T08:32:45.000Z</time>
      </trkpt>
      <trkpt lat="46.80265" lon="0.44383">
        <ele>79</ele>
        <time>2019-02-17T08:32:46.000Z</time>
      </trkpt>
      <trkpt lat="46.80264" lon="0.44387">
        <ele>81</ele>
        <time>2019-02-17T08:32:47.000Z</time>
      </trkpt>
      <trkpt lat="46.80263" lon="0.4439">
        <ele>81</ele>
        <time>2019-02-17T08:32:48.000Z</time>
      </trkpt>
      <trkpt lat="46.80261" lon="0.44392">
        <ele>81</ele>
        <time>2019-02-17T08:32:49.000Z</time>
      </trkpt>
      <trkpt lat="46.8026" lon="0.44393">
        <ele>82</ele>
        <time>2019-02-17T08:32:50.000Z</time>
      </trkpt>
      <trkpt lat="46.80258" lon="0.44395">
        <ele>82</ele>
        <time>2019-02-17T08:32:51.000Z</time>
      </trkpt>
      <trkpt lat="46.80257" lon="0.44397">
        <ele>82</ele>
        <time>2019-02-17T08:32:52.000Z</time>
      </trkpt>
      <trkpt lat="46.80256" lon="0.44399">
        <ele>82</ele>
        <time>2019-02-17T08:32:53.000Z</time>
      </trkpt>
      <trkpt lat="46.80255" lon="0.44402">
        <ele>79</ele>
        <time>2019-02-17T08:32:54.000Z</time>
      </trkpt>
      <trkpt lat="46.80255" lon="0.44407">
        <ele>79</ele>
        <time>2019-02-17T08:32:55.000Z</time>
      </trkpt>
      <trkpt lat="46.80254" lon="0.44412">
        <ele>79</ele>
        <time>2019-02-17T08:32:56.000Z</time>
      </trkpt>
      <trkpt lat="46.80252" lon="0.44416">
        <ele>79</ele>
        <time>2019-02-17T08:32:57.000Z</time>
      </trkpt>
      <trkpt lat="46.80251" lon="0.44419">
        <ele>79</ele>
        <time>2019-02-17T08:32:58.000Z</time>
      </trkpt>
      <trkpt lat="46.8025" lon="0.44421">
        <ele>79</ele>
        <time>2019-02-17T08:32:59.000Z</time>
      </trkpt>
      <trkpt lat="46.80248" lon="0.44422">
        <ele>79</ele>
        <time>2019-02-17T08:33:00.000Z</time>
      </trkpt>
      <trkpt lat="46.80246" lon="0.44423">
        <ele>79</ele>
        <time>2019-02-17T08:33:01.000Z</time>
      </trkpt>
      <trkpt lat="46.80244" lon="0.44425">
        <ele>79</ele>
        <time>2019-02-17T08:33:02.000Z</time>
      </trkpt>
      <trkpt lat="46.80242" lon="0.44426">
        <ele>79</ele>
        <time>2019-02-17T08:33:03.000Z</time>
      </trkpt>
      <trkpt lat="46.8024" lon="0.44428">
        <ele>79</ele>
        <time>2019-02-17T08:33:04.000Z</time>
      </trkpt>
      <trkpt lat="46.80238" lon="0.44431">
        <ele>80</ele>
        <time>2019-02-17T08:33:05.000Z</time>
      </trkpt>
      <trkpt lat="46.80236" lon="0.44434">
        <ele>80</ele>
        <time>2019-02-17T08:33:06.000Z</time>
      </trkpt>
      <trkpt lat="46.80235" lon="0.44437">
        <ele>81</ele>
        <time>2019-02-17T08:33:07.000Z</time>
      </trkpt>
      <trkpt lat="46.80233" lon="0.44441">
        <ele>81</ele>
        <time>2019-02-17T08:33:08.000Z</time>
      </trkpt>
      <trkpt lat="46.80232" lon="0.44444">
        <ele>80</ele>
        <time>2019-02-17T08:33:09.000Z</time>
      </trkpt>
      <trkpt lat="46.80231" lon="0.44448">
        <ele>79</ele>
        <time>2019-02-17T08:33:10.000Z</time>
      </trkpt>
      <trkpt lat="46.8023" lon="0.44452">
        <ele>78</ele>
        <time>2019-02-17T08:33:11.000Z</time>
      </trkpt>
      <trkpt lat="46.8023" lon="0.44456">
        <ele>78</ele>
        <time>2019-02-17T08:33:12.000Z</time>
      </trkpt>
      <trkpt lat="46.80229" lon="0.44461">
        <ele>78</ele>
        <time>2019-02-17T08:33:13.000Z</time>
      </trkpt>
      <trkpt lat="46.80227" lon="0.44466">
        <ele>77</ele>
        <time>2019-02-17T08:33:14.000Z</time>
      </trkpt>
      <trkpt lat="46.80226" lon="0.4447">
        <ele>77</ele>
        <time>2019-02-17T08:33:15.000Z</time>
      </trkpt>
      <trkpt lat="46.80226" lon="0.44474">
        <ele>78</ele>
        <time>2019-02-17T08:33:16.000Z</time>
      </trkpt>
      <trkpt lat="46.80226" lon="0.44478">
        <ele>79</ele>
        <time>2019-02-17T08:33:17.000Z</time>
      </trkpt>
      <trkpt lat="46.80227" lon="0.44482">
        <ele>79</ele>
        <time>2019-02-17T08:33:18.000Z</time>
      </trkpt>
      <trkpt lat="46.80227" lon="0.44485">
        <ele>79</ele>
        <time>2019-02-17T08:33:19.000Z</time>
      </trkpt>
      <trkpt lat="46.80228" lon="0.44489">
        <ele>80</ele>
        <time>2019-02-17T08:33:20.000Z</time>
      </trkpt>
      <trkpt lat="46.8023" lon="0.44492">
        <ele>80</ele>
        <time>2019-02-17T08:33:21.000Z</time>
      </trkpt>
      <trkpt lat="46.80231" lon="0.44495">
        <ele>78</ele>
        <time>2019-02-17T08:33:22.000Z</time>
      </trkpt>
      <trkpt lat="46.80233" lon="0.44499">
        <ele>78</ele>
        <time>2019-02-17T08:33:23.000Z</time>
      </trkpt>
      <trkpt lat="46.80234" lon="0.44503">
        <ele>78</ele>
        <time>2019-02-17T08:33:24.000Z</time>
      </trkpt>
      <trkpt lat="46.80234" lon="0.44507">
        <ele>77</ele>
        <time>2019-02-17T08:33:25.000Z</time>
      </trkpt>
      <trkpt lat="46.80235" lon="0.44512">
        <ele>75</ele>
        <time>2019-02-17T08:33:26.000Z</time>
      </trkpt>
      <trkpt lat="46.80236" lon="0.44516">
        <ele>76</ele>
        <time>2019-02-17T08:33:27.000Z</time>
      </trkpt>
      <trkpt lat="46.80238" lon="0.4452">
        <ele>75</ele>
        <time>2019-02-17T08:33:28.000Z</time>
      </trkpt>
      <trkpt lat="46.8024" lon="0.44523">
        <ele>75</ele>
        <time>2019-02-17T08:33:29.000Z</time>
      </trkpt>
      <trkpt lat="46.80244" lon="0.44526">
        <ele>75</ele>
        <time>2019-02-17T08:33:30.000Z</time>
      </trkpt>
      <trkpt lat="46.80248" lon="0.44529">
        <ele>74</ele>
        <time>2019-02-17T08:33:31.000Z</time>
      </trkpt>
      <trkpt lat="46.80252" lon="0.44533">
        <ele>74</ele>
        <time>2019-02-17T08:33:32.000Z</time>
      </trkpt>
      <trkpt lat="46.80255" lon="0.44536">
        <ele>73</ele>
        <time>2019-02-17T08:33:33.000Z</time>
      </trkpt>
      <trkpt lat="46.80258" lon="0.4454">
        <ele>73</ele>
        <time>2019-02-17T08:33:34.000Z</time>
      </trkpt>
      <trkpt lat="46.80262" lon="0.44543">
        <ele>73</ele>
        <time>2019-02-17T08:33:35.000Z</time>
      </trkpt>
      <trkpt lat="46.80266" lon="0.44546">
        <ele>71</ele>
        <time>2019-02-17T08:33:36.000Z</time>
      </trkpt>
      <trkpt lat="46.8027" lon="0.44549">
        <ele>71</ele>
        <time>2019-02-17T08:33:37.000Z</time>
      </trkpt>
      <trkpt lat="46.80274" lon="0.44552">
        <ele>71</ele>
        <time>2019-02-17T08:33:38.000Z</time>
      </trkpt>
      <trkpt lat="46.80277" lon="0.44556">
        <ele>70</ele>
        <time>2019-02-17T08:33:39.000Z</time>
      </trkpt>
      <trkpt lat="46.80278" lon="0.4456">
        <ele>70</ele>
        <time>2019-02-17T08:33:40.000Z</time>
      </trkpt>
      <trkpt lat="46.80278" lon="0.44565">
        <ele>69</ele>
        <time>2019-02-17T08:33:41.000Z</time>
      </trkpt>
      <trkpt lat="46.80277" lon="0.44569">
        <ele>69</ele>
        <time>2019-02-17T08:33:42.000Z</time>
      </trkpt>
      <trkpt lat="46.80275" lon="0.44572">
        <ele>70</ele>
        <time>2019-02-17T08:33:43.000Z</time>
      </trkpt>
      <trkpt lat="46.80274" lon="0.44573">
        <ele>69</ele>
        <time>2019-02-17T08:33:44.000Z</time>
      </trkpt>
      <trkpt lat="46.80273" lon="0.44575">
        <ele>70</ele>
        <time>2019-02-17T08:33:45.000Z</time>
      </trkpt>
      <trkpt lat="46.80272" lon="0.44577">
        <ele>71</ele>
        <time>2019-02-17T08:33:46.000Z</time>
      </trkpt>
      <trkpt lat="46.8027" lon="0.44579">
        <ele>71</ele>
        <time>2019-02-17T08:33:47.000Z</time>
      </trkpt>
      <trkpt lat="46.80269" lon="0.44581">
        <ele>71</ele>
        <time>2019-02-17T08:33:48.000Z</time>
      </trkpt>
      <trkpt lat="46.80267" lon="0.44585">
        <ele>71</ele>
        <time>2019-02-17T08:33:49.000Z</time>
      </trkpt>
      <trkpt lat="46.80266" lon="0.44589">
        <ele>71</ele>
        <time>2019-02-17T08:33:50.000Z</time>
      </trkpt>
      <trkpt lat="46.80264" lon="0.44591">
        <ele>72</ele>
        <time>2019-02-17T08:33:51.000Z</time>
      </trkpt>
      <trkpt lat="46.80263" lon="0.44593">
        <ele>71</ele>
        <time>2019-02-17T08:33:52.000Z</time>
      </trkpt>
      <trkpt lat="46.80262" lon="0.44594">
        <ele>73</ele>
        <time>2019-02-17T08:33:53.000Z</time>
      </trkpt>
      <trkpt lat="46.80261" lon="0.44594">
        <ele>75</ele>
        <time>2019-02-17T08:33:54.000Z</time>
      </trkpt>
      <trkpt lat="46.8026" lon="0.44596">
        <ele>74</ele>
        <time>2019-02-17T08:33:55.000Z</time>
      </trkpt>
      <trkpt lat="46.80258" lon="0.44598">
        <ele>73</ele>
        <time>2019-02-17T08:33:56.000Z</time>
      </trkpt>
      <trkpt lat="46.80256" lon="0.44602">
        <ele>74</ele>
        <time>2019-02-17T08:33:57.000Z</time>
      </trkpt>
      <trkpt lat="46.80255" lon="0.44605">
        <ele>76</ele>
        <time>2019-02-17T08:33:58.000Z</time>
      </trkpt>
      <trkpt lat="46.80255" lon="0.44609">
        <ele>74</ele>
        <time>2019-02-17T08:33:59.000Z</time>
      </trkpt>
      <trkpt lat="46.80255" lon="0.44612">
        <ele>73</ele>
        <time>2019-02-17T08:34:00.000Z</time>
      </trkpt>
      <trkpt lat="46.80255" lon="0.44616">
        <ele>73</ele>
        <time>2019-02-17T08:34:01.000Z</time>
      </trkpt>
      <trkpt lat="46.80255" lon="0.4462">
        <ele>72</ele>
        <time>2019-02-17T08:34:02.000Z</time>
      </trkpt>
      <trkpt lat="46.80256" lon="0.44624">
        <ele>72</ele>
        <time>2019-02-17T08:34:03.000Z</time>
      </trkpt>
      <trkpt lat="46.80257" lon="0.44628">
        <ele>71</ele>
        <time>2019-02-17T08:34:04.000Z</time>
      </trkpt>
      <trkpt lat="46.80258" lon="0.44632">
        <ele>70</ele>
        <time>2019-02-17T08:34:05.000Z</time>
      </trkpt>
      <trkpt lat="46.8026" lon="0.44636">
        <ele>69</ele>
        <time>2019-02-17T08:34:06.000Z</time>
      </trkpt>
      <trkpt lat="46.80262" lon="0.44641">
        <ele>69</ele>
        <time>2019-02-17T08:34:07.000Z</time>
      </trkpt>
      <trkpt lat="46.80264" lon="0.44646">
        <ele>68</ele>
        <time>2019-02-17T08:34:08.000Z</time>
      </trkpt>
      <trkpt lat="46.80267" lon="0.44651">
        <ele>68</ele>
        <time>2019-02-17T08:34:09.000Z</time>
      </trkpt>
      <trkpt lat="46.80269" lon="0.44655">
        <ele>69</ele>
        <time>2019-02-17T08:34:10.000Z</time>
      </trkpt>
      <trkpt lat="46.80272" lon="0.44659">
        <ele>69</ele>
        <time>2019-02-17T08:34:11.000Z</time>
      </trkpt>
      <trkpt lat="46.80274" lon="0.44663">
        <ele>67</ele>
        <time>2019-02-17T08:34:12.000Z</time>
      </trkpt>
      <trkpt lat="46.80276" lon="0.44668">
        <ele>66</ele>
        <time>2019-02-17T08:34:13.000Z</time>
      </trkpt>
      <trkpt lat="46.80278" lon="0.44673">
        <ele>66</ele>
        <time>2019-02-17T08:34:14.000Z</time>
      </trkpt>
      <trkpt lat="46.80281" lon="0.44678">
        <ele>66</ele>
        <time>2019-02-17T08:34:15.000Z</time>
      </trkpt>
      <trkpt lat="46.80284" lon="0.44684">
        <ele>66</ele>
        <time>2019-02-17T08:34:16.000Z</time>
      </trkpt>
      <trkpt lat="46.80286" lon="0.44689">
        <ele>66</ele>
        <time>2019-02-17T08:34:17.000Z</time>
      </trkpt>
      <trkpt lat="46.80288" lon="0.44693">
        <ele>67</ele>
        <time>2019-02-17T08:34:18.000Z</time>
      </trkpt>
      <trkpt lat="46.8029" lon="0.44697">
        <ele>67</ele>
        <time>2019-02-17T08:34:19.000Z</time>
      </trkpt>
      <trkpt lat="46.80292" lon="0.44702">
        <ele>68</ele>
        <time>2019-02-17T08:34:20.000Z</time>
      </trkpt>
      <trkpt lat="46.80293" lon="0.44708">
        <ele>67</ele>
        <time>2019-02-17T08:34:21.000Z</time>
      </trkpt>
      <trkpt lat="46.80294" lon="0.44714">
        <ele>64</ele>
        <time>2019-02-17T08:34:22.000Z</time>
      </trkpt>
      <trkpt lat="46.80294" lon="0.44721">
        <ele>63</ele>
        <time>2019-02-17T08:34:23.000Z</time>
      </trkpt>
      <trkpt lat="46.80295" lon="0.44727">
        <ele>62</ele>
        <time>2019-02-17T08:34:24.000Z</time>
      </trkpt>
      <trkpt lat="46.80296" lon="0.44734">
        <ele>61</ele>
        <time>2019-02-17T08:34:25.000Z</time>
      </trkpt>
      <trkpt lat="46.80298" lon="0.44741">
        <ele>62</ele>
        <time>2019-02-17T08:34:26.000Z</time>
      </trkpt>
      <trkpt lat="46.80299" lon="0.44747">
        <ele>62</ele>
        <time>2019-02-17T08:34:27.000Z</time>
      </trkpt>
      <trkpt lat="46.80301" lon="0.44753">
        <ele>62</ele>
        <time>2019-02-17T08:34:28.000Z</time>
      </trkpt>
      <trkpt lat="46.80302" lon="0.44759">
        <ele>65</ele>
        <time>2019-02-17T08:34:29.000Z</time>
      </trkpt>
      <trkpt lat="46.80304" lon="0.44765">
        <ele>66</ele>
        <time>2019-02-17T08:34:30.000Z</time>
      </trkpt>
      <trkpt lat="46.80305" lon="0.44771">
        <ele>66</ele>
        <time>2019-02-17T08:34:31.000Z</time>
      </trkpt>
      <trkpt lat="46.80307" lon="0.44777">
        <ele>65</ele>
        <time>2019-02-17T08:34:32.000Z</time>
      </trkpt>
      <trkpt lat="46.80307" lon="0.44782">
        <ele>65</ele>
        <time>2019-02-17T08:34:33.000Z</time>
      </trkpt>
      <trkpt lat="46.80308" lon="0.44787">
        <ele>64</ele>
        <time>2019-02-17T08:34:34.000Z</time>
      </trkpt>
      <trkpt lat="46.8031" lon="0.44791">
        <ele>63</ele>
        <time>2019-02-17T08:34:35.000Z</time>
      </trkpt>
      <trkpt lat="46.80313" lon="0.44794">
        <ele>62</ele>
        <time>2019-02-17T08:34:36.000Z</time>
      </trkpt>
      <trkpt lat="46.80316" lon="0.44797">
        <ele>62</ele>
        <time>2019-02-17T08:34:37.000Z</time>
      </trkpt>
      <trkpt lat="46.80321" lon="0.44798">
        <ele>64</ele>
        <time>2019-02-17T08:34:38.000Z</time>
      </trkpt>
      <trkpt lat="46.80325" lon="0.44798">
        <ele>63</ele>
        <time>2019-02-17T08:34:39.000Z</time>
      </trkpt>
      <trkpt lat="46.80329" lon="0.44798">
        <ele>64</ele>
        <time>2019-02-17T08:34:40.000Z</time>
      </trkpt>
      <trkpt lat="46.80333" lon="0.44799">
        <ele>62</ele>
        <time>2019-02-17T08:34:41.000Z</time>
      </trkpt>
      <trkpt lat="46.80337" lon="0.44798">
        <ele>61</ele>
        <time>2019-02-17T08:34:42.000Z</time>
      </trkpt>
      <trkpt lat="46.80341" lon="0.44798">
        <ele>62</ele>
        <time>2019-02-17T08:34:43.000Z</time>
      </trkpt>
      <trkpt lat="46.80346" lon="0.44798">
        <ele>62</ele>
        <time>2019-02-17T08:34:44.000Z</time>
      </trkpt>
      <trkpt lat="46.80349" lon="0.44798">
        <ele>64</ele>
        <time>2019-02-17T08:34:45.000Z</time>
      </trkpt>
      <trkpt lat="46.80353" lon="0.44798">
        <ele>64</ele>
        <time>2019-02-17T08:34:46.000Z</time>
      </trkpt>
      <trkpt lat="46.80355" lon="0.44799">
        <ele>63</ele>
        <time>2019-02-17T08:34:47.000Z</time>
      </trkpt>
      <trkpt lat="46.80359" lon="0.448">
        <ele>61</ele>
        <time>2019-02-17T08:34:48.000Z</time>
      </trkpt>
      <trkpt lat="46.80362" lon="0.44801">
        <ele>61</ele>
        <time>2019-02-17T08:34:49.000Z</time>
      </trkpt>
      <trkpt lat="46.80365" lon="0.44801">
        <ele>61</ele>
        <time>2019-02-17T08:34:50.000Z</time>
      </trkpt>
      <trkpt lat="46.80369" lon="0.44801">
        <ele>60</ele>
        <time>2019-02-17T08:34:51.000Z</time>
      </trkpt>
      <trkpt lat="46.80373" lon="0.44801">
        <ele>61</ele>
        <time>2019-02-17T08:34:52.000Z</time>
      </trkpt>
      <trkpt lat="46.80378" lon="0.44801">
        <ele>62</ele>
        <time>2019-02-17T08:34:53.000Z</time>
      </trkpt>
      <trkpt lat="46.80382" lon="0.44801">
        <ele>62</ele>
        <time>2019-02-17T08:34:54.000Z</time>
      </trkpt>
      <trkpt lat="46.80386" lon="0.44801">
        <ele>62</ele>
        <time>2019-02-17T08:34:55.000Z</time>
      </trkpt>
      <trkpt lat="46.8039" lon="0.44802">
        <ele>62</ele>
        <time>2019-02-17T08:34:56.000Z</time>
      </trkpt>
      <trkpt lat="46.80394" lon="0.44803">
        <ele>63</ele>
        <time>2019-02-17T08:34:57.000Z</time>
      </trkpt>
      <trkpt lat="46.80399" lon="0.44804">
        <ele>64</ele>
        <time>2019-02-17T08:34:58.000Z</time>
      </trkpt>
      <trkpt lat="46.80403" lon="0.44806">
        <ele>64</ele>
        <time>2019-02-17T08:34:59.000Z</time>
      </trkpt>
      <trkpt lat="46.80408" lon="0.44807">
        <ele>63</ele>
        <time>2019-02-17T08:35:00.000Z</time>
      </trkpt>
      <trkpt lat="46.80412" lon="0.44808">
        <ele>62</ele>
        <time>2019-02-17T08:35:01.000Z</time>
      </trkpt>
      <trkpt lat="46.80417" lon="0.44809">
        <ele>62</ele>
        <time>2019-02-17T08:35:02.000Z</time>
      </trkpt>
      <trkpt lat="46.80421" lon="0.4481">
        <ele>61</ele>
        <time>2019-02-17T08:35:03.000Z</time>
      </trkpt>
      <trkpt lat="46.80426" lon="0.44811">
        <ele>60</ele>
        <time>2019-02-17T08:35:04.000Z</time>
      </trkpt>
      <trkpt lat="46.8043" lon="0.44812">
        <ele>60</ele>
        <time>2019-02-17T08:35:05.000Z</time>
      </trkpt>
      <trkpt lat="46.80434" lon="0.44813">
        <ele>59</ele>
        <time>2019-02-17T08:35:06.000Z</time>
      </trkpt>
      <trkpt lat="46.80439" lon="0.44814">
        <ele>59</ele>
        <time>2019-02-17T08:35:07.000Z</time>
      </trkpt>
      <trkpt lat="46.80443" lon="0.44815">
        <ele>58</ele>
        <time>2019-02-17T08:35:08.000Z</time>
      </trkpt>
      <trkpt lat="46.80447" lon="0.44817">
        <ele>57</ele>
        <time>2019-02-17T08:35:09.000Z</time>
      </trkpt>
      <trkpt lat="46.80452" lon="0.44818">
        <ele>56</ele>
        <time>2019-02-17T08:35:10.000Z</time>
      </trkpt>
      <trkpt lat="46.80456" lon="0.4482">
        <ele>56</ele>
        <time>2019-02-17T08:35:11.000Z</time>
      </trkpt>
      <trkpt lat="46.80461" lon="0.44821">
        <ele>55</ele>
        <time>2019-02-17T08:35:12.000Z</time>
      </trkpt>
      <trkpt lat="46.80465" lon="0.44823">
        <ele>55</ele>
        <time>2019-02-17T08:35:13.000Z</time>
      </trkpt>
      <trkpt lat="46.80469" lon="0.44824">
        <ele>55</ele>
        <time>2019-02-17T08:35:14.000Z</time>
      </trkpt>
      <trkpt lat="46.80474" lon="0.44826">
        <ele>55</ele>
        <time>2019-02-17T08:35:15.000Z</time>
      </trkpt>
      <trkpt lat="46.80479" lon="0.44827">
        <ele>55</ele>
        <time>2019-02-17T08:35:16.000Z</time>
      </trkpt>
      <trkpt lat="46.80483" lon="0.44828">
        <ele>55</ele>
        <time>2019-02-17T08:35:17.000Z</time>
      </trkpt>
      <trkpt lat="46.80488" lon="0.44829">
        <ele>55</ele>
        <time>2019-02-17T08:35:18.000Z</time>
      </trkpt>
      <trkpt lat="46.80492" lon="0.4483">
        <ele>54</ele>
        <time>2019-02-17T08:35:19.000Z</time>
      </trkpt>
      <trkpt lat="46.80496" lon="0.44831">
        <ele>54</ele>
        <time>2019-02-17T08:35:20.000Z</time>
      </trkpt>
      <trkpt lat="46.80501" lon="0.44831">
        <ele>53</ele>
        <time>2019-02-17T08:35:21.000Z</time>
      </trkpt>
      <trkpt lat="46.80505" lon="0.44831">
        <ele>53</ele>
        <time>2019-02-17T08:35:22.000Z</time>
      </trkpt>
      <trkpt lat="46.80509" lon="0.44832">
        <ele>51</ele>
        <time>2019-02-17T08:35:23.000Z</time>
      </trkpt>
      <trkpt lat="46.80514" lon="0.44833">
        <ele>50</ele>
        <time>2019-02-17T08:35:24.000Z</time>
      </trkpt>
      <trkpt lat="46.80518" lon="0.44834">
        <ele>51</ele>
        <time>2019-02-17T08:35:25.000Z</time>
      </trkpt>
      <trkpt lat="46.80522" lon="0.44835">
        <ele>51</ele>
        <time>2019-02-17T08:35:26.000Z</time>
      </trkpt>
      <trkpt lat="46.80527" lon="0.44836">
        <ele>50</ele>
        <time>2019-02-17T08:35:27.000Z</time>
      </trkpt>
      <trkpt lat="46.80531" lon="0.44837">
        <ele>51</ele>
        <time>2019-02-17T08:35:28.000Z</time>
      </trkpt>
      <trkpt lat="46.80535" lon="0.44839">
        <ele>51</ele>
        <time>2019-02-17T08:35:29.000Z</time>
      </trkpt>
      <trkpt lat="46.80539" lon="0.4484">
        <ele>51</ele>
        <time>2019-02-17T08:35:30.000Z</time>
      </trkpt>
      <trkpt lat="46.80544" lon="0.44841">
        <ele>51</ele>
        <time>2019-02-17T08:35:31.000Z</time>
      </trkpt>
      <trkpt lat="46.80548" lon="0.44841">
        <ele>51</ele>
        <time>2019-02-17T08:35:32.000Z</time>
      </trkpt>
      <trkpt lat="46.80552" lon="0.44842">
        <ele>49</ele>
        <time>2019-02-17T08:35:33.000Z</time>
      </trkpt>
      <trkpt lat="46.80557" lon="0.44843">
        <ele>48</ele>
        <time>2019-02-17T08:35:34.000Z</time>
      </trkpt>
      <trkpt lat="46.80562" lon="0.44844">
        <ele>49</ele>
        <time>2019-02-17T08:35:35.000Z</time>
      </trkpt>
      <trkpt lat="46.80567" lon="0.44845">
        <ele>49</ele>
        <time>2019-02-17T08:35:36.000Z</time>
      </trkpt>
      <trkpt lat="46.80571" lon="0.44847">
        <ele>50</ele>
        <time>2019-02-17T08:35:37.000Z</time>
      </trkpt>
      <trkpt lat="46.80576" lon="0.44848">
        <ele>51</ele>
        <time>2019-02-17T08:35:38.000Z</time>
      </trkpt>
      <trkpt lat="46.8058" lon="0.4485">
        <ele>52</ele>
        <time>2019-02-17T08:35:39.000Z</time>
      </trkpt>
      <trkpt lat="46.80585" lon="0.44852">
        <ele>53</ele>
        <time>2019-02-17T08:35:40.000Z</time>
      </trkpt>
      <trkpt lat="46.8059" lon="0.44854">
        <ele>54</ele>
        <time>2019-02-17T08:35:41.000Z</time>
      </trkpt>
      <trkpt lat="46.80596" lon="0.44856">
        <ele>55</ele>
        <time>2019-02-17T08:35:42.000Z</time>
      </trkpt>
      <trkpt lat="46.80601" lon="0.44857">
        <ele>56</ele>
        <time>2019-02-17T08:35:43.000Z</time>
      </trkpt>
      <trkpt lat="46.80606" lon="0.44858">
        <ele>56</ele>
        <time>2019-02-17T08:35:44.000Z</time>
      </trkpt>
      <trkpt lat="46.80611" lon="0.44859">
        <ele>57</ele>
        <time>2019-02-17T08:35:45.000Z</time>
      </trkpt>
      <trkpt lat="46.80616" lon="0.4486">
        <ele>57</ele>
        <time>2019-02-17T08:35:46.000Z</time>
      </trkpt>
      <trkpt lat="46.80621" lon="0.44861">
        <ele>57</ele>
        <time>2019-02-17T08:35:47.000Z</time>
      </trkpt>
      <trkpt lat="46.80626" lon="0.44862">
        <ele>58</ele>
        <time>2019-02-17T08:35:48.000Z</time>
      </trkpt>
      <trkpt lat="46.80631" lon="0.44864">
        <ele>58</ele>
        <time>2019-02-17T08:35:49.000Z</time>
      </trkpt>
      <trkpt lat="46.80637" lon="0.44865">
        <ele>58</ele>
        <time>2019-02-17T08:35:50.000Z</time>
      </trkpt>
      <trkpt lat="46.80642" lon="0.44866">
        <ele>58</ele>
        <time>2019-02-17T08:35:51.000Z</time>
      </trkpt>
      <trkpt lat="46.80648" lon="0.44867">
        <ele>58</ele>
        <time>2019-02-17T08:35:52.000Z</time>
      </trkpt>
      <trkpt lat="46.80653" lon="0.44868">
        <ele>58</ele>
        <time>2019-02-17T08:35:53.000Z</time>
      </trkpt>
      <trkpt lat="46.80658" lon="0.44869">
        <ele>58</ele>
        <time>2019-02-17T08:35:54.000Z</time>
      </trkpt>
      <trkpt lat="46.80663" lon="0.44871">
        <ele>58</ele>
        <time>2019-02-17T08:35:55.000Z</time>
      </trkpt>
      <trkpt lat="46.80668" lon="0.44872">
        <ele>59</ele>
        <time>2019-02-17T08:35:56.000Z</time>
      </trkpt>
      <trkpt lat="46.80672" lon="0.44873">
        <ele>59</ele>
        <time>2019-02-17T08:35:57.000Z</time>
      </trkpt>
      <trkpt lat="46.80677" lon="0.44874">
        <ele>59</ele>
        <time>2019-02-17T08:35:58.000Z</time>
      </trkpt>
      <trkpt lat="46.80682" lon="0.44875">
        <ele>59</ele>
        <time>2019-02-17T08:35:59.000Z</time>
      </trkpt>
      <trkpt lat="46.80686" lon="0.44876">
        <ele>59</ele>
        <time>2019-02-17T08:36:00.000Z</time>
      </trkpt>
      <trkpt lat="46.80691" lon="0.44877">
        <ele>60</ele>
        <time>2019-02-17T08:36:01.000Z</time>
      </trkpt>
      <trkpt lat="46.80696" lon="0.44878">
        <ele>60</ele>
        <time>2019-02-17T08:36:02.000Z</time>
      </trkpt>
      <trkpt lat="46.807" lon="0.44879">
        <ele>59</ele>
        <time>2019-02-17T08:36:03.000Z</time>
      </trkpt>
      <trkpt lat="46.80705" lon="0.44881">
        <ele>59</ele>
        <time>2019-02-17T08:36:04.000Z</time>
      </trkpt>
      <trkpt lat="46.80709" lon="0.44883">
        <ele>60</ele>
        <time>2019-02-17T08:36:05.000Z</time>
      </trkpt>
      <trkpt lat="46.80715" lon="0.44885">
        <ele>61</ele>
        <time>2019-02-17T08:36:06.000Z</time>
      </trkpt>
      <trkpt lat="46.8072" lon="0.44886">
        <ele>61</ele>
        <time>2019-02-17T08:36:07.000Z</time>
      </trkpt>
      <trkpt lat="46.80726" lon="0.44888">
        <ele>62</ele>
        <time>2019-02-17T08:36:08.000Z</time>
      </trkpt>
      <trkpt lat="46.80731" lon="0.44889">
        <ele>63</ele>
        <time>2019-02-17T08:36:09.000Z</time>
      </trkpt>
      <trkpt lat="46.80736" lon="0.44891">
        <ele>63</ele>
        <time>2019-02-17T08:36:10.000Z</time>
      </trkpt>
      <trkpt lat="46.80742" lon="0.44892">
        <ele>63</ele>
        <time>2019-02-17T08:36:11.000Z</time>
      </trkpt>
      <trkpt lat="46.80747" lon="0.44893">
        <ele>63</ele>
        <time>2019-02-17T08:36:12.000Z</time>
      </trkpt>
      <trkpt lat="46.80751" lon="0.44895">
        <ele>63</ele>
        <time>2019-02-17T08:36:13.000Z</time>
      </trkpt>
      <trkpt lat="46.80756" lon="0.44896">
        <ele>64</ele>
        <time>2019-02-17T08:36:14.000Z</time>
      </trkpt>
      <trkpt lat="46.80761" lon="0.44897">
        <ele>64</ele>
        <time>2019-02-17T08:36:15.000Z</time>
      </trkpt>
      <trkpt lat="46.80766" lon="0.44898">
        <ele>64</ele>
        <time>2019-02-17T08:36:16.000Z</time>
      </trkpt>
      <trkpt lat="46.8077" lon="0.44898">
        <ele>64</ele>
        <time>2019-02-17T08:36:17.000Z</time>
      </trkpt>
      <trkpt lat="46.80775" lon="0.44899">
        <ele>65</ele>
        <time>2019-02-17T08:36:18.000Z</time>
      </trkpt>
      <trkpt lat="46.8078" lon="0.44901">
        <ele>65</ele>
        <time>2019-02-17T08:36:19.000Z</time>
      </trkpt>
      <trkpt lat="46.80785" lon="0.44902">
        <ele>64</ele>
        <time>2019-02-17T08:36:20.000Z</time>
      </trkpt>
      <trkpt lat="46.8079" lon="0.44903">
        <ele>64</ele>
        <time>2019-02-17T08:36:21.000Z</time>
      </trkpt>
      <trkpt lat="46.80796" lon="0.44903">
        <ele>64</ele>
        <time>2019-02-17T08:36:22.000Z</time>
      </trkpt>
      <trkpt lat="46.80801" lon="0.44905">
        <ele>64</ele>
        <time>2019-02-17T08:36:23.000Z</time>
      </trkpt>
      <trkpt lat="46.80805" lon="0.44907">
        <ele>63</ele>
        <time>2019-02-17T08:36:24.000Z</time>
      </trkpt>
      <trkpt lat="46.80808" lon="0.4491">
        <ele>62</ele>
        <time>2019-02-17T08:36:25.000Z</time>
      </trkpt>
      <trkpt lat="46.80809" lon="0.44915">
        <ele>62</ele>
        <time>2019-02-17T08:36:26.000Z</time>
      </trkpt>
      <trkpt lat="46.80809" lon="0.44921">
        <ele>61</ele>
        <time>2019-02-17T08:36:27.000Z</time>
      </trkpt>
      <trkpt lat="46.80808" lon="0.44926">
        <ele>62</ele>
        <time>2019-02-17T08:36:28.000Z</time>
      </trkpt>
      <trkpt lat="46.80808" lon="0.44932">
        <ele>62</ele>
        <time>2019-02-17T08:36:29.000Z</time>
      </trkpt>
      <trkpt lat="46.80808" lon="0.44938">
        <ele>63</ele>
        <time>2019-02-17T08:36:30.000Z</time>
      </trkpt>
      <trkpt lat="46.80806" lon="0.44943">
        <ele>63</ele>
        <time>2019-02-17T08:36:31.000Z</time>
      </trkpt>
      <trkpt lat="46.80804" lon="0.44949">
        <ele>63</ele>
        <time>2019-02-17T08:36:32.000Z</time>
      </trkpt>
      <trkpt lat="46.80802" lon="0.44955">
        <ele>63</ele>
        <time>2019-02-17T08:36:33.000Z</time>
      </trkpt>
      <trkpt lat="46.808" lon="0.4496">
        <ele>63</ele>
        <time>2019-02-17T08:36:34.000Z</time>
      </trkpt>
      <trkpt lat="46.80798" lon="0.44965">
        <ele>62</ele>
        <time>2019-02-17T08:36:35.000Z</time>
      </trkpt>
      <trkpt lat="46.80796" lon="0.4497">
        <ele>62</ele>
        <time>2019-02-17T08:36:36.000Z</time>
      </trkpt>
      <trkpt lat="46.80794" lon="0.44975">
        <ele>62</ele>
        <time>2019-02-17T08:36:37.000Z</time>
      </trkpt>
      <trkpt lat="46.80792" lon="0.4498">
        <ele>62</ele>
        <time>2019-02-17T08:36:38.000Z</time>
      </trkpt>
      <trkpt lat="46.8079" lon="0.44984">
        <ele>62</ele>
        <time>2019-02-17T08:36:39.000Z</time>
      </trkpt>
      <trkpt lat="46.80788" lon="0.44989">
        <ele>62</ele>
        <time>2019-02-17T08:36:40.000Z</time>
      </trkpt>
      <trkpt lat="46.80785" lon="0.44994">
        <ele>62</ele>
        <time>2019-02-17T08:36:41.000Z</time>
      </trkpt>
      <trkpt lat="46.80782" lon="0.44999">
        <ele>61</ele>
        <time>2019-02-17T08:36:42.000Z</time>
      </trkpt>
      <trkpt lat="46.80779" lon="0.45004">
        <ele>61</ele>
        <time>2019-02-17T08:36:43.000Z</time>
      </trkpt>
      <trkpt lat="46.80776" lon="0.45009">
        <ele>60</ele>
        <time>2019-02-17T08:36:44.000Z</time>
      </trkpt>
      <trkpt lat="46.80773" lon="0.45012">
        <ele>59</ele>
        <time>2019-02-17T08:36:45.000Z</time>
      </trkpt>
      <trkpt lat="46.80769" lon="0.45016">
        <ele>59</ele>
        <time>2019-02-17T08:36:46.000Z</time>
      </trkpt>
      <trkpt lat="46.80766" lon="0.45019">
        <ele>58</ele>
        <time>2019-02-17T08:36:47.000Z</time>
      </trkpt>
      <trkpt lat="46.80763" lon="0.45022">
        <ele>57</ele>
        <time>2019-02-17T08:36:48.000Z</time>
      </trkpt>
      <trkpt lat="46.8076" lon="0.45025">
        <ele>57</ele>
        <time>2019-02-17T08:36:49.000Z</time>
      </trkpt>
      <trkpt lat="46.80757" lon="0.45028">
        <ele>56</ele>
        <time>2019-02-17T08:36:50.000Z</time>
      </trkpt>
      <trkpt lat="46.80754" lon="0.45031">
        <ele>55</ele>
        <time>2019-02-17T08:36:51.000Z</time>
      </trkpt>
      <trkpt lat="46.8075" lon="0.45034">
        <ele>55</ele>
        <time>2019-02-17T08:36:52.000Z</time>
      </trkpt>
      <trkpt lat="46.80747" lon="0.45037">
        <ele>55</ele>
        <time>2019-02-17T08:36:53.000Z</time>
      </trkpt>
      <trkpt lat="46.80744" lon="0.4504">
        <ele>54</ele>
        <time>2019-02-17T08:36:54.000Z</time>
      </trkpt>
      <trkpt lat="46.8074" lon="0.45043">
        <ele>54</ele>
        <time>2019-02-17T08:36:55.000Z</time>
      </trkpt>
      <trkpt lat="46.80735" lon="0.45045">
        <ele>54</ele>
        <time>2019-02-17T08:36:56.000Z</time>
      </trkpt>
      <trkpt lat="46.80731" lon="0.45048">
        <ele>54</ele>
        <time>2019-02-17T08:36:57.000Z</time>
      </trkpt>
      <trkpt lat="46.80727" lon="0.4505">
        <ele>54</ele>
        <time>2019-02-17T08:36:58.000Z</time>
      </trkpt>
      <trkpt lat="46.80723" lon="0.45052">
        <ele>54</ele>
        <time>2019-02-17T08:36:59.000Z</time>
      </trkpt>
      <trkpt lat="46.80719" lon="0.45055">
        <ele>53</ele>
        <time>2019-02-17T08:37:00.000Z</time>
      </trkpt>
      <trkpt lat="46.80716" lon="0.45057">
        <ele>52</ele>
        <time>2019-02-17T08:37:01.000Z</time>
      </trkpt>
      <trkpt lat="46.80712" lon="0.45058">
        <ele>52</ele>
        <time>2019-02-17T08:37:02.000Z</time>
      </trkpt>
      <trkpt lat="46.80709" lon="0.4506">
        <ele>52</ele>
        <time>2019-02-17T08:37:03.000Z</time>
      </trkpt>
      <trkpt lat="46.80706" lon="0.45062">
        <ele>52</ele>
        <time>2019-02-17T08:37:04.000Z</time>
      </trkpt>
      <trkpt lat="46.80702" lon="0.45065">
        <ele>51</ele>
        <time>2019-02-17T08:37:05.000Z</time>
      </trkpt>
      <trkpt lat="46.80698" lon="0.45068">
        <ele>51</ele>
        <time>2019-02-17T08:37:06.000Z</time>
      </trkpt>
      <trkpt lat="46.80694" lon="0.4507">
        <ele>51</ele>
        <time>2019-02-17T08:37:07.000Z</time>
      </trkpt>
      <trkpt lat="46.8069" lon="0.45074">
        <ele>51</ele>
        <time>2019-02-17T08:37:08.000Z</time>
      </trkpt>
      <trkpt lat="46.80687" lon="0.45077">
        <ele>50</ele>
        <time>2019-02-17T08:37:09.000Z</time>
      </trkpt>
      <trkpt lat="46.80683" lon="0.45081">
        <ele>50</ele>
        <time>2019-02-17T08:37:10.000Z</time>
      </trkpt>
      <trkpt lat="46.80679" lon="0.45085">
        <ele>50</ele>
        <time>2019-02-17T08:37:11.000Z</time>
      </trkpt>
      <trkpt lat="46.80674" lon="0.45089">
        <ele>50</ele>
        <time>2019-02-17T08:37:12.000Z</time>
      </trkpt>
      <trkpt lat="46.8067" lon="0.45093">
        <ele>50</ele>
        <time>2019-02-17T08:37:13.000Z</time>
      </trkpt>
      <trkpt lat="46.80666" lon="0.45096">
        <ele>51</ele>
        <time>2019-02-17T08:37:14.000Z</time>
      </trkpt>
      <trkpt lat="46.80662" lon="0.451">
        <ele>51</ele>
        <time>2019-02-17T08:37:15.000Z</time>
      </trkpt>
      <trkpt lat="46.80658" lon="0.45104">
        <ele>52</ele>
        <time>2019-02-17T08:37:16.000Z</time>
      </trkpt>
      <trkpt lat="46.80654" lon="0.45108">
        <ele>52</ele>
        <time>2019-02-17T08:37:17.000Z</time>
      </trkpt>
      <trkpt lat="46.8065" lon="0.45111">
        <ele>52</ele>
        <time>2019-02-17T08:37:18.000Z</time>
      </trkpt>
      <trkpt lat="46.80646" lon="0.45115">
        <ele>52</ele>
        <time>2019-02-17T08:37:19.000Z</time>
      </trkpt>
      <trkpt lat="46.80642" lon="0.45117">
        <ele>53</ele>
        <time>2019-02-17T08:37:20.000Z</time>
      </trkpt>
      <trkpt lat="46.80638" lon="0.45121">
        <ele>53</ele>
        <time>2019-02-17T08:37:21.000Z</time>
      </trkpt>
      <trkpt lat="46.80633" lon="0.45124">
        <ele>54</ele>
        <time>2019-02-17T08:37:22.000Z</time>
      </trkpt>
      <trkpt lat="46.80629" lon="0.45127">
        <ele>54</ele>
        <time>2019-02-17T08:37:23.000Z</time>
      </trkpt>
      <trkpt lat="46.80625" lon="0.4513">
        <ele>54</ele>
        <time>2019-02-17T08:37:24.000Z</time>
      </trkpt>
      <trkpt lat="46.80622" lon="0.45133">
        <ele>55</ele>
        <time>2019-02-17T08:37:25.000Z</time>
      </trkpt>
      <trkpt lat="46.80618" lon="0.45136">
        <ele>55</ele>
        <time>2019-02-17T08:37:26.000Z</time>
      </trkpt>
      <trkpt lat="46.80614" lon="0.4514">
        <ele>55</ele>
        <time>2019-02-17T08:37:27.000Z</time>
      </trkpt>
      <trkpt lat="46.80609" lon="0.45143">
        <ele>55</ele>
        <time>2019-02-17T08:37:28.000Z</time>
      </trkpt>
      <trkpt lat="46.80605" lon="0.45147">
        <ele>55</ele>
        <time>2019-02-17T08:37:29.000Z</time>
      </trkpt>
      <trkpt lat="46.80601" lon="0.45151">
        <ele>55</ele>
        <time>2019-02-17T08:37:30.000Z</time>
      </trkpt>
      <trkpt lat="46.80597" lon="0.45156">
        <ele>55</ele>
        <time>2019-02-17T08:37:31.000Z</time>
      </trkpt>
      <trkpt lat="46.80593" lon="0.4516">
        <ele>55</ele>
        <time>2019-02-17T08:37:32.000Z</time>
      </trkpt>
      <trkpt lat="46.80589" lon="0.45163">
        <ele>55</ele>
        <time>2019-02-17T08:37:33.000Z</time>
      </trkpt>
      <trkpt lat="46.80585" lon="0.45166">
        <ele>55</ele>
        <time>2019-02-17T08:37:34.000Z</time>
      </trkpt>
      <trkpt lat="46.80581" lon="0.4517">
        <ele>55</ele>
        <time>2019-02-17T08:37:35.000Z</time>
      </trkpt>
      <trkpt lat="46.80577" lon="0.45173">
        <ele>55</ele>
        <time>2019-02-17T08:37:36.000Z</time>
      </trkpt>
      <trkpt lat="46.80573" lon="0.45176">
        <ele>55</ele>
        <time>2019-02-17T08:37:37.000Z</time>
      </trkpt>
      <trkpt lat="46.80569" lon="0.45179">
        <ele>56</ele>
        <time>2019-02-17T08:37:38.000Z</time>
      </trkpt>
      <trkpt lat="46.80564" lon="0.45182">
        <ele>55</ele>
        <time>2019-02-17T08:37:39.000Z</time>
      </trkpt>
      <trkpt lat="46.8056" lon="0.45184">
        <ele>56</ele>
        <time>2019-02-17T08:37:40.000Z</time>
      </trkpt>
      <trkpt lat="46.80555" lon="0.45188">
        <ele>56</ele>
        <time>2019-02-17T08:37:41.000Z</time>
      </trkpt>
      <trkpt lat="46.8055" lon="0.45191">
        <ele>55</ele>
        <time>2019-02-17T08:37:42.000Z</time>
      </trkpt>
      <trkpt lat="46.80546" lon="0.45194">
        <ele>56</ele>
        <time>2019-02-17T08:37:43.000Z</time>
      </trkpt>
      <trkpt lat="46.80541" lon="0.45197">
        <ele>57</ele>
        <time>2019-02-17T08:37:44.000Z</time>
      </trkpt>
      <trkpt lat="46.80537" lon="0.452">
        <ele>56</ele>
        <time>2019-02-17T08:37:45.000Z</time>
      </trkpt>
      <trkpt lat="46.80532" lon="0.45202">
        <ele>57</ele>
        <time>2019-02-17T08:37:46.000Z</time>
      </trkpt>
      <trkpt lat="46.80528" lon="0.45205">
        <ele>57</ele>
        <time>2019-02-17T08:37:47.000Z</time>
      </trkpt>
      <trkpt lat="46.80523" lon="0.45207">
        <ele>57</ele>
        <time>2019-02-17T08:37:48.000Z</time>
      </trkpt>
      <trkpt lat="46.80518" lon="0.4521">
        <ele>58</ele>
        <time>2019-02-17T08:37:49.000Z</time>
      </trkpt>
      <trkpt lat="46.80514" lon="0.45213">
        <ele>58</ele>
        <time>2019-02-17T08:37:50.000Z</time>
      </trkpt>
      <trkpt lat="46.80509" lon="0.45215">
        <ele>58</ele>
        <time>2019-02-17T08:37:51.000Z</time>
      </trkpt>
      <trkpt lat="46.80505" lon="0.45217">
        <ele>58</ele>
        <time>2019-02-17T08:37:52.000Z</time>
      </trkpt>
      <trkpt lat="46.805" lon="0.4522">
        <ele>59</ele>
        <time>2019-02-17T08:37:53.000Z</time>
      </trkpt>
      <trkpt lat="46.80496" lon="0.45222">
        <ele>59</ele>
        <time>2019-02-17T08:37:54.000Z</time>
      </trkpt>
      <trkpt lat="46.80491" lon="0.45224">
        <ele>58</ele>
        <time>2019-02-17T08:37:55.000Z</time>
      </trkpt>
      <trkpt lat="46.80487" lon="0.45227">
        <ele>58</ele>
        <time>2019-02-17T08:37:56.000Z</time>
      </trkpt>
      <trkpt lat="46.80482" lon="0.4523">
        <ele>57</ele>
        <time>2019-02-17T08:37:57.000Z</time>
      </trkpt>
      <trkpt lat="46.80478" lon="0.45233">
        <ele>57</ele>
        <time>2019-02-17T08:37:58.000Z</time>
      </trkpt>
      <trkpt lat="46.80474" lon="0.45235">
        <ele>57</ele>
        <time>2019-02-17T08:37:59.000Z</time>
      </trkpt>
      <trkpt lat="46.80469" lon="0.45238">
        <ele>57</ele>
        <time>2019-02-17T08:38:00.000Z</time>
      </trkpt>
      <trkpt lat="46.80465" lon="0.4524">
        <ele>57</ele>
        <time>2019-02-17T08:38:01.000Z</time>
      </trkpt>
      <trkpt lat="46.80461" lon="0.45243">
        <ele>55</ele>
        <time>2019-02-17T08:38:02.000Z</time>
      </trkpt>
      <trkpt lat="46.80457" lon="0.45246">
        <ele>56</ele>
        <time>2019-02-17T08:38:03.000Z</time>
      </trkpt>
      <trkpt lat="46.80453" lon="0.45249">
        <ele>56</ele>
        <time>2019-02-17T08:38:04.000Z</time>
      </trkpt>
      <trkpt lat="46.80449" lon="0.45251">
        <ele>57</ele>
        <time>2019-02-17T08:38:05.000Z</time>
      </trkpt>
      <trkpt lat="46.80445" lon="0.45254">
        <ele>57</ele>
        <time>2019-02-17T08:38:06.000Z</time>
      </trkpt>
      <trkpt lat="46.8044" lon="0.45257">
        <ele>57</ele>
        <time>2019-02-17T08:38:07.000Z</time>
      </trkpt>
      <trkpt lat="46.80436" lon="0.45261">
        <ele>56</ele>
        <time>2019-02-17T08:38:08.000Z</time>
      </trkpt>
      <trkpt lat="46.80432" lon="0.45265">
        <ele>55</ele>
        <time>2019-02-17T08:38:09.000Z</time>
      </trkpt>
      <trkpt lat="46.80427" lon="0.45269">
        <ele>55</ele>
        <time>2019-02-17T08:38:10.000Z</time>
      </trkpt>
      <trkpt lat="46.80422" lon="0.45273">
        <ele>55</ele>
        <time>2019-02-17T08:38:11.000Z</time>
      </trkpt>
      <trkpt lat="46.80418" lon="0.45277">
        <ele>54</ele>
        <time>2019-02-17T08:38:12.000Z</time>
      </trkpt>
      <trkpt lat="46.80414" lon="0.45282">
        <ele>54</ele>
        <time>2019-02-17T08:38:13.000Z</time>
      </trkpt>
      <trkpt lat="46.80411" lon="0.45286">
        <ele>52</ele>
        <time>2019-02-17T08:38:14.000Z</time>
      </trkpt>
      <trkpt lat="46.80408" lon="0.45292">
        <ele>50</ele>
        <time>2019-02-17T08:38:15.000Z</time>
      </trkpt>
      <trkpt lat="46.80405" lon="0.45301">
        <ele>49</ele>
        <time>2019-02-17T08:38:16.000Z</time>
      </trkpt>
      <trkpt lat="46.80404" lon="0.4531">
        <ele>50</ele>
        <time>2019-02-17T08:38:17.000Z</time>
      </trkpt>
      <trkpt lat="46.80402" lon="0.45318">
        <ele>53</ele>
        <time>2019-02-17T08:38:18.000Z</time>
      </trkpt>
      <trkpt lat="46.80402" lon="0.45326">
        <ele>53</ele>
        <time>2019-02-17T08:38:19.000Z</time>
      </trkpt>
      <trkpt lat="46.80402" lon="0.45333">
        <ele>53</ele>
        <time>2019-02-17T08:38:20.000Z</time>
      </trkpt>
      <trkpt lat="46.80403" lon="0.45339">
        <ele>53</ele>
        <time>2019-02-17T08:38:21.000Z</time>
      </trkpt>
      <trkpt lat="46.80404" lon="0.45345">
        <ele>54</ele>
        <time>2019-02-17T08:38:22.000Z</time>
      </trkpt>
      <trkpt lat="46.80406" lon="0.45351">
        <ele>53</ele>
        <time>2019-02-17T08:38:23.000Z</time>
      </trkpt>
      <trkpt lat="46.80409" lon="0.45358">
        <ele>52</ele>
        <time>2019-02-17T08:38:24.000Z</time>
      </trkpt>
      <trkpt lat="46.80411" lon="0.45364">
        <ele>51</ele>
        <time>2019-02-17T08:38:25.000Z</time>
      </trkpt>
      <trkpt lat="46.80414" lon="0.4537">
        <ele>50</ele>
        <time>2019-02-17T08:38:26.000Z</time>
      </trkpt>
      <trkpt lat="46.80416" lon="0.45376">
        <ele>51</ele>
        <time>2019-02-17T08:38:27.000Z</time>
      </trkpt>
      <trkpt lat="46.80419" lon="0.45382">
        <ele>51</ele>
        <time>2019-02-17T08:38:28.000Z</time>
      </trkpt>
      <trkpt lat="46.80421" lon="0.45389">
        <ele>51</ele>
        <time>2019-02-17T08:38:29.000Z</time>
      </trkpt>
      <trkpt lat="46.80423" lon="0.45395">
        <ele>51</ele>
        <time>2019-02-17T08:38:30.000Z</time>
      </trkpt>
      <trkpt lat="46.80425" lon="0.45401">
        <ele>50</ele>
        <time>2019-02-17T08:38:31.000Z</time>
      </trkpt>
      <trkpt lat="46.80428" lon="0.45407">
        <ele>49</ele>
        <time>2019-02-17T08:38:32.000Z</time>
      </trkpt>
      <trkpt lat="46.80432" lon="0.45414">
        <ele>50</ele>
        <time>2019-02-17T08:38:33.000Z</time>
      </trkpt>
      <trkpt lat="46.80436" lon="0.4542">
        <ele>48</ele>
        <time>2019-02-17T08:38:34.000Z</time>
      </trkpt>
      <trkpt lat="46.8044" lon="0.45426">
        <ele>47</ele>
        <time>2019-02-17T08:38:35.000Z</time>
      </trkpt>
      <trkpt lat="46.80445" lon="0.45432">
        <ele>47</ele>
        <time>2019-02-17T08:38:36.000Z</time>
      </trkpt>
      <trkpt lat="46.80449" lon="0.45437">
        <ele>45</ele>
        <time>2019-02-17T08:38:37.000Z</time>
      </trkpt>
      <trkpt lat="46.80454" lon="0.45441">
        <ele>44</ele>
        <time>2019-02-17T08:38:38.000Z</time>
      </trkpt>
      <trkpt lat="46.80457" lon="0.45446">
        <ele>44</ele>
        <time>2019-02-17T08:38:39.000Z</time>
      </trkpt>
      <trkpt lat="46.80461" lon="0.4545">
        <ele>43</ele>
        <time>2019-02-17T08:38:40.000Z</time>
      </trkpt>
      <trkpt lat="46.80464" lon="0.45454">
        <ele>43</ele>
        <time>2019-02-17T08:38:41.000Z</time>
      </trkpt>
      <trkpt lat="46.80467" lon="0.45457">
        <ele>43</ele>
        <time>2019-02-17T08:38:42.000Z</time>
      </trkpt>
      <trkpt lat="46.8047" lon="0.4546">
        <ele>42</ele>
        <time>2019-02-17T08:38:43.000Z</time>
      </trkpt>
      <trkpt lat="46.80473" lon="0.45462">
        <ele>41</ele>
        <time>2019-02-17T08:38:44.000Z</time>
      </trkpt>
      <trkpt lat="46.80476" lon="0.45465">
        <ele>41</ele>
        <time>2019-02-17T08:38:45.000Z</time>
      </trkpt>
      <trkpt lat="46.80478" lon="0.45467">
        <ele>39</ele>
        <time>2019-02-17T08:38:46.000Z</time>
      </trkpt>
      <trkpt lat="46.80481" lon="0.45469">
        <ele>39</ele>
        <time>2019-02-17T08:38:47.000Z</time>
      </trkpt>
      <trkpt lat="46.80484" lon="0.45472">
        <ele>39</ele>
        <time>2019-02-17T08:38:48.000Z</time>
      </trkpt>
      <trkpt lat="46.80486" lon="0.45475">
        <ele>39</ele>
        <time>2019-02-17T08:38:49.000Z</time>
      </trkpt>
      <trkpt lat="46.80489" lon="0.45478">
        <ele>39</ele>
        <time>2019-02-17T08:38:50.000Z</time>
      </trkpt>
      <trkpt lat="46.80491" lon="0.45481">
        <ele>39</ele>
        <time>2019-02-17T08:38:51.000Z</time>
      </trkpt>
      <trkpt lat="46.80493" lon="0.45484">
        <ele>40</ele>
        <time>2019-02-17T08:38:52.000Z</time>
      </trkpt>
      <trkpt lat="46.80495" lon="0.45488">
        <ele>39</ele>
        <time>2019-02-17T08:38:53.000Z</time>
      </trkpt>
      <trkpt lat="46.80497" lon="0.45491">
        <ele>38</ele>
        <time>2019-02-17T08:38:54.000Z</time>
      </trkpt>
      <trkpt lat="46.80499" lon="0.45495">
        <ele>39</ele>
        <time>2019-02-17T08:38:55.000Z</time>
      </trkpt>
      <trkpt lat="46.80502" lon="0.45498">
        <ele>38</ele>
        <time>2019-02-17T08:38:56.000Z</time>
      </trkpt>
      <trkpt lat="46.80505" lon="0.45502">
        <ele>37</ele>
        <time>2019-02-17T08:38:57.000Z</time>
      </trkpt>
      <trkpt lat="46.80508" lon="0.45505">
        <ele>37</ele>
        <time>2019-02-17T08:38:58.000Z</time>
      </trkpt>
      <trkpt lat="46.80511" lon="0.45509">
        <ele>38</ele>
        <time>2019-02-17T08:38:59.000Z</time>
      </trkpt>
      <trkpt lat="46.80514" lon="0.45512">
        <ele>39</ele>
        <time>2019-02-17T08:39:00.000Z</time>
      </trkpt>
      <trkpt lat="46.80517" lon="0.45516">
        <ele>38</ele>
        <time>2019-02-17T08:39:01.000Z</time>
      </trkpt>
      <trkpt lat="46.8052" lon="0.4552">
        <ele>35</ele>
        <time>2019-02-17T08:39:02.000Z</time>
      </trkpt>
      <trkpt lat="46.80523" lon="0.45523">
        <ele>35</ele>
        <time>2019-02-17T08:39:03.000Z</time>
      </trkpt>
      <trkpt lat="46.80526" lon="0.45527">
        <ele>35</ele>
        <time>2019-02-17T08:39:04.000Z</time>
      </trkpt>
      <trkpt lat="46.80529" lon="0.4553">
        <ele>37</ele>
        <time>2019-02-17T08:39:05.000Z</time>
      </trkpt>
      <trkpt lat="46.80533" lon="0.45534">
        <ele>38</ele>
        <time>2019-02-17T08:39:06.000Z</time>
      </trkpt>
      <trkpt lat="46.80537" lon="0.45538">
        <ele>42</ele>
        <time>2019-02-17T08:39:07.000Z</time>
      </trkpt>
      <trkpt lat="46.80541" lon="0.45544">
        <ele>43</ele>
        <time>2019-02-17T08:39:08.000Z</time>
      </trkpt>
      <trkpt lat="46.80544" lon="0.45549">
        <ele>47</ele>
        <time>2019-02-17T08:39:09.000Z</time>
      </trkpt>
      <trkpt lat="46.80547" lon="0.45554">
        <ele>50</ele>
        <time>2019-02-17T08:39:10.000Z</time>
      </trkpt>
      <trkpt lat="46.8055" lon="0.45559">
        <ele>51</ele>
        <time>2019-02-17T08:39:11.000Z</time>
      </trkpt>
      <trkpt lat="46.80553" lon="0.45563">
        <ele>52</ele>
        <time>2019-02-17T08:39:12.000Z</time>
      </trkpt>
      <trkpt lat="46.80555" lon="0.45567">
        <ele>52</ele>
        <time>2019-02-17T08:39:13.000Z</time>
      </trkpt>
      <trkpt lat="46.80558" lon="0.45571">
        <ele>52</ele>
        <time>2019-02-17T08:39:14.000Z</time>
      </trkpt>
      <trkpt lat="46.8056" lon="0.45575">
        <ele>52</ele>
        <time>2019-02-17T08:39:15.000Z</time>
      </trkpt>
      <trkpt lat="46.80562" lon="0.45579">
        <ele>52</ele>
        <time>2019-02-17T08:39:16.000Z</time>
      </trkpt>
      <trkpt lat="46.80564" lon="0.45584">
        <ele>53</ele>
        <time>2019-02-17T08:39:17.000Z</time>
      </trkpt>
      <trkpt lat="46.80565" lon="0.45588">
        <ele>54</ele>
        <time>2019-02-17T08:39:18.000Z</time>
      </trkpt>
      <trkpt lat="46.80565" lon="0.45592">
        <ele>54</ele>
        <time>2019-02-17T08:39:19.000Z</time>
      </trkpt>
      <trkpt lat="46.80564" lon="0.45597">
        <ele>55</ele>
        <time>2019-02-17T08:39:20.000Z</time>
      </trkpt>
      <trkpt lat="46.80563" lon="0.45602">
        <ele>54</ele>
        <time>2019-02-17T08:39:21.000Z</time>
      </trkpt>
      <trkpt lat="46.80563" lon="0.45606">
        <ele>54</ele>
        <time>2019-02-17T08:39:22.000Z</time>
      </trkpt>
      <trkpt lat="46.80561" lon="0.45611">
        <ele>54</ele>
        <time>2019-02-17T08:39:23.000Z</time>
      </trkpt>
      <trkpt lat="46.8056" lon="0.45616">
        <ele>54</ele>
        <time>2019-02-17T08:39:24.000Z</time>
      </trkpt>
      <trkpt lat="46.80559" lon="0.45621">
        <ele>52</ele>
        <time>2019-02-17T08:39:25.000Z</time>
      </trkpt>
      <trkpt lat="46.80558" lon="0.45626">
        <ele>51</ele>
        <time>2019-02-17T08:39:26.000Z</time>
      </trkpt>
      <trkpt lat="46.80557" lon="0.45632">
        <ele>50</ele>
        <time>2019-02-17T08:39:27.000Z</time>
      </trkpt>
      <trkpt lat="46.80556" lon="0.45637">
        <ele>49</ele>
        <time>2019-02-17T08:39:28.000Z</time>
      </trkpt>
      <trkpt lat="46.80554" lon="0.45642">
        <ele>48</ele>
        <time>2019-02-17T08:39:29.000Z</time>
      </trkpt>
      <trkpt lat="46.80553" lon="0.45648">
        <ele>48</ele>
        <time>2019-02-17T08:39:30.000Z</time>
      </trkpt>
      <trkpt lat="46.80552" lon="0.45653">
        <ele>48</ele>
        <time>2019-02-17T08:39:31.000Z</time>
      </trkpt>
      <trkpt lat="46.80551" lon="0.45659">
        <ele>48</ele>
        <time>2019-02-17T08:39:32.000Z</time>
      </trkpt>
      <trkpt lat="46.8055" lon="0.45664">
        <ele>47</ele>
        <time>2019-02-17T08:39:33.000Z</time>
      </trkpt>
      <trkpt lat="46.80549" lon="0.4567">
        <ele>47</ele>
        <time>2019-02-17T08:39:34.000Z</time>
      </trkpt>
      <trkpt lat="46.80548" lon="0.45675">
        <ele>47</ele>
        <time>2019-02-17T08:39:35.000Z</time>
      </trkpt>
      <trkpt lat="46.80547" lon="0.4568">
        <ele>47</ele>
        <time>2019-02-17T08:39:36.000Z</time>
      </trkpt>
      <trkpt lat="46.80546" lon="0.45685">
        <ele>47</ele>
        <time>2019-02-17T08:39:37.000Z</time>
      </trkpt>
      <trkpt lat="46.80545" lon="0.45691">
        <ele>47</ele>
        <time>2019-02-17T08:39:38.000Z</time>
      </trkpt>
      <trkpt lat="46.80545" lon="0.45696">
        <ele>47</ele>
        <time>2019-02-17T08:39:39.000Z</time>
      </trkpt>
      <trkpt lat="46.80544" lon="0.45702">
        <ele>48</ele>
        <time>2019-02-17T08:39:40.000Z</time>
      </trkpt>
      <trkpt lat="46.80543" lon="0.45707">
        <ele>49</ele>
        <time>2019-02-17T08:39:41.000Z</time>
      </trkpt>
      <trkpt lat="46.80543" lon="0.45713">
        <ele>49</ele>
        <time>2019-02-17T08:39:42.000Z</time>
      </trkpt>
      <trkpt lat="46.80542" lon="0.45719">
        <ele>49</ele>
        <time>2019-02-17T08:39:43.000Z</time>
      </trkpt>
      <trkpt lat="46.80542" lon="0.45724">
        <ele>49</ele>
        <time>2019-02-17T08:39:44.000Z</time>
      </trkpt>
      <trkpt lat="46.80541" lon="0.45729">
        <ele>48</ele>
        <time>2019-02-17T08:39:45.000Z</time>
      </trkpt>
      <trkpt lat="46.8054" lon="0.45735">
        <ele>47</ele>
        <time>2019-02-17T08:39:46.000Z</time>
      </trkpt>
      <trkpt lat="46.80539" lon="0.45742">
        <ele>47</ele>
        <time>2019-02-17T08:39:47.000Z</time>
      </trkpt>
      <trkpt lat="46.80537" lon="0.45749">
        <ele>47</ele>
        <time>2019-02-17T08:39:48.000Z</time>
      </trkpt>
      <trkpt lat="46.80536" lon="0.45755">
        <ele>47</ele>
        <time>2019-02-17T08:39:49.000Z</time>
      </trkpt>
      <trkpt lat="46.80535" lon="0.45762">
        <ele>48</ele>
        <time>2019-02-17T08:39:50.000Z</time>
      </trkpt>
      <trkpt lat="46.80534" lon="0.45768">
        <ele>49</ele>
        <time>2019-02-17T08:39:51.000Z</time>
      </trkpt>
      <trkpt lat="46.80534" lon="0.45774">
        <ele>50</ele>
        <time>2019-02-17T08:39:52.000Z</time>
      </trkpt>
      <trkpt lat="46.80534" lon="0.4578">
        <ele>50</ele>
        <time>2019-02-17T08:39:53.000Z</time>
      </trkpt>
      <trkpt lat="46.80534" lon="0.45786">
        <ele>50</ele>
        <time>2019-02-17T08:39:54.000Z</time>
      </trkpt>
      <trkpt lat="46.80533" lon="0.45793">
        <ele>51</ele>
        <time>2019-02-17T08:39:55.000Z</time>
      </trkpt>
      <trkpt lat="46.80532" lon="0.458">
        <ele>52</ele>
        <time>2019-02-17T08:39:56.000Z</time>
      </trkpt>
      <trkpt lat="46.80531" lon="0.45807">
        <ele>52</ele>
        <time>2019-02-17T08:39:57.000Z</time>
      </trkpt>
      <trkpt lat="46.8053" lon="0.45814">
        <ele>52</ele>
        <time>2019-02-17T08:39:58.000Z</time>
      </trkpt>
      <trkpt lat="46.8053" lon="0.4582">
        <ele>52</ele>
        <time>2019-02-17T08:39:59.000Z</time>
      </trkpt>
      <trkpt lat="46.80529" lon="0.45826">
        <ele>53</ele>
        <time>2019-02-17T08:40:00.000Z</time>
      </trkpt>
      <trkpt lat="46.80529" lon="0.45832">
        <ele>53</ele>
        <time>2019-02-17T08:40:01.000Z</time>
      </trkpt>
      <trkpt lat="46.80529" lon="0.45839">
        <ele>54</ele>
        <time>2019-02-17T08:40:02.000Z</time>
      </trkpt>
      <trkpt lat="46.80528" lon="0.45846">
        <ele>55</ele>
        <time>2019-02-17T08:40:03.000Z</time>
      </trkpt>
      <trkpt lat="46.80528" lon="0.45852">
        <ele>55</ele>
        <time>2019-02-17T08:40:04.000Z</time>
      </trkpt>
      <trkpt lat="46.80528" lon="0.45859">
        <ele>56</ele>
        <time>2019-02-17T08:40:05.000Z</time>
      </trkpt>
      <trkpt lat="46.80527" lon="0.45865">
        <ele>56</ele>
        <time>2019-02-17T08:40:06.000Z</time>
      </trkpt>
      <trkpt lat="46.80527" lon="0.45872">
        <ele>56</ele>
        <time>2019-02-17T08:40:07.000Z</time>
      </trkpt>
      <trkpt lat="46.80527" lon="0.45878">
        <ele>56</ele>
        <time>2019-02-17T08:40:08.000Z</time>
      </trkpt>
      <trkpt lat="46.80526" lon="0.45884">
        <ele>57</ele>
        <time>2019-02-17T08:40:09.000Z</time>
      </trkpt>
      <trkpt lat="46.80526" lon="0.45891">
        <ele>57</ele>
        <time>2019-02-17T08:40:10.000Z</time>
      </trkpt>
      <trkpt lat="46.80525" lon="0.45897">
        <ele>57</ele>
        <time>2019-02-17T08:40:11.000Z</time>
      </trkpt>
      <trkpt lat="46.80525" lon="0.45903">
        <ele>57</ele>
        <time>2019-02-17T08:40:12.000Z</time>
      </trkpt>
      <trkpt lat="46.80524" lon="0.45909">
        <ele>57</ele>
        <time>2019-02-17T08:40:13.000Z</time>
      </trkpt>
      <trkpt lat="46.80523" lon="0.45915">
        <ele>57</ele>
        <time>2019-02-17T08:40:14.000Z</time>
      </trkpt>
      <trkpt lat="46.80523" lon="0.45921">
        <ele>58</ele>
        <time>2019-02-17T08:40:15.000Z</time>
      </trkpt>
      <trkpt lat="46.80522" lon="0.45927">
        <ele>58</ele>
        <time>2019-02-17T08:40:16.000Z</time>
      </trkpt>
      <trkpt lat="46.80522" lon="0.45933">
        <ele>58</ele>
        <time>2019-02-17T08:40:17.000Z</time>
      </trkpt>
      <trkpt lat="46.80521" lon="0.45939">
        <ele>58</ele>
        <time>2019-02-17T08:40:18.000Z</time>
      </trkpt>
      <trkpt lat="46.80521" lon="0.45945">
        <ele>58</ele>
        <time>2019-02-17T08:40:19.000Z</time>
      </trkpt>
      <trkpt lat="46.8052" lon="0.45951">
        <ele>59</ele>
        <time>2019-02-17T08:40:20.000Z</time>
      </trkpt>
      <trkpt lat="46.8052" lon="0.45957">
        <ele>59</ele>
        <time>2019-02-17T08:40:21.000Z</time>
      </trkpt>
      <trkpt lat="46.80519" lon="0.45963">
        <ele>59</ele>
        <time>2019-02-17T08:40:22.000Z</time>
      </trkpt>
      <trkpt lat="46.80519" lon="0.45969">
        <ele>59</ele>
        <time>2019-02-17T08:40:23.000Z</time>
      </trkpt>
      <trkpt lat="46.80518" lon="0.45974">
        <ele>59</ele>
        <time>2019-02-17T08:40:24.000Z</time>
      </trkpt>
      <trkpt lat="46.80518" lon="0.4598">
        <ele>60</ele>
        <time>2019-02-17T08:40:25.000Z</time>
      </trkpt>
      <trkpt lat="46.80518" lon="0.45986">
        <ele>60</ele>
        <time>2019-02-17T08:40:26.000Z</time>
      </trkpt>
      <trkpt lat="46.80518" lon="0.45991">
        <ele>60</ele>
        <time>2019-02-17T08:40:27.000Z</time>
      </trkpt>
      <trkpt lat="46.80518" lon="0.45996">
        <ele>59</ele>
        <time>2019-02-17T08:40:28.000Z</time>
      </trkpt>
      <trkpt lat="46.8052" lon="0.46">
        <ele>58</ele>
        <time>2019-02-17T08:40:29.000Z</time>
      </trkpt>
      <trkpt lat="46.80523" lon="0.46002">
        <ele>56</ele>
        <time>2019-02-17T08:40:30.000Z</time>
      </trkpt>
      <trkpt lat="46.80527" lon="0.46003">
        <ele>55</ele>
        <time>2019-02-17T08:40:31.000Z</time>
      </trkpt>
      <trkpt lat="46.80531" lon="0.46004">
        <ele>56</ele>
        <time>2019-02-17T08:40:32.000Z</time>
      </trkpt>
      <trkpt lat="46.80535" lon="0.46003">
        <ele>57</ele>
        <time>2019-02-17T08:40:33.000Z</time>
      </trkpt>
      <trkpt lat="46.80539" lon="0.46002">
        <ele>56</ele>
        <time>2019-02-17T08:40:34.000Z</time>
      </trkpt>
      <trkpt lat="46.80543" lon="0.46">
        <ele>55</ele>
        <time>2019-02-17T08:40:35.000Z</time>
      </trkpt>
      <trkpt lat="46.80547" lon="0.45999">
        <ele>55</ele>
        <time>2019-02-17T08:40:36.000Z</time>
      </trkpt>
      <trkpt lat="46.80551" lon="0.45998">
        <ele>54</ele>
        <time>2019-02-17T08:40:37.000Z</time>
      </trkpt>
      <trkpt lat="46.80555" lon="0.45996">
        <ele>55</ele>
        <time>2019-02-17T08:40:38.000Z</time>
      </trkpt>
      <trkpt lat="46.80559" lon="0.45995">
        <ele>54</ele>
        <time>2019-02-17T08:40:39.000Z</time>
      </trkpt>
      <trkpt lat="46.80563" lon="0.45993">
        <ele>54</ele>
        <time>2019-02-17T08:40:40.000Z</time>
      </trkpt>
      <trkpt lat="46.80567" lon="0.45991">
        <ele>54</ele>
        <time>2019-02-17T08:40:41.000Z</time>
      </trkpt>
      <trkpt lat="46.80571" lon="0.45989">
        <ele>54</ele>
        <time>2019-02-17T08:40:42.000Z</time>
      </trkpt>
      <trkpt lat="46.80575" lon="0.45988">
        <ele>54</ele>
        <time>2019-02-17T08:40:43.000Z</time>
      </trkpt>
      <trkpt lat="46.80579" lon="0.45986">
        <ele>54</ele>
        <time>2019-02-17T08:40:44.000Z</time>
      </trkpt>
      <trkpt lat="46.80583" lon="0.45984">
        <ele>54</ele>
        <time>2019-02-17T08:40:45.000Z</time>
      </trkpt>
      <trkpt lat="46.80587" lon="0.45982">
        <ele>55</ele>
        <time>2019-02-17T08:40:46.000Z</time>
      </trkpt>
      <trkpt lat="46.80591" lon="0.4598">
        <ele>55</ele>
        <time>2019-02-17T08:40:47.000Z</time>
      </trkpt>
      <trkpt lat="46.80596" lon="0.45977">
        <ele>55</ele>
        <time>2019-02-17T08:40:48.000Z</time>
      </trkpt>
      <trkpt lat="46.806" lon="0.45975">
        <ele>56</ele>
        <time>2019-02-17T08:40:49.000Z</time>
      </trkpt>
      <trkpt lat="46.80604" lon="0.45973">
        <ele>56</ele>
        <time>2019-02-17T08:40:50.000Z</time>
      </trkpt>
      <trkpt lat="46.80608" lon="0.45971">
        <ele>56</ele>
        <time>2019-02-17T08:40:51.000Z</time>
      </trkpt>
      <trkpt lat="46.80612" lon="0.45969">
        <ele>57</ele>
        <time>2019-02-17T08:40:52.000Z</time>
      </trkpt>
      <trkpt lat="46.80617" lon="0.45967">
        <ele>57</ele>
        <time>2019-02-17T08:40:53.000Z</time>
      </trkpt>
      <trkpt lat="46.80621" lon="0.45965">
        <ele>57</ele>
        <time>2019-02-17T08:40:54.000Z</time>
      </trkpt>
      <trkpt lat="46.80625" lon="0.45963">
        <ele>56</ele>
        <time>2019-02-17T08:40:55.000Z</time>
      </trkpt>
      <trkpt lat="46.80629" lon="0.45961">
        <ele>57</ele>
        <time>2019-02-17T08:40:56.000Z</time>
      </trkpt>
      <trkpt lat="46.80633" lon="0.45959">
        <ele>57</ele>
        <time>2019-02-17T08:40:57.000Z</time>
      </trkpt>
      <trkpt lat="46.80637" lon="0.45956">
        <ele>58</ele>
        <time>2019-02-17T08:40:58.000Z</time>
      </trkpt>
      <trkpt lat="46.80641" lon="0.45953">
        <ele>59</ele>
        <time>2019-02-17T08:40:59.000Z</time>
      </trkpt>
      <trkpt lat="46.80645" lon="0.4595">
        <ele>59</ele>
        <time>2019-02-17T08:41:00.000Z</time>
      </trkpt>
      <trkpt lat="46.80649" lon="0.45947">
        <ele>59</ele>
        <time>2019-02-17T08:41:01.000Z</time>
      </trkpt>
      <trkpt lat="46.80653" lon="0.45944">
        <ele>60</ele>
        <time>2019-02-17T08:41:02.000Z</time>
      </trkpt>
      <trkpt lat="46.80658" lon="0.45942">
        <ele>60</ele>
        <time>2019-02-17T08:41:03.000Z</time>
      </trkpt>
      <trkpt lat="46.80662" lon="0.45939">
        <ele>60</ele>
        <time>2019-02-17T08:41:04.000Z</time>
      </trkpt>
      <trkpt lat="46.80666" lon="0.45937">
        <ele>61</ele>
        <time>2019-02-17T08:41:05.000Z</time>
      </trkpt>
      <trkpt lat="46.8067" lon="0.45935">
        <ele>61</ele>
        <time>2019-02-17T08:41:06.000Z</time>
      </trkpt>
      <trkpt lat="46.80674" lon="0.45933">
        <ele>61</ele>
        <time>2019-02-17T08:41:07.000Z</time>
      </trkpt>
      <trkpt lat="46.80679" lon="0.45933">
        <ele>62</ele>
        <time>2019-02-17T08:41:08.000Z</time>
      </trkpt>
      <trkpt lat="46.80683" lon="0.45932">
        <ele>62</ele>
        <time>2019-02-17T08:41:09.000Z</time>
      </trkpt>
      <trkpt lat="46.80687" lon="0.45932">
        <ele>62</ele>
        <time>2019-02-17T08:41:10.000Z</time>
      </trkpt>
      <trkpt lat="46.8069" lon="0.45932">
        <ele>62</ele>
        <time>2019-02-17T08:41:11.000Z</time>
      </trkpt>
      <trkpt lat="46.80694" lon="0.45932">
        <ele>62</ele>
        <time>2019-02-17T08:41:12.000Z</time>
      </trkpt>
      <trkpt lat="46.80697" lon="0.45932">
        <ele>62</ele>
        <time>2019-02-17T08:41:13.000Z</time>
      </trkpt>
      <trkpt lat="46.807" lon="0.45932">
        <ele>62</ele>
        <time>2019-02-17T08:41:14.000Z</time>
      </trkpt>
      <trkpt lat="46.80702" lon="0.4593">
        <ele>61</ele>
        <time>2019-02-17T08:41:15.000Z</time>
      </trkpt>
      <trkpt lat="46.80704" lon="0.45928">
        <ele>64</ele>
        <time>2019-02-17T08:41:16.000Z</time>
      </trkpt>
      <trkpt lat="46.80705" lon="0.45924">
        <ele>64</ele>
        <time>2019-02-17T08:41:17.000Z</time>
      </trkpt>
      <trkpt lat="46.80707" lon="0.4592">
        <ele>64</ele>
        <time>2019-02-17T08:41:18.000Z</time>
      </trkpt>
      <trkpt lat="46.80709" lon="0.45916">
        <ele>63</ele>
        <time>2019-02-17T08:41:19.000Z</time>
      </trkpt>
      <trkpt lat="46.80711" lon="0.45912">
        <ele>63</ele>
        <time>2019-02-17T08:41:20.000Z</time>
      </trkpt>
      <trkpt lat="46.80713" lon="0.45908">
        <ele>63</ele>
        <time>2019-02-17T08:41:21.000Z</time>
      </trkpt>
      <trkpt lat="46.80715" lon="0.45904">
        <ele>63</ele>
        <time>2019-02-17T08:41:22.000Z</time>
      </trkpt>
      <trkpt lat="46.80717" lon="0.45899">
        <ele>62</ele>
        <time>2019-02-17T08:41:23.000Z</time>
      </trkpt>
      <trkpt lat="46.80719" lon="0.45894">
        <ele>61</ele>
        <time>2019-02-17T08:41:24.000Z</time>
      </trkpt>
      <trkpt lat="46.80721" lon="0.45888">
        <ele>61</ele>
        <time>2019-02-17T08:41:25.000Z</time>
      </trkpt>
      <trkpt lat="46.80723" lon="0.45883">
        <ele>60</ele>
        <time>2019-02-17T08:41:26.000Z</time>
      </trkpt>
      <trkpt lat="46.80725" lon="0.45878">
        <ele>58</ele>
        <time>2019-02-17T08:41:27.000Z</time>
      </trkpt>
      <trkpt lat="46.80728" lon="0.45873">
        <ele>59</ele>
        <time>2019-02-17T08:41:28.000Z</time>
      </trkpt>
      <trkpt lat="46.80731" lon="0.45867">
        <ele>57</ele>
        <time>2019-02-17T08:41:29.000Z</time>
      </trkpt>
      <trkpt lat="46.80733" lon="0.45862">
        <ele>56</ele>
        <time>2019-02-17T08:41:30.000Z</time>
      </trkpt>
      <trkpt lat="46.80736" lon="0.45857">
        <ele>56</ele>
        <time>2019-02-17T08:41:31.000Z</time>
      </trkpt>
      <trkpt lat="46.80738" lon="0.45851">
        <ele>56</ele>
        <time>2019-02-17T08:41:32.000Z</time>
      </trkpt>
      <trkpt lat="46.80741" lon="0.45846">
        <ele>54</ele>
        <time>2019-02-17T08:41:33.000Z</time>
      </trkpt>
      <trkpt lat="46.80744" lon="0.4584">
        <ele>53</ele>
        <time>2019-02-17T08:41:34.000Z</time>
      </trkpt>
      <trkpt lat="46.80746" lon="0.45834">
        <ele>52</ele>
        <time>2019-02-17T08:41:35.000Z</time>
      </trkpt>
      <trkpt lat="46.80749" lon="0.45829">
        <ele>52</ele>
        <time>2019-02-17T08:41:36.000Z</time>
      </trkpt>
      <trkpt lat="46.80752" lon="0.45823">
        <ele>53</ele>
        <time>2019-02-17T08:41:37.000Z</time>
      </trkpt>
      <trkpt lat="46.80755" lon="0.45816">
        <ele>54</ele>
        <time>2019-02-17T08:41:38.000Z</time>
      </trkpt>
      <trkpt lat="46.80758" lon="0.4581">
        <ele>54</ele>
        <time>2019-02-17T08:41:39.000Z</time>
      </trkpt>
      <trkpt lat="46.80761" lon="0.45804">
        <ele>55</ele>
        <time>2019-02-17T08:41:40.000Z</time>
      </trkpt>
      <trkpt lat="46.80764" lon="0.45798">
        <ele>55</ele>
        <time>2019-02-17T08:41:41.000Z</time>
      </trkpt>
      <trkpt lat="46.80766" lon="0.45792">
        <ele>56</ele>
        <time>2019-02-17T08:41:42.000Z</time>
      </trkpt>
      <trkpt lat="46.80769" lon="0.45785">
        <ele>56</ele>
        <time>2019-02-17T08:41:43.000Z</time>
      </trkpt>
      <trkpt lat="46.80772" lon="0.45779">
        <ele>56</ele>
        <time>2019-02-17T08:41:44.000Z</time>
      </trkpt>
      <trkpt lat="46.80775" lon="0.45773">
        <ele>56</ele>
        <time>2019-02-17T08:41:45.000Z</time>
      </trkpt>
      <trkpt lat="46.80778" lon="0.45767">
        <ele>56</ele>
        <time>2019-02-17T08:41:46.000Z</time>
      </trkpt>
      <trkpt lat="46.80781" lon="0.45761">
        <ele>57</ele>
        <time>2019-02-17T08:41:47.000Z</time>
      </trkpt>
      <trkpt lat="46.80784" lon="0.45755">
        <ele>57</ele>
        <time>2019-02-17T08:41:48.000Z</time>
      </trkpt>
      <trkpt lat="46.80787" lon="0.45748">
        <ele>58</ele>
        <time>2019-02-17T08:41:49.000Z</time>
      </trkpt>
      <trkpt lat="46.8079" lon="0.45742">
        <ele>58</ele>
        <time>2019-02-17T08:41:50.000Z</time>
      </trkpt>
      <trkpt lat="46.80794" lon="0.45736">
        <ele>57</ele>
        <time>2019-02-17T08:41:51.000Z</time>
      </trkpt>
      <trkpt lat="46.80797" lon="0.45731">
        <ele>57</ele>
        <time>2019-02-17T08:41:52.000Z</time>
      </trkpt>
      <trkpt lat="46.808" lon="0.45725">
        <ele>57</ele>
        <time>2019-02-17T08:41:53.000Z</time>
      </trkpt>
      <trkpt lat="46.80803" lon="0.45719">
        <ele>57</ele>
        <time>2019-02-17T08:41:54.000Z</time>
      </trkpt>
      <trkpt lat="46.80807" lon="0.45713">
        <ele>57</ele>
        <time>2019-02-17T08:41:55.000Z</time>
      </trkpt>
      <trkpt lat="46.8081" lon="0.45708">
        <ele>57</ele>
        <time>2019-02-17T08:41:56.000Z</time>
      </trkpt>
      <trkpt lat="46.80814" lon="0.45702">
        <ele>56</ele>
        <time>2019-02-17T08:41:57.000Z</time>
      </trkpt>
      <trkpt lat="46.80817" lon="0.45696">
        <ele>56</ele>
        <time>2019-02-17T08:41:58.000Z</time>
      </trkpt>
      <trkpt lat="46.80821" lon="0.45691">
        <ele>55</ele>
        <time>2019-02-17T08:41:59.000Z</time>
      </trkpt>
      <trkpt lat="46.80824" lon="0.45685">
        <ele>55</ele>
        <time>2019-02-17T08:42:00.000Z</time>
      </trkpt>
      <trkpt lat="46.80827" lon="0.45679">
        <ele>55</ele>
        <time>2019-02-17T08:42:01.000Z</time>
      </trkpt>
      <trkpt lat="46.8083" lon="0.45673">
        <ele>55</ele>
        <time>2019-02-17T08:42:02.000Z</time>
      </trkpt>
      <trkpt lat="46.80833" lon="0.45667">
        <ele>55</ele>
        <time>2019-02-17T08:42:03.000Z</time>
      </trkpt>
      <trkpt lat="46.80836" lon="0.45662">
        <ele>54</ele>
        <time>2019-02-17T08:42:04.000Z</time>
      </trkpt>
      <trkpt lat="46.80839" lon="0.45656">
        <ele>53</ele>
        <time>2019-02-17T08:42:05.000Z</time>
      </trkpt>
      <trkpt lat="46.80843" lon="0.45651">
        <ele>52</ele>
        <time>2019-02-17T08:42:06.000Z</time>
      </trkpt>
      <trkpt lat="46.80846" lon="0.45646">
        <ele>52</ele>
        <time>2019-02-17T08:42:07.000Z</time>
      </trkpt>
      <trkpt lat="46.80849" lon="0.45639">
        <ele>53</ele>
        <time>2019-02-17T08:42:08.000Z</time>
      </trkpt>
      <trkpt lat="46.80851" lon="0.45632">
        <ele>53</ele>
        <time>2019-02-17T08:42:09.000Z</time>
      </trkpt>
      <trkpt lat="46.80853" lon="0.45625">
        <ele>53</ele>
        <time>2019-02-17T08:42:10.000Z</time>
      </trkpt>
      <trkpt lat="46.80855" lon="0.45618">
        <ele>55</ele>
        <time>2019-02-17T08:42:11.000Z</time>
      </trkpt>
      <trkpt lat="46.80857" lon="0.45611">
        <ele>56</ele>
        <time>2019-02-17T08:42:12.000Z</time>
      </trkpt>
      <trkpt lat="46.80859" lon="0.45603">
        <ele>58</ele>
        <time>2019-02-17T08:42:13.000Z</time>
      </trkpt>
      <trkpt lat="46.80861" lon="0.45595">
        <ele>59</ele>
        <time>2019-02-17T08:42:14.000Z</time>
      </trkpt>
      <trkpt lat="46.80863" lon="0.45587">
        <ele>60</ele>
        <time>2019-02-17T08:42:15.000Z</time>
      </trkpt>
      <trkpt lat="46.80865" lon="0.4558">
        <ele>60</ele>
        <time>2019-02-17T08:42:16.000Z</time>
      </trkpt>
      <trkpt lat="46.80867" lon="0.45573">
        <ele>61</ele>
        <time>2019-02-17T08:42:17.000Z</time>
      </trkpt>
      <trkpt lat="46.80869" lon="0.45566">
        <ele>61</ele>
        <time>2019-02-17T08:42:18.000Z</time>
      </trkpt>
      <trkpt lat="46.80872" lon="0.45559">
        <ele>62</ele>
        <time>2019-02-17T08:42:19.000Z</time>
      </trkpt>
      <trkpt lat="46.80874" lon="0.45552">
        <ele>62</ele>
        <time>2019-02-17T08:42:20.000Z</time>
      </trkpt>
      <trkpt lat="46.80876" lon="0.45545">
        <ele>63</ele>
        <time>2019-02-17T08:42:21.000Z</time>
      </trkpt>
      <trkpt lat="46.80878" lon="0.45538">
        <ele>63</ele>
        <time>2019-02-17T08:42:22.000Z</time>
      </trkpt>
      <trkpt lat="46.8088" lon="0.45531">
        <ele>64</ele>
        <time>2019-02-17T08:42:23.000Z</time>
      </trkpt>
      <trkpt lat="46.80882" lon="0.45523">
        <ele>64</ele>
        <time>2019-02-17T08:42:24.000Z</time>
      </trkpt>
      <trkpt lat="46.80884" lon="0.45516">
        <ele>64</ele>
        <time>2019-02-17T08:42:25.000Z</time>
      </trkpt>
      <trkpt lat="46.80886" lon="0.45508">
        <ele>64</ele>
        <time>2019-02-17T08:42:26.000Z</time>
      </trkpt>
      <trkpt lat="46.80887" lon="0.45501">
        <ele>65</ele>
        <time>2019-02-17T08:42:27.000Z</time>
      </trkpt>
      <trkpt lat="46.80889" lon="0.45493">
        <ele>65</ele>
        <time>2019-02-17T08:42:28.000Z</time>
      </trkpt>
      <trkpt lat="46.8089" lon="0.45485">
        <ele>65</ele>
        <time>2019-02-17T08:42:29.000Z</time>
      </trkpt>
      <trkpt lat="46.80892" lon="0.45478">
        <ele>65</ele>
        <time>2019-02-17T08:42:30.000Z</time>
      </trkpt>
      <trkpt lat="46.80894" lon="0.45471">
        <ele>65</ele>
        <time>2019-02-17T08:42:31.000Z</time>
      </trkpt>
      <trkpt lat="46.80896" lon="0.45463">
        <ele>65</ele>
        <time>2019-02-17T08:42:32.000Z</time>
      </trkpt>
      <trkpt lat="46.80897" lon="0.45456">
        <ele>65</ele>
        <time>2019-02-17T08:42:33.000Z</time>
      </trkpt>
      <trkpt lat="46.80899" lon="0.45448">
        <ele>65</ele>
        <time>2019-02-17T08:42:34.000Z</time>
      </trkpt>
      <trkpt lat="46.809" lon="0.45441">
        <ele>65</ele>
        <time>2019-02-17T08:42:35.000Z</time>
      </trkpt>
      <trkpt lat="46.80902" lon="0.45434">
        <ele>66</ele>
        <time>2019-02-17T08:42:36.000Z</time>
      </trkpt>
      <trkpt lat="46.80903" lon="0.45427">
        <ele>66</ele>
        <time>2019-02-17T08:42:37.000Z</time>
      </trkpt>
      <trkpt lat="46.80904" lon="0.4542">
        <ele>66</ele>
        <time>2019-02-17T08:42:38.000Z</time>
      </trkpt>
      <trkpt lat="46.80906" lon="0.45412">
        <ele>66</ele>
        <time>2019-02-17T08:42:39.000Z</time>
      </trkpt>
      <trkpt lat="46.80907" lon="0.45405">
        <ele>66</ele>
        <time>2019-02-17T08:42:40.000Z</time>
      </trkpt>
      <trkpt lat="46.80909" lon="0.45398">
        <ele>66</ele>
        <time>2019-02-17T08:42:41.000Z</time>
      </trkpt>
      <trkpt lat="46.80911" lon="0.45391">
        <ele>67</ele>
        <time>2019-02-17T08:42:42.000Z</time>
      </trkpt>
      <trkpt lat="46.80912" lon="0.45384">
        <ele>67</ele>
        <time>2019-02-17T08:42:43.000Z</time>
      </trkpt>
      <trkpt lat="46.80914" lon="0.45377">
        <ele>67</ele>
        <time>2019-02-17T08:42:44.000Z</time>
      </trkpt>
      <trkpt lat="46.80915" lon="0.4537">
        <ele>68</ele>
        <time>2019-02-17T08:42:45.000Z</time>
      </trkpt>
      <trkpt lat="46.80916" lon="0.45363">
        <ele>67</ele>
        <time>2019-02-17T08:42:46.000Z</time>
      </trkpt>
      <trkpt lat="46.80918" lon="0.45357">
        <ele>66</ele>
        <time>2019-02-17T08:42:47.000Z</time>
      </trkpt>
      <trkpt lat="46.80919" lon="0.45351">
        <ele>65</ele>
        <time>2019-02-17T08:42:48.000Z</time>
      </trkpt>
      <trkpt lat="46.8092" lon="0.45345">
        <ele>64</ele>
        <time>2019-02-17T08:42:49.000Z</time>
      </trkpt>
      <trkpt lat="46.80922" lon="0.45339">
        <ele>63</ele>
        <time>2019-02-17T08:42:50.000Z</time>
      </trkpt>
      <trkpt lat="46.80923" lon="0.45334">
        <ele>63</ele>
        <time>2019-02-17T08:42:51.000Z</time>
      </trkpt>
      <trkpt lat="46.80924" lon="0.45328">
        <ele>62</ele>
        <time>2019-02-17T08:42:52.000Z</time>
      </trkpt>
      <trkpt lat="46.80926" lon="0.45322">
        <ele>61</ele>
        <time>2019-02-17T08:42:53.000Z</time>
      </trkpt>
      <trkpt lat="46.80927" lon="0.45315">
        <ele>61</ele>
        <time>2019-02-17T08:42:54.000Z</time>
      </trkpt>
      <trkpt lat="46.80928" lon="0.45308">
        <ele>61</ele>
        <time>2019-02-17T08:42:55.000Z</time>
      </trkpt>
      <trkpt lat="46.80929" lon="0.45302">
        <ele>61</ele>
        <time>2019-02-17T08:42:56.000Z</time>
      </trkpt>
      <trkpt lat="46.8093" lon="0.45296">
        <ele>61</ele>
        <time>2019-02-17T08:42:57.000Z</time>
      </trkpt>
      <trkpt lat="46.80931" lon="0.45289">
        <ele>62</ele>
        <time>2019-02-17T08:42:58.000Z</time>
      </trkpt>
      <trkpt lat="46.80932" lon="0.45283">
        <ele>62</ele>
        <time>2019-02-17T08:42:59.000Z</time>
      </trkpt>
      <trkpt lat="46.80933" lon="0.45276">
        <ele>61</ele>
        <time>2019-02-17T08:43:00.000Z</time>
      </trkpt>
      <trkpt lat="46.80934" lon="0.4527">
        <ele>61</ele>
        <time>2019-02-17T08:43:01.000Z</time>
      </trkpt>
      <trkpt lat="46.80935" lon="0.45264">
        <ele>60</ele>
        <time>2019-02-17T08:43:02.000Z</time>
      </trkpt>
      <trkpt lat="46.80936" lon="0.45259">
        <ele>60</ele>
        <time>2019-02-17T08:43:03.000Z</time>
      </trkpt>
      <trkpt lat="46.80937" lon="0.45253">
        <ele>61</ele>
        <time>2019-02-17T08:43:04.000Z</time>
      </trkpt>
      <trkpt lat="46.80939" lon="0.45248">
        <ele>61</ele>
        <time>2019-02-17T08:43:05.000Z</time>
      </trkpt>
      <trkpt lat="46.8094" lon="0.45243">
        <ele>61</ele>
        <time>2019-02-17T08:43:06.000Z</time>
      </trkpt>
      <trkpt lat="46.80943" lon="0.45239">
        <ele>62</ele>
        <time>2019-02-17T08:43:07.000Z</time>
      </trkpt>
      <trkpt lat="46.80945" lon="0.45238">
        <ele>60</ele>
        <time>2019-02-17T08:43:08.000Z</time>
      </trkpt>
      <trkpt lat="46.80947" lon="0.45237">
        <ele>61</ele>
        <time>2019-02-17T08:43:09.000Z</time>
      </trkpt>
      <trkpt lat="46.8095" lon="0.45236">
        <ele>61</ele>
        <time>2019-02-17T08:43:10.000Z</time>
      </trkpt>
      <trkpt lat="46.80952" lon="0.45236">
        <ele>62</ele>
        <time>2019-02-17T08:43:11.000Z</time>
      </trkpt>
      <trkpt lat="46.80954" lon="0.45235">
        <ele>62</ele>
        <time>2019-02-17T08:43:12.000Z</time>
      </trkpt>
      <trkpt lat="46.80956" lon="0.45234">
        <ele>62</ele>
        <time>2019-02-17T08:43:13.000Z</time>
      </trkpt>
      <trkpt lat="46.80959" lon="0.45234">
        <ele>62</ele>
        <time>2019-02-17T08:43:14.000Z</time>
      </trkpt>
      <trkpt lat="46.80961" lon="0.45235">
        <ele>62</ele>
        <time>2019-02-17T08:43:15.000Z</time>
      </trkpt>
      <trkpt lat="46.80964" lon="0.45238">
        <ele>62</ele>
        <time>2019-02-17T08:43:16.000Z</time>
      </trkpt>
      <trkpt lat="46.80966" lon="0.4524">
        <ele>63</ele>
        <time>2019-02-17T08:43:17.000Z</time>
      </trkpt>
      <trkpt lat="46.80969" lon="0.45242">
        <ele>63</ele>
        <time>2019-02-17T08:43:18.000Z</time>
      </trkpt>
      <trkpt lat="46.80971" lon="0.45243">
        <ele>62</ele>
        <time>2019-02-17T08:43:19.000Z</time>
      </trkpt>
      <trkpt lat="46.80972" lon="0.45242">
        <ele>63</ele>
        <time>2019-02-17T08:43:20.000Z</time>
      </trkpt>
      <trkpt lat="46.80974" lon="0.45242">
        <ele>63</ele>
        <time>2019-02-17T08:43:21.000Z</time>
      </trkpt>
      <trkpt lat="46.80974" lon="0.4524">
        <ele>63</ele>
        <time>2019-02-17T08:43:22.000Z</time>
      </trkpt>
      <trkpt lat="46.80974" lon="0.45239">
        <ele>61</ele>
        <time>2019-02-17T08:43:23.000Z</time>
      </trkpt>
      <trkpt lat="46.80973" lon="0.45236">
        <ele>63</ele>
        <time>2019-02-17T08:43:24.000Z</time>
      </trkpt>
      <trkpt lat="46.80971" lon="0.45234">
        <ele>64</ele>
        <time>2019-02-17T08:43:25.000Z</time>
      </trkpt>
      <trkpt lat="46.8097" lon="0.45231">
        <ele>64</ele>
        <time>2019-02-17T08:43:26.000Z</time>
      </trkpt>
      <trkpt lat="46.80969" lon="0.45228">
        <ele>65</ele>
        <time>2019-02-17T08:43:27.000Z</time>
      </trkpt>
      <trkpt lat="46.80968" lon="0.45226">
        <ele>65</ele>
        <time>2019-02-17T08:43:28.000Z</time>
      </trkpt>
      <trkpt lat="46.80966" lon="0.45224">
        <ele>66</ele>
        <time>2019-02-17T08:43:29.000Z</time>
      </trkpt>
      <trkpt lat="46.80965" lon="0.45222">
        <ele>67</ele>
        <time>2019-02-17T08:43:30.000Z</time>
      </trkpt>
      <trkpt lat="46.80964" lon="0.45219">
        <ele>68</ele>
        <time>2019-02-17T08:43:31.000Z</time>
      </trkpt>
      <trkpt lat="46.80962" lon="0.45217">
        <ele>67</ele>
        <time>2019-02-17T08:43:32.000Z</time>
      </trkpt>
      <trkpt lat="46.80962" lon="0.45215">
        <ele>67</ele>
        <time>2019-02-17T08:43:33.000Z</time>
      </trkpt>
      <trkpt lat="46.80961" lon="0.45214">
        <ele>68</ele>
        <time>2019-02-17T08:43:34.000Z</time>
      </trkpt>
      <trkpt lat="46.8096" lon="0.45211">
        <ele>67</ele>
        <time>2019-02-17T08:43:35.000Z</time>
      </trkpt>
      <trkpt lat="46.8096" lon="0.45208">
        <ele>68</ele>
        <time>2019-02-17T08:43:36.000Z</time>
      </trkpt>
      <trkpt lat="46.8096" lon="0.45205">
        <ele>68</ele>
        <time>2019-02-17T08:43:37.000Z</time>
      </trkpt>
      <trkpt lat="46.80961" lon="0.45203">
        <ele>67</ele>
        <time>2019-02-17T08:43:38.000Z</time>
      </trkpt>
      <trkpt lat="46.80961" lon="0.452">
        <ele>68</ele>
        <time>2019-02-17T08:43:39.000Z</time>
      </trkpt>
      <trkpt lat="46.80961" lon="0.45197">
        <ele>68</ele>
        <time>2019-02-17T08:43:40.000Z</time>
      </trkpt>
      <trkpt lat="46.80961" lon="0.45194">
        <ele>69</ele>
        <time>2019-02-17T08:43:41.000Z</time>
      </trkpt>
      <trkpt lat="46.80961" lon="0.45192">
        <ele>69</ele>
        <time>2019-02-17T08:43:42.000Z</time>
      </trkpt>
      <trkpt lat="46.80962" lon="0.4519">
        <ele>70</ele>
        <time>2019-02-17T08:43:43.000Z</time>
      </trkpt>
      <trkpt lat="46.80963" lon="0.45189">
        <ele>70</ele>
        <time>2019-02-17T08:43:44.000Z</time>
      </trkpt>
      <trkpt lat="46.80964" lon="0.45188">
        <ele>71</ele>
        <time>2019-02-17T08:43:45.000Z</time>
      </trkpt>
      <trkpt lat="46.80964" lon="0.45187">
        <ele>72</ele>
        <time>2019-02-17T08:43:46.000Z</time>
      </trkpt>
      <trkpt lat="46.80964" lon="0.45185">
        <ele>72</ele>
        <time>2019-02-17T08:43:47.000Z</time>
      </trkpt>
      <trkpt lat="46.80963" lon="0.45184">
        <ele>72</ele>
        <time>2019-02-17T08:43:48.000Z</time>
      </trkpt>
      <trkpt lat="46.80964" lon="0.45182">
        <ele>72</ele>
        <time>2019-02-17T08:43:49.000Z</time>
      </trkpt>
      <trkpt lat="46.80965" lon="0.45181">
        <ele>71</ele>
        <time>2019-02-17T08:43:50.000Z</time>
      </trkpt>
      <trkpt lat="46.80966" lon="0.45181">
        <ele>72</ele>
        <time>2019-02-17T08:43:51.000Z</time>
      </trkpt>
      <trkpt lat="46.80968" lon="0.45182">
        <ele>74</ele>
        <time>2019-02-17T08:43:52.000Z</time>
      </trkpt>
      <trkpt lat="46.8097" lon="0.45184">
        <ele>74</ele>
        <time>2019-02-17T08:43:53.000Z</time>
      </trkpt>
      <trkpt lat="46.80972" lon="0.45187">
        <ele>75</ele>
        <time>2019-02-17T08:43:54.000Z</time>
      </trkpt>
      <trkpt lat="46.80973" lon="0.45189">
        <ele>74</ele>
        <time>2019-02-17T08:43:55.000Z</time>
      </trkpt>
      <trkpt lat="46.80975" lon="0.4519">
        <ele>75</ele>
        <time>2019-02-17T08:43:56.000Z</time>
      </trkpt>
      <trkpt lat="46.80977" lon="0.45191">
        <ele>75</ele>
        <time>2019-02-17T08:43:57.000Z</time>
      </trkpt>
      <trkpt lat="46.80979" lon="0.45192">
        <ele>75</ele>
        <time>2019-02-17T08:43:58.000Z</time>
      </trkpt>
      <trkpt lat="46.80981" lon="0.45193">
        <ele>74</ele>
        <time>2019-02-17T08:43:59.000Z</time>
      </trkpt>
      <trkpt lat="46.80983" lon="0.45196">
        <ele>74</ele>
        <time>2019-02-17T08:44:00.000Z</time>
      </trkpt>
      <trkpt lat="46.80986" lon="0.45198">
        <ele>74</ele>
        <time>2019-02-17T08:44:01.000Z</time>
      </trkpt>
      <trkpt lat="46.80988" lon="0.45201">
        <ele>74</ele>
        <time>2019-02-17T08:44:02.000Z</time>
      </trkpt>
      <trkpt lat="46.80989" lon="0.45203">
        <ele>74</ele>
        <time>2019-02-17T08:44:03.000Z</time>
      </trkpt>
      <trkpt lat="46.80991" lon="0.45204">
        <ele>73</ele>
        <time>2019-02-17T08:44:04.000Z</time>
      </trkpt>
      <trkpt lat="46.80993" lon="0.45206">
        <ele>72</ele>
        <time>2019-02-17T08:44:05.000Z</time>
      </trkpt>
      <trkpt lat="46.80996" lon="0.45208">
        <ele>71</ele>
        <time>2019-02-17T08:44:06.000Z</time>
      </trkpt>
      <trkpt lat="46.80999" lon="0.4521">
        <ele>72</ele>
        <time>2019-02-17T08:44:07.000Z</time>
      </trkpt>
      <trkpt lat="46.81001" lon="0.45213">
        <ele>72</ele>
        <time>2019-02-17T08:44:08.000Z</time>
      </trkpt>
      <trkpt lat="46.81003" lon="0.45215">
        <ele>72</ele>
        <time>2019-02-17T08:44:09.000Z</time>
      </trkpt>
      <trkpt lat="46.81005" lon="0.45217">
        <ele>72</ele>
        <time>2019-02-17T08:44:10.000Z</time>
      </trkpt>
      <trkpt lat="46.81007" lon="0.45218">
        <ele>71</ele>
        <time>2019-02-17T08:44:11.000Z</time>
      </trkpt>
      <trkpt lat="46.81009" lon="0.45219">
        <ele>70</ele>
        <time>2019-02-17T08:44:12.000Z</time>
      </trkpt>
      <trkpt lat="46.81012" lon="0.45218">
        <ele>68</ele>
        <time>2019-02-17T08:44:13.000Z</time>
      </trkpt>
      <trkpt lat="46.81013" lon="0.45217">
        <ele>68</ele>
        <time>2019-02-17T08:44:14.000Z</time>
      </trkpt>
      <trkpt lat="46.81014" lon="0.45215">
        <ele>67</ele>
        <time>2019-02-17T08:44:15.000Z</time>
      </trkpt>
      <trkpt lat="46.81015" lon="0.45213">
        <ele>66</ele>
        <time>2019-02-17T08:44:16.000Z</time>
      </trkpt>
      <trkpt lat="46.81017" lon="0.45212">
        <ele>65</ele>
        <time>2019-02-17T08:44:17.000Z</time>
      </trkpt>
      <trkpt lat="46.81018" lon="0.4521">
        <ele>65</ele>
        <time>2019-02-17T08:44:18.000Z</time>
      </trkpt>
      <trkpt lat="46.8102" lon="0.4521">
        <ele>65</ele>
        <time>2019-02-17T08:44:19.000Z</time>
      </trkpt>
      <trkpt lat="46.81022" lon="0.4521">
        <ele>65</ele>
        <time>2019-02-17T08:44:20.000Z</time>
      </trkpt>
      <trkpt lat="46.81023" lon="0.45212">
        <ele>66</ele>
        <time>2019-02-17T08:44:21.000Z</time>
      </trkpt>
      <trkpt lat="46.81025" lon="0.45213">
        <ele>66</ele>
        <time>2019-02-17T08:44:22.000Z</time>
      </trkpt>
      <trkpt lat="46.81026" lon="0.45214">
        <ele>66</ele>
        <time>2019-02-17T08:44:23.000Z</time>
      </trkpt>
      <trkpt lat="46.81027" lon="0.45215">
        <ele>67</ele>
        <time>2019-02-17T08:44:24.000Z</time>
      </trkpt>
      <trkpt lat="46.81028" lon="0.45217">
        <ele>67</ele>
        <time>2019-02-17T08:44:25.000Z</time>
      </trkpt>
      <trkpt lat="46.81029" lon="0.45218">
        <ele>69</ele>
        <time>2019-02-17T08:44:26.000Z</time>
      </trkpt>
      <trkpt lat="46.8103" lon="0.4522">
        <ele>69</ele>
        <time>2019-02-17T08:44:27.000Z</time>
      </trkpt>
      <trkpt lat="46.81031" lon="0.4522">
        <ele>69</ele>
        <time>2019-02-17T08:44:28.000Z</time>
      </trkpt>
      <trkpt lat="46.81033" lon="0.45219">
        <ele>69</ele>
        <time>2019-02-17T08:44:29.000Z</time>
      </trkpt>
      <trkpt lat="46.81035" lon="0.45219">
        <ele>68</ele>
        <time>2019-02-17T08:44:30.000Z</time>
      </trkpt>
      <trkpt lat="46.81037" lon="0.45218">
        <ele>67</ele>
        <time>2019-02-17T08:44:31.000Z</time>
      </trkpt>
      <trkpt lat="46.81039" lon="0.45217">
        <ele>65</ele>
        <time>2019-02-17T08:44:32.000Z</time>
      </trkpt>
      <trkpt lat="46.8104" lon="0.45216">
        <ele>65</ele>
        <time>2019-02-17T08:44:33.000Z</time>
      </trkpt>
      <trkpt lat="46.81041" lon="0.45215">
        <ele>64</ele>
        <time>2019-02-17T08:44:34.000Z</time>
      </trkpt>
      <trkpt lat="46.81041" lon="0.45212">
        <ele>67</ele>
        <time>2019-02-17T08:44:35.000Z</time>
      </trkpt>
      <trkpt lat="46.81041" lon="0.45209">
        <ele>68</ele>
        <time>2019-02-17T08:44:36.000Z</time>
      </trkpt>
      <trkpt lat="46.81041" lon="0.45205">
        <ele>68</ele>
        <time>2019-02-17T08:44:37.000Z</time>
      </trkpt>
      <trkpt lat="46.81042" lon="0.45204">
        <ele>67</ele>
        <time>2019-02-17T08:44:38.000Z</time>
      </trkpt>
      <trkpt lat="46.81043" lon="0.45203">
        <ele>68</ele>
        <time>2019-02-17T08:44:39.000Z</time>
      </trkpt>
      <trkpt lat="46.81044" lon="0.45204">
        <ele>69</ele>
        <time>2019-02-17T08:44:40.000Z</time>
      </trkpt>
      <trkpt lat="46.81045" lon="0.45205">
        <ele>67</ele>
        <time>2019-02-17T08:44:41.000Z</time>
      </trkpt>
      <trkpt lat="46.81045" lon="0.45207">
        <ele>67</ele>
        <time>2019-02-17T08:44:42.000Z</time>
      </trkpt>
      <trkpt lat="46.81046" lon="0.45209">
        <ele>68</ele>
        <time>2019-02-17T08:44:43.000Z</time>
      </trkpt>
      <trkpt lat="46.81047" lon="0.4521">
        <ele>67</ele>
        <time>2019-02-17T08:44:44.000Z</time>
      </trkpt>
      <trkpt lat="46.81048" lon="0.45211">
        <ele>67</ele>
        <time>2019-02-17T08:44:45.000Z</time>
      </trkpt>
      <trkpt lat="46.8105" lon="0.45211">
        <ele>67</ele>
        <time>2019-02-17T08:44:46.000Z</time>
      </trkpt>
      <trkpt lat="46.81051" lon="0.45211">
        <ele>68</ele>
        <time>2019-02-17T08:44:47.000Z</time>
      </trkpt>
      <trkpt lat="46.81053" lon="0.45211">
        <ele>68</ele>
        <time>2019-02-17T08:44:48.000Z</time>
      </trkpt>
      <trkpt lat="46.81055" lon="0.4521">
        <ele>68</ele>
        <time>2019-02-17T08:44:49.000Z</time>
      </trkpt>
      <trkpt lat="46.81058" lon="0.45209">
        <ele>68</ele>
        <time>2019-02-17T08:44:50.000Z</time>
      </trkpt>
      <trkpt lat="46.8106" lon="0.45208">
        <ele>68</ele>
        <time>2019-02-17T08:44:51.000Z</time>
      </trkpt>
      <trkpt lat="46.81062" lon="0.45208">
        <ele>68</ele>
        <time>2019-02-17T08:44:52.000Z</time>
      </trkpt>
      <trkpt lat="46.81064" lon="0.45208">
        <ele>69</ele>
        <time>2019-02-17T08:44:53.000Z</time>
      </trkpt>
      <trkpt lat="46.81066" lon="0.45208">
        <ele>71</ele>
        <time>2019-02-17T08:44:54.000Z</time>
      </trkpt>
      <trkpt lat="46.81068" lon="0.45208">
        <ele>72</ele>
        <time>2019-02-17T08:44:55.000Z</time>
      </trkpt>
      <trkpt lat="46.81071" lon="0.45209">
        <ele>72</ele>
        <time>2019-02-17T08:44:56.000Z</time>
      </trkpt>
      <trkpt lat="46.81072" lon="0.45209">
        <ele>73</ele>
        <time>2019-02-17T08:44:57.000Z</time>
      </trkpt>
      <trkpt lat="46.81074" lon="0.4521">
        <ele>72</ele>
        <time>2019-02-17T08:44:58.000Z</time>
      </trkpt>
      <trkpt lat="46.81075" lon="0.45212">
        <ele>72</ele>
        <time>2019-02-17T08:44:59.000Z</time>
      </trkpt>
      <trkpt lat="46.81074" lon="0.45215">
        <ele>74</ele>
        <time>2019-02-17T08:45:00.000Z</time>
      </trkpt>
      <trkpt lat="46.81072" lon="0.45217">
        <ele>74</ele>
        <time>2019-02-17T08:45:01.000Z</time>
      </trkpt>
      <trkpt lat="46.81071" lon="0.45218">
        <ele>75</ele>
        <time>2019-02-17T08:45:02.000Z</time>
      </trkpt>
      <trkpt lat="46.8107" lon="0.45219">
        <ele>73</ele>
        <time>2019-02-17T08:45:03.000Z</time>
      </trkpt>
      <trkpt lat="46.81069" lon="0.45221">
        <ele>73</ele>
        <time>2019-02-17T08:45:04.000Z</time>
      </trkpt>
      <trkpt lat="46.81068" lon="0.45224">
        <ele>72</ele>
        <time>2019-02-17T08:45:05.000Z</time>
      </trkpt>
      <trkpt lat="46.81067" lon="0.45227">
        <ele>73</ele>
        <time>2019-02-17T08:45:06.000Z</time>
      </trkpt>
      <trkpt lat="46.81066" lon="0.45229">
        <ele>73</ele>
        <time>2019-02-17T08:45:07.000Z</time>
      </trkpt>
      <trkpt lat="46.81066" lon="0.45231">
        <ele>74</ele>
        <time>2019-02-17T08:45:08.000Z</time>
      </trkpt>
      <trkpt lat="46.81067" lon="0.45232">
        <ele>74</ele>
        <time>2019-02-17T08:45:09.000Z</time>
      </trkpt>
      <trkpt lat="46.81068" lon="0.45233">
        <ele>74</ele>
        <time>2019-02-17T08:45:10.000Z</time>
      </trkpt>
      <trkpt lat="46.81069" lon="0.45232">
        <ele>73</ele>
        <time>2019-02-17T08:45:11.000Z</time>
      </trkpt>
      <trkpt lat="46.8107" lon="0.45231">
        <ele>73</ele>
        <time>2019-02-17T08:45:12.000Z</time>
      </trkpt>
      <trkpt lat="46.81071" lon="0.45229">
        <ele>74</ele>
        <time>2019-02-17T08:45:13.000Z</time>
      </trkpt>
      <trkpt lat="46.81072" lon="0.45228">
        <ele>74</ele>
        <time>2019-02-17T08:45:14.000Z</time>
      </trkpt>
      <trkpt lat="46.81074" lon="0.45227">
        <ele>73</ele>
        <time>2019-02-17T08:45:15.000Z</time>
      </trkpt>
      <trkpt lat="46.81076" lon="0.45227">
        <ele>73</ele>
        <time>2019-02-17T08:45:16.000Z</time>
      </trkpt>
      <trkpt lat="46.81078" lon="0.45227">
        <ele>73</ele>
        <time>2019-02-17T08:45:17.000Z</time>
      </trkpt>
      <trkpt lat="46.8108" lon="0.45227">
        <ele>73</ele>
        <time>2019-02-17T08:45:18.000Z</time>
      </trkpt>
      <trkpt lat="46.81081" lon="0.45227">
        <ele>73</ele>
        <time>2019-02-17T08:45:19.000Z</time>
      </trkpt>
      <trkpt lat="46.81081" lon="0.45226">
        <ele>73</ele>
        <time>2019-02-17T08:45:20.000Z</time>
      </trkpt>
      <trkpt lat="46.81081" lon="0.45225">
        <ele>74</ele>
        <time>2019-02-17T08:45:21.000Z</time>
      </trkpt>
      <trkpt lat="46.8108" lon="0.45223">
        <ele>73</ele>
        <time>2019-02-17T08:45:22.000Z</time>
      </trkpt>
      <trkpt lat="46.8108" lon="0.45222">
        <ele>74</ele>
        <time>2019-02-17T08:45:23.000Z</time>
      </trkpt>
      <trkpt lat="46.8108" lon="0.4522">
        <ele>74</ele>
        <time>2019-02-17T08:45:24.000Z</time>
      </trkpt>
      <trkpt lat="46.81081" lon="0.45219">
        <ele>75</ele>
        <time>2019-02-17T08:45:25.000Z</time>
      </trkpt>
      <trkpt lat="46.81083" lon="0.45217">
        <ele>75</ele>
        <time>2019-02-17T08:45:26.000Z</time>
      </trkpt>
      <trkpt lat="46.81085" lon="0.45216">
        <ele>74</ele>
        <time>2019-02-17T08:45:27.000Z</time>
      </trkpt>
      <trkpt lat="46.81086" lon="0.45214">
        <ele>75</ele>
        <time>2019-02-17T08:45:28.000Z</time>
      </trkpt>
      <trkpt lat="46.81088" lon="0.45212">
        <ele>75</ele>
        <time>2019-02-17T08:45:29.000Z</time>
      </trkpt>
      <trkpt lat="46.8109" lon="0.45211">
        <ele>75</ele>
        <time>2019-02-17T08:45:30.000Z</time>
      </trkpt>
      <trkpt lat="46.81092" lon="0.45209">
        <ele>75</ele>
        <time>2019-02-17T08:45:31.000Z</time>
      </trkpt>
      <trkpt lat="46.81093" lon="0.45207">
        <ele>75</ele>
        <time>2019-02-17T08:45:32.000Z</time>
      </trkpt>
      <trkpt lat="46.81093" lon="0.45205">
        <ele>76</ele>
        <time>2019-02-17T08:45:33.000Z</time>
      </trkpt>
      <trkpt lat="46.81093" lon="0.45203">
        <ele>76</ele>
        <time>2019-02-17T08:45:34.000Z</time>
      </trkpt>
      <trkpt lat="46.81091" lon="0.45201">
        <ele>72</ele>
        <time>2019-02-17T08:45:35.000Z</time>
      </trkpt>
      <trkpt lat="46.81089" lon="0.45199">
        <ele>72</ele>
        <time>2019-02-17T08:45:36.000Z</time>
      </trkpt>
      <trkpt lat="46.81087" lon="0.45197">
        <ele>72</ele>
        <time>2019-02-17T08:45:37.000Z</time>
      </trkpt>
      <trkpt lat="46.81085" lon="0.45195">
        <ele>72</ele>
        <time>2019-02-17T08:45:38.000Z</time>
      </trkpt>
      <trkpt lat="46.81083" lon="0.45193">
        <ele>72</ele>
        <time>2019-02-17T08:45:39.000Z</time>
      </trkpt>
      <trkpt lat="46.81081" lon="0.45192">
        <ele>71</ele>
        <time>2019-02-17T08:45:40.000Z</time>
      </trkpt>
      <trkpt lat="46.81079" lon="0.45191">
        <ele>72</ele>
        <time>2019-02-17T08:45:41.000Z</time>
      </trkpt>
      <trkpt lat="46.81077" lon="0.45191">
        <ele>72</ele>
        <time>2019-02-17T08:45:42.000Z</time>
      </trkpt>
      <trkpt lat="46.81074" lon="0.4519">
        <ele>72</ele>
        <time>2019-02-17T08:45:43.000Z</time>
      </trkpt>
      <trkpt lat="46.81072" lon="0.45189">
        <ele>72</ele>
        <time>2019-02-17T08:45:44.000Z</time>
      </trkpt>
      <trkpt lat="46.81069" lon="0.45188">
        <ele>71</ele>
        <time>2019-02-17T08:45:45.000Z</time>
      </trkpt>
      <trkpt lat="46.81067" lon="0.45187">
        <ele>71</ele>
        <time>2019-02-17T08:45:46.000Z</time>
      </trkpt>
      <trkpt lat="46.81064" lon="0.45186">
        <ele>70</ele>
        <time>2019-02-17T08:45:47.000Z</time>
      </trkpt>
      <trkpt lat="46.81062" lon="0.45184">
        <ele>71</ele>
        <time>2019-02-17T08:45:48.000Z</time>
      </trkpt>
      <trkpt lat="46.81061" lon="0.45182">
        <ele>71</ele>
        <time>2019-02-17T08:45:49.000Z</time>
      </trkpt>
      <trkpt lat="46.81059" lon="0.45181">
        <ele>71</ele>
        <time>2019-02-17T08:45:50.000Z</time>
      </trkpt>
      <trkpt lat="46.81056" lon="0.4518">
        <ele>72</ele>
        <time>2019-02-17T08:45:51.000Z</time>
      </trkpt>
      <trkpt lat="46.81053" lon="0.45178">
        <ele>72</ele>
        <time>2019-02-17T08:45:52.000Z</time>
      </trkpt>
      <trkpt lat="46.81051" lon="0.45177">
        <ele>72</ele>
        <time>2019-02-17T08:45:53.000Z</time>
      </trkpt>
      <trkpt lat="46.81048" lon="0.45175">
        <ele>72</ele>
        <time>2019-02-17T08:45:54.000Z</time>
      </trkpt>
      <trkpt lat="46.81045" lon="0.45173">
        <ele>72</ele>
        <time>2019-02-17T08:45:55.000Z</time>
      </trkpt>
      <trkpt lat="46.81044" lon="0.45171">
        <ele>72</ele>
        <time>2019-02-17T08:45:56.000Z</time>
      </trkpt>
      <trkpt lat="46.81044" lon="0.4517">
        <ele>71</ele>
        <time>2019-02-17T08:45:57.000Z</time>
      </trkpt>
      <trkpt lat="46.81044" lon="0.45168">
        <ele>71</ele>
        <time>2019-02-17T08:45:58.000Z</time>
      </trkpt>
      <trkpt lat="46.81043" lon="0.45167">
        <ele>72</ele>
        <time>2019-02-17T08:45:59.000Z</time>
      </trkpt>
      <trkpt lat="46.81042" lon="0.45165">
        <ele>73</ele>
        <time>2019-02-17T08:46:00.000Z</time>
      </trkpt>
      <trkpt lat="46.8104" lon="0.45163">
        <ele>76</ele>
        <time>2019-02-17T08:46:01.000Z</time>
      </trkpt>
      <trkpt lat="46.81039" lon="0.4516">
        <ele>78</ele>
        <time>2019-02-17T08:46:02.000Z</time>
      </trkpt>
      <trkpt lat="46.81038" lon="0.45157">
        <ele>79</ele>
        <time>2019-02-17T08:46:03.000Z</time>
      </trkpt>
      <trkpt lat="46.81039" lon="0.45155">
        <ele>79</ele>
        <time>2019-02-17T08:46:04.000Z</time>
      </trkpt>
      <trkpt lat="46.81039" lon="0.45152">
        <ele>80</ele>
        <time>2019-02-17T08:46:05.000Z</time>
      </trkpt>
      <trkpt lat="46.81038" lon="0.4515">
        <ele>79</ele>
        <time>2019-02-17T08:46:06.000Z</time>
      </trkpt>
      <trkpt lat="46.81037" lon="0.45148">
        <ele>80</ele>
        <time>2019-02-17T08:46:07.000Z</time>
      </trkpt>
      <trkpt lat="46.81036" lon="0.45146">
        <ele>80</ele>
        <time>2019-02-17T08:46:08.000Z</time>
      </trkpt>
      <trkpt lat="46.81035" lon="0.45144">
        <ele>80</ele>
        <time>2019-02-17T08:46:09.000Z</time>
      </trkpt>
      <trkpt lat="46.81034" lon="0.45142">
        <ele>81</ele>
        <time>2019-02-17T08:46:10.000Z</time>
      </trkpt>
      <trkpt lat="46.81034" lon="0.4514">
        <ele>80</ele>
        <time>2019-02-17T08:46:11.000Z</time>
      </trkpt>
      <trkpt lat="46.81035" lon="0.45137">
        <ele>79</ele>
        <time>2019-02-17T08:46:12.000Z</time>
      </trkpt>
      <trkpt lat="46.81036" lon="0.45135">
        <ele>78</ele>
        <time>2019-02-17T08:46:13.000Z</time>
      </trkpt>
      <trkpt lat="46.81038" lon="0.45133">
        <ele>77</ele>
        <time>2019-02-17T08:46:14.000Z</time>
      </trkpt>
      <trkpt lat="46.81038" lon="0.45132">
        <ele>77</ele>
        <time>2019-02-17T08:46:15.000Z</time>
      </trkpt>
      <trkpt lat="46.81039" lon="0.45131">
        <ele>77</ele>
        <time>2019-02-17T08:46:16.000Z</time>
      </trkpt>
      <trkpt lat="46.81039" lon="0.45129">
        <ele>76</ele>
        <time>2019-02-17T08:46:17.000Z</time>
      </trkpt>
      <trkpt lat="46.81039" lon="0.45126">
        <ele>76</ele>
        <time>2019-02-17T08:46:18.000Z</time>
      </trkpt>
      <trkpt lat="46.81039" lon="0.45123">
        <ele>75</ele>
        <time>2019-02-17T08:46:19.000Z</time>
      </trkpt>
      <trkpt lat="46.8104" lon="0.4512">
        <ele>74</ele>
        <time>2019-02-17T08:46:20.000Z</time>
      </trkpt>
      <trkpt lat="46.81041" lon="0.45117">
        <ele>74</ele>
        <time>2019-02-17T08:46:21.000Z</time>
      </trkpt>
      <trkpt lat="46.81042" lon="0.45114">
        <ele>74</ele>
        <time>2019-02-17T08:46:22.000Z</time>
      </trkpt>
      <trkpt lat="46.81042" lon="0.45111">
        <ele>74</ele>
        <time>2019-02-17T08:46:23.000Z</time>
      </trkpt>
      <trkpt lat="46.81043" lon="0.45107">
        <ele>74</ele>
        <time>2019-02-17T08:46:24.000Z</time>
      </trkpt>
      <trkpt lat="46.81044" lon="0.45104">
        <ele>75</ele>
        <time>2019-02-17T08:46:25.000Z</time>
      </trkpt>
      <trkpt lat="46.81046" lon="0.45102">
        <ele>75</ele>
        <time>2019-02-17T08:46:26.000Z</time>
      </trkpt>
      <trkpt lat="46.81047" lon="0.45099">
        <ele>76</ele>
        <time>2019-02-17T08:46:27.000Z</time>
      </trkpt>
      <trkpt lat="46.81048" lon="0.45097">
        <ele>75</ele>
        <time>2019-02-17T08:46:28.000Z</time>
      </trkpt>
      <trkpt lat="46.81048" lon="0.45093">
        <ele>76</ele>
        <time>2019-02-17T08:46:29.000Z</time>
      </trkpt>
      <trkpt lat="46.81046" lon="0.45089">
        <ele>77</ele>
        <time>2019-02-17T08:46:30.000Z</time>
      </trkpt>
      <trkpt lat="46.81044" lon="0.45086">
        <ele>78</ele>
        <time>2019-02-17T08:46:31.000Z</time>
      </trkpt>
      <trkpt lat="46.81043" lon="0.45084">
        <ele>78</ele>
        <time>2019-02-17T08:46:32.000Z</time>
      </trkpt>
      <trkpt lat="46.81042" lon="0.45083">
        <ele>79</ele>
        <time>2019-02-17T08:46:33.000Z</time>
      </trkpt>
      <trkpt lat="46.81041" lon="0.45083">
        <ele>80</ele>
        <time>2019-02-17T08:46:34.000Z</time>
      </trkpt>
      <trkpt lat="46.81041" lon="0.45082">
        <ele>81</ele>
        <time>2019-02-17T08:46:35.000Z</time>
      </trkpt>
      <trkpt lat="46.8104" lon="0.45082">
        <ele>83</ele>
        <time>2019-02-17T08:46:36.000Z</time>
      </trkpt>
      <trkpt lat="46.8104" lon="0.45081">
        <ele>83</ele>
        <time>2019-02-17T08:46:37.000Z</time>
      </trkpt>
      <trkpt lat="46.8104" lon="0.45081">
        <ele>83</ele>
        <time>2019-02-17T08:46:38.000Z</time>
      </trkpt>
      <trkpt lat="46.8104" lon="0.45082">
        <ele>83</ele>
        <time>2019-02-17T08:46:39.000Z</time>
      </trkpt>
      <trkpt lat="46.8104" lon="0.45082">
        <ele>83</ele>
        <time>2019-02-17T08:46:40.000Z</time>
      </trkpt>
      <trkpt lat="46.8104" lon="0.45082">
        <ele>84</ele>
        <time>2019-02-17T08:46:41.000Z</time>
      </trkpt>
      <trkpt lat="46.8104" lon="0.45082">
        <ele>84</ele>
        <time>2019-02-17T08:46:42.000Z</time>
      </trkpt>
      <trkpt lat="46.8104" lon="0.45082">
        <ele>84</ele>
        <time>2019-02-17T08:46:43.000Z</time>
      </trkpt>
      <trkpt lat="46.81039" lon="0.45082">
        <ele>83</ele>
        <time>2019-02-17T08:46:44.000Z</time>
      </trkpt>
      <trkpt lat="46.81039" lon="0.45082">
        <ele>83</ele>
        <time>2019-02-17T08:46:45.000Z</time>
      </trkpt>
      <trkpt lat="46.81038" lon="0.45082">
        <ele>84</ele>
        <time>2019-02-17T08:46:46.000Z</time>
      </trkpt>
      <trkpt lat="46.81038" lon="0.45082">
        <ele>84</ele>
        <time>2019-02-17T08:46:47.000Z</time>
      </trkpt>
      <trkpt lat="46.81038" lon="0.45082">
        <ele>84</ele>
        <time>2019-02-17T08:46:48.000Z</time>
      </trkpt>
      <trkpt lat="46.81038" lon="0.45082">
        <ele>84</ele>
        <time>2019-02-17T08:46:49.000Z</time>
      </trkpt>
      <trkpt lat="46.81038" lon="0.45081">
        <ele>83</ele>
        <time>2019-02-17T08:46:50.000Z</time>
      </trkpt>
      <trkpt lat="46.81038" lon="0.45081">
        <ele>83</ele>
        <time>2019-02-17T08:46:51.000Z</time>
      </trkpt>
      <trkpt lat="46.81038" lon="0.45081">
        <ele>84</ele>
        <time>2019-02-17T08:46:52.000Z</time>
      </trkpt>
      <trkpt lat="46.81038" lon="0.45081">
        <ele>84</ele>
        <time>2019-02-17T08:46:53.000Z</time>
      </trkpt>
      <trkpt lat="46.81038" lon="0.45081">
        <ele>84</ele>
        <time>2019-02-17T08:46:54.000Z</time>
      </trkpt>
      <trkpt lat="46.81038" lon="0.45081">
        <ele>84</ele>
        <time>2019-02-17T08:46:55.000Z</time>
      </trkpt>
      <trkpt lat="46.81037" lon="0.45081">
        <ele>84</ele>
        <time>2019-02-17T08:46:56.000Z</time>
      </trkpt>
      <trkpt lat="46.81037" lon="0.45081">
        <ele>84</ele>
        <time>2019-02-17T08:46:57.000Z</time>
      </trkpt>
      <trkpt lat="46.81037" lon="0.45081">
        <ele>84</ele>
        <time>2019-02-17T08:46:58.000Z</time>
      </trkpt>
      <trkpt lat="46.81037" lon="0.45082">
        <ele>84</ele>
        <time>2019-02-17T08:46:59.000Z</time>
      </trkpt>
      <trkpt lat="46.81037" lon="0.45082">
        <ele>84</ele>
        <time>2019-02-17T08:47:00.000Z</time>
      </trkpt>
      <trkpt lat="46.81037" lon="0.45082">
        <ele>84</ele>
        <time>2019-02-17T08:47:01.000Z</time>
      </trkpt>
      <trkpt lat="46.81037" lon="0.45081">
        <ele>84</ele>
        <time>2019-02-17T08:47:02.000Z</time>
      </trkpt>
      <trkpt lat="46.81037" lon="0.45081">
        <ele>84</ele>
        <time>2019-02-17T08:47:03.000Z</time>
      </trkpt>
      <trkpt lat="46.81036" lon="0.45082">
        <ele>84</ele>
        <time>2019-02-17T08:47:04.000Z</time>
      </trkpt>
      <trkpt lat="46.81037" lon="0.45082">
        <ele>83</ele>
        <time>2019-02-17T08:47:05.000Z</time>
      </trkpt>
      <trkpt lat="46.81037" lon="0.45082">
        <ele>83</ele>
        <time>2019-02-17T08:47:06.000Z</time>
      </trkpt>
      <trkpt lat="46.81036" lon="0.45082">
        <ele>83</ele>
        <time>2019-02-17T08:47:07.000Z</time>
      </trkpt>
      <trkpt lat="46.81035" lon="0.45081">
        <ele>83</ele>
        <time>2019-02-17T08:47:08.000Z</time>
      </trkpt>
      <trkpt lat="46.81034" lon="0.4508">
        <ele>82</ele>
        <time>2019-02-17T08:47:09.000Z</time>
      </trkpt>
      <trkpt lat="46.81033" lon="0.45079">
        <ele>82</ele>
        <time>2019-02-17T08:47:10.000Z</time>
      </trkpt>
      <trkpt lat="46.81031" lon="0.45078">
        <ele>81</ele>
        <time>2019-02-17T08:47:11.000Z</time>
      </trkpt>
      <trkpt lat="46.81029" lon="0.45077">
        <ele>81</ele>
        <time>2019-02-17T08:47:12.000Z</time>
      </trkpt>
      <trkpt lat="46.81028" lon="0.45075">
        <ele>81</ele>
        <time>2019-02-17T08:47:13.000Z</time>
      </trkpt>
      <trkpt lat="46.81027" lon="0.45074">
        <ele>80</ele>
        <time>2019-02-17T08:47:14.000Z</time>
      </trkpt>
      <trkpt lat="46.81026" lon="0.45074">
        <ele>80</ele>
        <time>2019-02-17T08:47:15.000Z</time>
      </trkpt>
      <trkpt lat="46.81026" lon="0.45074">
        <ele>80</ele>
        <time>2019-02-17T08:47:16.000Z</time>
      </trkpt>
      <trkpt lat="46.81026" lon="0.45074">
        <ele>81</ele>
        <time>2019-02-17T08:47:17.000Z</time>
      </trkpt>
      <trkpt lat="46.81026" lon="0.45074">
        <ele>81</ele>
        <time>2019-02-17T08:47:18.000Z</time>
      </trkpt>
      <trkpt lat="46.81026" lon="0.45074">
        <ele>81</ele>
        <time>2019-02-17T08:47:19.000Z</time>
      </trkpt>
      <trkpt lat="46.81026" lon="0.45074">
        <ele>81</ele>
        <time>2019-02-17T08:47:20.000Z</time>
      </trkpt>
      <trkpt lat="46.81026" lon="0.45074">
        <ele>82</ele>
        <time>2019-02-17T08:47:21.000Z</time>
      </trkpt>
      <trkpt lat="46.81026" lon="0.45074">
        <ele>81</ele>
        <time>2019-02-17T08:47:22.000Z</time>
      </trkpt>
      <trkpt lat="46.81026" lon="0.45074">
        <ele>81</ele>
        <time>2019-02-17T08:47:23.000Z</time>
      </trkpt>
      <trkpt lat="46.81026" lon="0.45074">
        <ele>81</ele>
        <time>2019-02-17T08:47:24.000Z</time>
      </trkpt>
      <trkpt lat="46.81026" lon="0.45074">
        <ele>80</ele>
        <time>2019-02-17T08:47:25.000Z</time>
      </trkpt>
      <trkpt lat="46.81026" lon="0.45075">
        <ele>80</ele>
        <time>2019-02-17T08:47:26.000Z</time>
      </trkpt>
      <trkpt lat="46.81026" lon="0.45075">
        <ele>79</ele>
        <time>2019-02-17T08:47:27.000Z</time>
      </trkpt>
      <trkpt lat="46.81025" lon="0.45074">
        <ele>78</ele>
        <time>2019-02-17T08:47:28.000Z</time>
      </trkpt>
      <trkpt lat="46.81023" lon="0.45073">
        <ele>78</ele>
        <time>2019-02-17T08:47:29.000Z</time>
      </trkpt>
      <trkpt lat="46.81021" lon="0.45072">
        <ele>78</ele>
        <time>2019-02-17T08:47:30.000Z</time>
      </trkpt>
      <trkpt lat="46.81019" lon="0.4507">
        <ele>78</ele>
        <time>2019-02-17T08:47:31.000Z</time>
      </trkpt>
      <trkpt lat="46.81017" lon="0.45068">
        <ele>79</ele>
        <time>2019-02-17T08:47:32.000Z</time>
      </trkpt>
      <trkpt lat="46.81014" lon="0.45066">
        <ele>80</ele>
        <time>2019-02-17T08:47:33.000Z</time>
      </trkpt>
      <trkpt lat="46.81011" lon="0.45064">
        <ele>80</ele>
        <time>2019-02-17T08:47:34.000Z</time>
      </trkpt>
      <trkpt lat="46.81008" lon="0.45062">
        <ele>80</ele>
        <time>2019-02-17T08:47:35.000Z</time>
      </trkpt>
      <trkpt lat="46.81005" lon="0.4506">
        <ele>79</ele>
        <time>2019-02-17T08:47:36.000Z</time>
      </trkpt>
      <trkpt lat="46.81002" lon="0.45057">
        <ele>77</ele>
        <time>2019-02-17T08:47:37.000Z</time>
      </trkpt>
      <trkpt lat="46.80998" lon="0.45055">
        <ele>75</ele>
        <time>2019-02-17T08:47:38.000Z</time>
      </trkpt>
      <trkpt lat="46.80993" lon="0.45052">
        <ele>75</ele>
        <time>2019-02-17T08:47:39.000Z</time>
      </trkpt>
      <trkpt lat="46.80989" lon="0.4505">
        <ele>75</ele>
        <time>2019-02-17T08:47:40.000Z</time>
      </trkpt>
      <trkpt lat="46.80984" lon="0.45046">
        <ele>75</ele>
        <time>2019-02-17T08:47:41.000Z</time>
      </trkpt>
      <trkpt lat="46.8098" lon="0.45043">
        <ele>76</ele>
        <time>2019-02-17T08:47:42.000Z</time>
      </trkpt>
      <trkpt lat="46.80977" lon="0.45038">
        <ele>74</ele>
        <time>2019-02-17T08:47:43.000Z</time>
      </trkpt>
      <trkpt lat="46.80976" lon="0.45031">
        <ele>74</ele>
        <time>2019-02-17T08:47:44.000Z</time>
      </trkpt>
      <trkpt lat="46.80976" lon="0.45024">
        <ele>73</ele>
        <time>2019-02-17T08:47:45.000Z</time>
      </trkpt>
      <trkpt lat="46.80976" lon="0.45018">
        <ele>73</ele>
        <time>2019-02-17T08:47:46.000Z</time>
      </trkpt>
      <trkpt lat="46.80976" lon="0.45013">
        <ele>72</ele>
        <time>2019-02-17T08:47:47.000Z</time>
      </trkpt>
      <trkpt lat="46.80975" lon="0.45009">
        <ele>71</ele>
        <time>2019-02-17T08:47:48.000Z</time>
      </trkpt>
      <trkpt lat="46.80975" lon="0.45006">
        <ele>71</ele>
        <time>2019-02-17T08:47:49.000Z</time>
      </trkpt>
      <trkpt lat="46.80977" lon="0.45002">
        <ele>72</ele>
        <time>2019-02-17T08:47:50.000Z</time>
      </trkpt>
      <trkpt lat="46.80978" lon="0.44997">
        <ele>72</ele>
        <time>2019-02-17T08:47:51.000Z</time>
      </trkpt>
      <trkpt lat="46.80979" lon="0.44993">
        <ele>72</ele>
        <time>2019-02-17T08:47:52.000Z</time>
      </trkpt>
      <trkpt lat="46.8098" lon="0.44988">
        <ele>72</ele>
        <time>2019-02-17T08:47:53.000Z</time>
      </trkpt>
      <trkpt lat="46.80981" lon="0.44984">
        <ele>72</ele>
        <time>2019-02-17T08:47:54.000Z</time>
      </trkpt>
      <trkpt lat="46.80983" lon="0.44979">
        <ele>71</ele>
        <time>2019-02-17T08:47:55.000Z</time>
      </trkpt>
      <trkpt lat="46.80985" lon="0.44974">
        <ele>71</ele>
        <time>2019-02-17T08:47:56.000Z</time>
      </trkpt>
      <trkpt lat="46.80986" lon="0.44969">
        <ele>69</ele>
        <time>2019-02-17T08:47:57.000Z</time>
      </trkpt>
      <trkpt lat="46.80988" lon="0.44964">
        <ele>67</ele>
        <time>2019-02-17T08:47:58.000Z</time>
      </trkpt>
      <trkpt lat="46.80989" lon="0.44959">
        <ele>66</ele>
        <time>2019-02-17T08:47:59.000Z</time>
      </trkpt>
      <trkpt lat="46.80991" lon="0.44955">
        <ele>65</ele>
        <time>2019-02-17T08:48:00.000Z</time>
      </trkpt>
      <trkpt lat="46.80992" lon="0.4495">
        <ele>64</ele>
        <time>2019-02-17T08:48:01.000Z</time>
      </trkpt>
      <trkpt lat="46.80994" lon="0.44945">
        <ele>63</ele>
        <time>2019-02-17T08:48:02.000Z</time>
      </trkpt>
      <trkpt lat="46.80995" lon="0.4494">
        <ele>62</ele>
        <time>2019-02-17T08:48:03.000Z</time>
      </trkpt>
      <trkpt lat="46.80996" lon="0.44935">
        <ele>62</ele>
        <time>2019-02-17T08:48:04.000Z</time>
      </trkpt>
      <trkpt lat="46.80997" lon="0.4493">
        <ele>62</ele>
        <time>2019-02-17T08:48:05.000Z</time>
      </trkpt>
      <trkpt lat="46.80999" lon="0.44925">
        <ele>61</ele>
        <time>2019-02-17T08:48:06.000Z</time>
      </trkpt>
      <trkpt lat="46.81" lon="0.4492">
        <ele>61</ele>
        <time>2019-02-17T08:48:07.000Z</time>
      </trkpt>
      <trkpt lat="46.81002" lon="0.44914">
        <ele>62</ele>
        <time>2019-02-17T08:48:08.000Z</time>
      </trkpt>
      <trkpt lat="46.81003" lon="0.44908">
        <ele>62</ele>
        <time>2019-02-17T08:48:09.000Z</time>
      </trkpt>
      <trkpt lat="46.81004" lon="0.44902">
        <ele>60</ele>
        <time>2019-02-17T08:48:10.000Z</time>
      </trkpt>
      <trkpt lat="46.81005" lon="0.44897">
        <ele>59</ele>
        <time>2019-02-17T08:48:11.000Z</time>
      </trkpt>
      <trkpt lat="46.81007" lon="0.44892">
        <ele>56</ele>
        <time>2019-02-17T08:48:12.000Z</time>
      </trkpt>
      <trkpt lat="46.81008" lon="0.44886">
        <ele>55</ele>
        <time>2019-02-17T08:48:13.000Z</time>
      </trkpt>
      <trkpt lat="46.81009" lon="0.44881">
        <ele>54</ele>
        <time>2019-02-17T08:48:14.000Z</time>
      </trkpt>
      <trkpt lat="46.8101" lon="0.44875">
        <ele>54</ele>
        <time>2019-02-17T08:48:15.000Z</time>
      </trkpt>
      <trkpt lat="46.81011" lon="0.4487">
        <ele>53</ele>
        <time>2019-02-17T08:48:16.000Z</time>
      </trkpt>
      <trkpt lat="46.81013" lon="0.44865">
        <ele>52</ele>
        <time>2019-02-17T08:48:17.000Z</time>
      </trkpt>
      <trkpt lat="46.81015" lon="0.44861">
        <ele>51</ele>
        <time>2019-02-17T08:48:18.000Z</time>
      </trkpt>
      <trkpt lat="46.81017" lon="0.44857">
        <ele>50</ele>
        <time>2019-02-17T08:48:19.000Z</time>
      </trkpt>
      <trkpt lat="46.81019" lon="0.44852">
        <ele>50</ele>
        <time>2019-02-17T08:48:20.000Z</time>
      </trkpt>
      <trkpt lat="46.81022" lon="0.44846">
        <ele>50</ele>
        <time>2019-02-17T08:48:21.000Z</time>
      </trkpt>
      <trkpt lat="46.81024" lon="0.44841">
        <ele>48</ele>
        <time>2019-02-17T08:48:22.000Z</time>
      </trkpt>
      <trkpt lat="46.81026" lon="0.44835">
        <ele>48</ele>
        <time>2019-02-17T08:48:23.000Z</time>
      </trkpt>
      <trkpt lat="46.81028" lon="0.44828">
        <ele>50</ele>
        <time>2019-02-17T08:48:24.000Z</time>
      </trkpt>
      <trkpt lat="46.81029" lon="0.44821">
        <ele>50</ele>
        <time>2019-02-17T08:48:25.000Z</time>
      </trkpt>
      <trkpt lat="46.8103" lon="0.44815">
        <ele>50</ele>
        <time>2019-02-17T08:48:26.000Z</time>
      </trkpt>
      <trkpt lat="46.81032" lon="0.44809">
        <ele>49</ele>
        <time>2019-02-17T08:48:27.000Z</time>
      </trkpt>
      <trkpt lat="46.81033" lon="0.44803">
        <ele>49</ele>
        <time>2019-02-17T08:48:28.000Z</time>
      </trkpt>
      <trkpt lat="46.81035" lon="0.44796">
        <ele>49</ele>
        <time>2019-02-17T08:48:29.000Z</time>
      </trkpt>
      <trkpt lat="46.81037" lon="0.4479">
        <ele>48</ele>
        <time>2019-02-17T08:48:30.000Z</time>
      </trkpt>
      <trkpt lat="46.81038" lon="0.44784">
        <ele>49</ele>
        <time>2019-02-17T08:48:31.000Z</time>
      </trkpt>
      <trkpt lat="46.81039" lon="0.44777">
        <ele>51</ele>
        <time>2019-02-17T08:48:32.000Z</time>
      </trkpt>
      <trkpt lat="46.8104" lon="0.4477">
        <ele>51</ele>
        <time>2019-02-17T08:48:33.000Z</time>
      </trkpt>
      <trkpt lat="46.81042" lon="0.44763">
        <ele>52</ele>
        <time>2019-02-17T08:48:34.000Z</time>
      </trkpt>
      <trkpt lat="46.81044" lon="0.44757">
        <ele>52</ele>
        <time>2019-02-17T08:48:35.000Z</time>
      </trkpt>
      <trkpt lat="46.81045" lon="0.4475">
        <ele>55</ele>
        <time>2019-02-17T08:48:36.000Z</time>
      </trkpt>
      <trkpt lat="46.81046" lon="0.44743">
        <ele>54</ele>
        <time>2019-02-17T08:48:37.000Z</time>
      </trkpt>
      <trkpt lat="46.81047" lon="0.44735">
        <ele>56</ele>
        <time>2019-02-17T08:48:38.000Z</time>
      </trkpt>
      <trkpt lat="46.81049" lon="0.44729">
        <ele>55</ele>
        <time>2019-02-17T08:48:39.000Z</time>
      </trkpt>
      <trkpt lat="46.8105" lon="0.44722">
        <ele>56</ele>
        <time>2019-02-17T08:48:40.000Z</time>
      </trkpt>
      <trkpt lat="46.81051" lon="0.44715">
        <ele>57</ele>
        <time>2019-02-17T08:48:41.000Z</time>
      </trkpt>
      <trkpt lat="46.81052" lon="0.44708">
        <ele>57</ele>
        <time>2019-02-17T08:48:42.000Z</time>
      </trkpt>
      <trkpt lat="46.81053" lon="0.44703">
        <ele>58</ele>
        <time>2019-02-17T08:48:43.000Z</time>
      </trkpt>
      <trkpt lat="46.81054" lon="0.44699">
        <ele>60</ele>
        <time>2019-02-17T08:48:44.000Z</time>
      </trkpt>
      <trkpt lat="46.81054" lon="0.44696">
        <ele>63</ele>
        <time>2019-02-17T08:48:45.000Z</time>
      </trkpt>
      <trkpt lat="46.81054" lon="0.44694">
        <ele>65</ele>
        <time>2019-02-17T08:48:46.000Z</time>
      </trkpt>
      <trkpt lat="46.81053" lon="0.44692">
        <ele>67</ele>
        <time>2019-02-17T08:48:47.000Z</time>
      </trkpt>
      <trkpt lat="46.81052" lon="0.44691">
        <ele>67</ele>
        <time>2019-02-17T08:48:48.000Z</time>
      </trkpt>
      <trkpt lat="46.81051" lon="0.44692">
        <ele>67</ele>
        <time>2019-02-17T08:48:49.000Z</time>
      </trkpt>
      <trkpt lat="46.8105" lon="0.44695">
        <ele>67</ele>
        <time>2019-02-17T08:48:50.000Z</time>
      </trkpt>
      <trkpt lat="46.81049" lon="0.44698">
        <ele>67</ele>
        <time>2019-02-17T08:48:51.000Z</time>
      </trkpt>
      <trkpt lat="46.81048" lon="0.44701">
        <ele>68</ele>
        <time>2019-02-17T08:48:52.000Z</time>
      </trkpt>
      <trkpt lat="46.81047" lon="0.44703">
        <ele>67</ele>
        <time>2019-02-17T08:48:53.000Z</time>
      </trkpt>
      <trkpt lat="46.81046" lon="0.44705">
        <ele>68</ele>
        <time>2019-02-17T08:48:54.000Z</time>
      </trkpt>
      <trkpt lat="46.81046" lon="0.44705">
        <ele>67</ele>
        <time>2019-02-17T08:48:55.000Z</time>
      </trkpt>
      <trkpt lat="46.81045" lon="0.44705">
        <ele>68</ele>
        <time>2019-02-17T08:48:56.000Z</time>
      </trkpt>
      <trkpt lat="46.81045" lon="0.44705">
        <ele>68</ele>
        <time>2019-02-17T08:48:57.000Z</time>
      </trkpt>
      <trkpt lat="46.81045" lon="0.44705">
        <ele>69</ele>
        <time>2019-02-17T08:48:58.000Z</time>
      </trkpt>
      <trkpt lat="46.81046" lon="0.44705">
        <ele>69</ele>
        <time>2019-02-17T08:48:59.000Z</time>
      </trkpt>
      <trkpt lat="46.81046" lon="0.44705">
        <ele>70</ele>
        <time>2019-02-17T08:49:00.000Z</time>
      </trkpt>
      <trkpt lat="46.81046" lon="0.44705">
        <ele>70</ele>
        <time>2019-02-17T08:49:01.000Z</time>
      </trkpt>
      <trkpt lat="46.81046" lon="0.44705">
        <ele>70</ele>
        <time>2019-02-17T08:49:02.000Z</time>
      </trkpt>
      <trkpt lat="46.81046" lon="0.44705">
        <ele>71</ele>
        <time>2019-02-17T08:49:03.000Z</time>
      </trkpt>
      <trkpt lat="46.81046" lon="0.44705">
        <ele>72</ele>
        <time>2019-02-17T08:49:04.000Z</time>
      </trkpt>
      <trkpt lat="46.81046" lon="0.44705">
        <ele>72</ele>
        <time>2019-02-17T08:49:05.000Z</time>
      </trkpt>
      <trkpt lat="46.81046" lon="0.44705">
        <ele>73</ele>
        <time>2019-02-17T08:49:06.000Z</time>
      </trkpt>
      <trkpt lat="46.81046" lon="0.44705">
        <ele>73</ele>
        <time>2019-02-17T08:49:07.000Z</time>
      </trkpt>
      <trkpt lat="46.81046" lon="0.44704">
        <ele>74</ele>
        <time>2019-02-17T08:49:08.000Z</time>
      </trkpt>
      <trkpt lat="46.81046" lon="0.44704">
        <ele>75</ele>
        <time>2019-02-17T08:49:09.000Z</time>
      </trkpt>
      <trkpt lat="46.81046" lon="0.44704">
        <ele>75</ele>
        <time>2019-02-17T08:49:10.000Z</time>
      </trkpt>
      <trkpt lat="46.81046" lon="0.44704">
        <ele>76</ele>
        <time>2019-02-17T08:49:11.000Z</time>
      </trkpt>
      <trkpt lat="46.81046" lon="0.44703">
        <ele>76</ele>
        <time>2019-02-17T08:49:12.000Z</time>
      </trkpt>
      <trkpt lat="46.81046" lon="0.44703">
        <ele>77</ele>
        <time>2019-02-17T08:49:13.000Z</time>
      </trkpt>
      <trkpt lat="46.81046" lon="0.44703">
        <ele>77</ele>
        <time>2019-02-17T08:49:14.000Z</time>
      </trkpt>
      <trkpt lat="46.81046" lon="0.44703">
        <ele>78</ele>
        <time>2019-02-17T08:49:15.000Z</time>
      </trkpt>
      <trkpt lat="46.81046" lon="0.44703">
        <ele>78</ele>
        <time>2019-02-17T08:49:16.000Z</time>
      </trkpt>
      <trkpt lat="46.81046" lon="0.44702">
        <ele>78</ele>
        <time>2019-02-17T08:49:17.000Z</time>
      </trkpt>
      <trkpt lat="46.81047" lon="0.44702">
        <ele>79</ele>
        <time>2019-02-17T08:49:18.000Z</time>
      </trkpt>
      <trkpt lat="46.81047" lon="0.44702">
        <ele>79</ele>
        <time>2019-02-17T08:49:19.000Z</time>
      </trkpt>
      <trkpt lat="46.81047" lon="0.44702">
        <ele>79</ele>
        <time>2019-02-17T08:49:20.000Z</time>
      </trkpt>
      <trkpt lat="46.81047" lon="0.44702">
        <ele>79</ele>
        <time>2019-02-17T08:49:21.000Z</time>
      </trkpt>
      <trkpt lat="46.81048" lon="0.44701">
        <ele>79</ele>
        <time>2019-02-17T08:49:22.000Z</time>
      </trkpt>
      <trkpt lat="46.81048" lon="0.44701">
        <ele>80</ele>
        <time>2019-02-17T08:49:23.000Z</time>
      </trkpt>
      <trkpt lat="46.81048" lon="0.44701">
        <ele>79</ele>
        <time>2019-02-17T08:49:24.000Z</time>
      </trkpt>
      <trkpt lat="46.81048" lon="0.44701">
        <ele>78</ele>
        <time>2019-02-17T08:49:25.000Z</time>
      </trkpt>
      <trkpt lat="46.81048" lon="0.44701">
        <ele>78</ele>
        <time>2019-02-17T08:49:26.000Z</time>
      </trkpt>
      <trkpt lat="46.81048" lon="0.44701">
        <ele>79</ele>
        <time>2019-02-17T08:49:27.000Z</time>
      </trkpt>
      <trkpt lat="46.81049" lon="0.44701">
        <ele>79</ele>
        <time>2019-02-17T08:49:28.000Z</time>
      </trkpt>
      <trkpt lat="46.81049" lon="0.44701">
        <ele>79</ele>
        <time>2019-02-17T08:49:29.000Z</time>
      </trkpt>
      <trkpt lat="46.81049" lon="0.44701">
        <ele>79</ele>
        <time>2019-02-17T08:49:30.000Z</time>
      </trkpt>
      <trkpt lat="46.81049" lon="0.44701">
        <ele>79</ele>
        <time>2019-02-17T08:49:31.000Z</time>
      </trkpt>
      <trkpt lat="46.81049" lon="0.44701">
        <ele>80</ele>
        <time>2019-02-17T08:49:32.000Z</time>
      </trkpt>
      <trkpt lat="46.81049" lon="0.44701">
        <ele>80</ele>
        <time>2019-02-17T08:49:33.000Z</time>
      </trkpt>
      <trkpt lat="46.81049" lon="0.44701">
        <ele>81</ele>
        <time>2019-02-17T08:49:34.000Z</time>
      </trkpt>
      <trkpt lat="46.81049" lon="0.44701">
        <ele>81</ele>
        <time>2019-02-17T08:49:35.000Z</time>
      </trkpt>
      <trkpt lat="46.81049" lon="0.447">
        <ele>82</ele>
        <time>2019-02-17T08:49:36.000Z</time>
      </trkpt>
      <trkpt lat="46.81049" lon="0.447">
        <ele>82</ele>
        <time>2019-02-17T08:49:37.000Z</time>
      </trkpt>
      <trkpt lat="46.81049" lon="0.447">
        <ele>83</ele>
        <time>2019-02-17T08:49:38.000Z</time>
      </trkpt>
      <trkpt lat="46.81049" lon="0.447">
        <ele>83</ele>
        <time>2019-02-17T08:49:39.000Z</time>
      </trkpt>
      <trkpt lat="46.8105" lon="0.447">
        <ele>82</ele>
        <time>2019-02-17T08:49:40.000Z</time>
      </trkpt>
      <trkpt lat="46.81051" lon="0.44701">
        <ele>79</ele>
        <time>2019-02-17T08:49:41.000Z</time>
      </trkpt>
      <trkpt lat="46.81053" lon="0.44701">
        <ele>79</ele>
        <time>2019-02-17T08:49:42.000Z</time>
      </trkpt>
      <trkpt lat="46.81054" lon="0.44702">
        <ele>78</ele>
        <time>2019-02-17T08:49:43.000Z</time>
      </trkpt>
      <trkpt lat="46.81056" lon="0.44702">
        <ele>77</ele>
        <time>2019-02-17T08:49:44.000Z</time>
      </trkpt>
      <trkpt lat="46.81057" lon="0.44701">
        <ele>77</ele>
        <time>2019-02-17T08:49:45.000Z</time>
      </trkpt>
      <trkpt lat="46.81058" lon="0.44701">
        <ele>76</ele>
        <time>2019-02-17T08:49:46.000Z</time>
      </trkpt>
      <trkpt lat="46.8106" lon="0.44701">
        <ele>76</ele>
        <time>2019-02-17T08:49:47.000Z</time>
      </trkpt>
      <trkpt lat="46.81062" lon="0.44701">
        <ele>76</ele>
        <time>2019-02-17T08:49:48.000Z</time>
      </trkpt>
      <trkpt lat="46.81064" lon="0.44702">
        <ele>76</ele>
        <time>2019-02-17T08:49:49.000Z</time>
      </trkpt>
      <trkpt lat="46.81066" lon="0.44702">
        <ele>75</ele>
        <time>2019-02-17T08:49:50.000Z</time>
      </trkpt>
      <trkpt lat="46.81069" lon="0.44702">
        <ele>75</ele>
        <time>2019-02-17T08:49:51.000Z</time>
      </trkpt>
      <trkpt lat="46.81071" lon="0.44702">
        <ele>75</ele>
        <time>2019-02-17T08:49:52.000Z</time>
      </trkpt>
      <trkpt lat="46.81074" lon="0.44702">
        <ele>75</ele>
        <time>2019-02-17T08:49:53.000Z</time>
      </trkpt>
      <trkpt lat="46.81077" lon="0.44701">
        <ele>75</ele>
        <time>2019-02-17T08:49:54.000Z</time>
      </trkpt>
      <trkpt lat="46.8108" lon="0.44701">
        <ele>75</ele>
        <time>2019-02-17T08:49:55.000Z</time>
      </trkpt>
      <trkpt lat="46.81082" lon="0.44701">
        <ele>74</ele>
        <time>2019-02-17T08:49:56.000Z</time>
      </trkpt>
      <trkpt lat="46.81085" lon="0.44701">
        <ele>74</ele>
        <time>2019-02-17T08:49:57.000Z</time>
      </trkpt>
      <trkpt lat="46.81087" lon="0.44701">
        <ele>73</ele>
        <time>2019-02-17T08:49:58.000Z</time>
      </trkpt>
      <trkpt lat="46.8109" lon="0.44701">
        <ele>71</ele>
        <time>2019-02-17T08:49:59.000Z</time>
      </trkpt>
      <trkpt lat="46.81092" lon="0.44701">
        <ele>71</ele>
        <time>2019-02-17T08:50:00.000Z</time>
      </trkpt>
      <trkpt lat="46.81095" lon="0.44701">
        <ele>71</ele>
        <time>2019-02-17T08:50:01.000Z</time>
      </trkpt>
      <trkpt lat="46.81097" lon="0.44701">
        <ele>71</ele>
        <time>2019-02-17T08:50:02.000Z</time>
      </trkpt>
      <trkpt lat="46.811" lon="0.44701">
        <ele>71</ele>
        <time>2019-02-17T08:50:03.000Z</time>
      </trkpt>
      <trkpt lat="46.81102" lon="0.44701">
        <ele>70</ele>
        <time>2019-02-17T08:50:04.000Z</time>
      </trkpt>
      <trkpt lat="46.81105" lon="0.44701">
        <ele>70</ele>
        <time>2019-02-17T08:50:05.000Z</time>
      </trkpt>
      <trkpt lat="46.81108" lon="0.44701">
        <ele>71</ele>
        <time>2019-02-17T08:50:06.000Z</time>
      </trkpt>
      <trkpt lat="46.81111" lon="0.44701">
        <ele>72</ele>
        <time>2019-02-17T08:50:07.000Z</time>
      </trkpt>
      <trkpt lat="46.81114" lon="0.44701">
        <ele>72</ele>
        <time>2019-02-17T08:50:08.000Z</time>
      </trkpt>
      <trkpt lat="46.81117" lon="0.44702">
        <ele>72</ele>
        <time>2019-02-17T08:50:09.000Z</time>
      </trkpt>
      <trkpt lat="46.81121" lon="0.44702">
        <ele>72</ele>
        <time>2019-02-17T08:50:10.000Z</time>
      </trkpt>
      <trkpt lat="46.81124" lon="0.44702">
        <ele>72</ele>
        <time>2019-02-17T08:50:11.000Z</time>
      </trkpt>
      <trkpt lat="46.81127" lon="0.44702">
        <ele>73</ele>
        <time>2019-02-17T08:50:12.000Z</time>
      </trkpt>
      <trkpt lat="46.8113" lon="0.44701">
        <ele>72</ele>
        <time>2019-02-17T08:50:13.000Z</time>
      </trkpt>
      <trkpt lat="46.81134" lon="0.44701">
        <ele>72</ele>
        <time>2019-02-17T08:50:14.000Z</time>
      </trkpt>
      <trkpt lat="46.81138" lon="0.44701">
        <ele>72</ele>
        <time>2019-02-17T08:50:15.000Z</time>
      </trkpt>
      <trkpt lat="46.81141" lon="0.44701">
        <ele>73</ele>
        <time>2019-02-17T08:50:16.000Z</time>
      </trkpt>
      <trkpt lat="46.81145" lon="0.44701">
        <ele>73</ele>
        <time>2019-02-17T08:50:17.000Z</time>
      </trkpt>
      <trkpt lat="46.81149" lon="0.447">
        <ele>72</ele>
        <time>2019-02-17T08:50:18.000Z</time>
      </trkpt>
      <trkpt lat="46.81152" lon="0.44701">
        <ele>73</ele>
        <time>2019-02-17T08:50:19.000Z</time>
      </trkpt>
      <trkpt lat="46.81155" lon="0.44701">
        <ele>73</ele>
        <time>2019-02-17T08:50:20.000Z</time>
      </trkpt>
      <trkpt lat="46.81159" lon="0.44701">
        <ele>74</ele>
        <time>2019-02-17T08:50:21.000Z</time>
      </trkpt>
      <trkpt lat="46.81162" lon="0.44702">
        <ele>75</ele>
        <time>2019-02-17T08:50:22.000Z</time>
      </trkpt>
      <trkpt lat="46.81165" lon="0.44702">
        <ele>74</ele>
        <time>2019-02-17T08:50:23.000Z</time>
      </trkpt>
      <trkpt lat="46.81168" lon="0.44702">
        <ele>74</ele>
        <time>2019-02-17T08:50:24.000Z</time>
      </trkpt>
      <trkpt lat="46.81171" lon="0.44702">
        <ele>74</ele>
        <time>2019-02-17T08:50:25.000Z</time>
      </trkpt>
      <trkpt lat="46.81174" lon="0.44703">
        <ele>74</ele>
        <time>2019-02-17T08:50:26.000Z</time>
      </trkpt>
      <trkpt lat="46.81177" lon="0.44703">
        <ele>73</ele>
        <time>2019-02-17T08:50:27.000Z</time>
      </trkpt>
      <trkpt lat="46.8118" lon="0.44703">
        <ele>73</ele>
        <time>2019-02-17T08:50:28.000Z</time>
      </trkpt>
      <trkpt lat="46.81183" lon="0.44703">
        <ele>73</ele>
        <time>2019-02-17T08:50:29.000Z</time>
      </trkpt>
      <trkpt lat="46.81187" lon="0.44702">
        <ele>72</ele>
        <time>2019-02-17T08:50:30.000Z</time>
      </trkpt>
      <trkpt lat="46.8119" lon="0.44702">
        <ele>73</ele>
        <time>2019-02-17T08:50:31.000Z</time>
      </trkpt>
      <trkpt lat="46.81193" lon="0.44703">
        <ele>73</ele>
        <time>2019-02-17T08:50:32.000Z</time>
      </trkpt>
      <trkpt lat="46.81196" lon="0.44704">
        <ele>72</ele>
        <time>2019-02-17T08:50:33.000Z</time>
      </trkpt>
      <trkpt lat="46.81199" lon="0.44705">
        <ele>73</ele>
        <time>2019-02-17T08:50:34.000Z</time>
      </trkpt>
      <trkpt lat="46.81202" lon="0.44705">
        <ele>74</ele>
        <time>2019-02-17T08:50:35.000Z</time>
      </trkpt>
      <trkpt lat="46.81204" lon="0.44706">
        <ele>74</ele>
        <time>2019-02-17T08:50:36.000Z</time>
      </trkpt>
      <trkpt lat="46.81207" lon="0.44706">
        <ele>74</ele>
        <time>2019-02-17T08:50:37.000Z</time>
      </trkpt>
      <trkpt lat="46.8121" lon="0.44707">
        <ele>74</ele>
        <time>2019-02-17T08:50:38.000Z</time>
      </trkpt>
      <trkpt lat="46.81212" lon="0.44707">
        <ele>75</ele>
        <time>2019-02-17T08:50:39.000Z</time>
      </trkpt>
      <trkpt lat="46.81216" lon="0.44706">
        <ele>76</ele>
        <time>2019-02-17T08:50:40.000Z</time>
      </trkpt>
      <trkpt lat="46.81219" lon="0.44705">
        <ele>77</ele>
        <time>2019-02-17T08:50:41.000Z</time>
      </trkpt>
      <trkpt lat="46.81222" lon="0.44705">
        <ele>77</ele>
        <time>2019-02-17T08:50:42.000Z</time>
      </trkpt>
      <trkpt lat="46.81226" lon="0.44704">
        <ele>77</ele>
        <time>2019-02-17T08:50:43.000Z</time>
      </trkpt>
      <trkpt lat="46.81229" lon="0.44704">
        <ele>77</ele>
        <time>2019-02-17T08:50:44.000Z</time>
      </trkpt>
      <trkpt lat="46.81232" lon="0.44704">
        <ele>77</ele>
        <time>2019-02-17T08:50:45.000Z</time>
      </trkpt>
      <trkpt lat="46.81235" lon="0.44705">
        <ele>78</ele>
        <time>2019-02-17T08:50:46.000Z</time>
      </trkpt>
      <trkpt lat="46.81238" lon="0.44705">
        <ele>78</ele>
        <time>2019-02-17T08:50:47.000Z</time>
      </trkpt>
      <trkpt lat="46.81242" lon="0.44706">
        <ele>78</ele>
        <time>2019-02-17T08:50:48.000Z</time>
      </trkpt>
      <trkpt lat="46.81245" lon="0.44706">
        <ele>78</ele>
        <time>2019-02-17T08:50:49.000Z</time>
      </trkpt>
      <trkpt lat="46.81247" lon="0.44706">
        <ele>78</ele>
        <time>2019-02-17T08:50:50.000Z</time>
      </trkpt>
      <trkpt lat="46.8125" lon="0.44706">
        <ele>78</ele>
        <time>2019-02-17T08:50:51.000Z</time>
      </trkpt>
      <trkpt lat="46.81253" lon="0.44706">
        <ele>78</ele>
        <time>2019-02-17T08:50:52.000Z</time>
      </trkpt>
      <trkpt lat="46.81256" lon="0.44705">
        <ele>78</ele>
        <time>2019-02-17T08:50:53.000Z</time>
      </trkpt>
      <trkpt lat="46.81259" lon="0.44706">
        <ele>79</ele>
        <time>2019-02-17T08:50:54.000Z</time>
      </trkpt>
      <trkpt lat="46.81262" lon="0.44706">
        <ele>79</ele>
        <time>2019-02-17T08:50:55.000Z</time>
      </trkpt>
      <trkpt lat="46.81265" lon="0.44706">
        <ele>80</ele>
        <time>2019-02-17T08:50:56.000Z</time>
      </trkpt>
      <trkpt lat="46.81268" lon="0.44706">
        <ele>81</ele>
        <time>2019-02-17T08:50:57.000Z</time>
      </trkpt>
      <trkpt lat="46.81271" lon="0.44707">
        <ele>83</ele>
        <time>2019-02-17T08:50:58.000Z</time>
      </trkpt>
      <trkpt lat="46.81274" lon="0.44707">
        <ele>84</ele>
        <time>2019-02-17T08:50:59.000Z</time>
      </trkpt>
      <trkpt lat="46.81278" lon="0.44708">
        <ele>86</ele>
        <time>2019-02-17T08:51:00.000Z</time>
      </trkpt>
      <trkpt lat="46.81281" lon="0.44709">
        <ele>86</ele>
        <time>2019-02-17T08:51:01.000Z</time>
      </trkpt>
      <trkpt lat="46.81285" lon="0.4471">
        <ele>87</ele>
        <time>2019-02-17T08:51:02.000Z</time>
      </trkpt>
      <trkpt lat="46.81288" lon="0.44711">
        <ele>87</ele>
        <time>2019-02-17T08:51:03.000Z</time>
      </trkpt>
      <trkpt lat="46.81291" lon="0.44711">
        <ele>89</ele>
        <time>2019-02-17T08:51:04.000Z</time>
      </trkpt>
      <trkpt lat="46.81294" lon="0.44711">
        <ele>89</ele>
        <time>2019-02-17T08:51:05.000Z</time>
      </trkpt>
      <trkpt lat="46.81297" lon="0.44711">
        <ele>90</ele>
        <time>2019-02-17T08:51:06.000Z</time>
      </trkpt>
      <trkpt lat="46.813" lon="0.44711">
        <ele>90</ele>
        <time>2019-02-17T08:51:07.000Z</time>
      </trkpt>
      <trkpt lat="46.81303" lon="0.44711">
        <ele>91</ele>
        <time>2019-02-17T08:51:08.000Z</time>
      </trkpt>
      <trkpt lat="46.81307" lon="0.4471">
        <ele>91</ele>
        <time>2019-02-17T08:51:09.000Z</time>
      </trkpt>
      <trkpt lat="46.8131" lon="0.44711">
        <ele>92</ele>
        <time>2019-02-17T08:51:10.000Z</time>
      </trkpt>
      <trkpt lat="46.81313" lon="0.44711">
        <ele>91</ele>
        <time>2019-02-17T08:51:11.000Z</time>
      </trkpt>
      <trkpt lat="46.81316" lon="0.44711">
        <ele>91</ele>
        <time>2019-02-17T08:51:12.000Z</time>
      </trkpt>
      <trkpt lat="46.81319" lon="0.44711">
        <ele>92</ele>
        <time>2019-02-17T08:51:13.000Z</time>
      </trkpt>
      <trkpt lat="46.81322" lon="0.4471">
        <ele>91</ele>
        <time>2019-02-17T08:51:14.000Z</time>
      </trkpt>
      <trkpt lat="46.81326" lon="0.4471">
        <ele>91</ele>
        <time>2019-02-17T08:51:15.000Z</time>
      </trkpt>
      <trkpt lat="46.81329" lon="0.4471">
        <ele>91</ele>
        <time>2019-02-17T08:51:16.000Z</time>
      </trkpt>
      <trkpt lat="46.81332" lon="0.4471">
        <ele>91</ele>
        <time>2019-02-17T08:51:17.000Z</time>
      </trkpt>
      <trkpt lat="46.81336" lon="0.4471">
        <ele>91</ele>
        <time>2019-02-17T08:51:18.000Z</time>
      </trkpt>
      <trkpt lat="46.81339" lon="0.4471">
        <ele>91</ele>
        <time>2019-02-17T08:51:19.000Z</time>
      </trkpt>
      <trkpt lat="46.81342" lon="0.4471">
        <ele>91</ele>
        <time>2019-02-17T08:51:20.000Z</time>
      </trkpt>
      <trkpt lat="46.81345" lon="0.4471">
        <ele>91</ele>
        <time>2019-02-17T08:51:21.000Z</time>
      </trkpt>
      <trkpt lat="46.81347" lon="0.4471">
        <ele>91</ele>
        <time>2019-02-17T08:51:22.000Z</time>
      </trkpt>
      <trkpt lat="46.8135" lon="0.4471">
        <ele>91</ele>
        <time>2019-02-17T08:51:23.000Z</time>
      </trkpt>
      <trkpt lat="46.81353" lon="0.4471">
        <ele>92</ele>
        <time>2019-02-17T08:51:24.000Z</time>
      </trkpt>
      <trkpt lat="46.81355" lon="0.44709">
        <ele>92</ele>
        <time>2019-02-17T08:51:25.000Z</time>
      </trkpt>
      <trkpt lat="46.81358" lon="0.44709">
        <ele>92</ele>
        <time>2019-02-17T08:51:26.000Z</time>
      </trkpt>
      <trkpt lat="46.8136" lon="0.44708">
        <ele>92</ele>
        <time>2019-02-17T08:51:27.000Z</time>
      </trkpt>
      <trkpt lat="46.81362" lon="0.44707">
        <ele>91</ele>
        <time>2019-02-17T08:51:28.000Z</time>
      </trkpt>
      <trkpt lat="46.81363" lon="0.44706">
        <ele>91</ele>
        <time>2019-02-17T08:51:29.000Z</time>
      </trkpt>
      <trkpt lat="46.81364" lon="0.44703">
        <ele>91</ele>
        <time>2019-02-17T08:51:30.000Z</time>
      </trkpt>
      <trkpt lat="46.81365" lon="0.447">
        <ele>91</ele>
        <time>2019-02-17T08:51:31.000Z</time>
      </trkpt>
      <trkpt lat="46.81365" lon="0.44697">
        <ele>90</ele>
        <time>2019-02-17T08:51:32.000Z</time>
      </trkpt>
      <trkpt lat="46.81366" lon="0.44695">
        <ele>91</ele>
        <time>2019-02-17T08:51:33.000Z</time>
      </trkpt>
      <trkpt lat="46.81366" lon="0.44692">
        <ele>90</ele>
        <time>2019-02-17T08:51:34.000Z</time>
      </trkpt>
      <trkpt lat="46.81366" lon="0.44689">
        <ele>91</ele>
        <time>2019-02-17T08:51:35.000Z</time>
      </trkpt>
      <trkpt lat="46.81366" lon="0.44686">
        <ele>91</ele>
        <time>2019-02-17T08:51:36.000Z</time>
      </trkpt>
      <trkpt lat="46.81366" lon="0.44684">
        <ele>91</ele>
        <time>2019-02-17T08:51:37.000Z</time>
      </trkpt>
      <trkpt lat="46.81366" lon="0.44681">
        <ele>91</ele>
        <time>2019-02-17T08:51:38.000Z</time>
      </trkpt>
      <trkpt lat="46.81366" lon="0.44678">
        <ele>91</ele>
        <time>2019-02-17T08:51:39.000Z</time>
      </trkpt>
      <trkpt lat="46.81366" lon="0.44676">
        <ele>91</ele>
        <time>2019-02-17T08:51:40.000Z</time>
      </trkpt>
      <trkpt lat="46.81366" lon="0.44673">
        <ele>91</ele>
        <time>2019-02-17T08:51:41.000Z</time>
      </trkpt>
      <trkpt lat="46.81367" lon="0.44671">
        <ele>91</ele>
        <time>2019-02-17T08:51:42.000Z</time>
      </trkpt>
      <trkpt lat="46.81367" lon="0.44668">
        <ele>91</ele>
        <time>2019-02-17T08:51:43.000Z</time>
      </trkpt>
      <trkpt lat="46.81366" lon="0.44666">
        <ele>92</ele>
        <time>2019-02-17T08:51:44.000Z</time>
      </trkpt>
      <trkpt lat="46.81366" lon="0.44664">
        <ele>92</ele>
        <time>2019-02-17T08:51:45.000Z</time>
      </trkpt>
      <trkpt lat="46.81366" lon="0.44661">
        <ele>92</ele>
        <time>2019-02-17T08:51:46.000Z</time>
      </trkpt>
      <trkpt lat="46.81367" lon="0.44659">
        <ele>92</ele>
        <time>2019-02-17T08:51:47.000Z</time>
      </trkpt>
      <trkpt lat="46.81367" lon="0.44655">
        <ele>92</ele>
        <time>2019-02-17T08:51:48.000Z</time>
      </trkpt>
      <trkpt lat="46.81367" lon="0.44652">
        <ele>93</ele>
        <time>2019-02-17T08:51:49.000Z</time>
      </trkpt>
      <trkpt lat="46.81366" lon="0.44649">
        <ele>93</ele>
        <time>2019-02-17T08:51:50.000Z</time>
      </trkpt>
      <trkpt lat="46.81366" lon="0.44646">
        <ele>92</ele>
        <time>2019-02-17T08:51:51.000Z</time>
      </trkpt>
      <trkpt lat="46.81366" lon="0.44642">
        <ele>92</ele>
        <time>2019-02-17T08:51:52.000Z</time>
      </trkpt>
      <trkpt lat="46.81366" lon="0.44639">
        <ele>92</ele>
        <time>2019-02-17T08:51:53.000Z</time>
      </trkpt>
      <trkpt lat="46.81366" lon="0.44635">
        <ele>92</ele>
        <time>2019-02-17T08:51:54.000Z</time>
      </trkpt>
      <trkpt lat="46.81366" lon="0.44631">
        <ele>92</ele>
        <time>2019-02-17T08:51:55.000Z</time>
      </trkpt>
      <trkpt lat="46.81367" lon="0.44627">
        <ele>91</ele>
        <time>2019-02-17T08:51:56.000Z</time>
      </trkpt>
      <trkpt lat="46.81367" lon="0.44623">
        <ele>92</ele>
        <time>2019-02-17T08:51:57.000Z</time>
      </trkpt>
      <trkpt lat="46.81367" lon="0.44618">
        <ele>91</ele>
        <time>2019-02-17T08:51:58.000Z</time>
      </trkpt>
      <trkpt lat="46.81367" lon="0.44614">
        <ele>91</ele>
        <time>2019-02-17T08:51:59.000Z</time>
      </trkpt>
      <trkpt lat="46.81368" lon="0.44609">
        <ele>90</ele>
        <time>2019-02-17T08:52:00.000Z</time>
      </trkpt>
      <trkpt lat="46.81368" lon="0.44604">
        <ele>90</ele>
        <time>2019-02-17T08:52:01.000Z</time>
      </trkpt>
      <trkpt lat="46.81369" lon="0.44598">
        <ele>90</ele>
        <time>2019-02-17T08:52:02.000Z</time>
      </trkpt>
      <trkpt lat="46.8137" lon="0.44592">
        <ele>89</ele>
        <time>2019-02-17T08:52:03.000Z</time>
      </trkpt>
      <trkpt lat="46.81371" lon="0.44586">
        <ele>89</ele>
        <time>2019-02-17T08:52:04.000Z</time>
      </trkpt>
      <trkpt lat="46.81372" lon="0.4458">
        <ele>88</ele>
        <time>2019-02-17T08:52:05.000Z</time>
      </trkpt>
      <trkpt lat="46.81373" lon="0.44575">
        <ele>86</ele>
        <time>2019-02-17T08:52:06.000Z</time>
      </trkpt>
      <trkpt lat="46.81374" lon="0.4457">
        <ele>86</ele>
        <time>2019-02-17T08:52:07.000Z</time>
      </trkpt>
      <trkpt lat="46.81376" lon="0.44564">
        <ele>85</ele>
        <time>2019-02-17T08:52:08.000Z</time>
      </trkpt>
      <trkpt lat="46.81377" lon="0.44559">
        <ele>83</ele>
        <time>2019-02-17T08:52:09.000Z</time>
      </trkpt>
      <trkpt lat="46.81378" lon="0.44554">
        <ele>83</ele>
        <time>2019-02-17T08:52:10.000Z</time>
      </trkpt>
      <trkpt lat="46.81379" lon="0.44549">
        <ele>83</ele>
        <time>2019-02-17T08:52:11.000Z</time>
      </trkpt>
      <trkpt lat="46.8138" lon="0.44544">
        <ele>82</ele>
        <time>2019-02-17T08:52:12.000Z</time>
      </trkpt>
      <trkpt lat="46.81381" lon="0.4454">
        <ele>82</ele>
        <time>2019-02-17T08:52:13.000Z</time>
      </trkpt>
      <trkpt lat="46.81382" lon="0.44536">
        <ele>82</ele>
        <time>2019-02-17T08:52:14.000Z</time>
      </trkpt>
      <trkpt lat="46.81383" lon="0.44532">
        <ele>83</ele>
        <time>2019-02-17T08:52:15.000Z</time>
      </trkpt>
      <trkpt lat="46.81383" lon="0.44528">
        <ele>84</ele>
        <time>2019-02-17T08:52:16.000Z</time>
      </trkpt>
      <trkpt lat="46.81384" lon="0.44525">
        <ele>84</ele>
        <time>2019-02-17T08:52:17.000Z</time>
      </trkpt>
      <trkpt lat="46.81384" lon="0.44523">
        <ele>85</ele>
        <time>2019-02-17T08:52:18.000Z</time>
      </trkpt>
      <trkpt lat="46.81384" lon="0.4452">
        <ele>85</ele>
        <time>2019-02-17T08:52:19.000Z</time>
      </trkpt>
      <trkpt lat="46.81384" lon="0.44518">
        <ele>85</ele>
        <time>2019-02-17T08:52:20.000Z</time>
      </trkpt>
      <trkpt lat="46.81384" lon="0.44515">
        <ele>86</ele>
        <time>2019-02-17T08:52:21.000Z</time>
      </trkpt>
      <trkpt lat="46.81384" lon="0.44512">
        <ele>87</ele>
        <time>2019-02-17T08:52:22.000Z</time>
      </trkpt>
      <trkpt lat="46.81384" lon="0.4451">
        <ele>87</ele>
        <time>2019-02-17T08:52:23.000Z</time>
      </trkpt>
      <trkpt lat="46.81385" lon="0.44507">
        <ele>87</ele>
        <time>2019-02-17T08:52:24.000Z</time>
      </trkpt>
      <trkpt lat="46.81385" lon="0.44505">
        <ele>88</ele>
        <time>2019-02-17T08:52:25.000Z</time>
      </trkpt>
      <trkpt lat="46.81385" lon="0.44503">
        <ele>88</ele>
        <time>2019-02-17T08:52:26.000Z</time>
      </trkpt>
      <trkpt lat="46.81386" lon="0.445">
        <ele>87</ele>
        <time>2019-02-17T08:52:27.000Z</time>
      </trkpt>
      <trkpt lat="46.81387" lon="0.44498">
        <ele>88</ele>
        <time>2019-02-17T08:52:28.000Z</time>
      </trkpt>
      <trkpt lat="46.81387" lon="0.44495">
        <ele>88</ele>
        <time>2019-02-17T08:52:29.000Z</time>
      </trkpt>
      <trkpt lat="46.81388" lon="0.44493">
        <ele>88</ele>
        <time>2019-02-17T08:52:30.000Z</time>
      </trkpt>
      <trkpt lat="46.81388" lon="0.4449">
        <ele>89</ele>
        <time>2019-02-17T08:52:31.000Z</time>
      </trkpt>
      <trkpt lat="46.81389" lon="0.44487">
        <ele>89</ele>
        <time>2019-02-17T08:52:32.000Z</time>
      </trkpt>
      <trkpt lat="46.81389" lon="0.44484">
        <ele>89</ele>
        <time>2019-02-17T08:52:33.000Z</time>
      </trkpt>
      <trkpt lat="46.8139" lon="0.44481">
        <ele>88</ele>
        <time>2019-02-17T08:52:34.000Z</time>
      </trkpt>
      <trkpt lat="46.8139" lon="0.44479">
        <ele>89</ele>
        <time>2019-02-17T08:52:35.000Z</time>
      </trkpt>
      <trkpt lat="46.81391" lon="0.44476">
        <ele>89</ele>
        <time>2019-02-17T08:52:36.000Z</time>
      </trkpt>
      <trkpt lat="46.81392" lon="0.44473">
        <ele>89</ele>
        <time>2019-02-17T08:52:37.000Z</time>
      </trkpt>
      <trkpt lat="46.81393" lon="0.4447">
        <ele>89</ele>
        <time>2019-02-17T08:52:38.000Z</time>
      </trkpt>
      <trkpt lat="46.81393" lon="0.44467">
        <ele>89</ele>
        <time>2019-02-17T08:52:39.000Z</time>
      </trkpt>
      <trkpt lat="46.81394" lon="0.44464">
        <ele>89</ele>
        <time>2019-02-17T08:52:40.000Z</time>
      </trkpt>
      <trkpt lat="46.81394" lon="0.44461">
        <ele>89</ele>
        <time>2019-02-17T08:52:41.000Z</time>
      </trkpt>
      <trkpt lat="46.81395" lon="0.44458">
        <ele>89</ele>
        <time>2019-02-17T08:52:42.000Z</time>
      </trkpt>
      <trkpt lat="46.81395" lon="0.44455">
        <ele>89</ele>
        <time>2019-02-17T08:52:43.000Z</time>
      </trkpt>
      <trkpt lat="46.81396" lon="0.44451">
        <ele>89</ele>
        <time>2019-02-17T08:52:44.000Z</time>
      </trkpt>
      <trkpt lat="46.81397" lon="0.44448">
        <ele>89</ele>
        <time>2019-02-17T08:52:45.000Z</time>
      </trkpt>
      <trkpt lat="46.81397" lon="0.44445">
        <ele>89</ele>
        <time>2019-02-17T08:52:46.000Z</time>
      </trkpt>
      <trkpt lat="46.81397" lon="0.44441">
        <ele>90</ele>
        <time>2019-02-17T08:52:47.000Z</time>
      </trkpt>
      <trkpt lat="46.81397" lon="0.44437">
        <ele>90</ele>
        <time>2019-02-17T08:52:48.000Z</time>
      </trkpt>
      <trkpt lat="46.81398" lon="0.44434">
        <ele>90</ele>
        <time>2019-02-17T08:52:49.000Z</time>
      </trkpt>
      <trkpt lat="46.81398" lon="0.4443">
        <ele>90</ele>
        <time>2019-02-17T08:52:50.000Z</time>
      </trkpt>
      <trkpt lat="46.81399" lon="0.44426">
        <ele>91</ele>
        <time>2019-02-17T08:52:51.000Z</time>
      </trkpt>
      <trkpt lat="46.81399" lon="0.44423">
        <ele>91</ele>
        <time>2019-02-17T08:52:52.000Z</time>
      </trkpt>
      <trkpt lat="46.814" lon="0.44419">
        <ele>91</ele>
        <time>2019-02-17T08:52:53.000Z</time>
      </trkpt>
      <trkpt lat="46.81401" lon="0.44416">
        <ele>91</ele>
        <time>2019-02-17T08:52:54.000Z</time>
      </trkpt>
      <trkpt lat="46.81401" lon="0.44412">
        <ele>91</ele>
        <time>2019-02-17T08:52:55.000Z</time>
      </trkpt>
      <trkpt lat="46.81401" lon="0.44409">
        <ele>91</ele>
        <time>2019-02-17T08:52:56.000Z</time>
      </trkpt>
      <trkpt lat="46.81402" lon="0.44405">
        <ele>92</ele>
        <time>2019-02-17T08:52:57.000Z</time>
      </trkpt>
      <trkpt lat="46.81402" lon="0.44402">
        <ele>91</ele>
        <time>2019-02-17T08:52:58.000Z</time>
      </trkpt>
      <trkpt lat="46.81403" lon="0.44399">
        <ele>91</ele>
        <time>2019-02-17T08:52:59.000Z</time>
      </trkpt>
      <trkpt lat="46.81404" lon="0.44396">
        <ele>91</ele>
        <time>2019-02-17T08:53:00.000Z</time>
      </trkpt>
      <trkpt lat="46.81404" lon="0.44393">
        <ele>91</ele>
        <time>2019-02-17T08:53:01.000Z</time>
      </trkpt>
      <trkpt lat="46.81405" lon="0.4439">
        <ele>90</ele>
        <time>2019-02-17T08:53:02.000Z</time>
      </trkpt>
      <trkpt lat="46.81405" lon="0.44386">
        <ele>90</ele>
        <time>2019-02-17T08:53:03.000Z</time>
      </trkpt>
      <trkpt lat="46.81406" lon="0.44383">
        <ele>90</ele>
        <time>2019-02-17T08:53:04.000Z</time>
      </trkpt>
      <trkpt lat="46.81407" lon="0.4438">
        <ele>90</ele>
        <time>2019-02-17T08:53:05.000Z</time>
      </trkpt>
      <trkpt lat="46.81407" lon="0.44376">
        <ele>90</ele>
        <time>2019-02-17T08:53:06.000Z</time>
      </trkpt>
      <trkpt lat="46.81408" lon="0.44373">
        <ele>90</ele>
        <time>2019-02-17T08:53:07.000Z</time>
      </trkpt>
      <trkpt lat="46.81409" lon="0.44369">
        <ele>90</ele>
        <time>2019-02-17T08:53:08.000Z</time>
      </trkpt>
      <trkpt lat="46.81409" lon="0.44366">
        <ele>90</ele>
        <time>2019-02-17T08:53:09.000Z</time>
      </trkpt>
      <trkpt lat="46.8141" lon="0.44362">
        <ele>90</ele>
        <time>2019-02-17T08:53:10.000Z</time>
      </trkpt>
      <trkpt lat="46.81411" lon="0.44358">
        <ele>90</ele>
        <time>2019-02-17T08:53:11.000Z</time>
      </trkpt>
      <trkpt lat="46.81411" lon="0.44355">
        <ele>90</ele>
        <time>2019-02-17T08:53:12.000Z</time>
      </trkpt>
      <trkpt lat="46.81412" lon="0.44351">
        <ele>89</ele>
        <time>2019-02-17T08:53:13.000Z</time>
      </trkpt>
      <trkpt lat="46.81413" lon="0.44347">
        <ele>90</ele>
        <time>2019-02-17T08:53:14.000Z</time>
      </trkpt>
      <trkpt lat="46.81413" lon="0.44343">
        <ele>90</ele>
        <time>2019-02-17T08:53:15.000Z</time>
      </trkpt>
      <trkpt lat="46.81414" lon="0.44339">
        <ele>91</ele>
        <time>2019-02-17T08:53:16.000Z</time>
      </trkpt>
      <trkpt lat="46.81415" lon="0.44336">
        <ele>90</ele>
        <time>2019-02-17T08:53:17.000Z</time>
      </trkpt>
      <trkpt lat="46.81416" lon="0.44332">
        <ele>90</ele>
        <time>2019-02-17T08:53:18.000Z</time>
      </trkpt>
      <trkpt lat="46.81417" lon="0.44328">
        <ele>90</ele>
        <time>2019-02-17T08:53:19.000Z</time>
      </trkpt>
      <trkpt lat="46.81419" lon="0.44324">
        <ele>90</ele>
        <time>2019-02-17T08:53:20.000Z</time>
      </trkpt>
      <trkpt lat="46.8142" lon="0.4432">
        <ele>90</ele>
        <time>2019-02-17T08:53:21.000Z</time>
      </trkpt>
      <trkpt lat="46.81421" lon="0.44316">
        <ele>90</ele>
        <time>2019-02-17T08:53:22.000Z</time>
      </trkpt>
      <trkpt lat="46.81422" lon="0.44312">
        <ele>90</ele>
        <time>2019-02-17T08:53:23.000Z</time>
      </trkpt>
      <trkpt lat="46.81424" lon="0.44308">
        <ele>90</ele>
        <time>2019-02-17T08:53:24.000Z</time>
      </trkpt>
      <trkpt lat="46.81425" lon="0.44304">
        <ele>91</ele>
        <time>2019-02-17T08:53:25.000Z</time>
      </trkpt>
      <trkpt lat="46.81426" lon="0.44299">
        <ele>91</ele>
        <time>2019-02-17T08:53:26.000Z</time>
      </trkpt>
      <trkpt lat="46.81428" lon="0.44295">
        <ele>91</ele>
        <time>2019-02-17T08:53:27.000Z</time>
      </trkpt>
      <trkpt lat="46.81429" lon="0.4429">
        <ele>91</ele>
        <time>2019-02-17T08:53:28.000Z</time>
      </trkpt>
      <trkpt lat="46.8143" lon="0.44286">
        <ele>91</ele>
        <time>2019-02-17T08:53:29.000Z</time>
      </trkpt>
      <trkpt lat="46.81432" lon="0.44281">
        <ele>91</ele>
        <time>2019-02-17T08:53:30.000Z</time>
      </trkpt>
      <trkpt lat="46.81433" lon="0.44277">
        <ele>91</ele>
        <time>2019-02-17T08:53:31.000Z</time>
      </trkpt>
      <trkpt lat="46.81434" lon="0.44273">
        <ele>92</ele>
        <time>2019-02-17T08:53:32.000Z</time>
      </trkpt>
      <trkpt lat="46.81436" lon="0.44268">
        <ele>92</ele>
        <time>2019-02-17T08:53:33.000Z</time>
      </trkpt>
      <trkpt lat="46.81437" lon="0.44264">
        <ele>92</ele>
        <time>2019-02-17T08:53:34.000Z</time>
      </trkpt>
      <trkpt lat="46.81438" lon="0.4426">
        <ele>92</ele>
        <time>2019-02-17T08:53:35.000Z</time>
      </trkpt>
      <trkpt lat="46.81439" lon="0.44255">
        <ele>92</ele>
        <time>2019-02-17T08:53:36.000Z</time>
      </trkpt>
      <trkpt lat="46.8144" lon="0.44251">
        <ele>93</ele>
        <time>2019-02-17T08:53:37.000Z</time>
      </trkpt>
      <trkpt lat="46.81441" lon="0.44247">
        <ele>93</ele>
        <time>2019-02-17T08:53:38.000Z</time>
      </trkpt>
      <trkpt lat="46.81443" lon="0.44243">
        <ele>94</ele>
        <time>2019-02-17T08:53:39.000Z</time>
      </trkpt>
      <trkpt lat="46.81444" lon="0.44239">
        <ele>94</ele>
        <time>2019-02-17T08:53:40.000Z</time>
      </trkpt>
      <trkpt lat="46.81445" lon="0.44234">
        <ele>94</ele>
        <time>2019-02-17T08:53:41.000Z</time>
      </trkpt>
      <trkpt lat="46.81446" lon="0.4423">
        <ele>94</ele>
        <time>2019-02-17T08:53:42.000Z</time>
      </trkpt>
      <trkpt lat="46.81447" lon="0.44226">
        <ele>94</ele>
        <time>2019-02-17T08:53:43.000Z</time>
      </trkpt>
      <trkpt lat="46.81448" lon="0.44221">
        <ele>94</ele>
        <time>2019-02-17T08:53:44.000Z</time>
      </trkpt>
      <trkpt lat="46.8145" lon="0.44217">
        <ele>95</ele>
        <time>2019-02-17T08:53:45.000Z</time>
      </trkpt>
      <trkpt lat="46.81451" lon="0.44212">
        <ele>95</ele>
        <time>2019-02-17T08:53:46.000Z</time>
      </trkpt>
      <trkpt lat="46.81452" lon="0.44208">
        <ele>95</ele>
        <time>2019-02-17T08:53:47.000Z</time>
      </trkpt>
      <trkpt lat="46.81454" lon="0.44204">
        <ele>95</ele>
        <time>2019-02-17T08:53:48.000Z</time>
      </trkpt>
      <trkpt lat="46.81455" lon="0.44199">
        <ele>95</ele>
        <time>2019-02-17T08:53:49.000Z</time>
      </trkpt>
      <trkpt lat="46.81457" lon="0.44195">
        <ele>95</ele>
        <time>2019-02-17T08:53:50.000Z</time>
      </trkpt>
      <trkpt lat="46.81458" lon="0.4419">
        <ele>95</ele>
        <time>2019-02-17T08:53:51.000Z</time>
      </trkpt>
      <trkpt lat="46.8146" lon="0.44185">
        <ele>94</ele>
        <time>2019-02-17T08:53:52.000Z</time>
      </trkpt>
      <trkpt lat="46.81461" lon="0.44181">
        <ele>94</ele>
        <time>2019-02-17T08:53:53.000Z</time>
      </trkpt>
      <trkpt lat="46.81463" lon="0.44176">
        <ele>94</ele>
        <time>2019-02-17T08:53:54.000Z</time>
      </trkpt>
      <trkpt lat="46.81464" lon="0.44171">
        <ele>94</ele>
        <time>2019-02-17T08:53:55.000Z</time>
      </trkpt>
      <trkpt lat="46.81465" lon="0.44167">
        <ele>94</ele>
        <time>2019-02-17T08:53:56.000Z</time>
      </trkpt>
      <trkpt lat="46.81467" lon="0.44162">
        <ele>94</ele>
        <time>2019-02-17T08:53:57.000Z</time>
      </trkpt>
      <trkpt lat="46.81468" lon="0.44157">
        <ele>94</ele>
        <time>2019-02-17T08:53:58.000Z</time>
      </trkpt>
      <trkpt lat="46.81469" lon="0.44152">
        <ele>94</ele>
        <time>2019-02-17T08:53:59.000Z</time>
      </trkpt>
      <trkpt lat="46.8147" lon="0.44147">
        <ele>94</ele>
        <time>2019-02-17T08:54:00.000Z</time>
      </trkpt>
      <trkpt lat="46.81472" lon="0.44142">
        <ele>94</ele>
        <time>2019-02-17T08:54:01.000Z</time>
      </trkpt>
      <trkpt lat="46.81473" lon="0.44137">
        <ele>94</ele>
        <time>2019-02-17T08:54:02.000Z</time>
      </trkpt>
      <trkpt lat="46.81474" lon="0.44131">
        <ele>94</ele>
        <time>2019-02-17T08:54:03.000Z</time>
      </trkpt>
      <trkpt lat="46.81475" lon="0.44126">
        <ele>94</ele>
        <time>2019-02-17T08:54:04.000Z</time>
      </trkpt>
      <trkpt lat="46.81476" lon="0.4412">
        <ele>94</ele>
        <time>2019-02-17T08:54:05.000Z</time>
      </trkpt>
      <trkpt lat="46.81477" lon="0.44115">
        <ele>93</ele>
        <time>2019-02-17T08:54:06.000Z</time>
      </trkpt>
      <trkpt lat="46.81478" lon="0.44109">
        <ele>93</ele>
        <time>2019-02-17T08:54:07.000Z</time>
      </trkpt>
      <trkpt lat="46.81479" lon="0.44104">
        <ele>93</ele>
        <time>2019-02-17T08:54:08.000Z</time>
      </trkpt>
      <trkpt lat="46.81479" lon="0.44099">
        <ele>93</ele>
        <time>2019-02-17T08:54:09.000Z</time>
      </trkpt>
      <trkpt lat="46.8148" lon="0.44093">
        <ele>93</ele>
        <time>2019-02-17T08:54:10.000Z</time>
      </trkpt>
      <trkpt lat="46.81481" lon="0.44088">
        <ele>93</ele>
        <time>2019-02-17T08:54:11.000Z</time>
      </trkpt>
      <trkpt lat="46.81482" lon="0.44082">
        <ele>93</ele>
        <time>2019-02-17T08:54:12.000Z</time>
      </trkpt>
      <trkpt lat="46.81482" lon="0.44077">
        <ele>93</ele>
        <time>2019-02-17T08:54:13.000Z</time>
      </trkpt>
      <trkpt lat="46.81483" lon="0.44071">
        <ele>93</ele>
        <time>2019-02-17T08:54:14.000Z</time>
      </trkpt>
      <trkpt lat="46.81483" lon="0.44065">
        <ele>92</ele>
        <time>2019-02-17T08:54:15.000Z</time>
      </trkpt>
      <trkpt lat="46.81483" lon="0.4406">
        <ele>93</ele>
        <time>2019-02-17T08:54:16.000Z</time>
      </trkpt>
      <trkpt lat="46.81484" lon="0.44054">
        <ele>93</ele>
        <time>2019-02-17T08:54:17.000Z</time>
      </trkpt>
      <trkpt lat="46.81484" lon="0.44048">
        <ele>93</ele>
        <time>2019-02-17T08:54:18.000Z</time>
      </trkpt>
      <trkpt lat="46.81484" lon="0.44042">
        <ele>93</ele>
        <time>2019-02-17T08:54:19.000Z</time>
      </trkpt>
      <trkpt lat="46.81485" lon="0.44036">
        <ele>93</ele>
        <time>2019-02-17T08:54:20.000Z</time>
      </trkpt>
      <trkpt lat="46.81485" lon="0.4403">
        <ele>92</ele>
        <time>2019-02-17T08:54:21.000Z</time>
      </trkpt>
      <trkpt lat="46.81486" lon="0.44024">
        <ele>92</ele>
        <time>2019-02-17T08:54:22.000Z</time>
      </trkpt>
      <trkpt lat="46.81487" lon="0.44018">
        <ele>92</ele>
        <time>2019-02-17T08:54:23.000Z</time>
      </trkpt>
      <trkpt lat="46.81488" lon="0.44012">
        <ele>92</ele>
        <time>2019-02-17T08:54:24.000Z</time>
      </trkpt>
      <trkpt lat="46.81488" lon="0.44006">
        <ele>91</ele>
        <time>2019-02-17T08:54:25.000Z</time>
      </trkpt>
      <trkpt lat="46.81489" lon="0.44">
        <ele>91</ele>
        <time>2019-02-17T08:54:26.000Z</time>
      </trkpt>
      <trkpt lat="46.8149" lon="0.43994">
        <ele>91</ele>
        <time>2019-02-17T08:54:27.000Z</time>
      </trkpt>
      <trkpt lat="46.8149" lon="0.43988">
        <ele>91</ele>
        <time>2019-02-17T08:54:28.000Z</time>
      </trkpt>
      <trkpt lat="46.81491" lon="0.43982">
        <ele>92</ele>
        <time>2019-02-17T08:54:29.000Z</time>
      </trkpt>
      <trkpt lat="46.81491" lon="0.43976">
        <ele>92</ele>
        <time>2019-02-17T08:54:30.000Z</time>
      </trkpt>
      <trkpt lat="46.81492" lon="0.43971">
        <ele>92</ele>
        <time>2019-02-17T08:54:31.000Z</time>
      </trkpt>
      <trkpt lat="46.81492" lon="0.43966">
        <ele>92</ele>
        <time>2019-02-17T08:54:32.000Z</time>
      </trkpt>
      <trkpt lat="46.81493" lon="0.4396">
        <ele>93</ele>
        <time>2019-02-17T08:54:33.000Z</time>
      </trkpt>
      <trkpt lat="46.81495" lon="0.43955">
        <ele>92</ele>
        <time>2019-02-17T08:54:34.000Z</time>
      </trkpt>
      <trkpt lat="46.81497" lon="0.4395">
        <ele>93</ele>
        <time>2019-02-17T08:54:35.000Z</time>
      </trkpt>
      <trkpt lat="46.815" lon="0.43947">
        <ele>92</ele>
        <time>2019-02-17T08:54:36.000Z</time>
      </trkpt>
      <trkpt lat="46.81503" lon="0.43945">
        <ele>90</ele>
        <time>2019-02-17T08:54:37.000Z</time>
      </trkpt>
      <trkpt lat="46.81506" lon="0.43945">
        <ele>92</ele>
        <time>2019-02-17T08:54:38.000Z</time>
      </trkpt>
      <trkpt lat="46.81509" lon="0.43946">
        <ele>93</ele>
        <time>2019-02-17T08:54:39.000Z</time>
      </trkpt>
      <trkpt lat="46.81512" lon="0.43947">
        <ele>93</ele>
        <time>2019-02-17T08:54:40.000Z</time>
      </trkpt>
      <trkpt lat="46.81515" lon="0.43948">
        <ele>94</ele>
        <time>2019-02-17T08:54:41.000Z</time>
      </trkpt>
      <trkpt lat="46.81519" lon="0.43948">
        <ele>95</ele>
        <time>2019-02-17T08:54:42.000Z</time>
      </trkpt>
      <trkpt lat="46.81521" lon="0.43949">
        <ele>95</ele>
        <time>2019-02-17T08:54:43.000Z</time>
      </trkpt>
      <trkpt lat="46.81523" lon="0.43949">
        <ele>95</ele>
        <time>2019-02-17T08:54:44.000Z</time>
      </trkpt>
      <trkpt lat="46.81525" lon="0.43949">
        <ele>95</ele>
        <time>2019-02-17T08:54:45.000Z</time>
      </trkpt>
      <trkpt lat="46.81526" lon="0.43949">
        <ele>95</ele>
        <time>2019-02-17T08:54:46.000Z</time>
      </trkpt>
      <trkpt lat="46.81526" lon="0.43949">
        <ele>95</ele>
        <time>2019-02-17T08:54:47.000Z</time>
      </trkpt>
      <trkpt lat="46.81527" lon="0.43949">
        <ele>95</ele>
        <time>2019-02-17T08:54:48.000Z</time>
      </trkpt>
      <trkpt lat="46.81528" lon="0.43949">
        <ele>95</ele>
        <time>2019-02-17T08:54:49.000Z</time>
      </trkpt>
      <trkpt lat="46.81529" lon="0.43949">
        <ele>95</ele>
        <time>2019-02-17T08:54:50.000Z</time>
      </trkpt>
      <trkpt lat="46.8153" lon="0.43948">
        <ele>95</ele>
        <time>2019-02-17T08:54:51.000Z</time>
      </trkpt>
      <trkpt lat="46.81531" lon="0.43946">
        <ele>95</ele>
        <time>2019-02-17T08:54:52.000Z</time>
      </trkpt>
      <trkpt lat="46.81532" lon="0.43943">
        <ele>94</ele>
        <time>2019-02-17T08:54:53.000Z</time>
      </trkpt>
      <trkpt lat="46.81533" lon="0.43939">
        <ele>94</ele>
        <time>2019-02-17T08:54:54.000Z</time>
      </trkpt>
      <trkpt lat="46.81533" lon="0.43935">
        <ele>94</ele>
        <time>2019-02-17T08:54:55.000Z</time>
      </trkpt>
      <trkpt lat="46.81532" lon="0.4393">
        <ele>95</ele>
        <time>2019-02-17T08:54:56.000Z</time>
      </trkpt>
      <trkpt lat="46.81532" lon="0.43925">
        <ele>94</ele>
        <time>2019-02-17T08:54:57.000Z</time>
      </trkpt>
      <trkpt lat="46.81532" lon="0.4392">
        <ele>94</ele>
        <time>2019-02-17T08:54:58.000Z</time>
      </trkpt>
      <trkpt lat="46.81531" lon="0.43914">
        <ele>94</ele>
        <time>2019-02-17T08:54:59.000Z</time>
      </trkpt>
      <trkpt lat="46.81531" lon="0.43909">
        <ele>94</ele>
        <time>2019-02-17T08:55:00.000Z</time>
      </trkpt>
      <trkpt lat="46.81531" lon="0.43904">
        <ele>94</ele>
        <time>2019-02-17T08:55:01.000Z</time>
      </trkpt>
      <trkpt lat="46.8153" lon="0.43898">
        <ele>94</ele>
        <time>2019-02-17T08:55:02.000Z</time>
      </trkpt>
      <trkpt lat="46.8153" lon="0.43893">
        <ele>94</ele>
        <time>2019-02-17T08:55:03.000Z</time>
      </trkpt>
      <trkpt lat="46.81529" lon="0.43887">
        <ele>94</ele>
        <time>2019-02-17T08:55:04.000Z</time>
      </trkpt>
      <trkpt lat="46.81529" lon="0.43881">
        <ele>94</ele>
        <time>2019-02-17T08:55:05.000Z</time>
      </trkpt>
      <trkpt lat="46.81529" lon="0.43876">
        <ele>95</ele>
        <time>2019-02-17T08:55:06.000Z</time>
      </trkpt>
      <trkpt lat="46.81529" lon="0.4387">
        <ele>94</ele>
        <time>2019-02-17T08:55:07.000Z</time>
      </trkpt>
      <trkpt lat="46.81531" lon="0.43866">
        <ele>95</ele>
        <time>2019-02-17T08:55:08.000Z</time>
      </trkpt>
      <trkpt lat="46.81535" lon="0.43864">
        <ele>94</ele>
        <time>2019-02-17T08:55:09.000Z</time>
      </trkpt>
      <trkpt lat="46.81539" lon="0.43865">
        <ele>94</ele>
        <time>2019-02-17T08:55:10.000Z</time>
      </trkpt>
      <trkpt lat="46.81543" lon="0.43866">
        <ele>95</ele>
        <time>2019-02-17T08:55:11.000Z</time>
      </trkpt>
      <trkpt lat="46.81547" lon="0.43868">
        <ele>95</ele>
        <time>2019-02-17T08:55:12.000Z</time>
      </trkpt>
      <trkpt lat="46.8155" lon="0.43869">
        <ele>96</ele>
        <time>2019-02-17T08:55:13.000Z</time>
      </trkpt>
      <trkpt lat="46.81554" lon="0.43871">
        <ele>96</ele>
        <time>2019-02-17T08:55:14.000Z</time>
      </trkpt>
      <trkpt lat="46.81557" lon="0.43873">
        <ele>96</ele>
        <time>2019-02-17T08:55:15.000Z</time>
      </trkpt>
      <trkpt lat="46.8156" lon="0.43874">
        <ele>97</ele>
        <time>2019-02-17T08:55:16.000Z</time>
      </trkpt>
      <trkpt lat="46.81564" lon="0.43876">
        <ele>97</ele>
        <time>2019-02-17T08:55:17.000Z</time>
      </trkpt>
      <trkpt lat="46.81568" lon="0.43878">
        <ele>97</ele>
        <time>2019-02-17T08:55:18.000Z</time>
      </trkpt>
      <trkpt lat="46.81571" lon="0.4388">
        <ele>98</ele>
        <time>2019-02-17T08:55:19.000Z</time>
      </trkpt>
      <trkpt lat="46.81575" lon="0.43882">
        <ele>98</ele>
        <time>2019-02-17T08:55:20.000Z</time>
      </trkpt>
      <trkpt lat="46.81578" lon="0.43883">
        <ele>98</ele>
        <time>2019-02-17T08:55:21.000Z</time>
      </trkpt>
      <trkpt lat="46.81582" lon="0.43885">
        <ele>98</ele>
        <time>2019-02-17T08:55:22.000Z</time>
      </trkpt>
      <trkpt lat="46.81586" lon="0.43887">
        <ele>99</ele>
        <time>2019-02-17T08:55:23.000Z</time>
      </trkpt>
      <trkpt lat="46.81589" lon="0.43889">
        <ele>99</ele>
        <time>2019-02-17T08:55:24.000Z</time>
      </trkpt>
      <trkpt lat="46.81593" lon="0.43891">
        <ele>99</ele>
        <time>2019-02-17T08:55:25.000Z</time>
      </trkpt>
      <trkpt lat="46.81597" lon="0.43893">
        <ele>100</ele>
        <time>2019-02-17T08:55:26.000Z</time>
      </trkpt>
      <trkpt lat="46.81601" lon="0.43895">
        <ele>100</ele>
        <time>2019-02-17T08:55:27.000Z</time>
      </trkpt>
      <trkpt lat="46.81604" lon="0.43897">
        <ele>100</ele>
        <time>2019-02-17T08:55:28.000Z</time>
      </trkpt>
      <trkpt lat="46.81608" lon="0.439">
        <ele>100</ele>
        <time>2019-02-17T08:55:29.000Z</time>
      </trkpt>
      <trkpt lat="46.81612" lon="0.43902">
        <ele>100</ele>
        <time>2019-02-17T08:55:30.000Z</time>
      </trkpt>
      <trkpt lat="46.81615" lon="0.43904">
        <ele>101</ele>
        <time>2019-02-17T08:55:31.000Z</time>
      </trkpt>
      <trkpt lat="46.81619" lon="0.43906">
        <ele>101</ele>
        <time>2019-02-17T08:55:32.000Z</time>
      </trkpt>
      <trkpt lat="46.81623" lon="0.43908">
        <ele>101</ele>
        <time>2019-02-17T08:55:33.000Z</time>
      </trkpt>
      <trkpt lat="46.81627" lon="0.4391">
        <ele>101</ele>
        <time>2019-02-17T08:55:34.000Z</time>
      </trkpt>
      <trkpt lat="46.8163" lon="0.43912">
        <ele>101</ele>
        <time>2019-02-17T08:55:35.000Z</time>
      </trkpt>
      <trkpt lat="46.81634" lon="0.43914">
        <ele>101</ele>
        <time>2019-02-17T08:55:36.000Z</time>
      </trkpt>
      <trkpt lat="46.81638" lon="0.43916">
        <ele>101</ele>
        <time>2019-02-17T08:55:37.000Z</time>
      </trkpt>
      <trkpt lat="46.81642" lon="0.43918">
        <ele>101</ele>
        <time>2019-02-17T08:55:38.000Z</time>
      </trkpt>
      <trkpt lat="46.81645" lon="0.4392">
        <ele>101</ele>
        <time>2019-02-17T08:55:39.000Z</time>
      </trkpt>
      <trkpt lat="46.81649" lon="0.43922">
        <ele>102</ele>
        <time>2019-02-17T08:55:40.000Z</time>
      </trkpt>
      <trkpt lat="46.81652" lon="0.43924">
        <ele>102</ele>
        <time>2019-02-17T08:55:41.000Z</time>
      </trkpt>
      <trkpt lat="46.81656" lon="0.43926">
        <ele>102</ele>
        <time>2019-02-17T08:55:42.000Z</time>
      </trkpt>
      <trkpt lat="46.81659" lon="0.43927">
        <ele>102</ele>
        <time>2019-02-17T08:55:43.000Z</time>
      </trkpt>
      <trkpt lat="46.81663" lon="0.43928">
        <ele>102</ele>
        <time>2019-02-17T08:55:44.000Z</time>
      </trkpt>
      <trkpt lat="46.81667" lon="0.43928">
        <ele>100</ele>
        <time>2019-02-17T08:55:45.000Z</time>
      </trkpt>
      <trkpt lat="46.8167" lon="0.43926">
        <ele>99</ele>
        <time>2019-02-17T08:55:46.000Z</time>
      </trkpt>
      <trkpt lat="46.81671" lon="0.43922">
        <ele>99</ele>
        <time>2019-02-17T08:55:47.000Z</time>
      </trkpt>
      <trkpt lat="46.81672" lon="0.43918">
        <ele>98</ele>
        <time>2019-02-17T08:55:48.000Z</time>
      </trkpt>
      <trkpt lat="46.81673" lon="0.43913">
        <ele>98</ele>
        <time>2019-02-17T08:55:49.000Z</time>
      </trkpt>
      <trkpt lat="46.81673" lon="0.43908">
        <ele>99</ele>
        <time>2019-02-17T08:55:50.000Z</time>
      </trkpt>
      <trkpt lat="46.81673" lon="0.43902">
        <ele>99</ele>
        <time>2019-02-17T08:55:51.000Z</time>
      </trkpt>
      <trkpt lat="46.81673" lon="0.43897">
        <ele>98</ele>
        <time>2019-02-17T08:55:52.000Z</time>
      </trkpt>
      <trkpt lat="46.81674" lon="0.43891">
        <ele>98</ele>
        <time>2019-02-17T08:55:53.000Z</time>
      </trkpt>
      <trkpt lat="46.81674" lon="0.43886">
        <ele>98</ele>
        <time>2019-02-17T08:55:54.000Z</time>
      </trkpt>
      <trkpt lat="46.81674" lon="0.43881">
        <ele>98</ele>
        <time>2019-02-17T08:55:55.000Z</time>
      </trkpt>
      <trkpt lat="46.81674" lon="0.43875">
        <ele>99</ele>
        <time>2019-02-17T08:55:56.000Z</time>
      </trkpt>
      <trkpt lat="46.81674" lon="0.4387">
        <ele>99</ele>
        <time>2019-02-17T08:55:57.000Z</time>
      </trkpt>
      <trkpt lat="46.81675" lon="0.43864">
        <ele>99</ele>
        <time>2019-02-17T08:55:58.000Z</time>
      </trkpt>
      <trkpt lat="46.81675" lon="0.43858">
        <ele>99</ele>
        <time>2019-02-17T08:55:59.000Z</time>
      </trkpt>
      <trkpt lat="46.81675" lon="0.43852">
        <ele>99</ele>
        <time>2019-02-17T08:56:00.000Z</time>
      </trkpt>
      <trkpt lat="46.81675" lon="0.43846">
        <ele>100</ele>
        <time>2019-02-17T08:56:01.000Z</time>
      </trkpt>
      <trkpt lat="46.81675" lon="0.43841">
        <ele>100</ele>
        <time>2019-02-17T08:56:02.000Z</time>
      </trkpt>
      <trkpt lat="46.81675" lon="0.43835">
        <ele>100</ele>
        <time>2019-02-17T08:56:03.000Z</time>
      </trkpt>
      <trkpt lat="46.81675" lon="0.43829">
        <ele>100</ele>
        <time>2019-02-17T08:56:04.000Z</time>
      </trkpt>
      <trkpt lat="46.81676" lon="0.43823">
        <ele>101</ele>
        <time>2019-02-17T08:56:05.000Z</time>
      </trkpt>
      <trkpt lat="46.81678" lon="0.43818">
        <ele>101</ele>
        <time>2019-02-17T08:56:06.000Z</time>
      </trkpt>
      <trkpt lat="46.8168" lon="0.43813">
        <ele>101</ele>
        <time>2019-02-17T08:56:07.000Z</time>
      </trkpt>
      <trkpt lat="46.81682" lon="0.43809">
        <ele>102</ele>
        <time>2019-02-17T08:56:08.000Z</time>
      </trkpt>
      <trkpt lat="46.81685" lon="0.43804">
        <ele>102</ele>
        <time>2019-02-17T08:56:09.000Z</time>
      </trkpt>
      <trkpt lat="46.81687" lon="0.438">
        <ele>102</ele>
        <time>2019-02-17T08:56:10.000Z</time>
      </trkpt>
      <trkpt lat="46.8169" lon="0.43796">
        <ele>102</ele>
        <time>2019-02-17T08:56:11.000Z</time>
      </trkpt>
      <trkpt lat="46.81692" lon="0.43792">
        <ele>103</ele>
        <time>2019-02-17T08:56:12.000Z</time>
      </trkpt>
      <trkpt lat="46.81695" lon="0.43788">
        <ele>103</ele>
        <time>2019-02-17T08:56:13.000Z</time>
      </trkpt>
      <trkpt lat="46.81697" lon="0.43785">
        <ele>103</ele>
        <time>2019-02-17T08:56:14.000Z</time>
      </trkpt>
      <trkpt lat="46.817" lon="0.43781">
        <ele>104</ele>
        <time>2019-02-17T08:56:15.000Z</time>
      </trkpt>
      <trkpt lat="46.81702" lon="0.43777">
        <ele>104</ele>
        <time>2019-02-17T08:56:16.000Z</time>
      </trkpt>
      <trkpt lat="46.81705" lon="0.43773">
        <ele>104</ele>
        <time>2019-02-17T08:56:17.000Z</time>
      </trkpt>
      <trkpt lat="46.81708" lon="0.43769">
        <ele>104</ele>
        <time>2019-02-17T08:56:18.000Z</time>
      </trkpt>
      <trkpt lat="46.81711" lon="0.43765">
        <ele>105</ele>
        <time>2019-02-17T08:56:19.000Z</time>
      </trkpt>
      <trkpt lat="46.81713" lon="0.43761">
        <ele>105</ele>
        <time>2019-02-17T08:56:20.000Z</time>
      </trkpt>
      <trkpt lat="46.81716" lon="0.43757">
        <ele>105</ele>
        <time>2019-02-17T08:56:21.000Z</time>
      </trkpt>
      <trkpt lat="46.81719" lon="0.43753">
        <ele>105</ele>
        <time>2019-02-17T08:56:22.000Z</time>
      </trkpt>
      <trkpt lat="46.81722" lon="0.43749">
        <ele>105</ele>
        <time>2019-02-17T08:56:23.000Z</time>
      </trkpt>
      <trkpt lat="46.81724" lon="0.43745">
        <ele>105</ele>
        <time>2019-02-17T08:56:24.000Z</time>
      </trkpt>
      <trkpt lat="46.81727" lon="0.43741">
        <ele>106</ele>
        <time>2019-02-17T08:56:25.000Z</time>
      </trkpt>
      <trkpt lat="46.8173" lon="0.43737">
        <ele>106</ele>
        <time>2019-02-17T08:56:26.000Z</time>
      </trkpt>
      <trkpt lat="46.81732" lon="0.43733">
        <ele>106</ele>
        <time>2019-02-17T08:56:27.000Z</time>
      </trkpt>
      <trkpt lat="46.81735" lon="0.43729">
        <ele>106</ele>
        <time>2019-02-17T08:56:28.000Z</time>
      </trkpt>
      <trkpt lat="46.81737" lon="0.43725">
        <ele>106</ele>
        <time>2019-02-17T08:56:29.000Z</time>
      </trkpt>
      <trkpt lat="46.8174" lon="0.43721">
        <ele>106</ele>
        <time>2019-02-17T08:56:30.000Z</time>
      </trkpt>
      <trkpt lat="46.81743" lon="0.43718">
        <ele>106</ele>
        <time>2019-02-17T08:56:31.000Z</time>
      </trkpt>
      <trkpt lat="46.81745" lon="0.43714">
        <ele>107</ele>
        <time>2019-02-17T08:56:32.000Z</time>
      </trkpt>
      <trkpt lat="46.81748" lon="0.4371">
        <ele>107</ele>
        <time>2019-02-17T08:56:33.000Z</time>
      </trkpt>
      <trkpt lat="46.81751" lon="0.43706">
        <ele>107</ele>
        <time>2019-02-17T08:56:34.000Z</time>
      </trkpt>
      <trkpt lat="46.81753" lon="0.43702">
        <ele>107</ele>
        <time>2019-02-17T08:56:35.000Z</time>
      </trkpt>
      <trkpt lat="46.81756" lon="0.43698">
        <ele>107</ele>
        <time>2019-02-17T08:56:36.000Z</time>
      </trkpt>
      <trkpt lat="46.81759" lon="0.43694">
        <ele>107</ele>
        <time>2019-02-17T08:56:37.000Z</time>
      </trkpt>
      <trkpt lat="46.81761" lon="0.4369">
        <ele>107</ele>
        <time>2019-02-17T08:56:38.000Z</time>
      </trkpt>
      <trkpt lat="46.81764" lon="0.43687">
        <ele>107</ele>
        <time>2019-02-17T08:56:39.000Z</time>
      </trkpt>
      <trkpt lat="46.81767" lon="0.43683">
        <ele>107</ele>
        <time>2019-02-17T08:56:40.000Z</time>
      </trkpt>
      <trkpt lat="46.81769" lon="0.43679">
        <ele>107</ele>
        <time>2019-02-17T08:56:41.000Z</time>
      </trkpt>
      <trkpt lat="46.81772" lon="0.43675">
        <ele>107</ele>
        <time>2019-02-17T08:56:42.000Z</time>
      </trkpt>
      <trkpt lat="46.81774" lon="0.43671">
        <ele>107</ele>
        <time>2019-02-17T08:56:43.000Z</time>
      </trkpt>
      <trkpt lat="46.81777" lon="0.43667">
        <ele>107</ele>
        <time>2019-02-17T08:56:44.000Z</time>
      </trkpt>
      <trkpt lat="46.8178" lon="0.43664">
        <ele>107</ele>
        <time>2019-02-17T08:56:45.000Z</time>
      </trkpt>
      <trkpt lat="46.81782" lon="0.4366">
        <ele>107</ele>
        <time>2019-02-17T08:56:46.000Z</time>
      </trkpt>
      <trkpt lat="46.81785" lon="0.43656">
        <ele>107</ele>
        <time>2019-02-17T08:56:47.000Z</time>
      </trkpt>
      <trkpt lat="46.81788" lon="0.43652">
        <ele>107</ele>
        <time>2019-02-17T08:56:48.000Z</time>
      </trkpt>
      <trkpt lat="46.8179" lon="0.43648">
        <ele>107</ele>
        <time>2019-02-17T08:56:49.000Z</time>
      </trkpt>
      <trkpt lat="46.81793" lon="0.43644">
        <ele>107</ele>
        <time>2019-02-17T08:56:50.000Z</time>
      </trkpt>
      <trkpt lat="46.81796" lon="0.43641">
        <ele>107</ele>
        <time>2019-02-17T08:56:51.000Z</time>
      </trkpt>
      <trkpt lat="46.81799" lon="0.43637">
        <ele>107</ele>
        <time>2019-02-17T08:56:52.000Z</time>
      </trkpt>
      <trkpt lat="46.81801" lon="0.43633">
        <ele>107</ele>
        <time>2019-02-17T08:56:53.000Z</time>
      </trkpt>
      <trkpt lat="46.81804" lon="0.43629">
        <ele>107</ele>
        <time>2019-02-17T08:56:54.000Z</time>
      </trkpt>
      <trkpt lat="46.81807" lon="0.43625">
        <ele>107</ele>
        <time>2019-02-17T08:56:55.000Z</time>
      </trkpt>
      <trkpt lat="46.8181" lon="0.43621">
        <ele>107</ele>
        <time>2019-02-17T08:56:56.000Z</time>
      </trkpt>
      <trkpt lat="46.81812" lon="0.43617">
        <ele>107</ele>
        <time>2019-02-17T08:56:57.000Z</time>
      </trkpt>
      <trkpt lat="46.81815" lon="0.43613">
        <ele>107</ele>
        <time>2019-02-17T08:56:58.000Z</time>
      </trkpt>
      <trkpt lat="46.81818" lon="0.43609">
        <ele>107</ele>
        <time>2019-02-17T08:56:59.000Z</time>
      </trkpt>
      <trkpt lat="46.81821" lon="0.43605">
        <ele>107</ele>
        <time>2019-02-17T08:57:00.000Z</time>
      </trkpt>
      <trkpt lat="46.81824" lon="0.43601">
        <ele>107</ele>
        <time>2019-02-17T08:57:01.000Z</time>
      </trkpt>
      <trkpt lat="46.81826" lon="0.43597">
        <ele>107</ele>
        <time>2019-02-17T08:57:02.000Z</time>
      </trkpt>
      <trkpt lat="46.81829" lon="0.43593">
        <ele>107</ele>
        <time>2019-02-17T08:57:03.000Z</time>
      </trkpt>
      <trkpt lat="46.81831" lon="0.43589">
        <ele>107</ele>
        <time>2019-02-17T08:57:04.000Z</time>
      </trkpt>
      <trkpt lat="46.81834" lon="0.43584">
        <ele>107</ele>
        <time>2019-02-17T08:57:05.000Z</time>
      </trkpt>
      <trkpt lat="46.81836" lon="0.43579">
        <ele>107</ele>
        <time>2019-02-17T08:57:06.000Z</time>
      </trkpt>
      <trkpt lat="46.81838" lon="0.43575">
        <ele>107</ele>
        <time>2019-02-17T08:57:07.000Z</time>
      </trkpt>
      <trkpt lat="46.81841" lon="0.4357">
        <ele>107</ele>
        <time>2019-02-17T08:57:08.000Z</time>
      </trkpt>
      <trkpt lat="46.81843" lon="0.43565">
        <ele>107</ele>
        <time>2019-02-17T08:57:09.000Z</time>
      </trkpt>
      <trkpt lat="46.81845" lon="0.4356">
        <ele>107</ele>
        <time>2019-02-17T08:57:10.000Z</time>
      </trkpt>
      <trkpt lat="46.81847" lon="0.43555">
        <ele>107</ele>
        <time>2019-02-17T08:57:11.000Z</time>
      </trkpt>
      <trkpt lat="46.81849" lon="0.4355">
        <ele>107</ele>
        <time>2019-02-17T08:57:12.000Z</time>
      </trkpt>
      <trkpt lat="46.81851" lon="0.43544">
        <ele>107</ele>
        <time>2019-02-17T08:57:13.000Z</time>
      </trkpt>
      <trkpt lat="46.81853" lon="0.43539">
        <ele>107</ele>
        <time>2019-02-17T08:57:14.000Z</time>
      </trkpt>
      <trkpt lat="46.81855" lon="0.43534">
        <ele>107</ele>
        <time>2019-02-17T08:57:15.000Z</time>
      </trkpt>
      <trkpt lat="46.81858" lon="0.43529">
        <ele>107</ele>
        <time>2019-02-17T08:57:16.000Z</time>
      </trkpt>
      <trkpt lat="46.8186" lon="0.43524">
        <ele>107</ele>
        <time>2019-02-17T08:57:17.000Z</time>
      </trkpt>
      <trkpt lat="46.81862" lon="0.43519">
        <ele>107</ele>
        <time>2019-02-17T08:57:18.000Z</time>
      </trkpt>
      <trkpt lat="46.81864" lon="0.43514">
        <ele>107</ele>
        <time>2019-02-17T08:57:19.000Z</time>
      </trkpt>
      <trkpt lat="46.81867" lon="0.43508">
        <ele>107</ele>
        <time>2019-02-17T08:57:20.000Z</time>
      </trkpt>
      <trkpt lat="46.81869" lon="0.43503">
        <ele>107</ele>
        <time>2019-02-17T08:57:21.000Z</time>
      </trkpt>
      <trkpt lat="46.81871" lon="0.43498">
        <ele>107</ele>
        <time>2019-02-17T08:57:22.000Z</time>
      </trkpt>
      <trkpt lat="46.81873" lon="0.43492">
        <ele>107</ele>
        <time>2019-02-17T08:57:23.000Z</time>
      </trkpt>
      <trkpt lat="46.81876" lon="0.43487">
        <ele>107</ele>
        <time>2019-02-17T08:57:24.000Z</time>
      </trkpt>
      <trkpt lat="46.81878" lon="0.43482">
        <ele>107</ele>
        <time>2019-02-17T08:57:25.000Z</time>
      </trkpt>
      <trkpt lat="46.8188" lon="0.43476">
        <ele>107</ele>
        <time>2019-02-17T08:57:26.000Z</time>
      </trkpt>
      <trkpt lat="46.81882" lon="0.43471">
        <ele>107</ele>
        <time>2019-02-17T08:57:27.000Z</time>
      </trkpt>
      <trkpt lat="46.81884" lon="0.43465">
        <ele>107</ele>
        <time>2019-02-17T08:57:28.000Z</time>
      </trkpt>
      <trkpt lat="46.81885" lon="0.4346">
        <ele>107</ele>
        <time>2019-02-17T08:57:29.000Z</time>
      </trkpt>
      <trkpt lat="46.81887" lon="0.43454">
        <ele>107</ele>
        <time>2019-02-17T08:57:30.000Z</time>
      </trkpt>
      <trkpt lat="46.81889" lon="0.43448">
        <ele>108</ele>
        <time>2019-02-17T08:57:31.000Z</time>
      </trkpt>
      <trkpt lat="46.81891" lon="0.43443">
        <ele>108</ele>
        <time>2019-02-17T08:57:32.000Z</time>
      </trkpt>
      <trkpt lat="46.81892" lon="0.43437">
        <ele>108</ele>
        <time>2019-02-17T08:57:33.000Z</time>
      </trkpt>
      <trkpt lat="46.81894" lon="0.43431">
        <ele>108</ele>
        <time>2019-02-17T08:57:34.000Z</time>
      </trkpt>
      <trkpt lat="46.81895" lon="0.43426">
        <ele>107</ele>
        <time>2019-02-17T08:57:35.000Z</time>
      </trkpt>
      <trkpt lat="46.81896" lon="0.4342">
        <ele>107</ele>
        <time>2019-02-17T08:57:36.000Z</time>
      </trkpt>
      <trkpt lat="46.81897" lon="0.43415">
        <ele>108</ele>
        <time>2019-02-17T08:57:37.000Z</time>
      </trkpt>
      <trkpt lat="46.81899" lon="0.43409">
        <ele>108</ele>
        <time>2019-02-17T08:57:38.000Z</time>
      </trkpt>
      <trkpt lat="46.819" lon="0.43404">
        <ele>107</ele>
        <time>2019-02-17T08:57:39.000Z</time>
      </trkpt>
      <trkpt lat="46.81901" lon="0.43398">
        <ele>107</ele>
        <time>2019-02-17T08:57:40.000Z</time>
      </trkpt>
      <trkpt lat="46.81902" lon="0.43392">
        <ele>107</ele>
        <time>2019-02-17T08:57:41.000Z</time>
      </trkpt>
      <trkpt lat="46.81903" lon="0.43386">
        <ele>107</ele>
        <time>2019-02-17T08:57:42.000Z</time>
      </trkpt>
      <trkpt lat="46.81904" lon="0.43381">
        <ele>106</ele>
        <time>2019-02-17T08:57:43.000Z</time>
      </trkpt>
      <trkpt lat="46.81905" lon="0.43375">
        <ele>105</ele>
        <time>2019-02-17T08:57:44.000Z</time>
      </trkpt>
      <trkpt lat="46.81907" lon="0.43369">
        <ele>104</ele>
        <time>2019-02-17T08:57:45.000Z</time>
      </trkpt>
      <trkpt lat="46.81908" lon="0.43363">
        <ele>105</ele>
        <time>2019-02-17T08:57:46.000Z</time>
      </trkpt>
      <trkpt lat="46.81909" lon="0.43356">
        <ele>106</ele>
        <time>2019-02-17T08:57:47.000Z</time>
      </trkpt>
      <trkpt lat="46.8191" lon="0.43349">
        <ele>106</ele>
        <time>2019-02-17T08:57:48.000Z</time>
      </trkpt>
      <trkpt lat="46.81911" lon="0.43343">
        <ele>106</ele>
        <time>2019-02-17T08:57:49.000Z</time>
      </trkpt>
      <trkpt lat="46.81912" lon="0.43336">
        <ele>106</ele>
        <time>2019-02-17T08:57:50.000Z</time>
      </trkpt>
      <trkpt lat="46.81913" lon="0.4333">
        <ele>107</ele>
        <time>2019-02-17T08:57:51.000Z</time>
      </trkpt>
      <trkpt lat="46.81914" lon="0.43323">
        <ele>107</ele>
        <time>2019-02-17T08:57:52.000Z</time>
      </trkpt>
      <trkpt lat="46.81915" lon="0.43317">
        <ele>107</ele>
        <time>2019-02-17T08:57:53.000Z</time>
      </trkpt>
      <trkpt lat="46.81916" lon="0.4331">
        <ele>107</ele>
        <time>2019-02-17T08:57:54.000Z</time>
      </trkpt>
      <trkpt lat="46.81918" lon="0.43304">
        <ele>107</ele>
        <time>2019-02-17T08:57:55.000Z</time>
      </trkpt>
      <trkpt lat="46.81919" lon="0.43298">
        <ele>107</ele>
        <time>2019-02-17T08:57:56.000Z</time>
      </trkpt>
      <trkpt lat="46.8192" lon="0.43291">
        <ele>108</ele>
        <time>2019-02-17T08:57:57.000Z</time>
      </trkpt>
      <trkpt lat="46.81922" lon="0.43285">
        <ele>108</ele>
        <time>2019-02-17T08:57:58.000Z</time>
      </trkpt>
      <trkpt lat="46.81923" lon="0.43279">
        <ele>108</ele>
        <time>2019-02-17T08:57:59.000Z</time>
      </trkpt>
      <trkpt lat="46.81925" lon="0.43272">
        <ele>108</ele>
        <time>2019-02-17T08:58:00.000Z</time>
      </trkpt>
      <trkpt lat="46.81926" lon="0.43266">
        <ele>108</ele>
        <time>2019-02-17T08:58:01.000Z</time>
      </trkpt>
      <trkpt lat="46.81928" lon="0.4326">
        <ele>108</ele>
        <time>2019-02-17T08:58:02.000Z</time>
      </trkpt>
      <trkpt lat="46.81929" lon="0.43253">
        <ele>109</ele>
        <time>2019-02-17T08:58:03.000Z</time>
      </trkpt>
      <trkpt lat="46.81931" lon="0.43247">
        <ele>109</ele>
        <time>2019-02-17T08:58:04.000Z</time>
      </trkpt>
      <trkpt lat="46.81932" lon="0.43241">
        <ele>109</ele>
        <time>2019-02-17T08:58:05.000Z</time>
      </trkpt>
      <trkpt lat="46.81933" lon="0.43234">
        <ele>109</ele>
        <time>2019-02-17T08:58:06.000Z</time>
      </trkpt>
      <trkpt lat="46.81934" lon="0.43228">
        <ele>109</ele>
        <time>2019-02-17T08:58:07.000Z</time>
      </trkpt>
      <trkpt lat="46.81936" lon="0.43222">
        <ele>109</ele>
        <time>2019-02-17T08:58:08.000Z</time>
      </trkpt>
      <trkpt lat="46.81937" lon="0.43215">
        <ele>110</ele>
        <time>2019-02-17T08:58:09.000Z</time>
      </trkpt>
      <trkpt lat="46.81938" lon="0.43209">
        <ele>110</ele>
        <time>2019-02-17T08:58:10.000Z</time>
      </trkpt>
      <trkpt lat="46.81939" lon="0.43202">
        <ele>110</ele>
        <time>2019-02-17T08:58:11.000Z</time>
      </trkpt>
      <trkpt lat="46.8194" lon="0.43196">
        <ele>110</ele>
        <time>2019-02-17T08:58:12.000Z</time>
      </trkpt>
      <trkpt lat="46.81942" lon="0.43189">
        <ele>110</ele>
        <time>2019-02-17T08:58:13.000Z</time>
      </trkpt>
      <trkpt lat="46.81943" lon="0.43183">
        <ele>110</ele>
        <time>2019-02-17T08:58:14.000Z</time>
      </trkpt>
      <trkpt lat="46.81944" lon="0.43176">
        <ele>110</ele>
        <time>2019-02-17T08:58:15.000Z</time>
      </trkpt>
      <trkpt lat="46.81945" lon="0.4317">
        <ele>110</ele>
        <time>2019-02-17T08:58:16.000Z</time>
      </trkpt>
      <trkpt lat="46.81947" lon="0.43164">
        <ele>110</ele>
        <time>2019-02-17T08:58:17.000Z</time>
      </trkpt>
      <trkpt lat="46.81948" lon="0.43157">
        <ele>110</ele>
        <time>2019-02-17T08:58:18.000Z</time>
      </trkpt>
      <trkpt lat="46.81949" lon="0.43151">
        <ele>110</ele>
        <time>2019-02-17T08:58:19.000Z</time>
      </trkpt>
      <trkpt lat="46.8195" lon="0.43144">
        <ele>110</ele>
        <time>2019-02-17T08:58:20.000Z</time>
      </trkpt>
      <trkpt lat="46.81951" lon="0.43138">
        <ele>110</ele>
        <time>2019-02-17T08:58:21.000Z</time>
      </trkpt>
      <trkpt lat="46.81952" lon="0.43132">
        <ele>109</ele>
        <time>2019-02-17T08:58:22.000Z</time>
      </trkpt>
      <trkpt lat="46.81953" lon="0.43126">
        <ele>109</ele>
        <time>2019-02-17T08:58:23.000Z</time>
      </trkpt>
      <trkpt lat="46.81954" lon="0.4312">
        <ele>109</ele>
        <time>2019-02-17T08:58:24.000Z</time>
      </trkpt>
      <trkpt lat="46.81955" lon="0.43115">
        <ele>109</ele>
        <time>2019-02-17T08:58:25.000Z</time>
      </trkpt>
      <trkpt lat="46.81956" lon="0.4311">
        <ele>109</ele>
        <time>2019-02-17T08:58:26.000Z</time>
      </trkpt>
      <trkpt lat="46.81958" lon="0.43107">
        <ele>105</ele>
        <time>2019-02-17T08:58:27.000Z</time>
      </trkpt>
      <trkpt lat="46.81961" lon="0.43106">
        <ele>107</ele>
        <time>2019-02-17T08:58:28.000Z</time>
      </trkpt>
      <trkpt lat="46.81964" lon="0.43106">
        <ele>108</ele>
        <time>2019-02-17T08:58:29.000Z</time>
      </trkpt>
      <trkpt lat="46.81967" lon="0.43108">
        <ele>108</ele>
        <time>2019-02-17T08:58:30.000Z</time>
      </trkpt>
      <trkpt lat="46.8197" lon="0.4311">
        <ele>108</ele>
        <time>2019-02-17T08:58:31.000Z</time>
      </trkpt>
      <trkpt lat="46.81973" lon="0.43112">
        <ele>108</ele>
        <time>2019-02-17T08:58:32.000Z</time>
      </trkpt>
      <trkpt lat="46.81976" lon="0.43113">
        <ele>108</ele>
        <time>2019-02-17T08:58:33.000Z</time>
      </trkpt>
      <trkpt lat="46.8198" lon="0.43115">
        <ele>108</ele>
        <time>2019-02-17T08:58:34.000Z</time>
      </trkpt>
      <trkpt lat="46.81983" lon="0.43117">
        <ele>108</ele>
        <time>2019-02-17T08:58:35.000Z</time>
      </trkpt>
      <trkpt lat="46.81987" lon="0.43118">
        <ele>108</ele>
        <time>2019-02-17T08:58:36.000Z</time>
      </trkpt>
      <trkpt lat="46.81991" lon="0.4312">
        <ele>108</ele>
        <time>2019-02-17T08:58:37.000Z</time>
      </trkpt>
      <trkpt lat="46.81995" lon="0.43121">
        <ele>108</ele>
        <time>2019-02-17T08:58:38.000Z</time>
      </trkpt>
      <trkpt lat="46.81998" lon="0.43123">
        <ele>108</ele>
        <time>2019-02-17T08:58:39.000Z</time>
      </trkpt>
      <trkpt lat="46.82002" lon="0.43124">
        <ele>108</ele>
        <time>2019-02-17T08:58:40.000Z</time>
      </trkpt>
      <trkpt lat="46.82006" lon="0.43125">
        <ele>107</ele>
        <time>2019-02-17T08:58:41.000Z</time>
      </trkpt>
      <trkpt lat="46.82011" lon="0.43127">
        <ele>107</ele>
        <time>2019-02-17T08:58:42.000Z</time>
      </trkpt>
      <trkpt lat="46.82015" lon="0.43129">
        <ele>107</ele>
        <time>2019-02-17T08:58:43.000Z</time>
      </trkpt>
      <trkpt lat="46.82019" lon="0.4313">
        <ele>107</ele>
        <time>2019-02-17T08:58:44.000Z</time>
      </trkpt>
      <trkpt lat="46.82024" lon="0.43132">
        <ele>107</ele>
        <time>2019-02-17T08:58:45.000Z</time>
      </trkpt>
      <trkpt lat="46.82028" lon="0.43134">
        <ele>107</ele>
        <time>2019-02-17T08:58:46.000Z</time>
      </trkpt>
      <trkpt lat="46.82033" lon="0.43136">
        <ele>106</ele>
        <time>2019-02-17T08:58:47.000Z</time>
      </trkpt>
      <trkpt lat="46.82037" lon="0.43139">
        <ele>106</ele>
        <time>2019-02-17T08:58:48.000Z</time>
      </trkpt>
      <trkpt lat="46.82042" lon="0.43143">
        <ele>106</ele>
        <time>2019-02-17T08:58:49.000Z</time>
      </trkpt>
      <trkpt lat="46.82046" lon="0.43147">
        <ele>106</ele>
        <time>2019-02-17T08:58:50.000Z</time>
      </trkpt>
      <trkpt lat="46.8205" lon="0.43151">
        <ele>105</ele>
        <time>2019-02-17T08:58:51.000Z</time>
      </trkpt>
      <trkpt lat="46.82054" lon="0.43156">
        <ele>105</ele>
        <time>2019-02-17T08:58:52.000Z</time>
      </trkpt>
      <trkpt lat="46.82057" lon="0.43161">
        <ele>105</ele>
        <time>2019-02-17T08:58:53.000Z</time>
      </trkpt>
      <trkpt lat="46.82061" lon="0.43167">
        <ele>104</ele>
        <time>2019-02-17T08:58:54.000Z</time>
      </trkpt>
      <trkpt lat="46.82065" lon="0.43172">
        <ele>104</ele>
        <time>2019-02-17T08:58:55.000Z</time>
      </trkpt>
      <trkpt lat="46.82069" lon="0.43177">
        <ele>103</ele>
        <time>2019-02-17T08:58:56.000Z</time>
      </trkpt>
      <trkpt lat="46.82074" lon="0.43182">
        <ele>103</ele>
        <time>2019-02-17T08:58:57.000Z</time>
      </trkpt>
      <trkpt lat="46.82079" lon="0.43187">
        <ele>102</ele>
        <time>2019-02-17T08:58:58.000Z</time>
      </trkpt>
      <trkpt lat="46.82084" lon="0.43191">
        <ele>102</ele>
        <time>2019-02-17T08:58:59.000Z</time>
      </trkpt>
      <trkpt lat="46.82089" lon="0.43195">
        <ele>101</ele>
        <time>2019-02-17T08:59:00.000Z</time>
      </trkpt>
      <trkpt lat="46.82094" lon="0.43198">
        <ele>101</ele>
        <time>2019-02-17T08:59:01.000Z</time>
      </trkpt>
      <trkpt lat="46.82099" lon="0.43201">
        <ele>100</ele>
        <time>2019-02-17T08:59:02.000Z</time>
      </trkpt>
      <trkpt lat="46.82105" lon="0.43204">
        <ele>100</ele>
        <time>2019-02-17T08:59:03.000Z</time>
      </trkpt>
      <trkpt lat="46.8211" lon="0.43206">
        <ele>101</ele>
        <time>2019-02-17T08:59:04.000Z</time>
      </trkpt>
      <trkpt lat="46.82116" lon="0.43208">
        <ele>101</ele>
        <time>2019-02-17T08:59:05.000Z</time>
      </trkpt>
      <trkpt lat="46.82122" lon="0.43211">
        <ele>101</ele>
        <time>2019-02-17T08:59:06.000Z</time>
      </trkpt>
      <trkpt lat="46.82128" lon="0.43213">
        <ele>100</ele>
        <time>2019-02-17T08:59:07.000Z</time>
      </trkpt>
      <trkpt lat="46.82133" lon="0.43216">
        <ele>100</ele>
        <time>2019-02-17T08:59:08.000Z</time>
      </trkpt>
      <trkpt lat="46.82139" lon="0.43219">
        <ele>100</ele>
        <time>2019-02-17T08:59:09.000Z</time>
      </trkpt>
      <trkpt lat="46.82145" lon="0.43221">
        <ele>100</ele>
        <time>2019-02-17T08:59:10.000Z</time>
      </trkpt>
      <trkpt lat="46.8215" lon="0.43223">
        <ele>100</ele>
        <time>2019-02-17T08:59:11.000Z</time>
      </trkpt>
      <trkpt lat="46.82156" lon="0.43225">
        <ele>99</ele>
        <time>2019-02-17T08:59:12.000Z</time>
      </trkpt>
      <trkpt lat="46.82162" lon="0.43226">
        <ele>99</ele>
        <time>2019-02-17T08:59:13.000Z</time>
      </trkpt>
      <trkpt lat="46.82167" lon="0.43226">
        <ele>99</ele>
        <time>2019-02-17T08:59:14.000Z</time>
      </trkpt>
      <trkpt lat="46.82173" lon="0.43224">
        <ele>99</ele>
        <time>2019-02-17T08:59:15.000Z</time>
      </trkpt>
      <trkpt lat="46.82178" lon="0.43222">
        <ele>99</ele>
        <time>2019-02-17T08:59:16.000Z</time>
      </trkpt>
      <trkpt lat="46.82183" lon="0.4322">
        <ele>99</ele>
        <time>2019-02-17T08:59:17.000Z</time>
      </trkpt>
      <trkpt lat="46.82188" lon="0.43218">
        <ele>100</ele>
        <time>2019-02-17T08:59:18.000Z</time>
      </trkpt>
      <trkpt lat="46.82193" lon="0.43216">
        <ele>100</ele>
        <time>2019-02-17T08:59:19.000Z</time>
      </trkpt>
      <trkpt lat="46.82198" lon="0.43214">
        <ele>100</ele>
        <time>2019-02-17T08:59:20.000Z</time>
      </trkpt>
      <trkpt lat="46.82202" lon="0.43212">
        <ele>100</ele>
        <time>2019-02-17T08:59:21.000Z</time>
      </trkpt>
      <trkpt lat="46.82207" lon="0.43211">
        <ele>100</ele>
        <time>2019-02-17T08:59:22.000Z</time>
      </trkpt>
      <trkpt lat="46.82212" lon="0.43209">
        <ele>100</ele>
        <time>2019-02-17T08:59:23.000Z</time>
      </trkpt>
      <trkpt lat="46.82216" lon="0.43207">
        <ele>101</ele>
        <time>2019-02-17T08:59:24.000Z</time>
      </trkpt>
      <trkpt lat="46.82221" lon="0.43205">
        <ele>101</ele>
        <time>2019-02-17T08:59:25.000Z</time>
      </trkpt>
      <trkpt lat="46.82225" lon="0.43203">
        <ele>101</ele>
        <time>2019-02-17T08:59:26.000Z</time>
      </trkpt>
      <trkpt lat="46.8223" lon="0.43202">
        <ele>101</ele>
        <time>2019-02-17T08:59:27.000Z</time>
      </trkpt>
      <trkpt lat="46.82234" lon="0.432">
        <ele>101</ele>
        <time>2019-02-17T08:59:28.000Z</time>
      </trkpt>
      <trkpt lat="46.82239" lon="0.43198">
        <ele>101</ele>
        <time>2019-02-17T08:59:29.000Z</time>
      </trkpt>
      <trkpt lat="46.82244" lon="0.43196">
        <ele>101</ele>
        <time>2019-02-17T08:59:30.000Z</time>
      </trkpt>
      <trkpt lat="46.82248" lon="0.43194">
        <ele>101</ele>
        <time>2019-02-17T08:59:31.000Z</time>
      </trkpt>
      <trkpt lat="46.82252" lon="0.43193">
        <ele>101</ele>
        <time>2019-02-17T08:59:32.000Z</time>
      </trkpt>
      <trkpt lat="46.82257" lon="0.43191">
        <ele>101</ele>
        <time>2019-02-17T08:59:33.000Z</time>
      </trkpt>
      <trkpt lat="46.82261" lon="0.43189">
        <ele>101</ele>
        <time>2019-02-17T08:59:34.000Z</time>
      </trkpt>
      <trkpt lat="46.82266" lon="0.43187">
        <ele>101</ele>
        <time>2019-02-17T08:59:35.000Z</time>
      </trkpt>
      <trkpt lat="46.8227" lon="0.43185">
        <ele>102</ele>
        <time>2019-02-17T08:59:36.000Z</time>
      </trkpt>
      <trkpt lat="46.82274" lon="0.43184">
        <ele>102</ele>
        <time>2019-02-17T08:59:37.000Z</time>
      </trkpt>
      <trkpt lat="46.82279" lon="0.43182">
        <ele>102</ele>
        <time>2019-02-17T08:59:38.000Z</time>
      </trkpt>
      <trkpt lat="46.82283" lon="0.4318">
        <ele>102</ele>
        <time>2019-02-17T08:59:39.000Z</time>
      </trkpt>
      <trkpt lat="46.82288" lon="0.43179">
        <ele>102</ele>
        <time>2019-02-17T08:59:40.000Z</time>
      </trkpt>
      <trkpt lat="46.82292" lon="0.43177">
        <ele>102</ele>
        <time>2019-02-17T08:59:41.000Z</time>
      </trkpt>
      <trkpt lat="46.82297" lon="0.43175">
        <ele>102</ele>
        <time>2019-02-17T08:59:42.000Z</time>
      </trkpt>
      <trkpt lat="46.82301" lon="0.43174">
        <ele>102</ele>
        <time>2019-02-17T08:59:43.000Z</time>
      </trkpt>
      <trkpt lat="46.82305" lon="0.43172">
        <ele>103</ele>
        <time>2019-02-17T08:59:44.000Z</time>
      </trkpt>
      <trkpt lat="46.82309" lon="0.4317">
        <ele>103</ele>
        <time>2019-02-17T08:59:45.000Z</time>
      </trkpt>
      <trkpt lat="46.82314" lon="0.43169">
        <ele>103</ele>
        <time>2019-02-17T08:59:46.000Z</time>
      </trkpt>
      <trkpt lat="46.82318" lon="0.43167">
        <ele>103</ele>
        <time>2019-02-17T08:59:47.000Z</time>
      </trkpt>
      <trkpt lat="46.82322" lon="0.43166">
        <ele>103</ele>
        <time>2019-02-17T08:59:48.000Z</time>
      </trkpt>
      <trkpt lat="46.82326" lon="0.43164">
        <ele>103</ele>
        <time>2019-02-17T08:59:49.000Z</time>
      </trkpt>
      <trkpt lat="46.82331" lon="0.43163">
        <ele>103</ele>
        <time>2019-02-17T08:59:50.000Z</time>
      </trkpt>
      <trkpt lat="46.82335" lon="0.43161">
        <ele>103</ele>
        <time>2019-02-17T08:59:51.000Z</time>
      </trkpt>
      <trkpt lat="46.82339" lon="0.43159">
        <ele>103</ele>
        <time>2019-02-17T08:59:52.000Z</time>
      </trkpt>
      <trkpt lat="46.82344" lon="0.43157">
        <ele>103</ele>
        <time>2019-02-17T08:59:53.000Z</time>
      </trkpt>
      <trkpt lat="46.82348" lon="0.43156">
        <ele>103</ele>
        <time>2019-02-17T08:59:54.000Z</time>
      </trkpt>
      <trkpt lat="46.82352" lon="0.43154">
        <ele>103</ele>
        <time>2019-02-17T08:59:55.000Z</time>
      </trkpt>
      <trkpt lat="46.82356" lon="0.43152">
        <ele>103</ele>
        <time>2019-02-17T08:59:56.000Z</time>
      </trkpt>
      <trkpt lat="46.82361" lon="0.4315">
        <ele>104</ele>
        <time>2019-02-17T08:59:57.000Z</time>
      </trkpt>
      <trkpt lat="46.82365" lon="0.43149">
        <ele>104</ele>
        <time>2019-02-17T08:59:58.000Z</time>
      </trkpt>
      <trkpt lat="46.82369" lon="0.43147">
        <ele>104</ele>
        <time>2019-02-17T08:59:59.000Z</time>
      </trkpt>
      <trkpt lat="46.82373" lon="0.43146">
        <ele>104</ele>
        <time>2019-02-17T09:00:00.000Z</time>
      </trkpt>
      <trkpt lat="46.82377" lon="0.43144">
        <ele>104</ele>
        <time>2019-02-17T09:00:01.000Z</time>
      </trkpt>
      <trkpt lat="46.82381" lon="0.43143">
        <ele>104</ele>
        <time>2019-02-17T09:00:02.000Z</time>
      </trkpt>
      <trkpt lat="46.82385" lon="0.43141">
        <ele>104</ele>
        <time>2019-02-17T09:00:03.000Z</time>
      </trkpt>
      <trkpt lat="46.82389" lon="0.4314">
        <ele>104</ele>
        <time>2019-02-17T09:00:04.000Z</time>
      </trkpt>
      <trkpt lat="46.82393" lon="0.43138">
        <ele>104</ele>
        <time>2019-02-17T09:00:05.000Z</time>
      </trkpt>
      <trkpt lat="46.82398" lon="0.43137">
        <ele>105</ele>
        <time>2019-02-17T09:00:06.000Z</time>
      </trkpt>
      <trkpt lat="46.82402" lon="0.43135">
        <ele>105</ele>
        <time>2019-02-17T09:00:07.000Z</time>
      </trkpt>
      <trkpt lat="46.82406" lon="0.43133">
        <ele>104</ele>
        <time>2019-02-17T09:00:08.000Z</time>
      </trkpt>
      <trkpt lat="46.82411" lon="0.43131">
        <ele>104</ele>
        <time>2019-02-17T09:00:09.000Z</time>
      </trkpt>
      <trkpt lat="46.82415" lon="0.4313">
        <ele>104</ele>
        <time>2019-02-17T09:00:10.000Z</time>
      </trkpt>
      <trkpt lat="46.82419" lon="0.43128">
        <ele>104</ele>
        <time>2019-02-17T09:00:11.000Z</time>
      </trkpt>
      <trkpt lat="46.82423" lon="0.43126">
        <ele>104</ele>
        <time>2019-02-17T09:00:12.000Z</time>
      </trkpt>
      <trkpt lat="46.82426" lon="0.43125">
        <ele>105</ele>
        <time>2019-02-17T09:00:13.000Z</time>
      </trkpt>
      <trkpt lat="46.8243" lon="0.43124">
        <ele>105</ele>
        <time>2019-02-17T09:00:14.000Z</time>
      </trkpt>
      <trkpt lat="46.82433" lon="0.43123">
        <ele>105</ele>
        <time>2019-02-17T09:00:15.000Z</time>
      </trkpt>
      <trkpt lat="46.82436" lon="0.43123">
        <ele>105</ele>
        <time>2019-02-17T09:00:16.000Z</time>
      </trkpt>
      <trkpt lat="46.8244" lon="0.43124">
        <ele>105</ele>
        <time>2019-02-17T09:00:17.000Z</time>
      </trkpt>
      <trkpt lat="46.82443" lon="0.43123">
        <ele>106</ele>
        <time>2019-02-17T09:00:18.000Z</time>
      </trkpt>
      <trkpt lat="46.82446" lon="0.43123">
        <ele>106</ele>
        <time>2019-02-17T09:00:19.000Z</time>
      </trkpt>
      <trkpt lat="46.82449" lon="0.43122">
        <ele>106</ele>
        <time>2019-02-17T09:00:20.000Z</time>
      </trkpt>
      <trkpt lat="46.82452" lon="0.43121">
        <ele>106</ele>
        <time>2019-02-17T09:00:21.000Z</time>
      </trkpt>
      <trkpt lat="46.82456" lon="0.4312">
        <ele>107</ele>
        <time>2019-02-17T09:00:22.000Z</time>
      </trkpt>
      <trkpt lat="46.82459" lon="0.43119">
        <ele>107</ele>
        <time>2019-02-17T09:00:23.000Z</time>
      </trkpt>
      <trkpt lat="46.82462" lon="0.43118">
        <ele>107</ele>
        <time>2019-02-17T09:00:24.000Z</time>
      </trkpt>
      <trkpt lat="46.82465" lon="0.43117">
        <ele>107</ele>
        <time>2019-02-17T09:00:25.000Z</time>
      </trkpt>
      <trkpt lat="46.82469" lon="0.43117">
        <ele>107</ele>
        <time>2019-02-17T09:00:26.000Z</time>
      </trkpt>
      <trkpt lat="46.82472" lon="0.43116">
        <ele>108</ele>
        <time>2019-02-17T09:00:27.000Z</time>
      </trkpt>
      <trkpt lat="46.82476" lon="0.43115">
        <ele>108</ele>
        <time>2019-02-17T09:00:28.000Z</time>
      </trkpt>
      <trkpt lat="46.82479" lon="0.43114">
        <ele>108</ele>
        <time>2019-02-17T09:00:29.000Z</time>
      </trkpt>
      <trkpt lat="46.82483" lon="0.43113">
        <ele>108</ele>
        <time>2019-02-17T09:00:30.000Z</time>
      </trkpt>
      <trkpt lat="46.82486" lon="0.43111">
        <ele>108</ele>
        <time>2019-02-17T09:00:31.000Z</time>
      </trkpt>
      <trkpt lat="46.82489" lon="0.4311">
        <ele>108</ele>
        <time>2019-02-17T09:00:32.000Z</time>
      </trkpt>
      <trkpt lat="46.82493" lon="0.43109">
        <ele>109</ele>
        <time>2019-02-17T09:00:33.000Z</time>
      </trkpt>
      <trkpt lat="46.82496" lon="0.43108">
        <ele>109</ele>
        <time>2019-02-17T09:00:34.000Z</time>
      </trkpt>
      <trkpt lat="46.82499" lon="0.43107">
        <ele>109</ele>
        <time>2019-02-17T09:00:35.000Z</time>
      </trkpt>
      <trkpt lat="46.82502" lon="0.43106">
        <ele>109</ele>
        <time>2019-02-17T09:00:36.000Z</time>
      </trkpt>
      <trkpt lat="46.82505" lon="0.43105">
        <ele>110</ele>
        <time>2019-02-17T09:00:37.000Z</time>
      </trkpt>
      <trkpt lat="46.82509" lon="0.43104">
        <ele>110</ele>
        <time>2019-02-17T09:00:38.000Z</time>
      </trkpt>
      <trkpt lat="46.82512" lon="0.43103">
        <ele>110</ele>
        <time>2019-02-17T09:00:39.000Z</time>
      </trkpt>
      <trkpt lat="46.82515" lon="0.43102">
        <ele>110</ele>
        <time>2019-02-17T09:00:40.000Z</time>
      </trkpt>
      <trkpt lat="46.82518" lon="0.43101">
        <ele>111</ele>
        <time>2019-02-17T09:00:41.000Z</time>
      </trkpt>
      <trkpt lat="46.82521" lon="0.431">
        <ele>111</ele>
        <time>2019-02-17T09:00:42.000Z</time>
      </trkpt>
      <trkpt lat="46.82523" lon="0.43099">
        <ele>111</ele>
        <time>2019-02-17T09:00:43.000Z</time>
      </trkpt>
      <trkpt lat="46.82526" lon="0.43098">
        <ele>111</ele>
        <time>2019-02-17T09:00:44.000Z</time>
      </trkpt>
      <trkpt lat="46.82529" lon="0.43097">
        <ele>111</ele>
        <time>2019-02-17T09:00:45.000Z</time>
      </trkpt>
      <trkpt lat="46.82532" lon="0.43096">
        <ele>111</ele>
        <time>2019-02-17T09:00:46.000Z</time>
      </trkpt>
      <trkpt lat="46.82534" lon="0.43095">
        <ele>112</ele>
        <time>2019-02-17T09:00:47.000Z</time>
      </trkpt>
      <trkpt lat="46.82537" lon="0.43094">
        <ele>112</ele>
        <time>2019-02-17T09:00:48.000Z</time>
      </trkpt>
      <trkpt lat="46.8254" lon="0.43093">
        <ele>112</ele>
        <time>2019-02-17T09:00:49.000Z</time>
      </trkpt>
      <trkpt lat="46.82542" lon="0.43093">
        <ele>113</ele>
        <time>2019-02-17T09:00:50.000Z</time>
      </trkpt>
      <trkpt lat="46.82545" lon="0.43092">
        <ele>113</ele>
        <time>2019-02-17T09:00:51.000Z</time>
      </trkpt>
      <trkpt lat="46.82547" lon="0.43091">
        <ele>113</ele>
        <time>2019-02-17T09:00:52.000Z</time>
      </trkpt>
      <trkpt lat="46.8255" lon="0.4309">
        <ele>113</ele>
        <time>2019-02-17T09:00:53.000Z</time>
      </trkpt>
      <trkpt lat="46.82552" lon="0.43089">
        <ele>114</ele>
        <time>2019-02-17T09:00:54.000Z</time>
      </trkpt>
      <trkpt lat="46.82555" lon="0.43089">
        <ele>114</ele>
        <time>2019-02-17T09:00:55.000Z</time>
      </trkpt>
      <trkpt lat="46.82557" lon="0.43088">
        <ele>114</ele>
        <time>2019-02-17T09:00:56.000Z</time>
      </trkpt>
      <trkpt lat="46.8256" lon="0.43087">
        <ele>114</ele>
        <time>2019-02-17T09:00:57.000Z</time>
      </trkpt>
      <trkpt lat="46.82563" lon="0.43086">
        <ele>115</ele>
        <time>2019-02-17T09:00:58.000Z</time>
      </trkpt>
      <trkpt lat="46.82565" lon="0.43085">
        <ele>115</ele>
        <time>2019-02-17T09:00:59.000Z</time>
      </trkpt>
      <trkpt lat="46.82568" lon="0.43085">
        <ele>115</ele>
        <time>2019-02-17T09:01:00.000Z</time>
      </trkpt>
      <trkpt lat="46.8257" lon="0.43084">
        <ele>115</ele>
        <time>2019-02-17T09:01:01.000Z</time>
      </trkpt>
      <trkpt lat="46.82573" lon="0.43084">
        <ele>116</ele>
        <time>2019-02-17T09:01:02.000Z</time>
      </trkpt>
      <trkpt lat="46.82576" lon="0.43083">
        <ele>116</ele>
        <time>2019-02-17T09:01:03.000Z</time>
      </trkpt>
      <trkpt lat="46.82578" lon="0.43083">
        <ele>116</ele>
        <time>2019-02-17T09:01:04.000Z</time>
      </trkpt>
      <trkpt lat="46.82581" lon="0.43082">
        <ele>117</ele>
        <time>2019-02-17T09:01:05.000Z</time>
      </trkpt>
      <trkpt lat="46.82583" lon="0.43082">
        <ele>117</ele>
        <time>2019-02-17T09:01:06.000Z</time>
      </trkpt>
      <trkpt lat="46.82586" lon="0.43081">
        <ele>117</ele>
        <time>2019-02-17T09:01:07.000Z</time>
      </trkpt>
      <trkpt lat="46.82588" lon="0.43081">
        <ele>117</ele>
        <time>2019-02-17T09:01:08.000Z</time>
      </trkpt>
      <trkpt lat="46.82591" lon="0.43081">
        <ele>118</ele>
        <time>2019-02-17T09:01:09.000Z</time>
      </trkpt>
      <trkpt lat="46.82594" lon="0.4308">
        <ele>118</ele>
        <time>2019-02-17T09:01:10.000Z</time>
      </trkpt>
      <trkpt lat="46.82596" lon="0.4308">
        <ele>118</ele>
        <time>2019-02-17T09:01:11.000Z</time>
      </trkpt>
      <trkpt lat="46.82599" lon="0.43079">
        <ele>118</ele>
        <time>2019-02-17T09:01:12.000Z</time>
      </trkpt>
      <trkpt lat="46.82601" lon="0.43079">
        <ele>119</ele>
        <time>2019-02-17T09:01:13.000Z</time>
      </trkpt>
      <trkpt lat="46.82603" lon="0.43078">
        <ele>119</ele>
        <time>2019-02-17T09:01:14.000Z</time>
      </trkpt>
      <trkpt lat="46.82606" lon="0.43078">
        <ele>119</ele>
        <time>2019-02-17T09:01:15.000Z</time>
      </trkpt>
      <trkpt lat="46.82608" lon="0.43078">
        <ele>120</ele>
        <time>2019-02-17T09:01:16.000Z</time>
      </trkpt>
      <trkpt lat="46.8261" lon="0.43077">
        <ele>120</ele>
        <time>2019-02-17T09:01:17.000Z</time>
      </trkpt>
      <trkpt lat="46.82612" lon="0.43077">
        <ele>120</ele>
        <time>2019-02-17T09:01:18.000Z</time>
      </trkpt>
      <trkpt lat="46.82615" lon="0.43077">
        <ele>121</ele>
        <time>2019-02-17T09:01:19.000Z</time>
      </trkpt>
      <trkpt lat="46.82617" lon="0.43076">
        <ele>121</ele>
        <time>2019-02-17T09:01:20.000Z</time>
      </trkpt>
      <trkpt lat="46.82619" lon="0.43076">
        <ele>121</ele>
        <time>2019-02-17T09:01:21.000Z</time>
      </trkpt>
      <trkpt lat="46.82622" lon="0.43075">
        <ele>121</ele>
        <time>2019-02-17T09:01:22.000Z</time>
      </trkpt>
      <trkpt lat="46.82624" lon="0.43074">
        <ele>122</ele>
        <time>2019-02-17T09:01:23.000Z</time>
      </trkpt>
      <trkpt lat="46.82626" lon="0.43074">
        <ele>122</ele>
        <time>2019-02-17T09:01:24.000Z</time>
      </trkpt>
      <trkpt lat="46.82629" lon="0.43074">
        <ele>122</ele>
        <time>2019-02-17T09:01:25.000Z</time>
      </trkpt>
      <trkpt lat="46.82631" lon="0.43073">
        <ele>123</ele>
        <time>2019-02-17T09:01:26.000Z</time>
      </trkpt>
      <trkpt lat="46.82633" lon="0.43073">
        <ele>123</ele>
        <time>2019-02-17T09:01:27.000Z</time>
      </trkpt>
      <trkpt lat="46.82636" lon="0.43073">
        <ele>123</ele>
        <time>2019-02-17T09:01:28.000Z</time>
      </trkpt>
      <trkpt lat="46.82638" lon="0.43073">
        <ele>123</ele>
        <time>2019-02-17T09:01:29.000Z</time>
      </trkpt>
      <trkpt lat="46.8264" lon="0.43073">
        <ele>124</ele>
        <time>2019-02-17T09:01:30.000Z</time>
      </trkpt>
      <trkpt lat="46.82643" lon="0.43073">
        <ele>124</ele>
        <time>2019-02-17T09:01:31.000Z</time>
      </trkpt>
      <trkpt lat="46.82645" lon="0.43073">
        <ele>124</ele>
        <time>2019-02-17T09:01:32.000Z</time>
      </trkpt>
      <trkpt lat="46.82647" lon="0.43073">
        <ele>124</ele>
        <time>2019-02-17T09:01:33.000Z</time>
      </trkpt>
      <trkpt lat="46.8265" lon="0.43073">
        <ele>125</ele>
        <time>2019-02-17T09:01:34.000Z</time>
      </trkpt>
      <trkpt lat="46.82652" lon="0.43074">
        <ele>125</ele>
        <time>2019-02-17T09:01:35.000Z</time>
      </trkpt>
      <trkpt lat="46.82654" lon="0.43074">
        <ele>125</ele>
        <time>2019-02-17T09:01:36.000Z</time>
      </trkpt>
      <trkpt lat="46.82657" lon="0.43074">
        <ele>126</ele>
        <time>2019-02-17T09:01:37.000Z</time>
      </trkpt>
      <trkpt lat="46.82659" lon="0.43075">
        <ele>126</ele>
        <time>2019-02-17T09:01:38.000Z</time>
      </trkpt>
      <trkpt lat="46.82661" lon="0.43075">
        <ele>127</ele>
        <time>2019-02-17T09:01:39.000Z</time>
      </trkpt>
      <trkpt lat="46.82664" lon="0.43076">
        <ele>127</ele>
        <time>2019-02-17T09:01:40.000Z</time>
      </trkpt>
      <trkpt lat="46.82666" lon="0.43076">
        <ele>127</ele>
        <time>2019-02-17T09:01:41.000Z</time>
      </trkpt>
      <trkpt lat="46.82668" lon="0.43076">
        <ele>128</ele>
        <time>2019-02-17T09:01:42.000Z</time>
      </trkpt>
      <trkpt lat="46.82671" lon="0.43076">
        <ele>128</ele>
        <time>2019-02-17T09:01:43.000Z</time>
      </trkpt>
      <trkpt lat="46.82673" lon="0.43077">
        <ele>128</ele>
        <time>2019-02-17T09:01:44.000Z</time>
      </trkpt>
      <trkpt lat="46.82675" lon="0.43077">
        <ele>128</ele>
        <time>2019-02-17T09:01:45.000Z</time>
      </trkpt>
      <trkpt lat="46.82677" lon="0.43077">
        <ele>128</ele>
        <time>2019-02-17T09:01:46.000Z</time>
      </trkpt>
      <trkpt lat="46.82679" lon="0.43077">
        <ele>129</ele>
        <time>2019-02-17T09:01:47.000Z</time>
      </trkpt>
      <trkpt lat="46.82682" lon="0.43077">
        <ele>129</ele>
        <time>2019-02-17T09:01:48.000Z</time>
      </trkpt>
      <trkpt lat="46.82684" lon="0.43077">
        <ele>130</ele>
        <time>2019-02-17T09:01:49.000Z</time>
      </trkpt>
      <trkpt lat="46.82686" lon="0.43077">
        <ele>130</ele>
        <time>2019-02-17T09:01:50.000Z</time>
      </trkpt>
      <trkpt lat="46.82688" lon="0.43077">
        <ele>130</ele>
        <time>2019-02-17T09:01:51.000Z</time>
      </trkpt>
      <trkpt lat="46.82691" lon="0.43077">
        <ele>130</ele>
        <time>2019-02-17T09:01:52.000Z</time>
      </trkpt>
      <trkpt lat="46.82693" lon="0.43078">
        <ele>131</ele>
        <time>2019-02-17T09:01:53.000Z</time>
      </trkpt>
      <trkpt lat="46.82695" lon="0.43079">
        <ele>131</ele>
        <time>2019-02-17T09:01:54.000Z</time>
      </trkpt>
      <trkpt lat="46.82697" lon="0.4308">
        <ele>131</ele>
        <time>2019-02-17T09:01:55.000Z</time>
      </trkpt>
      <trkpt lat="46.82699" lon="0.4308">
        <ele>131</ele>
        <time>2019-02-17T09:01:56.000Z</time>
      </trkpt>
      <trkpt lat="46.82701" lon="0.43081">
        <ele>131</ele>
        <time>2019-02-17T09:01:57.000Z</time>
      </trkpt>
      <trkpt lat="46.82703" lon="0.43081">
        <ele>131</ele>
        <time>2019-02-17T09:01:58.000Z</time>
      </trkpt>
      <trkpt lat="46.82706" lon="0.43082">
        <ele>131</ele>
        <time>2019-02-17T09:01:59.000Z</time>
      </trkpt>
      <trkpt lat="46.82708" lon="0.43082">
        <ele>132</ele>
        <time>2019-02-17T09:02:00.000Z</time>
      </trkpt>
      <trkpt lat="46.8271" lon="0.43083">
        <ele>132</ele>
        <time>2019-02-17T09:02:01.000Z</time>
      </trkpt>
      <trkpt lat="46.82712" lon="0.43083">
        <ele>132</ele>
        <time>2019-02-17T09:02:02.000Z</time>
      </trkpt>
      <trkpt lat="46.82714" lon="0.43084">
        <ele>132</ele>
        <time>2019-02-17T09:02:03.000Z</time>
      </trkpt>
      <trkpt lat="46.82716" lon="0.43085">
        <ele>132</ele>
        <time>2019-02-17T09:02:04.000Z</time>
      </trkpt>
      <trkpt lat="46.82718" lon="0.43086">
        <ele>132</ele>
        <time>2019-02-17T09:02:05.000Z</time>
      </trkpt>
      <trkpt lat="46.8272" lon="0.43087">
        <ele>132</ele>
        <time>2019-02-17T09:02:06.000Z</time>
      </trkpt>
      <trkpt lat="46.82722" lon="0.43087">
        <ele>133</ele>
        <time>2019-02-17T09:02:07.000Z</time>
      </trkpt>
      <trkpt lat="46.82724" lon="0.43088">
        <ele>133</ele>
        <time>2019-02-17T09:02:08.000Z</time>
      </trkpt>
      <trkpt lat="46.82726" lon="0.43089">
        <ele>134</ele>
        <time>2019-02-17T09:02:09.000Z</time>
      </trkpt>
      <trkpt lat="46.82728" lon="0.43089">
        <ele>134</ele>
        <time>2019-02-17T09:02:10.000Z</time>
      </trkpt>
      <trkpt lat="46.82729" lon="0.4309">
        <ele>134</ele>
        <time>2019-02-17T09:02:11.000Z</time>
      </trkpt>
      <trkpt lat="46.82731" lon="0.4309">
        <ele>135</ele>
        <time>2019-02-17T09:02:12.000Z</time>
      </trkpt>
      <trkpt lat="46.82733" lon="0.43091">
        <ele>135</ele>
        <time>2019-02-17T09:02:13.000Z</time>
      </trkpt>
      <trkpt lat="46.82734" lon="0.43093">
        <ele>136</ele>
        <time>2019-02-17T09:02:14.000Z</time>
      </trkpt>
      <trkpt lat="46.82736" lon="0.43094">
        <ele>136</ele>
        <time>2019-02-17T09:02:15.000Z</time>
      </trkpt>
      <trkpt lat="46.82738" lon="0.43095">
        <ele>136</ele>
        <time>2019-02-17T09:02:16.000Z</time>
      </trkpt>
      <trkpt lat="46.82739" lon="0.43096">
        <ele>136</ele>
        <time>2019-02-17T09:02:17.000Z</time>
      </trkpt>
      <trkpt lat="46.82741" lon="0.43097">
        <ele>137</ele>
        <time>2019-02-17T09:02:18.000Z</time>
      </trkpt>
      <trkpt lat="46.82743" lon="0.43098">
        <ele>137</ele>
        <time>2019-02-17T09:02:19.000Z</time>
      </trkpt>
      <trkpt lat="46.82745" lon="0.43099">
        <ele>137</ele>
        <time>2019-02-17T09:02:20.000Z</time>
      </trkpt>
      <trkpt lat="46.82747" lon="0.431">
        <ele>137</ele>
        <time>2019-02-17T09:02:21.000Z</time>
      </trkpt>
      <trkpt lat="46.82749" lon="0.43101">
        <ele>138</ele>
        <time>2019-02-17T09:02:22.000Z</time>
      </trkpt>
      <trkpt lat="46.82751" lon="0.43102">
        <ele>139</ele>
        <time>2019-02-17T09:02:23.000Z</time>
      </trkpt>
      <trkpt lat="46.82753" lon="0.43103">
        <ele>139</ele>
        <time>2019-02-17T09:02:24.000Z</time>
      </trkpt>
      <trkpt lat="46.82755" lon="0.43104">
        <ele>139</ele>
        <time>2019-02-17T09:02:25.000Z</time>
      </trkpt>
      <trkpt lat="46.82757" lon="0.43105">
        <ele>139</ele>
        <time>2019-02-17T09:02:26.000Z</time>
      </trkpt>
      <trkpt lat="46.82759" lon="0.43106">
        <ele>140</ele>
        <time>2019-02-17T09:02:27.000Z</time>
      </trkpt>
      <trkpt lat="46.82761" lon="0.43107">
        <ele>141</ele>
        <time>2019-02-17T09:02:28.000Z</time>
      </trkpt>
      <trkpt lat="46.82763" lon="0.43109">
        <ele>141</ele>
        <time>2019-02-17T09:02:29.000Z</time>
      </trkpt>
      <trkpt lat="46.82765" lon="0.4311">
        <ele>141</ele>
        <time>2019-02-17T09:02:30.000Z</time>
      </trkpt>
      <trkpt lat="46.82767" lon="0.43111">
        <ele>142</ele>
        <time>2019-02-17T09:02:31.000Z</time>
      </trkpt>
      <trkpt lat="46.82769" lon="0.43112">
        <ele>142</ele>
        <time>2019-02-17T09:02:32.000Z</time>
      </trkpt>
      <trkpt lat="46.82771" lon="0.43113">
        <ele>142</ele>
        <time>2019-02-17T09:02:33.000Z</time>
      </trkpt>
      <trkpt lat="46.82773" lon="0.43114">
        <ele>142</ele>
        <time>2019-02-17T09:02:34.000Z</time>
      </trkpt>
      <trkpt lat="46.82775" lon="0.43115">
        <ele>142</ele>
        <time>2019-02-17T09:02:35.000Z</time>
      </trkpt>
      <trkpt lat="46.82777" lon="0.43116">
        <ele>142</ele>
        <time>2019-02-17T09:02:36.000Z</time>
      </trkpt>
      <trkpt lat="46.82778" lon="0.43117">
        <ele>142</ele>
        <time>2019-02-17T09:02:37.000Z</time>
      </trkpt>
      <trkpt lat="46.8278" lon="0.43118">
        <ele>143</ele>
        <time>2019-02-17T09:02:38.000Z</time>
      </trkpt>
      <trkpt lat="46.82782" lon="0.43119">
        <ele>144</ele>
        <time>2019-02-17T09:02:39.000Z</time>
      </trkpt>
      <trkpt lat="46.82784" lon="0.4312">
        <ele>144</ele>
        <time>2019-02-17T09:02:40.000Z</time>
      </trkpt>
      <trkpt lat="46.82786" lon="0.43121">
        <ele>145</ele>
        <time>2019-02-17T09:02:41.000Z</time>
      </trkpt>
      <trkpt lat="46.82787" lon="0.43122">
        <ele>145</ele>
        <time>2019-02-17T09:02:42.000Z</time>
      </trkpt>
      <trkpt lat="46.82789" lon="0.43123">
        <ele>146</ele>
        <time>2019-02-17T09:02:43.000Z</time>
      </trkpt>
      <trkpt lat="46.82791" lon="0.43124">
        <ele>146</ele>
        <time>2019-02-17T09:02:44.000Z</time>
      </trkpt>
      <trkpt lat="46.82793" lon="0.43125">
        <ele>147</ele>
        <time>2019-02-17T09:02:45.000Z</time>
      </trkpt>
      <trkpt lat="46.82794" lon="0.43126">
        <ele>148</ele>
        <time>2019-02-17T09:02:46.000Z</time>
      </trkpt>
      <trkpt lat="46.82796" lon="0.43128">
        <ele>148</ele>
        <time>2019-02-17T09:02:47.000Z</time>
      </trkpt>
      <trkpt lat="46.82798" lon="0.43129">
        <ele>149</ele>
        <time>2019-02-17T09:02:48.000Z</time>
      </trkpt>
      <trkpt lat="46.82799" lon="0.43131">
        <ele>149</ele>
        <time>2019-02-17T09:02:49.000Z</time>
      </trkpt>
      <trkpt lat="46.82801" lon="0.43132">
        <ele>150</ele>
        <time>2019-02-17T09:02:50.000Z</time>
      </trkpt>
      <trkpt lat="46.82803" lon="0.43134">
        <ele>150</ele>
        <time>2019-02-17T09:02:51.000Z</time>
      </trkpt>
      <trkpt lat="46.82804" lon="0.43136">
        <ele>150</ele>
        <time>2019-02-17T09:02:52.000Z</time>
      </trkpt>
      <trkpt lat="46.82806" lon="0.43138">
        <ele>151</ele>
        <time>2019-02-17T09:02:53.000Z</time>
      </trkpt>
      <trkpt lat="46.82808" lon="0.43139">
        <ele>152</ele>
        <time>2019-02-17T09:02:54.000Z</time>
      </trkpt>
      <trkpt lat="46.82809" lon="0.43141">
        <ele>152</ele>
        <time>2019-02-17T09:02:55.000Z</time>
      </trkpt>
      <trkpt lat="46.82811" lon="0.43142">
        <ele>152</ele>
        <time>2019-02-17T09:02:56.000Z</time>
      </trkpt>
      <trkpt lat="46.82813" lon="0.43144">
        <ele>153</ele>
        <time>2019-02-17T09:02:57.000Z</time>
      </trkpt>
      <trkpt lat="46.82814" lon="0.43145">
        <ele>153</ele>
        <time>2019-02-17T09:02:58.000Z</time>
      </trkpt>
      <trkpt lat="46.82816" lon="0.43147">
        <ele>154</ele>
        <time>2019-02-17T09:02:59.000Z</time>
      </trkpt>
      <trkpt lat="46.82817" lon="0.43149">
        <ele>155</ele>
        <time>2019-02-17T09:03:00.000Z</time>
      </trkpt>
      <trkpt lat="46.82819" lon="0.4315">
        <ele>155</ele>
        <time>2019-02-17T09:03:01.000Z</time>
      </trkpt>
      <trkpt lat="46.8282" lon="0.43152">
        <ele>155</ele>
        <time>2019-02-17T09:03:02.000Z</time>
      </trkpt>
      <trkpt lat="46.82822" lon="0.43154">
        <ele>154</ele>
        <time>2019-02-17T09:03:03.000Z</time>
      </trkpt>
      <trkpt lat="46.82824" lon="0.43156">
        <ele>154</ele>
        <time>2019-02-17T09:03:04.000Z</time>
      </trkpt>
      <trkpt lat="46.82825" lon="0.43158">
        <ele>152</ele>
        <time>2019-02-17T09:03:05.000Z</time>
      </trkpt>
      <trkpt lat="46.82827" lon="0.4316">
        <ele>152</ele>
        <time>2019-02-17T09:03:06.000Z</time>
      </trkpt>
      <trkpt lat="46.82829" lon="0.43162">
        <ele>151</ele>
        <time>2019-02-17T09:03:07.000Z</time>
      </trkpt>
      <trkpt lat="46.82831" lon="0.43163">
        <ele>152</ele>
        <time>2019-02-17T09:03:08.000Z</time>
      </trkpt>
      <trkpt lat="46.82832" lon="0.43165">
        <ele>152</ele>
        <time>2019-02-17T09:03:09.000Z</time>
      </trkpt>
      <trkpt lat="46.82834" lon="0.43167">
        <ele>152</ele>
        <time>2019-02-17T09:03:10.000Z</time>
      </trkpt>
      <trkpt lat="46.82835" lon="0.43169">
        <ele>152</ele>
        <time>2019-02-17T09:03:11.000Z</time>
      </trkpt>
      <trkpt lat="46.82837" lon="0.4317">
        <ele>152</ele>
        <time>2019-02-17T09:03:12.000Z</time>
      </trkpt>
      <trkpt lat="46.82839" lon="0.43172">
        <ele>152</ele>
        <time>2019-02-17T09:03:13.000Z</time>
      </trkpt>
      <trkpt lat="46.82841" lon="0.43174">
        <ele>152</ele>
        <time>2019-02-17T09:03:14.000Z</time>
      </trkpt>
      <trkpt lat="46.82842" lon="0.43175">
        <ele>152</ele>
        <time>2019-02-17T09:03:15.000Z</time>
      </trkpt>
      <trkpt lat="46.82844" lon="0.43176">
        <ele>152</ele>
        <time>2019-02-17T09:03:16.000Z</time>
      </trkpt>
      <trkpt lat="46.82846" lon="0.43178">
        <ele>152</ele>
        <time>2019-02-17T09:03:17.000Z</time>
      </trkpt>
      <trkpt lat="46.82847" lon="0.43179">
        <ele>152</ele>
        <time>2019-02-17T09:03:18.000Z</time>
      </trkpt>
      <trkpt lat="46.82849" lon="0.4318">
        <ele>152</ele>
        <time>2019-02-17T09:03:19.000Z</time>
      </trkpt>
      <trkpt lat="46.82851" lon="0.43182">
        <ele>152</ele>
        <time>2019-02-17T09:03:20.000Z</time>
      </trkpt>
      <trkpt lat="46.82852" lon="0.43183">
        <ele>152</ele>
        <time>2019-02-17T09:03:21.000Z</time>
      </trkpt>
      <trkpt lat="46.82854" lon="0.43185">
        <ele>152</ele>
        <time>2019-02-17T09:03:22.000Z</time>
      </trkpt>
      <trkpt lat="46.82856" lon="0.43187">
        <ele>152</ele>
        <time>2019-02-17T09:03:23.000Z</time>
      </trkpt>
      <trkpt lat="46.82857" lon="0.43188">
        <ele>152</ele>
        <time>2019-02-17T09:03:24.000Z</time>
      </trkpt>
      <trkpt lat="46.82859" lon="0.4319">
        <ele>153</ele>
        <time>2019-02-17T09:03:25.000Z</time>
      </trkpt>
      <trkpt lat="46.82861" lon="0.43192">
        <ele>153</ele>
        <time>2019-02-17T09:03:26.000Z</time>
      </trkpt>
      <trkpt lat="46.82863" lon="0.43193">
        <ele>154</ele>
        <time>2019-02-17T09:03:27.000Z</time>
      </trkpt>
      <trkpt lat="46.82865" lon="0.43195">
        <ele>154</ele>
        <time>2019-02-17T09:03:28.000Z</time>
      </trkpt>
      <trkpt lat="46.82866" lon="0.43197">
        <ele>155</ele>
        <time>2019-02-17T09:03:29.000Z</time>
      </trkpt>
      <trkpt lat="46.82868" lon="0.43199">
        <ele>155</ele>
        <time>2019-02-17T09:03:30.000Z</time>
      </trkpt>
      <trkpt lat="46.82869" lon="0.43201">
        <ele>156</ele>
        <time>2019-02-17T09:03:31.000Z</time>
      </trkpt>
      <trkpt lat="46.8287" lon="0.43203">
        <ele>155</ele>
        <time>2019-02-17T09:03:32.000Z</time>
      </trkpt>
      <trkpt lat="46.8287" lon="0.43205">
        <ele>154</ele>
        <time>2019-02-17T09:03:33.000Z</time>
      </trkpt>
      <trkpt lat="46.82869" lon="0.43207">
        <ele>156</ele>
        <time>2019-02-17T09:03:34.000Z</time>
      </trkpt>
      <trkpt lat="46.82869" lon="0.43207">
        <ele>158</ele>
        <time>2019-02-17T09:03:35.000Z</time>
      </trkpt>
      <trkpt lat="46.82869" lon="0.43207">
        <ele>160</ele>
        <time>2019-02-17T09:03:36.000Z</time>
      </trkpt>
      <trkpt lat="46.82869" lon="0.43207">
        <ele>160</ele>
        <time>2019-02-17T09:03:37.000Z</time>
      </trkpt>
      <trkpt lat="46.82868" lon="0.43208">
        <ele>159</ele>
        <time>2019-02-17T09:03:38.000Z</time>
      </trkpt>
      <trkpt lat="46.82868" lon="0.43208">
        <ele>159</ele>
        <time>2019-02-17T09:03:39.000Z</time>
      </trkpt>
      <trkpt lat="46.82867" lon="0.43209">
        <ele>159</ele>
        <time>2019-02-17T09:03:40.000Z</time>
      </trkpt>
      <trkpt lat="46.82867" lon="0.43209">
        <ele>158</ele>
        <time>2019-02-17T09:03:41.000Z</time>
      </trkpt>
      <trkpt lat="46.82867" lon="0.4321">
        <ele>158</ele>
        <time>2019-02-17T09:03:42.000Z</time>
      </trkpt>
      <trkpt lat="46.82866" lon="0.4321">
        <ele>158</ele>
        <time>2019-02-17T09:03:43.000Z</time>
      </trkpt>
      <trkpt lat="46.82866" lon="0.4321">
        <ele>158</ele>
        <time>2019-02-17T09:03:44.000Z</time>
      </trkpt>
      <trkpt lat="46.82866" lon="0.4321">
        <ele>158</ele>
        <time>2019-02-17T09:03:45.000Z</time>
      </trkpt>
      <trkpt lat="46.82866" lon="0.4321">
        <ele>158</ele>
        <time>2019-02-17T09:03:46.000Z</time>
      </trkpt>
      <trkpt lat="46.82866" lon="0.4321">
        <ele>158</ele>
        <time>2019-02-17T09:03:47.000Z</time>
      </trkpt>
      <trkpt lat="46.82866" lon="0.43211">
        <ele>158</ele>
        <time>2019-02-17T09:03:48.000Z</time>
      </trkpt>
      <trkpt lat="46.82866" lon="0.43211">
        <ele>158</ele>
        <time>2019-02-17T09:03:49.000Z</time>
      </trkpt>
      <trkpt lat="46.82865" lon="0.43211">
        <ele>158</ele>
        <time>2019-02-17T09:03:50.000Z</time>
      </trkpt>
      <trkpt lat="46.82865" lon="0.43211">
        <ele>158</ele>
        <time>2019-02-17T09:03:51.000Z</time>
      </trkpt>
      <trkpt lat="46.82865" lon="0.43211">
        <ele>158</ele>
        <time>2019-02-17T09:03:52.000Z</time>
      </trkpt>
      <trkpt lat="46.82866" lon="0.43211">
        <ele>159</ele>
        <time>2019-02-17T09:03:53.000Z</time>
      </trkpt>
      <trkpt lat="46.82866" lon="0.43211">
        <ele>159</ele>
        <time>2019-02-17T09:03:54.000Z</time>
      </trkpt>
      <trkpt lat="46.82866" lon="0.43211">
        <ele>160</ele>
        <time>2019-02-17T09:03:55.000Z</time>
      </trkpt>
      <trkpt lat="46.82866" lon="0.43211">
        <ele>160</ele>
        <time>2019-02-17T09:03:56.000Z</time>
      </trkpt>
      <trkpt lat="46.82866" lon="0.4321">
        <ele>161</ele>
        <time>2019-02-17T09:03:57.000Z</time>
      </trkpt>
      <trkpt lat="46.82866" lon="0.4321">
        <ele>162</ele>
        <time>2019-02-17T09:03:58.000Z</time>
      </trkpt>
      <trkpt lat="46.82866" lon="0.4321">
        <ele>162</ele>
        <time>2019-02-17T09:03:59.000Z</time>
      </trkpt>
      <trkpt lat="46.82867" lon="0.4321">
        <ele>162</ele>
        <time>2019-02-17T09:04:00.000Z</time>
      </trkpt>
      <trkpt lat="46.82867" lon="0.4321">
        <ele>163</ele>
        <time>2019-02-17T09:04:01.000Z</time>
      </trkpt>
      <trkpt lat="46.82867" lon="0.43209">
        <ele>163</ele>
        <time>2019-02-17T09:04:02.000Z</time>
      </trkpt>
      <trkpt lat="46.82867" lon="0.43209">
        <ele>163</ele>
        <time>2019-02-17T09:04:03.000Z</time>
      </trkpt>
      <trkpt lat="46.82867" lon="0.43209">
        <ele>163</ele>
        <time>2019-02-17T09:04:04.000Z</time>
      </trkpt>
      <trkpt lat="46.82867" lon="0.43209">
        <ele>163</ele>
        <time>2019-02-17T09:04:05.000Z</time>
      </trkpt>
      <trkpt lat="46.82867" lon="0.43209">
        <ele>164</ele>
        <time>2019-02-17T09:04:06.000Z</time>
      </trkpt>
      <trkpt lat="46.82867" lon="0.43209">
        <ele>164</ele>
        <time>2019-02-17T09:04:07.000Z</time>
      </trkpt>
      <trkpt lat="46.82867" lon="0.43209">
        <ele>164</ele>
        <time>2019-02-17T09:04:08.000Z</time>
      </trkpt>
      <trkpt lat="46.82867" lon="0.43209">
        <ele>163</ele>
        <time>2019-02-17T09:04:09.000Z</time>
      </trkpt>
      <trkpt lat="46.82868" lon="0.4321">
        <ele>163</ele>
        <time>2019-02-17T09:04:10.000Z</time>
      </trkpt>
      <trkpt lat="46.82868" lon="0.43211">
        <ele>164</ele>
        <time>2019-02-17T09:04:11.000Z</time>
      </trkpt>
      <trkpt lat="46.82868" lon="0.43211">
        <ele>164</ele>
        <time>2019-02-17T09:04:12.000Z</time>
      </trkpt>
      <trkpt lat="46.82868" lon="0.43211">
        <ele>163</ele>
        <time>2019-02-17T09:04:13.000Z</time>
      </trkpt>
      <trkpt lat="46.82868" lon="0.43211">
        <ele>164</ele>
        <time>2019-02-17T09:04:14.000Z</time>
      </trkpt>
      <trkpt lat="46.82868" lon="0.43211">
        <ele>163</ele>
        <time>2019-02-17T09:04:15.000Z</time>
      </trkpt>
      <trkpt lat="46.82868" lon="0.43211">
        <ele>164</ele>
        <time>2019-02-17T09:04:16.000Z</time>
      </trkpt>
      <trkpt lat="46.82868" lon="0.43211">
        <ele>164</ele>
        <time>2019-02-17T09:04:17.000Z</time>
      </trkpt>
      <trkpt lat="46.82868" lon="0.43211">
        <ele>164</ele>
        <time>2019-02-17T09:04:18.000Z</time>
      </trkpt>
      <trkpt lat="46.82868" lon="0.43211">
        <ele>164</ele>
        <time>2019-02-17T09:04:19.000Z</time>
      </trkpt>
      <trkpt lat="46.82868" lon="0.43211">
        <ele>164</ele>
        <time>2019-02-17T09:04:20.000Z</time>
      </trkpt>
      <trkpt lat="46.82868" lon="0.43211">
        <ele>164</ele>
        <time>2019-02-17T09:04:21.000Z</time>
      </trkpt>
      <trkpt lat="46.82869" lon="0.43211">
        <ele>163</ele>
        <time>2019-02-17T09:04:22.000Z</time>
      </trkpt>
      <trkpt lat="46.82869" lon="0.43211">
        <ele>163</ele>
        <time>2019-02-17T09:04:23.000Z</time>
      </trkpt>
      <trkpt lat="46.82869" lon="0.43211">
        <ele>163</ele>
        <time>2019-02-17T09:04:24.000Z</time>
      </trkpt>
      <trkpt lat="46.82869" lon="0.43212">
        <ele>162</ele>
        <time>2019-02-17T09:04:25.000Z</time>
      </trkpt>
      <trkpt lat="46.8287" lon="0.43212">
        <ele>162</ele>
        <time>2019-02-17T09:04:26.000Z</time>
      </trkpt>
      <trkpt lat="46.8287" lon="0.43212">
        <ele>162</ele>
        <time>2019-02-17T09:04:27.000Z</time>
      </trkpt>
      <trkpt lat="46.82871" lon="0.43212">
        <ele>161</ele>
        <time>2019-02-17T09:04:28.000Z</time>
      </trkpt>
      <trkpt lat="46.82871" lon="0.43212">
        <ele>161</ele>
        <time>2019-02-17T09:04:29.000Z</time>
      </trkpt>
      <trkpt lat="46.82872" lon="0.43212">
        <ele>161</ele>
        <time>2019-02-17T09:04:30.000Z</time>
      </trkpt>
      <trkpt lat="46.82872" lon="0.43212">
        <ele>161</ele>
        <time>2019-02-17T09:04:31.000Z</time>
      </trkpt>
      <trkpt lat="46.82872" lon="0.43212">
        <ele>160</ele>
        <time>2019-02-17T09:04:32.000Z</time>
      </trkpt>
      <trkpt lat="46.82873" lon="0.43213">
        <ele>160</ele>
        <time>2019-02-17T09:04:33.000Z</time>
      </trkpt>
      <trkpt lat="46.82873" lon="0.43213">
        <ele>159</ele>
        <time>2019-02-17T09:04:34.000Z</time>
      </trkpt>
      <trkpt lat="46.82873" lon="0.43213">
        <ele>159</ele>
        <time>2019-02-17T09:04:35.000Z</time>
      </trkpt>
      <trkpt lat="46.82873" lon="0.43213">
        <ele>158</ele>
        <time>2019-02-17T09:04:36.000Z</time>
      </trkpt>
      <trkpt lat="46.82873" lon="0.43214">
        <ele>158</ele>
        <time>2019-02-17T09:04:37.000Z</time>
      </trkpt>
      <trkpt lat="46.82873" lon="0.43214">
        <ele>158</ele>
        <time>2019-02-17T09:04:38.000Z</time>
      </trkpt>
      <trkpt lat="46.82873" lon="0.43214">
        <ele>158</ele>
        <time>2019-02-17T09:04:39.000Z</time>
      </trkpt>
      <trkpt lat="46.82873" lon="0.43215">
        <ele>158</ele>
        <time>2019-02-17T09:04:40.000Z</time>
      </trkpt>
      <trkpt lat="46.82873" lon="0.43215">
        <ele>159</ele>
        <time>2019-02-17T09:04:41.000Z</time>
      </trkpt>
      <trkpt lat="46.82873" lon="0.43215">
        <ele>159</ele>
        <time>2019-02-17T09:04:42.000Z</time>
      </trkpt>
      <trkpt lat="46.82872" lon="0.43215">
        <ele>159</ele>
        <time>2019-02-17T09:04:43.000Z</time>
      </trkpt>
      <trkpt lat="46.82872" lon="0.43215">
        <ele>159</ele>
        <time>2019-02-17T09:04:44.000Z</time>
      </trkpt>
      <trkpt lat="46.82872" lon="0.43216">
        <ele>159</ele>
        <time>2019-02-17T09:04:45.000Z</time>
      </trkpt>
      <trkpt lat="46.82872" lon="0.43216">
        <ele>159</ele>
        <time>2019-02-17T09:04:46.000Z</time>
      </trkpt>
      <trkpt lat="46.82871" lon="0.43216">
        <ele>159</ele>
        <time>2019-02-17T09:04:47.000Z</time>
      </trkpt>
      <trkpt lat="46.82871" lon="0.43216">
        <ele>159</ele>
        <time>2019-02-17T09:04:48.000Z</time>
      </trkpt>
      <trkpt lat="46.82871" lon="0.43217">
        <ele>159</ele>
        <time>2019-02-17T09:04:49.000Z</time>
      </trkpt>
      <trkpt lat="46.82871" lon="0.43217">
        <ele>159</ele>
        <time>2019-02-17T09:04:50.000Z</time>
      </trkpt>
      <trkpt lat="46.82871" lon="0.43217">
        <ele>158</ele>
        <time>2019-02-17T09:04:51.000Z</time>
      </trkpt>
      <trkpt lat="46.82871" lon="0.43217">
        <ele>158</ele>
        <time>2019-02-17T09:04:52.000Z</time>
      </trkpt>
      <trkpt lat="46.82871" lon="0.43217">
        <ele>157</ele>
        <time>2019-02-17T09:04:53.000Z</time>
      </trkpt>
      <trkpt lat="46.8287" lon="0.43218">
        <ele>157</ele>
        <time>2019-02-17T09:04:54.000Z</time>
      </trkpt>
      <trkpt lat="46.8287" lon="0.43218">
        <ele>157</ele>
        <time>2019-02-17T09:04:55.000Z</time>
      </trkpt>
      <trkpt lat="46.82869" lon="0.43219">
        <ele>156</ele>
        <time>2019-02-17T09:04:56.000Z</time>
      </trkpt>
      <trkpt lat="46.82869" lon="0.4322">
        <ele>156</ele>
        <time>2019-02-17T09:04:57.000Z</time>
      </trkpt>
      <trkpt lat="46.82868" lon="0.43221">
        <ele>155</ele>
        <time>2019-02-17T09:04:58.000Z</time>
      </trkpt>
      <trkpt lat="46.82868" lon="0.43223">
        <ele>154</ele>
        <time>2019-02-17T09:04:59.000Z</time>
      </trkpt>
      <trkpt lat="46.82867" lon="0.43225">
        <ele>153</ele>
        <time>2019-02-17T09:05:00.000Z</time>
      </trkpt>
      <trkpt lat="46.82867" lon="0.43227">
        <ele>153</ele>
        <time>2019-02-17T09:05:01.000Z</time>
      </trkpt>
      <trkpt lat="46.82866" lon="0.43229">
        <ele>153</ele>
        <time>2019-02-17T09:05:02.000Z</time>
      </trkpt>
      <trkpt lat="46.82866" lon="0.43231">
        <ele>153</ele>
        <time>2019-02-17T09:05:03.000Z</time>
      </trkpt>
      <trkpt lat="46.82866" lon="0.43234">
        <ele>152</ele>
        <time>2019-02-17T09:05:04.000Z</time>
      </trkpt>
      <trkpt lat="46.82866" lon="0.43237">
        <ele>152</ele>
        <time>2019-02-17T09:05:05.000Z</time>
      </trkpt>
      <trkpt lat="46.82865" lon="0.43241">
        <ele>150</ele>
        <time>2019-02-17T09:05:06.000Z</time>
      </trkpt>
      <trkpt lat="46.82864" lon="0.43245">
        <ele>149</ele>
        <time>2019-02-17T09:05:07.000Z</time>
      </trkpt>
      <trkpt lat="46.82862" lon="0.43248">
        <ele>149</ele>
        <time>2019-02-17T09:05:08.000Z</time>
      </trkpt>
      <trkpt lat="46.8286" lon="0.43251">
        <ele>149</ele>
        <time>2019-02-17T09:05:09.000Z</time>
      </trkpt>
      <trkpt lat="46.82858" lon="0.43254">
        <ele>149</ele>
        <time>2019-02-17T09:05:10.000Z</time>
      </trkpt>
      <trkpt lat="46.82857" lon="0.43257">
        <ele>149</ele>
        <time>2019-02-17T09:05:11.000Z</time>
      </trkpt>
      <trkpt lat="46.82856" lon="0.4326">
        <ele>148</ele>
        <time>2019-02-17T09:05:12.000Z</time>
      </trkpt>
      <trkpt lat="46.82855" lon="0.43262">
        <ele>148</ele>
        <time>2019-02-17T09:05:13.000Z</time>
      </trkpt>
      <trkpt lat="46.82855" lon="0.43264">
        <ele>147</ele>
        <time>2019-02-17T09:05:14.000Z</time>
      </trkpt>
      <trkpt lat="46.82854" lon="0.43267">
        <ele>147</ele>
        <time>2019-02-17T09:05:15.000Z</time>
      </trkpt>
      <trkpt lat="46.82853" lon="0.43269">
        <ele>147</ele>
        <time>2019-02-17T09:05:16.000Z</time>
      </trkpt>
      <trkpt lat="46.82852" lon="0.43271">
        <ele>146</ele>
        <time>2019-02-17T09:05:17.000Z</time>
      </trkpt>
      <trkpt lat="46.82851" lon="0.43273">
        <ele>146</ele>
        <time>2019-02-17T09:05:18.000Z</time>
      </trkpt>
      <trkpt lat="46.82849" lon="0.43276">
        <ele>144</ele>
        <time>2019-02-17T09:05:19.000Z</time>
      </trkpt>
      <trkpt lat="46.82846" lon="0.43281">
        <ele>142</ele>
        <time>2019-02-17T09:05:20.000Z</time>
      </trkpt>
      <trkpt lat="46.82844" lon="0.43286">
        <ele>141</ele>
        <time>2019-02-17T09:05:21.000Z</time>
      </trkpt>
      <trkpt lat="46.82842" lon="0.43291">
        <ele>141</ele>
        <time>2019-02-17T09:05:22.000Z</time>
      </trkpt>
      <trkpt lat="46.82841" lon="0.43297">
        <ele>139</ele>
        <time>2019-02-17T09:05:23.000Z</time>
      </trkpt>
      <trkpt lat="46.8284" lon="0.43302">
        <ele>139</ele>
        <time>2019-02-17T09:05:24.000Z</time>
      </trkpt>
      <trkpt lat="46.82839" lon="0.43308">
        <ele>137</ele>
        <time>2019-02-17T09:05:25.000Z</time>
      </trkpt>
      <trkpt lat="46.82838" lon="0.43314">
        <ele>134</ele>
        <time>2019-02-17T09:05:26.000Z</time>
      </trkpt>
      <trkpt lat="46.82838" lon="0.4332">
        <ele>131</ele>
        <time>2019-02-17T09:05:27.000Z</time>
      </trkpt>
      <trkpt lat="46.82838" lon="0.43327">
        <ele>131</ele>
        <time>2019-02-17T09:05:28.000Z</time>
      </trkpt>
      <trkpt lat="46.82839" lon="0.43334">
        <ele>131</ele>
        <time>2019-02-17T09:05:29.000Z</time>
      </trkpt>
      <trkpt lat="46.8284" lon="0.4334">
        <ele>131</ele>
        <time>2019-02-17T09:05:30.000Z</time>
      </trkpt>
      <trkpt lat="46.82841" lon="0.43345">
        <ele>132</ele>
        <time>2019-02-17T09:05:31.000Z</time>
      </trkpt>
      <trkpt lat="46.82842" lon="0.43349">
        <ele>132</ele>
        <time>2019-02-17T09:05:32.000Z</time>
      </trkpt>
      <trkpt lat="46.82843" lon="0.43352">
        <ele>132</ele>
        <time>2019-02-17T09:05:33.000Z</time>
      </trkpt>
      <trkpt lat="46.82845" lon="0.43354">
        <ele>132</ele>
        <time>2019-02-17T09:05:34.000Z</time>
      </trkpt>
      <trkpt lat="46.82847" lon="0.43356">
        <ele>132</ele>
        <time>2019-02-17T09:05:35.000Z</time>
      </trkpt>
      <trkpt lat="46.82848" lon="0.43359">
        <ele>134</ele>
        <time>2019-02-17T09:05:36.000Z</time>
      </trkpt>
      <trkpt lat="46.82849" lon="0.43363">
        <ele>135</ele>
        <time>2019-02-17T09:05:37.000Z</time>
      </trkpt>
      <trkpt lat="46.82852" lon="0.43367">
        <ele>135</ele>
        <time>2019-02-17T09:05:38.000Z</time>
      </trkpt>
      <trkpt lat="46.82854" lon="0.4337">
        <ele>137</ele>
        <time>2019-02-17T09:05:39.000Z</time>
      </trkpt>
      <trkpt lat="46.82857" lon="0.43374">
        <ele>138</ele>
        <time>2019-02-17T09:05:40.000Z</time>
      </trkpt>
      <trkpt lat="46.82858" lon="0.43379">
        <ele>140</ele>
        <time>2019-02-17T09:05:41.000Z</time>
      </trkpt>
      <trkpt lat="46.82859" lon="0.43383">
        <ele>141</ele>
        <time>2019-02-17T09:05:42.000Z</time>
      </trkpt>
      <trkpt lat="46.8286" lon="0.43388">
        <ele>142</ele>
        <time>2019-02-17T09:05:43.000Z</time>
      </trkpt>
      <trkpt lat="46.82861" lon="0.43393">
        <ele>143</ele>
        <time>2019-02-17T09:05:44.000Z</time>
      </trkpt>
      <trkpt lat="46.82862" lon="0.43397">
        <ele>143</ele>
        <time>2019-02-17T09:05:45.000Z</time>
      </trkpt>
      <trkpt lat="46.82864" lon="0.43402">
        <ele>144</ele>
        <time>2019-02-17T09:05:46.000Z</time>
      </trkpt>
      <trkpt lat="46.82865" lon="0.43407">
        <ele>145</ele>
        <time>2019-02-17T09:05:47.000Z</time>
      </trkpt>
      <trkpt lat="46.82867" lon="0.43411">
        <ele>146</ele>
        <time>2019-02-17T09:05:48.000Z</time>
      </trkpt>
      <trkpt lat="46.82869" lon="0.43415">
        <ele>147</ele>
        <time>2019-02-17T09:05:49.000Z</time>
      </trkpt>
      <trkpt lat="46.82872" lon="0.43419">
        <ele>148</ele>
        <time>2019-02-17T09:05:50.000Z</time>
      </trkpt>
      <trkpt lat="46.82874" lon="0.43423">
        <ele>149</ele>
        <time>2019-02-17T09:05:51.000Z</time>
      </trkpt>
      <trkpt lat="46.82877" lon="0.43426">
        <ele>149</ele>
        <time>2019-02-17T09:05:52.000Z</time>
      </trkpt>
      <trkpt lat="46.8288" lon="0.43429">
        <ele>149</ele>
        <time>2019-02-17T09:05:53.000Z</time>
      </trkpt>
      <trkpt lat="46.82883" lon="0.43433">
        <ele>149</ele>
        <time>2019-02-17T09:05:54.000Z</time>
      </trkpt>
      <trkpt lat="46.82885" lon="0.43436">
        <ele>149</ele>
        <time>2019-02-17T09:05:55.000Z</time>
      </trkpt>
      <trkpt lat="46.82887" lon="0.43439">
        <ele>149</ele>
        <time>2019-02-17T09:05:56.000Z</time>
      </trkpt>
      <trkpt lat="46.82889" lon="0.43442">
        <ele>150</ele>
        <time>2019-02-17T09:05:57.000Z</time>
      </trkpt>
      <trkpt lat="46.82892" lon="0.43444">
        <ele>150</ele>
        <time>2019-02-17T09:05:58.000Z</time>
      </trkpt>
      <trkpt lat="46.82895" lon="0.43447">
        <ele>150</ele>
        <time>2019-02-17T09:05:59.000Z</time>
      </trkpt>
      <trkpt lat="46.82898" lon="0.43449">
        <ele>150</ele>
        <time>2019-02-17T09:06:00.000Z</time>
      </trkpt>
      <trkpt lat="46.82901" lon="0.43451">
        <ele>150</ele>
        <time>2019-02-17T09:06:01.000Z</time>
      </trkpt>
      <trkpt lat="46.82903" lon="0.43453">
        <ele>150</ele>
        <time>2019-02-17T09:06:02.000Z</time>
      </trkpt>
      <trkpt lat="46.82906" lon="0.43455">
        <ele>150</ele>
        <time>2019-02-17T09:06:03.000Z</time>
      </trkpt>
      <trkpt lat="46.82908" lon="0.43457">
        <ele>150</ele>
        <time>2019-02-17T09:06:04.000Z</time>
      </trkpt>
      <trkpt lat="46.82911" lon="0.43459">
        <ele>150</ele>
        <time>2019-02-17T09:06:05.000Z</time>
      </trkpt>
      <trkpt lat="46.82913" lon="0.4346">
        <ele>150</ele>
        <time>2019-02-17T09:06:06.000Z</time>
      </trkpt>
      <trkpt lat="46.82915" lon="0.43462">
        <ele>149</ele>
        <time>2019-02-17T09:06:07.000Z</time>
      </trkpt>
      <trkpt lat="46.82916" lon="0.43464">
        <ele>148</ele>
        <time>2019-02-17T09:06:08.000Z</time>
      </trkpt>
      <trkpt lat="46.82916" lon="0.43466">
        <ele>145</ele>
        <time>2019-02-17T09:06:09.000Z</time>
      </trkpt>
      <trkpt lat="46.82915" lon="0.43467">
        <ele>144</ele>
        <time>2019-02-17T09:06:10.000Z</time>
      </trkpt>
      <trkpt lat="46.82913" lon="0.43467">
        <ele>144</ele>
        <time>2019-02-17T09:06:11.000Z</time>
      </trkpt>
      <trkpt lat="46.82912" lon="0.43467">
        <ele>143</ele>
        <time>2019-02-17T09:06:12.000Z</time>
      </trkpt>
      <trkpt lat="46.82911" lon="0.43468">
        <ele>143</ele>
        <time>2019-02-17T09:06:13.000Z</time>
      </trkpt>
      <trkpt lat="46.82909" lon="0.4347">
        <ele>143</ele>
        <time>2019-02-17T09:06:14.000Z</time>
      </trkpt>
      <trkpt lat="46.82907" lon="0.43471">
        <ele>143</ele>
        <time>2019-02-17T09:06:15.000Z</time>
      </trkpt>
      <trkpt lat="46.82904" lon="0.43473">
        <ele>143</ele>
        <time>2019-02-17T09:06:16.000Z</time>
      </trkpt>
      <trkpt lat="46.82902" lon="0.43474">
        <ele>143</ele>
        <time>2019-02-17T09:06:17.000Z</time>
      </trkpt>
      <trkpt lat="46.82899" lon="0.43476">
        <ele>143</ele>
        <time>2019-02-17T09:06:18.000Z</time>
      </trkpt>
      <trkpt lat="46.82896" lon="0.43477">
        <ele>142</ele>
        <time>2019-02-17T09:06:19.000Z</time>
      </trkpt>
      <trkpt lat="46.82893" lon="0.43479">
        <ele>140</ele>
        <time>2019-02-17T09:06:20.000Z</time>
      </trkpt>
      <trkpt lat="46.82889" lon="0.43482">
        <ele>141</ele>
        <time>2019-02-17T09:06:21.000Z</time>
      </trkpt>
      <trkpt lat="46.82886" lon="0.43485">
        <ele>141</ele>
        <time>2019-02-17T09:06:22.000Z</time>
      </trkpt>
      <trkpt lat="46.82882" lon="0.43488">
        <ele>141</ele>
        <time>2019-02-17T09:06:23.000Z</time>
      </trkpt>
      <trkpt lat="46.82879" lon="0.43491">
        <ele>141</ele>
        <time>2019-02-17T09:06:24.000Z</time>
      </trkpt>
      <trkpt lat="46.82875" lon="0.43494">
        <ele>141</ele>
        <time>2019-02-17T09:06:25.000Z</time>
      </trkpt>
      <trkpt lat="46.82871" lon="0.43498">
        <ele>140</ele>
        <time>2019-02-17T09:06:26.000Z</time>
      </trkpt>
      <trkpt lat="46.82867" lon="0.43502">
        <ele>141</ele>
        <time>2019-02-17T09:06:27.000Z</time>
      </trkpt>
      <trkpt lat="46.82864" lon="0.43504">
        <ele>141</ele>
        <time>2019-02-17T09:06:28.000Z</time>
      </trkpt>
      <trkpt lat="46.82861" lon="0.43507">
        <ele>140</ele>
        <time>2019-02-17T09:06:29.000Z</time>
      </trkpt>
      <trkpt lat="46.82858" lon="0.43509">
        <ele>140</ele>
        <time>2019-02-17T09:06:30.000Z</time>
      </trkpt>
      <trkpt lat="46.82856" lon="0.4351">
        <ele>140</ele>
        <time>2019-02-17T09:06:31.000Z</time>
      </trkpt>
      <trkpt lat="46.82854" lon="0.43512">
        <ele>140</ele>
        <time>2019-02-17T09:06:32.000Z</time>
      </trkpt>
      <trkpt lat="46.82852" lon="0.43513">
        <ele>140</ele>
        <time>2019-02-17T09:06:33.000Z</time>
      </trkpt>
      <trkpt lat="46.8285" lon="0.43514">
        <ele>141</ele>
        <time>2019-02-17T09:06:34.000Z</time>
      </trkpt>
      <trkpt lat="46.82848" lon="0.43514">
        <ele>142</ele>
        <time>2019-02-17T09:06:35.000Z</time>
      </trkpt>
      <trkpt lat="46.82847" lon="0.43515">
        <ele>143</ele>
        <time>2019-02-17T09:06:36.000Z</time>
      </trkpt>
      <trkpt lat="46.82846" lon="0.43516">
        <ele>143</ele>
        <time>2019-02-17T09:06:37.000Z</time>
      </trkpt>
      <trkpt lat="46.82844" lon="0.43517">
        <ele>142</ele>
        <time>2019-02-17T09:06:38.000Z</time>
      </trkpt>
      <trkpt lat="46.82843" lon="0.43519">
        <ele>142</ele>
        <time>2019-02-17T09:06:39.000Z</time>
      </trkpt>
      <trkpt lat="46.82841" lon="0.4352">
        <ele>142</ele>
        <time>2019-02-17T09:06:40.000Z</time>
      </trkpt>
      <trkpt lat="46.82839" lon="0.43521">
        <ele>142</ele>
        <time>2019-02-17T09:06:41.000Z</time>
      </trkpt>
      <trkpt lat="46.82837" lon="0.43522">
        <ele>142</ele>
        <time>2019-02-17T09:06:42.000Z</time>
      </trkpt>
      <trkpt lat="46.82835" lon="0.43523">
        <ele>143</ele>
        <time>2019-02-17T09:06:43.000Z</time>
      </trkpt>
      <trkpt lat="46.82832" lon="0.43524">
        <ele>144</ele>
        <time>2019-02-17T09:06:44.000Z</time>
      </trkpt>
      <trkpt lat="46.8283" lon="0.43524">
        <ele>143</ele>
        <time>2019-02-17T09:06:45.000Z</time>
      </trkpt>
      <trkpt lat="46.82828" lon="0.43525">
        <ele>143</ele>
        <time>2019-02-17T09:06:46.000Z</time>
      </trkpt>
      <trkpt lat="46.82826" lon="0.43526">
        <ele>142</ele>
        <time>2019-02-17T09:06:47.000Z</time>
      </trkpt>
      <trkpt lat="46.82823" lon="0.43527">
        <ele>141</ele>
        <time>2019-02-17T09:06:48.000Z</time>
      </trkpt>
      <trkpt lat="46.8282" lon="0.43528">
        <ele>141</ele>
        <time>2019-02-17T09:06:49.000Z</time>
      </trkpt>
      <trkpt lat="46.82816" lon="0.43529">
        <ele>140</ele>
        <time>2019-02-17T09:06:50.000Z</time>
      </trkpt>
      <trkpt lat="46.82812" lon="0.43529">
        <ele>139</ele>
        <time>2019-02-17T09:06:51.000Z</time>
      </trkpt>
      <trkpt lat="46.82808" lon="0.4353">
        <ele>137</ele>
        <time>2019-02-17T09:06:52.000Z</time>
      </trkpt>
      <trkpt lat="46.82804" lon="0.43531">
        <ele>137</ele>
        <time>2019-02-17T09:06:53.000Z</time>
      </trkpt>
      <trkpt lat="46.828" lon="0.43531">
        <ele>136</ele>
        <time>2019-02-17T09:06:54.000Z</time>
      </trkpt>
      <trkpt lat="46.82797" lon="0.43531">
        <ele>135</ele>
        <time>2019-02-17T09:06:55.000Z</time>
      </trkpt>
      <trkpt lat="46.82794" lon="0.43531">
        <ele>134</ele>
        <time>2019-02-17T09:06:56.000Z</time>
      </trkpt>
      <trkpt lat="46.82791" lon="0.4353">
        <ele>134</ele>
        <time>2019-02-17T09:06:57.000Z</time>
      </trkpt>
      <trkpt lat="46.82788" lon="0.4353">
        <ele>133</ele>
        <time>2019-02-17T09:06:58.000Z</time>
      </trkpt>
      <trkpt lat="46.82786" lon="0.4353">
        <ele>133</ele>
        <time>2019-02-17T09:06:59.000Z</time>
      </trkpt>
      <trkpt lat="46.82784" lon="0.4353">
        <ele>133</ele>
        <time>2019-02-17T09:07:00.000Z</time>
      </trkpt>
      <trkpt lat="46.82781" lon="0.43532">
        <ele>132</ele>
        <time>2019-02-17T09:07:01.000Z</time>
      </trkpt>
      <trkpt lat="46.82779" lon="0.43535">
        <ele>134</ele>
        <time>2019-02-17T09:07:02.000Z</time>
      </trkpt>
      <trkpt lat="46.82776" lon="0.43539">
        <ele>134</ele>
        <time>2019-02-17T09:07:03.000Z</time>
      </trkpt>
      <trkpt lat="46.82775" lon="0.43542">
        <ele>133</ele>
        <time>2019-02-17T09:07:04.000Z</time>
      </trkpt>
      <trkpt lat="46.82775" lon="0.43545">
        <ele>133</ele>
        <time>2019-02-17T09:07:05.000Z</time>
      </trkpt>
      <trkpt lat="46.82776" lon="0.43548">
        <ele>132</ele>
        <time>2019-02-17T09:07:06.000Z</time>
      </trkpt>
      <trkpt lat="46.82776" lon="0.43551">
        <ele>131</ele>
        <time>2019-02-17T09:07:07.000Z</time>
      </trkpt>
      <trkpt lat="46.82776" lon="0.43555">
        <ele>130</ele>
        <time>2019-02-17T09:07:08.000Z</time>
      </trkpt>
      <trkpt lat="46.82777" lon="0.43559">
        <ele>129</ele>
        <time>2019-02-17T09:07:09.000Z</time>
      </trkpt>
      <trkpt lat="46.82777" lon="0.43563">
        <ele>129</ele>
        <time>2019-02-17T09:07:10.000Z</time>
      </trkpt>
      <trkpt lat="46.82777" lon="0.43567">
        <ele>128</ele>
        <time>2019-02-17T09:07:11.000Z</time>
      </trkpt>
      <trkpt lat="46.82777" lon="0.43569">
        <ele>127</ele>
        <time>2019-02-17T09:07:12.000Z</time>
      </trkpt>
      <trkpt lat="46.8278" lon="0.4357">
        <ele>125</ele>
        <time>2019-02-17T09:07:13.000Z</time>
      </trkpt>
      <trkpt lat="46.82783" lon="0.4357">
        <ele>126</ele>
        <time>2019-02-17T09:07:14.000Z</time>
      </trkpt>
      <trkpt lat="46.82786" lon="0.4357">
        <ele>126</ele>
        <time>2019-02-17T09:07:15.000Z</time>
      </trkpt>
      <trkpt lat="46.82788" lon="0.43572">
        <ele>127</ele>
        <time>2019-02-17T09:07:16.000Z</time>
      </trkpt>
      <trkpt lat="46.8279" lon="0.43573">
        <ele>127</ele>
        <time>2019-02-17T09:07:17.000Z</time>
      </trkpt>
      <trkpt lat="46.82792" lon="0.43575">
        <ele>127</ele>
        <time>2019-02-17T09:07:18.000Z</time>
      </trkpt>
      <trkpt lat="46.82794" lon="0.43576">
        <ele>127</ele>
        <time>2019-02-17T09:07:19.000Z</time>
      </trkpt>
      <trkpt lat="46.82796" lon="0.43577">
        <ele>126</ele>
        <time>2019-02-17T09:07:20.000Z</time>
      </trkpt>
      <trkpt lat="46.82798" lon="0.43578">
        <ele>125</ele>
        <time>2019-02-17T09:07:21.000Z</time>
      </trkpt>
      <trkpt lat="46.82801" lon="0.43578">
        <ele>124</ele>
        <time>2019-02-17T09:07:22.000Z</time>
      </trkpt>
      <trkpt lat="46.82804" lon="0.43579">
        <ele>124</ele>
        <time>2019-02-17T09:07:23.000Z</time>
      </trkpt>
      <trkpt lat="46.82807" lon="0.43581">
        <ele>123</ele>
        <time>2019-02-17T09:07:24.000Z</time>
      </trkpt>
      <trkpt lat="46.82809" lon="0.43583">
        <ele>122</ele>
        <time>2019-02-17T09:07:25.000Z</time>
      </trkpt>
      <trkpt lat="46.82812" lon="0.43585">
        <ele>121</ele>
        <time>2019-02-17T09:07:26.000Z</time>
      </trkpt>
      <trkpt lat="46.82815" lon="0.43587">
        <ele>122</ele>
        <time>2019-02-17T09:07:27.000Z</time>
      </trkpt>
      <trkpt lat="46.82817" lon="0.43588">
        <ele>123</ele>
        <time>2019-02-17T09:07:28.000Z</time>
      </trkpt>
      <trkpt lat="46.82819" lon="0.4359">
        <ele>124</ele>
        <time>2019-02-17T09:07:29.000Z</time>
      </trkpt>
      <trkpt lat="46.82821" lon="0.4359">
        <ele>125</ele>
        <time>2019-02-17T09:07:30.000Z</time>
      </trkpt>
      <trkpt lat="46.82822" lon="0.43592">
        <ele>127</ele>
        <time>2019-02-17T09:07:31.000Z</time>
      </trkpt>
      <trkpt lat="46.82823" lon="0.43593">
        <ele>127</ele>
        <time>2019-02-17T09:07:32.000Z</time>
      </trkpt>
      <trkpt lat="46.82824" lon="0.43596">
        <ele>127</ele>
        <time>2019-02-17T09:07:33.000Z</time>
      </trkpt>
      <trkpt lat="46.82825" lon="0.43598">
        <ele>127</ele>
        <time>2019-02-17T09:07:34.000Z</time>
      </trkpt>
      <trkpt lat="46.82827" lon="0.43601">
        <ele>128</ele>
        <time>2019-02-17T09:07:35.000Z</time>
      </trkpt>
      <trkpt lat="46.82828" lon="0.43603">
        <ele>129</ele>
        <time>2019-02-17T09:07:36.000Z</time>
      </trkpt>
      <trkpt lat="46.82829" lon="0.43606">
        <ele>130</ele>
        <time>2019-02-17T09:07:37.000Z</time>
      </trkpt>
      <trkpt lat="46.8283" lon="0.43608">
        <ele>132</ele>
        <time>2019-02-17T09:07:38.000Z</time>
      </trkpt>
      <trkpt lat="46.82831" lon="0.4361">
        <ele>132</ele>
        <time>2019-02-17T09:07:39.000Z</time>
      </trkpt>
      <trkpt lat="46.82832" lon="0.43612">
        <ele>133</ele>
        <time>2019-02-17T09:07:40.000Z</time>
      </trkpt>
      <trkpt lat="46.82834" lon="0.43614">
        <ele>133</ele>
        <time>2019-02-17T09:07:41.000Z</time>
      </trkpt>
      <trkpt lat="46.82835" lon="0.43616">
        <ele>134</ele>
        <time>2019-02-17T09:07:42.000Z</time>
      </trkpt>
      <trkpt lat="46.82836" lon="0.43617">
        <ele>133</ele>
        <time>2019-02-17T09:07:43.000Z</time>
      </trkpt>
      <trkpt lat="46.82836" lon="0.43618">
        <ele>133</ele>
        <time>2019-02-17T09:07:44.000Z</time>
      </trkpt>
      <trkpt lat="46.82837" lon="0.43619">
        <ele>134</ele>
        <time>2019-02-17T09:07:45.000Z</time>
      </trkpt>
      <trkpt lat="46.82837" lon="0.4362">
        <ele>136</ele>
        <time>2019-02-17T09:07:46.000Z</time>
      </trkpt>
      <trkpt lat="46.82837" lon="0.43621">
        <ele>136</ele>
        <time>2019-02-17T09:07:47.000Z</time>
      </trkpt>
      <trkpt lat="46.82837" lon="0.43621">
        <ele>137</ele>
        <time>2019-02-17T09:07:48.000Z</time>
      </trkpt>
      <trkpt lat="46.82837" lon="0.43622">
        <ele>140</ele>
        <time>2019-02-17T09:07:49.000Z</time>
      </trkpt>
      <trkpt lat="46.82837" lon="0.43623">
        <ele>141</ele>
        <time>2019-02-17T09:07:50.000Z</time>
      </trkpt>
      <trkpt lat="46.82837" lon="0.43624">
        <ele>142</ele>
        <time>2019-02-17T09:07:51.000Z</time>
      </trkpt>
      <trkpt lat="46.82837" lon="0.43625">
        <ele>143</ele>
        <time>2019-02-17T09:07:52.000Z</time>
      </trkpt>
      <trkpt lat="46.82838" lon="0.43626">
        <ele>143</ele>
        <time>2019-02-17T09:07:53.000Z</time>
      </trkpt>
      <trkpt lat="46.82838" lon="0.43627">
        <ele>144</ele>
        <time>2019-02-17T09:07:54.000Z</time>
      </trkpt>
      <trkpt lat="46.82839" lon="0.43628">
        <ele>144</ele>
        <time>2019-02-17T09:07:55.000Z</time>
      </trkpt>
      <trkpt lat="46.8284" lon="0.43628">
        <ele>145</ele>
        <time>2019-02-17T09:07:56.000Z</time>
      </trkpt>
      <trkpt lat="46.82841" lon="0.43628">
        <ele>146</ele>
        <time>2019-02-17T09:07:57.000Z</time>
      </trkpt>
      <trkpt lat="46.82841" lon="0.43629">
        <ele>146</ele>
        <time>2019-02-17T09:07:58.000Z</time>
      </trkpt>
      <trkpt lat="46.8284" lon="0.43631">
        <ele>148</ele>
        <time>2019-02-17T09:07:59.000Z</time>
      </trkpt>
      <trkpt lat="46.82839" lon="0.43633">
        <ele>148</ele>
        <time>2019-02-17T09:08:00.000Z</time>
      </trkpt>
      <trkpt lat="46.82839" lon="0.43635">
        <ele>149</ele>
        <time>2019-02-17T09:08:01.000Z</time>
      </trkpt>
      <trkpt lat="46.82839" lon="0.43637">
        <ele>149</ele>
        <time>2019-02-17T09:08:02.000Z</time>
      </trkpt>
      <trkpt lat="46.82839" lon="0.43639">
        <ele>149</ele>
        <time>2019-02-17T09:08:03.000Z</time>
      </trkpt>
      <trkpt lat="46.82838" lon="0.43641">
        <ele>150</ele>
        <time>2019-02-17T09:08:04.000Z</time>
      </trkpt>
      <trkpt lat="46.82838" lon="0.43642">
        <ele>151</ele>
        <time>2019-02-17T09:08:05.000Z</time>
      </trkpt>
      <trkpt lat="46.82838" lon="0.43644">
        <ele>151</ele>
        <time>2019-02-17T09:08:06.000Z</time>
      </trkpt>
      <trkpt lat="46.82838" lon="0.43646">
        <ele>150</ele>
        <time>2019-02-17T09:08:07.000Z</time>
      </trkpt>
      <trkpt lat="46.82838" lon="0.43649">
        <ele>150</ele>
        <time>2019-02-17T09:08:08.000Z</time>
      </trkpt>
      <trkpt lat="46.82838" lon="0.4365">
        <ele>150</ele>
        <time>2019-02-17T09:08:09.000Z</time>
      </trkpt>
      <trkpt lat="46.82837" lon="0.43652">
        <ele>150</ele>
        <time>2019-02-17T09:08:10.000Z</time>
      </trkpt>
      <trkpt lat="46.82836" lon="0.43653">
        <ele>151</ele>
        <time>2019-02-17T09:08:11.000Z</time>
      </trkpt>
      <trkpt lat="46.82836" lon="0.43655">
        <ele>152</ele>
        <time>2019-02-17T09:08:12.000Z</time>
      </trkpt>
      <trkpt lat="46.82836" lon="0.43656">
        <ele>151</ele>
        <time>2019-02-17T09:08:13.000Z</time>
      </trkpt>
      <trkpt lat="46.82836" lon="0.43659">
        <ele>153</ele>
        <time>2019-02-17T09:08:14.000Z</time>
      </trkpt>
      <trkpt lat="46.82836" lon="0.43662">
        <ele>153</ele>
        <time>2019-02-17T09:08:15.000Z</time>
      </trkpt>
      <trkpt lat="46.82835" lon="0.43665">
        <ele>153</ele>
        <time>2019-02-17T09:08:16.000Z</time>
      </trkpt>
      <trkpt lat="46.82835" lon="0.43668">
        <ele>154</ele>
        <time>2019-02-17T09:08:17.000Z</time>
      </trkpt>
      <trkpt lat="46.82834" lon="0.4367">
        <ele>154</ele>
        <time>2019-02-17T09:08:18.000Z</time>
      </trkpt>
      <trkpt lat="46.82834" lon="0.43672">
        <ele>154</ele>
        <time>2019-02-17T09:08:19.000Z</time>
      </trkpt>
      <trkpt lat="46.82833" lon="0.43674">
        <ele>154</ele>
        <time>2019-02-17T09:08:20.000Z</time>
      </trkpt>
      <trkpt lat="46.82833" lon="0.43675">
        <ele>154</ele>
        <time>2019-02-17T09:08:21.000Z</time>
      </trkpt>
      <trkpt lat="46.82832" lon="0.43677">
        <ele>154</ele>
        <time>2019-02-17T09:08:22.000Z</time>
      </trkpt>
      <trkpt lat="46.82831" lon="0.43678">
        <ele>155</ele>
        <time>2019-02-17T09:08:23.000Z</time>
      </trkpt>
      <trkpt lat="46.8283" lon="0.43679">
        <ele>155</ele>
        <time>2019-02-17T09:08:24.000Z</time>
      </trkpt>
      <trkpt lat="46.82829" lon="0.43681">
        <ele>155</ele>
        <time>2019-02-17T09:08:25.000Z</time>
      </trkpt>
      <trkpt lat="46.82827" lon="0.43682">
        <ele>156</ele>
        <time>2019-02-17T09:08:26.000Z</time>
      </trkpt>
      <trkpt lat="46.82826" lon="0.43685">
        <ele>155</ele>
        <time>2019-02-17T09:08:27.000Z</time>
      </trkpt>
      <trkpt lat="46.82825" lon="0.43687">
        <ele>155</ele>
        <time>2019-02-17T09:08:28.000Z</time>
      </trkpt>
      <trkpt lat="46.82824" lon="0.4369">
        <ele>155</ele>
        <time>2019-02-17T09:08:29.000Z</time>
      </trkpt>
      <trkpt lat="46.82822" lon="0.43693">
        <ele>155</ele>
        <time>2019-02-17T09:08:30.000Z</time>
      </trkpt>
      <trkpt lat="46.82821" lon="0.43695">
        <ele>155</ele>
        <time>2019-02-17T09:08:31.000Z</time>
      </trkpt>
      <trkpt lat="46.82821" lon="0.43698">
        <ele>154</ele>
        <time>2019-02-17T09:08:32.000Z</time>
      </trkpt>
      <trkpt lat="46.82821" lon="0.43701">
        <ele>152</ele>
        <time>2019-02-17T09:08:33.000Z</time>
      </trkpt>
      <trkpt lat="46.82821" lon="0.43704">
        <ele>151</ele>
        <time>2019-02-17T09:08:34.000Z</time>
      </trkpt>
      <trkpt lat="46.82821" lon="0.43706">
        <ele>151</ele>
        <time>2019-02-17T09:08:35.000Z</time>
      </trkpt>
      <trkpt lat="46.82821" lon="0.43709">
        <ele>150</ele>
        <time>2019-02-17T09:08:36.000Z</time>
      </trkpt>
      <trkpt lat="46.82821" lon="0.43712">
        <ele>150</ele>
        <time>2019-02-17T09:08:37.000Z</time>
      </trkpt>
      <trkpt lat="46.8282" lon="0.43715">
        <ele>150</ele>
        <time>2019-02-17T09:08:38.000Z</time>
      </trkpt>
      <trkpt lat="46.8282" lon="0.43718">
        <ele>149</ele>
        <time>2019-02-17T09:08:39.000Z</time>
      </trkpt>
      <trkpt lat="46.82819" lon="0.43721">
        <ele>149</ele>
        <time>2019-02-17T09:08:40.000Z</time>
      </trkpt>
      <trkpt lat="46.82819" lon="0.43724">
        <ele>148</ele>
        <time>2019-02-17T09:08:41.000Z</time>
      </trkpt>
      <trkpt lat="46.82819" lon="0.43727">
        <ele>147</ele>
        <time>2019-02-17T09:08:42.000Z</time>
      </trkpt>
      <trkpt lat="46.82819" lon="0.43731">
        <ele>147</ele>
        <time>2019-02-17T09:08:43.000Z</time>
      </trkpt>
      <trkpt lat="46.8282" lon="0.43734">
        <ele>147</ele>
        <time>2019-02-17T09:08:44.000Z</time>
      </trkpt>
      <trkpt lat="46.8282" lon="0.43737">
        <ele>147</ele>
        <time>2019-02-17T09:08:45.000Z</time>
      </trkpt>
      <trkpt lat="46.8282" lon="0.4374">
        <ele>146</ele>
        <time>2019-02-17T09:08:46.000Z</time>
      </trkpt>
      <trkpt lat="46.8282" lon="0.43744">
        <ele>146</ele>
        <time>2019-02-17T09:08:47.000Z</time>
      </trkpt>
      <trkpt lat="46.8282" lon="0.43747">
        <ele>146</ele>
        <time>2019-02-17T09:08:48.000Z</time>
      </trkpt>
      <trkpt lat="46.8282" lon="0.4375">
        <ele>146</ele>
        <time>2019-02-17T09:08:49.000Z</time>
      </trkpt>
      <trkpt lat="46.8282" lon="0.43753">
        <ele>145</ele>
        <time>2019-02-17T09:08:50.000Z</time>
      </trkpt>
      <trkpt lat="46.82821" lon="0.43755">
        <ele>146</ele>
        <time>2019-02-17T09:08:51.000Z</time>
      </trkpt>
      <trkpt lat="46.82821" lon="0.43758">
        <ele>146</ele>
        <time>2019-02-17T09:08:52.000Z</time>
      </trkpt>
      <trkpt lat="46.82821" lon="0.4376">
        <ele>145</ele>
        <time>2019-02-17T09:08:53.000Z</time>
      </trkpt>
      <trkpt lat="46.8282" lon="0.43763">
        <ele>145</ele>
        <time>2019-02-17T09:08:54.000Z</time>
      </trkpt>
      <trkpt lat="46.82819" lon="0.43764">
        <ele>144</ele>
        <time>2019-02-17T09:08:55.000Z</time>
      </trkpt>
      <trkpt lat="46.82817" lon="0.43765">
        <ele>144</ele>
        <time>2019-02-17T09:08:56.000Z</time>
      </trkpt>
      <trkpt lat="46.82815" lon="0.43766">
        <ele>144</ele>
        <time>2019-02-17T09:08:57.000Z</time>
      </trkpt>
      <trkpt lat="46.82814" lon="0.43766">
        <ele>146</ele>
        <time>2019-02-17T09:08:58.000Z</time>
      </trkpt>
      <trkpt lat="46.82812" lon="0.43767">
        <ele>145</ele>
        <time>2019-02-17T09:08:59.000Z</time>
      </trkpt>
      <trkpt lat="46.8281" lon="0.43767">
        <ele>145</ele>
        <time>2019-02-17T09:09:00.000Z</time>
      </trkpt>
      <trkpt lat="46.82808" lon="0.43768">
        <ele>145</ele>
        <time>2019-02-17T09:09:01.000Z</time>
      </trkpt>
      <trkpt lat="46.82807" lon="0.43771">
        <ele>144</ele>
        <time>2019-02-17T09:09:02.000Z</time>
      </trkpt>
      <trkpt lat="46.82805" lon="0.43774">
        <ele>143</ele>
        <time>2019-02-17T09:09:03.000Z</time>
      </trkpt>
      <trkpt lat="46.82803" lon="0.43777">
        <ele>142</ele>
        <time>2019-02-17T09:09:04.000Z</time>
      </trkpt>
      <trkpt lat="46.82801" lon="0.4378">
        <ele>142</ele>
        <time>2019-02-17T09:09:05.000Z</time>
      </trkpt>
      <trkpt lat="46.82799" lon="0.43782">
        <ele>141</ele>
        <time>2019-02-17T09:09:06.000Z</time>
      </trkpt>
      <trkpt lat="46.82797" lon="0.43784">
        <ele>140</ele>
        <time>2019-02-17T09:09:07.000Z</time>
      </trkpt>
      <trkpt lat="46.82794" lon="0.43785">
        <ele>139</ele>
        <time>2019-02-17T09:09:08.000Z</time>
      </trkpt>
      <trkpt lat="46.82791" lon="0.43784">
        <ele>140</ele>
        <time>2019-02-17T09:09:09.000Z</time>
      </trkpt>
      <trkpt lat="46.82789" lon="0.43784">
        <ele>139</ele>
        <time>2019-02-17T09:09:10.000Z</time>
      </trkpt>
      <trkpt lat="46.82787" lon="0.43784">
        <ele>139</ele>
        <time>2019-02-17T09:09:11.000Z</time>
      </trkpt>
      <trkpt lat="46.82784" lon="0.43784">
        <ele>138</ele>
        <time>2019-02-17T09:09:12.000Z</time>
      </trkpt>
      <trkpt lat="46.82782" lon="0.43785">
        <ele>138</ele>
        <time>2019-02-17T09:09:13.000Z</time>
      </trkpt>
      <trkpt lat="46.82779" lon="0.43786">
        <ele>137</ele>
        <time>2019-02-17T09:09:14.000Z</time>
      </trkpt>
      <trkpt lat="46.82776" lon="0.43786">
        <ele>137</ele>
        <time>2019-02-17T09:09:15.000Z</time>
      </trkpt>
      <trkpt lat="46.82772" lon="0.43786">
        <ele>137</ele>
        <time>2019-02-17T09:09:16.000Z</time>
      </trkpt>
      <trkpt lat="46.82769" lon="0.43786">
        <ele>137</ele>
        <time>2019-02-17T09:09:17.000Z</time>
      </trkpt>
      <trkpt lat="46.82765" lon="0.43786">
        <ele>136</ele>
        <time>2019-02-17T09:09:18.000Z</time>
      </trkpt>
      <trkpt lat="46.82761" lon="0.43786">
        <ele>137</ele>
        <time>2019-02-17T09:09:19.000Z</time>
      </trkpt>
      <trkpt lat="46.82758" lon="0.43786">
        <ele>136</ele>
        <time>2019-02-17T09:09:20.000Z</time>
      </trkpt>
      <trkpt lat="46.82754" lon="0.43786">
        <ele>136</ele>
        <time>2019-02-17T09:09:21.000Z</time>
      </trkpt>
      <trkpt lat="46.82751" lon="0.43787">
        <ele>135</ele>
        <time>2019-02-17T09:09:22.000Z</time>
      </trkpt>
      <trkpt lat="46.82749" lon="0.43788">
        <ele>135</ele>
        <time>2019-02-17T09:09:23.000Z</time>
      </trkpt>
      <trkpt lat="46.82747" lon="0.4379">
        <ele>135</ele>
        <time>2019-02-17T09:09:24.000Z</time>
      </trkpt>
      <trkpt lat="46.82746" lon="0.43792">
        <ele>135</ele>
        <time>2019-02-17T09:09:25.000Z</time>
      </trkpt>
      <trkpt lat="46.82744" lon="0.43795">
        <ele>134</ele>
        <time>2019-02-17T09:09:26.000Z</time>
      </trkpt>
      <trkpt lat="46.82743" lon="0.43798">
        <ele>134</ele>
        <time>2019-02-17T09:09:27.000Z</time>
      </trkpt>
      <trkpt lat="46.82741" lon="0.438">
        <ele>134</ele>
        <time>2019-02-17T09:09:28.000Z</time>
      </trkpt>
      <trkpt lat="46.8274" lon="0.43803">
        <ele>133</ele>
        <time>2019-02-17T09:09:29.000Z</time>
      </trkpt>
      <trkpt lat="46.82738" lon="0.43807">
        <ele>133</ele>
        <time>2019-02-17T09:09:30.000Z</time>
      </trkpt>
      <trkpt lat="46.82737" lon="0.4381">
        <ele>133</ele>
        <time>2019-02-17T09:09:31.000Z</time>
      </trkpt>
      <trkpt lat="46.82736" lon="0.43813">
        <ele>135</ele>
        <time>2019-02-17T09:09:32.000Z</time>
      </trkpt>
      <trkpt lat="46.82734" lon="0.43816">
        <ele>137</ele>
        <time>2019-02-17T09:09:33.000Z</time>
      </trkpt>
      <trkpt lat="46.82732" lon="0.43818">
        <ele>137</ele>
        <time>2019-02-17T09:09:34.000Z</time>
      </trkpt>
      <trkpt lat="46.82731" lon="0.4382">
        <ele>139</ele>
        <time>2019-02-17T09:09:35.000Z</time>
      </trkpt>
      <trkpt lat="46.82731" lon="0.43821">
        <ele>141</ele>
        <time>2019-02-17T09:09:36.000Z</time>
      </trkpt>
      <trkpt lat="46.82731" lon="0.43822">
        <ele>141</ele>
        <time>2019-02-17T09:09:37.000Z</time>
      </trkpt>
      <trkpt lat="46.8273" lon="0.43824">
        <ele>142</ele>
        <time>2019-02-17T09:09:38.000Z</time>
      </trkpt>
      <trkpt lat="46.82729" lon="0.43825">
        <ele>142</ele>
        <time>2019-02-17T09:09:39.000Z</time>
      </trkpt>
      <trkpt lat="46.82729" lon="0.43827">
        <ele>142</ele>
        <time>2019-02-17T09:09:40.000Z</time>
      </trkpt>
      <trkpt lat="46.82729" lon="0.43828">
        <ele>142</ele>
        <time>2019-02-17T09:09:41.000Z</time>
      </trkpt>
      <trkpt lat="46.82729" lon="0.4383">
        <ele>142</ele>
        <time>2019-02-17T09:09:42.000Z</time>
      </trkpt>
      <trkpt lat="46.8273" lon="0.43831">
        <ele>143</ele>
        <time>2019-02-17T09:09:43.000Z</time>
      </trkpt>
      <trkpt lat="46.82731" lon="0.43831">
        <ele>142</ele>
        <time>2019-02-17T09:09:44.000Z</time>
      </trkpt>
      <trkpt lat="46.82731" lon="0.43832">
        <ele>142</ele>
        <time>2019-02-17T09:09:45.000Z</time>
      </trkpt>
      <trkpt lat="46.82733" lon="0.43834">
        <ele>142</ele>
        <time>2019-02-17T09:09:46.000Z</time>
      </trkpt>
      <trkpt lat="46.82734" lon="0.43835">
        <ele>142</ele>
        <time>2019-02-17T09:09:47.000Z</time>
      </trkpt>
      <trkpt lat="46.82735" lon="0.43837">
        <ele>141</ele>
        <time>2019-02-17T09:09:48.000Z</time>
      </trkpt>
      <trkpt lat="46.82736" lon="0.43838">
        <ele>141</ele>
        <time>2019-02-17T09:09:49.000Z</time>
      </trkpt>
      <trkpt lat="46.82737" lon="0.4384">
        <ele>141</ele>
        <time>2019-02-17T09:09:50.000Z</time>
      </trkpt>
      <trkpt lat="46.82738" lon="0.43842">
        <ele>141</ele>
        <time>2019-02-17T09:09:51.000Z</time>
      </trkpt>
      <trkpt lat="46.82738" lon="0.43845">
        <ele>142</ele>
        <time>2019-02-17T09:09:52.000Z</time>
      </trkpt>
      <trkpt lat="46.8274" lon="0.43848">
        <ele>141</ele>
        <time>2019-02-17T09:09:53.000Z</time>
      </trkpt>
      <trkpt lat="46.82741" lon="0.43851">
        <ele>140</ele>
        <time>2019-02-17T09:09:54.000Z</time>
      </trkpt>
      <trkpt lat="46.82743" lon="0.43853">
        <ele>141</ele>
        <time>2019-02-17T09:09:55.000Z</time>
      </trkpt>
      <trkpt lat="46.82745" lon="0.43855">
        <ele>140</ele>
        <time>2019-02-17T09:09:56.000Z</time>
      </trkpt>
      <trkpt lat="46.82747" lon="0.43857">
        <ele>139</ele>
        <time>2019-02-17T09:09:57.000Z</time>
      </trkpt>
      <trkpt lat="46.82749" lon="0.43858">
        <ele>139</ele>
        <time>2019-02-17T09:09:58.000Z</time>
      </trkpt>
      <trkpt lat="46.8275" lon="0.4386">
        <ele>139</ele>
        <time>2019-02-17T09:09:59.000Z</time>
      </trkpt>
      <trkpt lat="46.82751" lon="0.43862">
        <ele>140</ele>
        <time>2019-02-17T09:10:00.000Z</time>
      </trkpt>
      <trkpt lat="46.82753" lon="0.43864">
        <ele>139</ele>
        <time>2019-02-17T09:10:01.000Z</time>
      </trkpt>
      <trkpt lat="46.82754" lon="0.43867">
        <ele>140</ele>
        <time>2019-02-17T09:10:02.000Z</time>
      </trkpt>
      <trkpt lat="46.82754" lon="0.43869">
        <ele>140</ele>
        <time>2019-02-17T09:10:03.000Z</time>
      </trkpt>
      <trkpt lat="46.82755" lon="0.43872">
        <ele>140</ele>
        <time>2019-02-17T09:10:04.000Z</time>
      </trkpt>
      <trkpt lat="46.82755" lon="0.43874">
        <ele>139</ele>
        <time>2019-02-17T09:10:05.000Z</time>
      </trkpt>
      <trkpt lat="46.82755" lon="0.43877">
        <ele>139</ele>
        <time>2019-02-17T09:10:06.000Z</time>
      </trkpt>
      <trkpt lat="46.82754" lon="0.4388">
        <ele>139</ele>
        <time>2019-02-17T09:10:07.000Z</time>
      </trkpt>
      <trkpt lat="46.82754" lon="0.43883">
        <ele>140</ele>
        <time>2019-02-17T09:10:08.000Z</time>
      </trkpt>
      <trkpt lat="46.82753" lon="0.43885">
        <ele>139</ele>
        <time>2019-02-17T09:10:09.000Z</time>
      </trkpt>
      <trkpt lat="46.82752" lon="0.43888">
        <ele>140</ele>
        <time>2019-02-17T09:10:10.000Z</time>
      </trkpt>
      <trkpt lat="46.82751" lon="0.43891">
        <ele>140</ele>
        <time>2019-02-17T09:10:11.000Z</time>
      </trkpt>
      <trkpt lat="46.8275" lon="0.43894">
        <ele>140</ele>
        <time>2019-02-17T09:10:12.000Z</time>
      </trkpt>
      <trkpt lat="46.82748" lon="0.43896">
        <ele>139</ele>
        <time>2019-02-17T09:10:13.000Z</time>
      </trkpt>
      <trkpt lat="46.82747" lon="0.43899">
        <ele>138</ele>
        <time>2019-02-17T09:10:14.000Z</time>
      </trkpt>
      <trkpt lat="46.82746" lon="0.43902">
        <ele>138</ele>
        <time>2019-02-17T09:10:15.000Z</time>
      </trkpt>
      <trkpt lat="46.82745" lon="0.43904">
        <ele>138</ele>
        <time>2019-02-17T09:10:16.000Z</time>
      </trkpt>
      <trkpt lat="46.82743" lon="0.43905">
        <ele>138</ele>
        <time>2019-02-17T09:10:17.000Z</time>
      </trkpt>
      <trkpt lat="46.82741" lon="0.43906">
        <ele>138</ele>
        <time>2019-02-17T09:10:18.000Z</time>
      </trkpt>
      <trkpt lat="46.82738" lon="0.43907">
        <ele>138</ele>
        <time>2019-02-17T09:10:19.000Z</time>
      </trkpt>
      <trkpt lat="46.82736" lon="0.43908">
        <ele>138</ele>
        <time>2019-02-17T09:10:20.000Z</time>
      </trkpt>
      <trkpt lat="46.82734" lon="0.43909">
        <ele>138</ele>
        <time>2019-02-17T09:10:21.000Z</time>
      </trkpt>
      <trkpt lat="46.82733" lon="0.43911">
        <ele>138</ele>
        <time>2019-02-17T09:10:22.000Z</time>
      </trkpt>
      <trkpt lat="46.82732" lon="0.43912">
        <ele>137</ele>
        <time>2019-02-17T09:10:23.000Z</time>
      </trkpt>
      <trkpt lat="46.82731" lon="0.43914">
        <ele>136</ele>
        <time>2019-02-17T09:10:24.000Z</time>
      </trkpt>
      <trkpt lat="46.82731" lon="0.43917">
        <ele>137</ele>
        <time>2019-02-17T09:10:25.000Z</time>
      </trkpt>
      <trkpt lat="46.82731" lon="0.43919">
        <ele>137</ele>
        <time>2019-02-17T09:10:26.000Z</time>
      </trkpt>
      <trkpt lat="46.82731" lon="0.43922">
        <ele>137</ele>
        <time>2019-02-17T09:10:27.000Z</time>
      </trkpt>
      <trkpt lat="46.82731" lon="0.43925">
        <ele>137</ele>
        <time>2019-02-17T09:10:28.000Z</time>
      </trkpt>
      <trkpt lat="46.82731" lon="0.43927">
        <ele>137</ele>
        <time>2019-02-17T09:10:29.000Z</time>
      </trkpt>
      <trkpt lat="46.82731" lon="0.43929">
        <ele>137</ele>
        <time>2019-02-17T09:10:30.000Z</time>
      </trkpt>
      <trkpt lat="46.82732" lon="0.4393">
        <ele>137</ele>
        <time>2019-02-17T09:10:31.000Z</time>
      </trkpt>
      <trkpt lat="46.82733" lon="0.43932">
        <ele>137</ele>
        <time>2019-02-17T09:10:32.000Z</time>
      </trkpt>
      <trkpt lat="46.82733" lon="0.43933">
        <ele>137</ele>
        <time>2019-02-17T09:10:33.000Z</time>
      </trkpt>
      <trkpt lat="46.82734" lon="0.43934">
        <ele>138</ele>
        <time>2019-02-17T09:10:34.000Z</time>
      </trkpt>
      <trkpt lat="46.82734" lon="0.43936">
        <ele>139</ele>
        <time>2019-02-17T09:10:35.000Z</time>
      </trkpt>
      <trkpt lat="46.82735" lon="0.43938">
        <ele>139</ele>
        <time>2019-02-17T09:10:36.000Z</time>
      </trkpt>
      <trkpt lat="46.82735" lon="0.4394">
        <ele>138</ele>
        <time>2019-02-17T09:10:37.000Z</time>
      </trkpt>
      <trkpt lat="46.82736" lon="0.43941">
        <ele>139</ele>
        <time>2019-02-17T09:10:38.000Z</time>
      </trkpt>
      <trkpt lat="46.82738" lon="0.43943">
        <ele>140</ele>
        <time>2019-02-17T09:10:39.000Z</time>
      </trkpt>
      <trkpt lat="46.8274" lon="0.43946">
        <ele>140</ele>
        <time>2019-02-17T09:10:40.000Z</time>
      </trkpt>
      <trkpt lat="46.82742" lon="0.43948">
        <ele>140</ele>
        <time>2019-02-17T09:10:41.000Z</time>
      </trkpt>
      <trkpt lat="46.82744" lon="0.43949">
        <ele>141</ele>
        <time>2019-02-17T09:10:42.000Z</time>
      </trkpt>
      <trkpt lat="46.82745" lon="0.43951">
        <ele>141</ele>
        <time>2019-02-17T09:10:43.000Z</time>
      </trkpt>
      <trkpt lat="46.82746" lon="0.43953">
        <ele>140</ele>
        <time>2019-02-17T09:10:44.000Z</time>
      </trkpt>
      <trkpt lat="46.82746" lon="0.43956">
        <ele>140</ele>
        <time>2019-02-17T09:10:45.000Z</time>
      </trkpt>
      <trkpt lat="46.82746" lon="0.43958">
        <ele>139</ele>
        <time>2019-02-17T09:10:46.000Z</time>
      </trkpt>
      <trkpt lat="46.82746" lon="0.4396">
        <ele>139</ele>
        <time>2019-02-17T09:10:47.000Z</time>
      </trkpt>
      <trkpt lat="46.82745" lon="0.43963">
        <ele>141</ele>
        <time>2019-02-17T09:10:48.000Z</time>
      </trkpt>
      <trkpt lat="46.82744" lon="0.43965">
        <ele>141</ele>
        <time>2019-02-17T09:10:49.000Z</time>
      </trkpt>
      <trkpt lat="46.82743" lon="0.43968">
        <ele>141</ele>
        <time>2019-02-17T09:10:50.000Z</time>
      </trkpt>
      <trkpt lat="46.82743" lon="0.43969">
        <ele>140</ele>
        <time>2019-02-17T09:10:51.000Z</time>
      </trkpt>
      <trkpt lat="46.82742" lon="0.43971">
        <ele>140</ele>
        <time>2019-02-17T09:10:52.000Z</time>
      </trkpt>
      <trkpt lat="46.82742" lon="0.43973">
        <ele>140</ele>
        <time>2019-02-17T09:10:53.000Z</time>
      </trkpt>
      <trkpt lat="46.82742" lon="0.43976">
        <ele>141</ele>
        <time>2019-02-17T09:10:54.000Z</time>
      </trkpt>
      <trkpt lat="46.82742" lon="0.43979">
        <ele>140</ele>
        <time>2019-02-17T09:10:55.000Z</time>
      </trkpt>
      <trkpt lat="46.82742" lon="0.43982">
        <ele>140</ele>
        <time>2019-02-17T09:10:56.000Z</time>
      </trkpt>
      <trkpt lat="46.82743" lon="0.43986">
        <ele>140</ele>
        <time>2019-02-17T09:10:57.000Z</time>
      </trkpt>
      <trkpt lat="46.82743" lon="0.43989">
        <ele>140</ele>
        <time>2019-02-17T09:10:58.000Z</time>
      </trkpt>
      <trkpt lat="46.82744" lon="0.43991">
        <ele>140</ele>
        <time>2019-02-17T09:10:59.000Z</time>
      </trkpt>
      <trkpt lat="46.82744" lon="0.43994">
        <ele>141</ele>
        <time>2019-02-17T09:11:00.000Z</time>
      </trkpt>
      <trkpt lat="46.82746" lon="0.43997">
        <ele>140</ele>
        <time>2019-02-17T09:11:01.000Z</time>
      </trkpt>
      <trkpt lat="46.82747" lon="0.43999">
        <ele>139</ele>
        <time>2019-02-17T09:11:02.000Z</time>
      </trkpt>
      <trkpt lat="46.82748" lon="0.44001">
        <ele>140</ele>
        <time>2019-02-17T09:11:03.000Z</time>
      </trkpt>
      <trkpt lat="46.82748" lon="0.44003">
        <ele>140</ele>
        <time>2019-02-17T09:11:04.000Z</time>
      </trkpt>
      <trkpt lat="46.82748" lon="0.44006">
        <ele>141</ele>
        <time>2019-02-17T09:11:05.000Z</time>
      </trkpt>
      <trkpt lat="46.82747" lon="0.44009">
        <ele>141</ele>
        <time>2019-02-17T09:11:06.000Z</time>
      </trkpt>
      <trkpt lat="46.82745" lon="0.44011">
        <ele>142</ele>
        <time>2019-02-17T09:11:07.000Z</time>
      </trkpt>
      <trkpt lat="46.82744" lon="0.44013">
        <ele>143</ele>
        <time>2019-02-17T09:11:08.000Z</time>
      </trkpt>
      <trkpt lat="46.82743" lon="0.44015">
        <ele>143</ele>
        <time>2019-02-17T09:11:09.000Z</time>
      </trkpt>
      <trkpt lat="46.82742" lon="0.44017">
        <ele>142</ele>
        <time>2019-02-17T09:11:10.000Z</time>
      </trkpt>
      <trkpt lat="46.82741" lon="0.44021">
        <ele>141</ele>
        <time>2019-02-17T09:11:11.000Z</time>
      </trkpt>
      <trkpt lat="46.82741" lon="0.44024">
        <ele>140</ele>
        <time>2019-02-17T09:11:12.000Z</time>
      </trkpt>
      <trkpt lat="46.8274" lon="0.44028">
        <ele>140</ele>
        <time>2019-02-17T09:11:13.000Z</time>
      </trkpt>
      <trkpt lat="46.8274" lon="0.44032">
        <ele>139</ele>
        <time>2019-02-17T09:11:14.000Z</time>
      </trkpt>
      <trkpt lat="46.82739" lon="0.44036">
        <ele>139</ele>
        <time>2019-02-17T09:11:15.000Z</time>
      </trkpt>
      <trkpt lat="46.82738" lon="0.44039">
        <ele>139</ele>
        <time>2019-02-17T09:11:16.000Z</time>
      </trkpt>
      <trkpt lat="46.82738" lon="0.44042">
        <ele>139</ele>
        <time>2019-02-17T09:11:17.000Z</time>
      </trkpt>
      <trkpt lat="46.82737" lon="0.44045">
        <ele>140</ele>
        <time>2019-02-17T09:11:18.000Z</time>
      </trkpt>
      <trkpt lat="46.82737" lon="0.44048">
        <ele>140</ele>
        <time>2019-02-17T09:11:19.000Z</time>
      </trkpt>
      <trkpt lat="46.82736" lon="0.44051">
        <ele>141</ele>
        <time>2019-02-17T09:11:20.000Z</time>
      </trkpt>
      <trkpt lat="46.82736" lon="0.44053">
        <ele>141</ele>
        <time>2019-02-17T09:11:21.000Z</time>
      </trkpt>
      <trkpt lat="46.82737" lon="0.44056">
        <ele>140</ele>
        <time>2019-02-17T09:11:22.000Z</time>
      </trkpt>
      <trkpt lat="46.82737" lon="0.44059">
        <ele>140</ele>
        <time>2019-02-17T09:11:23.000Z</time>
      </trkpt>
      <trkpt lat="46.82737" lon="0.44062">
        <ele>140</ele>
        <time>2019-02-17T09:11:24.000Z</time>
      </trkpt>
      <trkpt lat="46.82737" lon="0.44065">
        <ele>140</ele>
        <time>2019-02-17T09:11:25.000Z</time>
      </trkpt>
      <trkpt lat="46.82737" lon="0.44069">
        <ele>140</ele>
        <time>2019-02-17T09:11:26.000Z</time>
      </trkpt>
      <trkpt lat="46.82737" lon="0.44072">
        <ele>140</ele>
        <time>2019-02-17T09:11:27.000Z</time>
      </trkpt>
      <trkpt lat="46.82738" lon="0.44075">
        <ele>140</ele>
        <time>2019-02-17T09:11:28.000Z</time>
      </trkpt>
      <trkpt lat="46.82739" lon="0.44078">
        <ele>140</ele>
        <time>2019-02-17T09:11:29.000Z</time>
      </trkpt>
      <trkpt lat="46.82739" lon="0.44082">
        <ele>140</ele>
        <time>2019-02-17T09:11:30.000Z</time>
      </trkpt>
      <trkpt lat="46.8274" lon="0.44085">
        <ele>140</ele>
        <time>2019-02-17T09:11:31.000Z</time>
      </trkpt>
      <trkpt lat="46.8274" lon="0.44089">
        <ele>141</ele>
        <time>2019-02-17T09:11:32.000Z</time>
      </trkpt>
      <trkpt lat="46.8274" lon="0.44091">
        <ele>141</ele>
        <time>2019-02-17T09:11:33.000Z</time>
      </trkpt>
      <trkpt lat="46.8274" lon="0.44094">
        <ele>140</ele>
        <time>2019-02-17T09:11:34.000Z</time>
      </trkpt>
      <trkpt lat="46.82741" lon="0.44096">
        <ele>140</ele>
        <time>2019-02-17T09:11:35.000Z</time>
      </trkpt>
      <trkpt lat="46.82742" lon="0.44097">
        <ele>140</ele>
        <time>2019-02-17T09:11:36.000Z</time>
      </trkpt>
      <trkpt lat="46.82744" lon="0.44099">
        <ele>140</ele>
        <time>2019-02-17T09:11:37.000Z</time>
      </trkpt>
      <trkpt lat="46.82745" lon="0.441">
        <ele>140</ele>
        <time>2019-02-17T09:11:38.000Z</time>
      </trkpt>
      <trkpt lat="46.82748" lon="0.44102">
        <ele>140</ele>
        <time>2019-02-17T09:11:39.000Z</time>
      </trkpt>
      <trkpt lat="46.8275" lon="0.44104">
        <ele>142</ele>
        <time>2019-02-17T09:11:40.000Z</time>
      </trkpt>
      <trkpt lat="46.82752" lon="0.44106">
        <ele>141</ele>
        <time>2019-02-17T09:11:41.000Z</time>
      </trkpt>
      <trkpt lat="46.82753" lon="0.44109">
        <ele>141</ele>
        <time>2019-02-17T09:11:42.000Z</time>
      </trkpt>
      <trkpt lat="46.82753" lon="0.44112">
        <ele>141</ele>
        <time>2019-02-17T09:11:43.000Z</time>
      </trkpt>
      <trkpt lat="46.82754" lon="0.44115">
        <ele>140</ele>
        <time>2019-02-17T09:11:44.000Z</time>
      </trkpt>
      <trkpt lat="46.82754" lon="0.44118">
        <ele>140</ele>
        <time>2019-02-17T09:11:45.000Z</time>
      </trkpt>
      <trkpt lat="46.82754" lon="0.44122">
        <ele>140</ele>
        <time>2019-02-17T09:11:46.000Z</time>
      </trkpt>
      <trkpt lat="46.82754" lon="0.44125">
        <ele>140</ele>
        <time>2019-02-17T09:11:47.000Z</time>
      </trkpt>
      <trkpt lat="46.82755" lon="0.44127">
        <ele>140</ele>
        <time>2019-02-17T09:11:48.000Z</time>
      </trkpt>
      <trkpt lat="46.82756" lon="0.44129">
        <ele>140</ele>
        <time>2019-02-17T09:11:49.000Z</time>
      </trkpt>
      <trkpt lat="46.82756" lon="0.44132">
        <ele>141</ele>
        <time>2019-02-17T09:11:50.000Z</time>
      </trkpt>
      <trkpt lat="46.82757" lon="0.44134">
        <ele>141</ele>
        <time>2019-02-17T09:11:51.000Z</time>
      </trkpt>
      <trkpt lat="46.82757" lon="0.44136">
        <ele>141</ele>
        <time>2019-02-17T09:11:52.000Z</time>
      </trkpt>
      <trkpt lat="46.82758" lon="0.44139">
        <ele>141</ele>
        <time>2019-02-17T09:11:53.000Z</time>
      </trkpt>
      <trkpt lat="46.82759" lon="0.44141">
        <ele>140</ele>
        <time>2019-02-17T09:11:54.000Z</time>
      </trkpt>
      <trkpt lat="46.82761" lon="0.44144">
        <ele>141</ele>
        <time>2019-02-17T09:11:55.000Z</time>
      </trkpt>
      <trkpt lat="46.82763" lon="0.44145">
        <ele>141</ele>
        <time>2019-02-17T09:11:56.000Z</time>
      </trkpt>
      <trkpt lat="46.82764" lon="0.44147">
        <ele>140</ele>
        <time>2019-02-17T09:11:57.000Z</time>
      </trkpt>
      <trkpt lat="46.82765" lon="0.4415">
        <ele>139</ele>
        <time>2019-02-17T09:11:58.000Z</time>
      </trkpt>
      <trkpt lat="46.82766" lon="0.44153">
        <ele>138</ele>
        <time>2019-02-17T09:11:59.000Z</time>
      </trkpt>
      <trkpt lat="46.82767" lon="0.44156">
        <ele>138</ele>
        <time>2019-02-17T09:12:00.000Z</time>
      </trkpt>
      <trkpt lat="46.82769" lon="0.44158">
        <ele>138</ele>
        <time>2019-02-17T09:12:01.000Z</time>
      </trkpt>
      <trkpt lat="46.82771" lon="0.4416">
        <ele>138</ele>
        <time>2019-02-17T09:12:02.000Z</time>
      </trkpt>
      <trkpt lat="46.82772" lon="0.44161">
        <ele>138</ele>
        <time>2019-02-17T09:12:03.000Z</time>
      </trkpt>
      <trkpt lat="46.82773" lon="0.44163">
        <ele>138</ele>
        <time>2019-02-17T09:12:04.000Z</time>
      </trkpt>
      <trkpt lat="46.82774" lon="0.44165">
        <ele>137</ele>
        <time>2019-02-17T09:12:05.000Z</time>
      </trkpt>
      <trkpt lat="46.82774" lon="0.44168">
        <ele>138</ele>
        <time>2019-02-17T09:12:06.000Z</time>
      </trkpt>
      <trkpt lat="46.82774" lon="0.44171">
        <ele>138</ele>
        <time>2019-02-17T09:12:07.000Z</time>
      </trkpt>
      <trkpt lat="46.82773" lon="0.44175">
        <ele>138</ele>
        <time>2019-02-17T09:12:08.000Z</time>
      </trkpt>
      <trkpt lat="46.82772" lon="0.44178">
        <ele>137</ele>
        <time>2019-02-17T09:12:09.000Z</time>
      </trkpt>
      <trkpt lat="46.82772" lon="0.44181">
        <ele>137</ele>
        <time>2019-02-17T09:12:10.000Z</time>
      </trkpt>
      <trkpt lat="46.82772" lon="0.44185">
        <ele>137</ele>
        <time>2019-02-17T09:12:11.000Z</time>
      </trkpt>
      <trkpt lat="46.82772" lon="0.44189">
        <ele>137</ele>
        <time>2019-02-17T09:12:12.000Z</time>
      </trkpt>
      <trkpt lat="46.82773" lon="0.44193">
        <ele>137</ele>
        <time>2019-02-17T09:12:13.000Z</time>
      </trkpt>
      <trkpt lat="46.82774" lon="0.44197">
        <ele>137</ele>
        <time>2019-02-17T09:12:14.000Z</time>
      </trkpt>
      <trkpt lat="46.82776" lon="0.442">
        <ele>136</ele>
        <time>2019-02-17T09:12:15.000Z</time>
      </trkpt>
      <trkpt lat="46.82777" lon="0.44203">
        <ele>136</ele>
        <time>2019-02-17T09:12:16.000Z</time>
      </trkpt>
      <trkpt lat="46.82779" lon="0.44205">
        <ele>136</ele>
        <time>2019-02-17T09:12:17.000Z</time>
      </trkpt>
      <trkpt lat="46.82781" lon="0.44207">
        <ele>136</ele>
        <time>2019-02-17T09:12:18.000Z</time>
      </trkpt>
      <trkpt lat="46.82782" lon="0.44209">
        <ele>136</ele>
        <time>2019-02-17T09:12:19.000Z</time>
      </trkpt>
      <trkpt lat="46.82784" lon="0.44211">
        <ele>136</ele>
        <time>2019-02-17T09:12:20.000Z</time>
      </trkpt>
      <trkpt lat="46.82786" lon="0.44212">
        <ele>137</ele>
        <time>2019-02-17T09:12:21.000Z</time>
      </trkpt>
      <trkpt lat="46.82788" lon="0.44212">
        <ele>138</ele>
        <time>2019-02-17T09:12:22.000Z</time>
      </trkpt>
      <trkpt lat="46.82789" lon="0.44211">
        <ele>138</ele>
        <time>2019-02-17T09:12:23.000Z</time>
      </trkpt>
      <trkpt lat="46.82791" lon="0.44211">
        <ele>139</ele>
        <time>2019-02-17T09:12:24.000Z</time>
      </trkpt>
      <trkpt lat="46.82792" lon="0.4421">
        <ele>139</ele>
        <time>2019-02-17T09:12:25.000Z</time>
      </trkpt>
      <trkpt lat="46.82794" lon="0.44209">
        <ele>139</ele>
        <time>2019-02-17T09:12:26.000Z</time>
      </trkpt>
      <trkpt lat="46.82796" lon="0.44208">
        <ele>139</ele>
        <time>2019-02-17T09:12:27.000Z</time>
      </trkpt>
      <trkpt lat="46.82797" lon="0.44207">
        <ele>139</ele>
        <time>2019-02-17T09:12:28.000Z</time>
      </trkpt>
      <trkpt lat="46.82799" lon="0.44206">
        <ele>139</ele>
        <time>2019-02-17T09:12:29.000Z</time>
      </trkpt>
      <trkpt lat="46.82801" lon="0.44205">
        <ele>140</ele>
        <time>2019-02-17T09:12:30.000Z</time>
      </trkpt>
      <trkpt lat="46.82803" lon="0.44204">
        <ele>140</ele>
        <time>2019-02-17T09:12:31.000Z</time>
      </trkpt>
      <trkpt lat="46.82804" lon="0.44202">
        <ele>141</ele>
        <time>2019-02-17T09:12:32.000Z</time>
      </trkpt>
      <trkpt lat="46.82806" lon="0.44201">
        <ele>141</ele>
        <time>2019-02-17T09:12:33.000Z</time>
      </trkpt>
      <trkpt lat="46.82807" lon="0.44199">
        <ele>142</ele>
        <time>2019-02-17T09:12:34.000Z</time>
      </trkpt>
      <trkpt lat="46.82809" lon="0.44198">
        <ele>142</ele>
        <time>2019-02-17T09:12:35.000Z</time>
      </trkpt>
      <trkpt lat="46.8281" lon="0.44196">
        <ele>143</ele>
        <time>2019-02-17T09:12:36.000Z</time>
      </trkpt>
      <trkpt lat="46.82812" lon="0.44195">
        <ele>144</ele>
        <time>2019-02-17T09:12:37.000Z</time>
      </trkpt>
      <trkpt lat="46.82813" lon="0.44193">
        <ele>144</ele>
        <time>2019-02-17T09:12:38.000Z</time>
      </trkpt>
      <trkpt lat="46.82815" lon="0.44192">
        <ele>144</ele>
        <time>2019-02-17T09:12:39.000Z</time>
      </trkpt>
      <trkpt lat="46.82816" lon="0.4419">
        <ele>144</ele>
        <time>2019-02-17T09:12:40.000Z</time>
      </trkpt>
      <trkpt lat="46.82818" lon="0.44189">
        <ele>144</ele>
        <time>2019-02-17T09:12:41.000Z</time>
      </trkpt>
      <trkpt lat="46.8282" lon="0.44187">
        <ele>144</ele>
        <time>2019-02-17T09:12:42.000Z</time>
      </trkpt>
      <trkpt lat="46.82821" lon="0.44186">
        <ele>145</ele>
        <time>2019-02-17T09:12:43.000Z</time>
      </trkpt>
      <trkpt lat="46.82822" lon="0.44184">
        <ele>145</ele>
        <time>2019-02-17T09:12:44.000Z</time>
      </trkpt>
      <trkpt lat="46.82823" lon="0.44183">
        <ele>146</ele>
        <time>2019-02-17T09:12:45.000Z</time>
      </trkpt>
      <trkpt lat="46.82825" lon="0.44181">
        <ele>146</ele>
        <time>2019-02-17T09:12:46.000Z</time>
      </trkpt>
      <trkpt lat="46.82826" lon="0.4418">
        <ele>146</ele>
        <time>2019-02-17T09:12:47.000Z</time>
      </trkpt>
      <trkpt lat="46.82827" lon="0.44178">
        <ele>146</ele>
        <time>2019-02-17T09:12:48.000Z</time>
      </trkpt>
      <trkpt lat="46.82829" lon="0.44177">
        <ele>146</ele>
        <time>2019-02-17T09:12:49.000Z</time>
      </trkpt>
      <trkpt lat="46.8283" lon="0.44176">
        <ele>145</ele>
        <time>2019-02-17T09:12:50.000Z</time>
      </trkpt>
      <trkpt lat="46.82832" lon="0.44174">
        <ele>145</ele>
        <time>2019-02-17T09:12:51.000Z</time>
      </trkpt>
      <trkpt lat="46.82833" lon="0.44173">
        <ele>146</ele>
        <time>2019-02-17T09:12:52.000Z</time>
      </trkpt>
      <trkpt lat="46.82835" lon="0.44172">
        <ele>145</ele>
        <time>2019-02-17T09:12:53.000Z</time>
      </trkpt>
      <trkpt lat="46.82836" lon="0.4417">
        <ele>145</ele>
        <time>2019-02-17T09:12:54.000Z</time>
      </trkpt>
      <trkpt lat="46.82838" lon="0.44169">
        <ele>146</ele>
        <time>2019-02-17T09:12:55.000Z</time>
      </trkpt>
      <trkpt lat="46.82839" lon="0.44168">
        <ele>145</ele>
        <time>2019-02-17T09:12:56.000Z</time>
      </trkpt>
      <trkpt lat="46.82841" lon="0.44166">
        <ele>146</ele>
        <time>2019-02-17T09:12:57.000Z</time>
      </trkpt>
      <trkpt lat="46.82842" lon="0.44165">
        <ele>146</ele>
        <time>2019-02-17T09:12:58.000Z</time>
      </trkpt>
      <trkpt lat="46.82843" lon="0.44164">
        <ele>146</ele>
        <time>2019-02-17T09:12:59.000Z</time>
      </trkpt>
      <trkpt lat="46.82844" lon="0.44163">
        <ele>146</ele>
        <time>2019-02-17T09:13:00.000Z</time>
      </trkpt>
      <trkpt lat="46.82845" lon="0.44162">
        <ele>146</ele>
        <time>2019-02-17T09:13:01.000Z</time>
      </trkpt>
      <trkpt lat="46.82847" lon="0.44161">
        <ele>146</ele>
        <time>2019-02-17T09:13:02.000Z</time>
      </trkpt>
      <trkpt lat="46.82848" lon="0.44159">
        <ele>146</ele>
        <time>2019-02-17T09:13:03.000Z</time>
      </trkpt>
      <trkpt lat="46.82849" lon="0.44158">
        <ele>147</ele>
        <time>2019-02-17T09:13:04.000Z</time>
      </trkpt>
      <trkpt lat="46.82851" lon="0.44157">
        <ele>147</ele>
        <time>2019-02-17T09:13:05.000Z</time>
      </trkpt>
      <trkpt lat="46.82852" lon="0.44156">
        <ele>148</ele>
        <time>2019-02-17T09:13:06.000Z</time>
      </trkpt>
      <trkpt lat="46.82854" lon="0.44154">
        <ele>148</ele>
        <time>2019-02-17T09:13:07.000Z</time>
      </trkpt>
      <trkpt lat="46.82856" lon="0.44153">
        <ele>148</ele>
        <time>2019-02-17T09:13:08.000Z</time>
      </trkpt>
      <trkpt lat="46.82858" lon="0.44151">
        <ele>149</ele>
        <time>2019-02-17T09:13:09.000Z</time>
      </trkpt>
      <trkpt lat="46.82859" lon="0.4415">
        <ele>150</ele>
        <time>2019-02-17T09:13:10.000Z</time>
      </trkpt>
      <trkpt lat="46.82861" lon="0.44148">
        <ele>150</ele>
        <time>2019-02-17T09:13:11.000Z</time>
      </trkpt>
      <trkpt lat="46.82863" lon="0.44147">
        <ele>150</ele>
        <time>2019-02-17T09:13:12.000Z</time>
      </trkpt>
      <trkpt lat="46.82864" lon="0.44146">
        <ele>151</ele>
        <time>2019-02-17T09:13:13.000Z</time>
      </trkpt>
      <trkpt lat="46.82866" lon="0.44145">
        <ele>152</ele>
        <time>2019-02-17T09:13:14.000Z</time>
      </trkpt>
      <trkpt lat="46.82868" lon="0.44144">
        <ele>152</ele>
        <time>2019-02-17T09:13:15.000Z</time>
      </trkpt>
      <trkpt lat="46.82869" lon="0.44143">
        <ele>152</ele>
        <time>2019-02-17T09:13:16.000Z</time>
      </trkpt>
      <trkpt lat="46.82871" lon="0.44142">
        <ele>152</ele>
        <time>2019-02-17T09:13:17.000Z</time>
      </trkpt>
      <trkpt lat="46.82873" lon="0.44142">
        <ele>152</ele>
        <time>2019-02-17T09:13:18.000Z</time>
      </trkpt>
      <trkpt lat="46.82875" lon="0.44141">
        <ele>153</ele>
        <time>2019-02-17T09:13:19.000Z</time>
      </trkpt>
      <trkpt lat="46.82877" lon="0.4414">
        <ele>153</ele>
        <time>2019-02-17T09:13:20.000Z</time>
      </trkpt>
      <trkpt lat="46.82879" lon="0.44138">
        <ele>153</ele>
        <time>2019-02-17T09:13:21.000Z</time>
      </trkpt>
      <trkpt lat="46.82881" lon="0.44137">
        <ele>153</ele>
        <time>2019-02-17T09:13:22.000Z</time>
      </trkpt>
      <trkpt lat="46.82884" lon="0.44136">
        <ele>154</ele>
        <time>2019-02-17T09:13:23.000Z</time>
      </trkpt>
      <trkpt lat="46.82886" lon="0.44135">
        <ele>154</ele>
        <time>2019-02-17T09:13:24.000Z</time>
      </trkpt>
      <trkpt lat="46.82888" lon="0.44135">
        <ele>154</ele>
        <time>2019-02-17T09:13:25.000Z</time>
      </trkpt>
      <trkpt lat="46.8289" lon="0.44134">
        <ele>154</ele>
        <time>2019-02-17T09:13:26.000Z</time>
      </trkpt>
      <trkpt lat="46.82892" lon="0.44133">
        <ele>154</ele>
        <time>2019-02-17T09:13:27.000Z</time>
      </trkpt>
      <trkpt lat="46.82894" lon="0.44132">
        <ele>155</ele>
        <time>2019-02-17T09:13:28.000Z</time>
      </trkpt>
      <trkpt lat="46.82897" lon="0.44131">
        <ele>155</ele>
        <time>2019-02-17T09:13:29.000Z</time>
      </trkpt>
      <trkpt lat="46.82899" lon="0.44131">
        <ele>155</ele>
        <time>2019-02-17T09:13:30.000Z</time>
      </trkpt>
      <trkpt lat="46.82903" lon="0.4413">
        <ele>155</ele>
        <time>2019-02-17T09:13:31.000Z</time>
      </trkpt>
      <trkpt lat="46.82906" lon="0.4413">
        <ele>155</ele>
        <time>2019-02-17T09:13:32.000Z</time>
      </trkpt>
      <trkpt lat="46.82908" lon="0.4413">
        <ele>156</ele>
        <time>2019-02-17T09:13:33.000Z</time>
      </trkpt>
      <trkpt lat="46.8291" lon="0.4413">
        <ele>155</ele>
        <time>2019-02-17T09:13:34.000Z</time>
      </trkpt>
      <trkpt lat="46.82912" lon="0.44129">
        <ele>155</ele>
        <time>2019-02-17T09:13:35.000Z</time>
      </trkpt>
      <trkpt lat="46.82914" lon="0.44129">
        <ele>155</ele>
        <time>2019-02-17T09:13:36.000Z</time>
      </trkpt>
      <trkpt lat="46.82917" lon="0.44128">
        <ele>155</ele>
        <time>2019-02-17T09:13:37.000Z</time>
      </trkpt>
      <trkpt lat="46.82919" lon="0.44127">
        <ele>155</ele>
        <time>2019-02-17T09:13:38.000Z</time>
      </trkpt>
      <trkpt lat="46.82921" lon="0.44127">
        <ele>155</ele>
        <time>2019-02-17T09:13:39.000Z</time>
      </trkpt>
      <trkpt lat="46.82923" lon="0.44126">
        <ele>155</ele>
        <time>2019-02-17T09:13:40.000Z</time>
      </trkpt>
      <trkpt lat="46.82925" lon="0.44126">
        <ele>155</ele>
        <time>2019-02-17T09:13:41.000Z</time>
      </trkpt>
      <trkpt lat="46.82928" lon="0.44125">
        <ele>155</ele>
        <time>2019-02-17T09:13:42.000Z</time>
      </trkpt>
      <trkpt lat="46.8293" lon="0.44124">
        <ele>154</ele>
        <time>2019-02-17T09:13:43.000Z</time>
      </trkpt>
      <trkpt lat="46.82932" lon="0.44123">
        <ele>154</ele>
        <time>2019-02-17T09:13:44.000Z</time>
      </trkpt>
      <trkpt lat="46.82934" lon="0.44123">
        <ele>154</ele>
        <time>2019-02-17T09:13:45.000Z</time>
      </trkpt>
      <trkpt lat="46.82936" lon="0.44122">
        <ele>154</ele>
        <time>2019-02-17T09:13:46.000Z</time>
      </trkpt>
      <trkpt lat="46.82937" lon="0.4412">
        <ele>153</ele>
        <time>2019-02-17T09:13:47.000Z</time>
      </trkpt>
      <trkpt lat="46.82938" lon="0.44119">
        <ele>153</ele>
        <time>2019-02-17T09:13:48.000Z</time>
      </trkpt>
      <trkpt lat="46.82938" lon="0.44117">
        <ele>154</ele>
        <time>2019-02-17T09:13:49.000Z</time>
      </trkpt>
      <trkpt lat="46.82939" lon="0.44114">
        <ele>153</ele>
        <time>2019-02-17T09:13:50.000Z</time>
      </trkpt>
      <trkpt lat="46.82939" lon="0.44112">
        <ele>153</ele>
        <time>2019-02-17T09:13:51.000Z</time>
      </trkpt>
      <trkpt lat="46.82939" lon="0.4411">
        <ele>153</ele>
        <time>2019-02-17T09:13:52.000Z</time>
      </trkpt>
      <trkpt lat="46.82939" lon="0.44109">
        <ele>153</ele>
        <time>2019-02-17T09:13:53.000Z</time>
      </trkpt>
      <trkpt lat="46.82939" lon="0.44108">
        <ele>153</ele>
        <time>2019-02-17T09:13:54.000Z</time>
      </trkpt>
      <trkpt lat="46.82939" lon="0.44108">
        <ele>153</ele>
        <time>2019-02-17T09:13:55.000Z</time>
      </trkpt>
      <trkpt lat="46.82939" lon="0.44108">
        <ele>154</ele>
        <time>2019-02-17T09:13:56.000Z</time>
      </trkpt>
      <trkpt lat="46.8294" lon="0.44108">
        <ele>155</ele>
        <time>2019-02-17T09:13:57.000Z</time>
      </trkpt>
      <trkpt lat="46.8294" lon="0.44108">
        <ele>155</ele>
        <time>2019-02-17T09:13:58.000Z</time>
      </trkpt>
      <trkpt lat="46.8294" lon="0.44107">
        <ele>155</ele>
        <time>2019-02-17T09:13:59.000Z</time>
      </trkpt>
      <trkpt lat="46.8294" lon="0.44107">
        <ele>155</ele>
        <time>2019-02-17T09:14:00.000Z</time>
      </trkpt>
      <trkpt lat="46.82939" lon="0.44107">
        <ele>156</ele>
        <time>2019-02-17T09:14:01.000Z</time>
      </trkpt>
      <trkpt lat="46.82939" lon="0.44107">
        <ele>156</ele>
        <time>2019-02-17T09:14:02.000Z</time>
      </trkpt>
      <trkpt lat="46.82939" lon="0.44107">
        <ele>156</ele>
        <time>2019-02-17T09:14:03.000Z</time>
      </trkpt>
      <trkpt lat="46.82939" lon="0.44107">
        <ele>157</ele>
        <time>2019-02-17T09:14:04.000Z</time>
      </trkpt>
      <trkpt lat="46.82939" lon="0.44107">
        <ele>157</ele>
        <time>2019-02-17T09:14:05.000Z</time>
      </trkpt>
      <trkpt lat="46.82939" lon="0.44107">
        <ele>158</ele>
        <time>2019-02-17T09:14:06.000Z</time>
      </trkpt>
      <trkpt lat="46.82938" lon="0.44107">
        <ele>158</ele>
        <time>2019-02-17T09:14:07.000Z</time>
      </trkpt>
      <trkpt lat="46.82938" lon="0.44107">
        <ele>158</ele>
        <time>2019-02-17T09:14:08.000Z</time>
      </trkpt>
      <trkpt lat="46.82938" lon="0.44106">
        <ele>159</ele>
        <time>2019-02-17T09:14:09.000Z</time>
      </trkpt>
      <trkpt lat="46.82938" lon="0.44106">
        <ele>160</ele>
        <time>2019-02-17T09:14:10.000Z</time>
      </trkpt>
      <trkpt lat="46.82939" lon="0.44105">
        <ele>161</ele>
        <time>2019-02-17T09:14:11.000Z</time>
      </trkpt>
      <trkpt lat="46.82939" lon="0.44105">
        <ele>162</ele>
        <time>2019-02-17T09:14:12.000Z</time>
      </trkpt>
      <trkpt lat="46.82939" lon="0.44105">
        <ele>162</ele>
        <time>2019-02-17T09:14:13.000Z</time>
      </trkpt>
      <trkpt lat="46.82939" lon="0.44104">
        <ele>163</ele>
        <time>2019-02-17T09:14:14.000Z</time>
      </trkpt>
      <trkpt lat="46.82939" lon="0.44104">
        <ele>164</ele>
        <time>2019-02-17T09:14:15.000Z</time>
      </trkpt>
      <trkpt lat="46.82939" lon="0.44104">
        <ele>165</ele>
        <time>2019-02-17T09:14:16.000Z</time>
      </trkpt>
      <trkpt lat="46.82939" lon="0.44104">
        <ele>165</ele>
        <time>2019-02-17T09:14:17.000Z</time>
      </trkpt>
      <trkpt lat="46.82938" lon="0.44104">
        <ele>165</ele>
        <time>2019-02-17T09:14:18.000Z</time>
      </trkpt>
      <trkpt lat="46.82938" lon="0.44104">
        <ele>165</ele>
        <time>2019-02-17T09:14:19.000Z</time>
      </trkpt>
      <trkpt lat="46.82938" lon="0.44104">
        <ele>165</ele>
        <time>2019-02-17T09:14:20.000Z</time>
      </trkpt>
      <trkpt lat="46.82938" lon="0.44104">
        <ele>165</ele>
        <time>2019-02-17T09:14:21.000Z</time>
      </trkpt>
      <trkpt lat="46.82937" lon="0.44104">
        <ele>165</ele>
        <time>2019-02-17T09:14:22.000Z</time>
      </trkpt>
      <trkpt lat="46.82937" lon="0.44104">
        <ele>165</ele>
        <time>2019-02-17T09:14:23.000Z</time>
      </trkpt>
      <trkpt lat="46.82937" lon="0.44103">
        <ele>165</ele>
        <time>2019-02-17T09:14:24.000Z</time>
      </trkpt>
      <trkpt lat="46.82937" lon="0.44103">
        <ele>165</ele>
        <time>2019-02-17T09:14:25.000Z</time>
      </trkpt>
      <trkpt lat="46.82936" lon="0.44103">
        <ele>166</ele>
        <time>2019-02-17T09:14:26.000Z</time>
      </trkpt>
      <trkpt lat="46.82936" lon="0.44103">
        <ele>166</ele>
        <time>2019-02-17T09:14:27.000Z</time>
      </trkpt>
      <trkpt lat="46.82936" lon="0.44102">
        <ele>166</ele>
        <time>2019-02-17T09:14:28.000Z</time>
      </trkpt>
      <trkpt lat="46.82936" lon="0.44102">
        <ele>166</ele>
        <time>2019-02-17T09:14:29.000Z</time>
      </trkpt>
      <trkpt lat="46.82936" lon="0.44102">
        <ele>166</ele>
        <time>2019-02-17T09:14:30.000Z</time>
      </trkpt>
      <trkpt lat="46.82936" lon="0.44102">
        <ele>166</ele>
        <time>2019-02-17T09:14:31.000Z</time>
      </trkpt>
      <trkpt lat="46.82935" lon="0.44102">
        <ele>166</ele>
        <time>2019-02-17T09:14:32.000Z</time>
      </trkpt>
      <trkpt lat="46.82935" lon="0.44102">
        <ele>166</ele>
        <time>2019-02-17T09:14:33.000Z</time>
      </trkpt>
      <trkpt lat="46.82935" lon="0.44102">
        <ele>166</ele>
        <time>2019-02-17T09:14:34.000Z</time>
      </trkpt>
      <trkpt lat="46.82936" lon="0.44101">
        <ele>165</ele>
        <time>2019-02-17T09:14:35.000Z</time>
      </trkpt>
      <trkpt lat="46.82936" lon="0.441">
        <ele>165</ele>
        <time>2019-02-17T09:14:36.000Z</time>
      </trkpt>
      <trkpt lat="46.82936" lon="0.44098">
        <ele>165</ele>
        <time>2019-02-17T09:14:37.000Z</time>
      </trkpt>
      <trkpt lat="46.82937" lon="0.44095">
        <ele>164</ele>
        <time>2019-02-17T09:14:38.000Z</time>
      </trkpt>
      <trkpt lat="46.82937" lon="0.44093">
        <ele>164</ele>
        <time>2019-02-17T09:14:39.000Z</time>
      </trkpt>
      <trkpt lat="46.82938" lon="0.4409">
        <ele>163</ele>
        <time>2019-02-17T09:14:40.000Z</time>
      </trkpt>
      <trkpt lat="46.82939" lon="0.44087">
        <ele>163</ele>
        <time>2019-02-17T09:14:41.000Z</time>
      </trkpt>
      <trkpt lat="46.8294" lon="0.44084">
        <ele>163</ele>
        <time>2019-02-17T09:14:42.000Z</time>
      </trkpt>
      <trkpt lat="46.8294" lon="0.44081">
        <ele>163</ele>
        <time>2019-02-17T09:14:43.000Z</time>
      </trkpt>
      <trkpt lat="46.82941" lon="0.44078">
        <ele>163</ele>
        <time>2019-02-17T09:14:44.000Z</time>
      </trkpt>
      <trkpt lat="46.82941" lon="0.44074">
        <ele>162</ele>
        <time>2019-02-17T09:14:45.000Z</time>
      </trkpt>
      <trkpt lat="46.82942" lon="0.4407">
        <ele>162</ele>
        <time>2019-02-17T09:14:46.000Z</time>
      </trkpt>
      <trkpt lat="46.82943" lon="0.44067">
        <ele>162</ele>
        <time>2019-02-17T09:14:47.000Z</time>
      </trkpt>
      <trkpt lat="46.82943" lon="0.44063">
        <ele>162</ele>
        <time>2019-02-17T09:14:48.000Z</time>
      </trkpt>
      <trkpt lat="46.82944" lon="0.44059">
        <ele>161</ele>
        <time>2019-02-17T09:14:49.000Z</time>
      </trkpt>
      <trkpt lat="46.82945" lon="0.44055">
        <ele>161</ele>
        <time>2019-02-17T09:14:50.000Z</time>
      </trkpt>
      <trkpt lat="46.82945" lon="0.44051">
        <ele>161</ele>
        <time>2019-02-17T09:14:51.000Z</time>
      </trkpt>
      <trkpt lat="46.82946" lon="0.44047">
        <ele>161</ele>
        <time>2019-02-17T09:14:52.000Z</time>
      </trkpt>
      <trkpt lat="46.82947" lon="0.44043">
        <ele>160</ele>
        <time>2019-02-17T09:14:53.000Z</time>
      </trkpt>
      <trkpt lat="46.82948" lon="0.44039">
        <ele>160</ele>
        <time>2019-02-17T09:14:54.000Z</time>
      </trkpt>
      <trkpt lat="46.82949" lon="0.44035">
        <ele>160</ele>
        <time>2019-02-17T09:14:55.000Z</time>
      </trkpt>
      <trkpt lat="46.8295" lon="0.44032">
        <ele>160</ele>
        <time>2019-02-17T09:14:56.000Z</time>
      </trkpt>
      <trkpt lat="46.82951" lon="0.44028">
        <ele>159</ele>
        <time>2019-02-17T09:14:57.000Z</time>
      </trkpt>
      <trkpt lat="46.82953" lon="0.44025">
        <ele>160</ele>
        <time>2019-02-17T09:14:58.000Z</time>
      </trkpt>
      <trkpt lat="46.82954" lon="0.44021">
        <ele>160</ele>
        <time>2019-02-17T09:14:59.000Z</time>
      </trkpt>
      <trkpt lat="46.82955" lon="0.44018">
        <ele>159</ele>
        <time>2019-02-17T09:15:00.000Z</time>
      </trkpt>
      <trkpt lat="46.82957" lon="0.44015">
        <ele>159</ele>
        <time>2019-02-17T09:15:01.000Z</time>
      </trkpt>
      <trkpt lat="46.82959" lon="0.44011">
        <ele>159</ele>
        <time>2019-02-17T09:15:02.000Z</time>
      </trkpt>
      <trkpt lat="46.82961" lon="0.44008">
        <ele>159</ele>
        <time>2019-02-17T09:15:03.000Z</time>
      </trkpt>
      <trkpt lat="46.82963" lon="0.44004">
        <ele>158</ele>
        <time>2019-02-17T09:15:04.000Z</time>
      </trkpt>
      <trkpt lat="46.82965" lon="0.44001">
        <ele>158</ele>
        <time>2019-02-17T09:15:05.000Z</time>
      </trkpt>
      <trkpt lat="46.82966" lon="0.43998">
        <ele>157</ele>
        <time>2019-02-17T09:15:06.000Z</time>
      </trkpt>
      <trkpt lat="46.82968" lon="0.43995">
        <ele>157</ele>
        <time>2019-02-17T09:15:07.000Z</time>
      </trkpt>
      <trkpt lat="46.82969" lon="0.43992">
        <ele>157</ele>
        <time>2019-02-17T09:15:08.000Z</time>
      </trkpt>
      <trkpt lat="46.82971" lon="0.4399">
        <ele>157</ele>
        <time>2019-02-17T09:15:09.000Z</time>
      </trkpt>
      <trkpt lat="46.82973" lon="0.43988">
        <ele>156</ele>
        <time>2019-02-17T09:15:10.000Z</time>
      </trkpt>
      <trkpt lat="46.82975" lon="0.43986">
        <ele>156</ele>
        <time>2019-02-17T09:15:11.000Z</time>
      </trkpt>
      <trkpt lat="46.82977" lon="0.43983">
        <ele>155</ele>
        <time>2019-02-17T09:15:12.000Z</time>
      </trkpt>
      <trkpt lat="46.82979" lon="0.43981">
        <ele>154</ele>
        <time>2019-02-17T09:15:13.000Z</time>
      </trkpt>
      <trkpt lat="46.82981" lon="0.43979">
        <ele>154</ele>
        <time>2019-02-17T09:15:14.000Z</time>
      </trkpt>
      <trkpt lat="46.82983" lon="0.43977">
        <ele>153</ele>
        <time>2019-02-17T09:15:15.000Z</time>
      </trkpt>
      <trkpt lat="46.82985" lon="0.43975">
        <ele>153</ele>
        <time>2019-02-17T09:15:16.000Z</time>
      </trkpt>
      <trkpt lat="46.82986" lon="0.43973">
        <ele>153</ele>
        <time>2019-02-17T09:15:17.000Z</time>
      </trkpt>
      <trkpt lat="46.82988" lon="0.4397">
        <ele>152</ele>
        <time>2019-02-17T09:15:18.000Z</time>
      </trkpt>
      <trkpt lat="46.82989" lon="0.43967">
        <ele>152</ele>
        <time>2019-02-17T09:15:19.000Z</time>
      </trkpt>
      <trkpt lat="46.82991" lon="0.43964">
        <ele>152</ele>
        <time>2019-02-17T09:15:20.000Z</time>
      </trkpt>
      <trkpt lat="46.82993" lon="0.4396">
        <ele>153</ele>
        <time>2019-02-17T09:15:21.000Z</time>
      </trkpt>
      <trkpt lat="46.82995" lon="0.43957">
        <ele>152</ele>
        <time>2019-02-17T09:15:22.000Z</time>
      </trkpt>
      <trkpt lat="46.82998" lon="0.43953">
        <ele>152</ele>
        <time>2019-02-17T09:15:23.000Z</time>
      </trkpt>
      <trkpt lat="46.83" lon="0.4395">
        <ele>151</ele>
        <time>2019-02-17T09:15:24.000Z</time>
      </trkpt>
      <trkpt lat="46.83003" lon="0.43946">
        <ele>150</ele>
        <time>2019-02-17T09:15:25.000Z</time>
      </trkpt>
      <trkpt lat="46.83006" lon="0.43941">
        <ele>148</ele>
        <time>2019-02-17T09:15:26.000Z</time>
      </trkpt>
      <trkpt lat="46.83009" lon="0.43937">
        <ele>147</ele>
        <time>2019-02-17T09:15:27.000Z</time>
      </trkpt>
      <trkpt lat="46.83012" lon="0.43932">
        <ele>148</ele>
        <time>2019-02-17T09:15:28.000Z</time>
      </trkpt>
      <trkpt lat="46.83015" lon="0.43927">
        <ele>148</ele>
        <time>2019-02-17T09:15:29.000Z</time>
      </trkpt>
      <trkpt lat="46.83017" lon="0.43923">
        <ele>147</ele>
        <time>2019-02-17T09:15:30.000Z</time>
      </trkpt>
      <trkpt lat="46.83019" lon="0.4392">
        <ele>147</ele>
        <time>2019-02-17T09:15:31.000Z</time>
      </trkpt>
      <trkpt lat="46.83022" lon="0.43916">
        <ele>147</ele>
        <time>2019-02-17T09:15:32.000Z</time>
      </trkpt>
      <trkpt lat="46.83025" lon="0.43912">
        <ele>147</ele>
        <time>2019-02-17T09:15:33.000Z</time>
      </trkpt>
      <trkpt lat="46.83029" lon="0.43908">
        <ele>147</ele>
        <time>2019-02-17T09:15:34.000Z</time>
      </trkpt>
      <trkpt lat="46.83031" lon="0.43903">
        <ele>146</ele>
        <time>2019-02-17T09:15:35.000Z</time>
      </trkpt>
      <trkpt lat="46.83034" lon="0.439">
        <ele>146</ele>
        <time>2019-02-17T09:15:36.000Z</time>
      </trkpt>
      <trkpt lat="46.83037" lon="0.43896">
        <ele>146</ele>
        <time>2019-02-17T09:15:37.000Z</time>
      </trkpt>
      <trkpt lat="46.83039" lon="0.43892">
        <ele>146</ele>
        <time>2019-02-17T09:15:38.000Z</time>
      </trkpt>
      <trkpt lat="46.83042" lon="0.43888">
        <ele>146</ele>
        <time>2019-02-17T09:15:39.000Z</time>
      </trkpt>
      <trkpt lat="46.83044" lon="0.43885">
        <ele>146</ele>
        <time>2019-02-17T09:15:40.000Z</time>
      </trkpt>
      <trkpt lat="46.83046" lon="0.43881">
        <ele>145</ele>
        <time>2019-02-17T09:15:41.000Z</time>
      </trkpt>
      <trkpt lat="46.83049" lon="0.43878">
        <ele>145</ele>
        <time>2019-02-17T09:15:42.000Z</time>
      </trkpt>
      <trkpt lat="46.83051" lon="0.43874">
        <ele>145</ele>
        <time>2019-02-17T09:15:43.000Z</time>
      </trkpt>
      <trkpt lat="46.83053" lon="0.43871">
        <ele>145</ele>
        <time>2019-02-17T09:15:44.000Z</time>
      </trkpt>
      <trkpt lat="46.83055" lon="0.43867">
        <ele>146</ele>
        <time>2019-02-17T09:15:45.000Z</time>
      </trkpt>
      <trkpt lat="46.83057" lon="0.43864">
        <ele>146</ele>
        <time>2019-02-17T09:15:46.000Z</time>
      </trkpt>
      <trkpt lat="46.8306" lon="0.4386">
        <ele>146</ele>
        <time>2019-02-17T09:15:47.000Z</time>
      </trkpt>
      <trkpt lat="46.83063" lon="0.43856">
        <ele>145</ele>
        <time>2019-02-17T09:15:48.000Z</time>
      </trkpt>
      <trkpt lat="46.83066" lon="0.43851">
        <ele>145</ele>
        <time>2019-02-17T09:15:49.000Z</time>
      </trkpt>
      <trkpt lat="46.83069" lon="0.43847">
        <ele>145</ele>
        <time>2019-02-17T09:15:50.000Z</time>
      </trkpt>
      <trkpt lat="46.83072" lon="0.43843">
        <ele>145</ele>
        <time>2019-02-17T09:15:51.000Z</time>
      </trkpt>
      <trkpt lat="46.83075" lon="0.43839">
        <ele>144</ele>
        <time>2019-02-17T09:15:52.000Z</time>
      </trkpt>
      <trkpt lat="46.83079" lon="0.43835">
        <ele>144</ele>
        <time>2019-02-17T09:15:53.000Z</time>
      </trkpt>
      <trkpt lat="46.83082" lon="0.43831">
        <ele>144</ele>
        <time>2019-02-17T09:15:54.000Z</time>
      </trkpt>
      <trkpt lat="46.83086" lon="0.43827">
        <ele>143</ele>
        <time>2019-02-17T09:15:55.000Z</time>
      </trkpt>
      <trkpt lat="46.83089" lon="0.43823">
        <ele>141</ele>
        <time>2019-02-17T09:15:56.000Z</time>
      </trkpt>
      <trkpt lat="46.83092" lon="0.43819">
        <ele>141</ele>
        <time>2019-02-17T09:15:57.000Z</time>
      </trkpt>
      <trkpt lat="46.83095" lon="0.43815">
        <ele>141</ele>
        <time>2019-02-17T09:15:58.000Z</time>
      </trkpt>
      <trkpt lat="46.83098" lon="0.43811">
        <ele>141</ele>
        <time>2019-02-17T09:15:59.000Z</time>
      </trkpt>
      <trkpt lat="46.83101" lon="0.43807">
        <ele>141</ele>
        <time>2019-02-17T09:16:00.000Z</time>
      </trkpt>
      <trkpt lat="46.83105" lon="0.43803">
        <ele>143</ele>
        <time>2019-02-17T09:16:01.000Z</time>
      </trkpt>
      <trkpt lat="46.83108" lon="0.43799">
        <ele>144</ele>
        <time>2019-02-17T09:16:02.000Z</time>
      </trkpt>
      <trkpt lat="46.83111" lon="0.43795">
        <ele>144</ele>
        <time>2019-02-17T09:16:03.000Z</time>
      </trkpt>
      <trkpt lat="46.83113" lon="0.4379">
        <ele>144</ele>
        <time>2019-02-17T09:16:04.000Z</time>
      </trkpt>
      <trkpt lat="46.83116" lon="0.43786">
        <ele>144</ele>
        <time>2019-02-17T09:16:05.000Z</time>
      </trkpt>
      <trkpt lat="46.83118" lon="0.43782">
        <ele>144</ele>
        <time>2019-02-17T09:16:06.000Z</time>
      </trkpt>
      <trkpt lat="46.8312" lon="0.43778">
        <ele>143</ele>
        <time>2019-02-17T09:16:07.000Z</time>
      </trkpt>
      <trkpt lat="46.83123" lon="0.43773">
        <ele>142</ele>
        <time>2019-02-17T09:16:08.000Z</time>
      </trkpt>
      <trkpt lat="46.83125" lon="0.43769">
        <ele>142</ele>
        <time>2019-02-17T09:16:09.000Z</time>
      </trkpt>
      <trkpt lat="46.83127" lon="0.43765">
        <ele>142</ele>
        <time>2019-02-17T09:16:10.000Z</time>
      </trkpt>
      <trkpt lat="46.83129" lon="0.43761">
        <ele>141</ele>
        <time>2019-02-17T09:16:11.000Z</time>
      </trkpt>
      <trkpt lat="46.83132" lon="0.43757">
        <ele>141</ele>
        <time>2019-02-17T09:16:12.000Z</time>
      </trkpt>
      <trkpt lat="46.83134" lon="0.43753">
        <ele>141</ele>
        <time>2019-02-17T09:16:13.000Z</time>
      </trkpt>
      <trkpt lat="46.83136" lon="0.43749">
        <ele>141</ele>
        <time>2019-02-17T09:16:14.000Z</time>
      </trkpt>
      <trkpt lat="46.83139" lon="0.43745">
        <ele>142</ele>
        <time>2019-02-17T09:16:15.000Z</time>
      </trkpt>
      <trkpt lat="46.83142" lon="0.43741">
        <ele>142</ele>
        <time>2019-02-17T09:16:16.000Z</time>
      </trkpt>
      <trkpt lat="46.83145" lon="0.43737">
        <ele>141</ele>
        <time>2019-02-17T09:16:17.000Z</time>
      </trkpt>
      <trkpt lat="46.83148" lon="0.43733">
        <ele>141</ele>
        <time>2019-02-17T09:16:18.000Z</time>
      </trkpt>
      <trkpt lat="46.83151" lon="0.43729">
        <ele>141</ele>
        <time>2019-02-17T09:16:19.000Z</time>
      </trkpt>
      <trkpt lat="46.83154" lon="0.43726">
        <ele>141</ele>
        <time>2019-02-17T09:16:20.000Z</time>
      </trkpt>
      <trkpt lat="46.83157" lon="0.43722">
        <ele>142</ele>
        <time>2019-02-17T09:16:21.000Z</time>
      </trkpt>
      <trkpt lat="46.8316" lon="0.43719">
        <ele>142</ele>
        <time>2019-02-17T09:16:22.000Z</time>
      </trkpt>
      <trkpt lat="46.83162" lon="0.43716">
        <ele>141</ele>
        <time>2019-02-17T09:16:23.000Z</time>
      </trkpt>
      <trkpt lat="46.83165" lon="0.43712">
        <ele>142</ele>
        <time>2019-02-17T09:16:24.000Z</time>
      </trkpt>
      <trkpt lat="46.83168" lon="0.43709">
        <ele>142</ele>
        <time>2019-02-17T09:16:25.000Z</time>
      </trkpt>
      <trkpt lat="46.8317" lon="0.43705">
        <ele>143</ele>
        <time>2019-02-17T09:16:26.000Z</time>
      </trkpt>
      <trkpt lat="46.83173" lon="0.43701">
        <ele>144</ele>
        <time>2019-02-17T09:16:27.000Z</time>
      </trkpt>
      <trkpt lat="46.83175" lon="0.43698">
        <ele>146</ele>
        <time>2019-02-17T09:16:28.000Z</time>
      </trkpt>
      <trkpt lat="46.83178" lon="0.43694">
        <ele>146</ele>
        <time>2019-02-17T09:16:29.000Z</time>
      </trkpt>
      <trkpt lat="46.83181" lon="0.4369">
        <ele>147</ele>
        <time>2019-02-17T09:16:30.000Z</time>
      </trkpt>
      <trkpt lat="46.83184" lon="0.43686">
        <ele>147</ele>
        <time>2019-02-17T09:16:31.000Z</time>
      </trkpt>
      <trkpt lat="46.83186" lon="0.43683">
        <ele>148</ele>
        <time>2019-02-17T09:16:32.000Z</time>
      </trkpt>
      <trkpt lat="46.83189" lon="0.4368">
        <ele>149</ele>
        <time>2019-02-17T09:16:33.000Z</time>
      </trkpt>
      <trkpt lat="46.83192" lon="0.43676">
        <ele>150</ele>
        <time>2019-02-17T09:16:34.000Z</time>
      </trkpt>
      <trkpt lat="46.83195" lon="0.43672">
        <ele>150</ele>
        <time>2019-02-17T09:16:35.000Z</time>
      </trkpt>
      <trkpt lat="46.83197" lon="0.43668">
        <ele>150</ele>
        <time>2019-02-17T09:16:36.000Z</time>
      </trkpt>
      <trkpt lat="46.83199" lon="0.43665">
        <ele>150</ele>
        <time>2019-02-17T09:16:37.000Z</time>
      </trkpt>
      <trkpt lat="46.83202" lon="0.43661">
        <ele>151</ele>
        <time>2019-02-17T09:16:38.000Z</time>
      </trkpt>
      <trkpt lat="46.83204" lon="0.43658">
        <ele>150</ele>
        <time>2019-02-17T09:16:39.000Z</time>
      </trkpt>
      <trkpt lat="46.83207" lon="0.43654">
        <ele>150</ele>
        <time>2019-02-17T09:16:40.000Z</time>
      </trkpt>
      <trkpt lat="46.83209" lon="0.43651">
        <ele>150</ele>
        <time>2019-02-17T09:16:41.000Z</time>
      </trkpt>
      <trkpt lat="46.83212" lon="0.43648">
        <ele>150</ele>
        <time>2019-02-17T09:16:42.000Z</time>
      </trkpt>
      <trkpt lat="46.83214" lon="0.43645">
        <ele>150</ele>
        <time>2019-02-17T09:16:43.000Z</time>
      </trkpt>
      <trkpt lat="46.83216" lon="0.43642">
        <ele>151</ele>
        <time>2019-02-17T09:16:44.000Z</time>
      </trkpt>
      <trkpt lat="46.83219" lon="0.43638">
        <ele>153</ele>
        <time>2019-02-17T09:16:45.000Z</time>
      </trkpt>
      <trkpt lat="46.83222" lon="0.43633">
        <ele>155</ele>
        <time>2019-02-17T09:16:46.000Z</time>
      </trkpt>
      <trkpt lat="46.83226" lon="0.43629">
        <ele>155</ele>
        <time>2019-02-17T09:16:47.000Z</time>
      </trkpt>
      <trkpt lat="46.8323" lon="0.43625">
        <ele>155</ele>
        <time>2019-02-17T09:16:48.000Z</time>
      </trkpt>
      <trkpt lat="46.83233" lon="0.43621">
        <ele>154</ele>
        <time>2019-02-17T09:16:49.000Z</time>
      </trkpt>
      <trkpt lat="46.83236" lon="0.43616">
        <ele>155</ele>
        <time>2019-02-17T09:16:50.000Z</time>
      </trkpt>
      <trkpt lat="46.83239" lon="0.43612">
        <ele>155</ele>
        <time>2019-02-17T09:16:51.000Z</time>
      </trkpt>
      <trkpt lat="46.83241" lon="0.43608">
        <ele>155</ele>
        <time>2019-02-17T09:16:52.000Z</time>
      </trkpt>
      <trkpt lat="46.83244" lon="0.43605">
        <ele>155</ele>
        <time>2019-02-17T09:16:53.000Z</time>
      </trkpt>
      <trkpt lat="46.83246" lon="0.43601">
        <ele>155</ele>
        <time>2019-02-17T09:16:54.000Z</time>
      </trkpt>
      <trkpt lat="46.83247" lon="0.43597">
        <ele>155</ele>
        <time>2019-02-17T09:16:55.000Z</time>
      </trkpt>
      <trkpt lat="46.83249" lon="0.43594">
        <ele>156</ele>
        <time>2019-02-17T09:16:56.000Z</time>
      </trkpt>
      <trkpt lat="46.83251" lon="0.4359">
        <ele>156</ele>
        <time>2019-02-17T09:16:57.000Z</time>
      </trkpt>
      <trkpt lat="46.83253" lon="0.43587">
        <ele>157</ele>
        <time>2019-02-17T09:16:58.000Z</time>
      </trkpt>
      <trkpt lat="46.83255" lon="0.43584">
        <ele>156</ele>
        <time>2019-02-17T09:16:59.000Z</time>
      </trkpt>
      <trkpt lat="46.83257" lon="0.4358">
        <ele>156</ele>
        <time>2019-02-17T09:17:00.000Z</time>
      </trkpt>
      <trkpt lat="46.8326" lon="0.43576">
        <ele>155</ele>
        <time>2019-02-17T09:17:01.000Z</time>
      </trkpt>
      <trkpt lat="46.83262" lon="0.43571">
        <ele>154</ele>
        <time>2019-02-17T09:17:02.000Z</time>
      </trkpt>
      <trkpt lat="46.83264" lon="0.43567">
        <ele>153</ele>
        <time>2019-02-17T09:17:03.000Z</time>
      </trkpt>
      <trkpt lat="46.83263" lon="0.43562">
        <ele>157</ele>
        <time>2019-02-17T09:17:04.000Z</time>
      </trkpt>
      <trkpt lat="46.83263" lon="0.43556">
        <ele>157</ele>
        <time>2019-02-17T09:17:05.000Z</time>
      </trkpt>
      <trkpt lat="46.83263" lon="0.43551">
        <ele>157</ele>
        <time>2019-02-17T09:17:06.000Z</time>
      </trkpt>
      <trkpt lat="46.83264" lon="0.43546">
        <ele>156</ele>
        <time>2019-02-17T09:17:07.000Z</time>
      </trkpt>
      <trkpt lat="46.83266" lon="0.43542">
        <ele>157</ele>
        <time>2019-02-17T09:17:08.000Z</time>
      </trkpt>
      <trkpt lat="46.83267" lon="0.43538">
        <ele>156</ele>
        <time>2019-02-17T09:17:09.000Z</time>
      </trkpt>
      <trkpt lat="46.83269" lon="0.43534">
        <ele>157</ele>
        <time>2019-02-17T09:17:10.000Z</time>
      </trkpt>
      <trkpt lat="46.8327" lon="0.4353">
        <ele>156</ele>
        <time>2019-02-17T09:17:11.000Z</time>
      </trkpt>
      <trkpt lat="46.83272" lon="0.43526">
        <ele>157</ele>
        <time>2019-02-17T09:17:12.000Z</time>
      </trkpt>
      <trkpt lat="46.83273" lon="0.43522">
        <ele>156</ele>
        <time>2019-02-17T09:17:13.000Z</time>
      </trkpt>
      <trkpt lat="46.83275" lon="0.43518">
        <ele>156</ele>
        <time>2019-02-17T09:17:14.000Z</time>
      </trkpt>
      <trkpt lat="46.83277" lon="0.43514">
        <ele>156</ele>
        <time>2019-02-17T09:17:15.000Z</time>
      </trkpt>
      <trkpt lat="46.83278" lon="0.4351">
        <ele>155</ele>
        <time>2019-02-17T09:17:16.000Z</time>
      </trkpt>
      <trkpt lat="46.8328" lon="0.43506">
        <ele>155</ele>
        <time>2019-02-17T09:17:17.000Z</time>
      </trkpt>
      <trkpt lat="46.83281" lon="0.43502">
        <ele>155</ele>
        <time>2019-02-17T09:17:18.000Z</time>
      </trkpt>
      <trkpt lat="46.83282" lon="0.43498">
        <ele>155</ele>
        <time>2019-02-17T09:17:19.000Z</time>
      </trkpt>
      <trkpt lat="46.83283" lon="0.43494">
        <ele>155</ele>
        <time>2019-02-17T09:17:20.000Z</time>
      </trkpt>
      <trkpt lat="46.83283" lon="0.4349">
        <ele>155</ele>
        <time>2019-02-17T09:17:21.000Z</time>
      </trkpt>
      <trkpt lat="46.83283" lon="0.43485">
        <ele>155</ele>
        <time>2019-02-17T09:17:22.000Z</time>
      </trkpt>
      <trkpt lat="46.83284" lon="0.43481">
        <ele>155</ele>
        <time>2019-02-17T09:17:23.000Z</time>
      </trkpt>
      <trkpt lat="46.83285" lon="0.43476">
        <ele>155</ele>
        <time>2019-02-17T09:17:24.000Z</time>
      </trkpt>
      <trkpt lat="46.83286" lon="0.43472">
        <ele>155</ele>
        <time>2019-02-17T09:17:25.000Z</time>
      </trkpt>
      <trkpt lat="46.83287" lon="0.43467">
        <ele>156</ele>
        <time>2019-02-17T09:17:26.000Z</time>
      </trkpt>
      <trkpt lat="46.83287" lon="0.43463">
        <ele>156</ele>
        <time>2019-02-17T09:17:27.000Z</time>
      </trkpt>
      <trkpt lat="46.83288" lon="0.43458">
        <ele>156</ele>
        <time>2019-02-17T09:17:28.000Z</time>
      </trkpt>
      <trkpt lat="46.83288" lon="0.43454">
        <ele>156</ele>
        <time>2019-02-17T09:17:29.000Z</time>
      </trkpt>
      <trkpt lat="46.8329" lon="0.4345">
        <ele>155</ele>
        <time>2019-02-17T09:17:30.000Z</time>
      </trkpt>
      <trkpt lat="46.83291" lon="0.43446">
        <ele>155</ele>
        <time>2019-02-17T09:17:31.000Z</time>
      </trkpt>
      <trkpt lat="46.83292" lon="0.43441">
        <ele>154</ele>
        <time>2019-02-17T09:17:32.000Z</time>
      </trkpt>
      <trkpt lat="46.83293" lon="0.43437">
        <ele>154</ele>
        <time>2019-02-17T09:17:33.000Z</time>
      </trkpt>
      <trkpt lat="46.83294" lon="0.43432">
        <ele>154</ele>
        <time>2019-02-17T09:17:34.000Z</time>
      </trkpt>
      <trkpt lat="46.83295" lon="0.43427">
        <ele>154</ele>
        <time>2019-02-17T09:17:35.000Z</time>
      </trkpt>
      <trkpt lat="46.83296" lon="0.43422">
        <ele>154</ele>
        <time>2019-02-17T09:17:36.000Z</time>
      </trkpt>
      <trkpt lat="46.83297" lon="0.43417">
        <ele>155</ele>
        <time>2019-02-17T09:17:37.000Z</time>
      </trkpt>
      <trkpt lat="46.83299" lon="0.43413">
        <ele>155</ele>
        <time>2019-02-17T09:17:38.000Z</time>
      </trkpt>
      <trkpt lat="46.833" lon="0.43409">
        <ele>154</ele>
        <time>2019-02-17T09:17:39.000Z</time>
      </trkpt>
      <trkpt lat="46.83301" lon="0.43404">
        <ele>155</ele>
        <time>2019-02-17T09:17:40.000Z</time>
      </trkpt>
      <trkpt lat="46.83303" lon="0.434">
        <ele>155</ele>
        <time>2019-02-17T09:17:41.000Z</time>
      </trkpt>
      <trkpt lat="46.83304" lon="0.43395">
        <ele>156</ele>
        <time>2019-02-17T09:17:42.000Z</time>
      </trkpt>
      <trkpt lat="46.83306" lon="0.43391">
        <ele>156</ele>
        <time>2019-02-17T09:17:43.000Z</time>
      </trkpt>
      <trkpt lat="46.83308" lon="0.43387">
        <ele>156</ele>
        <time>2019-02-17T09:17:44.000Z</time>
      </trkpt>
      <trkpt lat="46.83311" lon="0.43383">
        <ele>156</ele>
        <time>2019-02-17T09:17:45.000Z</time>
      </trkpt>
      <trkpt lat="46.83313" lon="0.43378">
        <ele>155</ele>
        <time>2019-02-17T09:17:46.000Z</time>
      </trkpt>
      <trkpt lat="46.83315" lon="0.43374">
        <ele>155</ele>
        <time>2019-02-17T09:17:47.000Z</time>
      </trkpt>
      <trkpt lat="46.83317" lon="0.4337">
        <ele>155</ele>
        <time>2019-02-17T09:17:48.000Z</time>
      </trkpt>
      <trkpt lat="46.83318" lon="0.43365">
        <ele>156</ele>
        <time>2019-02-17T09:17:49.000Z</time>
      </trkpt>
      <trkpt lat="46.8332" lon="0.43361">
        <ele>155</ele>
        <time>2019-02-17T09:17:50.000Z</time>
      </trkpt>
      <trkpt lat="46.83321" lon="0.43357">
        <ele>154</ele>
        <time>2019-02-17T09:17:51.000Z</time>
      </trkpt>
      <trkpt lat="46.83323" lon="0.43353">
        <ele>154</ele>
        <time>2019-02-17T09:17:52.000Z</time>
      </trkpt>
      <trkpt lat="46.83324" lon="0.43349">
        <ele>154</ele>
        <time>2019-02-17T09:17:53.000Z</time>
      </trkpt>
      <trkpt lat="46.83325" lon="0.43344">
        <ele>154</ele>
        <time>2019-02-17T09:17:54.000Z</time>
      </trkpt>
      <trkpt lat="46.83326" lon="0.4334">
        <ele>154</ele>
        <time>2019-02-17T09:17:55.000Z</time>
      </trkpt>
      <trkpt lat="46.83327" lon="0.43335">
        <ele>154</ele>
        <time>2019-02-17T09:17:56.000Z</time>
      </trkpt>
      <trkpt lat="46.83329" lon="0.43331">
        <ele>153</ele>
        <time>2019-02-17T09:17:57.000Z</time>
      </trkpt>
      <trkpt lat="46.83331" lon="0.43326">
        <ele>153</ele>
        <time>2019-02-17T09:17:58.000Z</time>
      </trkpt>
      <trkpt lat="46.83333" lon="0.43322">
        <ele>154</ele>
        <time>2019-02-17T09:17:59.000Z</time>
      </trkpt>
      <trkpt lat="46.83335" lon="0.43317">
        <ele>153</ele>
        <time>2019-02-17T09:18:00.000Z</time>
      </trkpt>
      <trkpt lat="46.83337" lon="0.43312">
        <ele>153</ele>
        <time>2019-02-17T09:18:01.000Z</time>
      </trkpt>
      <trkpt lat="46.8334" lon="0.43307">
        <ele>154</ele>
        <time>2019-02-17T09:18:02.000Z</time>
      </trkpt>
      <trkpt lat="46.83341" lon="0.43302">
        <ele>155</ele>
        <time>2019-02-17T09:18:03.000Z</time>
      </trkpt>
      <trkpt lat="46.83342" lon="0.43296">
        <ele>155</ele>
        <time>2019-02-17T09:18:04.000Z</time>
      </trkpt>
      <trkpt lat="46.83343" lon="0.43291">
        <ele>154</ele>
        <time>2019-02-17T09:18:05.000Z</time>
      </trkpt>
      <trkpt lat="46.83344" lon="0.43286">
        <ele>153</ele>
        <time>2019-02-17T09:18:06.000Z</time>
      </trkpt>
      <trkpt lat="46.83346" lon="0.43282">
        <ele>152</ele>
        <time>2019-02-17T09:18:07.000Z</time>
      </trkpt>
      <trkpt lat="46.83348" lon="0.43278">
        <ele>151</ele>
        <time>2019-02-17T09:18:08.000Z</time>
      </trkpt>
      <trkpt lat="46.8335" lon="0.43273">
        <ele>151</ele>
        <time>2019-02-17T09:18:09.000Z</time>
      </trkpt>
      <trkpt lat="46.83352" lon="0.43268">
        <ele>150</ele>
        <time>2019-02-17T09:18:10.000Z</time>
      </trkpt>
      <trkpt lat="46.83354" lon="0.43264">
        <ele>149</ele>
        <time>2019-02-17T09:18:11.000Z</time>
      </trkpt>
      <trkpt lat="46.83357" lon="0.43259">
        <ele>149</ele>
        <time>2019-02-17T09:18:12.000Z</time>
      </trkpt>
      <trkpt lat="46.83359" lon="0.43254">
        <ele>149</ele>
        <time>2019-02-17T09:18:13.000Z</time>
      </trkpt>
      <trkpt lat="46.8336" lon="0.43248">
        <ele>149</ele>
        <time>2019-02-17T09:18:14.000Z</time>
      </trkpt>
      <trkpt lat="46.83361" lon="0.43243">
        <ele>148</ele>
        <time>2019-02-17T09:18:15.000Z</time>
      </trkpt>
      <trkpt lat="46.83363" lon="0.43238">
        <ele>147</ele>
        <time>2019-02-17T09:18:16.000Z</time>
      </trkpt>
      <trkpt lat="46.83364" lon="0.43233">
        <ele>147</ele>
        <time>2019-02-17T09:18:17.000Z</time>
      </trkpt>
      <trkpt lat="46.83366" lon="0.43228">
        <ele>145</ele>
        <time>2019-02-17T09:18:18.000Z</time>
      </trkpt>
      <trkpt lat="46.83368" lon="0.43224">
        <ele>143</ele>
        <time>2019-02-17T09:18:19.000Z</time>
      </trkpt>
      <trkpt lat="46.8337" lon="0.43219">
        <ele>143</ele>
        <time>2019-02-17T09:18:20.000Z</time>
      </trkpt>
      <trkpt lat="46.83371" lon="0.43214">
        <ele>142</ele>
        <time>2019-02-17T09:18:21.000Z</time>
      </trkpt>
      <trkpt lat="46.83373" lon="0.4321">
        <ele>141</ele>
        <time>2019-02-17T09:18:22.000Z</time>
      </trkpt>
      <trkpt lat="46.83375" lon="0.43205">
        <ele>140</ele>
        <time>2019-02-17T09:18:23.000Z</time>
      </trkpt>
      <trkpt lat="46.83377" lon="0.432">
        <ele>139</ele>
        <time>2019-02-17T09:18:24.000Z</time>
      </trkpt>
      <trkpt lat="46.8338" lon="0.43195">
        <ele>139</ele>
        <time>2019-02-17T09:18:25.000Z</time>
      </trkpt>
      <trkpt lat="46.83383" lon="0.43189">
        <ele>138</ele>
        <time>2019-02-17T09:18:26.000Z</time>
      </trkpt>
      <trkpt lat="46.83385" lon="0.43183">
        <ele>138</ele>
        <time>2019-02-17T09:18:27.000Z</time>
      </trkpt>
      <trkpt lat="46.83387" lon="0.43177">
        <ele>139</ele>
        <time>2019-02-17T09:18:28.000Z</time>
      </trkpt>
      <trkpt lat="46.83389" lon="0.43171">
        <ele>140</ele>
        <time>2019-02-17T09:18:29.000Z</time>
      </trkpt>
      <trkpt lat="46.83392" lon="0.43165">
        <ele>139</ele>
        <time>2019-02-17T09:18:30.000Z</time>
      </trkpt>
      <trkpt lat="46.83396" lon="0.4316">
        <ele>138</ele>
        <time>2019-02-17T09:18:31.000Z</time>
      </trkpt>
      <trkpt lat="46.83399" lon="0.43155">
        <ele>138</ele>
        <time>2019-02-17T09:18:32.000Z</time>
      </trkpt>
      <trkpt lat="46.83401" lon="0.43149">
        <ele>138</ele>
        <time>2019-02-17T09:18:33.000Z</time>
      </trkpt>
      <trkpt lat="46.83403" lon="0.43144">
        <ele>137</ele>
        <time>2019-02-17T09:18:34.000Z</time>
      </trkpt>
      <trkpt lat="46.83406" lon="0.43138">
        <ele>136</ele>
        <time>2019-02-17T09:18:35.000Z</time>
      </trkpt>
      <trkpt lat="46.83409" lon="0.43132">
        <ele>135</ele>
        <time>2019-02-17T09:18:36.000Z</time>
      </trkpt>
      <trkpt lat="46.83411" lon="0.43126">
        <ele>135</ele>
        <time>2019-02-17T09:18:37.000Z</time>
      </trkpt>
      <trkpt lat="46.83414" lon="0.4312">
        <ele>134</ele>
        <time>2019-02-17T09:18:38.000Z</time>
      </trkpt>
      <trkpt lat="46.83416" lon="0.43114">
        <ele>133</ele>
        <time>2019-02-17T09:18:39.000Z</time>
      </trkpt>
      <trkpt lat="46.8342" lon="0.43107">
        <ele>132</ele>
        <time>2019-02-17T09:18:40.000Z</time>
      </trkpt>
      <trkpt lat="46.83423" lon="0.43101">
        <ele>132</ele>
        <time>2019-02-17T09:18:41.000Z</time>
      </trkpt>
      <trkpt lat="46.83425" lon="0.43094">
        <ele>132</ele>
        <time>2019-02-17T09:18:42.000Z</time>
      </trkpt>
      <trkpt lat="46.83428" lon="0.43088">
        <ele>131</ele>
        <time>2019-02-17T09:18:43.000Z</time>
      </trkpt>
      <trkpt lat="46.83431" lon="0.43082">
        <ele>131</ele>
        <time>2019-02-17T09:18:44.000Z</time>
      </trkpt>
      <trkpt lat="46.83435" lon="0.43076">
        <ele>130</ele>
        <time>2019-02-17T09:18:45.000Z</time>
      </trkpt>
      <trkpt lat="46.83439" lon="0.43069">
        <ele>130</ele>
        <time>2019-02-17T09:18:46.000Z</time>
      </trkpt>
      <trkpt lat="46.83442" lon="0.43063">
        <ele>130</ele>
        <time>2019-02-17T09:18:47.000Z</time>
      </trkpt>
      <trkpt lat="46.83445" lon="0.43057">
        <ele>129</ele>
        <time>2019-02-17T09:18:48.000Z</time>
      </trkpt>
      <trkpt lat="46.83449" lon="0.43051">
        <ele>128</ele>
        <time>2019-02-17T09:18:49.000Z</time>
      </trkpt>
      <trkpt lat="46.83452" lon="0.43044">
        <ele>128</ele>
        <time>2019-02-17T09:18:50.000Z</time>
      </trkpt>
      <trkpt lat="46.83455" lon="0.43038">
        <ele>129</ele>
        <time>2019-02-17T09:18:51.000Z</time>
      </trkpt>
      <trkpt lat="46.83458" lon="0.43031">
        <ele>129</ele>
        <time>2019-02-17T09:18:52.000Z</time>
      </trkpt>
      <trkpt lat="46.8346" lon="0.43024">
        <ele>130</ele>
        <time>2019-02-17T09:18:53.000Z</time>
      </trkpt>
      <trkpt lat="46.83463" lon="0.43016">
        <ele>131</ele>
        <time>2019-02-17T09:18:54.000Z</time>
      </trkpt>
      <trkpt lat="46.83466" lon="0.43009">
        <ele>132</ele>
        <time>2019-02-17T09:18:55.000Z</time>
      </trkpt>
      <trkpt lat="46.83468" lon="0.43001">
        <ele>132</ele>
        <time>2019-02-17T09:18:56.000Z</time>
      </trkpt>
      <trkpt lat="46.83471" lon="0.42994">
        <ele>132</ele>
        <time>2019-02-17T09:18:57.000Z</time>
      </trkpt>
      <trkpt lat="46.83474" lon="0.42987">
        <ele>132</ele>
        <time>2019-02-17T09:18:58.000Z</time>
      </trkpt>
      <trkpt lat="46.83477" lon="0.42981">
        <ele>132</ele>
        <time>2019-02-17T09:18:59.000Z</time>
      </trkpt>
      <trkpt lat="46.8348" lon="0.42974">
        <ele>133</ele>
        <time>2019-02-17T09:19:00.000Z</time>
      </trkpt>
      <trkpt lat="46.83483" lon="0.42969">
        <ele>134</ele>
        <time>2019-02-17T09:19:01.000Z</time>
      </trkpt>
      <trkpt lat="46.83485" lon="0.42965">
        <ele>133</ele>
        <time>2019-02-17T09:19:02.000Z</time>
      </trkpt>
      <trkpt lat="46.83487" lon="0.42963">
        <ele>132</ele>
        <time>2019-02-17T09:19:03.000Z</time>
      </trkpt>
      <trkpt lat="46.83488" lon="0.42962">
        <ele>134</ele>
        <time>2019-02-17T09:19:04.000Z</time>
      </trkpt>
      <trkpt lat="46.83489" lon="0.42963">
        <ele>136</ele>
        <time>2019-02-17T09:19:05.000Z</time>
      </trkpt>
      <trkpt lat="46.83492" lon="0.42964">
        <ele>139</ele>
        <time>2019-02-17T09:19:06.000Z</time>
      </trkpt>
      <trkpt lat="46.83496" lon="0.42966">
        <ele>141</ele>
        <time>2019-02-17T09:19:07.000Z</time>
      </trkpt>
      <trkpt lat="46.835" lon="0.42968">
        <ele>143</ele>
        <time>2019-02-17T09:19:08.000Z</time>
      </trkpt>
      <trkpt lat="46.83504" lon="0.42969">
        <ele>145</ele>
        <time>2019-02-17T09:19:09.000Z</time>
      </trkpt>
      <trkpt lat="46.83508" lon="0.42971">
        <ele>146</ele>
        <time>2019-02-17T09:19:10.000Z</time>
      </trkpt>
      <trkpt lat="46.83512" lon="0.42974">
        <ele>147</ele>
        <time>2019-02-17T09:19:11.000Z</time>
      </trkpt>
      <trkpt lat="46.83517" lon="0.42976">
        <ele>147</ele>
        <time>2019-02-17T09:19:12.000Z</time>
      </trkpt>
      <trkpt lat="46.83521" lon="0.42979">
        <ele>148</ele>
        <time>2019-02-17T09:19:13.000Z</time>
      </trkpt>
      <trkpt lat="46.83525" lon="0.42982">
        <ele>148</ele>
        <time>2019-02-17T09:19:14.000Z</time>
      </trkpt>
      <trkpt lat="46.83529" lon="0.42985">
        <ele>149</ele>
        <time>2019-02-17T09:19:15.000Z</time>
      </trkpt>
      <trkpt lat="46.83533" lon="0.42987">
        <ele>150</ele>
        <time>2019-02-17T09:19:16.000Z</time>
      </trkpt>
      <trkpt lat="46.83537" lon="0.4299">
        <ele>151</ele>
        <time>2019-02-17T09:19:17.000Z</time>
      </trkpt>
      <trkpt lat="46.83541" lon="0.42993">
        <ele>152</ele>
        <time>2019-02-17T09:19:18.000Z</time>
      </trkpt>
      <trkpt lat="46.83545" lon="0.42997">
        <ele>154</ele>
        <time>2019-02-17T09:19:19.000Z</time>
      </trkpt>
      <trkpt lat="46.8355" lon="0.43">
        <ele>154</ele>
        <time>2019-02-17T09:19:20.000Z</time>
      </trkpt>
      <trkpt lat="46.83554" lon="0.43003">
        <ele>154</ele>
        <time>2019-02-17T09:19:21.000Z</time>
      </trkpt>
      <trkpt lat="46.83558" lon="0.43007">
        <ele>155</ele>
        <time>2019-02-17T09:19:22.000Z</time>
      </trkpt>
      <trkpt lat="46.83562" lon="0.4301">
        <ele>155</ele>
        <time>2019-02-17T09:19:23.000Z</time>
      </trkpt>
      <trkpt lat="46.83566" lon="0.43013">
        <ele>155</ele>
        <time>2019-02-17T09:19:24.000Z</time>
      </trkpt>
      <trkpt lat="46.8357" lon="0.43016">
        <ele>155</ele>
        <time>2019-02-17T09:19:25.000Z</time>
      </trkpt>
      <trkpt lat="46.83574" lon="0.43019">
        <ele>155</ele>
        <time>2019-02-17T09:19:26.000Z</time>
      </trkpt>
      <trkpt lat="46.83578" lon="0.43021">
        <ele>156</ele>
        <time>2019-02-17T09:19:27.000Z</time>
      </trkpt>
      <trkpt lat="46.83582" lon="0.43024">
        <ele>157</ele>
        <time>2019-02-17T09:19:28.000Z</time>
      </trkpt>
      <trkpt lat="46.83586" lon="0.43026">
        <ele>157</ele>
        <time>2019-02-17T09:19:29.000Z</time>
      </trkpt>
      <trkpt lat="46.83589" lon="0.43029">
        <ele>156</ele>
        <time>2019-02-17T09:19:30.000Z</time>
      </trkpt>
      <trkpt lat="46.83593" lon="0.43032">
        <ele>156</ele>
        <time>2019-02-17T09:19:31.000Z</time>
      </trkpt>
      <trkpt lat="46.83596" lon="0.43035">
        <ele>156</ele>
        <time>2019-02-17T09:19:32.000Z</time>
      </trkpt>
      <trkpt lat="46.836" lon="0.43039">
        <ele>156</ele>
        <time>2019-02-17T09:19:33.000Z</time>
      </trkpt>
      <trkpt lat="46.83603" lon="0.43042">
        <ele>157</ele>
        <time>2019-02-17T09:19:34.000Z</time>
      </trkpt>
      <trkpt lat="46.83607" lon="0.43045">
        <ele>158</ele>
        <time>2019-02-17T09:19:35.000Z</time>
      </trkpt>
      <trkpt lat="46.83611" lon="0.43048">
        <ele>159</ele>
        <time>2019-02-17T09:19:36.000Z</time>
      </trkpt>
      <trkpt lat="46.83614" lon="0.43051">
        <ele>159</ele>
        <time>2019-02-17T09:19:37.000Z</time>
      </trkpt>
      <trkpt lat="46.83618" lon="0.43054">
        <ele>160</ele>
        <time>2019-02-17T09:19:38.000Z</time>
      </trkpt>
      <trkpt lat="46.83621" lon="0.43057">
        <ele>160</ele>
        <time>2019-02-17T09:19:39.000Z</time>
      </trkpt>
      <trkpt lat="46.83625" lon="0.4306">
        <ele>159</ele>
        <time>2019-02-17T09:19:40.000Z</time>
      </trkpt>
      <trkpt lat="46.83628" lon="0.43062">
        <ele>159</ele>
        <time>2019-02-17T09:19:41.000Z</time>
      </trkpt>
      <trkpt lat="46.83632" lon="0.43065">
        <ele>159</ele>
        <time>2019-02-17T09:19:42.000Z</time>
      </trkpt>
      <trkpt lat="46.83635" lon="0.43068">
        <ele>159</ele>
        <time>2019-02-17T09:19:43.000Z</time>
      </trkpt>
      <trkpt lat="46.83639" lon="0.43071">
        <ele>161</ele>
        <time>2019-02-17T09:19:44.000Z</time>
      </trkpt>
      <trkpt lat="46.83643" lon="0.43074">
        <ele>161</ele>
        <time>2019-02-17T09:19:45.000Z</time>
      </trkpt>
      <trkpt lat="46.83647" lon="0.43076">
        <ele>162</ele>
        <time>2019-02-17T09:19:46.000Z</time>
      </trkpt>
      <trkpt lat="46.83651" lon="0.43079">
        <ele>162</ele>
        <time>2019-02-17T09:19:47.000Z</time>
      </trkpt>
      <trkpt lat="46.83655" lon="0.43082">
        <ele>163</ele>
        <time>2019-02-17T09:19:48.000Z</time>
      </trkpt>
      <trkpt lat="46.83659" lon="0.43085">
        <ele>163</ele>
        <time>2019-02-17T09:19:49.000Z</time>
      </trkpt>
      <trkpt lat="46.83663" lon="0.43088">
        <ele>164</ele>
        <time>2019-02-17T09:19:50.000Z</time>
      </trkpt>
      <trkpt lat="46.83667" lon="0.43091">
        <ele>164</ele>
        <time>2019-02-17T09:19:51.000Z</time>
      </trkpt>
      <trkpt lat="46.83671" lon="0.43094">
        <ele>164</ele>
        <time>2019-02-17T09:19:52.000Z</time>
      </trkpt>
      <trkpt lat="46.83674" lon="0.43097">
        <ele>164</ele>
        <time>2019-02-17T09:19:53.000Z</time>
      </trkpt>
      <trkpt lat="46.83679" lon="0.431">
        <ele>165</ele>
        <time>2019-02-17T09:19:54.000Z</time>
      </trkpt>
      <trkpt lat="46.83683" lon="0.43102">
        <ele>165</ele>
        <time>2019-02-17T09:19:55.000Z</time>
      </trkpt>
      <trkpt lat="46.83687" lon="0.43105">
        <ele>165</ele>
        <time>2019-02-17T09:19:56.000Z</time>
      </trkpt>
      <trkpt lat="46.8369" lon="0.43109">
        <ele>166</ele>
        <time>2019-02-17T09:19:57.000Z</time>
      </trkpt>
      <trkpt lat="46.83694" lon="0.43112">
        <ele>166</ele>
        <time>2019-02-17T09:19:58.000Z</time>
      </trkpt>
      <trkpt lat="46.83698" lon="0.43115">
        <ele>166</ele>
        <time>2019-02-17T09:19:59.000Z</time>
      </trkpt>
      <trkpt lat="46.83702" lon="0.43118">
        <ele>167</ele>
        <time>2019-02-17T09:20:00.000Z</time>
      </trkpt>
      <trkpt lat="46.83707" lon="0.43122">
        <ele>166</ele>
        <time>2019-02-17T09:20:01.000Z</time>
      </trkpt>
      <trkpt lat="46.83711" lon="0.43125">
        <ele>167</ele>
        <time>2019-02-17T09:20:02.000Z</time>
      </trkpt>
      <trkpt lat="46.83715" lon="0.43129">
        <ele>166</ele>
        <time>2019-02-17T09:20:03.000Z</time>
      </trkpt>
      <trkpt lat="46.83719" lon="0.43132">
        <ele>166</ele>
        <time>2019-02-17T09:20:04.000Z</time>
      </trkpt>
      <trkpt lat="46.83723" lon="0.43135">
        <ele>166</ele>
        <time>2019-02-17T09:20:05.000Z</time>
      </trkpt>
      <trkpt lat="46.83727" lon="0.43139">
        <ele>166</ele>
        <time>2019-02-17T09:20:06.000Z</time>
      </trkpt>
      <trkpt lat="46.83731" lon="0.43142">
        <ele>166</ele>
        <time>2019-02-17T09:20:07.000Z</time>
      </trkpt>
      <trkpt lat="46.83735" lon="0.43145">
        <ele>165</ele>
        <time>2019-02-17T09:20:08.000Z</time>
      </trkpt>
      <trkpt lat="46.83739" lon="0.43149">
        <ele>164</ele>
        <time>2019-02-17T09:20:09.000Z</time>
      </trkpt>
      <trkpt lat="46.83743" lon="0.43152">
        <ele>163</ele>
        <time>2019-02-17T09:20:10.000Z</time>
      </trkpt>
      <trkpt lat="46.83747" lon="0.43155">
        <ele>161</ele>
        <time>2019-02-17T09:20:11.000Z</time>
      </trkpt>
      <trkpt lat="46.83752" lon="0.43158">
        <ele>161</ele>
        <time>2019-02-17T09:20:12.000Z</time>
      </trkpt>
      <trkpt lat="46.83756" lon="0.43161">
        <ele>161</ele>
        <time>2019-02-17T09:20:13.000Z</time>
      </trkpt>
      <trkpt lat="46.8376" lon="0.43165">
        <ele>161</ele>
        <time>2019-02-17T09:20:14.000Z</time>
      </trkpt>
      <trkpt lat="46.83764" lon="0.43169">
        <ele>161</ele>
        <time>2019-02-17T09:20:15.000Z</time>
      </trkpt>
      <trkpt lat="46.83768" lon="0.43172">
        <ele>161</ele>
        <time>2019-02-17T09:20:16.000Z</time>
      </trkpt>
      <trkpt lat="46.83772" lon="0.43176">
        <ele>161</ele>
        <time>2019-02-17T09:20:17.000Z</time>
      </trkpt>
      <trkpt lat="46.83776" lon="0.43179">
        <ele>160</ele>
        <time>2019-02-17T09:20:18.000Z</time>
      </trkpt>
      <trkpt lat="46.8378" lon="0.43182">
        <ele>160</ele>
        <time>2019-02-17T09:20:19.000Z</time>
      </trkpt>
      <trkpt lat="46.83785" lon="0.43185">
        <ele>160</ele>
        <time>2019-02-17T09:20:20.000Z</time>
      </trkpt>
      <trkpt lat="46.83789" lon="0.43188">
        <ele>160</ele>
        <time>2019-02-17T09:20:21.000Z</time>
      </trkpt>
      <trkpt lat="46.83794" lon="0.43192">
        <ele>160</ele>
        <time>2019-02-17T09:20:22.000Z</time>
      </trkpt>
      <trkpt lat="46.83798" lon="0.43195">
        <ele>161</ele>
        <time>2019-02-17T09:20:23.000Z</time>
      </trkpt>
      <trkpt lat="46.83802" lon="0.43199">
        <ele>160</ele>
        <time>2019-02-17T09:20:24.000Z</time>
      </trkpt>
      <trkpt lat="46.83806" lon="0.43202">
        <ele>161</ele>
        <time>2019-02-17T09:20:25.000Z</time>
      </trkpt>
      <trkpt lat="46.8381" lon="0.43206">
        <ele>161</ele>
        <time>2019-02-17T09:20:26.000Z</time>
      </trkpt>
      <trkpt lat="46.83813" lon="0.43211">
        <ele>162</ele>
        <time>2019-02-17T09:20:27.000Z</time>
      </trkpt>
      <trkpt lat="46.83816" lon="0.43215">
        <ele>162</ele>
        <time>2019-02-17T09:20:28.000Z</time>
      </trkpt>
      <trkpt lat="46.8382" lon="0.4322">
        <ele>161</ele>
        <time>2019-02-17T09:20:29.000Z</time>
      </trkpt>
      <trkpt lat="46.83823" lon="0.43223">
        <ele>161</ele>
        <time>2019-02-17T09:20:30.000Z</time>
      </trkpt>
      <trkpt lat="46.83826" lon="0.43227">
        <ele>160</ele>
        <time>2019-02-17T09:20:31.000Z</time>
      </trkpt>
      <trkpt lat="46.83829" lon="0.43231">
        <ele>160</ele>
        <time>2019-02-17T09:20:32.000Z</time>
      </trkpt>
      <trkpt lat="46.83831" lon="0.43235">
        <ele>159</ele>
        <time>2019-02-17T09:20:33.000Z</time>
      </trkpt>
      <trkpt lat="46.83834" lon="0.4324">
        <ele>159</ele>
        <time>2019-02-17T09:20:34.000Z</time>
      </trkpt>
      <trkpt lat="46.83838" lon="0.43245">
        <ele>158</ele>
        <time>2019-02-17T09:20:35.000Z</time>
      </trkpt>
      <trkpt lat="46.83842" lon="0.43251">
        <ele>157</ele>
        <time>2019-02-17T09:20:36.000Z</time>
      </trkpt>
      <trkpt lat="46.83845" lon="0.43256">
        <ele>157</ele>
        <time>2019-02-17T09:20:37.000Z</time>
      </trkpt>
      <trkpt lat="46.83849" lon="0.43262">
        <ele>157</ele>
        <time>2019-02-17T09:20:38.000Z</time>
      </trkpt>
      <trkpt lat="46.83852" lon="0.43268">
        <ele>156</ele>
        <time>2019-02-17T09:20:39.000Z</time>
      </trkpt>
      <trkpt lat="46.83856" lon="0.43275">
        <ele>156</ele>
        <time>2019-02-17T09:20:40.000Z</time>
      </trkpt>
      <trkpt lat="46.83859" lon="0.43282">
        <ele>158</ele>
        <time>2019-02-17T09:20:41.000Z</time>
      </trkpt>
      <trkpt lat="46.83861" lon="0.43291">
        <ele>161</ele>
        <time>2019-02-17T09:20:42.000Z</time>
      </trkpt>
      <trkpt lat="46.83863" lon="0.43299">
        <ele>163</ele>
        <time>2019-02-17T09:20:43.000Z</time>
      </trkpt>
      <trkpt lat="46.83865" lon="0.43306">
        <ele>162</ele>
        <time>2019-02-17T09:20:44.000Z</time>
      </trkpt>
      <trkpt lat="46.83868" lon="0.43313">
        <ele>163</ele>
        <time>2019-02-17T09:20:45.000Z</time>
      </trkpt>
      <trkpt lat="46.83871" lon="0.43319">
        <ele>163</ele>
        <time>2019-02-17T09:20:46.000Z</time>
      </trkpt>
      <trkpt lat="46.83873" lon="0.43326">
        <ele>163</ele>
        <time>2019-02-17T09:20:47.000Z</time>
      </trkpt>
      <trkpt lat="46.83876" lon="0.43332">
        <ele>163</ele>
        <time>2019-02-17T09:20:48.000Z</time>
      </trkpt>
      <trkpt lat="46.83879" lon="0.43338">
        <ele>162</ele>
        <time>2019-02-17T09:20:49.000Z</time>
      </trkpt>
      <trkpt lat="46.83881" lon="0.43344">
        <ele>162</ele>
        <time>2019-02-17T09:20:50.000Z</time>
      </trkpt>
      <trkpt lat="46.83884" lon="0.4335">
        <ele>162</ele>
        <time>2019-02-17T09:20:51.000Z</time>
      </trkpt>
      <trkpt lat="46.83886" lon="0.43356">
        <ele>161</ele>
        <time>2019-02-17T09:20:52.000Z</time>
      </trkpt>
      <trkpt lat="46.83888" lon="0.43362">
        <ele>161</ele>
        <time>2019-02-17T09:20:53.000Z</time>
      </trkpt>
      <trkpt lat="46.83891" lon="0.43368">
        <ele>160</ele>
        <time>2019-02-17T09:20:54.000Z</time>
      </trkpt>
      <trkpt lat="46.83894" lon="0.43374">
        <ele>160</ele>
        <time>2019-02-17T09:20:55.000Z</time>
      </trkpt>
      <trkpt lat="46.83897" lon="0.43379">
        <ele>160</ele>
        <time>2019-02-17T09:20:56.000Z</time>
      </trkpt>
      <trkpt lat="46.839" lon="0.43385">
        <ele>160</ele>
        <time>2019-02-17T09:20:57.000Z</time>
      </trkpt>
      <trkpt lat="46.83903" lon="0.4339">
        <ele>158</ele>
        <time>2019-02-17T09:20:58.000Z</time>
      </trkpt>
      <trkpt lat="46.83906" lon="0.43395">
        <ele>158</ele>
        <time>2019-02-17T09:20:59.000Z</time>
      </trkpt>
      <trkpt lat="46.83909" lon="0.43401">
        <ele>157</ele>
        <time>2019-02-17T09:21:00.000Z</time>
      </trkpt>
      <trkpt lat="46.83913" lon="0.43406">
        <ele>156</ele>
        <time>2019-02-17T09:21:01.000Z</time>
      </trkpt>
      <trkpt lat="46.83916" lon="0.43412">
        <ele>157</ele>
        <time>2019-02-17T09:21:02.000Z</time>
      </trkpt>
      <trkpt lat="46.83919" lon="0.43418">
        <ele>157</ele>
        <time>2019-02-17T09:21:03.000Z</time>
      </trkpt>
      <trkpt lat="46.83923" lon="0.43424">
        <ele>159</ele>
        <time>2019-02-17T09:21:04.000Z</time>
      </trkpt>
      <trkpt lat="46.83927" lon="0.4343">
        <ele>159</ele>
        <time>2019-02-17T09:21:05.000Z</time>
      </trkpt>
      <trkpt lat="46.8393" lon="0.43436">
        <ele>159</ele>
        <time>2019-02-17T09:21:06.000Z</time>
      </trkpt>
      <trkpt lat="46.83933" lon="0.43442">
        <ele>159</ele>
        <time>2019-02-17T09:21:07.000Z</time>
      </trkpt>
      <trkpt lat="46.83937" lon="0.43448">
        <ele>159</ele>
        <time>2019-02-17T09:21:08.000Z</time>
      </trkpt>
      <trkpt lat="46.8394" lon="0.43454">
        <ele>159</ele>
        <time>2019-02-17T09:21:09.000Z</time>
      </trkpt>
      <trkpt lat="46.83943" lon="0.43459">
        <ele>159</ele>
        <time>2019-02-17T09:21:10.000Z</time>
      </trkpt>
      <trkpt lat="46.83946" lon="0.43465">
        <ele>159</ele>
        <time>2019-02-17T09:21:11.000Z</time>
      </trkpt>
      <trkpt lat="46.8395" lon="0.4347">
        <ele>159</ele>
        <time>2019-02-17T09:21:12.000Z</time>
      </trkpt>
      <trkpt lat="46.83953" lon="0.43476">
        <ele>159</ele>
        <time>2019-02-17T09:21:13.000Z</time>
      </trkpt>
      <trkpt lat="46.83957" lon="0.43481">
        <ele>159</ele>
        <time>2019-02-17T09:21:14.000Z</time>
      </trkpt>
      <trkpt lat="46.83961" lon="0.43486">
        <ele>160</ele>
        <time>2019-02-17T09:21:15.000Z</time>
      </trkpt>
      <trkpt lat="46.83965" lon="0.43491">
        <ele>161</ele>
        <time>2019-02-17T09:21:16.000Z</time>
      </trkpt>
      <trkpt lat="46.83969" lon="0.43496">
        <ele>161</ele>
        <time>2019-02-17T09:21:17.000Z</time>
      </trkpt>
      <trkpt lat="46.83974" lon="0.435">
        <ele>162</ele>
        <time>2019-02-17T09:21:18.000Z</time>
      </trkpt>
      <trkpt lat="46.83978" lon="0.43505">
        <ele>162</ele>
        <time>2019-02-17T09:21:19.000Z</time>
      </trkpt>
      <trkpt lat="46.83983" lon="0.4351">
        <ele>163</ele>
        <time>2019-02-17T09:21:20.000Z</time>
      </trkpt>
      <trkpt lat="46.83988" lon="0.43515">
        <ele>163</ele>
        <time>2019-02-17T09:21:21.000Z</time>
      </trkpt>
      <trkpt lat="46.83992" lon="0.4352">
        <ele>163</ele>
        <time>2019-02-17T09:21:22.000Z</time>
      </trkpt>
      <trkpt lat="46.83997" lon="0.43524">
        <ele>163</ele>
        <time>2019-02-17T09:21:23.000Z</time>
      </trkpt>
      <trkpt lat="46.84001" lon="0.43529">
        <ele>164</ele>
        <time>2019-02-17T09:21:24.000Z</time>
      </trkpt>
      <trkpt lat="46.84005" lon="0.43534">
        <ele>164</ele>
        <time>2019-02-17T09:21:25.000Z</time>
      </trkpt>
      <trkpt lat="46.84009" lon="0.43539">
        <ele>165</ele>
        <time>2019-02-17T09:21:26.000Z</time>
      </trkpt>
      <trkpt lat="46.84013" lon="0.43543">
        <ele>165</ele>
        <time>2019-02-17T09:21:27.000Z</time>
      </trkpt>
      <trkpt lat="46.84017" lon="0.43548">
        <ele>166</ele>
        <time>2019-02-17T09:21:28.000Z</time>
      </trkpt>
      <trkpt lat="46.84022" lon="0.43553">
        <ele>166</ele>
        <time>2019-02-17T09:21:29.000Z</time>
      </trkpt>
      <trkpt lat="46.84026" lon="0.43558">
        <ele>167</ele>
        <time>2019-02-17T09:21:30.000Z</time>
      </trkpt>
      <trkpt lat="46.84029" lon="0.43563">
        <ele>166</ele>
        <time>2019-02-17T09:21:31.000Z</time>
      </trkpt>
      <trkpt lat="46.84033" lon="0.43567">
        <ele>166</ele>
        <time>2019-02-17T09:21:32.000Z</time>
      </trkpt>
      <trkpt lat="46.84037" lon="0.43572">
        <ele>165</ele>
        <time>2019-02-17T09:21:33.000Z</time>
      </trkpt>
      <trkpt lat="46.84041" lon="0.43577">
        <ele>166</ele>
        <time>2019-02-17T09:21:34.000Z</time>
      </trkpt>
      <trkpt lat="46.84046" lon="0.43581">
        <ele>165</ele>
        <time>2019-02-17T09:21:35.000Z</time>
      </trkpt>
      <trkpt lat="46.8405" lon="0.43585">
        <ele>166</ele>
        <time>2019-02-17T09:21:36.000Z</time>
      </trkpt>
      <trkpt lat="46.84055" lon="0.43589">
        <ele>166</ele>
        <time>2019-02-17T09:21:37.000Z</time>
      </trkpt>
      <trkpt lat="46.84059" lon="0.43593">
        <ele>166</ele>
        <time>2019-02-17T09:21:38.000Z</time>
      </trkpt>
      <trkpt lat="46.84063" lon="0.43597">
        <ele>166</ele>
        <time>2019-02-17T09:21:39.000Z</time>
      </trkpt>
      <trkpt lat="46.84067" lon="0.43601">
        <ele>166</ele>
        <time>2019-02-17T09:21:40.000Z</time>
      </trkpt>
      <trkpt lat="46.84071" lon="0.43605">
        <ele>166</ele>
        <time>2019-02-17T09:21:41.000Z</time>
      </trkpt>
      <trkpt lat="46.84074" lon="0.43609">
        <ele>166</ele>
        <time>2019-02-17T09:21:42.000Z</time>
      </trkpt>
      <trkpt lat="46.84078" lon="0.43612">
        <ele>166</ele>
        <time>2019-02-17T09:21:43.000Z</time>
      </trkpt>
      <trkpt lat="46.84082" lon="0.43616">
        <ele>166</ele>
        <time>2019-02-17T09:21:44.000Z</time>
      </trkpt>
      <trkpt lat="46.84085" lon="0.43621">
        <ele>165</ele>
        <time>2019-02-17T09:21:45.000Z</time>
      </trkpt>
      <trkpt lat="46.84088" lon="0.43626">
        <ele>166</ele>
        <time>2019-02-17T09:21:46.000Z</time>
      </trkpt>
      <trkpt lat="46.84091" lon="0.4363">
        <ele>167</ele>
        <time>2019-02-17T09:21:47.000Z</time>
      </trkpt>
      <trkpt lat="46.84095" lon="0.43634">
        <ele>167</ele>
        <time>2019-02-17T09:21:48.000Z</time>
      </trkpt>
      <trkpt lat="46.84099" lon="0.43638">
        <ele>167</ele>
        <time>2019-02-17T09:21:49.000Z</time>
      </trkpt>
      <trkpt lat="46.84103" lon="0.43642">
        <ele>168</ele>
        <time>2019-02-17T09:21:50.000Z</time>
      </trkpt>
      <trkpt lat="46.84107" lon="0.43647">
        <ele>168</ele>
        <time>2019-02-17T09:21:51.000Z</time>
      </trkpt>
      <trkpt lat="46.8411" lon="0.43651">
        <ele>168</ele>
        <time>2019-02-17T09:21:52.000Z</time>
      </trkpt>
      <trkpt lat="46.84114" lon="0.43654">
        <ele>168</ele>
        <time>2019-02-17T09:21:53.000Z</time>
      </trkpt>
      <trkpt lat="46.84117" lon="0.43658">
        <ele>167</ele>
        <time>2019-02-17T09:21:54.000Z</time>
      </trkpt>
      <trkpt lat="46.84121" lon="0.43662">
        <ele>166</ele>
        <time>2019-02-17T09:21:55.000Z</time>
      </trkpt>
      <trkpt lat="46.84125" lon="0.43666">
        <ele>166</ele>
        <time>2019-02-17T09:21:56.000Z</time>
      </trkpt>
      <trkpt lat="46.84128" lon="0.43671">
        <ele>166</ele>
        <time>2019-02-17T09:21:57.000Z</time>
      </trkpt>
      <trkpt lat="46.84132" lon="0.43675">
        <ele>166</ele>
        <time>2019-02-17T09:21:58.000Z</time>
      </trkpt>
      <trkpt lat="46.84135" lon="0.4368">
        <ele>166</ele>
        <time>2019-02-17T09:21:59.000Z</time>
      </trkpt>
      <trkpt lat="46.84138" lon="0.43685">
        <ele>167</ele>
        <time>2019-02-17T09:22:00.000Z</time>
      </trkpt>
      <trkpt lat="46.84141" lon="0.43689">
        <ele>167</ele>
        <time>2019-02-17T09:22:01.000Z</time>
      </trkpt>
      <trkpt lat="46.84144" lon="0.43694">
        <ele>167</ele>
        <time>2019-02-17T09:22:02.000Z</time>
      </trkpt>
      <trkpt lat="46.84148" lon="0.43698">
        <ele>168</ele>
        <time>2019-02-17T09:22:03.000Z</time>
      </trkpt>
      <trkpt lat="46.84151" lon="0.43702">
        <ele>168</ele>
        <time>2019-02-17T09:22:04.000Z</time>
      </trkpt>
      <trkpt lat="46.84155" lon="0.43706">
        <ele>168</ele>
        <time>2019-02-17T09:22:05.000Z</time>
      </trkpt>
      <trkpt lat="46.84159" lon="0.4371">
        <ele>168</ele>
        <time>2019-02-17T09:22:06.000Z</time>
      </trkpt>
      <trkpt lat="46.84163" lon="0.43714">
        <ele>167</ele>
        <time>2019-02-17T09:22:07.000Z</time>
      </trkpt>
      <trkpt lat="46.84166" lon="0.43717">
        <ele>166</ele>
        <time>2019-02-17T09:22:08.000Z</time>
      </trkpt>
      <trkpt lat="46.84169" lon="0.4372">
        <ele>166</ele>
        <time>2019-02-17T09:22:09.000Z</time>
      </trkpt>
      <trkpt lat="46.84171" lon="0.43723">
        <ele>166</ele>
        <time>2019-02-17T09:22:10.000Z</time>
      </trkpt>
      <trkpt lat="46.84173" lon="0.43726">
        <ele>166</ele>
        <time>2019-02-17T09:22:11.000Z</time>
      </trkpt>
      <trkpt lat="46.84176" lon="0.43729">
        <ele>166</ele>
        <time>2019-02-17T09:22:12.000Z</time>
      </trkpt>
      <trkpt lat="46.84177" lon="0.43732">
        <ele>166</ele>
        <time>2019-02-17T09:22:13.000Z</time>
      </trkpt>
      <trkpt lat="46.84179" lon="0.43735">
        <ele>166</ele>
        <time>2019-02-17T09:22:14.000Z</time>
      </trkpt>
      <trkpt lat="46.8418" lon="0.43737">
        <ele>166</ele>
        <time>2019-02-17T09:22:15.000Z</time>
      </trkpt>
      <trkpt lat="46.84182" lon="0.43739">
        <ele>166</ele>
        <time>2019-02-17T09:22:16.000Z</time>
      </trkpt>
      <trkpt lat="46.84183" lon="0.43741">
        <ele>166</ele>
        <time>2019-02-17T09:22:17.000Z</time>
      </trkpt>
      <trkpt lat="46.84185" lon="0.43742">
        <ele>165</ele>
        <time>2019-02-17T09:22:18.000Z</time>
      </trkpt>
      <trkpt lat="46.84185" lon="0.43743">
        <ele>165</ele>
        <time>2019-02-17T09:22:19.000Z</time>
      </trkpt>
      <trkpt lat="46.84186" lon="0.43743">
        <ele>165</ele>
        <time>2019-02-17T09:22:20.000Z</time>
      </trkpt>
      <trkpt lat="46.84186" lon="0.43743">
        <ele>166</ele>
        <time>2019-02-17T09:22:21.000Z</time>
      </trkpt>
      <trkpt lat="46.84186" lon="0.43743">
        <ele>165</ele>
        <time>2019-02-17T09:22:22.000Z</time>
      </trkpt>
      <trkpt lat="46.84185" lon="0.43743">
        <ele>165</ele>
        <time>2019-02-17T09:22:23.000Z</time>
      </trkpt>
      <trkpt lat="46.84185" lon="0.43743">
        <ele>165</ele>
        <time>2019-02-17T09:22:24.000Z</time>
      </trkpt>
      <trkpt lat="46.84186" lon="0.43742">
        <ele>165</ele>
        <time>2019-02-17T09:22:25.000Z</time>
      </trkpt>
      <trkpt lat="46.84185" lon="0.43742">
        <ele>165</ele>
        <time>2019-02-17T09:22:26.000Z</time>
      </trkpt>
      <trkpt lat="46.84185" lon="0.43743">
        <ele>165</ele>
        <time>2019-02-17T09:22:27.000Z</time>
      </trkpt>
      <trkpt lat="46.84185" lon="0.43743">
        <ele>165</ele>
        <time>2019-02-17T09:22:28.000Z</time>
      </trkpt>
      <trkpt lat="46.84185" lon="0.43743">
        <ele>165</ele>
        <time>2019-02-17T09:22:29.000Z</time>
      </trkpt>
      <trkpt lat="46.84185" lon="0.43743">
        <ele>165</ele>
        <time>2019-02-17T09:22:30.000Z</time>
      </trkpt>
      <trkpt lat="46.84185" lon="0.43743">
        <ele>166</ele>
        <time>2019-02-17T09:22:31.000Z</time>
      </trkpt>
      <trkpt lat="46.84185" lon="0.43743">
        <ele>166</ele>
        <time>2019-02-17T09:22:32.000Z</time>
      </trkpt>
      <trkpt lat="46.84185" lon="0.43743">
        <ele>165</ele>
        <time>2019-02-17T09:22:33.000Z</time>
      </trkpt>
      <trkpt lat="46.84185" lon="0.43743">
        <ele>165</ele>
        <time>2019-02-17T09:22:34.000Z</time>
      </trkpt>
      <trkpt lat="46.84185" lon="0.43743">
        <ele>165</ele>
        <time>2019-02-17T09:22:35.000Z</time>
      </trkpt>
      <trkpt lat="46.84185" lon="0.43743">
        <ele>165</ele>
        <time>2019-02-17T09:22:36.000Z</time>
      </trkpt>
      <trkpt lat="46.84185" lon="0.43743">
        <ele>164</ele>
        <time>2019-02-17T09:22:37.000Z</time>
      </trkpt>
      <trkpt lat="46.84185" lon="0.43743">
        <ele>165</ele>
        <time>2019-02-17T09:22:38.000Z</time>
      </trkpt>
      <trkpt lat="46.84185" lon="0.43743">
        <ele>164</ele>
        <time>2019-02-17T09:22:39.000Z</time>
      </trkpt>
      <trkpt lat="46.84185" lon="0.43743">
        <ele>165</ele>
        <time>2019-02-17T09:22:40.000Z</time>
      </trkpt>
      <trkpt lat="46.84185" lon="0.43743">
        <ele>165</ele>
        <time>2019-02-17T09:22:41.000Z</time>
      </trkpt>
      <trkpt lat="46.84185" lon="0.43743">
        <ele>165</ele>
        <time>2019-02-17T09:22:42.000Z</time>
      </trkpt>
      <trkpt lat="46.84185" lon="0.43743">
        <ele>165</ele>
        <time>2019-02-17T09:22:43.000Z</time>
      </trkpt>
      <trkpt lat="46.84185" lon="0.43743">
        <ele>165</ele>
        <time>2019-02-17T09:22:44.000Z</time>
      </trkpt>
      <trkpt lat="46.84185" lon="0.43743">
        <ele>165</ele>
        <time>2019-02-17T09:22:45.000Z</time>
      </trkpt>
      <trkpt lat="46.84185" lon="0.43743">
        <ele>165</ele>
        <time>2019-02-17T09:22:46.000Z</time>
      </trkpt>
      <trkpt lat="46.84185" lon="0.43743">
        <ele>165</ele>
        <time>2019-02-17T09:22:47.000Z</time>
      </trkpt>
      <trkpt lat="46.84185" lon="0.43743">
        <ele>165</ele>
        <time>2019-02-17T09:22:48.000Z</time>
      </trkpt>
      <trkpt lat="46.84185" lon="0.43743">
        <ele>165</ele>
        <time>2019-02-17T09:22:49.000Z</time>
      </trkpt>
      <trkpt lat="46.84185" lon="0.43743">
        <ele>165</ele>
        <time>2019-02-17T09:22:50.000Z</time>
      </trkpt>
      <trkpt lat="46.84185" lon="0.43743">
        <ele>165</ele>
        <time>2019-02-17T09:22:51.000Z</time>
      </trkpt>
      <trkpt lat="46.84185" lon="0.43743">
        <ele>165</ele>
        <time>2019-02-17T09:22:52.000Z</time>
      </trkpt>
      <trkpt lat="46.84185" lon="0.43743">
        <ele>165</ele>
        <time>2019-02-17T09:22:53.000Z</time>
      </trkpt>
      <trkpt lat="46.84185" lon="0.43743">
        <ele>165</ele>
        <time>2019-02-17T09:22:54.000Z</time>
      </trkpt>
      <trkpt lat="46.84185" lon="0.43743">
        <ele>165</ele>
        <time>2019-02-17T09:22:55.000Z</time>
      </trkpt>
      <trkpt lat="46.84185" lon="0.43742">
        <ele>165</ele>
        <time>2019-02-17T09:22:56.000Z</time>
      </trkpt>
      <trkpt lat="46.84185" lon="0.43742">
        <ele>165</ele>
        <time>2019-02-17T09:22:57.000Z</time>
      </trkpt>
      <trkpt lat="46.84185" lon="0.43742">
        <ele>165</ele>
        <time>2019-02-17T09:22:58.000Z</time>
      </trkpt>
      <trkpt lat="46.84185" lon="0.43742">
        <ele>165</ele>
        <time>2019-02-17T09:22:59.000Z</time>
      </trkpt>
      <trkpt lat="46.84185" lon="0.43742">
        <ele>165</ele>
        <time>2019-02-17T09:23:00.000Z</time>
      </trkpt>
      <trkpt lat="46.84185" lon="0.43742">
        <ele>165</ele>
        <time>2019-02-17T09:23:01.000Z</time>
      </trkpt>
      <trkpt lat="46.84185" lon="0.43742">
        <ele>165</ele>
        <time>2019-02-17T09:23:02.000Z</time>
      </trkpt>
      <trkpt lat="46.84185" lon="0.43742">
        <ele>165</ele>
        <time>2019-02-17T09:23:03.000Z</time>
      </trkpt>
      <trkpt lat="46.84186" lon="0.43742">
        <ele>165</ele>
        <time>2019-02-17T09:23:04.000Z</time>
      </trkpt>
      <trkpt lat="46.84186" lon="0.43742">
        <ele>165</ele>
        <time>2019-02-17T09:23:05.000Z</time>
      </trkpt>
      <trkpt lat="46.84186" lon="0.43742">
        <ele>165</ele>
        <time>2019-02-17T09:23:06.000Z</time>
      </trkpt>
      <trkpt lat="46.84186" lon="0.43742">
        <ele>165</ele>
        <time>2019-02-17T09:23:07.000Z</time>
      </trkpt>
      <trkpt lat="46.84186" lon="0.43742">
        <ele>164</ele>
        <time>2019-02-17T09:23:08.000Z</time>
      </trkpt>
      <trkpt lat="46.84186" lon="0.43742">
        <ele>164</ele>
        <time>2019-02-17T09:23:09.000Z</time>
      </trkpt>
      <trkpt lat="46.84186" lon="0.43742">
        <ele>164</ele>
        <time>2019-02-17T09:23:10.000Z</time>
      </trkpt>
      <trkpt lat="46.84186" lon="0.43742">
        <ele>164</ele>
        <time>2019-02-17T09:23:11.000Z</time>
      </trkpt>
      <trkpt lat="46.84186" lon="0.43742">
        <ele>164</ele>
        <time>2019-02-17T09:23:12.000Z</time>
      </trkpt>
      <trkpt lat="46.84186" lon="0.43742">
        <ele>164</ele>
        <time>2019-02-17T09:23:13.000Z</time>
      </trkpt>
      <trkpt lat="46.84186" lon="0.43742">
        <ele>164</ele>
        <time>2019-02-17T09:23:14.000Z</time>
      </trkpt>
      <trkpt lat="46.84186" lon="0.43743">
        <ele>164</ele>
        <time>2019-02-17T09:23:15.000Z</time>
      </trkpt>
      <trkpt lat="46.84186" lon="0.43743">
        <ele>164</ele>
        <time>2019-02-17T09:23:16.000Z</time>
      </trkpt>
      <trkpt lat="46.84186" lon="0.43743">
        <ele>164</ele>
        <time>2019-02-17T09:23:17.000Z</time>
      </trkpt>
      <trkpt lat="46.84185" lon="0.43743">
        <ele>165</ele>
        <time>2019-02-17T09:23:18.000Z</time>
      </trkpt>
      <trkpt lat="46.84185" lon="0.43743">
        <ele>165</ele>
        <time>2019-02-17T09:23:19.000Z</time>
      </trkpt>
      <trkpt lat="46.84185" lon="0.43743">
        <ele>165</ele>
        <time>2019-02-17T09:23:20.000Z</time>
      </trkpt>
      <trkpt lat="46.84185" lon="0.43743">
        <ele>165</ele>
        <time>2019-02-17T09:23:21.000Z</time>
      </trkpt>
      <trkpt lat="46.84186" lon="0.43743">
        <ele>165</ele>
        <time>2019-02-17T09:23:22.000Z</time>
      </trkpt>
      <trkpt lat="46.84187" lon="0.43745">
        <ele>165</ele>
        <time>2019-02-17T09:23:23.000Z</time>
      </trkpt>
      <trkpt lat="46.84188" lon="0.43747">
        <ele>165</ele>
        <time>2019-02-17T09:23:24.000Z</time>
      </trkpt>
      <trkpt lat="46.8419" lon="0.4375">
        <ele>166</ele>
        <time>2019-02-17T09:23:25.000Z</time>
      </trkpt>
      <trkpt lat="46.84193" lon="0.43753">
        <ele>165</ele>
        <time>2019-02-17T09:23:26.000Z</time>
      </trkpt>
      <trkpt lat="46.84195" lon="0.43757">
        <ele>165</ele>
        <time>2019-02-17T09:23:27.000Z</time>
      </trkpt>
      <trkpt lat="46.84198" lon="0.43762">
        <ele>165</ele>
        <time>2019-02-17T09:23:28.000Z</time>
      </trkpt>
      <trkpt lat="46.84201" lon="0.43767">
        <ele>165</ele>
        <time>2019-02-17T09:23:29.000Z</time>
      </trkpt>
      <trkpt lat="46.84204" lon="0.43772">
        <ele>166</ele>
        <time>2019-02-17T09:23:30.000Z</time>
      </trkpt>
      <trkpt lat="46.84208" lon="0.43777">
        <ele>165</ele>
        <time>2019-02-17T09:23:31.000Z</time>
      </trkpt>
      <trkpt lat="46.84211" lon="0.43783">
        <ele>165</ele>
        <time>2019-02-17T09:23:32.000Z</time>
      </trkpt>
      <trkpt lat="46.84215" lon="0.43788">
        <ele>165</ele>
        <time>2019-02-17T09:23:33.000Z</time>
      </trkpt>
      <trkpt lat="46.84219" lon="0.43794">
        <ele>165</ele>
        <time>2019-02-17T09:23:34.000Z</time>
      </trkpt>
      <trkpt lat="46.84223" lon="0.43799">
        <ele>165</ele>
        <time>2019-02-17T09:23:35.000Z</time>
      </trkpt>
      <trkpt lat="46.84226" lon="0.43805">
        <ele>165</ele>
        <time>2019-02-17T09:23:36.000Z</time>
      </trkpt>
      <trkpt lat="46.8423" lon="0.43811">
        <ele>165</ele>
        <time>2019-02-17T09:23:37.000Z</time>
      </trkpt>
      <trkpt lat="46.84233" lon="0.43816">
        <ele>165</ele>
        <time>2019-02-17T09:23:38.000Z</time>
      </trkpt>
      <trkpt lat="46.84237" lon="0.43822">
        <ele>165</ele>
        <time>2019-02-17T09:23:39.000Z</time>
      </trkpt>
      <trkpt lat="46.84241" lon="0.43828">
        <ele>165</ele>
        <time>2019-02-17T09:23:40.000Z</time>
      </trkpt>
      <trkpt lat="46.84245" lon="0.43834">
        <ele>165</ele>
        <time>2019-02-17T09:23:41.000Z</time>
      </trkpt>
      <trkpt lat="46.84249" lon="0.43839">
        <ele>165</ele>
        <time>2019-02-17T09:23:42.000Z</time>
      </trkpt>
      <trkpt lat="46.84253" lon="0.43845">
        <ele>165</ele>
        <time>2019-02-17T09:23:43.000Z</time>
      </trkpt>
      <trkpt lat="46.84257" lon="0.43851">
        <ele>164</ele>
        <time>2019-02-17T09:23:44.000Z</time>
      </trkpt>
      <trkpt lat="46.84261" lon="0.43856">
        <ele>164</ele>
        <time>2019-02-17T09:23:45.000Z</time>
      </trkpt>
      <trkpt lat="46.84265" lon="0.43862">
        <ele>164</ele>
        <time>2019-02-17T09:23:46.000Z</time>
      </trkpt>
      <trkpt lat="46.84269" lon="0.43868">
        <ele>164</ele>
        <time>2019-02-17T09:23:47.000Z</time>
      </trkpt>
      <trkpt lat="46.84273" lon="0.43874">
        <ele>164</ele>
        <time>2019-02-17T09:23:48.000Z</time>
      </trkpt>
      <trkpt lat="46.84277" lon="0.4388">
        <ele>164</ele>
        <time>2019-02-17T09:23:49.000Z</time>
      </trkpt>
      <trkpt lat="46.8428" lon="0.43886">
        <ele>164</ele>
        <time>2019-02-17T09:23:50.000Z</time>
      </trkpt>
      <trkpt lat="46.84284" lon="0.43891">
        <ele>164</ele>
        <time>2019-02-17T09:23:51.000Z</time>
      </trkpt>
      <trkpt lat="46.84288" lon="0.43897">
        <ele>164</ele>
        <time>2019-02-17T09:23:52.000Z</time>
      </trkpt>
      <trkpt lat="46.84292" lon="0.43902">
        <ele>164</ele>
        <time>2019-02-17T09:23:53.000Z</time>
      </trkpt>
      <trkpt lat="46.84296" lon="0.43908">
        <ele>163</ele>
        <time>2019-02-17T09:23:54.000Z</time>
      </trkpt>
      <trkpt lat="46.843" lon="0.43913">
        <ele>163</ele>
        <time>2019-02-17T09:23:55.000Z</time>
      </trkpt>
      <trkpt lat="46.84304" lon="0.43919">
        <ele>163</ele>
        <time>2019-02-17T09:23:56.000Z</time>
      </trkpt>
      <trkpt lat="46.84307" lon="0.43924">
        <ele>163</ele>
        <time>2019-02-17T09:23:57.000Z</time>
      </trkpt>
      <trkpt lat="46.84311" lon="0.43929">
        <ele>162</ele>
        <time>2019-02-17T09:23:58.000Z</time>
      </trkpt>
      <trkpt lat="46.84314" lon="0.43934">
        <ele>162</ele>
        <time>2019-02-17T09:23:59.000Z</time>
      </trkpt>
      <trkpt lat="46.84316" lon="0.43939">
        <ele>162</ele>
        <time>2019-02-17T09:24:00.000Z</time>
      </trkpt>
      <trkpt lat="46.84318" lon="0.43945">
        <ele>162</ele>
        <time>2019-02-17T09:24:01.000Z</time>
      </trkpt>
      <trkpt lat="46.84319" lon="0.43951">
        <ele>162</ele>
        <time>2019-02-17T09:24:02.000Z</time>
      </trkpt>
      <trkpt lat="46.84321" lon="0.43957">
        <ele>162</ele>
        <time>2019-02-17T09:24:03.000Z</time>
      </trkpt>
      <trkpt lat="46.84324" lon="0.43964">
        <ele>162</ele>
        <time>2019-02-17T09:24:04.000Z</time>
      </trkpt>
      <trkpt lat="46.84327" lon="0.4397">
        <ele>162</ele>
        <time>2019-02-17T09:24:05.000Z</time>
      </trkpt>
      <trkpt lat="46.84331" lon="0.43975">
        <ele>162</ele>
        <time>2019-02-17T09:24:06.000Z</time>
      </trkpt>
      <trkpt lat="46.84334" lon="0.43981">
        <ele>162</ele>
        <time>2019-02-17T09:24:07.000Z</time>
      </trkpt>
      <trkpt lat="46.84338" lon="0.43988">
        <ele>162</ele>
        <time>2019-02-17T09:24:08.000Z</time>
      </trkpt>
      <trkpt lat="46.84342" lon="0.43994">
        <ele>162</ele>
        <time>2019-02-17T09:24:09.000Z</time>
      </trkpt>
      <trkpt lat="46.84345" lon="0.44">
        <ele>162</ele>
        <time>2019-02-17T09:24:10.000Z</time>
      </trkpt>
      <trkpt lat="46.84349" lon="0.44007">
        <ele>162</ele>
        <time>2019-02-17T09:24:11.000Z</time>
      </trkpt>
      <trkpt lat="46.84353" lon="0.44013">
        <ele>161</ele>
        <time>2019-02-17T09:24:12.000Z</time>
      </trkpt>
      <trkpt lat="46.84357" lon="0.4402">
        <ele>161</ele>
        <time>2019-02-17T09:24:13.000Z</time>
      </trkpt>
      <trkpt lat="46.84361" lon="0.44026">
        <ele>162</ele>
        <time>2019-02-17T09:24:14.000Z</time>
      </trkpt>
      <trkpt lat="46.84364" lon="0.44033">
        <ele>161</ele>
        <time>2019-02-17T09:24:15.000Z</time>
      </trkpt>
      <trkpt lat="46.84368" lon="0.44039">
        <ele>161</ele>
        <time>2019-02-17T09:24:16.000Z</time>
      </trkpt>
      <trkpt lat="46.84372" lon="0.44045">
        <ele>161</ele>
        <time>2019-02-17T09:24:17.000Z</time>
      </trkpt>
      <trkpt lat="46.84376" lon="0.44052">
        <ele>161</ele>
        <time>2019-02-17T09:24:18.000Z</time>
      </trkpt>
      <trkpt lat="46.8438" lon="0.44059">
        <ele>161</ele>
        <time>2019-02-17T09:24:19.000Z</time>
      </trkpt>
      <trkpt lat="46.84384" lon="0.44066">
        <ele>161</ele>
        <time>2019-02-17T09:24:20.000Z</time>
      </trkpt>
      <trkpt lat="46.84388" lon="0.44074">
        <ele>160</ele>
        <time>2019-02-17T09:24:21.000Z</time>
      </trkpt>
      <trkpt lat="46.84393" lon="0.44081">
        <ele>160</ele>
        <time>2019-02-17T09:24:22.000Z</time>
      </trkpt>
      <trkpt lat="46.84397" lon="0.44089">
        <ele>160</ele>
        <time>2019-02-17T09:24:23.000Z</time>
      </trkpt>
      <trkpt lat="46.84401" lon="0.44096">
        <ele>160</ele>
        <time>2019-02-17T09:24:24.000Z</time>
      </trkpt>
      <trkpt lat="46.84405" lon="0.44104">
        <ele>160</ele>
        <time>2019-02-17T09:24:25.000Z</time>
      </trkpt>
      <trkpt lat="46.84409" lon="0.44112">
        <ele>159</ele>
        <time>2019-02-17T09:24:26.000Z</time>
      </trkpt>
      <trkpt lat="46.84413" lon="0.44119">
        <ele>159</ele>
        <time>2019-02-17T09:24:27.000Z</time>
      </trkpt>
      <trkpt lat="46.84417" lon="0.44127">
        <ele>159</ele>
        <time>2019-02-17T09:24:28.000Z</time>
      </trkpt>
      <trkpt lat="46.84421" lon="0.44135">
        <ele>159</ele>
        <time>2019-02-17T09:24:29.000Z</time>
      </trkpt>
      <trkpt lat="46.84426" lon="0.44143">
        <ele>158</ele>
        <time>2019-02-17T09:24:30.000Z</time>
      </trkpt>
      <trkpt lat="46.8443" lon="0.44151">
        <ele>158</ele>
        <time>2019-02-17T09:24:31.000Z</time>
      </trkpt>
      <trkpt lat="46.84434" lon="0.44159">
        <ele>158</ele>
        <time>2019-02-17T09:24:32.000Z</time>
      </trkpt>
      <trkpt lat="46.84438" lon="0.44167">
        <ele>158</ele>
        <time>2019-02-17T09:24:33.000Z</time>
      </trkpt>
      <trkpt lat="46.84442" lon="0.44174">
        <ele>158</ele>
        <time>2019-02-17T09:24:34.000Z</time>
      </trkpt>
      <trkpt lat="46.84446" lon="0.44182">
        <ele>158</ele>
        <time>2019-02-17T09:24:35.000Z</time>
      </trkpt>
      <trkpt lat="46.84451" lon="0.4419">
        <ele>158</ele>
        <time>2019-02-17T09:24:36.000Z</time>
      </trkpt>
      <trkpt lat="46.84454" lon="0.44197">
        <ele>158</ele>
        <time>2019-02-17T09:24:37.000Z</time>
      </trkpt>
      <trkpt lat="46.84458" lon="0.44205">
        <ele>158</ele>
        <time>2019-02-17T09:24:38.000Z</time>
      </trkpt>
      <trkpt lat="46.84462" lon="0.44212">
        <ele>158</ele>
        <time>2019-02-17T09:24:39.000Z</time>
      </trkpt>
      <trkpt lat="46.84466" lon="0.44219">
        <ele>158</ele>
        <time>2019-02-17T09:24:40.000Z</time>
      </trkpt>
      <trkpt lat="46.8447" lon="0.44226">
        <ele>158</ele>
        <time>2019-02-17T09:24:41.000Z</time>
      </trkpt>
      <trkpt lat="46.84474" lon="0.44233">
        <ele>158</ele>
        <time>2019-02-17T09:24:42.000Z</time>
      </trkpt>
      <trkpt lat="46.84477" lon="0.4424">
        <ele>158</ele>
        <time>2019-02-17T09:24:43.000Z</time>
      </trkpt>
      <trkpt lat="46.84481" lon="0.44246">
        <ele>159</ele>
        <time>2019-02-17T09:24:44.000Z</time>
      </trkpt>
      <trkpt lat="46.84484" lon="0.44253">
        <ele>159</ele>
        <time>2019-02-17T09:24:45.000Z</time>
      </trkpt>
      <trkpt lat="46.84488" lon="0.44259">
        <ele>159</ele>
        <time>2019-02-17T09:24:46.000Z</time>
      </trkpt>
      <trkpt lat="46.84491" lon="0.44266">
        <ele>159</ele>
        <time>2019-02-17T09:24:47.000Z</time>
      </trkpt>
      <trkpt lat="46.84494" lon="0.44272">
        <ele>159</ele>
        <time>2019-02-17T09:24:48.000Z</time>
      </trkpt>
      <trkpt lat="46.84497" lon="0.44278">
        <ele>159</ele>
        <time>2019-02-17T09:24:49.000Z</time>
      </trkpt>
      <trkpt lat="46.84501" lon="0.44284">
        <ele>160</ele>
        <time>2019-02-17T09:24:50.000Z</time>
      </trkpt>
      <trkpt lat="46.84504" lon="0.44291">
        <ele>160</ele>
        <time>2019-02-17T09:24:51.000Z</time>
      </trkpt>
      <trkpt lat="46.84507" lon="0.44297">
        <ele>160</ele>
        <time>2019-02-17T09:24:52.000Z</time>
      </trkpt>
      <trkpt lat="46.8451" lon="0.44303">
        <ele>160</ele>
        <time>2019-02-17T09:24:53.000Z</time>
      </trkpt>
      <trkpt lat="46.84513" lon="0.4431">
        <ele>160</ele>
        <time>2019-02-17T09:24:54.000Z</time>
      </trkpt>
      <trkpt lat="46.84517" lon="0.44316">
        <ele>160</ele>
        <time>2019-02-17T09:24:55.000Z</time>
      </trkpt>
      <trkpt lat="46.8452" lon="0.44322">
        <ele>160</ele>
        <time>2019-02-17T09:24:56.000Z</time>
      </trkpt>
      <trkpt lat="46.84524" lon="0.44328">
        <ele>160</ele>
        <time>2019-02-17T09:24:57.000Z</time>
      </trkpt>
      <trkpt lat="46.84527" lon="0.44335">
        <ele>160</ele>
        <time>2019-02-17T09:24:58.000Z</time>
      </trkpt>
      <trkpt lat="46.84531" lon="0.44341">
        <ele>161</ele>
        <time>2019-02-17T09:24:59.000Z</time>
      </trkpt>
      <trkpt lat="46.84534" lon="0.44347">
        <ele>161</ele>
        <time>2019-02-17T09:25:00.000Z</time>
      </trkpt>
      <trkpt lat="46.84538" lon="0.44354">
        <ele>161</ele>
        <time>2019-02-17T09:25:01.000Z</time>
      </trkpt>
      <trkpt lat="46.84541" lon="0.4436">
        <ele>161</ele>
        <time>2019-02-17T09:25:02.000Z</time>
      </trkpt>
      <trkpt lat="46.84544" lon="0.44367">
        <ele>161</ele>
        <time>2019-02-17T09:25:03.000Z</time>
      </trkpt>
      <trkpt lat="46.84548" lon="0.44373">
        <ele>161</ele>
        <time>2019-02-17T09:25:04.000Z</time>
      </trkpt>
      <trkpt lat="46.84551" lon="0.44379">
        <ele>161</ele>
        <time>2019-02-17T09:25:05.000Z</time>
      </trkpt>
      <trkpt lat="46.84555" lon="0.44386">
        <ele>161</ele>
        <time>2019-02-17T09:25:06.000Z</time>
      </trkpt>
      <trkpt lat="46.84558" lon="0.44393">
        <ele>162</ele>
        <time>2019-02-17T09:25:07.000Z</time>
      </trkpt>
      <trkpt lat="46.84561" lon="0.444">
        <ele>161</ele>
        <time>2019-02-17T09:25:08.000Z</time>
      </trkpt>
      <trkpt lat="46.84564" lon="0.44408">
        <ele>162</ele>
        <time>2019-02-17T09:25:09.000Z</time>
      </trkpt>
      <trkpt lat="46.84567" lon="0.44415">
        <ele>162</ele>
        <time>2019-02-17T09:25:10.000Z</time>
      </trkpt>
      <trkpt lat="46.84569" lon="0.44422">
        <ele>162</ele>
        <time>2019-02-17T09:25:11.000Z</time>
      </trkpt>
      <trkpt lat="46.84571" lon="0.4443">
        <ele>162</ele>
        <time>2019-02-17T09:25:12.000Z</time>
      </trkpt>
      <trkpt lat="46.84573" lon="0.44438">
        <ele>162</ele>
        <time>2019-02-17T09:25:13.000Z</time>
      </trkpt>
      <trkpt lat="46.84575" lon="0.44445">
        <ele>162</ele>
        <time>2019-02-17T09:25:14.000Z</time>
      </trkpt>
      <trkpt lat="46.84578" lon="0.44452">
        <ele>162</ele>
        <time>2019-02-17T09:25:15.000Z</time>
      </trkpt>
      <trkpt lat="46.8458" lon="0.4446">
        <ele>162</ele>
        <time>2019-02-17T09:25:16.000Z</time>
      </trkpt>
      <trkpt lat="46.84583" lon="0.44467">
        <ele>162</ele>
        <time>2019-02-17T09:25:17.000Z</time>
      </trkpt>
      <trkpt lat="46.84585" lon="0.44475">
        <ele>163</ele>
        <time>2019-02-17T09:25:18.000Z</time>
      </trkpt>
      <trkpt lat="46.84588" lon="0.44483">
        <ele>164</ele>
        <time>2019-02-17T09:25:19.000Z</time>
      </trkpt>
      <trkpt lat="46.8459" lon="0.4449">
        <ele>164</ele>
        <time>2019-02-17T09:25:20.000Z</time>
      </trkpt>
      <trkpt lat="46.84592" lon="0.44497">
        <ele>164</ele>
        <time>2019-02-17T09:25:21.000Z</time>
      </trkpt>
      <trkpt lat="46.84594" lon="0.44505">
        <ele>163</ele>
        <time>2019-02-17T09:25:22.000Z</time>
      </trkpt>
      <trkpt lat="46.84596" lon="0.44513">
        <ele>163</ele>
        <time>2019-02-17T09:25:23.000Z</time>
      </trkpt>
      <trkpt lat="46.84598" lon="0.4452">
        <ele>163</ele>
        <time>2019-02-17T09:25:24.000Z</time>
      </trkpt>
      <trkpt lat="46.846" lon="0.44528">
        <ele>163</ele>
        <time>2019-02-17T09:25:25.000Z</time>
      </trkpt>
      <trkpt lat="46.84601" lon="0.44536">
        <ele>163</ele>
        <time>2019-02-17T09:25:26.000Z</time>
      </trkpt>
      <trkpt lat="46.84602" lon="0.44544">
        <ele>162</ele>
        <time>2019-02-17T09:25:27.000Z</time>
      </trkpt>
      <trkpt lat="46.84602" lon="0.44552">
        <ele>162</ele>
        <time>2019-02-17T09:25:28.000Z</time>
      </trkpt>
      <trkpt lat="46.84602" lon="0.4456">
        <ele>162</ele>
        <time>2019-02-17T09:25:29.000Z</time>
      </trkpt>
      <trkpt lat="46.84603" lon="0.44568">
        <ele>161</ele>
        <time>2019-02-17T09:25:30.000Z</time>
      </trkpt>
      <trkpt lat="46.84603" lon="0.44576">
        <ele>161</ele>
        <time>2019-02-17T09:25:31.000Z</time>
      </trkpt>
      <trkpt lat="46.84603" lon="0.44584">
        <ele>161</ele>
        <time>2019-02-17T09:25:32.000Z</time>
      </trkpt>
      <trkpt lat="46.84602" lon="0.44592">
        <ele>160</ele>
        <time>2019-02-17T09:25:33.000Z</time>
      </trkpt>
      <trkpt lat="46.84602" lon="0.446">
        <ele>160</ele>
        <time>2019-02-17T09:25:34.000Z</time>
      </trkpt>
      <trkpt lat="46.84602" lon="0.44609">
        <ele>160</ele>
        <time>2019-02-17T09:25:35.000Z</time>
      </trkpt>
      <trkpt lat="46.84601" lon="0.44617">
        <ele>160</ele>
        <time>2019-02-17T09:25:36.000Z</time>
      </trkpt>
      <trkpt lat="46.846" lon="0.44625">
        <ele>159</ele>
        <time>2019-02-17T09:25:37.000Z</time>
      </trkpt>
      <trkpt lat="46.846" lon="0.44633">
        <ele>159</ele>
        <time>2019-02-17T09:25:38.000Z</time>
      </trkpt>
      <trkpt lat="46.846" lon="0.4464">
        <ele>159</ele>
        <time>2019-02-17T09:25:39.000Z</time>
      </trkpt>
      <trkpt lat="46.84599" lon="0.44647">
        <ele>158</ele>
        <time>2019-02-17T09:25:40.000Z</time>
      </trkpt>
      <trkpt lat="46.84599" lon="0.44653">
        <ele>157</ele>
        <time>2019-02-17T09:25:41.000Z</time>
      </trkpt>
      <trkpt lat="46.84598" lon="0.44657">
        <ele>157</ele>
        <time>2019-02-17T09:25:42.000Z</time>
      </trkpt>
      <trkpt lat="46.84597" lon="0.4466">
        <ele>156</ele>
        <time>2019-02-17T09:25:43.000Z</time>
      </trkpt>
      <trkpt lat="46.84596" lon="0.44662">
        <ele>156</ele>
        <time>2019-02-17T09:25:44.000Z</time>
      </trkpt>
      <trkpt lat="46.84595" lon="0.44665">
        <ele>156</ele>
        <time>2019-02-17T09:25:45.000Z</time>
      </trkpt>
      <trkpt lat="46.84594" lon="0.44668">
        <ele>156</ele>
        <time>2019-02-17T09:25:46.000Z</time>
      </trkpt>
      <trkpt lat="46.84592" lon="0.44671">
        <ele>155</ele>
        <time>2019-02-17T09:25:47.000Z</time>
      </trkpt>
      <trkpt lat="46.8459" lon="0.44673">
        <ele>154</ele>
        <time>2019-02-17T09:25:48.000Z</time>
      </trkpt>
      <trkpt lat="46.84588" lon="0.44675">
        <ele>153</ele>
        <time>2019-02-17T09:25:49.000Z</time>
      </trkpt>
      <trkpt lat="46.84585" lon="0.44677">
        <ele>151</ele>
        <time>2019-02-17T09:25:50.000Z</time>
      </trkpt>
      <trkpt lat="46.84582" lon="0.44679">
        <ele>149</ele>
        <time>2019-02-17T09:25:51.000Z</time>
      </trkpt>
      <trkpt lat="46.84577" lon="0.44683">
        <ele>147</ele>
        <time>2019-02-17T09:25:52.000Z</time>
      </trkpt>
      <trkpt lat="46.84572" lon="0.44687">
        <ele>145</ele>
        <time>2019-02-17T09:25:53.000Z</time>
      </trkpt>
      <trkpt lat="46.84568" lon="0.44691">
        <ele>144</ele>
        <time>2019-02-17T09:25:54.000Z</time>
      </trkpt>
      <trkpt lat="46.84563" lon="0.44695">
        <ele>143</ele>
        <time>2019-02-17T09:25:55.000Z</time>
      </trkpt>
      <trkpt lat="46.84559" lon="0.44699">
        <ele>142</ele>
        <time>2019-02-17T09:25:56.000Z</time>
      </trkpt>
      <trkpt lat="46.84554" lon="0.44703">
        <ele>141</ele>
        <time>2019-02-17T09:25:57.000Z</time>
      </trkpt>
      <trkpt lat="46.84549" lon="0.44707">
        <ele>139</ele>
        <time>2019-02-17T09:25:58.000Z</time>
      </trkpt>
      <trkpt lat="46.84543" lon="0.44711">
        <ele>139</ele>
        <time>2019-02-17T09:25:59.000Z</time>
      </trkpt>
      <trkpt lat="46.84538" lon="0.44715">
        <ele>138</ele>
        <time>2019-02-17T09:26:00.000Z</time>
      </trkpt>
      <trkpt lat="46.84532" lon="0.44719">
        <ele>139</ele>
        <time>2019-02-17T09:26:01.000Z</time>
      </trkpt>
      <trkpt lat="46.84527" lon="0.44723">
        <ele>139</ele>
        <time>2019-02-17T09:26:02.000Z</time>
      </trkpt>
      <trkpt lat="46.84521" lon="0.44728">
        <ele>140</ele>
        <time>2019-02-17T09:26:03.000Z</time>
      </trkpt>
      <trkpt lat="46.84516" lon="0.44733">
        <ele>140</ele>
        <time>2019-02-17T09:26:04.000Z</time>
      </trkpt>
      <trkpt lat="46.8451" lon="0.44737">
        <ele>140</ele>
        <time>2019-02-17T09:26:05.000Z</time>
      </trkpt>
      <trkpt lat="46.84504" lon="0.44742">
        <ele>139</ele>
        <time>2019-02-17T09:26:06.000Z</time>
      </trkpt>
      <trkpt lat="46.84499" lon="0.44747">
        <ele>139</ele>
        <time>2019-02-17T09:26:07.000Z</time>
      </trkpt>
      <trkpt lat="46.84493" lon="0.44752">
        <ele>139</ele>
        <time>2019-02-17T09:26:08.000Z</time>
      </trkpt>
      <trkpt lat="46.84487" lon="0.44757">
        <ele>140</ele>
        <time>2019-02-17T09:26:09.000Z</time>
      </trkpt>
      <trkpt lat="46.84482" lon="0.44762">
        <ele>139</ele>
        <time>2019-02-17T09:26:10.000Z</time>
      </trkpt>
      <trkpt lat="46.84476" lon="0.44767">
        <ele>140</ele>
        <time>2019-02-17T09:26:11.000Z</time>
      </trkpt>
      <trkpt lat="46.84471" lon="0.44772">
        <ele>140</ele>
        <time>2019-02-17T09:26:12.000Z</time>
      </trkpt>
      <trkpt lat="46.84466" lon="0.44776">
        <ele>140</ele>
        <time>2019-02-17T09:26:13.000Z</time>
      </trkpt>
      <trkpt lat="46.8446" lon="0.4478">
        <ele>139</ele>
        <time>2019-02-17T09:26:14.000Z</time>
      </trkpt>
      <trkpt lat="46.84455" lon="0.44785">
        <ele>139</ele>
        <time>2019-02-17T09:26:15.000Z</time>
      </trkpt>
      <trkpt lat="46.8445" lon="0.44789">
        <ele>140</ele>
        <time>2019-02-17T09:26:16.000Z</time>
      </trkpt>
      <trkpt lat="46.84445" lon="0.44795">
        <ele>139</ele>
        <time>2019-02-17T09:26:17.000Z</time>
      </trkpt>
      <trkpt lat="46.8444" lon="0.448">
        <ele>138</ele>
        <time>2019-02-17T09:26:18.000Z</time>
      </trkpt>
      <trkpt lat="46.84435" lon="0.44805">
        <ele>138</ele>
        <time>2019-02-17T09:26:19.000Z</time>
      </trkpt>
      <trkpt lat="46.84429" lon="0.4481">
        <ele>138</ele>
        <time>2019-02-17T09:26:20.000Z</time>
      </trkpt>
      <trkpt lat="46.84424" lon="0.44815">
        <ele>138</ele>
        <time>2019-02-17T09:26:21.000Z</time>
      </trkpt>
      <trkpt lat="46.84418" lon="0.44821">
        <ele>139</ele>
        <time>2019-02-17T09:26:22.000Z</time>
      </trkpt>
      <trkpt lat="46.84412" lon="0.44827">
        <ele>140</ele>
        <time>2019-02-17T09:26:23.000Z</time>
      </trkpt>
      <trkpt lat="46.84405" lon="0.44832">
        <ele>141</ele>
        <time>2019-02-17T09:26:24.000Z</time>
      </trkpt>
      <trkpt lat="46.84399" lon="0.44837">
        <ele>142</ele>
        <time>2019-02-17T09:26:25.000Z</time>
      </trkpt>
      <trkpt lat="46.84393" lon="0.44843">
        <ele>141</ele>
        <time>2019-02-17T09:26:26.000Z</time>
      </trkpt>
      <trkpt lat="46.84387" lon="0.44848">
        <ele>142</ele>
        <time>2019-02-17T09:26:27.000Z</time>
      </trkpt>
      <trkpt lat="46.8438" lon="0.44853">
        <ele>142</ele>
        <time>2019-02-17T09:26:28.000Z</time>
      </trkpt>
      <trkpt lat="46.84374" lon="0.44857">
        <ele>141</ele>
        <time>2019-02-17T09:26:29.000Z</time>
      </trkpt>
      <trkpt lat="46.84368" lon="0.44862">
        <ele>141</ele>
        <time>2019-02-17T09:26:30.000Z</time>
      </trkpt>
      <trkpt lat="46.84363" lon="0.44866">
        <ele>139</ele>
        <time>2019-02-17T09:26:31.000Z</time>
      </trkpt>
      <trkpt lat="46.84357" lon="0.44871">
        <ele>138</ele>
        <time>2019-02-17T09:26:32.000Z</time>
      </trkpt>
      <trkpt lat="46.84351" lon="0.44875">
        <ele>137</ele>
        <time>2019-02-17T09:26:33.000Z</time>
      </trkpt>
      <trkpt lat="46.84345" lon="0.4488">
        <ele>136</ele>
        <time>2019-02-17T09:26:34.000Z</time>
      </trkpt>
      <trkpt lat="46.84339" lon="0.44886">
        <ele>135</ele>
        <time>2019-02-17T09:26:35.000Z</time>
      </trkpt>
      <trkpt lat="46.84333" lon="0.44891">
        <ele>133</ele>
        <time>2019-02-17T09:26:36.000Z</time>
      </trkpt>
      <trkpt lat="46.84326" lon="0.44896">
        <ele>132</ele>
        <time>2019-02-17T09:26:37.000Z</time>
      </trkpt>
      <trkpt lat="46.84318" lon="0.44903">
        <ele>132</ele>
        <time>2019-02-17T09:26:38.000Z</time>
      </trkpt>
      <trkpt lat="46.84309" lon="0.44911">
        <ele>132</ele>
        <time>2019-02-17T09:26:39.000Z</time>
      </trkpt>
      <trkpt lat="46.84302" lon="0.4492">
        <ele>130</ele>
        <time>2019-02-17T09:26:40.000Z</time>
      </trkpt>
      <trkpt lat="46.84295" lon="0.4493">
        <ele>130</ele>
        <time>2019-02-17T09:26:41.000Z</time>
      </trkpt>
      <trkpt lat="46.84288" lon="0.4494">
        <ele>130</ele>
        <time>2019-02-17T09:26:42.000Z</time>
      </trkpt>
      <trkpt lat="46.84281" lon="0.4495">
        <ele>129</ele>
        <time>2019-02-17T09:26:43.000Z</time>
      </trkpt>
      <trkpt lat="46.84274" lon="0.4496">
        <ele>128</ele>
        <time>2019-02-17T09:26:44.000Z</time>
      </trkpt>
      <trkpt lat="46.84266" lon="0.4497">
        <ele>127</ele>
        <time>2019-02-17T09:26:45.000Z</time>
      </trkpt>
      <trkpt lat="46.84259" lon="0.44979">
        <ele>126</ele>
        <time>2019-02-17T09:26:46.000Z</time>
      </trkpt>
      <trkpt lat="46.84251" lon="0.44989">
        <ele>124</ele>
        <time>2019-02-17T09:26:47.000Z</time>
      </trkpt>
      <trkpt lat="46.84244" lon="0.44999">
        <ele>123</ele>
        <time>2019-02-17T09:26:48.000Z</time>
      </trkpt>
      <trkpt lat="46.84236" lon="0.45008">
        <ele>123</ele>
        <time>2019-02-17T09:26:49.000Z</time>
      </trkpt>
      <trkpt lat="46.84228" lon="0.45018">
        <ele>122</ele>
        <time>2019-02-17T09:26:50.000Z</time>
      </trkpt>
      <trkpt lat="46.84219" lon="0.45027">
        <ele>123</ele>
        <time>2019-02-17T09:26:51.000Z</time>
      </trkpt>
      <trkpt lat="46.8421" lon="0.45036">
        <ele>122</ele>
        <time>2019-02-17T09:26:52.000Z</time>
      </trkpt>
      <trkpt lat="46.84201" lon="0.45045">
        <ele>120</ele>
        <time>2019-02-17T09:26:53.000Z</time>
      </trkpt>
      <trkpt lat="46.84193" lon="0.45053">
        <ele>120</ele>
        <time>2019-02-17T09:26:54.000Z</time>
      </trkpt>
      <trkpt lat="46.84185" lon="0.45061">
        <ele>120</ele>
        <time>2019-02-17T09:26:55.000Z</time>
      </trkpt>
      <trkpt lat="46.84177" lon="0.45069">
        <ele>119</ele>
        <time>2019-02-17T09:26:56.000Z</time>
      </trkpt>
      <trkpt lat="46.84169" lon="0.45076">
        <ele>118</ele>
        <time>2019-02-17T09:26:57.000Z</time>
      </trkpt>
      <trkpt lat="46.84161" lon="0.45084">
        <ele>118</ele>
        <time>2019-02-17T09:26:58.000Z</time>
      </trkpt>
      <trkpt lat="46.84153" lon="0.45091">
        <ele>117</ele>
        <time>2019-02-17T09:26:59.000Z</time>
      </trkpt>
      <trkpt lat="46.84146" lon="0.45099">
        <ele>117</ele>
        <time>2019-02-17T09:27:00.000Z</time>
      </trkpt>
      <trkpt lat="46.84138" lon="0.45107">
        <ele>117</ele>
        <time>2019-02-17T09:27:01.000Z</time>
      </trkpt>
      <trkpt lat="46.84131" lon="0.45115">
        <ele>117</ele>
        <time>2019-02-17T09:27:02.000Z</time>
      </trkpt>
      <trkpt lat="46.84124" lon="0.45124">
        <ele>117</ele>
        <time>2019-02-17T09:27:03.000Z</time>
      </trkpt>
      <trkpt lat="46.84118" lon="0.45132">
        <ele>118</ele>
        <time>2019-02-17T09:27:04.000Z</time>
      </trkpt>
      <trkpt lat="46.84111" lon="0.45141">
        <ele>118</ele>
        <time>2019-02-17T09:27:05.000Z</time>
      </trkpt>
      <trkpt lat="46.84106" lon="0.45149">
        <ele>117</ele>
        <time>2019-02-17T09:27:06.000Z</time>
      </trkpt>
      <trkpt lat="46.841" lon="0.45157">
        <ele>117</ele>
        <time>2019-02-17T09:27:07.000Z</time>
      </trkpt>
      <trkpt lat="46.84093" lon="0.45164">
        <ele>117</ele>
        <time>2019-02-17T09:27:08.000Z</time>
      </trkpt>
      <trkpt lat="46.84087" lon="0.4517">
        <ele>117</ele>
        <time>2019-02-17T09:27:09.000Z</time>
      </trkpt>
      <trkpt lat="46.84081" lon="0.45175">
        <ele>116</ele>
        <time>2019-02-17T09:27:10.000Z</time>
      </trkpt>
      <trkpt lat="46.84074" lon="0.4518">
        <ele>116</ele>
        <time>2019-02-17T09:27:11.000Z</time>
      </trkpt>
      <trkpt lat="46.84068" lon="0.45184">
        <ele>116</ele>
        <time>2019-02-17T09:27:12.000Z</time>
      </trkpt>
      <trkpt lat="46.84062" lon="0.45188">
        <ele>116</ele>
        <time>2019-02-17T09:27:13.000Z</time>
      </trkpt>
      <trkpt lat="46.84056" lon="0.45192">
        <ele>117</ele>
        <time>2019-02-17T09:27:14.000Z</time>
      </trkpt>
      <trkpt lat="46.8405" lon="0.45195">
        <ele>117</ele>
        <time>2019-02-17T09:27:15.000Z</time>
      </trkpt>
      <trkpt lat="46.84044" lon="0.45198">
        <ele>118</ele>
        <time>2019-02-17T09:27:16.000Z</time>
      </trkpt>
      <trkpt lat="46.84039" lon="0.45201">
        <ele>117</ele>
        <time>2019-02-17T09:27:17.000Z</time>
      </trkpt>
      <trkpt lat="46.84034" lon="0.45204">
        <ele>116</ele>
        <time>2019-02-17T09:27:18.000Z</time>
      </trkpt>
      <trkpt lat="46.8403" lon="0.45206">
        <ele>116</ele>
        <time>2019-02-17T09:27:19.000Z</time>
      </trkpt>
      <trkpt lat="46.84025" lon="0.45208">
        <ele>118</ele>
        <time>2019-02-17T09:27:20.000Z</time>
      </trkpt>
      <trkpt lat="46.8402" lon="0.4521">
        <ele>118</ele>
        <time>2019-02-17T09:27:21.000Z</time>
      </trkpt>
      <trkpt lat="46.84016" lon="0.45211">
        <ele>118</ele>
        <time>2019-02-17T09:27:22.000Z</time>
      </trkpt>
      <trkpt lat="46.84011" lon="0.45212">
        <ele>118</ele>
        <time>2019-02-17T09:27:23.000Z</time>
      </trkpt>
      <trkpt lat="46.84008" lon="0.45213">
        <ele>119</ele>
        <time>2019-02-17T09:27:24.000Z</time>
      </trkpt>
      <trkpt lat="46.84004" lon="0.45214">
        <ele>121</ele>
        <time>2019-02-17T09:27:25.000Z</time>
      </trkpt>
      <trkpt lat="46.84001" lon="0.45215">
        <ele>121</ele>
        <time>2019-02-17T09:27:26.000Z</time>
      </trkpt>
      <trkpt lat="46.83997" lon="0.45216">
        <ele>121</ele>
        <time>2019-02-17T09:27:27.000Z</time>
      </trkpt>
      <trkpt lat="46.83994" lon="0.45219">
        <ele>120</ele>
        <time>2019-02-17T09:27:28.000Z</time>
      </trkpt>
      <trkpt lat="46.83992" lon="0.45223">
        <ele>120</ele>
        <time>2019-02-17T09:27:29.000Z</time>
      </trkpt>
      <trkpt lat="46.83991" lon="0.4523">
        <ele>123</ele>
        <time>2019-02-17T09:27:30.000Z</time>
      </trkpt>
      <trkpt lat="46.83991" lon="0.45236">
        <ele>124</ele>
        <time>2019-02-17T09:27:31.000Z</time>
      </trkpt>
      <trkpt lat="46.83992" lon="0.45243">
        <ele>124</ele>
        <time>2019-02-17T09:27:32.000Z</time>
      </trkpt>
      <trkpt lat="46.83992" lon="0.45249">
        <ele>124</ele>
        <time>2019-02-17T09:27:33.000Z</time>
      </trkpt>
      <trkpt lat="46.83993" lon="0.45255">
        <ele>125</ele>
        <time>2019-02-17T09:27:34.000Z</time>
      </trkpt>
      <trkpt lat="46.83994" lon="0.45262">
        <ele>125</ele>
        <time>2019-02-17T09:27:35.000Z</time>
      </trkpt>
      <trkpt lat="46.83996" lon="0.45269">
        <ele>125</ele>
        <time>2019-02-17T09:27:36.000Z</time>
      </trkpt>
      <trkpt lat="46.83997" lon="0.45277">
        <ele>124</ele>
        <time>2019-02-17T09:27:37.000Z</time>
      </trkpt>
      <trkpt lat="46.83997" lon="0.45285">
        <ele>124</ele>
        <time>2019-02-17T09:27:38.000Z</time>
      </trkpt>
      <trkpt lat="46.83998" lon="0.45293">
        <ele>125</ele>
        <time>2019-02-17T09:27:39.000Z</time>
      </trkpt>
      <trkpt lat="46.83998" lon="0.45301">
        <ele>125</ele>
        <time>2019-02-17T09:27:40.000Z</time>
      </trkpt>
      <trkpt lat="46.83998" lon="0.4531">
        <ele>125</ele>
        <time>2019-02-17T09:27:41.000Z</time>
      </trkpt>
      <trkpt lat="46.83999" lon="0.45318">
        <ele>125</ele>
        <time>2019-02-17T09:27:42.000Z</time>
      </trkpt>
      <trkpt lat="46.83999" lon="0.45327">
        <ele>125</ele>
        <time>2019-02-17T09:27:43.000Z</time>
      </trkpt>
      <trkpt lat="46.83999" lon="0.45335">
        <ele>125</ele>
        <time>2019-02-17T09:27:44.000Z</time>
      </trkpt>
      <trkpt lat="46.83999" lon="0.45344">
        <ele>125</ele>
        <time>2019-02-17T09:27:45.000Z</time>
      </trkpt>
      <trkpt lat="46.84" lon="0.45353">
        <ele>124</ele>
        <time>2019-02-17T09:27:46.000Z</time>
      </trkpt>
      <trkpt lat="46.84" lon="0.45362">
        <ele>124</ele>
        <time>2019-02-17T09:27:47.000Z</time>
      </trkpt>
      <trkpt lat="46.84" lon="0.45371">
        <ele>124</ele>
        <time>2019-02-17T09:27:48.000Z</time>
      </trkpt>
      <trkpt lat="46.84001" lon="0.4538">
        <ele>124</ele>
        <time>2019-02-17T09:27:49.000Z</time>
      </trkpt>
      <trkpt lat="46.84002" lon="0.4539">
        <ele>124</ele>
        <time>2019-02-17T09:27:50.000Z</time>
      </trkpt>
      <trkpt lat="46.84003" lon="0.45399">
        <ele>124</ele>
        <time>2019-02-17T09:27:51.000Z</time>
      </trkpt>
      <trkpt lat="46.84004" lon="0.45409">
        <ele>124</ele>
        <time>2019-02-17T09:27:52.000Z</time>
      </trkpt>
      <trkpt lat="46.84004" lon="0.45419">
        <ele>124</ele>
        <time>2019-02-17T09:27:53.000Z</time>
      </trkpt>
      <trkpt lat="46.84005" lon="0.4543">
        <ele>123</ele>
        <time>2019-02-17T09:27:54.000Z</time>
      </trkpt>
      <trkpt lat="46.84005" lon="0.4544">
        <ele>123</ele>
        <time>2019-02-17T09:27:55.000Z</time>
      </trkpt>
      <trkpt lat="46.84005" lon="0.45451">
        <ele>123</ele>
        <time>2019-02-17T09:27:56.000Z</time>
      </trkpt>
      <trkpt lat="46.84005" lon="0.45462">
        <ele>122</ele>
        <time>2019-02-17T09:27:57.000Z</time>
      </trkpt>
      <trkpt lat="46.84004" lon="0.45473">
        <ele>122</ele>
        <time>2019-02-17T09:27:58.000Z</time>
      </trkpt>
      <trkpt lat="46.84003" lon="0.45484">
        <ele>122</ele>
        <time>2019-02-17T09:27:59.000Z</time>
      </trkpt>
      <trkpt lat="46.84003" lon="0.45494">
        <ele>122</ele>
        <time>2019-02-17T09:28:00.000Z</time>
      </trkpt>
      <trkpt lat="46.84002" lon="0.45504">
        <ele>121</ele>
        <time>2019-02-17T09:28:01.000Z</time>
      </trkpt>
      <trkpt lat="46.84002" lon="0.45513">
        <ele>120</ele>
        <time>2019-02-17T09:28:02.000Z</time>
      </trkpt>
      <trkpt lat="46.84" lon="0.45522">
        <ele>119</ele>
        <time>2019-02-17T09:28:03.000Z</time>
      </trkpt>
      <trkpt lat="46.83998" lon="0.45529">
        <ele>118</ele>
        <time>2019-02-17T09:28:04.000Z</time>
      </trkpt>
      <trkpt lat="46.83994" lon="0.45535">
        <ele>118</ele>
        <time>2019-02-17T09:28:05.000Z</time>
      </trkpt>
      <trkpt lat="46.83989" lon="0.45539">
        <ele>117</ele>
        <time>2019-02-17T09:28:06.000Z</time>
      </trkpt>
      <trkpt lat="46.83983" lon="0.45541">
        <ele>117</ele>
        <time>2019-02-17T09:28:07.000Z</time>
      </trkpt>
      <trkpt lat="46.83977" lon="0.45543">
        <ele>117</ele>
        <time>2019-02-17T09:28:08.000Z</time>
      </trkpt>
      <trkpt lat="46.83971" lon="0.45545">
        <ele>118</ele>
        <time>2019-02-17T09:28:09.000Z</time>
      </trkpt>
      <trkpt lat="46.83964" lon="0.45548">
        <ele>118</ele>
        <time>2019-02-17T09:28:10.000Z</time>
      </trkpt>
      <trkpt lat="46.83958" lon="0.4555">
        <ele>118</ele>
        <time>2019-02-17T09:28:11.000Z</time>
      </trkpt>
      <trkpt lat="46.83952" lon="0.45553">
        <ele>118</ele>
        <time>2019-02-17T09:28:12.000Z</time>
      </trkpt>
      <trkpt lat="46.83946" lon="0.45556">
        <ele>118</ele>
        <time>2019-02-17T09:28:13.000Z</time>
      </trkpt>
      <trkpt lat="46.83941" lon="0.45558">
        <ele>118</ele>
        <time>2019-02-17T09:28:14.000Z</time>
      </trkpt>
      <trkpt lat="46.83935" lon="0.45561">
        <ele>118</ele>
        <time>2019-02-17T09:28:15.000Z</time>
      </trkpt>
      <trkpt lat="46.8393" lon="0.45563">
        <ele>118</ele>
        <time>2019-02-17T09:28:16.000Z</time>
      </trkpt>
      <trkpt lat="46.83925" lon="0.45566">
        <ele>117</ele>
        <time>2019-02-17T09:28:17.000Z</time>
      </trkpt>
      <trkpt lat="46.83922" lon="0.45569">
        <ele>116</ele>
        <time>2019-02-17T09:28:18.000Z</time>
      </trkpt>
      <trkpt lat="46.83921" lon="0.45574">
        <ele>116</ele>
        <time>2019-02-17T09:28:19.000Z</time>
      </trkpt>
      <trkpt lat="46.83921" lon="0.4558">
        <ele>117</ele>
        <time>2019-02-17T09:28:20.000Z</time>
      </trkpt>
      <trkpt lat="46.83921" lon="0.45587">
        <ele>118</ele>
        <time>2019-02-17T09:28:21.000Z</time>
      </trkpt>
      <trkpt lat="46.83921" lon="0.45593">
        <ele>118</ele>
        <time>2019-02-17T09:28:22.000Z</time>
      </trkpt>
      <trkpt lat="46.83921" lon="0.456">
        <ele>118</ele>
        <time>2019-02-17T09:28:23.000Z</time>
      </trkpt>
      <trkpt lat="46.83921" lon="0.45607">
        <ele>118</ele>
        <time>2019-02-17T09:28:24.000Z</time>
      </trkpt>
      <trkpt lat="46.83921" lon="0.45614">
        <ele>118</ele>
        <time>2019-02-17T09:28:25.000Z</time>
      </trkpt>
      <trkpt lat="46.83922" lon="0.45622">
        <ele>119</ele>
        <time>2019-02-17T09:28:26.000Z</time>
      </trkpt>
      <trkpt lat="46.83922" lon="0.45629">
        <ele>118</ele>
        <time>2019-02-17T09:28:27.000Z</time>
      </trkpt>
      <trkpt lat="46.83922" lon="0.45637">
        <ele>118</ele>
        <time>2019-02-17T09:28:28.000Z</time>
      </trkpt>
      <trkpt lat="46.83923" lon="0.45644">
        <ele>118</ele>
        <time>2019-02-17T09:28:29.000Z</time>
      </trkpt>
      <trkpt lat="46.83923" lon="0.45652">
        <ele>118</ele>
        <time>2019-02-17T09:28:30.000Z</time>
      </trkpt>
      <trkpt lat="46.83923" lon="0.4566">
        <ele>118</ele>
        <time>2019-02-17T09:28:31.000Z</time>
      </trkpt>
      <trkpt lat="46.83924" lon="0.45668">
        <ele>118</ele>
        <time>2019-02-17T09:28:32.000Z</time>
      </trkpt>
      <trkpt lat="46.83925" lon="0.45675">
        <ele>118</ele>
        <time>2019-02-17T09:28:33.000Z</time>
      </trkpt>
      <trkpt lat="46.83925" lon="0.45684">
        <ele>118</ele>
        <time>2019-02-17T09:28:34.000Z</time>
      </trkpt>
      <trkpt lat="46.83926" lon="0.45692">
        <ele>118</ele>
        <time>2019-02-17T09:28:35.000Z</time>
      </trkpt>
      <trkpt lat="46.83926" lon="0.457">
        <ele>117</ele>
        <time>2019-02-17T09:28:36.000Z</time>
      </trkpt>
      <trkpt lat="46.83927" lon="0.45709">
        <ele>117</ele>
        <time>2019-02-17T09:28:37.000Z</time>
      </trkpt>
      <trkpt lat="46.83928" lon="0.45717">
        <ele>117</ele>
        <time>2019-02-17T09:28:38.000Z</time>
      </trkpt>
      <trkpt lat="46.83928" lon="0.45726">
        <ele>117</ele>
        <time>2019-02-17T09:28:39.000Z</time>
      </trkpt>
      <trkpt lat="46.83929" lon="0.45736">
        <ele>117</ele>
        <time>2019-02-17T09:28:40.000Z</time>
      </trkpt>
      <trkpt lat="46.83929" lon="0.45745">
        <ele>117</ele>
        <time>2019-02-17T09:28:41.000Z</time>
      </trkpt>
      <trkpt lat="46.8393" lon="0.45755">
        <ele>117</ele>
        <time>2019-02-17T09:28:42.000Z</time>
      </trkpt>
      <trkpt lat="46.83931" lon="0.45764">
        <ele>116</ele>
        <time>2019-02-17T09:28:43.000Z</time>
      </trkpt>
      <trkpt lat="46.83932" lon="0.45774">
        <ele>116</ele>
        <time>2019-02-17T09:28:44.000Z</time>
      </trkpt>
      <trkpt lat="46.83932" lon="0.45784">
        <ele>116</ele>
        <time>2019-02-17T09:28:45.000Z</time>
      </trkpt>
      <trkpt lat="46.83933" lon="0.45793">
        <ele>115</ele>
        <time>2019-02-17T09:28:46.000Z</time>
      </trkpt>
      <trkpt lat="46.83934" lon="0.45803">
        <ele>115</ele>
        <time>2019-02-17T09:28:47.000Z</time>
      </trkpt>
      <trkpt lat="46.83935" lon="0.45814">
        <ele>115</ele>
        <time>2019-02-17T09:28:48.000Z</time>
      </trkpt>
      <trkpt lat="46.83935" lon="0.45824">
        <ele>114</ele>
        <time>2019-02-17T09:28:49.000Z</time>
      </trkpt>
      <trkpt lat="46.83936" lon="0.45834">
        <ele>114</ele>
        <time>2019-02-17T09:28:50.000Z</time>
      </trkpt>
      <trkpt lat="46.83937" lon="0.45845">
        <ele>114</ele>
        <time>2019-02-17T09:28:51.000Z</time>
      </trkpt>
      <trkpt lat="46.83938" lon="0.45856">
        <ele>113</ele>
        <time>2019-02-17T09:28:52.000Z</time>
      </trkpt>
      <trkpt lat="46.83939" lon="0.45866">
        <ele>113</ele>
        <time>2019-02-17T09:28:53.000Z</time>
      </trkpt>
      <trkpt lat="46.8394" lon="0.45877">
        <ele>113</ele>
        <time>2019-02-17T09:28:54.000Z</time>
      </trkpt>
      <trkpt lat="46.83941" lon="0.45888">
        <ele>112</ele>
        <time>2019-02-17T09:28:55.000Z</time>
      </trkpt>
      <trkpt lat="46.83941" lon="0.45898">
        <ele>112</ele>
        <time>2019-02-17T09:28:56.000Z</time>
      </trkpt>
      <trkpt lat="46.83942" lon="0.45909">
        <ele>112</ele>
        <time>2019-02-17T09:28:57.000Z</time>
      </trkpt>
      <trkpt lat="46.83943" lon="0.45919">
        <ele>112</ele>
        <time>2019-02-17T09:28:58.000Z</time>
      </trkpt>
      <trkpt lat="46.83944" lon="0.45929">
        <ele>112</ele>
        <time>2019-02-17T09:28:59.000Z</time>
      </trkpt>
      <trkpt lat="46.83945" lon="0.45939">
        <ele>111</ele>
        <time>2019-02-17T09:29:00.000Z</time>
      </trkpt>
      <trkpt lat="46.83945" lon="0.45949">
        <ele>111</ele>
        <time>2019-02-17T09:29:01.000Z</time>
      </trkpt>
      <trkpt lat="46.83946" lon="0.45959">
        <ele>111</ele>
        <time>2019-02-17T09:29:02.000Z</time>
      </trkpt>
      <trkpt lat="46.83947" lon="0.45969">
        <ele>110</ele>
        <time>2019-02-17T09:29:03.000Z</time>
      </trkpt>
      <trkpt lat="46.83948" lon="0.4598">
        <ele>110</ele>
        <time>2019-02-17T09:29:04.000Z</time>
      </trkpt>
      <trkpt lat="46.83949" lon="0.4599">
        <ele>110</ele>
        <time>2019-02-17T09:29:05.000Z</time>
      </trkpt>
      <trkpt lat="46.83949" lon="0.46">
        <ele>109</ele>
        <time>2019-02-17T09:29:06.000Z</time>
      </trkpt>
      <trkpt lat="46.8395" lon="0.4601">
        <ele>109</ele>
        <time>2019-02-17T09:29:07.000Z</time>
      </trkpt>
      <trkpt lat="46.8395" lon="0.46021">
        <ele>108</ele>
        <time>2019-02-17T09:29:08.000Z</time>
      </trkpt>
      <trkpt lat="46.83951" lon="0.46031">
        <ele>108</ele>
        <time>2019-02-17T09:29:09.000Z</time>
      </trkpt>
      <trkpt lat="46.83952" lon="0.46041">
        <ele>107</ele>
        <time>2019-02-17T09:29:10.000Z</time>
      </trkpt>
      <trkpt lat="46.83952" lon="0.4605">
        <ele>107</ele>
        <time>2019-02-17T09:29:11.000Z</time>
      </trkpt>
      <trkpt lat="46.83953" lon="0.46058">
        <ele>107</ele>
        <time>2019-02-17T09:29:12.000Z</time>
      </trkpt>
      <trkpt lat="46.83953" lon="0.46065">
        <ele>106</ele>
        <time>2019-02-17T09:29:13.000Z</time>
      </trkpt>
      <trkpt lat="46.83953" lon="0.46071">
        <ele>106</ele>
        <time>2019-02-17T09:29:14.000Z</time>
      </trkpt>
      <trkpt lat="46.83954" lon="0.46076">
        <ele>105</ele>
        <time>2019-02-17T09:29:15.000Z</time>
      </trkpt>
      <trkpt lat="46.83956" lon="0.46079">
        <ele>104</ele>
        <time>2019-02-17T09:29:16.000Z</time>
      </trkpt>
      <trkpt lat="46.83959" lon="0.46082">
        <ele>104</ele>
        <time>2019-02-17T09:29:17.000Z</time>
      </trkpt>
      <trkpt lat="46.83964" lon="0.46085">
        <ele>104</ele>
        <time>2019-02-17T09:29:18.000Z</time>
      </trkpt>
      <trkpt lat="46.8397" lon="0.46086">
        <ele>103</ele>
        <time>2019-02-17T09:29:19.000Z</time>
      </trkpt>
      <trkpt lat="46.83976" lon="0.46088">
        <ele>102</ele>
        <time>2019-02-17T09:29:20.000Z</time>
      </trkpt>
      <trkpt lat="46.83982" lon="0.4609">
        <ele>102</ele>
        <time>2019-02-17T09:29:21.000Z</time>
      </trkpt>
      <trkpt lat="46.83989" lon="0.46092">
        <ele>101</ele>
        <time>2019-02-17T09:29:22.000Z</time>
      </trkpt>
      <trkpt lat="46.83997" lon="0.46093">
        <ele>101</ele>
        <time>2019-02-17T09:29:23.000Z</time>
      </trkpt>
      <trkpt lat="46.84004" lon="0.46094">
        <ele>100</ele>
        <time>2019-02-17T09:29:24.000Z</time>
      </trkpt>
      <trkpt lat="46.84012" lon="0.46095">
        <ele>100</ele>
        <time>2019-02-17T09:29:25.000Z</time>
      </trkpt>
      <trkpt lat="46.84019" lon="0.46096">
        <ele>99</ele>
        <time>2019-02-17T09:29:26.000Z</time>
      </trkpt>
      <trkpt lat="46.84027" lon="0.46096">
        <ele>99</ele>
        <time>2019-02-17T09:29:27.000Z</time>
      </trkpt>
      <trkpt lat="46.84034" lon="0.46097">
        <ele>99</ele>
        <time>2019-02-17T09:29:28.000Z</time>
      </trkpt>
      <trkpt lat="46.84041" lon="0.46097">
        <ele>99</ele>
        <time>2019-02-17T09:29:29.000Z</time>
      </trkpt>
      <trkpt lat="46.84047" lon="0.46095">
        <ele>99</ele>
        <time>2019-02-17T09:29:30.000Z</time>
      </trkpt>
      <trkpt lat="46.84051" lon="0.46093">
        <ele>98</ele>
        <time>2019-02-17T09:29:31.000Z</time>
      </trkpt>
      <trkpt lat="46.84055" lon="0.46089">
        <ele>97</ele>
        <time>2019-02-17T09:29:32.000Z</time>
      </trkpt>
      <trkpt lat="46.84058" lon="0.46085">
        <ele>96</ele>
        <time>2019-02-17T09:29:33.000Z</time>
      </trkpt>
      <trkpt lat="46.8406" lon="0.4608">
        <ele>96</ele>
        <time>2019-02-17T09:29:34.000Z</time>
      </trkpt>
      <trkpt lat="46.84062" lon="0.46075">
        <ele>95</ele>
        <time>2019-02-17T09:29:35.000Z</time>
      </trkpt>
      <trkpt lat="46.84064" lon="0.46069">
        <ele>95</ele>
        <time>2019-02-17T09:29:36.000Z</time>
      </trkpt>
      <trkpt lat="46.84065" lon="0.46064">
        <ele>95</ele>
        <time>2019-02-17T09:29:37.000Z</time>
      </trkpt>
      <trkpt lat="46.84067" lon="0.46059">
        <ele>95</ele>
        <time>2019-02-17T09:29:38.000Z</time>
      </trkpt>
      <trkpt lat="46.84069" lon="0.46053">
        <ele>96</ele>
        <time>2019-02-17T09:29:39.000Z</time>
      </trkpt>
      <trkpt lat="46.8407" lon="0.46048">
        <ele>96</ele>
        <time>2019-02-17T09:29:40.000Z</time>
      </trkpt>
      <trkpt lat="46.84072" lon="0.46043">
        <ele>97</ele>
        <time>2019-02-17T09:29:41.000Z</time>
      </trkpt>
      <trkpt lat="46.84073" lon="0.46038">
        <ele>97</ele>
        <time>2019-02-17T09:29:42.000Z</time>
      </trkpt>
      <trkpt lat="46.84074" lon="0.46033">
        <ele>97</ele>
        <time>2019-02-17T09:29:43.000Z</time>
      </trkpt>
      <trkpt lat="46.84076" lon="0.46027">
        <ele>97</ele>
        <time>2019-02-17T09:29:44.000Z</time>
      </trkpt>
      <trkpt lat="46.84077" lon="0.46023">
        <ele>98</ele>
        <time>2019-02-17T09:29:45.000Z</time>
      </trkpt>
      <trkpt lat="46.84079" lon="0.46018">
        <ele>98</ele>
        <time>2019-02-17T09:29:46.000Z</time>
      </trkpt>
      <trkpt lat="46.84081" lon="0.46013">
        <ele>98</ele>
        <time>2019-02-17T09:29:47.000Z</time>
      </trkpt>
      <trkpt lat="46.84083" lon="0.4601">
        <ele>98</ele>
        <time>2019-02-17T09:29:48.000Z</time>
      </trkpt>
      <trkpt lat="46.84086" lon="0.46008">
        <ele>97</ele>
        <time>2019-02-17T09:29:49.000Z</time>
      </trkpt>
      <trkpt lat="46.8409" lon="0.46008">
        <ele>98</ele>
        <time>2019-02-17T09:29:50.000Z</time>
      </trkpt>
      <trkpt lat="46.84093" lon="0.46009">
        <ele>98</ele>
        <time>2019-02-17T09:29:51.000Z</time>
      </trkpt>
      <trkpt lat="46.84096" lon="0.46012">
        <ele>99</ele>
        <time>2019-02-17T09:29:52.000Z</time>
      </trkpt>
      <trkpt lat="46.84099" lon="0.46014">
        <ele>99</ele>
        <time>2019-02-17T09:29:53.000Z</time>
      </trkpt>
      <trkpt lat="46.84102" lon="0.46017">
        <ele>99</ele>
        <time>2019-02-17T09:29:54.000Z</time>
      </trkpt>
      <trkpt lat="46.84105" lon="0.46019">
        <ele>100</ele>
        <time>2019-02-17T09:29:55.000Z</time>
      </trkpt>
      <trkpt lat="46.84108" lon="0.46022">
        <ele>100</ele>
        <time>2019-02-17T09:29:56.000Z</time>
      </trkpt>
      <trkpt lat="46.84112" lon="0.46024">
        <ele>100</ele>
        <time>2019-02-17T09:29:57.000Z</time>
      </trkpt>
      <trkpt lat="46.84116" lon="0.46026">
        <ele>100</ele>
        <time>2019-02-17T09:29:58.000Z</time>
      </trkpt>
      <trkpt lat="46.84119" lon="0.46028">
        <ele>101</ele>
        <time>2019-02-17T09:29:59.000Z</time>
      </trkpt>
      <trkpt lat="46.84123" lon="0.4603">
        <ele>101</ele>
        <time>2019-02-17T09:30:00.000Z</time>
      </trkpt>
      <trkpt lat="46.84126" lon="0.46032">
        <ele>101</ele>
        <time>2019-02-17T09:30:01.000Z</time>
      </trkpt>
      <trkpt lat="46.8413" lon="0.46034">
        <ele>102</ele>
        <time>2019-02-17T09:30:02.000Z</time>
      </trkpt>
      <trkpt lat="46.84133" lon="0.46036">
        <ele>102</ele>
        <time>2019-02-17T09:30:03.000Z</time>
      </trkpt>
      <trkpt lat="46.84136" lon="0.46038">
        <ele>103</ele>
        <time>2019-02-17T09:30:04.000Z</time>
      </trkpt>
      <trkpt lat="46.84139" lon="0.4604">
        <ele>103</ele>
        <time>2019-02-17T09:30:05.000Z</time>
      </trkpt>
      <trkpt lat="46.84142" lon="0.46042">
        <ele>103</ele>
        <time>2019-02-17T09:30:06.000Z</time>
      </trkpt>
      <trkpt lat="46.84146" lon="0.46044">
        <ele>104</ele>
        <time>2019-02-17T09:30:07.000Z</time>
      </trkpt>
      <trkpt lat="46.84149" lon="0.46046">
        <ele>104</ele>
        <time>2019-02-17T09:30:08.000Z</time>
      </trkpt>
      <trkpt lat="46.84152" lon="0.46048">
        <ele>104</ele>
        <time>2019-02-17T09:30:09.000Z</time>
      </trkpt>
      <trkpt lat="46.84155" lon="0.4605">
        <ele>105</ele>
        <time>2019-02-17T09:30:10.000Z</time>
      </trkpt>
      <trkpt lat="46.84159" lon="0.46052">
        <ele>105</ele>
        <time>2019-02-17T09:30:11.000Z</time>
      </trkpt>
      <trkpt lat="46.84162" lon="0.46054">
        <ele>105</ele>
        <time>2019-02-17T09:30:12.000Z</time>
      </trkpt>
      <trkpt lat="46.84165" lon="0.46056">
        <ele>105</ele>
        <time>2019-02-17T09:30:13.000Z</time>
      </trkpt>
      <trkpt lat="46.84168" lon="0.46058">
        <ele>106</ele>
        <time>2019-02-17T09:30:14.000Z</time>
      </trkpt>
      <trkpt lat="46.84172" lon="0.4606">
        <ele>106</ele>
        <time>2019-02-17T09:30:15.000Z</time>
      </trkpt>
      <trkpt lat="46.84175" lon="0.46062">
        <ele>106</ele>
        <time>2019-02-17T09:30:16.000Z</time>
      </trkpt>
      <trkpt lat="46.84178" lon="0.46064">
        <ele>106</ele>
        <time>2019-02-17T09:30:17.000Z</time>
      </trkpt>
      <trkpt lat="46.84181" lon="0.46066">
        <ele>107</ele>
        <time>2019-02-17T09:30:18.000Z</time>
      </trkpt>
      <trkpt lat="46.84184" lon="0.46068">
        <ele>107</ele>
        <time>2019-02-17T09:30:19.000Z</time>
      </trkpt>
      <trkpt lat="46.84187" lon="0.46069">
        <ele>108</ele>
        <time>2019-02-17T09:30:20.000Z</time>
      </trkpt>
      <trkpt lat="46.8419" lon="0.46071">
        <ele>108</ele>
        <time>2019-02-17T09:30:21.000Z</time>
      </trkpt>
      <trkpt lat="46.84193" lon="0.46073">
        <ele>108</ele>
        <time>2019-02-17T09:30:22.000Z</time>
      </trkpt>
      <trkpt lat="46.84197" lon="0.46075">
        <ele>109</ele>
        <time>2019-02-17T09:30:23.000Z</time>
      </trkpt>
      <trkpt lat="46.842" lon="0.46077">
        <ele>109</ele>
        <time>2019-02-17T09:30:24.000Z</time>
      </trkpt>
      <trkpt lat="46.84203" lon="0.46079">
        <ele>109</ele>
        <time>2019-02-17T09:30:25.000Z</time>
      </trkpt>
      <trkpt lat="46.84206" lon="0.46081">
        <ele>109</ele>
        <time>2019-02-17T09:30:26.000Z</time>
      </trkpt>
      <trkpt lat="46.84209" lon="0.46083">
        <ele>110</ele>
        <time>2019-02-17T09:30:27.000Z</time>
      </trkpt>
      <trkpt lat="46.84213" lon="0.46085">
        <ele>110</ele>
        <time>2019-02-17T09:30:28.000Z</time>
      </trkpt>
      <trkpt lat="46.84216" lon="0.46087">
        <ele>111</ele>
        <time>2019-02-17T09:30:29.000Z</time>
      </trkpt>
      <trkpt lat="46.84219" lon="0.46089">
        <ele>111</ele>
        <time>2019-02-17T09:30:30.000Z</time>
      </trkpt>
      <trkpt lat="46.84222" lon="0.46091">
        <ele>111</ele>
        <time>2019-02-17T09:30:31.000Z</time>
      </trkpt>
      <trkpt lat="46.84226" lon="0.46093">
        <ele>112</ele>
        <time>2019-02-17T09:30:32.000Z</time>
      </trkpt>
      <trkpt lat="46.84229" lon="0.46095">
        <ele>112</ele>
        <time>2019-02-17T09:30:33.000Z</time>
      </trkpt>
      <trkpt lat="46.84232" lon="0.46097">
        <ele>112</ele>
        <time>2019-02-17T09:30:34.000Z</time>
      </trkpt>
      <trkpt lat="46.84235" lon="0.46099">
        <ele>113</ele>
        <time>2019-02-17T09:30:35.000Z</time>
      </trkpt>
      <trkpt lat="46.84238" lon="0.46101">
        <ele>113</ele>
        <time>2019-02-17T09:30:36.000Z</time>
      </trkpt>
      <trkpt lat="46.84241" lon="0.46103">
        <ele>113</ele>
        <time>2019-02-17T09:30:37.000Z</time>
      </trkpt>
      <trkpt lat="46.84244" lon="0.46104">
        <ele>113</ele>
        <time>2019-02-17T09:30:38.000Z</time>
      </trkpt>
      <trkpt lat="46.84247" lon="0.46106">
        <ele>114</ele>
        <time>2019-02-17T09:30:39.000Z</time>
      </trkpt>
      <trkpt lat="46.8425" lon="0.46108">
        <ele>114</ele>
        <time>2019-02-17T09:30:40.000Z</time>
      </trkpt>
      <trkpt lat="46.84252" lon="0.4611">
        <ele>115</ele>
        <time>2019-02-17T09:30:41.000Z</time>
      </trkpt>
      <trkpt lat="46.84255" lon="0.46112">
        <ele>115</ele>
        <time>2019-02-17T09:30:42.000Z</time>
      </trkpt>
      <trkpt lat="46.84258" lon="0.46114">
        <ele>115</ele>
        <time>2019-02-17T09:30:43.000Z</time>
      </trkpt>
      <trkpt lat="46.84261" lon="0.46115">
        <ele>116</ele>
        <time>2019-02-17T09:30:44.000Z</time>
      </trkpt>
      <trkpt lat="46.84264" lon="0.46117">
        <ele>116</ele>
        <time>2019-02-17T09:30:45.000Z</time>
      </trkpt>
      <trkpt lat="46.84267" lon="0.46119">
        <ele>116</ele>
        <time>2019-02-17T09:30:46.000Z</time>
      </trkpt>
      <trkpt lat="46.8427" lon="0.46121">
        <ele>116</ele>
        <time>2019-02-17T09:30:47.000Z</time>
      </trkpt>
      <trkpt lat="46.84273" lon="0.46123">
        <ele>116</ele>
        <time>2019-02-17T09:30:48.000Z</time>
      </trkpt>
      <trkpt lat="46.84276" lon="0.46124">
        <ele>117</ele>
        <time>2019-02-17T09:30:49.000Z</time>
      </trkpt>
      <trkpt lat="46.84279" lon="0.46126">
        <ele>117</ele>
        <time>2019-02-17T09:30:50.000Z</time>
      </trkpt>
      <trkpt lat="46.84282" lon="0.46128">
        <ele>117</ele>
        <time>2019-02-17T09:30:51.000Z</time>
      </trkpt>
      <trkpt lat="46.84285" lon="0.4613">
        <ele>118</ele>
        <time>2019-02-17T09:30:52.000Z</time>
      </trkpt>
      <trkpt lat="46.84288" lon="0.46132">
        <ele>118</ele>
        <time>2019-02-17T09:30:53.000Z</time>
      </trkpt>
      <trkpt lat="46.84291" lon="0.46133">
        <ele>118</ele>
        <time>2019-02-17T09:30:54.000Z</time>
      </trkpt>
      <trkpt lat="46.84294" lon="0.46135">
        <ele>118</ele>
        <time>2019-02-17T09:30:55.000Z</time>
      </trkpt>
      <trkpt lat="46.84297" lon="0.46137">
        <ele>119</ele>
        <time>2019-02-17T09:30:56.000Z</time>
      </trkpt>
      <trkpt lat="46.843" lon="0.46139">
        <ele>119</ele>
        <time>2019-02-17T09:30:57.000Z</time>
      </trkpt>
      <trkpt lat="46.84303" lon="0.46141">
        <ele>119</ele>
        <time>2019-02-17T09:30:58.000Z</time>
      </trkpt>
      <trkpt lat="46.84306" lon="0.46143">
        <ele>119</ele>
        <time>2019-02-17T09:30:59.000Z</time>
      </trkpt>
      <trkpt lat="46.8431" lon="0.46145">
        <ele>119</ele>
        <time>2019-02-17T09:31:00.000Z</time>
      </trkpt>
      <trkpt lat="46.84313" lon="0.46147">
        <ele>120</ele>
        <time>2019-02-17T09:31:01.000Z</time>
      </trkpt>
      <trkpt lat="46.84316" lon="0.46149">
        <ele>120</ele>
        <time>2019-02-17T09:31:02.000Z</time>
      </trkpt>
      <trkpt lat="46.84319" lon="0.46151">
        <ele>120</ele>
        <time>2019-02-17T09:31:03.000Z</time>
      </trkpt>
      <trkpt lat="46.84323" lon="0.46153">
        <ele>120</ele>
        <time>2019-02-17T09:31:04.000Z</time>
      </trkpt>
      <trkpt lat="46.84326" lon="0.46155">
        <ele>120</ele>
        <time>2019-02-17T09:31:05.000Z</time>
      </trkpt>
      <trkpt lat="46.84329" lon="0.46157">
        <ele>120</ele>
        <time>2019-02-17T09:31:06.000Z</time>
      </trkpt>
      <trkpt lat="46.84333" lon="0.46158">
        <ele>120</ele>
        <time>2019-02-17T09:31:07.000Z</time>
      </trkpt>
      <trkpt lat="46.84336" lon="0.4616">
        <ele>120</ele>
        <time>2019-02-17T09:31:08.000Z</time>
      </trkpt>
      <trkpt lat="46.84339" lon="0.46162">
        <ele>121</ele>
        <time>2019-02-17T09:31:09.000Z</time>
      </trkpt>
      <trkpt lat="46.84342" lon="0.46164">
        <ele>121</ele>
        <time>2019-02-17T09:31:10.000Z</time>
      </trkpt>
      <trkpt lat="46.84346" lon="0.46166">
        <ele>121</ele>
        <time>2019-02-17T09:31:11.000Z</time>
      </trkpt>
      <trkpt lat="46.84349" lon="0.46168">
        <ele>121</ele>
        <time>2019-02-17T09:31:12.000Z</time>
      </trkpt>
      <trkpt lat="46.84351" lon="0.4617">
        <ele>122</ele>
        <time>2019-02-17T09:31:13.000Z</time>
      </trkpt>
      <trkpt lat="46.84354" lon="0.46172">
        <ele>122</ele>
        <time>2019-02-17T09:31:14.000Z</time>
      </trkpt>
      <trkpt lat="46.84357" lon="0.46174">
        <ele>122</ele>
        <time>2019-02-17T09:31:15.000Z</time>
      </trkpt>
      <trkpt lat="46.8436" lon="0.46176">
        <ele>122</ele>
        <time>2019-02-17T09:31:16.000Z</time>
      </trkpt>
      <trkpt lat="46.84363" lon="0.46177">
        <ele>122</ele>
        <time>2019-02-17T09:31:17.000Z</time>
      </trkpt>
      <trkpt lat="46.84366" lon="0.46179">
        <ele>122</ele>
        <time>2019-02-17T09:31:18.000Z</time>
      </trkpt>
      <trkpt lat="46.84369" lon="0.46181">
        <ele>122</ele>
        <time>2019-02-17T09:31:19.000Z</time>
      </trkpt>
      <trkpt lat="46.84372" lon="0.46183">
        <ele>123</ele>
        <time>2019-02-17T09:31:20.000Z</time>
      </trkpt>
      <trkpt lat="46.84375" lon="0.46185">
        <ele>123</ele>
        <time>2019-02-17T09:31:21.000Z</time>
      </trkpt>
      <trkpt lat="46.84378" lon="0.46187">
        <ele>123</ele>
        <time>2019-02-17T09:31:22.000Z</time>
      </trkpt>
      <trkpt lat="46.84382" lon="0.46189">
        <ele>123</ele>
        <time>2019-02-17T09:31:23.000Z</time>
      </trkpt>
      <trkpt lat="46.84384" lon="0.46191">
        <ele>123</ele>
        <time>2019-02-17T09:31:24.000Z</time>
      </trkpt>
      <trkpt lat="46.84387" lon="0.46193">
        <ele>123</ele>
        <time>2019-02-17T09:31:25.000Z</time>
      </trkpt>
      <trkpt lat="46.8439" lon="0.46195">
        <ele>123</ele>
        <time>2019-02-17T09:31:26.000Z</time>
      </trkpt>
      <trkpt lat="46.84393" lon="0.46197">
        <ele>124</ele>
        <time>2019-02-17T09:31:27.000Z</time>
      </trkpt>
      <trkpt lat="46.84396" lon="0.46199">
        <ele>124</ele>
        <time>2019-02-17T09:31:28.000Z</time>
      </trkpt>
      <trkpt lat="46.84398" lon="0.46201">
        <ele>124</ele>
        <time>2019-02-17T09:31:29.000Z</time>
      </trkpt>
      <trkpt lat="46.844" lon="0.46205">
        <ele>124</ele>
        <time>2019-02-17T09:31:30.000Z</time>
      </trkpt>
      <trkpt lat="46.844" lon="0.46209">
        <ele>124</ele>
        <time>2019-02-17T09:31:31.000Z</time>
      </trkpt>
      <trkpt lat="46.84398" lon="0.46212">
        <ele>123</ele>
        <time>2019-02-17T09:31:32.000Z</time>
      </trkpt>
      <trkpt lat="46.84396" lon="0.46214">
        <ele>123</ele>
        <time>2019-02-17T09:31:33.000Z</time>
      </trkpt>
      <trkpt lat="46.84394" lon="0.46215">
        <ele>123</ele>
        <time>2019-02-17T09:31:34.000Z</time>
      </trkpt>
      <trkpt lat="46.84391" lon="0.46217">
        <ele>124</ele>
        <time>2019-02-17T09:31:35.000Z</time>
      </trkpt>
      <trkpt lat="46.84389" lon="0.46219">
        <ele>123</ele>
        <time>2019-02-17T09:31:36.000Z</time>
      </trkpt>
      <trkpt lat="46.84387" lon="0.46221">
        <ele>124</ele>
        <time>2019-02-17T09:31:37.000Z</time>
      </trkpt>
      <trkpt lat="46.84385" lon="0.46224">
        <ele>124</ele>
        <time>2019-02-17T09:31:38.000Z</time>
      </trkpt>
      <trkpt lat="46.84382" lon="0.46226">
        <ele>124</ele>
        <time>2019-02-17T09:31:39.000Z</time>
      </trkpt>
      <trkpt lat="46.8438" lon="0.46229">
        <ele>124</ele>
        <time>2019-02-17T09:31:40.000Z</time>
      </trkpt>
      <trkpt lat="46.84378" lon="0.46232">
        <ele>124</ele>
        <time>2019-02-17T09:31:41.000Z</time>
      </trkpt>
      <trkpt lat="46.84376" lon="0.46235">
        <ele>124</ele>
        <time>2019-02-17T09:31:42.000Z</time>
      </trkpt>
      <trkpt lat="46.84374" lon="0.46238">
        <ele>125</ele>
        <time>2019-02-17T09:31:43.000Z</time>
      </trkpt>
      <trkpt lat="46.84372" lon="0.46241">
        <ele>125</ele>
        <time>2019-02-17T09:31:44.000Z</time>
      </trkpt>
      <trkpt lat="46.8437" lon="0.46244">
        <ele>125</ele>
        <time>2019-02-17T09:31:45.000Z</time>
      </trkpt>
      <trkpt lat="46.84368" lon="0.46248">
        <ele>125</ele>
        <time>2019-02-17T09:31:46.000Z</time>
      </trkpt>
      <trkpt lat="46.84367" lon="0.46251">
        <ele>126</ele>
        <time>2019-02-17T09:31:47.000Z</time>
      </trkpt>
      <trkpt lat="46.84365" lon="0.46255">
        <ele>126</ele>
        <time>2019-02-17T09:31:48.000Z</time>
      </trkpt>
      <trkpt lat="46.84363" lon="0.46259">
        <ele>126</ele>
        <time>2019-02-17T09:31:49.000Z</time>
      </trkpt>
      <trkpt lat="46.84362" lon="0.46263">
        <ele>126</ele>
        <time>2019-02-17T09:31:50.000Z</time>
      </trkpt>
      <trkpt lat="46.8436" lon="0.46267">
        <ele>126</ele>
        <time>2019-02-17T09:31:51.000Z</time>
      </trkpt>
      <trkpt lat="46.84359" lon="0.46271">
        <ele>126</ele>
        <time>2019-02-17T09:31:52.000Z</time>
      </trkpt>
      <trkpt lat="46.84357" lon="0.46275">
        <ele>126</ele>
        <time>2019-02-17T09:31:53.000Z</time>
      </trkpt>
      <trkpt lat="46.84355" lon="0.4628">
        <ele>127</ele>
        <time>2019-02-17T09:31:54.000Z</time>
      </trkpt>
      <trkpt lat="46.84353" lon="0.46284">
        <ele>127</ele>
        <time>2019-02-17T09:31:55.000Z</time>
      </trkpt>
      <trkpt lat="46.84351" lon="0.46288">
        <ele>127</ele>
        <time>2019-02-17T09:31:56.000Z</time>
      </trkpt>
      <trkpt lat="46.8435" lon="0.46292">
        <ele>127</ele>
        <time>2019-02-17T09:31:57.000Z</time>
      </trkpt>
      <trkpt lat="46.84348" lon="0.46296">
        <ele>128</ele>
        <time>2019-02-17T09:31:58.000Z</time>
      </trkpt>
      <trkpt lat="46.84346" lon="0.463">
        <ele>128</ele>
        <time>2019-02-17T09:31:59.000Z</time>
      </trkpt>
      <trkpt lat="46.84344" lon="0.46303">
        <ele>128</ele>
        <time>2019-02-17T09:32:00.000Z</time>
      </trkpt>
      <trkpt lat="46.84342" lon="0.46307">
        <ele>128</ele>
        <time>2019-02-17T09:32:01.000Z</time>
      </trkpt>
      <trkpt lat="46.8434" lon="0.46311">
        <ele>129</ele>
        <time>2019-02-17T09:32:02.000Z</time>
      </trkpt>
      <trkpt lat="46.84338" lon="0.46315">
        <ele>129</ele>
        <time>2019-02-17T09:32:03.000Z</time>
      </trkpt>
      <trkpt lat="46.84336" lon="0.46319">
        <ele>129</ele>
        <time>2019-02-17T09:32:04.000Z</time>
      </trkpt>
      <trkpt lat="46.84334" lon="0.46323">
        <ele>129</ele>
        <time>2019-02-17T09:32:05.000Z</time>
      </trkpt>
      <trkpt lat="46.84332" lon="0.46327">
        <ele>129</ele>
        <time>2019-02-17T09:32:06.000Z</time>
      </trkpt>
      <trkpt lat="46.8433" lon="0.46331">
        <ele>129</ele>
        <time>2019-02-17T09:32:07.000Z</time>
      </trkpt>
      <trkpt lat="46.84328" lon="0.46335">
        <ele>130</ele>
        <time>2019-02-17T09:32:08.000Z</time>
      </trkpt>
      <trkpt lat="46.84326" lon="0.46339">
        <ele>130</ele>
        <time>2019-02-17T09:32:09.000Z</time>
      </trkpt>
      <trkpt lat="46.84324" lon="0.46343">
        <ele>130</ele>
        <time>2019-02-17T09:32:10.000Z</time>
      </trkpt>
      <trkpt lat="46.84322" lon="0.46347">
        <ele>130</ele>
        <time>2019-02-17T09:32:11.000Z</time>
      </trkpt>
      <trkpt lat="46.8432" lon="0.46352">
        <ele>130</ele>
        <time>2019-02-17T09:32:12.000Z</time>
      </trkpt>
      <trkpt lat="46.84317" lon="0.46356">
        <ele>129</ele>
        <time>2019-02-17T09:32:13.000Z</time>
      </trkpt>
      <trkpt lat="46.84315" lon="0.46361">
        <ele>129</ele>
        <time>2019-02-17T09:32:14.000Z</time>
      </trkpt>
      <trkpt lat="46.84312" lon="0.46365">
        <ele>129</ele>
        <time>2019-02-17T09:32:15.000Z</time>
      </trkpt>
      <trkpt lat="46.84309" lon="0.4637">
        <ele>129</ele>
        <time>2019-02-17T09:32:16.000Z</time>
      </trkpt>
      <trkpt lat="46.84306" lon="0.46375">
        <ele>129</ele>
        <time>2019-02-17T09:32:17.000Z</time>
      </trkpt>
      <trkpt lat="46.84302" lon="0.46379">
        <ele>129</ele>
        <time>2019-02-17T09:32:18.000Z</time>
      </trkpt>
      <trkpt lat="46.84299" lon="0.46383">
        <ele>129</ele>
        <time>2019-02-17T09:32:19.000Z</time>
      </trkpt>
      <trkpt lat="46.84295" lon="0.46387">
        <ele>128</ele>
        <time>2019-02-17T09:32:20.000Z</time>
      </trkpt>
      <trkpt lat="46.84291" lon="0.46391">
        <ele>128</ele>
        <time>2019-02-17T09:32:21.000Z</time>
      </trkpt>
      <trkpt lat="46.84286" lon="0.46395">
        <ele>128</ele>
        <time>2019-02-17T09:32:22.000Z</time>
      </trkpt>
      <trkpt lat="46.84282" lon="0.46398">
        <ele>128</ele>
        <time>2019-02-17T09:32:23.000Z</time>
      </trkpt>
      <trkpt lat="46.84277" lon="0.46401">
        <ele>127</ele>
        <time>2019-02-17T09:32:24.000Z</time>
      </trkpt>
      <trkpt lat="46.84271" lon="0.46404">
        <ele>127</ele>
        <time>2019-02-17T09:32:25.000Z</time>
      </trkpt>
      <trkpt lat="46.84266" lon="0.46407">
        <ele>127</ele>
        <time>2019-02-17T09:32:26.000Z</time>
      </trkpt>
      <trkpt lat="46.8426" lon="0.46409">
        <ele>127</ele>
        <time>2019-02-17T09:32:27.000Z</time>
      </trkpt>
      <trkpt lat="46.84255" lon="0.46412">
        <ele>127</ele>
        <time>2019-02-17T09:32:28.000Z</time>
      </trkpt>
      <trkpt lat="46.8425" lon="0.46416">
        <ele>127</ele>
        <time>2019-02-17T09:32:29.000Z</time>
      </trkpt>
      <trkpt lat="46.84245" lon="0.4642">
        <ele>126</ele>
        <time>2019-02-17T09:32:30.000Z</time>
      </trkpt>
      <trkpt lat="46.8424" lon="0.46425">
        <ele>126</ele>
        <time>2019-02-17T09:32:31.000Z</time>
      </trkpt>
      <trkpt lat="46.84235" lon="0.46429">
        <ele>126</ele>
        <time>2019-02-17T09:32:32.000Z</time>
      </trkpt>
      <trkpt lat="46.84229" lon="0.46434">
        <ele>125</ele>
        <time>2019-02-17T09:32:33.000Z</time>
      </trkpt>
      <trkpt lat="46.84224" lon="0.46439">
        <ele>124</ele>
        <time>2019-02-17T09:32:34.000Z</time>
      </trkpt>
      <trkpt lat="46.84218" lon="0.46445">
        <ele>123</ele>
        <time>2019-02-17T09:32:35.000Z</time>
      </trkpt>
      <trkpt lat="46.84211" lon="0.46451">
        <ele>122</ele>
        <time>2019-02-17T09:32:36.000Z</time>
      </trkpt>
      <trkpt lat="46.84205" lon="0.46457">
        <ele>121</ele>
        <time>2019-02-17T09:32:37.000Z</time>
      </trkpt>
      <trkpt lat="46.84198" lon="0.46463">
        <ele>120</ele>
        <time>2019-02-17T09:32:38.000Z</time>
      </trkpt>
      <trkpt lat="46.84191" lon="0.4647">
        <ele>118</ele>
        <time>2019-02-17T09:32:39.000Z</time>
      </trkpt>
      <trkpt lat="46.84183" lon="0.46476">
        <ele>117</ele>
        <time>2019-02-17T09:32:40.000Z</time>
      </trkpt>
      <trkpt lat="46.84176" lon="0.46482">
        <ele>116</ele>
        <time>2019-02-17T09:32:41.000Z</time>
      </trkpt>
      <trkpt lat="46.84169" lon="0.46489">
        <ele>115</ele>
        <time>2019-02-17T09:32:42.000Z</time>
      </trkpt>
      <trkpt lat="46.84162" lon="0.46495">
        <ele>113</ele>
        <time>2019-02-17T09:32:43.000Z</time>
      </trkpt>
      <trkpt lat="46.84155" lon="0.46502">
        <ele>112</ele>
        <time>2019-02-17T09:32:44.000Z</time>
      </trkpt>
      <trkpt lat="46.84149" lon="0.46511">
        <ele>112</ele>
        <time>2019-02-17T09:32:45.000Z</time>
      </trkpt>
      <trkpt lat="46.84142" lon="0.46521">
        <ele>110</ele>
        <time>2019-02-17T09:32:46.000Z</time>
      </trkpt>
      <trkpt lat="46.84136" lon="0.46534">
        <ele>108</ele>
        <time>2019-02-17T09:32:47.000Z</time>
      </trkpt>
      <trkpt lat="46.84131" lon="0.46547">
        <ele>107</ele>
        <time>2019-02-17T09:32:48.000Z</time>
      </trkpt>
      <trkpt lat="46.84125" lon="0.46559">
        <ele>106</ele>
        <time>2019-02-17T09:32:49.000Z</time>
      </trkpt>
      <trkpt lat="46.84119" lon="0.46571">
        <ele>105</ele>
        <time>2019-02-17T09:32:50.000Z</time>
      </trkpt>
      <trkpt lat="46.84114" lon="0.46582">
        <ele>104</ele>
        <time>2019-02-17T09:32:51.000Z</time>
      </trkpt>
      <trkpt lat="46.84109" lon="0.46593">
        <ele>104</ele>
        <time>2019-02-17T09:32:52.000Z</time>
      </trkpt>
      <trkpt lat="46.84104" lon="0.46602">
        <ele>103</ele>
        <time>2019-02-17T09:32:53.000Z</time>
      </trkpt>
      <trkpt lat="46.84099" lon="0.46611">
        <ele>102</ele>
        <time>2019-02-17T09:32:54.000Z</time>
      </trkpt>
      <trkpt lat="46.84095" lon="0.46618">
        <ele>101</ele>
        <time>2019-02-17T09:32:55.000Z</time>
      </trkpt>
      <trkpt lat="46.84092" lon="0.46626">
        <ele>101</ele>
        <time>2019-02-17T09:32:56.000Z</time>
      </trkpt>
      <trkpt lat="46.84088" lon="0.46632">
        <ele>101</ele>
        <time>2019-02-17T09:32:57.000Z</time>
      </trkpt>
      <trkpt lat="46.84085" lon="0.46638">
        <ele>100</ele>
        <time>2019-02-17T09:32:58.000Z</time>
      </trkpt>
      <trkpt lat="46.84083" lon="0.46644">
        <ele>100</ele>
        <time>2019-02-17T09:32:59.000Z</time>
      </trkpt>
      <trkpt lat="46.84082" lon="0.46649">
        <ele>99</ele>
        <time>2019-02-17T09:33:00.000Z</time>
      </trkpt>
      <trkpt lat="46.84083" lon="0.46653">
        <ele>97</ele>
        <time>2019-02-17T09:33:01.000Z</time>
      </trkpt>
      <trkpt lat="46.84084" lon="0.46657">
        <ele>97</ele>
        <time>2019-02-17T09:33:02.000Z</time>
      </trkpt>
      <trkpt lat="46.84085" lon="0.46659">
        <ele>97</ele>
        <time>2019-02-17T09:33:03.000Z</time>
      </trkpt>
      <trkpt lat="46.84086" lon="0.46662">
        <ele>97</ele>
        <time>2019-02-17T09:33:04.000Z</time>
      </trkpt>
      <trkpt lat="46.84087" lon="0.46664">
        <ele>97</ele>
        <time>2019-02-17T09:33:05.000Z</time>
      </trkpt>
      <trkpt lat="46.84088" lon="0.46665">
        <ele>98</ele>
        <time>2019-02-17T09:33:06.000Z</time>
      </trkpt>
      <trkpt lat="46.8409" lon="0.46665">
        <ele>99</ele>
        <time>2019-02-17T09:33:07.000Z</time>
      </trkpt>
      <trkpt lat="46.84091" lon="0.46665">
        <ele>99</ele>
        <time>2019-02-17T09:33:08.000Z</time>
      </trkpt>
      <trkpt lat="46.84093" lon="0.46665">
        <ele>99</ele>
        <time>2019-02-17T09:33:09.000Z</time>
      </trkpt>
      <trkpt lat="46.84095" lon="0.46665">
        <ele>99</ele>
        <time>2019-02-17T09:33:10.000Z</time>
      </trkpt>
      <trkpt lat="46.84097" lon="0.46665">
        <ele>99</ele>
        <time>2019-02-17T09:33:11.000Z</time>
      </trkpt>
      <trkpt lat="46.84098" lon="0.46664">
        <ele>99</ele>
        <time>2019-02-17T09:33:12.000Z</time>
      </trkpt>
      <trkpt lat="46.841" lon="0.46664">
        <ele>100</ele>
        <time>2019-02-17T09:33:13.000Z</time>
      </trkpt>
      <trkpt lat="46.84101" lon="0.46663">
        <ele>100</ele>
        <time>2019-02-17T09:33:14.000Z</time>
      </trkpt>
      <trkpt lat="46.84103" lon="0.46663">
        <ele>100</ele>
        <time>2019-02-17T09:33:15.000Z</time>
      </trkpt>
      <trkpt lat="46.84105" lon="0.46663">
        <ele>100</ele>
        <time>2019-02-17T09:33:16.000Z</time>
      </trkpt>
      <trkpt lat="46.84108" lon="0.46662">
        <ele>100</ele>
        <time>2019-02-17T09:33:17.000Z</time>
      </trkpt>
      <trkpt lat="46.8411" lon="0.46662">
        <ele>100</ele>
        <time>2019-02-17T09:33:18.000Z</time>
      </trkpt>
      <trkpt lat="46.84112" lon="0.46662">
        <ele>101</ele>
        <time>2019-02-17T09:33:19.000Z</time>
      </trkpt>
      <trkpt lat="46.84115" lon="0.46661">
        <ele>103</ele>
        <time>2019-02-17T09:33:20.000Z</time>
      </trkpt>
      <trkpt lat="46.84118" lon="0.46661">
        <ele>103</ele>
        <time>2019-02-17T09:33:21.000Z</time>
      </trkpt>
      <trkpt lat="46.84121" lon="0.4666">
        <ele>104</ele>
        <time>2019-02-17T09:33:22.000Z</time>
      </trkpt>
      <trkpt lat="46.84124" lon="0.4666">
        <ele>105</ele>
        <time>2019-02-17T09:33:23.000Z</time>
      </trkpt>
      <trkpt lat="46.84127" lon="0.4666">
        <ele>105</ele>
        <time>2019-02-17T09:33:24.000Z</time>
      </trkpt>
      <trkpt lat="46.8413" lon="0.4666">
        <ele>107</ele>
        <time>2019-02-17T09:33:25.000Z</time>
      </trkpt>
      <trkpt lat="46.84132" lon="0.4666">
        <ele>107</ele>
        <time>2019-02-17T09:33:26.000Z</time>
      </trkpt>
      <trkpt lat="46.84135" lon="0.4666">
        <ele>108</ele>
        <time>2019-02-17T09:33:27.000Z</time>
      </trkpt>
      <trkpt lat="46.84138" lon="0.46661">
        <ele>108</ele>
        <time>2019-02-17T09:33:28.000Z</time>
      </trkpt>
      <trkpt lat="46.8414" lon="0.46661">
        <ele>108</ele>
        <time>2019-02-17T09:33:29.000Z</time>
      </trkpt>
      <trkpt lat="46.84142" lon="0.46661">
        <ele>108</ele>
        <time>2019-02-17T09:33:30.000Z</time>
      </trkpt>
      <trkpt lat="46.84145" lon="0.46662">
        <ele>107</ele>
        <time>2019-02-17T09:33:31.000Z</time>
      </trkpt>
      <trkpt lat="46.84147" lon="0.46662">
        <ele>108</ele>
        <time>2019-02-17T09:33:32.000Z</time>
      </trkpt>
      <trkpt lat="46.8415" lon="0.46662">
        <ele>108</ele>
        <time>2019-02-17T09:33:33.000Z</time>
      </trkpt>
      <trkpt lat="46.84152" lon="0.46663">
        <ele>108</ele>
        <time>2019-02-17T09:33:34.000Z</time>
      </trkpt>
      <trkpt lat="46.84154" lon="0.46663">
        <ele>108</ele>
        <time>2019-02-17T09:33:35.000Z</time>
      </trkpt>
      <trkpt lat="46.84157" lon="0.46664">
        <ele>108</ele>
        <time>2019-02-17T09:33:36.000Z</time>
      </trkpt>
      <trkpt lat="46.8416" lon="0.46664">
        <ele>109</ele>
        <time>2019-02-17T09:33:37.000Z</time>
      </trkpt>
      <trkpt lat="46.84162" lon="0.46664">
        <ele>110</ele>
        <time>2019-02-17T09:33:38.000Z</time>
      </trkpt>
      <trkpt lat="46.84165" lon="0.46665">
        <ele>110</ele>
        <time>2019-02-17T09:33:39.000Z</time>
      </trkpt>
      <trkpt lat="46.84167" lon="0.46665">
        <ele>110</ele>
        <time>2019-02-17T09:33:40.000Z</time>
      </trkpt>
      <trkpt lat="46.84169" lon="0.46666">
        <ele>111</ele>
        <time>2019-02-17T09:33:41.000Z</time>
      </trkpt>
      <trkpt lat="46.84172" lon="0.46666">
        <ele>111</ele>
        <time>2019-02-17T09:33:42.000Z</time>
      </trkpt>
      <trkpt lat="46.84174" lon="0.46666">
        <ele>111</ele>
        <time>2019-02-17T09:33:43.000Z</time>
      </trkpt>
      <trkpt lat="46.84177" lon="0.46666">
        <ele>112</ele>
        <time>2019-02-17T09:33:44.000Z</time>
      </trkpt>
      <trkpt lat="46.8418" lon="0.46666">
        <ele>112</ele>
        <time>2019-02-17T09:33:45.000Z</time>
      </trkpt>
      <trkpt lat="46.84183" lon="0.46666">
        <ele>113</ele>
        <time>2019-02-17T09:33:46.000Z</time>
      </trkpt>
      <trkpt lat="46.84186" lon="0.46666">
        <ele>113</ele>
        <time>2019-02-17T09:33:47.000Z</time>
      </trkpt>
      <trkpt lat="46.84188" lon="0.46666">
        <ele>113</ele>
        <time>2019-02-17T09:33:48.000Z</time>
      </trkpt>
      <trkpt lat="46.84191" lon="0.46667">
        <ele>114</ele>
        <time>2019-02-17T09:33:49.000Z</time>
      </trkpt>
      <trkpt lat="46.84194" lon="0.46667">
        <ele>114</ele>
        <time>2019-02-17T09:33:50.000Z</time>
      </trkpt>
      <trkpt lat="46.84197" lon="0.46668">
        <ele>115</ele>
        <time>2019-02-17T09:33:51.000Z</time>
      </trkpt>
      <trkpt lat="46.84199" lon="0.46669">
        <ele>115</ele>
        <time>2019-02-17T09:33:52.000Z</time>
      </trkpt>
      <trkpt lat="46.84202" lon="0.4667">
        <ele>116</ele>
        <time>2019-02-17T09:33:53.000Z</time>
      </trkpt>
      <trkpt lat="46.84204" lon="0.46671">
        <ele>116</ele>
        <time>2019-02-17T09:33:54.000Z</time>
      </trkpt>
      <trkpt lat="46.84207" lon="0.46671">
        <ele>117</ele>
        <time>2019-02-17T09:33:55.000Z</time>
      </trkpt>
      <trkpt lat="46.8421" lon="0.46672">
        <ele>117</ele>
        <time>2019-02-17T09:33:56.000Z</time>
      </trkpt>
      <trkpt lat="46.84213" lon="0.46673">
        <ele>117</ele>
        <time>2019-02-17T09:33:57.000Z</time>
      </trkpt>
      <trkpt lat="46.84215" lon="0.46674">
        <ele>117</ele>
        <time>2019-02-17T09:33:58.000Z</time>
      </trkpt>
      <trkpt lat="46.84218" lon="0.46674">
        <ele>117</ele>
        <time>2019-02-17T09:33:59.000Z</time>
      </trkpt>
      <trkpt lat="46.84221" lon="0.46675">
        <ele>117</ele>
        <time>2019-02-17T09:34:00.000Z</time>
      </trkpt>
      <trkpt lat="46.84224" lon="0.46676">
        <ele>117</ele>
        <time>2019-02-17T09:34:01.000Z</time>
      </trkpt>
      <trkpt lat="46.84227" lon="0.46677">
        <ele>117</ele>
        <time>2019-02-17T09:34:02.000Z</time>
      </trkpt>
      <trkpt lat="46.84229" lon="0.46678">
        <ele>117</ele>
        <time>2019-02-17T09:34:03.000Z</time>
      </trkpt>
      <trkpt lat="46.84232" lon="0.46679">
        <ele>116</ele>
        <time>2019-02-17T09:34:04.000Z</time>
      </trkpt>
      <trkpt lat="46.84235" lon="0.46679">
        <ele>116</ele>
        <time>2019-02-17T09:34:05.000Z</time>
      </trkpt>
      <trkpt lat="46.84238" lon="0.4668">
        <ele>116</ele>
        <time>2019-02-17T09:34:06.000Z</time>
      </trkpt>
      <trkpt lat="46.84241" lon="0.46681">
        <ele>116</ele>
        <time>2019-02-17T09:34:07.000Z</time>
      </trkpt>
      <trkpt lat="46.84244" lon="0.46681">
        <ele>115</ele>
        <time>2019-02-17T09:34:08.000Z</time>
      </trkpt>
      <trkpt lat="46.84246" lon="0.46682">
        <ele>115</ele>
        <time>2019-02-17T09:34:09.000Z</time>
      </trkpt>
      <trkpt lat="46.84249" lon="0.46683">
        <ele>114</ele>
        <time>2019-02-17T09:34:10.000Z</time>
      </trkpt>
      <trkpt lat="46.84251" lon="0.46684">
        <ele>114</ele>
        <time>2019-02-17T09:34:11.000Z</time>
      </trkpt>
      <trkpt lat="46.84254" lon="0.46685">
        <ele>114</ele>
        <time>2019-02-17T09:34:12.000Z</time>
      </trkpt>
      <trkpt lat="46.84256" lon="0.46686">
        <ele>114</ele>
        <time>2019-02-17T09:34:13.000Z</time>
      </trkpt>
      <trkpt lat="46.84259" lon="0.46686">
        <ele>114</ele>
        <time>2019-02-17T09:34:14.000Z</time>
      </trkpt>
      <trkpt lat="46.84262" lon="0.46687">
        <ele>114</ele>
        <time>2019-02-17T09:34:15.000Z</time>
      </trkpt>
      <trkpt lat="46.84265" lon="0.46688">
        <ele>114</ele>
        <time>2019-02-17T09:34:16.000Z</time>
      </trkpt>
      <trkpt lat="46.84268" lon="0.46688">
        <ele>113</ele>
        <time>2019-02-17T09:34:17.000Z</time>
      </trkpt>
      <trkpt lat="46.8427" lon="0.46689">
        <ele>113</ele>
        <time>2019-02-17T09:34:18.000Z</time>
      </trkpt>
      <trkpt lat="46.84273" lon="0.4669">
        <ele>113</ele>
        <time>2019-02-17T09:34:19.000Z</time>
      </trkpt>
      <trkpt lat="46.84275" lon="0.46691">
        <ele>113</ele>
        <time>2019-02-17T09:34:20.000Z</time>
      </trkpt>
      <trkpt lat="46.84278" lon="0.46692">
        <ele>113</ele>
        <time>2019-02-17T09:34:21.000Z</time>
      </trkpt>
      <trkpt lat="46.84281" lon="0.46693">
        <ele>113</ele>
        <time>2019-02-17T09:34:22.000Z</time>
      </trkpt>
      <trkpt lat="46.84283" lon="0.46693">
        <ele>113</ele>
        <time>2019-02-17T09:34:23.000Z</time>
      </trkpt>
      <trkpt lat="46.84286" lon="0.46693">
        <ele>114</ele>
        <time>2019-02-17T09:34:24.000Z</time>
      </trkpt>
      <trkpt lat="46.84289" lon="0.46694">
        <ele>116</ele>
        <time>2019-02-17T09:34:25.000Z</time>
      </trkpt>
      <trkpt lat="46.84293" lon="0.46694">
        <ele>117</ele>
        <time>2019-02-17T09:34:26.000Z</time>
      </trkpt>
      <trkpt lat="46.84297" lon="0.46695">
        <ele>119</ele>
        <time>2019-02-17T09:34:27.000Z</time>
      </trkpt>
      <trkpt lat="46.843" lon="0.46696">
        <ele>120</ele>
        <time>2019-02-17T09:34:28.000Z</time>
      </trkpt>
      <trkpt lat="46.84303" lon="0.46697">
        <ele>120</ele>
        <time>2019-02-17T09:34:29.000Z</time>
      </trkpt>
      <trkpt lat="46.84306" lon="0.46698">
        <ele>121</ele>
        <time>2019-02-17T09:34:30.000Z</time>
      </trkpt>
      <trkpt lat="46.84309" lon="0.46699">
        <ele>122</ele>
        <time>2019-02-17T09:34:31.000Z</time>
      </trkpt>
      <trkpt lat="46.84312" lon="0.467">
        <ele>123</ele>
        <time>2019-02-17T09:34:32.000Z</time>
      </trkpt>
      <trkpt lat="46.84315" lon="0.46701">
        <ele>123</ele>
        <time>2019-02-17T09:34:33.000Z</time>
      </trkpt>
      <trkpt lat="46.84318" lon="0.46702">
        <ele>124</ele>
        <time>2019-02-17T09:34:34.000Z</time>
      </trkpt>
      <trkpt lat="46.84321" lon="0.46702">
        <ele>125</ele>
        <time>2019-02-17T09:34:35.000Z</time>
      </trkpt>
      <trkpt lat="46.84324" lon="0.46703">
        <ele>126</ele>
        <time>2019-02-17T09:34:36.000Z</time>
      </trkpt>
      <trkpt lat="46.84327" lon="0.46704">
        <ele>127</ele>
        <time>2019-02-17T09:34:37.000Z</time>
      </trkpt>
      <trkpt lat="46.8433" lon="0.46704">
        <ele>127</ele>
        <time>2019-02-17T09:34:38.000Z</time>
      </trkpt>
      <trkpt lat="46.84333" lon="0.46705">
        <ele>128</ele>
        <time>2019-02-17T09:34:39.000Z</time>
      </trkpt>
      <trkpt lat="46.84336" lon="0.46706">
        <ele>128</ele>
        <time>2019-02-17T09:34:40.000Z</time>
      </trkpt>
      <trkpt lat="46.84339" lon="0.46706">
        <ele>128</ele>
        <time>2019-02-17T09:34:41.000Z</time>
      </trkpt>
      <trkpt lat="46.84341" lon="0.46707">
        <ele>128</ele>
        <time>2019-02-17T09:34:42.000Z</time>
      </trkpt>
      <trkpt lat="46.84344" lon="0.46707">
        <ele>129</ele>
        <time>2019-02-17T09:34:43.000Z</time>
      </trkpt>
      <trkpt lat="46.84347" lon="0.46708">
        <ele>129</ele>
        <time>2019-02-17T09:34:44.000Z</time>
      </trkpt>
      <trkpt lat="46.8435" lon="0.46708">
        <ele>129</ele>
        <time>2019-02-17T09:34:45.000Z</time>
      </trkpt>
      <trkpt lat="46.84352" lon="0.46709">
        <ele>129</ele>
        <time>2019-02-17T09:34:46.000Z</time>
      </trkpt>
      <trkpt lat="46.84355" lon="0.46709">
        <ele>129</ele>
        <time>2019-02-17T09:34:47.000Z</time>
      </trkpt>
      <trkpt lat="46.84357" lon="0.46709">
        <ele>129</ele>
        <time>2019-02-17T09:34:48.000Z</time>
      </trkpt>
      <trkpt lat="46.84359" lon="0.46709">
        <ele>129</ele>
        <time>2019-02-17T09:34:49.000Z</time>
      </trkpt>
      <trkpt lat="46.84362" lon="0.46709">
        <ele>129</ele>
        <time>2019-02-17T09:34:50.000Z</time>
      </trkpt>
      <trkpt lat="46.84364" lon="0.46709">
        <ele>129</ele>
        <time>2019-02-17T09:34:51.000Z</time>
      </trkpt>
      <trkpt lat="46.84367" lon="0.46709">
        <ele>130</ele>
        <time>2019-02-17T09:34:52.000Z</time>
      </trkpt>
      <trkpt lat="46.84369" lon="0.46709">
        <ele>130</ele>
        <time>2019-02-17T09:34:53.000Z</time>
      </trkpt>
      <trkpt lat="46.84372" lon="0.4671">
        <ele>131</ele>
        <time>2019-02-17T09:34:54.000Z</time>
      </trkpt>
      <trkpt lat="46.84374" lon="0.4671">
        <ele>131</ele>
        <time>2019-02-17T09:34:55.000Z</time>
      </trkpt>
      <trkpt lat="46.84377" lon="0.46711">
        <ele>131</ele>
        <time>2019-02-17T09:34:56.000Z</time>
      </trkpt>
      <trkpt lat="46.84379" lon="0.46712">
        <ele>132</ele>
        <time>2019-02-17T09:34:57.000Z</time>
      </trkpt>
      <trkpt lat="46.84381" lon="0.46712">
        <ele>132</ele>
        <time>2019-02-17T09:34:58.000Z</time>
      </trkpt>
      <trkpt lat="46.84384" lon="0.46712">
        <ele>132</ele>
        <time>2019-02-17T09:34:59.000Z</time>
      </trkpt>
      <trkpt lat="46.84386" lon="0.46712">
        <ele>132</ele>
        <time>2019-02-17T09:35:00.000Z</time>
      </trkpt>
      <trkpt lat="46.84388" lon="0.46712">
        <ele>132</ele>
        <time>2019-02-17T09:35:01.000Z</time>
      </trkpt>
      <trkpt lat="46.8439" lon="0.46712">
        <ele>133</ele>
        <time>2019-02-17T09:35:02.000Z</time>
      </trkpt>
      <trkpt lat="46.84391" lon="0.46712">
        <ele>133</ele>
        <time>2019-02-17T09:35:03.000Z</time>
      </trkpt>
      <trkpt lat="46.84393" lon="0.46711">
        <ele>134</ele>
        <time>2019-02-17T09:35:04.000Z</time>
      </trkpt>
      <trkpt lat="46.84395" lon="0.4671">
        <ele>134</ele>
        <time>2019-02-17T09:35:05.000Z</time>
      </trkpt>
      <trkpt lat="46.84397" lon="0.4671">
        <ele>134</ele>
        <time>2019-02-17T09:35:06.000Z</time>
      </trkpt>
      <trkpt lat="46.84399" lon="0.46709">
        <ele>134</ele>
        <time>2019-02-17T09:35:07.000Z</time>
      </trkpt>
      <trkpt lat="46.84401" lon="0.46709">
        <ele>135</ele>
        <time>2019-02-17T09:35:08.000Z</time>
      </trkpt>
      <trkpt lat="46.84403" lon="0.46708">
        <ele>135</ele>
        <time>2019-02-17T09:35:09.000Z</time>
      </trkpt>
      <trkpt lat="46.84404" lon="0.46707">
        <ele>135</ele>
        <time>2019-02-17T09:35:10.000Z</time>
      </trkpt>
      <trkpt lat="46.84406" lon="0.46707">
        <ele>135</ele>
        <time>2019-02-17T09:35:11.000Z</time>
      </trkpt>
      <trkpt lat="46.84408" lon="0.46706">
        <ele>135</ele>
        <time>2019-02-17T09:35:12.000Z</time>
      </trkpt>
      <trkpt lat="46.8441" lon="0.46705">
        <ele>135</ele>
        <time>2019-02-17T09:35:13.000Z</time>
      </trkpt>
      <trkpt lat="46.84412" lon="0.46705">
        <ele>135</ele>
        <time>2019-02-17T09:35:14.000Z</time>
      </trkpt>
      <trkpt lat="46.84415" lon="0.46704">
        <ele>135</ele>
        <time>2019-02-17T09:35:15.000Z</time>
      </trkpt>
      <trkpt lat="46.84417" lon="0.46703">
        <ele>134</ele>
        <time>2019-02-17T09:35:16.000Z</time>
      </trkpt>
      <trkpt lat="46.84419" lon="0.46702">
        <ele>134</ele>
        <time>2019-02-17T09:35:17.000Z</time>
      </trkpt>
      <trkpt lat="46.84421" lon="0.46701">
        <ele>134</ele>
        <time>2019-02-17T09:35:18.000Z</time>
      </trkpt>
      <trkpt lat="46.84424" lon="0.467">
        <ele>134</ele>
        <time>2019-02-17T09:35:19.000Z</time>
      </trkpt>
      <trkpt lat="46.84426" lon="0.46699">
        <ele>135</ele>
        <time>2019-02-17T09:35:20.000Z</time>
      </trkpt>
      <trkpt lat="46.8443" lon="0.46698">
        <ele>135</ele>
        <time>2019-02-17T09:35:21.000Z</time>
      </trkpt>
      <trkpt lat="46.84433" lon="0.46696">
        <ele>136</ele>
        <time>2019-02-17T09:35:22.000Z</time>
      </trkpt>
      <trkpt lat="46.84436" lon="0.46695">
        <ele>136</ele>
        <time>2019-02-17T09:35:23.000Z</time>
      </trkpt>
      <trkpt lat="46.84438" lon="0.46694">
        <ele>137</ele>
        <time>2019-02-17T09:35:24.000Z</time>
      </trkpt>
      <trkpt lat="46.84441" lon="0.46693">
        <ele>137</ele>
        <time>2019-02-17T09:35:25.000Z</time>
      </trkpt>
      <trkpt lat="46.84444" lon="0.46692">
        <ele>138</ele>
        <time>2019-02-17T09:35:26.000Z</time>
      </trkpt>
      <trkpt lat="46.84447" lon="0.46691">
        <ele>139</ele>
        <time>2019-02-17T09:35:27.000Z</time>
      </trkpt>
      <trkpt lat="46.84449" lon="0.46691">
        <ele>139</ele>
        <time>2019-02-17T09:35:28.000Z</time>
      </trkpt>
      <trkpt lat="46.84453" lon="0.46692">
        <ele>140</ele>
        <time>2019-02-17T09:35:29.000Z</time>
      </trkpt>
      <trkpt lat="46.84456" lon="0.46693">
        <ele>141</ele>
        <time>2019-02-17T09:35:30.000Z</time>
      </trkpt>
      <trkpt lat="46.84459" lon="0.46694">
        <ele>141</ele>
        <time>2019-02-17T09:35:31.000Z</time>
      </trkpt>
      <trkpt lat="46.84462" lon="0.46695">
        <ele>141</ele>
        <time>2019-02-17T09:35:32.000Z</time>
      </trkpt>
      <trkpt lat="46.84465" lon="0.46697">
        <ele>141</ele>
        <time>2019-02-17T09:35:33.000Z</time>
      </trkpt>
      <trkpt lat="46.84469" lon="0.46698">
        <ele>141</ele>
        <time>2019-02-17T09:35:34.000Z</time>
      </trkpt>
      <trkpt lat="46.84472" lon="0.46699">
        <ele>141</ele>
        <time>2019-02-17T09:35:35.000Z</time>
      </trkpt>
      <trkpt lat="46.84475" lon="0.46701">
        <ele>142</ele>
        <time>2019-02-17T09:35:36.000Z</time>
      </trkpt>
      <trkpt lat="46.84478" lon="0.46702">
        <ele>141</ele>
        <time>2019-02-17T09:35:37.000Z</time>
      </trkpt>
      <trkpt lat="46.84481" lon="0.46703">
        <ele>141</ele>
        <time>2019-02-17T09:35:38.000Z</time>
      </trkpt>
      <trkpt lat="46.84484" lon="0.46704">
        <ele>141</ele>
        <time>2019-02-17T09:35:39.000Z</time>
      </trkpt>
      <trkpt lat="46.84487" lon="0.46705">
        <ele>140</ele>
        <time>2019-02-17T09:35:40.000Z</time>
      </trkpt>
      <trkpt lat="46.8449" lon="0.46706">
        <ele>140</ele>
        <time>2019-02-17T09:35:41.000Z</time>
      </trkpt>
      <trkpt lat="46.84493" lon="0.46707">
        <ele>140</ele>
        <time>2019-02-17T09:35:42.000Z</time>
      </trkpt>
      <trkpt lat="46.84497" lon="0.46709">
        <ele>140</ele>
        <time>2019-02-17T09:35:43.000Z</time>
      </trkpt>
      <trkpt lat="46.84501" lon="0.4671">
        <ele>140</ele>
        <time>2019-02-17T09:35:44.000Z</time>
      </trkpt>
      <trkpt lat="46.84504" lon="0.46711">
        <ele>140</ele>
        <time>2019-02-17T09:35:45.000Z</time>
      </trkpt>
      <trkpt lat="46.84507" lon="0.46712">
        <ele>140</ele>
        <time>2019-02-17T09:35:46.000Z</time>
      </trkpt>
      <trkpt lat="46.84509" lon="0.46714">
        <ele>140</ele>
        <time>2019-02-17T09:35:47.000Z</time>
      </trkpt>
      <trkpt lat="46.84512" lon="0.46715">
        <ele>140</ele>
        <time>2019-02-17T09:35:48.000Z</time>
      </trkpt>
      <trkpt lat="46.84515" lon="0.46716">
        <ele>140</ele>
        <time>2019-02-17T09:35:49.000Z</time>
      </trkpt>
      <trkpt lat="46.84518" lon="0.46717">
        <ele>140</ele>
        <time>2019-02-17T09:35:50.000Z</time>
      </trkpt>
      <trkpt lat="46.84521" lon="0.46717">
        <ele>140</ele>
        <time>2019-02-17T09:35:51.000Z</time>
      </trkpt>
      <trkpt lat="46.84524" lon="0.46718">
        <ele>139</ele>
        <time>2019-02-17T09:35:52.000Z</time>
      </trkpt>
      <trkpt lat="46.84526" lon="0.46718">
        <ele>140</ele>
        <time>2019-02-17T09:35:53.000Z</time>
      </trkpt>
      <trkpt lat="46.84529" lon="0.46719">
        <ele>139</ele>
        <time>2019-02-17T09:35:54.000Z</time>
      </trkpt>
      <trkpt lat="46.84531" lon="0.4672">
        <ele>139</ele>
        <time>2019-02-17T09:35:55.000Z</time>
      </trkpt>
      <trkpt lat="46.84534" lon="0.46722">
        <ele>139</ele>
        <time>2019-02-17T09:35:56.000Z</time>
      </trkpt>
      <trkpt lat="46.84538" lon="0.46723">
        <ele>139</ele>
        <time>2019-02-17T09:35:57.000Z</time>
      </trkpt>
      <trkpt lat="46.84541" lon="0.46725">
        <ele>139</ele>
        <time>2019-02-17T09:35:58.000Z</time>
      </trkpt>
      <trkpt lat="46.84543" lon="0.46726">
        <ele>138</ele>
        <time>2019-02-17T09:35:59.000Z</time>
      </trkpt>
      <trkpt lat="46.84546" lon="0.46727">
        <ele>139</ele>
        <time>2019-02-17T09:36:00.000Z</time>
      </trkpt>
      <trkpt lat="46.84549" lon="0.46729">
        <ele>140</ele>
        <time>2019-02-17T09:36:01.000Z</time>
      </trkpt>
      <trkpt lat="46.84551" lon="0.46731">
        <ele>141</ele>
        <time>2019-02-17T09:36:02.000Z</time>
      </trkpt>
      <trkpt lat="46.84554" lon="0.46732">
        <ele>142</ele>
        <time>2019-02-17T09:36:03.000Z</time>
      </trkpt>
      <trkpt lat="46.84557" lon="0.46734">
        <ele>142</ele>
        <time>2019-02-17T09:36:04.000Z</time>
      </trkpt>
      <trkpt lat="46.84561" lon="0.46736">
        <ele>142</ele>
        <time>2019-02-17T09:36:05.000Z</time>
      </trkpt>
      <trkpt lat="46.84563" lon="0.46738">
        <ele>142</ele>
        <time>2019-02-17T09:36:06.000Z</time>
      </trkpt>
      <trkpt lat="46.84566" lon="0.4674">
        <ele>142</ele>
        <time>2019-02-17T09:36:07.000Z</time>
      </trkpt>
      <trkpt lat="46.84569" lon="0.46741">
        <ele>142</ele>
        <time>2019-02-17T09:36:08.000Z</time>
      </trkpt>
      <trkpt lat="46.84572" lon="0.46742">
        <ele>141</ele>
        <time>2019-02-17T09:36:09.000Z</time>
      </trkpt>
      <trkpt lat="46.84574" lon="0.46743">
        <ele>141</ele>
        <time>2019-02-17T09:36:10.000Z</time>
      </trkpt>
      <trkpt lat="46.84577" lon="0.46745">
        <ele>141</ele>
        <time>2019-02-17T09:36:11.000Z</time>
      </trkpt>
      <trkpt lat="46.8458" lon="0.46748">
        <ele>143</ele>
        <time>2019-02-17T09:36:12.000Z</time>
      </trkpt>
      <trkpt lat="46.84583" lon="0.46751">
        <ele>144</ele>
        <time>2019-02-17T09:36:13.000Z</time>
      </trkpt>
      <trkpt lat="46.84584" lon="0.46756">
        <ele>143</ele>
        <time>2019-02-17T09:36:14.000Z</time>
      </trkpt>
      <trkpt lat="46.84585" lon="0.46759">
        <ele>142</ele>
        <time>2019-02-17T09:36:15.000Z</time>
      </trkpt>
      <trkpt lat="46.84586" lon="0.46763">
        <ele>142</ele>
        <time>2019-02-17T09:36:16.000Z</time>
      </trkpt>
      <trkpt lat="46.84587" lon="0.46766">
        <ele>143</ele>
        <time>2019-02-17T09:36:17.000Z</time>
      </trkpt>
      <trkpt lat="46.84588" lon="0.4677">
        <ele>142</ele>
        <time>2019-02-17T09:36:18.000Z</time>
      </trkpt>
      <trkpt lat="46.84588" lon="0.46775">
        <ele>142</ele>
        <time>2019-02-17T09:36:19.000Z</time>
      </trkpt>
      <trkpt lat="46.84589" lon="0.46779">
        <ele>141</ele>
        <time>2019-02-17T09:36:20.000Z</time>
      </trkpt>
      <trkpt lat="46.84589" lon="0.46785">
        <ele>140</ele>
        <time>2019-02-17T09:36:21.000Z</time>
      </trkpt>
      <trkpt lat="46.84589" lon="0.4679">
        <ele>140</ele>
        <time>2019-02-17T09:36:22.000Z</time>
      </trkpt>
      <trkpt lat="46.84588" lon="0.46796">
        <ele>139</ele>
        <time>2019-02-17T09:36:23.000Z</time>
      </trkpt>
      <trkpt lat="46.84588" lon="0.46802">
        <ele>138</ele>
        <time>2019-02-17T09:36:24.000Z</time>
      </trkpt>
      <trkpt lat="46.84587" lon="0.46808">
        <ele>137</ele>
        <time>2019-02-17T09:36:25.000Z</time>
      </trkpt>
      <trkpt lat="46.84588" lon="0.46813">
        <ele>135</ele>
        <time>2019-02-17T09:36:26.000Z</time>
      </trkpt>
      <trkpt lat="46.84588" lon="0.46818">
        <ele>135</ele>
        <time>2019-02-17T09:36:27.000Z</time>
      </trkpt>
      <trkpt lat="46.84589" lon="0.46823">
        <ele>133</ele>
        <time>2019-02-17T09:36:28.000Z</time>
      </trkpt>
      <trkpt lat="46.84589" lon="0.46828">
        <ele>133</ele>
        <time>2019-02-17T09:36:29.000Z</time>
      </trkpt>
      <trkpt lat="46.84589" lon="0.46834">
        <ele>135</ele>
        <time>2019-02-17T09:36:30.000Z</time>
      </trkpt>
      <trkpt lat="46.84588" lon="0.46841">
        <ele>136</ele>
        <time>2019-02-17T09:36:31.000Z</time>
      </trkpt>
      <trkpt lat="46.84588" lon="0.46848">
        <ele>136</ele>
        <time>2019-02-17T09:36:32.000Z</time>
      </trkpt>
      <trkpt lat="46.84588" lon="0.46854">
        <ele>136</ele>
        <time>2019-02-17T09:36:33.000Z</time>
      </trkpt>
      <trkpt lat="46.84587" lon="0.4686">
        <ele>136</ele>
        <time>2019-02-17T09:36:34.000Z</time>
      </trkpt>
      <trkpt lat="46.84587" lon="0.46866">
        <ele>136</ele>
        <time>2019-02-17T09:36:35.000Z</time>
      </trkpt>
      <trkpt lat="46.84586" lon="0.46872">
        <ele>137</ele>
        <time>2019-02-17T09:36:36.000Z</time>
      </trkpt>
      <trkpt lat="46.84586" lon="0.46878">
        <ele>137</ele>
        <time>2019-02-17T09:36:37.000Z</time>
      </trkpt>
      <trkpt lat="46.84585" lon="0.46884">
        <ele>138</ele>
        <time>2019-02-17T09:36:38.000Z</time>
      </trkpt>
      <trkpt lat="46.84585" lon="0.46891">
        <ele>138</ele>
        <time>2019-02-17T09:36:39.000Z</time>
      </trkpt>
      <trkpt lat="46.84584" lon="0.46897">
        <ele>139</ele>
        <time>2019-02-17T09:36:40.000Z</time>
      </trkpt>
      <trkpt lat="46.84584" lon="0.46903">
        <ele>139</ele>
        <time>2019-02-17T09:36:41.000Z</time>
      </trkpt>
      <trkpt lat="46.84583" lon="0.46909">
        <ele>139</ele>
        <time>2019-02-17T09:36:42.000Z</time>
      </trkpt>
      <trkpt lat="46.84582" lon="0.46914">
        <ele>139</ele>
        <time>2019-02-17T09:36:43.000Z</time>
      </trkpt>
      <trkpt lat="46.84581" lon="0.46919">
        <ele>138</ele>
        <time>2019-02-17T09:36:44.000Z</time>
      </trkpt>
      <trkpt lat="46.8458" lon="0.46924">
        <ele>139</ele>
        <time>2019-02-17T09:36:45.000Z</time>
      </trkpt>
      <trkpt lat="46.84579" lon="0.4693">
        <ele>138</ele>
        <time>2019-02-17T09:36:46.000Z</time>
      </trkpt>
      <trkpt lat="46.84578" lon="0.46935">
        <ele>138</ele>
        <time>2019-02-17T09:36:47.000Z</time>
      </trkpt>
      <trkpt lat="46.84578" lon="0.4694">
        <ele>137</ele>
        <time>2019-02-17T09:36:48.000Z</time>
      </trkpt>
      <trkpt lat="46.84578" lon="0.46945">
        <ele>137</ele>
        <time>2019-02-17T09:36:49.000Z</time>
      </trkpt>
      <trkpt lat="46.84577" lon="0.4695">
        <ele>136</ele>
        <time>2019-02-17T09:36:50.000Z</time>
      </trkpt>
      <trkpt lat="46.84577" lon="0.46955">
        <ele>135</ele>
        <time>2019-02-17T09:36:51.000Z</time>
      </trkpt>
      <trkpt lat="46.84577" lon="0.4696">
        <ele>134</ele>
        <time>2019-02-17T09:36:52.000Z</time>
      </trkpt>
      <trkpt lat="46.84576" lon="0.46965">
        <ele>133</ele>
        <time>2019-02-17T09:36:53.000Z</time>
      </trkpt>
      <trkpt lat="46.84576" lon="0.46971">
        <ele>133</ele>
        <time>2019-02-17T09:36:54.000Z</time>
      </trkpt>
      <trkpt lat="46.84575" lon="0.46976">
        <ele>132</ele>
        <time>2019-02-17T09:36:55.000Z</time>
      </trkpt>
      <trkpt lat="46.84575" lon="0.46982">
        <ele>132</ele>
        <time>2019-02-17T09:36:56.000Z</time>
      </trkpt>
      <trkpt lat="46.84574" lon="0.46988">
        <ele>135</ele>
        <time>2019-02-17T09:36:57.000Z</time>
      </trkpt>
      <trkpt lat="46.84573" lon="0.46994">
        <ele>136</ele>
        <time>2019-02-17T09:36:58.000Z</time>
      </trkpt>
      <trkpt lat="46.84572" lon="0.47002">
        <ele>137</ele>
        <time>2019-02-17T09:36:59.000Z</time>
      </trkpt>
      <trkpt lat="46.84572" lon="0.47009">
        <ele>138</ele>
        <time>2019-02-17T09:37:00.000Z</time>
      </trkpt>
      <trkpt lat="46.84572" lon="0.47017">
        <ele>139</ele>
        <time>2019-02-17T09:37:01.000Z</time>
      </trkpt>
      <trkpt lat="46.84571" lon="0.47024">
        <ele>139</ele>
        <time>2019-02-17T09:37:02.000Z</time>
      </trkpt>
      <trkpt lat="46.8457" lon="0.4703">
        <ele>140</ele>
        <time>2019-02-17T09:37:03.000Z</time>
      </trkpt>
      <trkpt lat="46.84569" lon="0.47037">
        <ele>140</ele>
        <time>2019-02-17T09:37:04.000Z</time>
      </trkpt>
      <trkpt lat="46.84569" lon="0.47043">
        <ele>140</ele>
        <time>2019-02-17T09:37:05.000Z</time>
      </trkpt>
      <trkpt lat="46.84568" lon="0.4705">
        <ele>140</ele>
        <time>2019-02-17T09:37:06.000Z</time>
      </trkpt>
      <trkpt lat="46.84568" lon="0.47056">
        <ele>140</ele>
        <time>2019-02-17T09:37:07.000Z</time>
      </trkpt>
      <trkpt lat="46.84567" lon="0.47062">
        <ele>140</ele>
        <time>2019-02-17T09:37:08.000Z</time>
      </trkpt>
      <trkpt lat="46.84567" lon="0.47068">
        <ele>140</ele>
        <time>2019-02-17T09:37:09.000Z</time>
      </trkpt>
      <trkpt lat="46.84566" lon="0.47073">
        <ele>141</ele>
        <time>2019-02-17T09:37:10.000Z</time>
      </trkpt>
      <trkpt lat="46.84566" lon="0.47079">
        <ele>141</ele>
        <time>2019-02-17T09:37:11.000Z</time>
      </trkpt>
      <trkpt lat="46.84566" lon="0.47085">
        <ele>142</ele>
        <time>2019-02-17T09:37:12.000Z</time>
      </trkpt>
      <trkpt lat="46.84565" lon="0.4709">
        <ele>142</ele>
        <time>2019-02-17T09:37:13.000Z</time>
      </trkpt>
      <trkpt lat="46.84565" lon="0.47096">
        <ele>141</ele>
        <time>2019-02-17T09:37:14.000Z</time>
      </trkpt>
      <trkpt lat="46.84564" lon="0.47101">
        <ele>142</ele>
        <time>2019-02-17T09:37:15.000Z</time>
      </trkpt>
      <trkpt lat="46.84564" lon="0.47106">
        <ele>141</ele>
        <time>2019-02-17T09:37:16.000Z</time>
      </trkpt>
      <trkpt lat="46.84564" lon="0.47112">
        <ele>141</ele>
        <time>2019-02-17T09:37:17.000Z</time>
      </trkpt>
      <trkpt lat="46.84564" lon="0.47117">
        <ele>140</ele>
        <time>2019-02-17T09:37:18.000Z</time>
      </trkpt>
      <trkpt lat="46.84564" lon="0.47123">
        <ele>139</ele>
        <time>2019-02-17T09:37:19.000Z</time>
      </trkpt>
      <trkpt lat="46.84564" lon="0.47128">
        <ele>139</ele>
        <time>2019-02-17T09:37:20.000Z</time>
      </trkpt>
      <trkpt lat="46.84564" lon="0.47134">
        <ele>139</ele>
        <time>2019-02-17T09:37:21.000Z</time>
      </trkpt>
      <trkpt lat="46.84564" lon="0.4714">
        <ele>139</ele>
        <time>2019-02-17T09:37:22.000Z</time>
      </trkpt>
      <trkpt lat="46.84563" lon="0.47147">
        <ele>140</ele>
        <time>2019-02-17T09:37:23.000Z</time>
      </trkpt>
      <trkpt lat="46.84563" lon="0.47153">
        <ele>140</ele>
        <time>2019-02-17T09:37:24.000Z</time>
      </trkpt>
      <trkpt lat="46.84563" lon="0.47159">
        <ele>139</ele>
        <time>2019-02-17T09:37:25.000Z</time>
      </trkpt>
      <trkpt lat="46.84563" lon="0.47165">
        <ele>139</ele>
        <time>2019-02-17T09:37:26.000Z</time>
      </trkpt>
      <trkpt lat="46.84563" lon="0.47171">
        <ele>139</ele>
        <time>2019-02-17T09:37:27.000Z</time>
      </trkpt>
      <trkpt lat="46.84563" lon="0.47177">
        <ele>137</ele>
        <time>2019-02-17T09:37:28.000Z</time>
      </trkpt>
      <trkpt lat="46.84562" lon="0.47182">
        <ele>136</ele>
        <time>2019-02-17T09:37:29.000Z</time>
      </trkpt>
      <trkpt lat="46.84562" lon="0.47188">
        <ele>135</ele>
        <time>2019-02-17T09:37:30.000Z</time>
      </trkpt>
      <trkpt lat="46.84562" lon="0.47194">
        <ele>134</ele>
        <time>2019-02-17T09:37:31.000Z</time>
      </trkpt>
      <trkpt lat="46.84561" lon="0.472">
        <ele>135</ele>
        <time>2019-02-17T09:37:32.000Z</time>
      </trkpt>
      <trkpt lat="46.84561" lon="0.47207">
        <ele>135</ele>
        <time>2019-02-17T09:37:33.000Z</time>
      </trkpt>
      <trkpt lat="46.84561" lon="0.47214">
        <ele>135</ele>
        <time>2019-02-17T09:37:34.000Z</time>
      </trkpt>
      <trkpt lat="46.84561" lon="0.47221">
        <ele>134</ele>
        <time>2019-02-17T09:37:35.000Z</time>
      </trkpt>
      <trkpt lat="46.84561" lon="0.47227">
        <ele>135</ele>
        <time>2019-02-17T09:37:36.000Z</time>
      </trkpt>
      <trkpt lat="46.84562" lon="0.47234">
        <ele>135</ele>
        <time>2019-02-17T09:37:37.000Z</time>
      </trkpt>
      <trkpt lat="46.84562" lon="0.4724">
        <ele>134</ele>
        <time>2019-02-17T09:37:38.000Z</time>
      </trkpt>
      <trkpt lat="46.84562" lon="0.47247">
        <ele>134</ele>
        <time>2019-02-17T09:37:39.000Z</time>
      </trkpt>
      <trkpt lat="46.84562" lon="0.47253">
        <ele>134</ele>
        <time>2019-02-17T09:37:40.000Z</time>
      </trkpt>
      <trkpt lat="46.84563" lon="0.47259">
        <ele>134</ele>
        <time>2019-02-17T09:37:41.000Z</time>
      </trkpt>
      <trkpt lat="46.84564" lon="0.47264">
        <ele>134</ele>
        <time>2019-02-17T09:37:42.000Z</time>
      </trkpt>
      <trkpt lat="46.84567" lon="0.47269">
        <ele>138</ele>
        <time>2019-02-17T09:37:43.000Z</time>
      </trkpt>
      <trkpt lat="46.84569" lon="0.47273">
        <ele>138</ele>
        <time>2019-02-17T09:37:44.000Z</time>
      </trkpt>
      <trkpt lat="46.84572" lon="0.47275">
        <ele>137</ele>
        <time>2019-02-17T09:37:45.000Z</time>
      </trkpt>
      <trkpt lat="46.84574" lon="0.47277">
        <ele>137</ele>
        <time>2019-02-17T09:37:46.000Z</time>
      </trkpt>
      <trkpt lat="46.84576" lon="0.47278">
        <ele>137</ele>
        <time>2019-02-17T09:37:47.000Z</time>
      </trkpt>
      <trkpt lat="46.84578" lon="0.47279">
        <ele>137</ele>
        <time>2019-02-17T09:37:48.000Z</time>
      </trkpt>
      <trkpt lat="46.8458" lon="0.4728">
        <ele>136</ele>
        <time>2019-02-17T09:37:49.000Z</time>
      </trkpt>
      <trkpt lat="46.84582" lon="0.47281">
        <ele>136</ele>
        <time>2019-02-17T09:37:50.000Z</time>
      </trkpt>
      <trkpt lat="46.84584" lon="0.47282">
        <ele>136</ele>
        <time>2019-02-17T09:37:51.000Z</time>
      </trkpt>
      <trkpt lat="46.84587" lon="0.47282">
        <ele>135</ele>
        <time>2019-02-17T09:37:52.000Z</time>
      </trkpt>
      <trkpt lat="46.8459" lon="0.47282">
        <ele>134</ele>
        <time>2019-02-17T09:37:53.000Z</time>
      </trkpt>
      <trkpt lat="46.84593" lon="0.47282">
        <ele>134</ele>
        <time>2019-02-17T09:37:54.000Z</time>
      </trkpt>
      <trkpt lat="46.84597" lon="0.47282">
        <ele>134</ele>
        <time>2019-02-17T09:37:55.000Z</time>
      </trkpt>
      <trkpt lat="46.846" lon="0.47281">
        <ele>133</ele>
        <time>2019-02-17T09:37:56.000Z</time>
      </trkpt>
      <trkpt lat="46.84603" lon="0.47281">
        <ele>133</ele>
        <time>2019-02-17T09:37:57.000Z</time>
      </trkpt>
      <trkpt lat="46.84606" lon="0.47281">
        <ele>132</ele>
        <time>2019-02-17T09:37:58.000Z</time>
      </trkpt>
      <trkpt lat="46.8461" lon="0.47281">
        <ele>131</ele>
        <time>2019-02-17T09:37:59.000Z</time>
      </trkpt>
      <trkpt lat="46.84614" lon="0.47281">
        <ele>130</ele>
        <time>2019-02-17T09:38:00.000Z</time>
      </trkpt>
      <trkpt lat="46.84618" lon="0.47282">
        <ele>128</ele>
        <time>2019-02-17T09:38:01.000Z</time>
      </trkpt>
      <trkpt lat="46.84622" lon="0.47283">
        <ele>126</ele>
        <time>2019-02-17T09:38:02.000Z</time>
      </trkpt>
      <trkpt lat="46.84627" lon="0.47286">
        <ele>124</ele>
        <time>2019-02-17T09:38:03.000Z</time>
      </trkpt>
      <trkpt lat="46.84633" lon="0.47288">
        <ele>122</ele>
        <time>2019-02-17T09:38:04.000Z</time>
      </trkpt>
      <trkpt lat="46.84639" lon="0.47291">
        <ele>120</ele>
        <time>2019-02-17T09:38:05.000Z</time>
      </trkpt>
      <trkpt lat="46.84645" lon="0.47296">
        <ele>121</ele>
        <time>2019-02-17T09:38:06.000Z</time>
      </trkpt>
      <trkpt lat="46.84651" lon="0.473">
        <ele>121</ele>
        <time>2019-02-17T09:38:07.000Z</time>
      </trkpt>
      <trkpt lat="46.84657" lon="0.47305">
        <ele>120</ele>
        <time>2019-02-17T09:38:08.000Z</time>
      </trkpt>
      <trkpt lat="46.84662" lon="0.47308">
        <ele>120</ele>
        <time>2019-02-17T09:38:09.000Z</time>
      </trkpt>
      <trkpt lat="46.84667" lon="0.47312">
        <ele>120</ele>
        <time>2019-02-17T09:38:10.000Z</time>
      </trkpt>
      <trkpt lat="46.84671" lon="0.47315">
        <ele>119</ele>
        <time>2019-02-17T09:38:11.000Z</time>
      </trkpt>
      <trkpt lat="46.84675" lon="0.47318">
        <ele>119</ele>
        <time>2019-02-17T09:38:12.000Z</time>
      </trkpt>
      <trkpt lat="46.84679" lon="0.47321">
        <ele>119</ele>
        <time>2019-02-17T09:38:13.000Z</time>
      </trkpt>
      <trkpt lat="46.84683" lon="0.47324">
        <ele>118</ele>
        <time>2019-02-17T09:38:14.000Z</time>
      </trkpt>
      <trkpt lat="46.84687" lon="0.47327">
        <ele>118</ele>
        <time>2019-02-17T09:38:15.000Z</time>
      </trkpt>
      <trkpt lat="46.84692" lon="0.4733">
        <ele>118</ele>
        <time>2019-02-17T09:38:16.000Z</time>
      </trkpt>
      <trkpt lat="46.84697" lon="0.47333">
        <ele>118</ele>
        <time>2019-02-17T09:38:17.000Z</time>
      </trkpt>
      <trkpt lat="46.84703" lon="0.47338">
        <ele>118</ele>
        <time>2019-02-17T09:38:18.000Z</time>
      </trkpt>
      <trkpt lat="46.84708" lon="0.47342">
        <ele>118</ele>
        <time>2019-02-17T09:38:19.000Z</time>
      </trkpt>
      <trkpt lat="46.84714" lon="0.47346">
        <ele>118</ele>
        <time>2019-02-17T09:38:20.000Z</time>
      </trkpt>
      <trkpt lat="46.84719" lon="0.47351">
        <ele>117</ele>
        <time>2019-02-17T09:38:21.000Z</time>
      </trkpt>
      <trkpt lat="46.84725" lon="0.47357">
        <ele>117</ele>
        <time>2019-02-17T09:38:22.000Z</time>
      </trkpt>
      <trkpt lat="46.8473" lon="0.47364">
        <ele>117</ele>
        <time>2019-02-17T09:38:23.000Z</time>
      </trkpt>
      <trkpt lat="46.84735" lon="0.47371">
        <ele>118</ele>
        <time>2019-02-17T09:38:24.000Z</time>
      </trkpt>
      <trkpt lat="46.84741" lon="0.47378">
        <ele>118</ele>
        <time>2019-02-17T09:38:25.000Z</time>
      </trkpt>
      <trkpt lat="46.84746" lon="0.47385">
        <ele>118</ele>
        <time>2019-02-17T09:38:26.000Z</time>
      </trkpt>
      <trkpt lat="46.84752" lon="0.47391">
        <ele>118</ele>
        <time>2019-02-17T09:38:27.000Z</time>
      </trkpt>
      <trkpt lat="46.84757" lon="0.47397">
        <ele>117</ele>
        <time>2019-02-17T09:38:28.000Z</time>
      </trkpt>
      <trkpt lat="46.84762" lon="0.47403">
        <ele>117</ele>
        <time>2019-02-17T09:38:29.000Z</time>
      </trkpt>
      <trkpt lat="46.84766" lon="0.47408">
        <ele>117</ele>
        <time>2019-02-17T09:38:30.000Z</time>
      </trkpt>
      <trkpt lat="46.84772" lon="0.47413">
        <ele>117</ele>
        <time>2019-02-17T09:38:31.000Z</time>
      </trkpt>
      <trkpt lat="46.84777" lon="0.47418">
        <ele>117</ele>
        <time>2019-02-17T09:38:32.000Z</time>
      </trkpt>
      <trkpt lat="46.84782" lon="0.47423">
        <ele>116</ele>
        <time>2019-02-17T09:38:33.000Z</time>
      </trkpt>
      <trkpt lat="46.84788" lon="0.47427">
        <ele>118</ele>
        <time>2019-02-17T09:38:34.000Z</time>
      </trkpt>
      <trkpt lat="46.84794" lon="0.47431">
        <ele>118</ele>
        <time>2019-02-17T09:38:35.000Z</time>
      </trkpt>
      <trkpt lat="46.848" lon="0.47435">
        <ele>117</ele>
        <time>2019-02-17T09:38:36.000Z</time>
      </trkpt>
      <trkpt lat="46.84805" lon="0.47439">
        <ele>119</ele>
        <time>2019-02-17T09:38:37.000Z</time>
      </trkpt>
      <trkpt lat="46.84811" lon="0.47443">
        <ele>120</ele>
        <time>2019-02-17T09:38:38.000Z</time>
      </trkpt>
      <trkpt lat="46.84817" lon="0.47448">
        <ele>120</ele>
        <time>2019-02-17T09:38:39.000Z</time>
      </trkpt>
      <trkpt lat="46.84823" lon="0.47452">
        <ele>120</ele>
        <time>2019-02-17T09:38:40.000Z</time>
      </trkpt>
      <trkpt lat="46.84829" lon="0.47457">
        <ele>120</ele>
        <time>2019-02-17T09:38:41.000Z</time>
      </trkpt>
      <trkpt lat="46.84835" lon="0.47461">
        <ele>120</ele>
        <time>2019-02-17T09:38:42.000Z</time>
      </trkpt>
      <trkpt lat="46.84841" lon="0.47466">
        <ele>120</ele>
        <time>2019-02-17T09:38:43.000Z</time>
      </trkpt>
      <trkpt lat="46.84846" lon="0.47471">
        <ele>119</ele>
        <time>2019-02-17T09:38:44.000Z</time>
      </trkpt>
      <trkpt lat="46.84852" lon="0.47476">
        <ele>119</ele>
        <time>2019-02-17T09:38:45.000Z</time>
      </trkpt>
      <trkpt lat="46.84857" lon="0.47481">
        <ele>119</ele>
        <time>2019-02-17T09:38:46.000Z</time>
      </trkpt>
      <trkpt lat="46.84862" lon="0.47486">
        <ele>119</ele>
        <time>2019-02-17T09:38:47.000Z</time>
      </trkpt>
      <trkpt lat="46.84867" lon="0.47491">
        <ele>119</ele>
        <time>2019-02-17T09:38:48.000Z</time>
      </trkpt>
      <trkpt lat="46.84872" lon="0.47496">
        <ele>119</ele>
        <time>2019-02-17T09:38:49.000Z</time>
      </trkpt>
      <trkpt lat="46.84877" lon="0.47501">
        <ele>118</ele>
        <time>2019-02-17T09:38:50.000Z</time>
      </trkpt>
      <trkpt lat="46.84882" lon="0.47506">
        <ele>118</ele>
        <time>2019-02-17T09:38:51.000Z</time>
      </trkpt>
      <trkpt lat="46.84887" lon="0.47511">
        <ele>118</ele>
        <time>2019-02-17T09:38:52.000Z</time>
      </trkpt>
      <trkpt lat="46.84892" lon="0.47516">
        <ele>118</ele>
        <time>2019-02-17T09:38:53.000Z</time>
      </trkpt>
      <trkpt lat="46.84897" lon="0.47521">
        <ele>118</ele>
        <time>2019-02-17T09:38:54.000Z</time>
      </trkpt>
      <trkpt lat="46.84902" lon="0.47526">
        <ele>118</ele>
        <time>2019-02-17T09:38:55.000Z</time>
      </trkpt>
      <trkpt lat="46.84906" lon="0.47531">
        <ele>117</ele>
        <time>2019-02-17T09:38:56.000Z</time>
      </trkpt>
      <trkpt lat="46.8491" lon="0.47535">
        <ele>117</ele>
        <time>2019-02-17T09:38:57.000Z</time>
      </trkpt>
      <trkpt lat="46.84912" lon="0.47538">
        <ele>117</ele>
        <time>2019-02-17T09:38:58.000Z</time>
      </trkpt>
      <trkpt lat="46.84915" lon="0.47541">
        <ele>117</ele>
        <time>2019-02-17T09:38:59.000Z</time>
      </trkpt>
      <trkpt lat="46.84917" lon="0.47544">
        <ele>117</ele>
        <time>2019-02-17T09:39:00.000Z</time>
      </trkpt>
      <trkpt lat="46.84919" lon="0.47547">
        <ele>118</ele>
        <time>2019-02-17T09:39:01.000Z</time>
      </trkpt>
      <trkpt lat="46.84922" lon="0.47551">
        <ele>118</ele>
        <time>2019-02-17T09:39:02.000Z</time>
      </trkpt>
      <trkpt lat="46.84924" lon="0.47555">
        <ele>118</ele>
        <time>2019-02-17T09:39:03.000Z</time>
      </trkpt>
      <trkpt lat="46.84927" lon="0.4756">
        <ele>117</ele>
        <time>2019-02-17T09:39:04.000Z</time>
      </trkpt>
      <trkpt lat="46.8493" lon="0.47565">
        <ele>118</ele>
        <time>2019-02-17T09:39:05.000Z</time>
      </trkpt>
      <trkpt lat="46.84933" lon="0.4757">
        <ele>117</ele>
        <time>2019-02-17T09:39:06.000Z</time>
      </trkpt>
      <trkpt lat="46.84936" lon="0.47575">
        <ele>117</ele>
        <time>2019-02-17T09:39:07.000Z</time>
      </trkpt>
      <trkpt lat="46.8494" lon="0.47581">
        <ele>117</ele>
        <time>2019-02-17T09:39:08.000Z</time>
      </trkpt>
      <trkpt lat="46.84943" lon="0.47587">
        <ele>117</ele>
        <time>2019-02-17T09:39:09.000Z</time>
      </trkpt>
      <trkpt lat="46.84946" lon="0.47593">
        <ele>117</ele>
        <time>2019-02-17T09:39:10.000Z</time>
      </trkpt>
      <trkpt lat="46.84949" lon="0.476">
        <ele>117</ele>
        <time>2019-02-17T09:39:11.000Z</time>
      </trkpt>
      <trkpt lat="46.84952" lon="0.47606">
        <ele>117</ele>
        <time>2019-02-17T09:39:12.000Z</time>
      </trkpt>
      <trkpt lat="46.84954" lon="0.47613">
        <ele>117</ele>
        <time>2019-02-17T09:39:13.000Z</time>
      </trkpt>
      <trkpt lat="46.84957" lon="0.4762">
        <ele>117</ele>
        <time>2019-02-17T09:39:14.000Z</time>
      </trkpt>
      <trkpt lat="46.8496" lon="0.47626">
        <ele>116</ele>
        <time>2019-02-17T09:39:15.000Z</time>
      </trkpt>
      <trkpt lat="46.84963" lon="0.47631">
        <ele>116</ele>
        <time>2019-02-17T09:39:16.000Z</time>
      </trkpt>
      <trkpt lat="46.84967" lon="0.47633">
        <ele>116</ele>
        <time>2019-02-17T09:39:17.000Z</time>
      </trkpt>
      <trkpt lat="46.84971" lon="0.47633">
        <ele>116</ele>
        <time>2019-02-17T09:39:18.000Z</time>
      </trkpt>
      <trkpt lat="46.84975" lon="0.47632">
        <ele>115</ele>
        <time>2019-02-17T09:39:19.000Z</time>
      </trkpt>
      <trkpt lat="46.8498" lon="0.47629">
        <ele>115</ele>
        <time>2019-02-17T09:39:20.000Z</time>
      </trkpt>
      <trkpt lat="46.84984" lon="0.47626">
        <ele>115</ele>
        <time>2019-02-17T09:39:21.000Z</time>
      </trkpt>
      <trkpt lat="46.84989" lon="0.47622">
        <ele>115</ele>
        <time>2019-02-17T09:39:22.000Z</time>
      </trkpt>
      <trkpt lat="46.84994" lon="0.47618">
        <ele>115</ele>
        <time>2019-02-17T09:39:23.000Z</time>
      </trkpt>
      <trkpt lat="46.84999" lon="0.47615">
        <ele>115</ele>
        <time>2019-02-17T09:39:24.000Z</time>
      </trkpt>
      <trkpt lat="46.85004" lon="0.47611">
        <ele>114</ele>
        <time>2019-02-17T09:39:25.000Z</time>
      </trkpt>
      <trkpt lat="46.85009" lon="0.47607">
        <ele>114</ele>
        <time>2019-02-17T09:39:26.000Z</time>
      </trkpt>
      <trkpt lat="46.85015" lon="0.47604">
        <ele>114</ele>
        <time>2019-02-17T09:39:27.000Z</time>
      </trkpt>
      <trkpt lat="46.8502" lon="0.476">
        <ele>113</ele>
        <time>2019-02-17T09:39:28.000Z</time>
      </trkpt>
      <trkpt lat="46.85025" lon="0.47596">
        <ele>113</ele>
        <time>2019-02-17T09:39:29.000Z</time>
      </trkpt>
      <trkpt lat="46.85031" lon="0.47593">
        <ele>113</ele>
        <time>2019-02-17T09:39:30.000Z</time>
      </trkpt>
      <trkpt lat="46.85036" lon="0.47589">
        <ele>112</ele>
        <time>2019-02-17T09:39:31.000Z</time>
      </trkpt>
      <trkpt lat="46.85042" lon="0.47585">
        <ele>112</ele>
        <time>2019-02-17T09:39:32.000Z</time>
      </trkpt>
      <trkpt lat="46.85048" lon="0.47581">
        <ele>111</ele>
        <time>2019-02-17T09:39:33.000Z</time>
      </trkpt>
      <trkpt lat="46.85054" lon="0.47577">
        <ele>110</ele>
        <time>2019-02-17T09:39:34.000Z</time>
      </trkpt>
      <trkpt lat="46.8506" lon="0.47573">
        <ele>110</ele>
        <time>2019-02-17T09:39:35.000Z</time>
      </trkpt>
      <trkpt lat="46.85067" lon="0.47568">
        <ele>109</ele>
        <time>2019-02-17T09:39:36.000Z</time>
      </trkpt>
      <trkpt lat="46.85073" lon="0.47563">
        <ele>109</ele>
        <time>2019-02-17T09:39:37.000Z</time>
      </trkpt>
      <trkpt lat="46.8508" lon="0.47558">
        <ele>108</ele>
        <time>2019-02-17T09:39:38.000Z</time>
      </trkpt>
      <trkpt lat="46.85086" lon="0.47553">
        <ele>108</ele>
        <time>2019-02-17T09:39:39.000Z</time>
      </trkpt>
      <trkpt lat="46.85093" lon="0.47549">
        <ele>107</ele>
        <time>2019-02-17T09:39:40.000Z</time>
      </trkpt>
      <trkpt lat="46.85099" lon="0.47544">
        <ele>107</ele>
        <time>2019-02-17T09:39:41.000Z</time>
      </trkpt>
      <trkpt lat="46.85105" lon="0.47539">
        <ele>107</ele>
        <time>2019-02-17T09:39:42.000Z</time>
      </trkpt>
      <trkpt lat="46.85111" lon="0.47534">
        <ele>106</ele>
        <time>2019-02-17T09:39:43.000Z</time>
      </trkpt>
      <trkpt lat="46.85117" lon="0.4753">
        <ele>106</ele>
        <time>2019-02-17T09:39:44.000Z</time>
      </trkpt>
      <trkpt lat="46.85123" lon="0.47526">
        <ele>106</ele>
        <time>2019-02-17T09:39:45.000Z</time>
      </trkpt>
      <trkpt lat="46.85129" lon="0.47522">
        <ele>106</ele>
        <time>2019-02-17T09:39:46.000Z</time>
      </trkpt>
      <trkpt lat="46.85134" lon="0.47518">
        <ele>106</ele>
        <time>2019-02-17T09:39:47.000Z</time>
      </trkpt>
      <trkpt lat="46.85139" lon="0.47514">
        <ele>106</ele>
        <time>2019-02-17T09:39:48.000Z</time>
      </trkpt>
      <trkpt lat="46.85145" lon="0.4751">
        <ele>106</ele>
        <time>2019-02-17T09:39:49.000Z</time>
      </trkpt>
      <trkpt lat="46.8515" lon="0.47507">
        <ele>106</ele>
        <time>2019-02-17T09:39:50.000Z</time>
      </trkpt>
      <trkpt lat="46.85155" lon="0.47503">
        <ele>106</ele>
        <time>2019-02-17T09:39:51.000Z</time>
      </trkpt>
      <trkpt lat="46.85159" lon="0.47499">
        <ele>107</ele>
        <time>2019-02-17T09:39:52.000Z</time>
      </trkpt>
      <trkpt lat="46.85164" lon="0.47495">
        <ele>107</ele>
        <time>2019-02-17T09:39:53.000Z</time>
      </trkpt>
      <trkpt lat="46.85168" lon="0.47491">
        <ele>107</ele>
        <time>2019-02-17T09:39:54.000Z</time>
      </trkpt>
      <trkpt lat="46.85172" lon="0.47487">
        <ele>107</ele>
        <time>2019-02-17T09:39:55.000Z</time>
      </trkpt>
      <trkpt lat="46.85175" lon="0.47483">
        <ele>107</ele>
        <time>2019-02-17T09:39:56.000Z</time>
      </trkpt>
      <trkpt lat="46.85177" lon="0.47478">
        <ele>107</ele>
        <time>2019-02-17T09:39:57.000Z</time>
      </trkpt>
      <trkpt lat="46.8518" lon="0.47473">
        <ele>107</ele>
        <time>2019-02-17T09:39:58.000Z</time>
      </trkpt>
      <trkpt lat="46.85182" lon="0.47468">
        <ele>107</ele>
        <time>2019-02-17T09:39:59.000Z</time>
      </trkpt>
      <trkpt lat="46.85184" lon="0.47462">
        <ele>108</ele>
        <time>2019-02-17T09:40:00.000Z</time>
      </trkpt>
      <trkpt lat="46.85185" lon="0.47457">
        <ele>108</ele>
        <time>2019-02-17T09:40:01.000Z</time>
      </trkpt>
      <trkpt lat="46.85187" lon="0.47452">
        <ele>108</ele>
        <time>2019-02-17T09:40:02.000Z</time>
      </trkpt>
      <trkpt lat="46.85189" lon="0.47447">
        <ele>108</ele>
        <time>2019-02-17T09:40:03.000Z</time>
      </trkpt>
      <trkpt lat="46.8519" lon="0.47442">
        <ele>109</ele>
        <time>2019-02-17T09:40:04.000Z</time>
      </trkpt>
      <trkpt lat="46.85192" lon="0.47437">
        <ele>109</ele>
        <time>2019-02-17T09:40:05.000Z</time>
      </trkpt>
      <trkpt lat="46.85194" lon="0.47432">
        <ele>109</ele>
        <time>2019-02-17T09:40:06.000Z</time>
      </trkpt>
      <trkpt lat="46.85196" lon="0.47427">
        <ele>109</ele>
        <time>2019-02-17T09:40:07.000Z</time>
      </trkpt>
      <trkpt lat="46.85198" lon="0.47423">
        <ele>109</ele>
        <time>2019-02-17T09:40:08.000Z</time>
      </trkpt>
      <trkpt lat="46.85199" lon="0.47418">
        <ele>110</ele>
        <time>2019-02-17T09:40:09.000Z</time>
      </trkpt>
      <trkpt lat="46.85201" lon="0.47414">
        <ele>110</ele>
        <time>2019-02-17T09:40:10.000Z</time>
      </trkpt>
      <trkpt lat="46.85202" lon="0.4741">
        <ele>110</ele>
        <time>2019-02-17T09:40:11.000Z</time>
      </trkpt>
      <trkpt lat="46.85204" lon="0.47405">
        <ele>111</ele>
        <time>2019-02-17T09:40:12.000Z</time>
      </trkpt>
      <trkpt lat="46.85205" lon="0.47401">
        <ele>111</ele>
        <time>2019-02-17T09:40:13.000Z</time>
      </trkpt>
      <trkpt lat="46.85205" lon="0.47396">
        <ele>111</ele>
        <time>2019-02-17T09:40:14.000Z</time>
      </trkpt>
      <trkpt lat="46.85206" lon="0.47392">
        <ele>111</ele>
        <time>2019-02-17T09:40:15.000Z</time>
      </trkpt>
      <trkpt lat="46.85206" lon="0.47388">
        <ele>112</ele>
        <time>2019-02-17T09:40:16.000Z</time>
      </trkpt>
      <trkpt lat="46.85206" lon="0.47383">
        <ele>112</ele>
        <time>2019-02-17T09:40:17.000Z</time>
      </trkpt>
      <trkpt lat="46.85205" lon="0.47379">
        <ele>112</ele>
        <time>2019-02-17T09:40:18.000Z</time>
      </trkpt>
      <trkpt lat="46.85204" lon="0.47375">
        <ele>112</ele>
        <time>2019-02-17T09:40:19.000Z</time>
      </trkpt>
      <trkpt lat="46.85203" lon="0.47371">
        <ele>112</ele>
        <time>2019-02-17T09:40:20.000Z</time>
      </trkpt>
      <trkpt lat="46.85201" lon="0.47366">
        <ele>112</ele>
        <time>2019-02-17T09:40:21.000Z</time>
      </trkpt>
      <trkpt lat="46.852" lon="0.47363">
        <ele>112</ele>
        <time>2019-02-17T09:40:22.000Z</time>
      </trkpt>
      <trkpt lat="46.85198" lon="0.47359">
        <ele>112</ele>
        <time>2019-02-17T09:40:23.000Z</time>
      </trkpt>
      <trkpt lat="46.85196" lon="0.47355">
        <ele>113</ele>
        <time>2019-02-17T09:40:24.000Z</time>
      </trkpt>
      <trkpt lat="46.85195" lon="0.47351">
        <ele>113</ele>
        <time>2019-02-17T09:40:25.000Z</time>
      </trkpt>
      <trkpt lat="46.85193" lon="0.47347">
        <ele>113</ele>
        <time>2019-02-17T09:40:26.000Z</time>
      </trkpt>
      <trkpt lat="46.85191" lon="0.47344">
        <ele>113</ele>
        <time>2019-02-17T09:40:27.000Z</time>
      </trkpt>
      <trkpt lat="46.8519" lon="0.4734">
        <ele>113</ele>
        <time>2019-02-17T09:40:28.000Z</time>
      </trkpt>
      <trkpt lat="46.85188" lon="0.47336">
        <ele>113</ele>
        <time>2019-02-17T09:40:29.000Z</time>
      </trkpt>
      <trkpt lat="46.85187" lon="0.47332">
        <ele>113</ele>
        <time>2019-02-17T09:40:30.000Z</time>
      </trkpt>
      <trkpt lat="46.85186" lon="0.47329">
        <ele>114</ele>
        <time>2019-02-17T09:40:31.000Z</time>
      </trkpt>
      <trkpt lat="46.85185" lon="0.47325">
        <ele>114</ele>
        <time>2019-02-17T09:40:32.000Z</time>
      </trkpt>
      <trkpt lat="46.85184" lon="0.47321">
        <ele>114</ele>
        <time>2019-02-17T09:40:33.000Z</time>
      </trkpt>
      <trkpt lat="46.85183" lon="0.47317">
        <ele>114</ele>
        <time>2019-02-17T09:40:34.000Z</time>
      </trkpt>
      <trkpt lat="46.85183" lon="0.47314">
        <ele>115</ele>
        <time>2019-02-17T09:40:35.000Z</time>
      </trkpt>
      <trkpt lat="46.85182" lon="0.4731">
        <ele>115</ele>
        <time>2019-02-17T09:40:36.000Z</time>
      </trkpt>
      <trkpt lat="46.85182" lon="0.47306">
        <ele>115</ele>
        <time>2019-02-17T09:40:37.000Z</time>
      </trkpt>
      <trkpt lat="46.85182" lon="0.47302">
        <ele>116</ele>
        <time>2019-02-17T09:40:38.000Z</time>
      </trkpt>
      <trkpt lat="46.85183" lon="0.47298">
        <ele>116</ele>
        <time>2019-02-17T09:40:39.000Z</time>
      </trkpt>
      <trkpt lat="46.85184" lon="0.47295">
        <ele>116</ele>
        <time>2019-02-17T09:40:40.000Z</time>
      </trkpt>
      <trkpt lat="46.85185" lon="0.47291">
        <ele>116</ele>
        <time>2019-02-17T09:40:41.000Z</time>
      </trkpt>
      <trkpt lat="46.85187" lon="0.47289">
        <ele>116</ele>
        <time>2019-02-17T09:40:42.000Z</time>
      </trkpt>
      <trkpt lat="46.85188" lon="0.47287">
        <ele>117</ele>
        <time>2019-02-17T09:40:43.000Z</time>
      </trkpt>
      <trkpt lat="46.8519" lon="0.47284">
        <ele>117</ele>
        <time>2019-02-17T09:40:44.000Z</time>
      </trkpt>
      <trkpt lat="46.85192" lon="0.47282">
        <ele>117</ele>
        <time>2019-02-17T09:40:45.000Z</time>
      </trkpt>
      <trkpt lat="46.85193" lon="0.47279">
        <ele>117</ele>
        <time>2019-02-17T09:40:46.000Z</time>
      </trkpt>
      <trkpt lat="46.85195" lon="0.47276">
        <ele>117</ele>
        <time>2019-02-17T09:40:47.000Z</time>
      </trkpt>
      <trkpt lat="46.85196" lon="0.47272">
        <ele>117</ele>
        <time>2019-02-17T09:40:48.000Z</time>
      </trkpt>
      <trkpt lat="46.85198" lon="0.47269">
        <ele>117</ele>
        <time>2019-02-17T09:40:49.000Z</time>
      </trkpt>
      <trkpt lat="46.85199" lon="0.47266">
        <ele>117</ele>
        <time>2019-02-17T09:40:50.000Z</time>
      </trkpt>
      <trkpt lat="46.85201" lon="0.47263">
        <ele>117</ele>
        <time>2019-02-17T09:40:51.000Z</time>
      </trkpt>
      <trkpt lat="46.85202" lon="0.4726">
        <ele>118</ele>
        <time>2019-02-17T09:40:52.000Z</time>
      </trkpt>
      <trkpt lat="46.85203" lon="0.47257">
        <ele>118</ele>
        <time>2019-02-17T09:40:53.000Z</time>
      </trkpt>
      <trkpt lat="46.85205" lon="0.47255">
        <ele>118</ele>
        <time>2019-02-17T09:40:54.000Z</time>
      </trkpt>
      <trkpt lat="46.85206" lon="0.47252">
        <ele>118</ele>
        <time>2019-02-17T09:40:55.000Z</time>
      </trkpt>
      <trkpt lat="46.85208" lon="0.47249">
        <ele>118</ele>
        <time>2019-02-17T09:40:56.000Z</time>
      </trkpt>
      <trkpt lat="46.85209" lon="0.47246">
        <ele>119</ele>
        <time>2019-02-17T09:40:57.000Z</time>
      </trkpt>
      <trkpt lat="46.85211" lon="0.47243">
        <ele>119</ele>
        <time>2019-02-17T09:40:58.000Z</time>
      </trkpt>
      <trkpt lat="46.85212" lon="0.47241">
        <ele>119</ele>
        <time>2019-02-17T09:40:59.000Z</time>
      </trkpt>
      <trkpt lat="46.85214" lon="0.47238">
        <ele>119</ele>
        <time>2019-02-17T09:41:00.000Z</time>
      </trkpt>
      <trkpt lat="46.85215" lon="0.47235">
        <ele>119</ele>
        <time>2019-02-17T09:41:01.000Z</time>
      </trkpt>
      <trkpt lat="46.85216" lon="0.47232">
        <ele>119</ele>
        <time>2019-02-17T09:41:02.000Z</time>
      </trkpt>
      <trkpt lat="46.85218" lon="0.47229">
        <ele>119</ele>
        <time>2019-02-17T09:41:03.000Z</time>
      </trkpt>
      <trkpt lat="46.85219" lon="0.47227">
        <ele>119</ele>
        <time>2019-02-17T09:41:04.000Z</time>
      </trkpt>
      <trkpt lat="46.85221" lon="0.47224">
        <ele>119</ele>
        <time>2019-02-17T09:41:05.000Z</time>
      </trkpt>
      <trkpt lat="46.85222" lon="0.47222">
        <ele>119</ele>
        <time>2019-02-17T09:41:06.000Z</time>
      </trkpt>
      <trkpt lat="46.85223" lon="0.47219">
        <ele>119</ele>
        <time>2019-02-17T09:41:07.000Z</time>
      </trkpt>
      <trkpt lat="46.85225" lon="0.47216">
        <ele>119</ele>
        <time>2019-02-17T09:41:08.000Z</time>
      </trkpt>
      <trkpt lat="46.85226" lon="0.47214">
        <ele>119</ele>
        <time>2019-02-17T09:41:09.000Z</time>
      </trkpt>
      <trkpt lat="46.85228" lon="0.47211">
        <ele>120</ele>
        <time>2019-02-17T09:41:10.000Z</time>
      </trkpt>
      <trkpt lat="46.85229" lon="0.47209">
        <ele>120</ele>
        <time>2019-02-17T09:41:11.000Z</time>
      </trkpt>
      <trkpt lat="46.8523" lon="0.47206">
        <ele>120</ele>
        <time>2019-02-17T09:41:12.000Z</time>
      </trkpt>
      <trkpt lat="46.85232" lon="0.47204">
        <ele>120</ele>
        <time>2019-02-17T09:41:13.000Z</time>
      </trkpt>
      <trkpt lat="46.85233" lon="0.47201">
        <ele>120</ele>
        <time>2019-02-17T09:41:14.000Z</time>
      </trkpt>
      <trkpt lat="46.85234" lon="0.47199">
        <ele>120</ele>
        <time>2019-02-17T09:41:15.000Z</time>
      </trkpt>
      <trkpt lat="46.85236" lon="0.47196">
        <ele>120</ele>
        <time>2019-02-17T09:41:16.000Z</time>
      </trkpt>
      <trkpt lat="46.85237" lon="0.47194">
        <ele>121</ele>
        <time>2019-02-17T09:41:17.000Z</time>
      </trkpt>
      <trkpt lat="46.85239" lon="0.47191">
        <ele>121</ele>
        <time>2019-02-17T09:41:18.000Z</time>
      </trkpt>
      <trkpt lat="46.8524" lon="0.47189">
        <ele>121</ele>
        <time>2019-02-17T09:41:19.000Z</time>
      </trkpt>
      <trkpt lat="46.85242" lon="0.47186">
        <ele>121</ele>
        <time>2019-02-17T09:41:20.000Z</time>
      </trkpt>
      <trkpt lat="46.85243" lon="0.47184">
        <ele>121</ele>
        <time>2019-02-17T09:41:21.000Z</time>
      </trkpt>
      <trkpt lat="46.85245" lon="0.47181">
        <ele>121</ele>
        <time>2019-02-17T09:41:22.000Z</time>
      </trkpt>
      <trkpt lat="46.85246" lon="0.47179">
        <ele>122</ele>
        <time>2019-02-17T09:41:23.000Z</time>
      </trkpt>
      <trkpt lat="46.85247" lon="0.47177">
        <ele>122</ele>
        <time>2019-02-17T09:41:24.000Z</time>
      </trkpt>
      <trkpt lat="46.85249" lon="0.47175">
        <ele>122</ele>
        <time>2019-02-17T09:41:25.000Z</time>
      </trkpt>
      <trkpt lat="46.8525" lon="0.47173">
        <ele>123</ele>
        <time>2019-02-17T09:41:26.000Z</time>
      </trkpt>
      <trkpt lat="46.85251" lon="0.47171">
        <ele>122</ele>
        <time>2019-02-17T09:41:27.000Z</time>
      </trkpt>
      <trkpt lat="46.85253" lon="0.47169">
        <ele>122</ele>
        <time>2019-02-17T09:41:28.000Z</time>
      </trkpt>
      <trkpt lat="46.85254" lon="0.47167">
        <ele>123</ele>
        <time>2019-02-17T09:41:29.000Z</time>
      </trkpt>
      <trkpt lat="46.85256" lon="0.47164">
        <ele>123</ele>
        <time>2019-02-17T09:41:30.000Z</time>
      </trkpt>
      <trkpt lat="46.85257" lon="0.47162">
        <ele>123</ele>
        <time>2019-02-17T09:41:31.000Z</time>
      </trkpt>
      <trkpt lat="46.85258" lon="0.4716">
        <ele>123</ele>
        <time>2019-02-17T09:41:32.000Z</time>
      </trkpt>
      <trkpt lat="46.8526" lon="0.47158">
        <ele>124</ele>
        <time>2019-02-17T09:41:33.000Z</time>
      </trkpt>
      <trkpt lat="46.85261" lon="0.47156">
        <ele>124</ele>
        <time>2019-02-17T09:41:34.000Z</time>
      </trkpt>
      <trkpt lat="46.85263" lon="0.47154">
        <ele>124</ele>
        <time>2019-02-17T09:41:35.000Z</time>
      </trkpt>
      <trkpt lat="46.85265" lon="0.47152">
        <ele>124</ele>
        <time>2019-02-17T09:41:36.000Z</time>
      </trkpt>
      <trkpt lat="46.85266" lon="0.47151">
        <ele>124</ele>
        <time>2019-02-17T09:41:37.000Z</time>
      </trkpt>
      <trkpt lat="46.85268" lon="0.47149">
        <ele>124</ele>
        <time>2019-02-17T09:41:38.000Z</time>
      </trkpt>
      <trkpt lat="46.85269" lon="0.47147">
        <ele>124</ele>
        <time>2019-02-17T09:41:39.000Z</time>
      </trkpt>
      <trkpt lat="46.85271" lon="0.47145">
        <ele>124</ele>
        <time>2019-02-17T09:41:40.000Z</time>
      </trkpt>
      <trkpt lat="46.85273" lon="0.47144">
        <ele>124</ele>
        <time>2019-02-17T09:41:41.000Z</time>
      </trkpt>
      <trkpt lat="46.85274" lon="0.47142">
        <ele>124</ele>
        <time>2019-02-17T09:41:42.000Z</time>
      </trkpt>
      <trkpt lat="46.85276" lon="0.4714">
        <ele>124</ele>
        <time>2019-02-17T09:41:43.000Z</time>
      </trkpt>
      <trkpt lat="46.85277" lon="0.47139">
        <ele>124</ele>
        <time>2019-02-17T09:41:44.000Z</time>
      </trkpt>
      <trkpt lat="46.85279" lon="0.47137">
        <ele>124</ele>
        <time>2019-02-17T09:41:45.000Z</time>
      </trkpt>
      <trkpt lat="46.8528" lon="0.47136">
        <ele>125</ele>
        <time>2019-02-17T09:41:46.000Z</time>
      </trkpt>
      <trkpt lat="46.85282" lon="0.47134">
        <ele>125</ele>
        <time>2019-02-17T09:41:47.000Z</time>
      </trkpt>
      <trkpt lat="46.85283" lon="0.47132">
        <ele>125</ele>
        <time>2019-02-17T09:41:48.000Z</time>
      </trkpt>
      <trkpt lat="46.85285" lon="0.4713">
        <ele>125</ele>
        <time>2019-02-17T09:41:49.000Z</time>
      </trkpt>
      <trkpt lat="46.85287" lon="0.47128">
        <ele>125</ele>
        <time>2019-02-17T09:41:50.000Z</time>
      </trkpt>
      <trkpt lat="46.85288" lon="0.47126">
        <ele>125</ele>
        <time>2019-02-17T09:41:51.000Z</time>
      </trkpt>
      <trkpt lat="46.85289" lon="0.47124">
        <ele>125</ele>
        <time>2019-02-17T09:41:52.000Z</time>
      </trkpt>
      <trkpt lat="46.8529" lon="0.47122">
        <ele>126</ele>
        <time>2019-02-17T09:41:53.000Z</time>
      </trkpt>
      <trkpt lat="46.85292" lon="0.47121">
        <ele>127</ele>
        <time>2019-02-17T09:41:54.000Z</time>
      </trkpt>
      <trkpt lat="46.85294" lon="0.47119">
        <ele>127</ele>
        <time>2019-02-17T09:41:55.000Z</time>
      </trkpt>
      <trkpt lat="46.85295" lon="0.47117">
        <ele>128</ele>
        <time>2019-02-17T09:41:56.000Z</time>
      </trkpt>
      <trkpt lat="46.85297" lon="0.47115">
        <ele>129</ele>
        <time>2019-02-17T09:41:57.000Z</time>
      </trkpt>
      <trkpt lat="46.85298" lon="0.47114">
        <ele>129</ele>
        <time>2019-02-17T09:41:58.000Z</time>
      </trkpt>
      <trkpt lat="46.85299" lon="0.47112">
        <ele>130</ele>
        <time>2019-02-17T09:41:59.000Z</time>
      </trkpt>
      <trkpt lat="46.853" lon="0.4711">
        <ele>131</ele>
        <time>2019-02-17T09:42:00.000Z</time>
      </trkpt>
      <trkpt lat="46.85302" lon="0.47109">
        <ele>131</ele>
        <time>2019-02-17T09:42:01.000Z</time>
      </trkpt>
      <trkpt lat="46.85303" lon="0.47107">
        <ele>131</ele>
        <time>2019-02-17T09:42:02.000Z</time>
      </trkpt>
      <trkpt lat="46.85305" lon="0.47105">
        <ele>131</ele>
        <time>2019-02-17T09:42:03.000Z</time>
      </trkpt>
      <trkpt lat="46.85307" lon="0.47103">
        <ele>131</ele>
        <time>2019-02-17T09:42:04.000Z</time>
      </trkpt>
      <trkpt lat="46.85308" lon="0.47101">
        <ele>131</ele>
        <time>2019-02-17T09:42:05.000Z</time>
      </trkpt>
      <trkpt lat="46.8531" lon="0.47099">
        <ele>131</ele>
        <time>2019-02-17T09:42:06.000Z</time>
      </trkpt>
      <trkpt lat="46.85312" lon="0.47097">
        <ele>132</ele>
        <time>2019-02-17T09:42:07.000Z</time>
      </trkpt>
      <trkpt lat="46.85314" lon="0.47095">
        <ele>132</ele>
        <time>2019-02-17T09:42:08.000Z</time>
      </trkpt>
      <trkpt lat="46.85315" lon="0.47093">
        <ele>133</ele>
        <time>2019-02-17T09:42:09.000Z</time>
      </trkpt>
      <trkpt lat="46.85317" lon="0.47091">
        <ele>134</ele>
        <time>2019-02-17T09:42:10.000Z</time>
      </trkpt>
      <trkpt lat="46.85319" lon="0.47089">
        <ele>134</ele>
        <time>2019-02-17T09:42:11.000Z</time>
      </trkpt>
      <trkpt lat="46.85321" lon="0.47086">
        <ele>134</ele>
        <time>2019-02-17T09:42:12.000Z</time>
      </trkpt>
      <trkpt lat="46.85322" lon="0.47084">
        <ele>134</ele>
        <time>2019-02-17T09:42:13.000Z</time>
      </trkpt>
      <trkpt lat="46.85324" lon="0.47082">
        <ele>135</ele>
        <time>2019-02-17T09:42:14.000Z</time>
      </trkpt>
      <trkpt lat="46.85325" lon="0.4708">
        <ele>135</ele>
        <time>2019-02-17T09:42:15.000Z</time>
      </trkpt>
      <trkpt lat="46.85327" lon="0.47078">
        <ele>135</ele>
        <time>2019-02-17T09:42:16.000Z</time>
      </trkpt>
      <trkpt lat="46.85329" lon="0.47076">
        <ele>135</ele>
        <time>2019-02-17T09:42:17.000Z</time>
      </trkpt>
      <trkpt lat="46.85331" lon="0.47074">
        <ele>135</ele>
        <time>2019-02-17T09:42:18.000Z</time>
      </trkpt>
      <trkpt lat="46.85333" lon="0.47072">
        <ele>135</ele>
        <time>2019-02-17T09:42:19.000Z</time>
      </trkpt>
      <trkpt lat="46.85335" lon="0.4707">
        <ele>136</ele>
        <time>2019-02-17T09:42:20.000Z</time>
      </trkpt>
      <trkpt lat="46.85337" lon="0.47068">
        <ele>135</ele>
        <time>2019-02-17T09:42:21.000Z</time>
      </trkpt>
      <trkpt lat="46.85339" lon="0.47066">
        <ele>135</ele>
        <time>2019-02-17T09:42:22.000Z</time>
      </trkpt>
      <trkpt lat="46.85341" lon="0.47064">
        <ele>137</ele>
        <time>2019-02-17T09:42:23.000Z</time>
      </trkpt>
      <trkpt lat="46.85343" lon="0.47063">
        <ele>137</ele>
        <time>2019-02-17T09:42:24.000Z</time>
      </trkpt>
      <trkpt lat="46.85344" lon="0.47061">
        <ele>137</ele>
        <time>2019-02-17T09:42:25.000Z</time>
      </trkpt>
      <trkpt lat="46.85346" lon="0.4706">
        <ele>138</ele>
        <time>2019-02-17T09:42:26.000Z</time>
      </trkpt>
      <trkpt lat="46.85348" lon="0.47059">
        <ele>139</ele>
        <time>2019-02-17T09:42:27.000Z</time>
      </trkpt>
      <trkpt lat="46.85349" lon="0.47057">
        <ele>139</ele>
        <time>2019-02-17T09:42:28.000Z</time>
      </trkpt>
      <trkpt lat="46.85351" lon="0.47055">
        <ele>140</ele>
        <time>2019-02-17T09:42:29.000Z</time>
      </trkpt>
      <trkpt lat="46.85353" lon="0.47054">
        <ele>140</ele>
        <time>2019-02-17T09:42:30.000Z</time>
      </trkpt>
      <trkpt lat="46.85354" lon="0.47052">
        <ele>140</ele>
        <time>2019-02-17T09:42:31.000Z</time>
      </trkpt>
      <trkpt lat="46.85356" lon="0.4705">
        <ele>141</ele>
        <time>2019-02-17T09:42:32.000Z</time>
      </trkpt>
      <trkpt lat="46.85357" lon="0.47049">
        <ele>141</ele>
        <time>2019-02-17T09:42:33.000Z</time>
      </trkpt>
      <trkpt lat="46.85358" lon="0.47047">
        <ele>142</ele>
        <time>2019-02-17T09:42:34.000Z</time>
      </trkpt>
      <trkpt lat="46.85359" lon="0.47046">
        <ele>142</ele>
        <time>2019-02-17T09:42:35.000Z</time>
      </trkpt>
      <trkpt lat="46.85361" lon="0.47044">
        <ele>142</ele>
        <time>2019-02-17T09:42:36.000Z</time>
      </trkpt>
      <trkpt lat="46.85362" lon="0.47043">
        <ele>142</ele>
        <time>2019-02-17T09:42:37.000Z</time>
      </trkpt>
      <trkpt lat="46.85363" lon="0.47042">
        <ele>142</ele>
        <time>2019-02-17T09:42:38.000Z</time>
      </trkpt>
      <trkpt lat="46.85364" lon="0.4704">
        <ele>141</ele>
        <time>2019-02-17T09:42:39.000Z</time>
      </trkpt>
      <trkpt lat="46.85366" lon="0.47038">
        <ele>140</ele>
        <time>2019-02-17T09:42:40.000Z</time>
      </trkpt>
      <trkpt lat="46.85367" lon="0.47035">
        <ele>141</ele>
        <time>2019-02-17T09:42:41.000Z</time>
      </trkpt>
      <trkpt lat="46.85369" lon="0.47033">
        <ele>141</ele>
        <time>2019-02-17T09:42:42.000Z</time>
      </trkpt>
      <trkpt lat="46.85371" lon="0.47031">
        <ele>141</ele>
        <time>2019-02-17T09:42:43.000Z</time>
      </trkpt>
      <trkpt lat="46.85372" lon="0.4703">
        <ele>141</ele>
        <time>2019-02-17T09:42:44.000Z</time>
      </trkpt>
      <trkpt lat="46.85373" lon="0.47029">
        <ele>141</ele>
        <time>2019-02-17T09:42:45.000Z</time>
      </trkpt>
      <trkpt lat="46.85375" lon="0.47027">
        <ele>140</ele>
        <time>2019-02-17T09:42:46.000Z</time>
      </trkpt>
      <trkpt lat="46.85376" lon="0.47025">
        <ele>140</ele>
        <time>2019-02-17T09:42:47.000Z</time>
      </trkpt>
      <trkpt lat="46.85379" lon="0.47023">
        <ele>140</ele>
        <time>2019-02-17T09:42:48.000Z</time>
      </trkpt>
      <trkpt lat="46.85381" lon="0.47021">
        <ele>141</ele>
        <time>2019-02-17T09:42:49.000Z</time>
      </trkpt>
      <trkpt lat="46.85383" lon="0.4702">
        <ele>141</ele>
        <time>2019-02-17T09:42:50.000Z</time>
      </trkpt>
      <trkpt lat="46.85385" lon="0.47018">
        <ele>141</ele>
        <time>2019-02-17T09:42:51.000Z</time>
      </trkpt>
      <trkpt lat="46.85386" lon="0.47016">
        <ele>142</ele>
        <time>2019-02-17T09:42:52.000Z</time>
      </trkpt>
      <trkpt lat="46.85388" lon="0.47015">
        <ele>142</ele>
        <time>2019-02-17T09:42:53.000Z</time>
      </trkpt>
      <trkpt lat="46.85389" lon="0.47013">
        <ele>142</ele>
        <time>2019-02-17T09:42:54.000Z</time>
      </trkpt>
      <trkpt lat="46.8539" lon="0.47011">
        <ele>142</ele>
        <time>2019-02-17T09:42:55.000Z</time>
      </trkpt>
      <trkpt lat="46.8539" lon="0.4701">
        <ele>142</ele>
        <time>2019-02-17T09:42:56.000Z</time>
      </trkpt>
      <trkpt lat="46.85392" lon="0.47008">
        <ele>141</ele>
        <time>2019-02-17T09:42:57.000Z</time>
      </trkpt>
      <trkpt lat="46.85393" lon="0.47006">
        <ele>141</ele>
        <time>2019-02-17T09:42:58.000Z</time>
      </trkpt>
      <trkpt lat="46.85394" lon="0.47004">
        <ele>140</ele>
        <time>2019-02-17T09:42:59.000Z</time>
      </trkpt>
      <trkpt lat="46.85396" lon="0.47003">
        <ele>140</ele>
        <time>2019-02-17T09:43:00.000Z</time>
      </trkpt>
      <trkpt lat="46.85397" lon="0.47001">
        <ele>139</ele>
        <time>2019-02-17T09:43:01.000Z</time>
      </trkpt>
      <trkpt lat="46.85399" lon="0.46999">
        <ele>139</ele>
        <time>2019-02-17T09:43:02.000Z</time>
      </trkpt>
      <trkpt lat="46.854" lon="0.46997">
        <ele>138</ele>
        <time>2019-02-17T09:43:03.000Z</time>
      </trkpt>
      <trkpt lat="46.85402" lon="0.46996">
        <ele>137</ele>
        <time>2019-02-17T09:43:04.000Z</time>
      </trkpt>
      <trkpt lat="46.85404" lon="0.46993">
        <ele>138</ele>
        <time>2019-02-17T09:43:05.000Z</time>
      </trkpt>
      <trkpt lat="46.85406" lon="0.46991">
        <ele>137</ele>
        <time>2019-02-17T09:43:06.000Z</time>
      </trkpt>
      <trkpt lat="46.85408" lon="0.46988">
        <ele>136</ele>
        <time>2019-02-17T09:43:07.000Z</time>
      </trkpt>
      <trkpt lat="46.85409" lon="0.46986">
        <ele>135</ele>
        <time>2019-02-17T09:43:08.000Z</time>
      </trkpt>
      <trkpt lat="46.85411" lon="0.46984">
        <ele>135</ele>
        <time>2019-02-17T09:43:09.000Z</time>
      </trkpt>
      <trkpt lat="46.85412" lon="0.46982">
        <ele>134</ele>
        <time>2019-02-17T09:43:10.000Z</time>
      </trkpt>
      <trkpt lat="46.85414" lon="0.46981">
        <ele>134</ele>
        <time>2019-02-17T09:43:11.000Z</time>
      </trkpt>
      <trkpt lat="46.85415" lon="0.46979">
        <ele>134</ele>
        <time>2019-02-17T09:43:12.000Z</time>
      </trkpt>
      <trkpt lat="46.85417" lon="0.46977">
        <ele>134</ele>
        <time>2019-02-17T09:43:13.000Z</time>
      </trkpt>
      <trkpt lat="46.85418" lon="0.46975">
        <ele>133</ele>
        <time>2019-02-17T09:43:14.000Z</time>
      </trkpt>
      <trkpt lat="46.8542" lon="0.46972">
        <ele>133</ele>
        <time>2019-02-17T09:43:15.000Z</time>
      </trkpt>
      <trkpt lat="46.85421" lon="0.4697">
        <ele>134</ele>
        <time>2019-02-17T09:43:16.000Z</time>
      </trkpt>
      <trkpt lat="46.85423" lon="0.46967">
        <ele>134</ele>
        <time>2019-02-17T09:43:17.000Z</time>
      </trkpt>
      <trkpt lat="46.85424" lon="0.46965">
        <ele>134</ele>
        <time>2019-02-17T09:43:18.000Z</time>
      </trkpt>
      <trkpt lat="46.85426" lon="0.46963">
        <ele>134</ele>
        <time>2019-02-17T09:43:19.000Z</time>
      </trkpt>
      <trkpt lat="46.85428" lon="0.4696">
        <ele>135</ele>
        <time>2019-02-17T09:43:20.000Z</time>
      </trkpt>
      <trkpt lat="46.8543" lon="0.46957">
        <ele>135</ele>
        <time>2019-02-17T09:43:21.000Z</time>
      </trkpt>
      <trkpt lat="46.85431" lon="0.46954">
        <ele>136</ele>
        <time>2019-02-17T09:43:22.000Z</time>
      </trkpt>
      <trkpt lat="46.85433" lon="0.46951">
        <ele>135</ele>
        <time>2019-02-17T09:43:23.000Z</time>
      </trkpt>
      <trkpt lat="46.85434" lon="0.46949">
        <ele>135</ele>
        <time>2019-02-17T09:43:24.000Z</time>
      </trkpt>
      <trkpt lat="46.85435" lon="0.46946">
        <ele>135</ele>
        <time>2019-02-17T09:43:25.000Z</time>
      </trkpt>
      <trkpt lat="46.85437" lon="0.46943">
        <ele>135</ele>
        <time>2019-02-17T09:43:26.000Z</time>
      </trkpt>
      <trkpt lat="46.85438" lon="0.46941">
        <ele>136</ele>
        <time>2019-02-17T09:43:27.000Z</time>
      </trkpt>
      <trkpt lat="46.85439" lon="0.46938">
        <ele>135</ele>
        <time>2019-02-17T09:43:28.000Z</time>
      </trkpt>
      <trkpt lat="46.85441" lon="0.46935">
        <ele>136</ele>
        <time>2019-02-17T09:43:29.000Z</time>
      </trkpt>
      <trkpt lat="46.85442" lon="0.46932">
        <ele>137</ele>
        <time>2019-02-17T09:43:30.000Z</time>
      </trkpt>
      <trkpt lat="46.85444" lon="0.46929">
        <ele>137</ele>
        <time>2019-02-17T09:43:31.000Z</time>
      </trkpt>
      <trkpt lat="46.85445" lon="0.46925">
        <ele>138</ele>
        <time>2019-02-17T09:43:32.000Z</time>
      </trkpt>
      <trkpt lat="46.85446" lon="0.46922">
        <ele>138</ele>
        <time>2019-02-17T09:43:33.000Z</time>
      </trkpt>
      <trkpt lat="46.85447" lon="0.46919">
        <ele>139</ele>
        <time>2019-02-17T09:43:34.000Z</time>
      </trkpt>
      <trkpt lat="46.85448" lon="0.46916">
        <ele>139</ele>
        <time>2019-02-17T09:43:35.000Z</time>
      </trkpt>
      <trkpt lat="46.85449" lon="0.46913">
        <ele>140</ele>
        <time>2019-02-17T09:43:36.000Z</time>
      </trkpt>
      <trkpt lat="46.8545" lon="0.4691">
        <ele>140</ele>
        <time>2019-02-17T09:43:37.000Z</time>
      </trkpt>
      <trkpt lat="46.85451" lon="0.46906">
        <ele>140</ele>
        <time>2019-02-17T09:43:38.000Z</time>
      </trkpt>
      <trkpt lat="46.85452" lon="0.46903">
        <ele>140</ele>
        <time>2019-02-17T09:43:39.000Z</time>
      </trkpt>
      <trkpt lat="46.85453" lon="0.469">
        <ele>140</ele>
        <time>2019-02-17T09:43:40.000Z</time>
      </trkpt>
      <trkpt lat="46.85454" lon="0.46897">
        <ele>140</ele>
        <time>2019-02-17T09:43:41.000Z</time>
      </trkpt>
      <trkpt lat="46.85455" lon="0.46894">
        <ele>140</ele>
        <time>2019-02-17T09:43:42.000Z</time>
      </trkpt>
      <trkpt lat="46.85456" lon="0.46891">
        <ele>140</ele>
        <time>2019-02-17T09:43:43.000Z</time>
      </trkpt>
      <trkpt lat="46.85457" lon="0.46888">
        <ele>141</ele>
        <time>2019-02-17T09:43:44.000Z</time>
      </trkpt>
      <trkpt lat="46.85458" lon="0.46885">
        <ele>141</ele>
        <time>2019-02-17T09:43:45.000Z</time>
      </trkpt>
      <trkpt lat="46.85459" lon="0.46882">
        <ele>141</ele>
        <time>2019-02-17T09:43:46.000Z</time>
      </trkpt>
      <trkpt lat="46.8546" lon="0.46878">
        <ele>141</ele>
        <time>2019-02-17T09:43:47.000Z</time>
      </trkpt>
      <trkpt lat="46.85461" lon="0.46876">
        <ele>141</ele>
        <time>2019-02-17T09:43:48.000Z</time>
      </trkpt>
      <trkpt lat="46.85462" lon="0.46873">
        <ele>141</ele>
        <time>2019-02-17T09:43:49.000Z</time>
      </trkpt>
      <trkpt lat="46.85463" lon="0.4687">
        <ele>141</ele>
        <time>2019-02-17T09:43:50.000Z</time>
      </trkpt>
      <trkpt lat="46.85464" lon="0.46867">
        <ele>142</ele>
        <time>2019-02-17T09:43:51.000Z</time>
      </trkpt>
      <trkpt lat="46.85465" lon="0.46864">
        <ele>142</ele>
        <time>2019-02-17T09:43:52.000Z</time>
      </trkpt>
      <trkpt lat="46.85465" lon="0.46862">
        <ele>142</ele>
        <time>2019-02-17T09:43:53.000Z</time>
      </trkpt>
      <trkpt lat="46.85466" lon="0.46859">
        <ele>142</ele>
        <time>2019-02-17T09:43:54.000Z</time>
      </trkpt>
      <trkpt lat="46.85467" lon="0.46857">
        <ele>142</ele>
        <time>2019-02-17T09:43:55.000Z</time>
      </trkpt>
      <trkpt lat="46.85467" lon="0.46854">
        <ele>142</ele>
        <time>2019-02-17T09:43:56.000Z</time>
      </trkpt>
      <trkpt lat="46.85468" lon="0.46852">
        <ele>143</ele>
        <time>2019-02-17T09:43:57.000Z</time>
      </trkpt>
      <trkpt lat="46.85469" lon="0.46849">
        <ele>143</ele>
        <time>2019-02-17T09:43:58.000Z</time>
      </trkpt>
      <trkpt lat="46.8547" lon="0.46846">
        <ele>142</ele>
        <time>2019-02-17T09:43:59.000Z</time>
      </trkpt>
      <trkpt lat="46.85471" lon="0.46843">
        <ele>143</ele>
        <time>2019-02-17T09:44:00.000Z</time>
      </trkpt>
      <trkpt lat="46.85472" lon="0.46841">
        <ele>143</ele>
        <time>2019-02-17T09:44:01.000Z</time>
      </trkpt>
      <trkpt lat="46.85472" lon="0.46838">
        <ele>143</ele>
        <time>2019-02-17T09:44:02.000Z</time>
      </trkpt>
      <trkpt lat="46.85473" lon="0.46836">
        <ele>143</ele>
        <time>2019-02-17T09:44:03.000Z</time>
      </trkpt>
      <trkpt lat="46.85474" lon="0.46834">
        <ele>143</ele>
        <time>2019-02-17T09:44:04.000Z</time>
      </trkpt>
      <trkpt lat="46.85475" lon="0.46831">
        <ele>143</ele>
        <time>2019-02-17T09:44:05.000Z</time>
      </trkpt>
      <trkpt lat="46.85476" lon="0.46829">
        <ele>143</ele>
        <time>2019-02-17T09:44:06.000Z</time>
      </trkpt>
      <trkpt lat="46.85477" lon="0.46827">
        <ele>144</ele>
        <time>2019-02-17T09:44:07.000Z</time>
      </trkpt>
      <trkpt lat="46.85477" lon="0.46824">
        <ele>144</ele>
        <time>2019-02-17T09:44:08.000Z</time>
      </trkpt>
      <trkpt lat="46.85478" lon="0.46822">
        <ele>144</ele>
        <time>2019-02-17T09:44:09.000Z</time>
      </trkpt>
      <trkpt lat="46.85479" lon="0.4682">
        <ele>144</ele>
        <time>2019-02-17T09:44:10.000Z</time>
      </trkpt>
      <trkpt lat="46.8548" lon="0.46817">
        <ele>144</ele>
        <time>2019-02-17T09:44:11.000Z</time>
      </trkpt>
      <trkpt lat="46.85481" lon="0.46815">
        <ele>144</ele>
        <time>2019-02-17T09:44:12.000Z</time>
      </trkpt>
      <trkpt lat="46.85482" lon="0.46813">
        <ele>144</ele>
        <time>2019-02-17T09:44:13.000Z</time>
      </trkpt>
      <trkpt lat="46.85483" lon="0.4681">
        <ele>144</ele>
        <time>2019-02-17T09:44:14.000Z</time>
      </trkpt>
      <trkpt lat="46.85484" lon="0.46808">
        <ele>144</ele>
        <time>2019-02-17T09:44:15.000Z</time>
      </trkpt>
      <trkpt lat="46.85485" lon="0.46806">
        <ele>144</ele>
        <time>2019-02-17T09:44:16.000Z</time>
      </trkpt>
      <trkpt lat="46.85486" lon="0.46804">
        <ele>144</ele>
        <time>2019-02-17T09:44:17.000Z</time>
      </trkpt>
      <trkpt lat="46.85487" lon="0.46802">
        <ele>144</ele>
        <time>2019-02-17T09:44:18.000Z</time>
      </trkpt>
      <trkpt lat="46.85488" lon="0.46799">
        <ele>144</ele>
        <time>2019-02-17T09:44:19.000Z</time>
      </trkpt>
      <trkpt lat="46.85489" lon="0.46797">
        <ele>145</ele>
        <time>2019-02-17T09:44:20.000Z</time>
      </trkpt>
      <trkpt lat="46.8549" lon="0.46794">
        <ele>145</ele>
        <time>2019-02-17T09:44:21.000Z</time>
      </trkpt>
      <trkpt lat="46.85491" lon="0.46791">
        <ele>145</ele>
        <time>2019-02-17T09:44:22.000Z</time>
      </trkpt>
      <trkpt lat="46.85492" lon="0.46789">
        <ele>145</ele>
        <time>2019-02-17T09:44:23.000Z</time>
      </trkpt>
      <trkpt lat="46.85493" lon="0.46786">
        <ele>145</ele>
        <time>2019-02-17T09:44:24.000Z</time>
      </trkpt>
      <trkpt lat="46.85494" lon="0.46784">
        <ele>145</ele>
        <time>2019-02-17T09:44:25.000Z</time>
      </trkpt>
      <trkpt lat="46.85495" lon="0.46781">
        <ele>145</ele>
        <time>2019-02-17T09:44:26.000Z</time>
      </trkpt>
      <trkpt lat="46.85496" lon="0.46779">
        <ele>145</ele>
        <time>2019-02-17T09:44:27.000Z</time>
      </trkpt>
      <trkpt lat="46.85497" lon="0.46777">
        <ele>145</ele>
        <time>2019-02-17T09:44:28.000Z</time>
      </trkpt>
      <trkpt lat="46.85498" lon="0.46774">
        <ele>145</ele>
        <time>2019-02-17T09:44:29.000Z</time>
      </trkpt>
      <trkpt lat="46.85499" lon="0.46771">
        <ele>145</ele>
        <time>2019-02-17T09:44:30.000Z</time>
      </trkpt>
      <trkpt lat="46.855" lon="0.46769">
        <ele>145</ele>
        <time>2019-02-17T09:44:31.000Z</time>
      </trkpt>
      <trkpt lat="46.855" lon="0.46766">
        <ele>145</ele>
        <time>2019-02-17T09:44:32.000Z</time>
      </trkpt>
      <trkpt lat="46.85501" lon="0.46763">
        <ele>146</ele>
        <time>2019-02-17T09:44:33.000Z</time>
      </trkpt>
      <trkpt lat="46.85501" lon="0.4676">
        <ele>146</ele>
        <time>2019-02-17T09:44:34.000Z</time>
      </trkpt>
      <trkpt lat="46.85501" lon="0.46757">
        <ele>146</ele>
        <time>2019-02-17T09:44:35.000Z</time>
      </trkpt>
      <trkpt lat="46.85502" lon="0.46754">
        <ele>146</ele>
        <time>2019-02-17T09:44:36.000Z</time>
      </trkpt>
      <trkpt lat="46.85502" lon="0.46752">
        <ele>146</ele>
        <time>2019-02-17T09:44:37.000Z</time>
      </trkpt>
      <trkpt lat="46.85502" lon="0.46749">
        <ele>147</ele>
        <time>2019-02-17T09:44:38.000Z</time>
      </trkpt>
      <trkpt lat="46.85503" lon="0.46746">
        <ele>148</ele>
        <time>2019-02-17T09:44:39.000Z</time>
      </trkpt>
      <trkpt lat="46.85503" lon="0.46743">
        <ele>149</ele>
        <time>2019-02-17T09:44:40.000Z</time>
      </trkpt>
      <trkpt lat="46.85504" lon="0.46741">
        <ele>149</ele>
        <time>2019-02-17T09:44:41.000Z</time>
      </trkpt>
      <trkpt lat="46.85504" lon="0.46738">
        <ele>150</ele>
        <time>2019-02-17T09:44:42.000Z</time>
      </trkpt>
      <trkpt lat="46.85504" lon="0.46735">
        <ele>151</ele>
        <time>2019-02-17T09:44:43.000Z</time>
      </trkpt>
      <trkpt lat="46.85504" lon="0.46732">
        <ele>151</ele>
        <time>2019-02-17T09:44:44.000Z</time>
      </trkpt>
      <trkpt lat="46.85504" lon="0.46729">
        <ele>150</ele>
        <time>2019-02-17T09:44:45.000Z</time>
      </trkpt>
      <trkpt lat="46.85504" lon="0.46726">
        <ele>149</ele>
        <time>2019-02-17T09:44:46.000Z</time>
      </trkpt>
      <trkpt lat="46.85504" lon="0.46722">
        <ele>149</ele>
        <time>2019-02-17T09:44:47.000Z</time>
      </trkpt>
      <trkpt lat="46.85504" lon="0.46719">
        <ele>149</ele>
        <time>2019-02-17T09:44:48.000Z</time>
      </trkpt>
      <trkpt lat="46.85504" lon="0.46716">
        <ele>149</ele>
        <time>2019-02-17T09:44:49.000Z</time>
      </trkpt>
      <trkpt lat="46.85504" lon="0.46713">
        <ele>149</ele>
        <time>2019-02-17T09:44:50.000Z</time>
      </trkpt>
      <trkpt lat="46.85504" lon="0.46709">
        <ele>150</ele>
        <time>2019-02-17T09:44:51.000Z</time>
      </trkpt>
      <trkpt lat="46.85504" lon="0.46705">
        <ele>150</ele>
        <time>2019-02-17T09:44:52.000Z</time>
      </trkpt>
      <trkpt lat="46.85503" lon="0.46702">
        <ele>150</ele>
        <time>2019-02-17T09:44:53.000Z</time>
      </trkpt>
      <trkpt lat="46.85503" lon="0.46698">
        <ele>150</ele>
        <time>2019-02-17T09:44:54.000Z</time>
      </trkpt>
      <trkpt lat="46.85503" lon="0.46694">
        <ele>149</ele>
        <time>2019-02-17T09:44:55.000Z</time>
      </trkpt>
      <trkpt lat="46.85502" lon="0.46691">
        <ele>149</ele>
        <time>2019-02-17T09:44:56.000Z</time>
      </trkpt>
      <trkpt lat="46.85502" lon="0.46687">
        <ele>149</ele>
        <time>2019-02-17T09:44:57.000Z</time>
      </trkpt>
      <trkpt lat="46.85502" lon="0.46684">
        <ele>150</ele>
        <time>2019-02-17T09:44:58.000Z</time>
      </trkpt>
      <trkpt lat="46.85501" lon="0.4668">
        <ele>150</ele>
        <time>2019-02-17T09:44:59.000Z</time>
      </trkpt>
      <trkpt lat="46.85501" lon="0.46677">
        <ele>150</ele>
        <time>2019-02-17T09:45:00.000Z</time>
      </trkpt>
      <trkpt lat="46.85501" lon="0.46674">
        <ele>150</ele>
        <time>2019-02-17T09:45:01.000Z</time>
      </trkpt>
      <trkpt lat="46.85501" lon="0.4667">
        <ele>150</ele>
        <time>2019-02-17T09:45:02.000Z</time>
      </trkpt>
      <trkpt lat="46.85501" lon="0.46667">
        <ele>150</ele>
        <time>2019-02-17T09:45:03.000Z</time>
      </trkpt>
      <trkpt lat="46.85501" lon="0.46664">
        <ele>150</ele>
        <time>2019-02-17T09:45:04.000Z</time>
      </trkpt>
      <trkpt lat="46.855" lon="0.46661">
        <ele>151</ele>
        <time>2019-02-17T09:45:05.000Z</time>
      </trkpt>
      <trkpt lat="46.855" lon="0.46658">
        <ele>151</ele>
        <time>2019-02-17T09:45:06.000Z</time>
      </trkpt>
      <trkpt lat="46.855" lon="0.46654">
        <ele>151</ele>
        <time>2019-02-17T09:45:07.000Z</time>
      </trkpt>
      <trkpt lat="46.855" lon="0.46651">
        <ele>151</ele>
        <time>2019-02-17T09:45:08.000Z</time>
      </trkpt>
      <trkpt lat="46.85501" lon="0.46648">
        <ele>151</ele>
        <time>2019-02-17T09:45:09.000Z</time>
      </trkpt>
      <trkpt lat="46.85501" lon="0.46645">
        <ele>151</ele>
        <time>2019-02-17T09:45:10.000Z</time>
      </trkpt>
      <trkpt lat="46.85501" lon="0.46642">
        <ele>151</ele>
        <time>2019-02-17T09:45:11.000Z</time>
      </trkpt>
      <trkpt lat="46.855" lon="0.46639">
        <ele>151</ele>
        <time>2019-02-17T09:45:12.000Z</time>
      </trkpt>
      <trkpt lat="46.855" lon="0.46635">
        <ele>151</ele>
        <time>2019-02-17T09:45:13.000Z</time>
      </trkpt>
      <trkpt lat="46.855" lon="0.46632">
        <ele>152</ele>
        <time>2019-02-17T09:45:14.000Z</time>
      </trkpt>
      <trkpt lat="46.855" lon="0.46629">
        <ele>152</ele>
        <time>2019-02-17T09:45:15.000Z</time>
      </trkpt>
      <trkpt lat="46.85499" lon="0.46625">
        <ele>152</ele>
        <time>2019-02-17T09:45:16.000Z</time>
      </trkpt>
      <trkpt lat="46.85499" lon="0.46622">
        <ele>152</ele>
        <time>2019-02-17T09:45:17.000Z</time>
      </trkpt>
      <trkpt lat="46.85498" lon="0.46619">
        <ele>152</ele>
        <time>2019-02-17T09:45:18.000Z</time>
      </trkpt>
      <trkpt lat="46.85498" lon="0.46616">
        <ele>152</ele>
        <time>2019-02-17T09:45:19.000Z</time>
      </trkpt>
      <trkpt lat="46.85498" lon="0.46612">
        <ele>152</ele>
        <time>2019-02-17T09:45:20.000Z</time>
      </trkpt>
      <trkpt lat="46.85498" lon="0.46609">
        <ele>151</ele>
        <time>2019-02-17T09:45:21.000Z</time>
      </trkpt>
      <trkpt lat="46.85498" lon="0.46607">
        <ele>151</ele>
        <time>2019-02-17T09:45:22.000Z</time>
      </trkpt>
      <trkpt lat="46.85498" lon="0.46604">
        <ele>151</ele>
        <time>2019-02-17T09:45:23.000Z</time>
      </trkpt>
      <trkpt lat="46.85498" lon="0.46601">
        <ele>150</ele>
        <time>2019-02-17T09:45:24.000Z</time>
      </trkpt>
      <trkpt lat="46.85498" lon="0.46598">
        <ele>150</ele>
        <time>2019-02-17T09:45:25.000Z</time>
      </trkpt>
      <trkpt lat="46.85497" lon="0.46595">
        <ele>150</ele>
        <time>2019-02-17T09:45:26.000Z</time>
      </trkpt>
      <trkpt lat="46.85497" lon="0.46592">
        <ele>149</ele>
        <time>2019-02-17T09:45:27.000Z</time>
      </trkpt>
      <trkpt lat="46.85498" lon="0.46588">
        <ele>149</ele>
        <time>2019-02-17T09:45:28.000Z</time>
      </trkpt>
      <trkpt lat="46.85498" lon="0.46585">
        <ele>149</ele>
        <time>2019-02-17T09:45:29.000Z</time>
      </trkpt>
      <trkpt lat="46.85498" lon="0.46582">
        <ele>149</ele>
        <time>2019-02-17T09:45:30.000Z</time>
      </trkpt>
      <trkpt lat="46.85499" lon="0.46578">
        <ele>149</ele>
        <time>2019-02-17T09:45:31.000Z</time>
      </trkpt>
      <trkpt lat="46.85499" lon="0.46574">
        <ele>150</ele>
        <time>2019-02-17T09:45:32.000Z</time>
      </trkpt>
      <trkpt lat="46.855" lon="0.4657">
        <ele>150</ele>
        <time>2019-02-17T09:45:33.000Z</time>
      </trkpt>
      <trkpt lat="46.855" lon="0.46566">
        <ele>150</ele>
        <time>2019-02-17T09:45:34.000Z</time>
      </trkpt>
      <trkpt lat="46.85501" lon="0.46562">
        <ele>150</ele>
        <time>2019-02-17T09:45:35.000Z</time>
      </trkpt>
      <trkpt lat="46.85501" lon="0.46558">
        <ele>150</ele>
        <time>2019-02-17T09:45:36.000Z</time>
      </trkpt>
      <trkpt lat="46.85501" lon="0.46554">
        <ele>150</ele>
        <time>2019-02-17T09:45:37.000Z</time>
      </trkpt>
      <trkpt lat="46.85501" lon="0.4655">
        <ele>151</ele>
        <time>2019-02-17T09:45:38.000Z</time>
      </trkpt>
      <trkpt lat="46.85502" lon="0.46547">
        <ele>151</ele>
        <time>2019-02-17T09:45:39.000Z</time>
      </trkpt>
      <trkpt lat="46.85503" lon="0.46543">
        <ele>151</ele>
        <time>2019-02-17T09:45:40.000Z</time>
      </trkpt>
      <trkpt lat="46.85504" lon="0.46539">
        <ele>150</ele>
        <time>2019-02-17T09:45:41.000Z</time>
      </trkpt>
      <trkpt lat="46.85504" lon="0.46535">
        <ele>151</ele>
        <time>2019-02-17T09:45:42.000Z</time>
      </trkpt>
      <trkpt lat="46.85505" lon="0.46531">
        <ele>150</ele>
        <time>2019-02-17T09:45:43.000Z</time>
      </trkpt>
      <trkpt lat="46.85506" lon="0.46527">
        <ele>151</ele>
        <time>2019-02-17T09:45:44.000Z</time>
      </trkpt>
      <trkpt lat="46.85507" lon="0.46523">
        <ele>151</ele>
        <time>2019-02-17T09:45:45.000Z</time>
      </trkpt>
      <trkpt lat="46.85508" lon="0.46519">
        <ele>151</ele>
        <time>2019-02-17T09:45:46.000Z</time>
      </trkpt>
      <trkpt lat="46.85509" lon="0.46515">
        <ele>149</ele>
        <time>2019-02-17T09:45:47.000Z</time>
      </trkpt>
      <trkpt lat="46.85511" lon="0.46511">
        <ele>148</ele>
        <time>2019-02-17T09:45:48.000Z</time>
      </trkpt>
      <trkpt lat="46.85512" lon="0.46507">
        <ele>147</ele>
        <time>2019-02-17T09:45:49.000Z</time>
      </trkpt>
      <trkpt lat="46.85513" lon="0.46502">
        <ele>147</ele>
        <time>2019-02-17T09:45:50.000Z</time>
      </trkpt>
      <trkpt lat="46.85513" lon="0.46498">
        <ele>146</ele>
        <time>2019-02-17T09:45:51.000Z</time>
      </trkpt>
      <trkpt lat="46.85515" lon="0.46493">
        <ele>145</ele>
        <time>2019-02-17T09:45:52.000Z</time>
      </trkpt>
      <trkpt lat="46.85516" lon="0.46488">
        <ele>145</ele>
        <time>2019-02-17T09:45:53.000Z</time>
      </trkpt>
      <trkpt lat="46.85517" lon="0.46483">
        <ele>144</ele>
        <time>2019-02-17T09:45:54.000Z</time>
      </trkpt>
      <trkpt lat="46.85518" lon="0.46477">
        <ele>144</ele>
        <time>2019-02-17T09:45:55.000Z</time>
      </trkpt>
      <trkpt lat="46.85519" lon="0.46471">
        <ele>144</ele>
        <time>2019-02-17T09:45:56.000Z</time>
      </trkpt>
      <trkpt lat="46.85521" lon="0.46465">
        <ele>144</ele>
        <time>2019-02-17T09:45:57.000Z</time>
      </trkpt>
      <trkpt lat="46.85523" lon="0.46459">
        <ele>144</ele>
        <time>2019-02-17T09:45:58.000Z</time>
      </trkpt>
      <trkpt lat="46.85526" lon="0.46454">
        <ele>144</ele>
        <time>2019-02-17T09:45:59.000Z</time>
      </trkpt>
      <trkpt lat="46.85528" lon="0.46448">
        <ele>144</ele>
        <time>2019-02-17T09:46:00.000Z</time>
      </trkpt>
      <trkpt lat="46.85529" lon="0.46443">
        <ele>144</ele>
        <time>2019-02-17T09:46:01.000Z</time>
      </trkpt>
      <trkpt lat="46.8553" lon="0.46439">
        <ele>143</ele>
        <time>2019-02-17T09:46:02.000Z</time>
      </trkpt>
      <trkpt lat="46.85532" lon="0.46435">
        <ele>143</ele>
        <time>2019-02-17T09:46:03.000Z</time>
      </trkpt>
      <trkpt lat="46.85532" lon="0.4643">
        <ele>143</ele>
        <time>2019-02-17T09:46:04.000Z</time>
      </trkpt>
      <trkpt lat="46.85533" lon="0.46426">
        <ele>143</ele>
        <time>2019-02-17T09:46:05.000Z</time>
      </trkpt>
      <trkpt lat="46.85534" lon="0.46422">
        <ele>144</ele>
        <time>2019-02-17T09:46:06.000Z</time>
      </trkpt>
      <trkpt lat="46.85534" lon="0.46418">
        <ele>144</ele>
        <time>2019-02-17T09:46:07.000Z</time>
      </trkpt>
      <trkpt lat="46.85534" lon="0.46415">
        <ele>145</ele>
        <time>2019-02-17T09:46:08.000Z</time>
      </trkpt>
      <trkpt lat="46.85533" lon="0.46412">
        <ele>145</ele>
        <time>2019-02-17T09:46:09.000Z</time>
      </trkpt>
      <trkpt lat="46.85532" lon="0.46411">
        <ele>145</ele>
        <time>2019-02-17T09:46:10.000Z</time>
      </trkpt>
      <trkpt lat="46.85531" lon="0.4641">
        <ele>145</ele>
        <time>2019-02-17T09:46:11.000Z</time>
      </trkpt>
      <trkpt lat="46.8553" lon="0.46408">
        <ele>145</ele>
        <time>2019-02-17T09:46:12.000Z</time>
      </trkpt>
      <trkpt lat="46.85527" lon="0.46406">
        <ele>146</ele>
        <time>2019-02-17T09:46:13.000Z</time>
      </trkpt>
      <trkpt lat="46.85525" lon="0.46405">
        <ele>146</ele>
        <time>2019-02-17T09:46:14.000Z</time>
      </trkpt>
      <trkpt lat="46.85522" lon="0.46403">
        <ele>145</ele>
        <time>2019-02-17T09:46:15.000Z</time>
      </trkpt>
      <trkpt lat="46.85521" lon="0.46402">
        <ele>146</ele>
        <time>2019-02-17T09:46:16.000Z</time>
      </trkpt>
      <trkpt lat="46.85518" lon="0.46401">
        <ele>146</ele>
        <time>2019-02-17T09:46:17.000Z</time>
      </trkpt>
      <trkpt lat="46.85515" lon="0.464">
        <ele>147</ele>
        <time>2019-02-17T09:46:18.000Z</time>
      </trkpt>
      <trkpt lat="46.85512" lon="0.46398">
        <ele>147</ele>
        <time>2019-02-17T09:46:19.000Z</time>
      </trkpt>
      <trkpt lat="46.8551" lon="0.46397">
        <ele>148</ele>
        <time>2019-02-17T09:46:20.000Z</time>
      </trkpt>
      <trkpt lat="46.85508" lon="0.46396">
        <ele>148</ele>
        <time>2019-02-17T09:46:21.000Z</time>
      </trkpt>
      <trkpt lat="46.85505" lon="0.46395">
        <ele>148</ele>
        <time>2019-02-17T09:46:22.000Z</time>
      </trkpt>
      <trkpt lat="46.85503" lon="0.46394">
        <ele>150</ele>
        <time>2019-02-17T09:46:23.000Z</time>
      </trkpt>
      <trkpt lat="46.855" lon="0.46393">
        <ele>151</ele>
        <time>2019-02-17T09:46:24.000Z</time>
      </trkpt>
      <trkpt lat="46.85498" lon="0.46393">
        <ele>151</ele>
        <time>2019-02-17T09:46:25.000Z</time>
      </trkpt>
      <trkpt lat="46.85495" lon="0.46392">
        <ele>152</ele>
        <time>2019-02-17T09:46:26.000Z</time>
      </trkpt>
      <trkpt lat="46.85493" lon="0.46392">
        <ele>152</ele>
        <time>2019-02-17T09:46:27.000Z</time>
      </trkpt>
      <trkpt lat="46.85491" lon="0.46392">
        <ele>153</ele>
        <time>2019-02-17T09:46:28.000Z</time>
      </trkpt>
      <trkpt lat="46.85488" lon="0.46391">
        <ele>154</ele>
        <time>2019-02-17T09:46:29.000Z</time>
      </trkpt>
      <trkpt lat="46.85486" lon="0.4639">
        <ele>155</ele>
        <time>2019-02-17T09:46:30.000Z</time>
      </trkpt>
      <trkpt lat="46.85484" lon="0.46388">
        <ele>155</ele>
        <time>2019-02-17T09:46:31.000Z</time>
      </trkpt>
      <trkpt lat="46.85481" lon="0.46385">
        <ele>156</ele>
        <time>2019-02-17T09:46:32.000Z</time>
      </trkpt>
      <trkpt lat="46.85478" lon="0.46383">
        <ele>157</ele>
        <time>2019-02-17T09:46:33.000Z</time>
      </trkpt>
      <trkpt lat="46.85475" lon="0.4638">
        <ele>157</ele>
        <time>2019-02-17T09:46:34.000Z</time>
      </trkpt>
      <trkpt lat="46.85472" lon="0.46377">
        <ele>156</ele>
        <time>2019-02-17T09:46:35.000Z</time>
      </trkpt>
      <trkpt lat="46.85469" lon="0.46374">
        <ele>155</ele>
        <time>2019-02-17T09:46:36.000Z</time>
      </trkpt>
      <trkpt lat="46.85467" lon="0.46371">
        <ele>155</ele>
        <time>2019-02-17T09:46:37.000Z</time>
      </trkpt>
      <trkpt lat="46.85465" lon="0.46368">
        <ele>155</ele>
        <time>2019-02-17T09:46:38.000Z</time>
      </trkpt>
      <trkpt lat="46.85462" lon="0.46366">
        <ele>154</ele>
        <time>2019-02-17T09:46:39.000Z</time>
      </trkpt>
      <trkpt lat="46.8546" lon="0.46364">
        <ele>154</ele>
        <time>2019-02-17T09:46:40.000Z</time>
      </trkpt>
      <trkpt lat="46.85458" lon="0.46362">
        <ele>154</ele>
        <time>2019-02-17T09:46:41.000Z</time>
      </trkpt>
      <trkpt lat="46.85456" lon="0.4636">
        <ele>154</ele>
        <time>2019-02-17T09:46:42.000Z</time>
      </trkpt>
      <trkpt lat="46.85455" lon="0.46359">
        <ele>153</ele>
        <time>2019-02-17T09:46:43.000Z</time>
      </trkpt>
      <trkpt lat="46.85454" lon="0.46359">
        <ele>153</ele>
        <time>2019-02-17T09:46:44.000Z</time>
      </trkpt>
      <trkpt lat="46.85453" lon="0.46358">
        <ele>153</ele>
        <time>2019-02-17T09:46:45.000Z</time>
      </trkpt>
      <trkpt lat="46.85453" lon="0.46358">
        <ele>153</ele>
        <time>2019-02-17T09:46:46.000Z</time>
      </trkpt>
      <trkpt lat="46.85453" lon="0.46357">
        <ele>155</ele>
        <time>2019-02-17T09:46:47.000Z</time>
      </trkpt>
      <trkpt lat="46.85452" lon="0.46357">
        <ele>155</ele>
        <time>2019-02-17T09:46:48.000Z</time>
      </trkpt>
      <trkpt lat="46.85452" lon="0.46357">
        <ele>156</ele>
        <time>2019-02-17T09:46:49.000Z</time>
      </trkpt>
      <trkpt lat="46.85452" lon="0.46357">
        <ele>157</ele>
        <time>2019-02-17T09:46:50.000Z</time>
      </trkpt>
      <trkpt lat="46.85452" lon="0.46357">
        <ele>157</ele>
        <time>2019-02-17T09:46:51.000Z</time>
      </trkpt>
      <trkpt lat="46.85451" lon="0.46357">
        <ele>157</ele>
        <time>2019-02-17T09:46:52.000Z</time>
      </trkpt>
      <trkpt lat="46.85451" lon="0.46357">
        <ele>158</ele>
        <time>2019-02-17T09:46:53.000Z</time>
      </trkpt>
      <trkpt lat="46.85015" lon="0.45845">
        <ele>151</ele>
        <time>2019-02-17T09:46:54.098Z</time>
      </trkpt>
      <trkpt lat="46.85012" lon="0.45843">
        <ele>151</ele>
        <time>2019-02-17T09:46:55.098Z</time>
      </trkpt>
      <trkpt lat="46.85008" lon="0.4584">
        <ele>151</ele>
        <time>2019-02-17T09:46:56.098Z</time>
      </trkpt>
      <trkpt lat="46.85005" lon="0.45838">
        <ele>151</ele>
        <time>2019-02-17T09:46:57.098Z</time>
      </trkpt>
      <trkpt lat="46.85002" lon="0.45836">
        <ele>151</ele>
        <time>2019-02-17T09:46:58.098Z</time>
      </trkpt>
      <trkpt lat="46.84998" lon="0.45834">
        <ele>151</ele>
        <time>2019-02-17T09:46:59.098Z</time>
      </trkpt>
      <trkpt lat="46.84995" lon="0.45832">
        <ele>151</ele>
        <time>2019-02-17T09:47:00.098Z</time>
      </trkpt>
      <trkpt lat="46.84991" lon="0.45829">
        <ele>151</ele>
        <time>2019-02-17T09:47:01.098Z</time>
      </trkpt>
      <trkpt lat="46.84987" lon="0.45827">
        <ele>151</ele>
        <time>2019-02-17T09:47:02.098Z</time>
      </trkpt>
      <trkpt lat="46.84984" lon="0.45825">
        <ele>151</ele>
        <time>2019-02-17T09:47:03.098Z</time>
      </trkpt>
      <trkpt lat="46.84981" lon="0.45822">
        <ele>151</ele>
        <time>2019-02-17T09:47:04.098Z</time>
      </trkpt>
      <trkpt lat="46.84977" lon="0.45819">
        <ele>151</ele>
        <time>2019-02-17T09:47:05.098Z</time>
      </trkpt>
      <trkpt lat="46.84974" lon="0.45816">
        <ele>151</ele>
        <time>2019-02-17T09:47:06.098Z</time>
      </trkpt>
      <trkpt lat="46.84971" lon="0.45814">
        <ele>150</ele>
        <time>2019-02-17T09:47:07.098Z</time>
      </trkpt>
      <trkpt lat="46.84968" lon="0.45811">
        <ele>150</ele>
        <time>2019-02-17T09:47:08.098Z</time>
      </trkpt>
      <trkpt lat="46.84964" lon="0.45808">
        <ele>150</ele>
        <time>2019-02-17T09:47:09.098Z</time>
      </trkpt>
      <trkpt lat="46.84961" lon="0.45806">
        <ele>149</ele>
        <time>2019-02-17T09:47:10.098Z</time>
      </trkpt>
      <trkpt lat="46.84958" lon="0.45804">
        <ele>149</ele>
        <time>2019-02-17T09:47:11.098Z</time>
      </trkpt>
      <trkpt lat="46.84954" lon="0.45801">
        <ele>149</ele>
        <time>2019-02-17T09:47:12.098Z</time>
      </trkpt>
      <trkpt lat="46.84951" lon="0.45799">
        <ele>149</ele>
        <time>2019-02-17T09:47:13.098Z</time>
      </trkpt>
      <trkpt lat="46.84948" lon="0.45796">
        <ele>149</ele>
        <time>2019-02-17T09:47:14.098Z</time>
      </trkpt>
      <trkpt lat="46.84944" lon="0.45794">
        <ele>149</ele>
        <time>2019-02-17T09:47:15.098Z</time>
      </trkpt>
      <trkpt lat="46.84941" lon="0.45793">
        <ele>149</ele>
        <time>2019-02-17T09:47:16.098Z</time>
      </trkpt>
      <trkpt lat="46.84937" lon="0.4579">
        <ele>149</ele>
        <time>2019-02-17T09:47:17.098Z</time>
      </trkpt>
      <trkpt lat="46.84934" lon="0.45787">
        <ele>150</ele>
        <time>2019-02-17T09:47:18.098Z</time>
      </trkpt>
      <trkpt lat="46.8493" lon="0.45784">
        <ele>150</ele>
        <time>2019-02-17T09:47:19.098Z</time>
      </trkpt>
      <trkpt lat="46.84927" lon="0.4578">
        <ele>150</ele>
        <time>2019-02-17T09:47:20.098Z</time>
      </trkpt>
      <trkpt lat="46.84924" lon="0.45777">
        <ele>150</ele>
        <time>2019-02-17T09:47:21.098Z</time>
      </trkpt>
      <trkpt lat="46.8492" lon="0.45774">
        <ele>150</ele>
        <time>2019-02-17T09:47:22.098Z</time>
      </trkpt>
      <trkpt lat="46.84916" lon="0.45771">
        <ele>150</ele>
        <time>2019-02-17T09:47:23.098Z</time>
      </trkpt>
      <trkpt lat="46.84912" lon="0.45768">
        <ele>150</ele>
        <time>2019-02-17T09:47:24.098Z</time>
      </trkpt>
      <trkpt lat="46.84909" lon="0.45765">
        <ele>150</ele>
        <time>2019-02-17T09:47:25.098Z</time>
      </trkpt>
      <trkpt lat="46.84905" lon="0.45762">
        <ele>150</ele>
        <time>2019-02-17T09:47:26.098Z</time>
      </trkpt>
      <trkpt lat="46.84902" lon="0.45758">
        <ele>150</ele>
        <time>2019-02-17T09:47:27.098Z</time>
      </trkpt>
      <trkpt lat="46.84899" lon="0.45754">
        <ele>150</ele>
        <time>2019-02-17T09:47:28.098Z</time>
      </trkpt>
      <trkpt lat="46.84896" lon="0.45751">
        <ele>150</ele>
        <time>2019-02-17T09:47:29.098Z</time>
      </trkpt>
      <trkpt lat="46.84892" lon="0.45747">
        <ele>149</ele>
        <time>2019-02-17T09:47:30.098Z</time>
      </trkpt>
      <trkpt lat="46.84889" lon="0.45743">
        <ele>149</ele>
        <time>2019-02-17T09:47:31.098Z</time>
      </trkpt>
      <trkpt lat="46.84886" lon="0.45739">
        <ele>149</ele>
        <time>2019-02-17T09:47:32.098Z</time>
      </trkpt>
      <trkpt lat="46.84883" lon="0.45735">
        <ele>150</ele>
        <time>2019-02-17T09:47:33.098Z</time>
      </trkpt>
      <trkpt lat="46.8488" lon="0.4573">
        <ele>151</ele>
        <time>2019-02-17T09:47:34.098Z</time>
      </trkpt>
      <trkpt lat="46.84878" lon="0.45725">
        <ele>151</ele>
        <time>2019-02-17T09:47:35.098Z</time>
      </trkpt>
      <trkpt lat="46.84875" lon="0.4572">
        <ele>151</ele>
        <time>2019-02-17T09:47:36.098Z</time>
      </trkpt>
      <trkpt lat="46.84873" lon="0.45716">
        <ele>151</ele>
        <time>2019-02-17T09:47:37.098Z</time>
      </trkpt>
      <trkpt lat="46.84871" lon="0.45711">
        <ele>151</ele>
        <time>2019-02-17T09:47:38.098Z</time>
      </trkpt>
      <trkpt lat="46.84868" lon="0.45706">
        <ele>151</ele>
        <time>2019-02-17T09:47:39.098Z</time>
      </trkpt>
      <trkpt lat="46.84866" lon="0.45702">
        <ele>151</ele>
        <time>2019-02-17T09:47:40.098Z</time>
      </trkpt>
      <trkpt lat="46.84864" lon="0.45697">
        <ele>151</ele>
        <time>2019-02-17T09:47:41.098Z</time>
      </trkpt>
      <trkpt lat="46.84861" lon="0.45692">
        <ele>151</ele>
        <time>2019-02-17T09:47:42.098Z</time>
      </trkpt>
      <trkpt lat="46.84859" lon="0.45688">
        <ele>151</ele>
        <time>2019-02-17T09:47:43.098Z</time>
      </trkpt>
      <trkpt lat="46.84857" lon="0.45683">
        <ele>152</ele>
        <time>2019-02-17T09:47:44.098Z</time>
      </trkpt>
      <trkpt lat="46.84854" lon="0.45678">
        <ele>152</ele>
        <time>2019-02-17T09:47:45.098Z</time>
      </trkpt>
      <trkpt lat="46.84852" lon="0.45673">
        <ele>152</ele>
        <time>2019-02-17T09:47:46.098Z</time>
      </trkpt>
      <trkpt lat="46.8485" lon="0.45669">
        <ele>152</ele>
        <time>2019-02-17T09:47:47.098Z</time>
      </trkpt>
      <trkpt lat="46.84848" lon="0.45664">
        <ele>152</ele>
        <time>2019-02-17T09:47:48.098Z</time>
      </trkpt>
      <trkpt lat="46.84846" lon="0.45659">
        <ele>152</ele>
        <time>2019-02-17T09:47:49.098Z</time>
      </trkpt>
      <trkpt lat="46.84843" lon="0.45655">
        <ele>152</ele>
        <time>2019-02-17T09:47:50.098Z</time>
      </trkpt>
      <trkpt lat="46.84841" lon="0.4565">
        <ele>152</ele>
        <time>2019-02-17T09:47:51.098Z</time>
      </trkpt>
      <trkpt lat="46.84839" lon="0.45646">
        <ele>152</ele>
        <time>2019-02-17T09:47:52.098Z</time>
      </trkpt>
      <trkpt lat="46.84837" lon="0.45642">
        <ele>153</ele>
        <time>2019-02-17T09:47:53.098Z</time>
      </trkpt>
      <trkpt lat="46.84835" lon="0.45637">
        <ele>153</ele>
        <time>2019-02-17T09:47:54.098Z</time>
      </trkpt>
      <trkpt lat="46.84833" lon="0.45633">
        <ele>153</ele>
        <time>2019-02-17T09:47:55.098Z</time>
      </trkpt>
      <trkpt lat="46.84831" lon="0.45629">
        <ele>154</ele>
        <time>2019-02-17T09:47:56.098Z</time>
      </trkpt>
      <trkpt lat="46.84829" lon="0.45625">
        <ele>154</ele>
        <time>2019-02-17T09:47:57.098Z</time>
      </trkpt>
      <trkpt lat="46.84828" lon="0.45621">
        <ele>155</ele>
        <time>2019-02-17T09:47:58.098Z</time>
      </trkpt>
      <trkpt lat="46.84827" lon="0.45617">
        <ele>154</ele>
        <time>2019-02-17T09:47:59.098Z</time>
      </trkpt>
      <trkpt lat="46.84827" lon="0.45613">
        <ele>154</ele>
        <time>2019-02-17T09:48:00.098Z</time>
      </trkpt>
      <trkpt lat="46.84826" lon="0.4561">
        <ele>154</ele>
        <time>2019-02-17T09:48:01.098Z</time>
      </trkpt>
      <trkpt lat="46.84827" lon="0.45607">
        <ele>154</ele>
        <time>2019-02-17T09:48:02.098Z</time>
      </trkpt>
      <trkpt lat="46.84826" lon="0.45604">
        <ele>154</ele>
        <time>2019-02-17T09:48:03.098Z</time>
      </trkpt>
      <trkpt lat="46.84826" lon="0.456">
        <ele>155</ele>
        <time>2019-02-17T09:48:04.098Z</time>
      </trkpt>
      <trkpt lat="46.84826" lon="0.45597">
        <ele>154</ele>
        <time>2019-02-17T09:48:05.098Z</time>
      </trkpt>
      <trkpt lat="46.84826" lon="0.45593">
        <ele>154</ele>
        <time>2019-02-17T09:48:06.098Z</time>
      </trkpt>
      <trkpt lat="46.84827" lon="0.45589">
        <ele>154</ele>
        <time>2019-02-17T09:48:07.098Z</time>
      </trkpt>
      <trkpt lat="46.84828" lon="0.45586">
        <ele>153</ele>
        <time>2019-02-17T09:48:08.098Z</time>
      </trkpt>
      <trkpt lat="46.8483" lon="0.45582">
        <ele>153</ele>
        <time>2019-02-17T09:48:09.098Z</time>
      </trkpt>
      <trkpt lat="46.84831" lon="0.45578">
        <ele>153</ele>
        <time>2019-02-17T09:48:10.098Z</time>
      </trkpt>
      <trkpt lat="46.84833" lon="0.45574">
        <ele>154</ele>
        <time>2019-02-17T09:48:11.098Z</time>
      </trkpt>
      <trkpt lat="46.84835" lon="0.4557">
        <ele>154</ele>
        <time>2019-02-17T09:48:12.098Z</time>
      </trkpt>
      <trkpt lat="46.84837" lon="0.45566">
        <ele>154</ele>
        <time>2019-02-17T09:48:13.098Z</time>
      </trkpt>
      <trkpt lat="46.84838" lon="0.45562">
        <ele>154</ele>
        <time>2019-02-17T09:48:14.098Z</time>
      </trkpt>
      <trkpt lat="46.84839" lon="0.45558">
        <ele>154</ele>
        <time>2019-02-17T09:48:15.098Z</time>
      </trkpt>
      <trkpt lat="46.84841" lon="0.45554">
        <ele>155</ele>
        <time>2019-02-17T09:48:16.098Z</time>
      </trkpt>
      <trkpt lat="46.84842" lon="0.4555">
        <ele>154</ele>
        <time>2019-02-17T09:48:17.098Z</time>
      </trkpt>
      <trkpt lat="46.84843" lon="0.45546">
        <ele>154</ele>
        <time>2019-02-17T09:48:18.098Z</time>
      </trkpt>
      <trkpt lat="46.84845" lon="0.45542">
        <ele>154</ele>
        <time>2019-02-17T09:48:19.098Z</time>
      </trkpt>
      <trkpt lat="46.84846" lon="0.45539">
        <ele>155</ele>
        <time>2019-02-17T09:48:20.098Z</time>
      </trkpt>
      <trkpt lat="46.84848" lon="0.45535">
        <ele>155</ele>
        <time>2019-02-17T09:48:21.098Z</time>
      </trkpt>
      <trkpt lat="46.8485" lon="0.45531">
        <ele>155</ele>
        <time>2019-02-17T09:48:22.098Z</time>
      </trkpt>
      <trkpt lat="46.84851" lon="0.45528">
        <ele>155</ele>
        <time>2019-02-17T09:48:23.098Z</time>
      </trkpt>
      <trkpt lat="46.84853" lon="0.45524">
        <ele>155</ele>
        <time>2019-02-17T09:48:24.098Z</time>
      </trkpt>
      <trkpt lat="46.84855" lon="0.4552">
        <ele>155</ele>
        <time>2019-02-17T09:48:25.098Z</time>
      </trkpt>
      <trkpt lat="46.84857" lon="0.45517">
        <ele>155</ele>
        <time>2019-02-17T09:48:26.098Z</time>
      </trkpt>
      <trkpt lat="46.84858" lon="0.45513">
        <ele>155</ele>
        <time>2019-02-17T09:48:27.098Z</time>
      </trkpt>
      <trkpt lat="46.8486" lon="0.45509">
        <ele>155</ele>
        <time>2019-02-17T09:48:28.098Z</time>
      </trkpt>
      <trkpt lat="46.84861" lon="0.45505">
        <ele>155</ele>
        <time>2019-02-17T09:48:29.098Z</time>
      </trkpt>
      <trkpt lat="46.84863" lon="0.45501">
        <ele>155</ele>
        <time>2019-02-17T09:48:30.098Z</time>
      </trkpt>
      <trkpt lat="46.84865" lon="0.45497">
        <ele>154</ele>
        <time>2019-02-17T09:48:31.098Z</time>
      </trkpt>
      <trkpt lat="46.84867" lon="0.45493">
        <ele>154</ele>
        <time>2019-02-17T09:48:32.098Z</time>
      </trkpt>
      <trkpt lat="46.84868" lon="0.45489">
        <ele>154</ele>
        <time>2019-02-17T09:48:33.098Z</time>
      </trkpt>
      <trkpt lat="46.8487" lon="0.45486">
        <ele>154</ele>
        <time>2019-02-17T09:48:34.098Z</time>
      </trkpt>
      <trkpt lat="46.84872" lon="0.45481">
        <ele>154</ele>
        <time>2019-02-17T09:48:35.098Z</time>
      </trkpt>
      <trkpt lat="46.84873" lon="0.45477">
        <ele>153</ele>
        <time>2019-02-17T09:48:36.098Z</time>
      </trkpt>
      <trkpt lat="46.84874" lon="0.45472">
        <ele>153</ele>
        <time>2019-02-17T09:48:37.098Z</time>
      </trkpt>
      <trkpt lat="46.84876" lon="0.45468">
        <ele>153</ele>
        <time>2019-02-17T09:48:38.098Z</time>
      </trkpt>
      <trkpt lat="46.84877" lon="0.45464">
        <ele>153</ele>
        <time>2019-02-17T09:48:39.098Z</time>
      </trkpt>
      <trkpt lat="46.84879" lon="0.45459">
        <ele>153</ele>
        <time>2019-02-17T09:48:40.098Z</time>
      </trkpt>
      <trkpt lat="46.84881" lon="0.45454">
        <ele>155</ele>
        <time>2019-02-17T09:48:41.098Z</time>
      </trkpt>
      <trkpt lat="46.84883" lon="0.45449">
        <ele>155</ele>
        <time>2019-02-17T09:48:42.098Z</time>
      </trkpt>
      <trkpt lat="46.84885" lon="0.45444">
        <ele>155</ele>
        <time>2019-02-17T09:48:43.098Z</time>
      </trkpt>
      <trkpt lat="46.84887" lon="0.45439">
        <ele>156</ele>
        <time>2019-02-17T09:48:44.098Z</time>
      </trkpt>
      <trkpt lat="46.84889" lon="0.45434">
        <ele>156</ele>
        <time>2019-02-17T09:48:45.098Z</time>
      </trkpt>
      <trkpt lat="46.84891" lon="0.45429">
        <ele>156</ele>
        <time>2019-02-17T09:48:46.098Z</time>
      </trkpt>
      <trkpt lat="46.84892" lon="0.45425">
        <ele>156</ele>
        <time>2019-02-17T09:48:47.098Z</time>
      </trkpt>
      <trkpt lat="46.84894" lon="0.4542">
        <ele>157</ele>
        <time>2019-02-17T09:48:48.098Z</time>
      </trkpt>
      <trkpt lat="46.84896" lon="0.45415">
        <ele>158</ele>
        <time>2019-02-17T09:48:49.098Z</time>
      </trkpt>
      <trkpt lat="46.84899" lon="0.4541">
        <ele>158</ele>
        <time>2019-02-17T09:48:50.098Z</time>
      </trkpt>
      <trkpt lat="46.84901" lon="0.45405">
        <ele>158</ele>
        <time>2019-02-17T09:48:51.098Z</time>
      </trkpt>
      <trkpt lat="46.84902" lon="0.454">
        <ele>158</ele>
        <time>2019-02-17T09:48:52.098Z</time>
      </trkpt>
      <trkpt lat="46.84904" lon="0.45395">
        <ele>159</ele>
        <time>2019-02-17T09:48:53.098Z</time>
      </trkpt>
      <trkpt lat="46.84906" lon="0.4539">
        <ele>160</ele>
        <time>2019-02-17T09:48:54.098Z</time>
      </trkpt>
      <trkpt lat="46.84908" lon="0.45385">
        <ele>160</ele>
        <time>2019-02-17T09:48:55.098Z</time>
      </trkpt>
      <trkpt lat="46.8491" lon="0.4538">
        <ele>161</ele>
        <time>2019-02-17T09:48:56.098Z</time>
      </trkpt>
      <trkpt lat="46.84912" lon="0.45375">
        <ele>161</ele>
        <time>2019-02-17T09:48:57.098Z</time>
      </trkpt>
      <trkpt lat="46.84914" lon="0.4537">
        <ele>161</ele>
        <time>2019-02-17T09:48:58.098Z</time>
      </trkpt>
      <trkpt lat="46.84915" lon="0.45366">
        <ele>161</ele>
        <time>2019-02-17T09:48:59.098Z</time>
      </trkpt>
      <trkpt lat="46.84917" lon="0.45361">
        <ele>161</ele>
        <time>2019-02-17T09:49:00.098Z</time>
      </trkpt>
      <trkpt lat="46.84919" lon="0.45356">
        <ele>161</ele>
        <time>2019-02-17T09:49:01.098Z</time>
      </trkpt>
      <trkpt lat="46.8492" lon="0.45351">
        <ele>161</ele>
        <time>2019-02-17T09:49:02.098Z</time>
      </trkpt>
      <trkpt lat="46.84922" lon="0.45346">
        <ele>161</ele>
        <time>2019-02-17T09:49:03.098Z</time>
      </trkpt>
      <trkpt lat="46.84924" lon="0.45342">
        <ele>161</ele>
        <time>2019-02-17T09:49:04.098Z</time>
      </trkpt>
      <trkpt lat="46.84926" lon="0.45337">
        <ele>161</ele>
        <time>2019-02-17T09:49:05.098Z</time>
      </trkpt>
      <trkpt lat="46.84928" lon="0.45332">
        <ele>161</ele>
        <time>2019-02-17T09:49:06.098Z</time>
      </trkpt>
      <trkpt lat="46.8493" lon="0.45328">
        <ele>161</ele>
        <time>2019-02-17T09:49:07.098Z</time>
      </trkpt>
      <trkpt lat="46.84932" lon="0.45324">
        <ele>161</ele>
        <time>2019-02-17T09:49:08.098Z</time>
      </trkpt>
      <trkpt lat="46.84934" lon="0.45319">
        <ele>161</ele>
        <time>2019-02-17T09:49:09.098Z</time>
      </trkpt>
      <trkpt lat="46.84936" lon="0.45315">
        <ele>161</ele>
        <time>2019-02-17T09:49:10.098Z</time>
      </trkpt>
      <trkpt lat="46.84938" lon="0.4531">
        <ele>160</ele>
        <time>2019-02-17T09:49:11.098Z</time>
      </trkpt>
      <trkpt lat="46.8494" lon="0.45306">
        <ele>161</ele>
        <time>2019-02-17T09:49:12.098Z</time>
      </trkpt>
      <trkpt lat="46.84942" lon="0.45302">
        <ele>161</ele>
        <time>2019-02-17T09:49:13.098Z</time>
      </trkpt>
      <trkpt lat="46.84944" lon="0.45298">
        <ele>160</ele>
        <time>2019-02-17T09:49:14.098Z</time>
      </trkpt>
      <trkpt lat="46.84946" lon="0.45294">
        <ele>160</ele>
        <time>2019-02-17T09:49:15.098Z</time>
      </trkpt>
      <trkpt lat="46.84949" lon="0.45289">
        <ele>161</ele>
        <time>2019-02-17T09:49:16.098Z</time>
      </trkpt>
      <trkpt lat="46.84951" lon="0.45284">
        <ele>161</ele>
        <time>2019-02-17T09:49:17.098Z</time>
      </trkpt>
      <trkpt lat="46.84953" lon="0.4528">
        <ele>161</ele>
        <time>2019-02-17T09:49:18.098Z</time>
      </trkpt>
      <trkpt lat="46.84955" lon="0.45275">
        <ele>161</ele>
        <time>2019-02-17T09:49:19.098Z</time>
      </trkpt>
      <trkpt lat="46.84956" lon="0.4527">
        <ele>161</ele>
        <time>2019-02-17T09:49:20.098Z</time>
      </trkpt>
      <trkpt lat="46.84958" lon="0.45266">
        <ele>161</ele>
        <time>2019-02-17T09:49:21.098Z</time>
      </trkpt>
      <trkpt lat="46.84959" lon="0.45261">
        <ele>161</ele>
        <time>2019-02-17T09:49:22.098Z</time>
      </trkpt>
      <trkpt lat="46.8496" lon="0.45256">
        <ele>160</ele>
        <time>2019-02-17T09:49:23.098Z</time>
      </trkpt>
      <trkpt lat="46.84961" lon="0.45252">
        <ele>160</ele>
        <time>2019-02-17T09:49:24.098Z</time>
      </trkpt>
      <trkpt lat="46.84962" lon="0.45247">
        <ele>160</ele>
        <time>2019-02-17T09:49:25.098Z</time>
      </trkpt>
      <trkpt lat="46.84964" lon="0.45242">
        <ele>159</ele>
        <time>2019-02-17T09:49:26.098Z</time>
      </trkpt>
      <trkpt lat="46.84965" lon="0.45236">
        <ele>160</ele>
        <time>2019-02-17T09:49:27.098Z</time>
      </trkpt>
      <trkpt lat="46.84966" lon="0.45231">
        <ele>159</ele>
        <time>2019-02-17T09:49:28.098Z</time>
      </trkpt>
      <trkpt lat="46.84966" lon="0.45226">
        <ele>159</ele>
        <time>2019-02-17T09:49:29.098Z</time>
      </trkpt>
      <trkpt lat="46.84967" lon="0.45221">
        <ele>159</ele>
        <time>2019-02-17T09:49:30.098Z</time>
      </trkpt>
      <trkpt lat="46.84968" lon="0.45217">
        <ele>159</ele>
        <time>2019-02-17T09:49:31.098Z</time>
      </trkpt>
      <trkpt lat="46.8497" lon="0.45213">
        <ele>159</ele>
        <time>2019-02-17T09:49:32.098Z</time>
      </trkpt>
      <trkpt lat="46.84972" lon="0.45209">
        <ele>158</ele>
        <time>2019-02-17T09:49:33.098Z</time>
      </trkpt>
      <trkpt lat="46.84974" lon="0.45205">
        <ele>158</ele>
        <time>2019-02-17T09:49:34.098Z</time>
      </trkpt>
      <trkpt lat="46.84977" lon="0.45201">
        <ele>158</ele>
        <time>2019-02-17T09:49:35.098Z</time>
      </trkpt>
      <trkpt lat="46.8498" lon="0.45197">
        <ele>158</ele>
        <time>2019-02-17T09:49:36.098Z</time>
      </trkpt>
      <trkpt lat="46.84983" lon="0.45193">
        <ele>157</ele>
        <time>2019-02-17T09:49:37.098Z</time>
      </trkpt>
      <trkpt lat="46.84986" lon="0.45188">
        <ele>158</ele>
        <time>2019-02-17T09:49:38.098Z</time>
      </trkpt>
      <trkpt lat="46.84989" lon="0.45184">
        <ele>157</ele>
        <time>2019-02-17T09:49:39.098Z</time>
      </trkpt>
      <trkpt lat="46.84993" lon="0.4518">
        <ele>157</ele>
        <time>2019-02-17T09:49:40.098Z</time>
      </trkpt>
      <trkpt lat="46.84996" lon="0.45177">
        <ele>157</ele>
        <time>2019-02-17T09:49:41.098Z</time>
      </trkpt>
      <trkpt lat="46.85" lon="0.45173">
        <ele>157</ele>
        <time>2019-02-17T09:49:42.098Z</time>
      </trkpt>
      <trkpt lat="46.85003" lon="0.4517">
        <ele>156</ele>
        <time>2019-02-17T09:49:43.098Z</time>
      </trkpt>
      <trkpt lat="46.85006" lon="0.45166">
        <ele>155</ele>
        <time>2019-02-17T09:49:44.098Z</time>
      </trkpt>
      <trkpt lat="46.85009" lon="0.45163">
        <ele>155</ele>
        <time>2019-02-17T09:49:45.098Z</time>
      </trkpt>
      <trkpt lat="46.85012" lon="0.45159">
        <ele>155</ele>
        <time>2019-02-17T09:49:46.098Z</time>
      </trkpt>
      <trkpt lat="46.85016" lon="0.45155">
        <ele>154</ele>
        <time>2019-02-17T09:49:47.098Z</time>
      </trkpt>
      <trkpt lat="46.85019" lon="0.45151">
        <ele>154</ele>
        <time>2019-02-17T09:49:48.098Z</time>
      </trkpt>
      <trkpt lat="46.85022" lon="0.45147">
        <ele>153</ele>
        <time>2019-02-17T09:49:49.098Z</time>
      </trkpt>
      <trkpt lat="46.85025" lon="0.45142">
        <ele>153</ele>
        <time>2019-02-17T09:49:50.098Z</time>
      </trkpt>
      <trkpt lat="46.85028" lon="0.45138">
        <ele>153</ele>
        <time>2019-02-17T09:49:51.098Z</time>
      </trkpt>
      <trkpt lat="46.85032" lon="0.45133">
        <ele>154</ele>
        <time>2019-02-17T09:49:52.098Z</time>
      </trkpt>
      <trkpt lat="46.85035" lon="0.45129">
        <ele>154</ele>
        <time>2019-02-17T09:49:53.098Z</time>
      </trkpt>
      <trkpt lat="46.85039" lon="0.45124">
        <ele>153</ele>
        <time>2019-02-17T09:49:54.098Z</time>
      </trkpt>
      <trkpt lat="46.85043" lon="0.45121">
        <ele>153</ele>
        <time>2019-02-17T09:49:55.098Z</time>
      </trkpt>
      <trkpt lat="46.85047" lon="0.45117">
        <ele>152</ele>
        <time>2019-02-17T09:49:56.098Z</time>
      </trkpt>
      <trkpt lat="46.85051" lon="0.45113">
        <ele>152</ele>
        <time>2019-02-17T09:49:57.098Z</time>
      </trkpt>
      <trkpt lat="46.85054" lon="0.45108">
        <ele>151</ele>
        <time>2019-02-17T09:49:58.098Z</time>
      </trkpt>
      <trkpt lat="46.85057" lon="0.45102">
        <ele>152</ele>
        <time>2019-02-17T09:49:59.098Z</time>
      </trkpt>
      <trkpt lat="46.85061" lon="0.45097">
        <ele>152</ele>
        <time>2019-02-17T09:50:00.098Z</time>
      </trkpt>
      <trkpt lat="46.85064" lon="0.45091">
        <ele>151</ele>
        <time>2019-02-17T09:50:01.098Z</time>
      </trkpt>
      <trkpt lat="46.85068" lon="0.45086">
        <ele>152</ele>
        <time>2019-02-17T09:50:02.098Z</time>
      </trkpt>
      <trkpt lat="46.85071" lon="0.45081">
        <ele>152</ele>
        <time>2019-02-17T09:50:03.098Z</time>
      </trkpt>
      <trkpt lat="46.85074" lon="0.45075">
        <ele>152</ele>
        <time>2019-02-17T09:50:04.098Z</time>
      </trkpt>
      <trkpt lat="46.85077" lon="0.4507">
        <ele>152</ele>
        <time>2019-02-17T09:50:05.098Z</time>
      </trkpt>
      <trkpt lat="46.8508" lon="0.45065">
        <ele>152</ele>
        <time>2019-02-17T09:50:06.098Z</time>
      </trkpt>
      <trkpt lat="46.85083" lon="0.4506">
        <ele>152</ele>
        <time>2019-02-17T09:50:07.098Z</time>
      </trkpt>
      <trkpt lat="46.85086" lon="0.45054">
        <ele>153</ele>
        <time>2019-02-17T09:50:08.098Z</time>
      </trkpt>
      <trkpt lat="46.85089" lon="0.45049">
        <ele>154</ele>
        <time>2019-02-17T09:50:09.098Z</time>
      </trkpt>
      <trkpt lat="46.85093" lon="0.45043">
        <ele>155</ele>
        <time>2019-02-17T09:50:10.098Z</time>
      </trkpt>
      <trkpt lat="46.85096" lon="0.45037">
        <ele>156</ele>
        <time>2019-02-17T09:50:11.098Z</time>
      </trkpt>
      <trkpt lat="46.851" lon="0.45032">
        <ele>156</ele>
        <time>2019-02-17T09:50:12.098Z</time>
      </trkpt>
      <trkpt lat="46.85104" lon="0.45026">
        <ele>157</ele>
        <time>2019-02-17T09:50:13.098Z</time>
      </trkpt>
      <trkpt lat="46.85107" lon="0.4502">
        <ele>157</ele>
        <time>2019-02-17T09:50:14.098Z</time>
      </trkpt>
      <trkpt lat="46.8511" lon="0.45015">
        <ele>155</ele>
        <time>2019-02-17T09:50:15.098Z</time>
      </trkpt>
      <trkpt lat="46.85112" lon="0.45009">
        <ele>155</ele>
        <time>2019-02-17T09:50:16.098Z</time>
      </trkpt>
      <trkpt lat="46.85115" lon="0.45003">
        <ele>155</ele>
        <time>2019-02-17T09:50:17.098Z</time>
      </trkpt>
      <trkpt lat="46.85118" lon="0.44998">
        <ele>155</ele>
        <time>2019-02-17T09:50:18.098Z</time>
      </trkpt>
      <trkpt lat="46.85122" lon="0.44992">
        <ele>155</ele>
        <time>2019-02-17T09:50:19.098Z</time>
      </trkpt>
      <trkpt lat="46.85125" lon="0.44987">
        <ele>156</ele>
        <time>2019-02-17T09:50:20.098Z</time>
      </trkpt>
      <trkpt lat="46.85127" lon="0.44983">
        <ele>156</ele>
        <time>2019-02-17T09:50:21.098Z</time>
      </trkpt>
      <trkpt lat="46.8513" lon="0.44978">
        <ele>156</ele>
        <time>2019-02-17T09:50:22.098Z</time>
      </trkpt>
      <trkpt lat="46.85133" lon="0.44974">
        <ele>155</ele>
        <time>2019-02-17T09:50:23.098Z</time>
      </trkpt>
      <trkpt lat="46.85136" lon="0.4497">
        <ele>155</ele>
        <time>2019-02-17T09:50:24.098Z</time>
      </trkpt>
      <trkpt lat="46.85139" lon="0.44966">
        <ele>155</ele>
        <time>2019-02-17T09:50:25.098Z</time>
      </trkpt>
      <trkpt lat="46.85141" lon="0.44961">
        <ele>154</ele>
        <time>2019-02-17T09:50:26.098Z</time>
      </trkpt>
      <trkpt lat="46.85144" lon="0.44957">
        <ele>153</ele>
        <time>2019-02-17T09:50:27.098Z</time>
      </trkpt>
      <trkpt lat="46.85146" lon="0.44953">
        <ele>154</ele>
        <time>2019-02-17T09:50:28.098Z</time>
      </trkpt>
      <trkpt lat="46.85149" lon="0.44948">
        <ele>154</ele>
        <time>2019-02-17T09:50:29.098Z</time>
      </trkpt>
      <trkpt lat="46.85152" lon="0.44944">
        <ele>155</ele>
        <time>2019-02-17T09:50:30.098Z</time>
      </trkpt>
      <trkpt lat="46.85155" lon="0.44938">
        <ele>156</ele>
        <time>2019-02-17T09:50:31.098Z</time>
      </trkpt>
      <trkpt lat="46.85158" lon="0.44933">
        <ele>156</ele>
        <time>2019-02-17T09:50:32.098Z</time>
      </trkpt>
      <trkpt lat="46.8516" lon="0.44927">
        <ele>156</ele>
        <time>2019-02-17T09:50:33.098Z</time>
      </trkpt>
      <trkpt lat="46.85162" lon="0.44922">
        <ele>155</ele>
        <time>2019-02-17T09:50:34.098Z</time>
      </trkpt>
      <trkpt lat="46.85164" lon="0.44916">
        <ele>155</ele>
        <time>2019-02-17T09:50:35.098Z</time>
      </trkpt>
      <trkpt lat="46.85166" lon="0.4491">
        <ele>155</ele>
        <time>2019-02-17T09:50:36.098Z</time>
      </trkpt>
      <trkpt lat="46.85168" lon="0.44905">
        <ele>154</ele>
        <time>2019-02-17T09:50:37.098Z</time>
      </trkpt>
      <trkpt lat="46.85169" lon="0.44899">
        <ele>153</ele>
        <time>2019-02-17T09:50:38.098Z</time>
      </trkpt>
      <trkpt lat="46.8517" lon="0.44892">
        <ele>154</ele>
        <time>2019-02-17T09:50:39.098Z</time>
      </trkpt>
      <trkpt lat="46.85171" lon="0.44886">
        <ele>154</ele>
        <time>2019-02-17T09:50:40.098Z</time>
      </trkpt>
      <trkpt lat="46.85172" lon="0.44879">
        <ele>155</ele>
        <time>2019-02-17T09:50:41.098Z</time>
      </trkpt>
      <trkpt lat="46.85173" lon="0.44873">
        <ele>154</ele>
        <time>2019-02-17T09:50:42.098Z</time>
      </trkpt>
      <trkpt lat="46.85174" lon="0.44867">
        <ele>155</ele>
        <time>2019-02-17T09:50:43.098Z</time>
      </trkpt>
      <trkpt lat="46.85175" lon="0.44861">
        <ele>155</ele>
        <time>2019-02-17T09:50:44.098Z</time>
      </trkpt>
      <trkpt lat="46.85176" lon="0.44855">
        <ele>156</ele>
        <time>2019-02-17T09:50:45.098Z</time>
      </trkpt>
      <trkpt lat="46.85176" lon="0.44848">
        <ele>156</ele>
        <time>2019-02-17T09:50:46.098Z</time>
      </trkpt>
      <trkpt lat="46.85176" lon="0.44842">
        <ele>155</ele>
        <time>2019-02-17T09:50:47.098Z</time>
      </trkpt>
      <trkpt lat="46.85177" lon="0.44835">
        <ele>156</ele>
        <time>2019-02-17T09:50:48.098Z</time>
      </trkpt>
      <trkpt lat="46.85178" lon="0.44829">
        <ele>157</ele>
        <time>2019-02-17T09:50:49.098Z</time>
      </trkpt>
      <trkpt lat="46.85179" lon="0.44822">
        <ele>157</ele>
        <time>2019-02-17T09:50:50.098Z</time>
      </trkpt>
      <trkpt lat="46.8518" lon="0.44816">
        <ele>156</ele>
        <time>2019-02-17T09:50:51.098Z</time>
      </trkpt>
      <trkpt lat="46.85181" lon="0.4481">
        <ele>156</ele>
        <time>2019-02-17T09:50:52.098Z</time>
      </trkpt>
      <trkpt lat="46.85182" lon="0.44805">
        <ele>157</ele>
        <time>2019-02-17T09:50:53.098Z</time>
      </trkpt>
      <trkpt lat="46.85183" lon="0.44799">
        <ele>157</ele>
        <time>2019-02-17T09:50:54.098Z</time>
      </trkpt>
      <trkpt lat="46.85184" lon="0.44794">
        <ele>158</ele>
        <time>2019-02-17T09:50:55.098Z</time>
      </trkpt>
      <trkpt lat="46.85185" lon="0.44788">
        <ele>158</ele>
        <time>2019-02-17T09:50:56.098Z</time>
      </trkpt>
      <trkpt lat="46.85185" lon="0.44782">
        <ele>158</ele>
        <time>2019-02-17T09:50:57.098Z</time>
      </trkpt>
      <trkpt lat="46.85187" lon="0.44776">
        <ele>159</ele>
        <time>2019-02-17T09:50:58.098Z</time>
      </trkpt>
      <trkpt lat="46.85188" lon="0.4477">
        <ele>159</ele>
        <time>2019-02-17T09:50:59.098Z</time>
      </trkpt>
      <trkpt lat="46.85189" lon="0.44764">
        <ele>159</ele>
        <time>2019-02-17T09:51:00.098Z</time>
      </trkpt>
      <trkpt lat="46.85189" lon="0.44758">
        <ele>160</ele>
        <time>2019-02-17T09:51:01.098Z</time>
      </trkpt>
      <trkpt lat="46.8519" lon="0.44752">
        <ele>160</ele>
        <time>2019-02-17T09:51:02.098Z</time>
      </trkpt>
      <trkpt lat="46.85191" lon="0.44746">
        <ele>159</ele>
        <time>2019-02-17T09:51:03.098Z</time>
      </trkpt>
      <trkpt lat="46.85192" lon="0.4474">
        <ele>159</ele>
        <time>2019-02-17T09:51:04.098Z</time>
      </trkpt>
      <trkpt lat="46.85193" lon="0.44733">
        <ele>159</ele>
        <time>2019-02-17T09:51:05.098Z</time>
      </trkpt>
      <trkpt lat="46.85194" lon="0.44727">
        <ele>159</ele>
        <time>2019-02-17T09:51:06.098Z</time>
      </trkpt>
      <trkpt lat="46.85194" lon="0.4472">
        <ele>159</ele>
        <time>2019-02-17T09:51:07.098Z</time>
      </trkpt>
      <trkpt lat="46.85194" lon="0.44714">
        <ele>159</ele>
        <time>2019-02-17T09:51:08.098Z</time>
      </trkpt>
      <trkpt lat="46.85194" lon="0.44707">
        <ele>160</ele>
        <time>2019-02-17T09:51:09.098Z</time>
      </trkpt>
      <trkpt lat="46.85194" lon="0.447">
        <ele>161</ele>
        <time>2019-02-17T09:51:10.098Z</time>
      </trkpt>
      <trkpt lat="46.85194" lon="0.44693">
        <ele>160</ele>
        <time>2019-02-17T09:51:11.098Z</time>
      </trkpt>
      <trkpt lat="46.85194" lon="0.44686">
        <ele>160</ele>
        <time>2019-02-17T09:51:12.098Z</time>
      </trkpt>
      <trkpt lat="46.85194" lon="0.4468">
        <ele>161</ele>
        <time>2019-02-17T09:51:13.098Z</time>
      </trkpt>
      <trkpt lat="46.85194" lon="0.44673">
        <ele>162</ele>
        <time>2019-02-17T09:51:14.098Z</time>
      </trkpt>
      <trkpt lat="46.85194" lon="0.44666">
        <ele>161</ele>
        <time>2019-02-17T09:51:15.098Z</time>
      </trkpt>
      <trkpt lat="46.85195" lon="0.44659">
        <ele>162</ele>
        <time>2019-02-17T09:51:16.098Z</time>
      </trkpt>
      <trkpt lat="46.85195" lon="0.44652">
        <ele>162</ele>
        <time>2019-02-17T09:51:17.098Z</time>
      </trkpt>
      <trkpt lat="46.85195" lon="0.44646">
        <ele>162</ele>
        <time>2019-02-17T09:51:18.098Z</time>
      </trkpt>
      <trkpt lat="46.85195" lon="0.44639">
        <ele>161</ele>
        <time>2019-02-17T09:51:19.098Z</time>
      </trkpt>
      <trkpt lat="46.85195" lon="0.44632">
        <ele>158</ele>
        <time>2019-02-17T09:51:20.098Z</time>
      </trkpt>
      <trkpt lat="46.85195" lon="0.44625">
        <ele>157</ele>
        <time>2019-02-17T09:51:21.098Z</time>
      </trkpt>
      <trkpt lat="46.85196" lon="0.44618">
        <ele>157</ele>
        <time>2019-02-17T09:51:22.098Z</time>
      </trkpt>
      <trkpt lat="46.85198" lon="0.44611">
        <ele>157</ele>
        <time>2019-02-17T09:51:23.098Z</time>
      </trkpt>
      <trkpt lat="46.852" lon="0.44604">
        <ele>159</ele>
        <time>2019-02-17T09:51:24.098Z</time>
      </trkpt>
      <trkpt lat="46.85202" lon="0.44597">
        <ele>160</ele>
        <time>2019-02-17T09:51:25.098Z</time>
      </trkpt>
      <trkpt lat="46.85204" lon="0.4459">
        <ele>161</ele>
        <time>2019-02-17T09:51:26.098Z</time>
      </trkpt>
      <trkpt lat="46.85206" lon="0.44583">
        <ele>160</ele>
        <time>2019-02-17T09:51:27.098Z</time>
      </trkpt>
      <trkpt lat="46.85207" lon="0.44576">
        <ele>160</ele>
        <time>2019-02-17T09:51:28.098Z</time>
      </trkpt>
      <trkpt lat="46.85209" lon="0.4457">
        <ele>159</ele>
        <time>2019-02-17T09:51:29.098Z</time>
      </trkpt>
      <trkpt lat="46.85211" lon="0.44565">
        <ele>158</ele>
        <time>2019-02-17T09:51:30.098Z</time>
      </trkpt>
      <trkpt lat="46.85213" lon="0.44559">
        <ele>157</ele>
        <time>2019-02-17T09:51:31.098Z</time>
      </trkpt>
      <trkpt lat="46.85215" lon="0.44554">
        <ele>155</ele>
        <time>2019-02-17T09:51:32.098Z</time>
      </trkpt>
      <trkpt lat="46.85216" lon="0.44549">
        <ele>155</ele>
        <time>2019-02-17T09:51:33.098Z</time>
      </trkpt>
      <trkpt lat="46.85217" lon="0.44543">
        <ele>154</ele>
        <time>2019-02-17T09:51:34.098Z</time>
      </trkpt>
      <trkpt lat="46.85217" lon="0.44536">
        <ele>154</ele>
        <time>2019-02-17T09:51:35.098Z</time>
      </trkpt>
      <trkpt lat="46.85217" lon="0.44529">
        <ele>153</ele>
        <time>2019-02-17T09:51:36.098Z</time>
      </trkpt>
      <trkpt lat="46.85217" lon="0.44523">
        <ele>154</ele>
        <time>2019-02-17T09:51:37.098Z</time>
      </trkpt>
      <trkpt lat="46.85217" lon="0.44516">
        <ele>154</ele>
        <time>2019-02-17T09:51:38.098Z</time>
      </trkpt>
      <trkpt lat="46.85218" lon="0.4451">
        <ele>154</ele>
        <time>2019-02-17T09:51:39.098Z</time>
      </trkpt>
      <trkpt lat="46.85218" lon="0.44504">
        <ele>155</ele>
        <time>2019-02-17T09:51:40.098Z</time>
      </trkpt>
      <trkpt lat="46.85218" lon="0.44498">
        <ele>155</ele>
        <time>2019-02-17T09:51:41.098Z</time>
      </trkpt>
      <trkpt lat="46.85218" lon="0.44492">
        <ele>155</ele>
        <time>2019-02-17T09:51:42.098Z</time>
      </trkpt>
      <trkpt lat="46.85219" lon="0.44486">
        <ele>155</ele>
        <time>2019-02-17T09:51:43.098Z</time>
      </trkpt>
      <trkpt lat="46.85219" lon="0.4448">
        <ele>155</ele>
        <time>2019-02-17T09:51:44.098Z</time>
      </trkpt>
      <trkpt lat="46.85219" lon="0.44475">
        <ele>155</ele>
        <time>2019-02-17T09:51:45.098Z</time>
      </trkpt>
      <trkpt lat="46.85219" lon="0.44469">
        <ele>155</ele>
        <time>2019-02-17T09:51:46.098Z</time>
      </trkpt>
      <trkpt lat="46.85219" lon="0.44463">
        <ele>156</ele>
        <time>2019-02-17T09:51:47.098Z</time>
      </trkpt>
      <trkpt lat="46.85219" lon="0.44458">
        <ele>156</ele>
        <time>2019-02-17T09:51:48.098Z</time>
      </trkpt>
      <trkpt lat="46.85219" lon="0.44452">
        <ele>156</ele>
        <time>2019-02-17T09:51:49.098Z</time>
      </trkpt>
      <trkpt lat="46.85219" lon="0.44446">
        <ele>157</ele>
        <time>2019-02-17T09:51:50.098Z</time>
      </trkpt>
      <trkpt lat="46.85219" lon="0.44441">
        <ele>157</ele>
        <time>2019-02-17T09:51:51.098Z</time>
      </trkpt>
      <trkpt lat="46.8522" lon="0.44435">
        <ele>156</ele>
        <time>2019-02-17T09:51:52.098Z</time>
      </trkpt>
      <trkpt lat="46.8522" lon="0.4443">
        <ele>157</ele>
        <time>2019-02-17T09:51:53.098Z</time>
      </trkpt>
      <trkpt lat="46.8522" lon="0.44424">
        <ele>157</ele>
        <time>2019-02-17T09:51:54.098Z</time>
      </trkpt>
      <trkpt lat="46.8522" lon="0.44419">
        <ele>158</ele>
        <time>2019-02-17T09:51:55.098Z</time>
      </trkpt>
      <trkpt lat="46.8522" lon="0.44413">
        <ele>158</ele>
        <time>2019-02-17T09:51:56.098Z</time>
      </trkpt>
      <trkpt lat="46.8522" lon="0.44407">
        <ele>159</ele>
        <time>2019-02-17T09:51:57.098Z</time>
      </trkpt>
      <trkpt lat="46.8522" lon="0.44401">
        <ele>161</ele>
        <time>2019-02-17T09:51:58.098Z</time>
      </trkpt>
      <trkpt lat="46.8522" lon="0.44395">
        <ele>162</ele>
        <time>2019-02-17T09:51:59.098Z</time>
      </trkpt>
      <trkpt lat="46.8522" lon="0.44389">
        <ele>161</ele>
        <time>2019-02-17T09:52:00.098Z</time>
      </trkpt>
      <trkpt lat="46.8522" lon="0.44383">
        <ele>158</ele>
        <time>2019-02-17T09:52:01.098Z</time>
      </trkpt>
      <trkpt lat="46.85221" lon="0.44377">
        <ele>157</ele>
        <time>2019-02-17T09:52:02.098Z</time>
      </trkpt>
      <trkpt lat="46.85221" lon="0.4437">
        <ele>157</ele>
        <time>2019-02-17T09:52:03.098Z</time>
      </trkpt>
      <trkpt lat="46.85222" lon="0.44364">
        <ele>157</ele>
        <time>2019-02-17T09:52:04.098Z</time>
      </trkpt>
      <trkpt lat="46.85223" lon="0.44359">
        <ele>156</ele>
        <time>2019-02-17T09:52:05.098Z</time>
      </trkpt>
      <trkpt lat="46.85225" lon="0.44353">
        <ele>157</ele>
        <time>2019-02-17T09:52:06.098Z</time>
      </trkpt>
      <trkpt lat="46.85227" lon="0.44348">
        <ele>157</ele>
        <time>2019-02-17T09:52:07.098Z</time>
      </trkpt>
      <trkpt lat="46.85229" lon="0.44342">
        <ele>157</ele>
        <time>2019-02-17T09:52:08.098Z</time>
      </trkpt>
      <trkpt lat="46.85231" lon="0.44336">
        <ele>157</ele>
        <time>2019-02-17T09:52:09.098Z</time>
      </trkpt>
      <trkpt lat="46.85233" lon="0.44331">
        <ele>157</ele>
        <time>2019-02-17T09:52:10.098Z</time>
      </trkpt>
      <trkpt lat="46.85235" lon="0.44325">
        <ele>158</ele>
        <time>2019-02-17T09:52:11.098Z</time>
      </trkpt>
      <trkpt lat="46.85237" lon="0.4432">
        <ele>158</ele>
        <time>2019-02-17T09:52:12.098Z</time>
      </trkpt>
      <trkpt lat="46.85239" lon="0.44314">
        <ele>158</ele>
        <time>2019-02-17T09:52:13.098Z</time>
      </trkpt>
      <trkpt lat="46.85242" lon="0.44309">
        <ele>158</ele>
        <time>2019-02-17T09:52:14.098Z</time>
      </trkpt>
      <trkpt lat="46.85244" lon="0.44303">
        <ele>159</ele>
        <time>2019-02-17T09:52:15.098Z</time>
      </trkpt>
      <trkpt lat="46.85247" lon="0.44298">
        <ele>160</ele>
        <time>2019-02-17T09:52:16.098Z</time>
      </trkpt>
      <trkpt lat="46.8525" lon="0.44292">
        <ele>161</ele>
        <time>2019-02-17T09:52:17.098Z</time>
      </trkpt>
      <trkpt lat="46.85252" lon="0.44287">
        <ele>161</ele>
        <time>2019-02-17T09:52:18.098Z</time>
      </trkpt>
      <trkpt lat="46.85255" lon="0.44282">
        <ele>162</ele>
        <time>2019-02-17T09:52:19.098Z</time>
      </trkpt>
      <trkpt lat="46.85257" lon="0.44277">
        <ele>162</ele>
        <time>2019-02-17T09:52:20.098Z</time>
      </trkpt>
      <trkpt lat="46.85259" lon="0.44272">
        <ele>162</ele>
        <time>2019-02-17T09:52:21.098Z</time>
      </trkpt>
      <trkpt lat="46.85262" lon="0.44267">
        <ele>163</ele>
        <time>2019-02-17T09:52:22.098Z</time>
      </trkpt>
      <trkpt lat="46.85264" lon="0.44262">
        <ele>163</ele>
        <time>2019-02-17T09:52:23.098Z</time>
      </trkpt>
      <trkpt lat="46.85267" lon="0.44257">
        <ele>163</ele>
        <time>2019-02-17T09:52:24.098Z</time>
      </trkpt>
      <trkpt lat="46.8527" lon="0.44251">
        <ele>164</ele>
        <time>2019-02-17T09:52:25.098Z</time>
      </trkpt>
      <trkpt lat="46.85273" lon="0.44246">
        <ele>164</ele>
        <time>2019-02-17T09:52:26.098Z</time>
      </trkpt>
      <trkpt lat="46.85276" lon="0.44241">
        <ele>164</ele>
        <time>2019-02-17T09:52:27.098Z</time>
      </trkpt>
      <trkpt lat="46.85279" lon="0.44236">
        <ele>164</ele>
        <time>2019-02-17T09:52:28.098Z</time>
      </trkpt>
      <trkpt lat="46.85282" lon="0.44231">
        <ele>164</ele>
        <time>2019-02-17T09:52:29.098Z</time>
      </trkpt>
      <trkpt lat="46.85284" lon="0.44225">
        <ele>164</ele>
        <time>2019-02-17T09:52:30.098Z</time>
      </trkpt>
      <trkpt lat="46.85286" lon="0.4422">
        <ele>164</ele>
        <time>2019-02-17T09:52:31.098Z</time>
      </trkpt>
      <trkpt lat="46.85289" lon="0.44215">
        <ele>164</ele>
        <time>2019-02-17T09:52:32.098Z</time>
      </trkpt>
      <trkpt lat="46.85291" lon="0.4421">
        <ele>163</ele>
        <time>2019-02-17T09:52:33.098Z</time>
      </trkpt>
      <trkpt lat="46.85294" lon="0.44205">
        <ele>164</ele>
        <time>2019-02-17T09:52:34.098Z</time>
      </trkpt>
      <trkpt lat="46.85298" lon="0.442">
        <ele>164</ele>
        <time>2019-02-17T09:52:35.098Z</time>
      </trkpt>
      <trkpt lat="46.85301" lon="0.44195">
        <ele>165</ele>
        <time>2019-02-17T09:52:36.098Z</time>
      </trkpt>
      <trkpt lat="46.85304" lon="0.4419">
        <ele>165</ele>
        <time>2019-02-17T09:52:37.098Z</time>
      </trkpt>
      <trkpt lat="46.85306" lon="0.44183">
        <ele>163</ele>
        <time>2019-02-17T09:52:38.098Z</time>
      </trkpt>
      <trkpt lat="46.85307" lon="0.44177">
        <ele>161</ele>
        <time>2019-02-17T09:52:39.098Z</time>
      </trkpt>
      <trkpt lat="46.85308" lon="0.4417">
        <ele>160</ele>
        <time>2019-02-17T09:52:40.098Z</time>
      </trkpt>
      <trkpt lat="46.85309" lon="0.44163">
        <ele>159</ele>
        <time>2019-02-17T09:52:41.098Z</time>
      </trkpt>
      <trkpt lat="46.8531" lon="0.44156">
        <ele>159</ele>
        <time>2019-02-17T09:52:42.098Z</time>
      </trkpt>
      <trkpt lat="46.85312" lon="0.4415">
        <ele>159</ele>
        <time>2019-02-17T09:52:43.098Z</time>
      </trkpt>
      <trkpt lat="46.85313" lon="0.44143">
        <ele>158</ele>
        <time>2019-02-17T09:52:44.098Z</time>
      </trkpt>
      <trkpt lat="46.85315" lon="0.44137">
        <ele>158</ele>
        <time>2019-02-17T09:52:45.098Z</time>
      </trkpt>
      <trkpt lat="46.85317" lon="0.4413">
        <ele>158</ele>
        <time>2019-02-17T09:52:46.098Z</time>
      </trkpt>
      <trkpt lat="46.85319" lon="0.44124">
        <ele>158</ele>
        <time>2019-02-17T09:52:47.098Z</time>
      </trkpt>
      <trkpt lat="46.85321" lon="0.44118">
        <ele>159</ele>
        <time>2019-02-17T09:52:48.098Z</time>
      </trkpt>
      <trkpt lat="46.85323" lon="0.44111">
        <ele>158</ele>
        <time>2019-02-17T09:52:49.098Z</time>
      </trkpt>
      <trkpt lat="46.85325" lon="0.44105">
        <ele>158</ele>
        <time>2019-02-17T09:52:50.098Z</time>
      </trkpt>
      <trkpt lat="46.85327" lon="0.44099">
        <ele>158</ele>
        <time>2019-02-17T09:52:51.098Z</time>
      </trkpt>
      <trkpt lat="46.8533" lon="0.44093">
        <ele>158</ele>
        <time>2019-02-17T09:52:52.098Z</time>
      </trkpt>
      <trkpt lat="46.85333" lon="0.44087">
        <ele>158</ele>
        <time>2019-02-17T09:52:53.098Z</time>
      </trkpt>
      <trkpt lat="46.85335" lon="0.44081">
        <ele>158</ele>
        <time>2019-02-17T09:52:54.098Z</time>
      </trkpt>
      <trkpt lat="46.85338" lon="0.44074">
        <ele>158</ele>
        <time>2019-02-17T09:52:55.098Z</time>
      </trkpt>
      <trkpt lat="46.85341" lon="0.44067">
        <ele>158</ele>
        <time>2019-02-17T09:52:56.098Z</time>
      </trkpt>
      <trkpt lat="46.85345" lon="0.44061">
        <ele>158</ele>
        <time>2019-02-17T09:52:57.098Z</time>
      </trkpt>
      <trkpt lat="46.85348" lon="0.44054">
        <ele>158</ele>
        <time>2019-02-17T09:52:58.098Z</time>
      </trkpt>
      <trkpt lat="46.8535" lon="0.44048">
        <ele>159</ele>
        <time>2019-02-17T09:52:59.098Z</time>
      </trkpt>
      <trkpt lat="46.85353" lon="0.44042">
        <ele>159</ele>
        <time>2019-02-17T09:53:00.098Z</time>
      </trkpt>
      <trkpt lat="46.85356" lon="0.44036">
        <ele>159</ele>
        <time>2019-02-17T09:53:01.098Z</time>
      </trkpt>
      <trkpt lat="46.85359" lon="0.4403">
        <ele>159</ele>
        <time>2019-02-17T09:53:02.098Z</time>
      </trkpt>
      <trkpt lat="46.85362" lon="0.44024">
        <ele>159</ele>
        <time>2019-02-17T09:53:03.098Z</time>
      </trkpt>
      <trkpt lat="46.85365" lon="0.44019">
        <ele>160</ele>
        <time>2019-02-17T09:53:04.098Z</time>
      </trkpt>
      <trkpt lat="46.85368" lon="0.44015">
        <ele>160</ele>
        <time>2019-02-17T09:53:05.098Z</time>
      </trkpt>
      <trkpt lat="46.85372" lon="0.4401">
        <ele>160</ele>
        <time>2019-02-17T09:53:06.098Z</time>
      </trkpt>
      <trkpt lat="46.85375" lon="0.44006">
        <ele>159</ele>
        <time>2019-02-17T09:53:07.098Z</time>
      </trkpt>
      <trkpt lat="46.85379" lon="0.44002">
        <ele>159</ele>
        <time>2019-02-17T09:53:08.098Z</time>
      </trkpt>
      <trkpt lat="46.85382" lon="0.43997">
        <ele>159</ele>
        <time>2019-02-17T09:53:09.098Z</time>
      </trkpt>
      <trkpt lat="46.85386" lon="0.43993">
        <ele>158</ele>
        <time>2019-02-17T09:53:10.098Z</time>
      </trkpt>
      <trkpt lat="46.85389" lon="0.43988">
        <ele>158</ele>
        <time>2019-02-17T09:53:11.098Z</time>
      </trkpt>
      <trkpt lat="46.85392" lon="0.43984">
        <ele>158</ele>
        <time>2019-02-17T09:53:12.098Z</time>
      </trkpt>
      <trkpt lat="46.85396" lon="0.43979">
        <ele>158</ele>
        <time>2019-02-17T09:53:13.098Z</time>
      </trkpt>
      <trkpt lat="46.85399" lon="0.43975">
        <ele>157</ele>
        <time>2019-02-17T09:53:14.098Z</time>
      </trkpt>
      <trkpt lat="46.85403" lon="0.4397">
        <ele>157</ele>
        <time>2019-02-17T09:53:15.098Z</time>
      </trkpt>
      <trkpt lat="46.85406" lon="0.43966">
        <ele>157</ele>
        <time>2019-02-17T09:53:16.098Z</time>
      </trkpt>
      <trkpt lat="46.85409" lon="0.43962">
        <ele>157</ele>
        <time>2019-02-17T09:53:17.098Z</time>
      </trkpt>
      <trkpt lat="46.85413" lon="0.43958">
        <ele>157</ele>
        <time>2019-02-17T09:53:18.098Z</time>
      </trkpt>
      <trkpt lat="46.85416" lon="0.43953">
        <ele>157</ele>
        <time>2019-02-17T09:53:19.098Z</time>
      </trkpt>
      <trkpt lat="46.85419" lon="0.43949">
        <ele>156</ele>
        <time>2019-02-17T09:53:20.098Z</time>
      </trkpt>
      <trkpt lat="46.85422" lon="0.43944">
        <ele>156</ele>
        <time>2019-02-17T09:53:21.098Z</time>
      </trkpt>
      <trkpt lat="46.85426" lon="0.43939">
        <ele>156</ele>
        <time>2019-02-17T09:53:22.098Z</time>
      </trkpt>
      <trkpt lat="46.85429" lon="0.43934">
        <ele>156</ele>
        <time>2019-02-17T09:53:23.098Z</time>
      </trkpt>
      <trkpt lat="46.85433" lon="0.43929">
        <ele>156</ele>
        <time>2019-02-17T09:53:24.098Z</time>
      </trkpt>
      <trkpt lat="46.85437" lon="0.43924">
        <ele>157</ele>
        <time>2019-02-17T09:53:25.098Z</time>
      </trkpt>
      <trkpt lat="46.85441" lon="0.4392">
        <ele>157</ele>
        <time>2019-02-17T09:53:26.098Z</time>
      </trkpt>
      <trkpt lat="46.85445" lon="0.43915">
        <ele>156</ele>
        <time>2019-02-17T09:53:27.098Z</time>
      </trkpt>
      <trkpt lat="46.85449" lon="0.4391">
        <ele>157</ele>
        <time>2019-02-17T09:53:28.098Z</time>
      </trkpt>
      <trkpt lat="46.85453" lon="0.43906">
        <ele>157</ele>
        <time>2019-02-17T09:53:29.098Z</time>
      </trkpt>
      <trkpt lat="46.85457" lon="0.43901">
        <ele>157</ele>
        <time>2019-02-17T09:53:30.098Z</time>
      </trkpt>
      <trkpt lat="46.8546" lon="0.43897">
        <ele>157</ele>
        <time>2019-02-17T09:53:31.098Z</time>
      </trkpt>
      <trkpt lat="46.85463" lon="0.43893">
        <ele>157</ele>
        <time>2019-02-17T09:53:32.098Z</time>
      </trkpt>
      <trkpt lat="46.85466" lon="0.43889">
        <ele>157</ele>
        <time>2019-02-17T09:53:33.098Z</time>
      </trkpt>
      <trkpt lat="46.85468" lon="0.43885">
        <ele>158</ele>
        <time>2019-02-17T09:53:34.098Z</time>
      </trkpt>
      <trkpt lat="46.85471" lon="0.43881">
        <ele>158</ele>
        <time>2019-02-17T09:53:35.098Z</time>
      </trkpt>
      <trkpt lat="46.85472" lon="0.43877">
        <ele>158</ele>
        <time>2019-02-17T09:53:36.098Z</time>
      </trkpt>
      <trkpt lat="46.85472" lon="0.43873">
        <ele>159</ele>
        <time>2019-02-17T09:53:37.098Z</time>
      </trkpt>
      <trkpt lat="46.85471" lon="0.43869">
        <ele>160</ele>
        <time>2019-02-17T09:53:38.098Z</time>
      </trkpt>
      <trkpt lat="46.85469" lon="0.43865">
        <ele>162</ele>
        <time>2019-02-17T09:53:39.098Z</time>
      </trkpt>
      <trkpt lat="46.85468" lon="0.43863">
        <ele>163</ele>
        <time>2019-02-17T09:53:40.098Z</time>
      </trkpt>
      <trkpt lat="46.85467" lon="0.4386">
        <ele>163</ele>
        <time>2019-02-17T09:53:41.098Z</time>
      </trkpt>
      <trkpt lat="46.85465" lon="0.43859">
        <ele>162</ele>
        <time>2019-02-17T09:53:42.098Z</time>
      </trkpt>
      <trkpt lat="46.85462" lon="0.43856">
        <ele>162</ele>
        <time>2019-02-17T09:53:43.098Z</time>
      </trkpt>
      <trkpt lat="46.85459" lon="0.43854">
        <ele>161</ele>
        <time>2019-02-17T09:53:44.098Z</time>
      </trkpt>
      <trkpt lat="46.85456" lon="0.43853">
        <ele>161</ele>
        <time>2019-02-17T09:53:45.098Z</time>
      </trkpt>
      <trkpt lat="46.85452" lon="0.43852">
        <ele>160</ele>
        <time>2019-02-17T09:53:46.098Z</time>
      </trkpt>
      <trkpt lat="46.85448" lon="0.43851">
        <ele>159</ele>
        <time>2019-02-17T09:53:47.098Z</time>
      </trkpt>
      <trkpt lat="46.85445" lon="0.43849">
        <ele>158</ele>
        <time>2019-02-17T09:53:48.098Z</time>
      </trkpt>
      <trkpt lat="46.85441" lon="0.43848">
        <ele>157</ele>
        <time>2019-02-17T09:53:49.098Z</time>
      </trkpt>
      <trkpt lat="46.85437" lon="0.43848">
        <ele>157</ele>
        <time>2019-02-17T09:53:50.098Z</time>
      </trkpt>
      <trkpt lat="46.85434" lon="0.43847">
        <ele>158</ele>
        <time>2019-02-17T09:53:51.098Z</time>
      </trkpt>
      <trkpt lat="46.8543" lon="0.43846">
        <ele>157</ele>
        <time>2019-02-17T09:53:52.098Z</time>
      </trkpt>
      <trkpt lat="46.85427" lon="0.43845">
        <ele>156</ele>
        <time>2019-02-17T09:53:53.098Z</time>
      </trkpt>
      <trkpt lat="46.85423" lon="0.43845">
        <ele>156</ele>
        <time>2019-02-17T09:53:54.098Z</time>
      </trkpt>
      <trkpt lat="46.85419" lon="0.43845">
        <ele>155</ele>
        <time>2019-02-17T09:53:55.098Z</time>
      </trkpt>
      <trkpt lat="46.85414" lon="0.43845">
        <ele>154</ele>
        <time>2019-02-17T09:53:56.098Z</time>
      </trkpt>
      <trkpt lat="46.8541" lon="0.43845">
        <ele>150</ele>
        <time>2019-02-17T09:53:57.098Z</time>
      </trkpt>
      <trkpt lat="46.85406" lon="0.43845">
        <ele>150</ele>
        <time>2019-02-17T09:53:58.098Z</time>
      </trkpt>
      <trkpt lat="46.85402" lon="0.43846">
        <ele>149</ele>
        <time>2019-02-17T09:53:59.098Z</time>
      </trkpt>
      <trkpt lat="46.85399" lon="0.43847">
        <ele>150</ele>
        <time>2019-02-17T09:54:00.098Z</time>
      </trkpt>
      <trkpt lat="46.85395" lon="0.43848">
        <ele>150</ele>
        <time>2019-02-17T09:54:01.098Z</time>
      </trkpt>
      <trkpt lat="46.85391" lon="0.4385">
        <ele>148</ele>
        <time>2019-02-17T09:54:02.098Z</time>
      </trkpt>
      <trkpt lat="46.85388" lon="0.43851">
        <ele>147</ele>
        <time>2019-02-17T09:54:03.098Z</time>
      </trkpt>
      <trkpt lat="46.85384" lon="0.43851">
        <ele>146</ele>
        <time>2019-02-17T09:54:04.098Z</time>
      </trkpt>
      <trkpt lat="46.8538" lon="0.43851">
        <ele>143</ele>
        <time>2019-02-17T09:54:05.098Z</time>
      </trkpt>
      <trkpt lat="46.85375" lon="0.4385">
        <ele>142</ele>
        <time>2019-02-17T09:54:06.098Z</time>
      </trkpt>
      <trkpt lat="46.85369" lon="0.43849">
        <ele>140</ele>
        <time>2019-02-17T09:54:07.098Z</time>
      </trkpt>
      <trkpt lat="46.85365" lon="0.43848">
        <ele>140</ele>
        <time>2019-02-17T09:54:08.098Z</time>
      </trkpt>
      <trkpt lat="46.8536" lon="0.43847">
        <ele>140</ele>
        <time>2019-02-17T09:54:09.098Z</time>
      </trkpt>
      <trkpt lat="46.85355" lon="0.43846">
        <ele>138</ele>
        <time>2019-02-17T09:54:10.098Z</time>
      </trkpt>
      <trkpt lat="46.85351" lon="0.43846">
        <ele>138</ele>
        <time>2019-02-17T09:54:11.098Z</time>
      </trkpt>
      <trkpt lat="46.85346" lon="0.43845">
        <ele>138</ele>
        <time>2019-02-17T09:54:12.098Z</time>
      </trkpt>
      <trkpt lat="46.85342" lon="0.43845">
        <ele>138</ele>
        <time>2019-02-17T09:54:13.098Z</time>
      </trkpt>
      <trkpt lat="46.85337" lon="0.43844">
        <ele>138</ele>
        <time>2019-02-17T09:54:14.098Z</time>
      </trkpt>
      <trkpt lat="46.85333" lon="0.43844">
        <ele>138</ele>
        <time>2019-02-17T09:54:15.098Z</time>
      </trkpt>
      <trkpt lat="46.85329" lon="0.43843">
        <ele>137</ele>
        <time>2019-02-17T09:54:16.098Z</time>
      </trkpt>
      <trkpt lat="46.85325" lon="0.43842">
        <ele>135</ele>
        <time>2019-02-17T09:54:17.098Z</time>
      </trkpt>
      <trkpt lat="46.85321" lon="0.43841">
        <ele>135</ele>
        <time>2019-02-17T09:54:18.098Z</time>
      </trkpt>
      <trkpt lat="46.85317" lon="0.43841">
        <ele>136</ele>
        <time>2019-02-17T09:54:19.098Z</time>
      </trkpt>
      <trkpt lat="46.85313" lon="0.4384">
        <ele>136</ele>
        <time>2019-02-17T09:54:20.098Z</time>
      </trkpt>
      <trkpt lat="46.85308" lon="0.4384">
        <ele>137</ele>
        <time>2019-02-17T09:54:21.098Z</time>
      </trkpt>
      <trkpt lat="46.85304" lon="0.4384">
        <ele>138</ele>
        <time>2019-02-17T09:54:22.098Z</time>
      </trkpt>
      <trkpt lat="46.853" lon="0.4384">
        <ele>140</ele>
        <time>2019-02-17T09:54:23.098Z</time>
      </trkpt>
      <trkpt lat="46.85295" lon="0.43839">
        <ele>140</ele>
        <time>2019-02-17T09:54:24.098Z</time>
      </trkpt>
      <trkpt lat="46.85291" lon="0.43838">
        <ele>141</ele>
        <time>2019-02-17T09:54:25.098Z</time>
      </trkpt>
      <trkpt lat="46.85286" lon="0.43837">
        <ele>140</ele>
        <time>2019-02-17T09:54:26.098Z</time>
      </trkpt>
      <trkpt lat="46.85282" lon="0.43835">
        <ele>140</ele>
        <time>2019-02-17T09:54:27.098Z</time>
      </trkpt>
      <trkpt lat="46.85278" lon="0.43835">
        <ele>140</ele>
        <time>2019-02-17T09:54:28.098Z</time>
      </trkpt>
      <trkpt lat="46.85275" lon="0.43834">
        <ele>139</ele>
        <time>2019-02-17T09:54:29.098Z</time>
      </trkpt>
      <trkpt lat="46.85271" lon="0.43834">
        <ele>139</ele>
        <time>2019-02-17T09:54:30.098Z</time>
      </trkpt>
      <trkpt lat="46.85267" lon="0.43833">
        <ele>138</ele>
        <time>2019-02-17T09:54:31.098Z</time>
      </trkpt>
      <trkpt lat="46.85263" lon="0.43833">
        <ele>137</ele>
        <time>2019-02-17T09:54:32.098Z</time>
      </trkpt>
      <trkpt lat="46.85259" lon="0.43832">
        <ele>137</ele>
        <time>2019-02-17T09:54:33.098Z</time>
      </trkpt>
      <trkpt lat="46.85256" lon="0.43831">
        <ele>138</ele>
        <time>2019-02-17T09:54:34.098Z</time>
      </trkpt>
      <trkpt lat="46.85252" lon="0.4383">
        <ele>138</ele>
        <time>2019-02-17T09:54:35.098Z</time>
      </trkpt>
      <trkpt lat="46.85249" lon="0.43828">
        <ele>137</ele>
        <time>2019-02-17T09:54:36.098Z</time>
      </trkpt>
      <trkpt lat="46.85245" lon="0.43826">
        <ele>137</ele>
        <time>2019-02-17T09:54:37.098Z</time>
      </trkpt>
      <trkpt lat="46.85242" lon="0.43826">
        <ele>138</ele>
        <time>2019-02-17T09:54:38.098Z</time>
      </trkpt>
      <trkpt lat="46.85238" lon="0.43825">
        <ele>137</ele>
        <time>2019-02-17T09:54:39.098Z</time>
      </trkpt>
      <trkpt lat="46.85235" lon="0.43824">
        <ele>137</ele>
        <time>2019-02-17T09:54:40.098Z</time>
      </trkpt>
      <trkpt lat="46.85232" lon="0.43823">
        <ele>136</ele>
        <time>2019-02-17T09:54:41.098Z</time>
      </trkpt>
      <trkpt lat="46.85229" lon="0.43823">
        <ele>137</ele>
        <time>2019-02-17T09:54:42.098Z</time>
      </trkpt>
      <trkpt lat="46.85225" lon="0.43824">
        <ele>137</ele>
        <time>2019-02-17T09:54:43.098Z</time>
      </trkpt>
      <trkpt lat="46.85222" lon="0.43824">
        <ele>136</ele>
        <time>2019-02-17T09:54:44.098Z</time>
      </trkpt>
      <trkpt lat="46.85218" lon="0.43824">
        <ele>135</ele>
        <time>2019-02-17T09:54:45.098Z</time>
      </trkpt>
      <trkpt lat="46.85214" lon="0.43824">
        <ele>136</ele>
        <time>2019-02-17T09:54:46.098Z</time>
      </trkpt>
      <trkpt lat="46.85211" lon="0.43824">
        <ele>137</ele>
        <time>2019-02-17T09:54:47.098Z</time>
      </trkpt>
      <trkpt lat="46.85207" lon="0.43824">
        <ele>138</ele>
        <time>2019-02-17T09:54:48.098Z</time>
      </trkpt>
      <trkpt lat="46.85203" lon="0.43823">
        <ele>138</ele>
        <time>2019-02-17T09:54:49.098Z</time>
      </trkpt>
      <trkpt lat="46.852" lon="0.43821">
        <ele>139</ele>
        <time>2019-02-17T09:54:50.098Z</time>
      </trkpt>
      <trkpt lat="46.85196" lon="0.43819">
        <ele>141</ele>
        <time>2019-02-17T09:54:51.098Z</time>
      </trkpt>
      <trkpt lat="46.85191" lon="0.43814">
        <ele>142</ele>
        <time>2019-02-17T09:54:52.098Z</time>
      </trkpt>
      <trkpt lat="46.85187" lon="0.43811">
        <ele>144</ele>
        <time>2019-02-17T09:54:53.098Z</time>
      </trkpt>
      <trkpt lat="46.85183" lon="0.43807">
        <ele>144</ele>
        <time>2019-02-17T09:54:54.098Z</time>
      </trkpt>
      <trkpt lat="46.85179" lon="0.43805">
        <ele>144</ele>
        <time>2019-02-17T09:54:55.098Z</time>
      </trkpt>
      <trkpt lat="46.85175" lon="0.43803">
        <ele>143</ele>
        <time>2019-02-17T09:54:56.098Z</time>
      </trkpt>
      <trkpt lat="46.85172" lon="0.43802">
        <ele>143</ele>
        <time>2019-02-17T09:54:57.098Z</time>
      </trkpt>
      <trkpt lat="46.85168" lon="0.438">
        <ele>142</ele>
        <time>2019-02-17T09:54:58.098Z</time>
      </trkpt>
      <trkpt lat="46.85165" lon="0.43799">
        <ele>142</ele>
        <time>2019-02-17T09:54:59.098Z</time>
      </trkpt>
      <trkpt lat="46.85162" lon="0.43797">
        <ele>141</ele>
        <time>2019-02-17T09:55:00.098Z</time>
      </trkpt>
      <trkpt lat="46.85161" lon="0.43794">
        <ele>142</ele>
        <time>2019-02-17T09:55:01.098Z</time>
      </trkpt>
      <trkpt lat="46.8516" lon="0.43791">
        <ele>141</ele>
        <time>2019-02-17T09:55:02.098Z</time>
      </trkpt>
      <trkpt lat="46.85159" lon="0.43788">
        <ele>141</ele>
        <time>2019-02-17T09:55:03.098Z</time>
      </trkpt>
      <trkpt lat="46.85159" lon="0.43786">
        <ele>142</ele>
        <time>2019-02-17T09:55:04.098Z</time>
      </trkpt>
      <trkpt lat="46.85159" lon="0.43784">
        <ele>141</ele>
        <time>2019-02-17T09:55:05.098Z</time>
      </trkpt>
      <trkpt lat="46.8516" lon="0.43782">
        <ele>140</ele>
        <time>2019-02-17T09:55:06.098Z</time>
      </trkpt>
      <trkpt lat="46.85162" lon="0.43781">
        <ele>141</ele>
        <time>2019-02-17T09:55:07.098Z</time>
      </trkpt>
      <trkpt lat="46.85163" lon="0.43778">
        <ele>142</ele>
        <time>2019-02-17T09:55:08.098Z</time>
      </trkpt>
      <trkpt lat="46.85165" lon="0.43774">
        <ele>142</ele>
        <time>2019-02-17T09:55:09.098Z</time>
      </trkpt>
      <trkpt lat="46.85166" lon="0.4377">
        <ele>141</ele>
        <time>2019-02-17T09:55:10.098Z</time>
      </trkpt>
      <trkpt lat="46.85167" lon="0.43767">
        <ele>143</ele>
        <time>2019-02-17T09:55:11.098Z</time>
      </trkpt>
      <trkpt lat="46.85167" lon="0.43765">
        <ele>143</ele>
        <time>2019-02-17T09:55:12.098Z</time>
      </trkpt>
      <trkpt lat="46.85167" lon="0.43762">
        <ele>144</ele>
        <time>2019-02-17T09:55:13.098Z</time>
      </trkpt>
      <trkpt lat="46.85168" lon="0.43757">
        <ele>141</ele>
        <time>2019-02-17T09:55:14.098Z</time>
      </trkpt>
      <trkpt lat="46.85168" lon="0.43752">
        <ele>142</ele>
        <time>2019-02-17T09:55:15.098Z</time>
      </trkpt>
      <trkpt lat="46.85169" lon="0.43747">
        <ele>142</ele>
        <time>2019-02-17T09:55:16.098Z</time>
      </trkpt>
      <trkpt lat="46.8517" lon="0.43743">
        <ele>141</ele>
        <time>2019-02-17T09:55:17.098Z</time>
      </trkpt>
      <trkpt lat="46.85171" lon="0.43738">
        <ele>142</ele>
        <time>2019-02-17T09:55:18.098Z</time>
      </trkpt>
      <trkpt lat="46.85173" lon="0.43734">
        <ele>143</ele>
        <time>2019-02-17T09:55:19.098Z</time>
      </trkpt>
      <trkpt lat="46.85175" lon="0.4373">
        <ele>144</ele>
        <time>2019-02-17T09:55:20.098Z</time>
      </trkpt>
      <trkpt lat="46.85177" lon="0.43728">
        <ele>143</ele>
        <time>2019-02-17T09:55:21.098Z</time>
      </trkpt>
      <trkpt lat="46.8518" lon="0.43727">
        <ele>143</ele>
        <time>2019-02-17T09:55:22.098Z</time>
      </trkpt>
      <trkpt lat="46.85183" lon="0.43726">
        <ele>144</ele>
        <time>2019-02-17T09:55:23.098Z</time>
      </trkpt>
      <trkpt lat="46.85186" lon="0.43724">
        <ele>143</ele>
        <time>2019-02-17T09:55:24.098Z</time>
      </trkpt>
      <trkpt lat="46.85188" lon="0.43723">
        <ele>143</ele>
        <time>2019-02-17T09:55:25.098Z</time>
      </trkpt>
      <trkpt lat="46.85191" lon="0.43721">
        <ele>144</ele>
        <time>2019-02-17T09:55:26.098Z</time>
      </trkpt>
      <trkpt lat="46.85195" lon="0.43719">
        <ele>143</ele>
        <time>2019-02-17T09:55:27.098Z</time>
      </trkpt>
      <trkpt lat="46.85198" lon="0.43716">
        <ele>141</ele>
        <time>2019-02-17T09:55:28.098Z</time>
      </trkpt>
      <trkpt lat="46.85201" lon="0.43713">
        <ele>140</ele>
        <time>2019-02-17T09:55:29.098Z</time>
      </trkpt>
      <trkpt lat="46.85204" lon="0.43711">
        <ele>139</ele>
        <time>2019-02-17T09:55:30.098Z</time>
      </trkpt>
      <trkpt lat="46.85207" lon="0.43709">
        <ele>139</ele>
        <time>2019-02-17T09:55:31.098Z</time>
      </trkpt>
      <trkpt lat="46.8521" lon="0.43707">
        <ele>139</ele>
        <time>2019-02-17T09:55:32.098Z</time>
      </trkpt>
      <trkpt lat="46.85214" lon="0.43706">
        <ele>139</ele>
        <time>2019-02-17T09:55:33.098Z</time>
      </trkpt>
      <trkpt lat="46.85218" lon="0.43704">
        <ele>140</ele>
        <time>2019-02-17T09:55:34.098Z</time>
      </trkpt>
      <trkpt lat="46.85223" lon="0.43703">
        <ele>143</ele>
        <time>2019-02-17T09:55:35.098Z</time>
      </trkpt>
      <trkpt lat="46.85229" lon="0.43703">
        <ele>144</ele>
        <time>2019-02-17T09:55:36.098Z</time>
      </trkpt>
      <trkpt lat="46.85233" lon="0.43703">
        <ele>144</ele>
        <time>2019-02-17T09:55:37.098Z</time>
      </trkpt>
      <trkpt lat="46.85237" lon="0.43703">
        <ele>146</ele>
        <time>2019-02-17T09:55:38.098Z</time>
      </trkpt>
      <trkpt lat="46.85241" lon="0.43702">
        <ele>145</ele>
        <time>2019-02-17T09:55:39.098Z</time>
      </trkpt>
      <trkpt lat="46.85244" lon="0.43701">
        <ele>146</ele>
        <time>2019-02-17T09:55:40.098Z</time>
      </trkpt>
      <trkpt lat="46.85248" lon="0.43699">
        <ele>145</ele>
        <time>2019-02-17T09:55:41.098Z</time>
      </trkpt>
      <trkpt lat="46.85252" lon="0.43697">
        <ele>145</ele>
        <time>2019-02-17T09:55:42.098Z</time>
      </trkpt>
      <trkpt lat="46.85256" lon="0.43695">
        <ele>146</ele>
        <time>2019-02-17T09:55:43.098Z</time>
      </trkpt>
      <trkpt lat="46.8526" lon="0.43694">
        <ele>147</ele>
        <time>2019-02-17T09:55:44.098Z</time>
      </trkpt>
      <trkpt lat="46.85264" lon="0.43692">
        <ele>147</ele>
        <time>2019-02-17T09:55:45.098Z</time>
      </trkpt>
      <trkpt lat="46.85269" lon="0.43691">
        <ele>149</ele>
        <time>2019-02-17T09:55:46.098Z</time>
      </trkpt>
      <trkpt lat="46.85273" lon="0.43689">
        <ele>148</ele>
        <time>2019-02-17T09:55:47.098Z</time>
      </trkpt>
      <trkpt lat="46.85277" lon="0.43687">
        <ele>148</ele>
        <time>2019-02-17T09:55:48.098Z</time>
      </trkpt>
      <trkpt lat="46.85281" lon="0.43685">
        <ele>148</ele>
        <time>2019-02-17T09:55:49.098Z</time>
      </trkpt>
      <trkpt lat="46.85285" lon="0.43683">
        <ele>147</ele>
        <time>2019-02-17T09:55:50.098Z</time>
      </trkpt>
      <trkpt lat="46.85289" lon="0.43681">
        <ele>146</ele>
        <time>2019-02-17T09:55:51.098Z</time>
      </trkpt>
      <trkpt lat="46.85293" lon="0.43679">
        <ele>146</ele>
        <time>2019-02-17T09:55:52.098Z</time>
      </trkpt>
      <trkpt lat="46.85297" lon="0.43678">
        <ele>146</ele>
        <time>2019-02-17T09:55:53.098Z</time>
      </trkpt>
      <trkpt lat="46.85301" lon="0.43677">
        <ele>146</ele>
        <time>2019-02-17T09:55:54.098Z</time>
      </trkpt>
      <trkpt lat="46.85305" lon="0.43677">
        <ele>147</ele>
        <time>2019-02-17T09:55:55.098Z</time>
      </trkpt>
      <trkpt lat="46.85308" lon="0.43675">
        <ele>146</ele>
        <time>2019-02-17T09:55:56.098Z</time>
      </trkpt>
      <trkpt lat="46.85311" lon="0.43674">
        <ele>146</ele>
        <time>2019-02-17T09:55:57.098Z</time>
      </trkpt>
      <trkpt lat="46.85314" lon="0.43672">
        <ele>143</ele>
        <time>2019-02-17T09:55:58.098Z</time>
      </trkpt>
      <trkpt lat="46.85316" lon="0.43669">
        <ele>143</ele>
        <time>2019-02-17T09:55:59.098Z</time>
      </trkpt>
      <trkpt lat="46.85319" lon="0.43666">
        <ele>143</ele>
        <time>2019-02-17T09:56:00.098Z</time>
      </trkpt>
      <trkpt lat="46.85321" lon="0.43664">
        <ele>143</ele>
        <time>2019-02-17T09:56:01.098Z</time>
      </trkpt>
      <trkpt lat="46.85323" lon="0.43663">
        <ele>142</ele>
        <time>2019-02-17T09:56:02.098Z</time>
      </trkpt>
      <trkpt lat="46.85324" lon="0.43661">
        <ele>142</ele>
        <time>2019-02-17T09:56:03.098Z</time>
      </trkpt>
      <trkpt lat="46.85324" lon="0.43659">
        <ele>141</ele>
        <time>2019-02-17T09:56:04.098Z</time>
      </trkpt>
      <trkpt lat="46.85324" lon="0.43656">
        <ele>140</ele>
        <time>2019-02-17T09:56:05.098Z</time>
      </trkpt>
      <trkpt lat="46.85323" lon="0.43652">
        <ele>140</ele>
        <time>2019-02-17T09:56:06.098Z</time>
      </trkpt>
      <trkpt lat="46.85323" lon="0.43649">
        <ele>141</ele>
        <time>2019-02-17T09:56:07.098Z</time>
      </trkpt>
      <trkpt lat="46.85322" lon="0.43646">
        <ele>142</ele>
        <time>2019-02-17T09:56:08.098Z</time>
      </trkpt>
      <trkpt lat="46.85323" lon="0.43644">
        <ele>143</ele>
        <time>2019-02-17T09:56:09.098Z</time>
      </trkpt>
      <trkpt lat="46.85324" lon="0.43643">
        <ele>143</ele>
        <time>2019-02-17T09:56:10.098Z</time>
      </trkpt>
      <trkpt lat="46.85324" lon="0.43642">
        <ele>143</ele>
        <time>2019-02-17T09:56:11.098Z</time>
      </trkpt>
      <trkpt lat="46.85325" lon="0.4364">
        <ele>143</ele>
        <time>2019-02-17T09:56:12.098Z</time>
      </trkpt>
      <trkpt lat="46.85324" lon="0.43639">
        <ele>143</ele>
        <time>2019-02-17T09:56:13.098Z</time>
      </trkpt>
      <trkpt lat="46.85324" lon="0.43637">
        <ele>143</ele>
        <time>2019-02-17T09:56:14.098Z</time>
      </trkpt>
      <trkpt lat="46.85324" lon="0.43635">
        <ele>144</ele>
        <time>2019-02-17T09:56:15.098Z</time>
      </trkpt>
      <trkpt lat="46.85324" lon="0.43633">
        <ele>145</ele>
        <time>2019-02-17T09:56:16.098Z</time>
      </trkpt>
      <trkpt lat="46.85324" lon="0.43631">
        <ele>146</ele>
        <time>2019-02-17T09:56:17.098Z</time>
      </trkpt>
      <trkpt lat="46.85324" lon="0.43629">
        <ele>147</ele>
        <time>2019-02-17T09:56:18.098Z</time>
      </trkpt>
      <trkpt lat="46.85323" lon="0.43628">
        <ele>148</ele>
        <time>2019-02-17T09:56:19.098Z</time>
      </trkpt>
      <trkpt lat="46.85322" lon="0.43626">
        <ele>148</ele>
        <time>2019-02-17T09:56:20.098Z</time>
      </trkpt>
      <trkpt lat="46.85321" lon="0.43625">
        <ele>148</ele>
        <time>2019-02-17T09:56:21.098Z</time>
      </trkpt>
      <trkpt lat="46.8532" lon="0.43624">
        <ele>148</ele>
        <time>2019-02-17T09:56:22.098Z</time>
      </trkpt>
      <trkpt lat="46.8532" lon="0.43623">
        <ele>149</ele>
        <time>2019-02-17T09:56:23.098Z</time>
      </trkpt>
      <trkpt lat="46.8532" lon="0.43622">
        <ele>150</ele>
        <time>2019-02-17T09:56:24.098Z</time>
      </trkpt>
      <trkpt lat="46.8532" lon="0.4362">
        <ele>150</ele>
        <time>2019-02-17T09:56:25.098Z</time>
      </trkpt>
      <trkpt lat="46.8532" lon="0.4362">
        <ele>151</ele>
        <time>2019-02-17T09:56:26.098Z</time>
      </trkpt>
      <trkpt lat="46.85319" lon="0.43619">
        <ele>151</ele>
        <time>2019-02-17T09:56:27.098Z</time>
      </trkpt>
      <trkpt lat="46.85319" lon="0.43619">
        <ele>154</ele>
        <time>2019-02-17T09:56:28.098Z</time>
      </trkpt>
      <trkpt lat="46.8532" lon="0.43617">
        <ele>157</ele>
        <time>2019-02-17T09:56:29.098Z</time>
      </trkpt>
      <trkpt lat="46.85321" lon="0.43615">
        <ele>157</ele>
        <time>2019-02-17T09:56:30.098Z</time>
      </trkpt>
      <trkpt lat="46.85321" lon="0.43613">
        <ele>157</ele>
        <time>2019-02-17T09:56:31.098Z</time>
      </trkpt>
      <trkpt lat="46.85322" lon="0.43611">
        <ele>155</ele>
        <time>2019-02-17T09:56:32.098Z</time>
      </trkpt>
      <trkpt lat="46.85322" lon="0.43608">
        <ele>155</ele>
        <time>2019-02-17T09:56:33.098Z</time>
      </trkpt>
      <trkpt lat="46.85321" lon="0.43606">
        <ele>155</ele>
        <time>2019-02-17T09:56:34.098Z</time>
      </trkpt>
      <trkpt lat="46.85321" lon="0.43603">
        <ele>155</ele>
        <time>2019-02-17T09:56:35.098Z</time>
      </trkpt>
      <trkpt lat="46.85321" lon="0.436">
        <ele>155</ele>
        <time>2019-02-17T09:56:36.098Z</time>
      </trkpt>
      <trkpt lat="46.8532" lon="0.43598">
        <ele>155</ele>
        <time>2019-02-17T09:56:37.098Z</time>
      </trkpt>
      <trkpt lat="46.8532" lon="0.43596">
        <ele>154</ele>
        <time>2019-02-17T09:56:38.098Z</time>
      </trkpt>
      <trkpt lat="46.85318" lon="0.43594">
        <ele>156</ele>
        <time>2019-02-17T09:56:39.098Z</time>
      </trkpt>
      <trkpt lat="46.85316" lon="0.43591">
        <ele>156</ele>
        <time>2019-02-17T09:56:40.098Z</time>
      </trkpt>
      <trkpt lat="46.85313" lon="0.43588">
        <ele>156</ele>
        <time>2019-02-17T09:56:41.098Z</time>
      </trkpt>
      <trkpt lat="46.8531" lon="0.43585">
        <ele>157</ele>
        <time>2019-02-17T09:56:42.098Z</time>
      </trkpt>
      <trkpt lat="46.85307" lon="0.43582">
        <ele>155</ele>
        <time>2019-02-17T09:56:43.098Z</time>
      </trkpt>
      <trkpt lat="46.85305" lon="0.43579">
        <ele>155</ele>
        <time>2019-02-17T09:56:44.098Z</time>
      </trkpt>
      <trkpt lat="46.85302" lon="0.43575">
        <ele>155</ele>
        <time>2019-02-17T09:56:45.098Z</time>
      </trkpt>
      <trkpt lat="46.853" lon="0.43571">
        <ele>154</ele>
        <time>2019-02-17T09:56:46.098Z</time>
      </trkpt>
      <trkpt lat="46.85299" lon="0.43567">
        <ele>154</ele>
        <time>2019-02-17T09:56:47.098Z</time>
      </trkpt>
      <trkpt lat="46.85299" lon="0.43562">
        <ele>153</ele>
        <time>2019-02-17T09:56:48.098Z</time>
      </trkpt>
      <trkpt lat="46.85298" lon="0.43558">
        <ele>154</ele>
        <time>2019-02-17T09:56:49.098Z</time>
      </trkpt>
      <trkpt lat="46.85298" lon="0.43553">
        <ele>154</ele>
        <time>2019-02-17T09:56:50.098Z</time>
      </trkpt>
      <trkpt lat="46.85296" lon="0.43548">
        <ele>152</ele>
        <time>2019-02-17T09:56:51.098Z</time>
      </trkpt>
      <trkpt lat="46.85296" lon="0.43543">
        <ele>152</ele>
        <time>2019-02-17T09:56:52.098Z</time>
      </trkpt>
      <trkpt lat="46.85295" lon="0.43539">
        <ele>152</ele>
        <time>2019-02-17T09:56:53.098Z</time>
      </trkpt>
      <trkpt lat="46.85295" lon="0.43534">
        <ele>152</ele>
        <time>2019-02-17T09:56:54.098Z</time>
      </trkpt>
      <trkpt lat="46.85295" lon="0.4353">
        <ele>152</ele>
        <time>2019-02-17T09:56:55.098Z</time>
      </trkpt>
      <trkpt lat="46.85295" lon="0.43526">
        <ele>151</ele>
        <time>2019-02-17T09:56:56.098Z</time>
      </trkpt>
      <trkpt lat="46.85295" lon="0.43521">
        <ele>150</ele>
        <time>2019-02-17T09:56:57.098Z</time>
      </trkpt>
      <trkpt lat="46.85295" lon="0.43517">
        <ele>149</ele>
        <time>2019-02-17T09:56:58.098Z</time>
      </trkpt>
      <trkpt lat="46.85296" lon="0.43512">
        <ele>148</ele>
        <time>2019-02-17T09:56:59.098Z</time>
      </trkpt>
      <trkpt lat="46.85296" lon="0.43508">
        <ele>148</ele>
        <time>2019-02-17T09:57:00.098Z</time>
      </trkpt>
      <trkpt lat="46.85296" lon="0.43504">
        <ele>148</ele>
        <time>2019-02-17T09:57:01.098Z</time>
      </trkpt>
      <trkpt lat="46.85296" lon="0.435">
        <ele>147</ele>
        <time>2019-02-17T09:57:02.098Z</time>
      </trkpt>
      <trkpt lat="46.85296" lon="0.43496">
        <ele>146</ele>
        <time>2019-02-17T09:57:03.098Z</time>
      </trkpt>
      <trkpt lat="46.85296" lon="0.43491">
        <ele>146</ele>
        <time>2019-02-17T09:57:04.098Z</time>
      </trkpt>
      <trkpt lat="46.85296" lon="0.43487">
        <ele>145</ele>
        <time>2019-02-17T09:57:05.098Z</time>
      </trkpt>
      <trkpt lat="46.85296" lon="0.43483">
        <ele>145</ele>
        <time>2019-02-17T09:57:06.098Z</time>
      </trkpt>
      <trkpt lat="46.85296" lon="0.43479">
        <ele>144</ele>
        <time>2019-02-17T09:57:07.098Z</time>
      </trkpt>
      <trkpt lat="46.85296" lon="0.43475">
        <ele>143</ele>
        <time>2019-02-17T09:57:08.098Z</time>
      </trkpt>
      <trkpt lat="46.85297" lon="0.43472">
        <ele>143</ele>
        <time>2019-02-17T09:57:09.098Z</time>
      </trkpt>
      <trkpt lat="46.85298" lon="0.43469">
        <ele>145</ele>
        <time>2019-02-17T09:57:10.098Z</time>
      </trkpt>
      <trkpt lat="46.85298" lon="0.43466">
        <ele>144</ele>
        <time>2019-02-17T09:57:11.098Z</time>
      </trkpt>
      <trkpt lat="46.85297" lon="0.43464">
        <ele>143</ele>
        <time>2019-02-17T09:57:12.098Z</time>
      </trkpt>
      <trkpt lat="46.85295" lon="0.43462">
        <ele>143</ele>
        <time>2019-02-17T09:57:13.098Z</time>
      </trkpt>
      <trkpt lat="46.85292" lon="0.43461">
        <ele>142</ele>
        <time>2019-02-17T09:57:14.098Z</time>
      </trkpt>
      <trkpt lat="46.85289" lon="0.4346">
        <ele>142</ele>
        <time>2019-02-17T09:57:15.098Z</time>
      </trkpt>
      <trkpt lat="46.85286" lon="0.43459">
        <ele>141</ele>
        <time>2019-02-17T09:57:16.098Z</time>
      </trkpt>
      <trkpt lat="46.85283" lon="0.43458">
        <ele>141</ele>
        <time>2019-02-17T09:57:17.098Z</time>
      </trkpt>
      <trkpt lat="46.8528" lon="0.43458">
        <ele>141</ele>
        <time>2019-02-17T09:57:18.098Z</time>
      </trkpt>
      <trkpt lat="46.85276" lon="0.43457">
        <ele>141</ele>
        <time>2019-02-17T09:57:19.098Z</time>
      </trkpt>
      <trkpt lat="46.85273" lon="0.43457">
        <ele>141</ele>
        <time>2019-02-17T09:57:20.098Z</time>
      </trkpt>
      <trkpt lat="46.8527" lon="0.43456">
        <ele>141</ele>
        <time>2019-02-17T09:57:21.098Z</time>
      </trkpt>
      <trkpt lat="46.85267" lon="0.43456">
        <ele>141</ele>
        <time>2019-02-17T09:57:22.098Z</time>
      </trkpt>
      <trkpt lat="46.85264" lon="0.43457">
        <ele>141</ele>
        <time>2019-02-17T09:57:23.098Z</time>
      </trkpt>
      <trkpt lat="46.8526" lon="0.43457">
        <ele>141</ele>
        <time>2019-02-17T09:57:24.098Z</time>
      </trkpt>
      <trkpt lat="46.85257" lon="0.43457">
        <ele>141</ele>
        <time>2019-02-17T09:57:25.098Z</time>
      </trkpt>
      <trkpt lat="46.85253" lon="0.43456">
        <ele>142</ele>
        <time>2019-02-17T09:57:26.098Z</time>
      </trkpt>
      <trkpt lat="46.8525" lon="0.43456">
        <ele>143</ele>
        <time>2019-02-17T09:57:27.098Z</time>
      </trkpt>
      <trkpt lat="46.85247" lon="0.43456">
        <ele>142</ele>
        <time>2019-02-17T09:57:28.098Z</time>
      </trkpt>
      <trkpt lat="46.85245" lon="0.43456">
        <ele>143</ele>
        <time>2019-02-17T09:57:29.098Z</time>
      </trkpt>
      <trkpt lat="46.85244" lon="0.43455">
        <ele>145</ele>
        <time>2019-02-17T09:57:30.098Z</time>
      </trkpt>
      <trkpt lat="46.85243" lon="0.43456">
        <ele>145</ele>
        <time>2019-02-17T09:57:31.098Z</time>
      </trkpt>
      <trkpt lat="46.85243" lon="0.43456">
        <ele>145</ele>
        <time>2019-02-17T09:57:32.098Z</time>
      </trkpt>
      <trkpt lat="46.85244" lon="0.43456">
        <ele>145</ele>
        <time>2019-02-17T09:57:33.098Z</time>
      </trkpt>
      <trkpt lat="46.85246" lon="0.43456">
        <ele>146</ele>
        <time>2019-02-17T09:57:34.098Z</time>
      </trkpt>
      <trkpt lat="46.85248" lon="0.43454">
        <ele>146</ele>
        <time>2019-02-17T09:57:35.098Z</time>
      </trkpt>
      <trkpt lat="46.85249" lon="0.43453">
        <ele>146</ele>
        <time>2019-02-17T09:57:36.098Z</time>
      </trkpt>
      <trkpt lat="46.8525" lon="0.43451">
        <ele>147</ele>
        <time>2019-02-17T09:57:37.098Z</time>
      </trkpt>
      <trkpt lat="46.8525" lon="0.4345">
        <ele>147</ele>
        <time>2019-02-17T09:57:38.098Z</time>
      </trkpt>
      <trkpt lat="46.8525" lon="0.43449">
        <ele>146</ele>
        <time>2019-02-17T09:57:39.098Z</time>
      </trkpt>
      <trkpt lat="46.8525" lon="0.43449">
        <ele>147</ele>
        <time>2019-02-17T09:57:40.098Z</time>
      </trkpt>
      <trkpt lat="46.8525" lon="0.43448">
        <ele>147</ele>
        <time>2019-02-17T09:57:41.098Z</time>
      </trkpt>
      <trkpt lat="46.8525" lon="0.43448">
        <ele>148</ele>
        <time>2019-02-17T09:57:42.098Z</time>
      </trkpt>
      <trkpt lat="46.8525" lon="0.43446">
        <ele>148</ele>
        <time>2019-02-17T09:57:43.098Z</time>
      </trkpt>
      <trkpt lat="46.85251" lon="0.43445">
        <ele>148</ele>
        <time>2019-02-17T09:57:44.098Z</time>
      </trkpt>
      <trkpt lat="46.85251" lon="0.43444">
        <ele>148</ele>
        <time>2019-02-17T09:57:45.098Z</time>
      </trkpt>
      <trkpt lat="46.85252" lon="0.43444">
        <ele>148</ele>
        <time>2019-02-17T09:57:46.098Z</time>
      </trkpt>
      <trkpt lat="46.85253" lon="0.43443">
        <ele>148</ele>
        <time>2019-02-17T09:57:47.098Z</time>
      </trkpt>
      <trkpt lat="46.85253" lon="0.43443">
        <ele>148</ele>
        <time>2019-02-17T09:57:48.098Z</time>
      </trkpt>
      <trkpt lat="46.85254" lon="0.43442">
        <ele>149</ele>
        <time>2019-02-17T09:57:49.098Z</time>
      </trkpt>
      <trkpt lat="46.85255" lon="0.4344">
        <ele>149</ele>
        <time>2019-02-17T09:57:50.098Z</time>
      </trkpt>
      <trkpt lat="46.85257" lon="0.43439">
        <ele>149</ele>
        <time>2019-02-17T09:57:51.098Z</time>
      </trkpt>
      <trkpt lat="46.85258" lon="0.43438">
        <ele>148</ele>
        <time>2019-02-17T09:57:52.098Z</time>
      </trkpt>
      <trkpt lat="46.85261" lon="0.43437">
        <ele>148</ele>
        <time>2019-02-17T09:57:53.098Z</time>
      </trkpt>
      <trkpt lat="46.85263" lon="0.43436">
        <ele>148</ele>
        <time>2019-02-17T09:57:54.098Z</time>
      </trkpt>
      <trkpt lat="46.85266" lon="0.43435">
        <ele>147</ele>
        <time>2019-02-17T09:57:55.098Z</time>
      </trkpt>
      <trkpt lat="46.85268" lon="0.43433">
        <ele>148</ele>
        <time>2019-02-17T09:57:56.098Z</time>
      </trkpt>
      <trkpt lat="46.85271" lon="0.43431">
        <ele>147</ele>
        <time>2019-02-17T09:57:57.098Z</time>
      </trkpt>
      <trkpt lat="46.85273" lon="0.43428">
        <ele>148</ele>
        <time>2019-02-17T09:57:58.098Z</time>
      </trkpt>
      <trkpt lat="46.85273" lon="0.43423">
        <ele>149</ele>
        <time>2019-02-17T09:57:59.098Z</time>
      </trkpt>
      <trkpt lat="46.85273" lon="0.43418">
        <ele>148</ele>
        <time>2019-02-17T09:58:00.098Z</time>
      </trkpt>
      <trkpt lat="46.85272" lon="0.43413">
        <ele>148</ele>
        <time>2019-02-17T09:58:01.098Z</time>
      </trkpt>
      <trkpt lat="46.85271" lon="0.43408">
        <ele>148</ele>
        <time>2019-02-17T09:58:02.098Z</time>
      </trkpt>
      <trkpt lat="46.8527" lon="0.43403">
        <ele>147</ele>
        <time>2019-02-17T09:58:03.098Z</time>
      </trkpt>
      <trkpt lat="46.85269" lon="0.43398">
        <ele>147</ele>
        <time>2019-02-17T09:58:04.098Z</time>
      </trkpt>
      <trkpt lat="46.85268" lon="0.43393">
        <ele>147</ele>
        <time>2019-02-17T09:58:05.098Z</time>
      </trkpt>
      <trkpt lat="46.85267" lon="0.43388">
        <ele>147</ele>
        <time>2019-02-17T09:58:06.098Z</time>
      </trkpt>
      <trkpt lat="46.85266" lon="0.43382">
        <ele>148</ele>
        <time>2019-02-17T09:58:07.098Z</time>
      </trkpt>
      <trkpt lat="46.85265" lon="0.43377">
        <ele>148</ele>
        <time>2019-02-17T09:58:08.098Z</time>
      </trkpt>
      <trkpt lat="46.85264" lon="0.43371">
        <ele>149</ele>
        <time>2019-02-17T09:58:09.098Z</time>
      </trkpt>
      <trkpt lat="46.85263" lon="0.43366">
        <ele>150</ele>
        <time>2019-02-17T09:58:10.098Z</time>
      </trkpt>
      <trkpt lat="46.85263" lon="0.4336">
        <ele>150</ele>
        <time>2019-02-17T09:58:11.098Z</time>
      </trkpt>
      <trkpt lat="46.85264" lon="0.43354">
        <ele>150</ele>
        <time>2019-02-17T09:58:12.098Z</time>
      </trkpt>
      <trkpt lat="46.85264" lon="0.43349">
        <ele>150</ele>
        <time>2019-02-17T09:58:13.098Z</time>
      </trkpt>
      <trkpt lat="46.85265" lon="0.43343">
        <ele>150</ele>
        <time>2019-02-17T09:58:14.098Z</time>
      </trkpt>
      <trkpt lat="46.85267" lon="0.43338">
        <ele>150</ele>
        <time>2019-02-17T09:58:15.098Z</time>
      </trkpt>
      <trkpt lat="46.85268" lon="0.43332">
        <ele>151</ele>
        <time>2019-02-17T09:58:16.098Z</time>
      </trkpt>
      <trkpt lat="46.8527" lon="0.43327">
        <ele>150</ele>
        <time>2019-02-17T09:58:17.098Z</time>
      </trkpt>
      <trkpt lat="46.85271" lon="0.43321">
        <ele>150</ele>
        <time>2019-02-17T09:58:18.098Z</time>
      </trkpt>
      <trkpt lat="46.85271" lon="0.43316">
        <ele>150</ele>
        <time>2019-02-17T09:58:19.098Z</time>
      </trkpt>
      <trkpt lat="46.85272" lon="0.4331">
        <ele>150</ele>
        <time>2019-02-17T09:58:20.098Z</time>
      </trkpt>
      <trkpt lat="46.85274" lon="0.43305">
        <ele>150</ele>
        <time>2019-02-17T09:58:21.098Z</time>
      </trkpt>
      <trkpt lat="46.85275" lon="0.43301">
        <ele>150</ele>
        <time>2019-02-17T09:58:22.098Z</time>
      </trkpt>
      <trkpt lat="46.85277" lon="0.43296">
        <ele>150</ele>
        <time>2019-02-17T09:58:23.098Z</time>
      </trkpt>
      <trkpt lat="46.85278" lon="0.43293">
        <ele>151</ele>
        <time>2019-02-17T09:58:24.098Z</time>
      </trkpt>
      <trkpt lat="46.8528" lon="0.43289">
        <ele>151</ele>
        <time>2019-02-17T09:58:25.098Z</time>
      </trkpt>
      <trkpt lat="46.85283" lon="0.43287">
        <ele>150</ele>
        <time>2019-02-17T09:58:26.098Z</time>
      </trkpt>
      <trkpt lat="46.85287" lon="0.43285">
        <ele>150</ele>
        <time>2019-02-17T09:58:27.098Z</time>
      </trkpt>
      <trkpt lat="46.8529" lon="0.43283">
        <ele>150</ele>
        <time>2019-02-17T09:58:28.098Z</time>
      </trkpt>
      <trkpt lat="46.85293" lon="0.4328">
        <ele>149</ele>
        <time>2019-02-17T09:58:29.098Z</time>
      </trkpt>
      <trkpt lat="46.85295" lon="0.43278">
        <ele>148</ele>
        <time>2019-02-17T09:58:30.098Z</time>
      </trkpt>
      <trkpt lat="46.85299" lon="0.43277">
        <ele>148</ele>
        <time>2019-02-17T09:58:31.098Z</time>
      </trkpt>
      <trkpt lat="46.85303" lon="0.43276">
        <ele>147</ele>
        <time>2019-02-17T09:58:32.098Z</time>
      </trkpt>
      <trkpt lat="46.85307" lon="0.43275">
        <ele>147</ele>
        <time>2019-02-17T09:58:33.098Z</time>
      </trkpt>
      <trkpt lat="46.85311" lon="0.43273">
        <ele>146</ele>
        <time>2019-02-17T09:58:34.098Z</time>
      </trkpt>
      <trkpt lat="46.85314" lon="0.43273">
        <ele>145</ele>
        <time>2019-02-17T09:58:35.098Z</time>
      </trkpt>
      <trkpt lat="46.85317" lon="0.43272">
        <ele>145</ele>
        <time>2019-02-17T09:58:36.098Z</time>
      </trkpt>
      <trkpt lat="46.8532" lon="0.43271">
        <ele>145</ele>
        <time>2019-02-17T09:58:37.098Z</time>
      </trkpt>
      <trkpt lat="46.85323" lon="0.4327">
        <ele>145</ele>
        <time>2019-02-17T09:58:38.098Z</time>
      </trkpt>
      <trkpt lat="46.85327" lon="0.43269">
        <ele>145</ele>
        <time>2019-02-17T09:58:39.098Z</time>
      </trkpt>
      <trkpt lat="46.85331" lon="0.43267">
        <ele>145</ele>
        <time>2019-02-17T09:58:40.098Z</time>
      </trkpt>
      <trkpt lat="46.85334" lon="0.43265">
        <ele>144</ele>
        <time>2019-02-17T09:58:41.098Z</time>
      </trkpt>
      <trkpt lat="46.85338" lon="0.43263">
        <ele>143</ele>
        <time>2019-02-17T09:58:42.098Z</time>
      </trkpt>
      <trkpt lat="46.85341" lon="0.43261">
        <ele>142</ele>
        <time>2019-02-17T09:58:43.098Z</time>
      </trkpt>
      <trkpt lat="46.85344" lon="0.43259">
        <ele>142</ele>
        <time>2019-02-17T09:58:44.098Z</time>
      </trkpt>
      <trkpt lat="46.85347" lon="0.43257">
        <ele>140</ele>
        <time>2019-02-17T09:58:45.098Z</time>
      </trkpt>
      <trkpt lat="46.85349" lon="0.43255">
        <ele>140</ele>
        <time>2019-02-17T09:58:46.098Z</time>
      </trkpt>
      <trkpt lat="46.85352" lon="0.43251">
        <ele>141</ele>
        <time>2019-02-17T09:58:47.098Z</time>
      </trkpt>
      <trkpt lat="46.85356" lon="0.43247">
        <ele>141</ele>
        <time>2019-02-17T09:58:48.098Z</time>
      </trkpt>
      <trkpt lat="46.85359" lon="0.43243">
        <ele>141</ele>
        <time>2019-02-17T09:58:49.098Z</time>
      </trkpt>
      <trkpt lat="46.85362" lon="0.4324">
        <ele>142</ele>
        <time>2019-02-17T09:58:50.098Z</time>
      </trkpt>
      <trkpt lat="46.85366" lon="0.43236">
        <ele>142</ele>
        <time>2019-02-17T09:58:51.098Z</time>
      </trkpt>
      <trkpt lat="46.85369" lon="0.43232">
        <ele>141</ele>
        <time>2019-02-17T09:58:52.098Z</time>
      </trkpt>
      <trkpt lat="46.85372" lon="0.43229">
        <ele>141</ele>
        <time>2019-02-17T09:58:53.098Z</time>
      </trkpt>
      <trkpt lat="46.85375" lon="0.43225">
        <ele>141</ele>
        <time>2019-02-17T09:58:54.098Z</time>
      </trkpt>
      <trkpt lat="46.85378" lon="0.4322">
        <ele>141</ele>
        <time>2019-02-17T09:58:55.098Z</time>
      </trkpt>
      <trkpt lat="46.8538" lon="0.43214">
        <ele>141</ele>
        <time>2019-02-17T09:58:56.098Z</time>
      </trkpt>
      <trkpt lat="46.85383" lon="0.43209">
        <ele>142</ele>
        <time>2019-02-17T09:58:57.098Z</time>
      </trkpt>
      <trkpt lat="46.85386" lon="0.43203">
        <ele>144</ele>
        <time>2019-02-17T09:58:58.098Z</time>
      </trkpt>
      <trkpt lat="46.85389" lon="0.43197">
        <ele>144</ele>
        <time>2019-02-17T09:58:59.098Z</time>
      </trkpt>
      <trkpt lat="46.85392" lon="0.43191">
        <ele>145</ele>
        <time>2019-02-17T09:59:00.098Z</time>
      </trkpt>
      <trkpt lat="46.85395" lon="0.43186">
        <ele>145</ele>
        <time>2019-02-17T09:59:01.098Z</time>
      </trkpt>
      <trkpt lat="46.85397" lon="0.43181">
        <ele>144</ele>
        <time>2019-02-17T09:59:02.098Z</time>
      </trkpt>
      <trkpt lat="46.85399" lon="0.43176">
        <ele>143</ele>
        <time>2019-02-17T09:59:03.098Z</time>
      </trkpt>
      <trkpt lat="46.854" lon="0.4317">
        <ele>142</ele>
        <time>2019-02-17T09:59:04.098Z</time>
      </trkpt>
      <trkpt lat="46.85403" lon="0.43165">
        <ele>142</ele>
        <time>2019-02-17T09:59:05.098Z</time>
      </trkpt>
      <trkpt lat="46.85406" lon="0.43159">
        <ele>142</ele>
        <time>2019-02-17T09:59:06.098Z</time>
      </trkpt>
      <trkpt lat="46.85409" lon="0.43154">
        <ele>140</ele>
        <time>2019-02-17T09:59:07.098Z</time>
      </trkpt>
      <trkpt lat="46.85412" lon="0.43148">
        <ele>138</ele>
        <time>2019-02-17T09:59:08.098Z</time>
      </trkpt>
      <trkpt lat="46.85415" lon="0.43142">
        <ele>135</ele>
        <time>2019-02-17T09:59:09.098Z</time>
      </trkpt>
      <trkpt lat="46.85417" lon="0.43136">
        <ele>134</ele>
        <time>2019-02-17T09:59:10.098Z</time>
      </trkpt>
      <trkpt lat="46.85419" lon="0.43131">
        <ele>133</ele>
        <time>2019-02-17T09:59:11.098Z</time>
      </trkpt>
      <trkpt lat="46.85422" lon="0.43126">
        <ele>132</ele>
        <time>2019-02-17T09:59:12.098Z</time>
      </trkpt>
      <trkpt lat="46.85424" lon="0.43121">
        <ele>131</ele>
        <time>2019-02-17T09:59:13.098Z</time>
      </trkpt>
      <trkpt lat="46.85426" lon="0.43115">
        <ele>130</ele>
        <time>2019-02-17T09:59:14.098Z</time>
      </trkpt>
      <trkpt lat="46.85429" lon="0.43111">
        <ele>131</ele>
        <time>2019-02-17T09:59:15.098Z</time>
      </trkpt>
      <trkpt lat="46.85431" lon="0.43108">
        <ele>132</ele>
        <time>2019-02-17T09:59:16.098Z</time>
      </trkpt>
      <trkpt lat="46.85434" lon="0.43105">
        <ele>131</ele>
        <time>2019-02-17T09:59:17.098Z</time>
      </trkpt>
      <trkpt lat="46.85438" lon="0.43102">
        <ele>132</ele>
        <time>2019-02-17T09:59:18.098Z</time>
      </trkpt>
      <trkpt lat="46.85442" lon="0.431">
        <ele>132</ele>
        <time>2019-02-17T09:59:19.098Z</time>
      </trkpt>
      <trkpt lat="46.85447" lon="0.43097">
        <ele>133</ele>
        <time>2019-02-17T09:59:20.098Z</time>
      </trkpt>
      <trkpt lat="46.85452" lon="0.43094">
        <ele>132</ele>
        <time>2019-02-17T09:59:21.098Z</time>
      </trkpt>
      <trkpt lat="46.85456" lon="0.43092">
        <ele>132</ele>
        <time>2019-02-17T09:59:22.098Z</time>
      </trkpt>
      <trkpt lat="46.85461" lon="0.4309">
        <ele>132</ele>
        <time>2019-02-17T09:59:23.098Z</time>
      </trkpt>
      <trkpt lat="46.85466" lon="0.43088">
        <ele>132</ele>
        <time>2019-02-17T09:59:24.098Z</time>
      </trkpt>
      <trkpt lat="46.85471" lon="0.43086">
        <ele>131</ele>
        <time>2019-02-17T09:59:25.098Z</time>
      </trkpt>
      <trkpt lat="46.85477" lon="0.43083">
        <ele>131</ele>
        <time>2019-02-17T09:59:26.098Z</time>
      </trkpt>
      <trkpt lat="46.85483" lon="0.43081">
        <ele>131</ele>
        <time>2019-02-17T09:59:27.098Z</time>
      </trkpt>
      <trkpt lat="46.85489" lon="0.43079">
        <ele>131</ele>
        <time>2019-02-17T09:59:28.098Z</time>
      </trkpt>
      <trkpt lat="46.85495" lon="0.43077">
        <ele>130</ele>
        <time>2019-02-17T09:59:29.098Z</time>
      </trkpt>
      <trkpt lat="46.85501" lon="0.43074">
        <ele>130</ele>
        <time>2019-02-17T09:59:30.098Z</time>
      </trkpt>
      <trkpt lat="46.85507" lon="0.43072">
        <ele>130</ele>
        <time>2019-02-17T09:59:31.098Z</time>
      </trkpt>
      <trkpt lat="46.85512" lon="0.4307">
        <ele>129</ele>
        <time>2019-02-17T09:59:32.098Z</time>
      </trkpt>
      <trkpt lat="46.85518" lon="0.43068">
        <ele>129</ele>
        <time>2019-02-17T09:59:33.098Z</time>
      </trkpt>
      <trkpt lat="46.85523" lon="0.43066">
        <ele>128</ele>
        <time>2019-02-17T09:59:34.098Z</time>
      </trkpt>
      <trkpt lat="46.85529" lon="0.43063">
        <ele>129</ele>
        <time>2019-02-17T09:59:35.098Z</time>
      </trkpt>
      <trkpt lat="46.85534" lon="0.43062">
        <ele>129</ele>
        <time>2019-02-17T09:59:36.098Z</time>
      </trkpt>
      <trkpt lat="46.85539" lon="0.4306">
        <ele>128</ele>
        <time>2019-02-17T09:59:37.098Z</time>
      </trkpt>
      <trkpt lat="46.85543" lon="0.43058">
        <ele>128</ele>
        <time>2019-02-17T09:59:38.098Z</time>
      </trkpt>
      <trkpt lat="46.85546" lon="0.43055">
        <ele>128</ele>
        <time>2019-02-17T09:59:39.098Z</time>
      </trkpt>
      <trkpt lat="46.85548" lon="0.43052">
        <ele>129</ele>
        <time>2019-02-17T09:59:40.098Z</time>
      </trkpt>
      <trkpt lat="46.85549" lon="0.43048">
        <ele>128</ele>
        <time>2019-02-17T09:59:41.098Z</time>
      </trkpt>
      <trkpt lat="46.85549" lon="0.43043">
        <ele>128</ele>
        <time>2019-02-17T09:59:42.098Z</time>
      </trkpt>
      <trkpt lat="46.85548" lon="0.43037">
        <ele>127</ele>
        <time>2019-02-17T09:59:43.098Z</time>
      </trkpt>
      <trkpt lat="46.85546" lon="0.43031">
        <ele>126</ele>
        <time>2019-02-17T09:59:44.098Z</time>
      </trkpt>
      <trkpt lat="46.85544" lon="0.43024">
        <ele>126</ele>
        <time>2019-02-17T09:59:45.098Z</time>
      </trkpt>
      <trkpt lat="46.85542" lon="0.43018">
        <ele>125</ele>
        <time>2019-02-17T09:59:46.098Z</time>
      </trkpt>
      <trkpt lat="46.8554" lon="0.43011">
        <ele>125</ele>
        <time>2019-02-17T09:59:47.098Z</time>
      </trkpt>
      <trkpt lat="46.85539" lon="0.43005">
        <ele>125</ele>
        <time>2019-02-17T09:59:48.098Z</time>
      </trkpt>
      <trkpt lat="46.85537" lon="0.42999">
        <ele>125</ele>
        <time>2019-02-17T09:59:49.098Z</time>
      </trkpt>
      <trkpt lat="46.85535" lon="0.42993">
        <ele>124</ele>
        <time>2019-02-17T09:59:50.098Z</time>
      </trkpt>
      <trkpt lat="46.85534" lon="0.42988">
        <ele>125</ele>
        <time>2019-02-17T09:59:51.098Z</time>
      </trkpt>
      <trkpt lat="46.85533" lon="0.42982">
        <ele>125</ele>
        <time>2019-02-17T09:59:52.098Z</time>
      </trkpt>
      <trkpt lat="46.85531" lon="0.42977">
        <ele>124</ele>
        <time>2019-02-17T09:59:53.098Z</time>
      </trkpt>
      <trkpt lat="46.8553" lon="0.42972">
        <ele>124</ele>
        <time>2019-02-17T09:59:54.098Z</time>
      </trkpt>
      <trkpt lat="46.85528" lon="0.42966">
        <ele>125</ele>
        <time>2019-02-17T09:59:55.098Z</time>
      </trkpt>
      <trkpt lat="46.85527" lon="0.4296">
        <ele>124</ele>
        <time>2019-02-17T09:59:56.098Z</time>
      </trkpt>
      <trkpt lat="46.85525" lon="0.42954">
        <ele>124</ele>
        <time>2019-02-17T09:59:57.098Z</time>
      </trkpt>
      <trkpt lat="46.85523" lon="0.42949">
        <ele>125</ele>
        <time>2019-02-17T09:59:58.098Z</time>
      </trkpt>
      <trkpt lat="46.85521" lon="0.42943">
        <ele>125</ele>
        <time>2019-02-17T09:59:59.098Z</time>
      </trkpt>
      <trkpt lat="46.8552" lon="0.42937">
        <ele>125</ele>
        <time>2019-02-17T10:00:00.098Z</time>
      </trkpt>
      <trkpt lat="46.85518" lon="0.42931">
        <ele>125</ele>
        <time>2019-02-17T10:00:01.098Z</time>
      </trkpt>
      <trkpt lat="46.85516" lon="0.42925">
        <ele>125</ele>
        <time>2019-02-17T10:00:02.098Z</time>
      </trkpt>
      <trkpt lat="46.85514" lon="0.42919">
        <ele>126</ele>
        <time>2019-02-17T10:00:03.098Z</time>
      </trkpt>
      <trkpt lat="46.85513" lon="0.42913">
        <ele>127</ele>
        <time>2019-02-17T10:00:04.098Z</time>
      </trkpt>
      <trkpt lat="46.85512" lon="0.42908">
        <ele>127</ele>
        <time>2019-02-17T10:00:05.098Z</time>
      </trkpt>
      <trkpt lat="46.8551" lon="0.42902">
        <ele>128</ele>
        <time>2019-02-17T10:00:06.098Z</time>
      </trkpt>
      <trkpt lat="46.85509" lon="0.42897">
        <ele>128</ele>
        <time>2019-02-17T10:00:07.098Z</time>
      </trkpt>
      <trkpt lat="46.85507" lon="0.42892">
        <ele>128</ele>
        <time>2019-02-17T10:00:08.098Z</time>
      </trkpt>
      <trkpt lat="46.85506" lon="0.42887">
        <ele>128</ele>
        <time>2019-02-17T10:00:09.098Z</time>
      </trkpt>
      <trkpt lat="46.85504" lon="0.42882">
        <ele>129</ele>
        <time>2019-02-17T10:00:10.098Z</time>
      </trkpt>
      <trkpt lat="46.85503" lon="0.42878">
        <ele>129</ele>
        <time>2019-02-17T10:00:11.098Z</time>
      </trkpt>
      <trkpt lat="46.85501" lon="0.42873">
        <ele>129</ele>
        <time>2019-02-17T10:00:12.098Z</time>
      </trkpt>
      <trkpt lat="46.855" lon="0.42869">
        <ele>129</ele>
        <time>2019-02-17T10:00:13.098Z</time>
      </trkpt>
      <trkpt lat="46.85499" lon="0.42864">
        <ele>130</ele>
        <time>2019-02-17T10:00:14.098Z</time>
      </trkpt>
      <trkpt lat="46.85497" lon="0.4286">
        <ele>130</ele>
        <time>2019-02-17T10:00:15.098Z</time>
      </trkpt>
      <trkpt lat="46.85496" lon="0.42855">
        <ele>130</ele>
        <time>2019-02-17T10:00:16.098Z</time>
      </trkpt>
      <trkpt lat="46.85495" lon="0.42851">
        <ele>130</ele>
        <time>2019-02-17T10:00:17.098Z</time>
      </trkpt>
      <trkpt lat="46.85494" lon="0.42847">
        <ele>131</ele>
        <time>2019-02-17T10:00:18.098Z</time>
      </trkpt>
      <trkpt lat="46.85492" lon="0.42842">
        <ele>131</ele>
        <time>2019-02-17T10:00:19.098Z</time>
      </trkpt>
      <trkpt lat="46.85491" lon="0.42838">
        <ele>132</ele>
        <time>2019-02-17T10:00:20.098Z</time>
      </trkpt>
      <trkpt lat="46.8549" lon="0.42834">
        <ele>132</ele>
        <time>2019-02-17T10:00:21.098Z</time>
      </trkpt>
      <trkpt lat="46.85489" lon="0.4283">
        <ele>132</ele>
        <time>2019-02-17T10:00:22.098Z</time>
      </trkpt>
      <trkpt lat="46.85488" lon="0.42826">
        <ele>132</ele>
        <time>2019-02-17T10:00:23.098Z</time>
      </trkpt>
      <trkpt lat="46.85487" lon="0.42822">
        <ele>132</ele>
        <time>2019-02-17T10:00:24.098Z</time>
      </trkpt>
      <trkpt lat="46.85486" lon="0.42819">
        <ele>133</ele>
        <time>2019-02-17T10:00:25.098Z</time>
      </trkpt>
      <trkpt lat="46.85484" lon="0.42815">
        <ele>133</ele>
        <time>2019-02-17T10:00:26.098Z</time>
      </trkpt>
      <trkpt lat="46.85483" lon="0.42811">
        <ele>133</ele>
        <time>2019-02-17T10:00:27.098Z</time>
      </trkpt>
      <trkpt lat="46.85482" lon="0.42807">
        <ele>133</ele>
        <time>2019-02-17T10:00:28.098Z</time>
      </trkpt>
      <trkpt lat="46.85481" lon="0.42803">
        <ele>134</ele>
        <time>2019-02-17T10:00:29.098Z</time>
      </trkpt>
      <trkpt lat="46.8548" lon="0.42799">
        <ele>134</ele>
        <time>2019-02-17T10:00:30.098Z</time>
      </trkpt>
      <trkpt lat="46.85479" lon="0.42796">
        <ele>134</ele>
        <time>2019-02-17T10:00:31.098Z</time>
      </trkpt>
      <trkpt lat="46.85478" lon="0.42792">
        <ele>134</ele>
        <time>2019-02-17T10:00:32.098Z</time>
      </trkpt>
      <trkpt lat="46.85477" lon="0.42789">
        <ele>135</ele>
        <time>2019-02-17T10:00:33.098Z</time>
      </trkpt>
      <trkpt lat="46.85476" lon="0.42785">
        <ele>135</ele>
        <time>2019-02-17T10:00:34.098Z</time>
      </trkpt>
      <trkpt lat="46.85475" lon="0.42782">
        <ele>135</ele>
        <time>2019-02-17T10:00:35.098Z</time>
      </trkpt>
      <trkpt lat="46.85474" lon="0.42778">
        <ele>136</ele>
        <time>2019-02-17T10:00:36.098Z</time>
      </trkpt>
      <trkpt lat="46.85473" lon="0.42775">
        <ele>136</ele>
        <time>2019-02-17T10:00:37.098Z</time>
      </trkpt>
      <trkpt lat="46.85472" lon="0.42771">
        <ele>136</ele>
        <time>2019-02-17T10:00:38.098Z</time>
      </trkpt>
      <trkpt lat="46.8547" lon="0.42768">
        <ele>136</ele>
        <time>2019-02-17T10:00:39.098Z</time>
      </trkpt>
      <trkpt lat="46.85469" lon="0.42765">
        <ele>136</ele>
        <time>2019-02-17T10:00:40.098Z</time>
      </trkpt>
      <trkpt lat="46.85468" lon="0.42761">
        <ele>136</ele>
        <time>2019-02-17T10:00:41.098Z</time>
      </trkpt>
      <trkpt lat="46.85467" lon="0.42758">
        <ele>136</ele>
        <time>2019-02-17T10:00:42.098Z</time>
      </trkpt>
      <trkpt lat="46.85466" lon="0.42755">
        <ele>136</ele>
        <time>2019-02-17T10:00:43.098Z</time>
      </trkpt>
      <trkpt lat="46.85465" lon="0.42751">
        <ele>137</ele>
        <time>2019-02-17T10:00:44.098Z</time>
      </trkpt>
      <trkpt lat="46.85464" lon="0.42748">
        <ele>137</ele>
        <time>2019-02-17T10:00:45.098Z</time>
      </trkpt>
      <trkpt lat="46.85463" lon="0.42745">
        <ele>137</ele>
        <time>2019-02-17T10:00:46.098Z</time>
      </trkpt>
      <trkpt lat="46.85462" lon="0.42741">
        <ele>137</ele>
        <time>2019-02-17T10:00:47.098Z</time>
      </trkpt>
      <trkpt lat="46.85461" lon="0.42738">
        <ele>137</ele>
        <time>2019-02-17T10:00:48.098Z</time>
      </trkpt>
      <trkpt lat="46.8546" lon="0.42734">
        <ele>138</ele>
        <time>2019-02-17T10:00:49.098Z</time>
      </trkpt>
      <trkpt lat="46.85459" lon="0.42731">
        <ele>138</ele>
        <time>2019-02-17T10:00:50.098Z</time>
      </trkpt>
      <trkpt lat="46.85458" lon="0.42727">
        <ele>138</ele>
        <time>2019-02-17T10:00:51.098Z</time>
      </trkpt>
      <trkpt lat="46.85457" lon="0.42723">
        <ele>138</ele>
        <time>2019-02-17T10:00:52.098Z</time>
      </trkpt>
      <trkpt lat="46.85456" lon="0.4272">
        <ele>138</ele>
        <time>2019-02-17T10:00:53.098Z</time>
      </trkpt>
      <trkpt lat="46.85455" lon="0.42716">
        <ele>139</ele>
        <time>2019-02-17T10:00:54.098Z</time>
      </trkpt>
      <trkpt lat="46.85454" lon="0.42712">
        <ele>139</ele>
        <time>2019-02-17T10:00:55.098Z</time>
      </trkpt>
      <trkpt lat="46.85452" lon="0.42709">
        <ele>139</ele>
        <time>2019-02-17T10:00:56.098Z</time>
      </trkpt>
      <trkpt lat="46.85451" lon="0.42705">
        <ele>139</ele>
        <time>2019-02-17T10:00:57.098Z</time>
      </trkpt>
      <trkpt lat="46.8545" lon="0.42701">
        <ele>139</ele>
        <time>2019-02-17T10:00:58.098Z</time>
      </trkpt>
      <trkpt lat="46.85449" lon="0.42697">
        <ele>139</ele>
        <time>2019-02-17T10:00:59.098Z</time>
      </trkpt>
      <trkpt lat="46.85448" lon="0.42694">
        <ele>139</ele>
        <time>2019-02-17T10:01:00.098Z</time>
      </trkpt>
      <trkpt lat="46.85447" lon="0.4269">
        <ele>139</ele>
        <time>2019-02-17T10:01:01.098Z</time>
      </trkpt>
      <trkpt lat="46.85446" lon="0.42686">
        <ele>139</ele>
        <time>2019-02-17T10:01:02.098Z</time>
      </trkpt>
      <trkpt lat="46.85445" lon="0.42682">
        <ele>139</ele>
        <time>2019-02-17T10:01:03.098Z</time>
      </trkpt>
      <trkpt lat="46.85444" lon="0.42678">
        <ele>138</ele>
        <time>2019-02-17T10:01:04.098Z</time>
      </trkpt>
      <trkpt lat="46.85443" lon="0.42673">
        <ele>138</ele>
        <time>2019-02-17T10:01:05.098Z</time>
      </trkpt>
      <trkpt lat="46.85442" lon="0.42669">
        <ele>138</ele>
        <time>2019-02-17T10:01:06.098Z</time>
      </trkpt>
      <trkpt lat="46.8544" lon="0.42664">
        <ele>138</ele>
        <time>2019-02-17T10:01:07.098Z</time>
      </trkpt>
      <trkpt lat="46.85439" lon="0.4266">
        <ele>138</ele>
        <time>2019-02-17T10:01:08.098Z</time>
      </trkpt>
      <trkpt lat="46.85438" lon="0.42655">
        <ele>137</ele>
        <time>2019-02-17T10:01:09.098Z</time>
      </trkpt>
      <trkpt lat="46.85436" lon="0.42651">
        <ele>137</ele>
        <time>2019-02-17T10:01:10.098Z</time>
      </trkpt>
      <trkpt lat="46.85435" lon="0.42646">
        <ele>137</ele>
        <time>2019-02-17T10:01:11.098Z</time>
      </trkpt>
      <trkpt lat="46.85434" lon="0.42642">
        <ele>136</ele>
        <time>2019-02-17T10:01:12.098Z</time>
      </trkpt>
      <trkpt lat="46.85432" lon="0.42637">
        <ele>136</ele>
        <time>2019-02-17T10:01:13.098Z</time>
      </trkpt>
      <trkpt lat="46.85431" lon="0.42633">
        <ele>135</ele>
        <time>2019-02-17T10:01:14.098Z</time>
      </trkpt>
      <trkpt lat="46.85429" lon="0.4263">
        <ele>134</ele>
        <time>2019-02-17T10:01:15.098Z</time>
      </trkpt>
      <trkpt lat="46.85427" lon="0.42628">
        <ele>133</ele>
        <time>2019-02-17T10:01:16.098Z</time>
      </trkpt>
      <trkpt lat="46.85425" lon="0.42626">
        <ele>133</ele>
        <time>2019-02-17T10:01:17.098Z</time>
      </trkpt>
      <trkpt lat="46.85423" lon="0.42624">
        <ele>132</ele>
        <time>2019-02-17T10:01:18.098Z</time>
      </trkpt>
      <trkpt lat="46.85421" lon="0.42624">
        <ele>131</ele>
        <time>2019-02-17T10:01:19.098Z</time>
      </trkpt>
      <trkpt lat="46.8542" lon="0.42624">
        <ele>129</ele>
        <time>2019-02-17T10:01:20.098Z</time>
      </trkpt>
      <trkpt lat="46.85418" lon="0.42626">
        <ele>128</ele>
        <time>2019-02-17T10:01:21.098Z</time>
      </trkpt>
      <trkpt lat="46.85416" lon="0.42627">
        <ele>127</ele>
        <time>2019-02-17T10:01:22.098Z</time>
      </trkpt>
      <trkpt lat="46.85414" lon="0.42627">
        <ele>126</ele>
        <time>2019-02-17T10:01:23.098Z</time>
      </trkpt>
      <trkpt lat="46.85413" lon="0.42628">
        <ele>125</ele>
        <time>2019-02-17T10:01:24.098Z</time>
      </trkpt>
      <trkpt lat="46.85411" lon="0.42628">
        <ele>123</ele>
        <time>2019-02-17T10:01:25.098Z</time>
      </trkpt>
      <trkpt lat="46.85409" lon="0.4263">
        <ele>123</ele>
        <time>2019-02-17T10:01:26.098Z</time>
      </trkpt>
      <trkpt lat="46.85407" lon="0.42631">
        <ele>122</ele>
        <time>2019-02-17T10:01:27.098Z</time>
      </trkpt>
      <trkpt lat="46.85405" lon="0.42632">
        <ele>122</ele>
        <time>2019-02-17T10:01:28.098Z</time>
      </trkpt>
      <trkpt lat="46.85403" lon="0.42633">
        <ele>121</ele>
        <time>2019-02-17T10:01:29.098Z</time>
      </trkpt>
      <trkpt lat="46.85401" lon="0.42634">
        <ele>121</ele>
        <time>2019-02-17T10:01:30.098Z</time>
      </trkpt>
      <trkpt lat="46.85399" lon="0.42635">
        <ele>121</ele>
        <time>2019-02-17T10:01:31.098Z</time>
      </trkpt>
      <trkpt lat="46.85397" lon="0.42637">
        <ele>121</ele>
        <time>2019-02-17T10:01:32.098Z</time>
      </trkpt>
      <trkpt lat="46.85394" lon="0.42638">
        <ele>119</ele>
        <time>2019-02-17T10:01:33.098Z</time>
      </trkpt>
      <trkpt lat="46.85392" lon="0.42639">
        <ele>118</ele>
        <time>2019-02-17T10:01:34.098Z</time>
      </trkpt>
      <trkpt lat="46.85389" lon="0.4264">
        <ele>118</ele>
        <time>2019-02-17T10:01:35.098Z</time>
      </trkpt>
      <trkpt lat="46.85387" lon="0.42641">
        <ele>118</ele>
        <time>2019-02-17T10:01:36.098Z</time>
      </trkpt>
      <trkpt lat="46.85385" lon="0.42642">
        <ele>118</ele>
        <time>2019-02-17T10:01:37.098Z</time>
      </trkpt>
      <trkpt lat="46.85382" lon="0.42643">
        <ele>117</ele>
        <time>2019-02-17T10:01:38.098Z</time>
      </trkpt>
      <trkpt lat="46.8538" lon="0.42644">
        <ele>117</ele>
        <time>2019-02-17T10:01:39.098Z</time>
      </trkpt>
      <trkpt lat="46.85378" lon="0.42645">
        <ele>117</ele>
        <time>2019-02-17T10:01:40.098Z</time>
      </trkpt>
      <trkpt lat="46.85376" lon="0.42646">
        <ele>117</ele>
        <time>2019-02-17T10:01:41.098Z</time>
      </trkpt>
      <trkpt lat="46.85374" lon="0.42647">
        <ele>118</ele>
        <time>2019-02-17T10:01:42.098Z</time>
      </trkpt>
      <trkpt lat="46.85371" lon="0.42648">
        <ele>120</ele>
        <time>2019-02-17T10:01:43.098Z</time>
      </trkpt>
      <trkpt lat="46.85369" lon="0.42649">
        <ele>120</ele>
        <time>2019-02-17T10:01:44.098Z</time>
      </trkpt>
      <trkpt lat="46.85367" lon="0.4265">
        <ele>121</ele>
        <time>2019-02-17T10:01:45.098Z</time>
      </trkpt>
      <trkpt lat="46.85365" lon="0.42651">
        <ele>121</ele>
        <time>2019-02-17T10:01:46.098Z</time>
      </trkpt>
      <trkpt lat="46.85362" lon="0.42652">
        <ele>121</ele>
        <time>2019-02-17T10:01:47.098Z</time>
      </trkpt>
      <trkpt lat="46.8536" lon="0.42652">
        <ele>121</ele>
        <time>2019-02-17T10:01:48.098Z</time>
      </trkpt>
      <trkpt lat="46.85358" lon="0.42653">
        <ele>121</ele>
        <time>2019-02-17T10:01:49.098Z</time>
      </trkpt>
      <trkpt lat="46.85355" lon="0.42654">
        <ele>121</ele>
        <time>2019-02-17T10:01:50.098Z</time>
      </trkpt>
      <trkpt lat="46.85353" lon="0.42655">
        <ele>122</ele>
        <time>2019-02-17T10:01:51.098Z</time>
      </trkpt>
      <trkpt lat="46.85351" lon="0.42656">
        <ele>123</ele>
        <time>2019-02-17T10:01:52.098Z</time>
      </trkpt>
      <trkpt lat="46.85349" lon="0.42658">
        <ele>123</ele>
        <time>2019-02-17T10:01:53.098Z</time>
      </trkpt>
      <trkpt lat="46.85347" lon="0.42659">
        <ele>123</ele>
        <time>2019-02-17T10:01:54.098Z</time>
      </trkpt>
      <trkpt lat="46.85345" lon="0.4266">
        <ele>123</ele>
        <time>2019-02-17T10:01:55.098Z</time>
      </trkpt>
      <trkpt lat="46.85343" lon="0.42661">
        <ele>123</ele>
        <time>2019-02-17T10:01:56.098Z</time>
      </trkpt>
      <trkpt lat="46.85341" lon="0.42661">
        <ele>123</ele>
        <time>2019-02-17T10:01:57.098Z</time>
      </trkpt>
      <trkpt lat="46.85338" lon="0.42662">
        <ele>123</ele>
        <time>2019-02-17T10:01:58.098Z</time>
      </trkpt>
      <trkpt lat="46.85336" lon="0.42664">
        <ele>123</ele>
        <time>2019-02-17T10:01:59.098Z</time>
      </trkpt>
      <trkpt lat="46.85334" lon="0.42665">
        <ele>124</ele>
        <time>2019-02-17T10:02:00.098Z</time>
      </trkpt>
      <trkpt lat="46.85332" lon="0.42667">
        <ele>126</ele>
        <time>2019-02-17T10:02:01.098Z</time>
      </trkpt>
      <trkpt lat="46.8533" lon="0.42668">
        <ele>126</ele>
        <time>2019-02-17T10:02:02.098Z</time>
      </trkpt>
      <trkpt lat="46.85328" lon="0.42669">
        <ele>126</ele>
        <time>2019-02-17T10:02:03.098Z</time>
      </trkpt>
      <trkpt lat="46.85326" lon="0.4267">
        <ele>127</ele>
        <time>2019-02-17T10:02:04.098Z</time>
      </trkpt>
      <trkpt lat="46.85324" lon="0.42672">
        <ele>127</ele>
        <time>2019-02-17T10:02:05.098Z</time>
      </trkpt>
      <trkpt lat="46.85322" lon="0.42673">
        <ele>128</ele>
        <time>2019-02-17T10:02:06.098Z</time>
      </trkpt>
      <trkpt lat="46.8532" lon="0.42674">
        <ele>129</ele>
        <time>2019-02-17T10:02:07.098Z</time>
      </trkpt>
      <trkpt lat="46.85318" lon="0.42675">
        <ele>129</ele>
        <time>2019-02-17T10:02:08.098Z</time>
      </trkpt>
      <trkpt lat="46.85315" lon="0.42677">
        <ele>130</ele>
        <time>2019-02-17T10:02:09.098Z</time>
      </trkpt>
      <trkpt lat="46.85313" lon="0.42678">
        <ele>131</ele>
        <time>2019-02-17T10:02:10.098Z</time>
      </trkpt>
      <trkpt lat="46.85312" lon="0.42679">
        <ele>130</ele>
        <time>2019-02-17T10:02:11.098Z</time>
      </trkpt>
      <trkpt lat="46.85309" lon="0.42681">
        <ele>130</ele>
        <time>2019-02-17T10:02:12.098Z</time>
      </trkpt>
      <trkpt lat="46.85307" lon="0.42682">
        <ele>130</ele>
        <time>2019-02-17T10:02:13.098Z</time>
      </trkpt>
      <trkpt lat="46.85305" lon="0.42683">
        <ele>130</ele>
        <time>2019-02-17T10:02:14.098Z</time>
      </trkpt>
      <trkpt lat="46.85302" lon="0.42685">
        <ele>129</ele>
        <time>2019-02-17T10:02:15.098Z</time>
      </trkpt>
      <trkpt lat="46.853" lon="0.42686">
        <ele>129</ele>
        <time>2019-02-17T10:02:16.098Z</time>
      </trkpt>
      <trkpt lat="46.85298" lon="0.42689">
        <ele>129</ele>
        <time>2019-02-17T10:02:17.098Z</time>
      </trkpt>
      <trkpt lat="46.85296" lon="0.42691">
        <ele>129</ele>
        <time>2019-02-17T10:02:18.098Z</time>
      </trkpt>
      <trkpt lat="46.85293" lon="0.42694">
        <ele>128</ele>
        <time>2019-02-17T10:02:19.098Z</time>
      </trkpt>
      <trkpt lat="46.8529" lon="0.42696">
        <ele>128</ele>
        <time>2019-02-17T10:02:20.098Z</time>
      </trkpt>
      <trkpt lat="46.85287" lon="0.42699">
        <ele>127</ele>
        <time>2019-02-17T10:02:21.098Z</time>
      </trkpt>
      <trkpt lat="46.85284" lon="0.42701">
        <ele>128</ele>
        <time>2019-02-17T10:02:22.098Z</time>
      </trkpt>
      <trkpt lat="46.85282" lon="0.42703">
        <ele>127</ele>
        <time>2019-02-17T10:02:23.098Z</time>
      </trkpt>
      <trkpt lat="46.85279" lon="0.42706">
        <ele>127</ele>
        <time>2019-02-17T10:02:24.098Z</time>
      </trkpt>
      <trkpt lat="46.85277" lon="0.42708">
        <ele>127</ele>
        <time>2019-02-17T10:02:25.098Z</time>
      </trkpt>
      <trkpt lat="46.85274" lon="0.42711">
        <ele>126</ele>
        <time>2019-02-17T10:02:26.098Z</time>
      </trkpt>
      <trkpt lat="46.85272" lon="0.42713">
        <ele>126</ele>
        <time>2019-02-17T10:02:27.098Z</time>
      </trkpt>
      <trkpt lat="46.85269" lon="0.42716">
        <ele>126</ele>
        <time>2019-02-17T10:02:28.098Z</time>
      </trkpt>
      <trkpt lat="46.85267" lon="0.42718">
        <ele>127</ele>
        <time>2019-02-17T10:02:29.098Z</time>
      </trkpt>
      <trkpt lat="46.85264" lon="0.4272">
        <ele>127</ele>
        <time>2019-02-17T10:02:30.098Z</time>
      </trkpt>
      <trkpt lat="46.85262" lon="0.42723">
        <ele>127</ele>
        <time>2019-02-17T10:02:31.098Z</time>
      </trkpt>
      <trkpt lat="46.8526" lon="0.42725">
        <ele>126</ele>
        <time>2019-02-17T10:02:32.098Z</time>
      </trkpt>
      <trkpt lat="46.85257" lon="0.42728">
        <ele>125</ele>
        <time>2019-02-17T10:02:33.098Z</time>
      </trkpt>
      <trkpt lat="46.85255" lon="0.4273">
        <ele>126</ele>
        <time>2019-02-17T10:02:34.098Z</time>
      </trkpt>
      <trkpt lat="46.85253" lon="0.42733">
        <ele>126</ele>
        <time>2019-02-17T10:02:35.098Z</time>
      </trkpt>
      <trkpt lat="46.85251" lon="0.42735">
        <ele>126</ele>
        <time>2019-02-17T10:02:36.098Z</time>
      </trkpt>
      <trkpt lat="46.8525" lon="0.42737">
        <ele>127</ele>
        <time>2019-02-17T10:02:37.098Z</time>
      </trkpt>
      <trkpt lat="46.85248" lon="0.42739">
        <ele>126</ele>
        <time>2019-02-17T10:02:38.098Z</time>
      </trkpt>
      <trkpt lat="46.85246" lon="0.42741">
        <ele>126</ele>
        <time>2019-02-17T10:02:39.098Z</time>
      </trkpt>
      <trkpt lat="46.85244" lon="0.42744">
        <ele>126</ele>
        <time>2019-02-17T10:02:40.098Z</time>
      </trkpt>
      <trkpt lat="46.85241" lon="0.42746">
        <ele>127</ele>
        <time>2019-02-17T10:02:41.098Z</time>
      </trkpt>
      <trkpt lat="46.85239" lon="0.42749">
        <ele>128</ele>
        <time>2019-02-17T10:02:42.098Z</time>
      </trkpt>
      <trkpt lat="46.85237" lon="0.42752">
        <ele>128</ele>
        <time>2019-02-17T10:02:43.098Z</time>
      </trkpt>
      <trkpt lat="46.85235" lon="0.42754">
        <ele>128</ele>
        <time>2019-02-17T10:02:44.098Z</time>
      </trkpt>
      <trkpt lat="46.85233" lon="0.42757">
        <ele>128</ele>
        <time>2019-02-17T10:02:45.098Z</time>
      </trkpt>
      <trkpt lat="46.85231" lon="0.42759">
        <ele>129</ele>
        <time>2019-02-17T10:02:46.098Z</time>
      </trkpt>
      <trkpt lat="46.85229" lon="0.42761">
        <ele>129</ele>
        <time>2019-02-17T10:02:47.098Z</time>
      </trkpt>
      <trkpt lat="46.85227" lon="0.42763">
        <ele>129</ele>
        <time>2019-02-17T10:02:48.098Z</time>
      </trkpt>
      <trkpt lat="46.85224" lon="0.42765">
        <ele>129</ele>
        <time>2019-02-17T10:02:49.098Z</time>
      </trkpt>
      <trkpt lat="46.85222" lon="0.42768">
        <ele>129</ele>
        <time>2019-02-17T10:02:50.098Z</time>
      </trkpt>
      <trkpt lat="46.8522" lon="0.4277">
        <ele>129</ele>
        <time>2019-02-17T10:02:51.098Z</time>
      </trkpt>
      <trkpt lat="46.85217" lon="0.42773">
        <ele>129</ele>
        <time>2019-02-17T10:02:52.098Z</time>
      </trkpt>
      <trkpt lat="46.85215" lon="0.42775">
        <ele>129</ele>
        <time>2019-02-17T10:02:53.098Z</time>
      </trkpt>
      <trkpt lat="46.85213" lon="0.42778">
        <ele>129</ele>
        <time>2019-02-17T10:02:54.098Z</time>
      </trkpt>
      <trkpt lat="46.85211" lon="0.42779">
        <ele>128</ele>
        <time>2019-02-17T10:02:55.098Z</time>
      </trkpt>
      <trkpt lat="46.85209" lon="0.42781">
        <ele>128</ele>
        <time>2019-02-17T10:02:56.098Z</time>
      </trkpt>
      <trkpt lat="46.85207" lon="0.42783">
        <ele>128</ele>
        <time>2019-02-17T10:02:57.098Z</time>
      </trkpt>
      <trkpt lat="46.85205" lon="0.42785">
        <ele>128</ele>
        <time>2019-02-17T10:02:58.098Z</time>
      </trkpt>
      <trkpt lat="46.85202" lon="0.42788">
        <ele>128</ele>
        <time>2019-02-17T10:02:59.098Z</time>
      </trkpt>
      <trkpt lat="46.852" lon="0.4279">
        <ele>128</ele>
        <time>2019-02-17T10:03:00.098Z</time>
      </trkpt>
      <trkpt lat="46.85198" lon="0.42793">
        <ele>128</ele>
        <time>2019-02-17T10:03:01.098Z</time>
      </trkpt>
      <trkpt lat="46.85195" lon="0.42795">
        <ele>129</ele>
        <time>2019-02-17T10:03:02.098Z</time>
      </trkpt>
      <trkpt lat="46.85192" lon="0.42797">
        <ele>129</ele>
        <time>2019-02-17T10:03:03.098Z</time>
      </trkpt>
      <trkpt lat="46.8519" lon="0.428">
        <ele>129</ele>
        <time>2019-02-17T10:03:04.098Z</time>
      </trkpt>
      <trkpt lat="46.85187" lon="0.42802">
        <ele>128</ele>
        <time>2019-02-17T10:03:05.098Z</time>
      </trkpt>
      <trkpt lat="46.85184" lon="0.42805">
        <ele>128</ele>
        <time>2019-02-17T10:03:06.098Z</time>
      </trkpt>
      <trkpt lat="46.85182" lon="0.42808">
        <ele>128</ele>
        <time>2019-02-17T10:03:07.098Z</time>
      </trkpt>
      <trkpt lat="46.8518" lon="0.42811">
        <ele>129</ele>
        <time>2019-02-17T10:03:08.098Z</time>
      </trkpt>
      <trkpt lat="46.85178" lon="0.42813">
        <ele>130</ele>
        <time>2019-02-17T10:03:09.098Z</time>
      </trkpt>
      <trkpt lat="46.85175" lon="0.42817">
        <ele>130</ele>
        <time>2019-02-17T10:03:10.098Z</time>
      </trkpt>
      <trkpt lat="46.85173" lon="0.4282">
        <ele>130</ele>
        <time>2019-02-17T10:03:11.098Z</time>
      </trkpt>
      <trkpt lat="46.85171" lon="0.42823">
        <ele>130</ele>
        <time>2019-02-17T10:03:12.098Z</time>
      </trkpt>
      <trkpt lat="46.85169" lon="0.42826">
        <ele>131</ele>
        <time>2019-02-17T10:03:13.098Z</time>
      </trkpt>
      <trkpt lat="46.85167" lon="0.4283">
        <ele>133</ele>
        <time>2019-02-17T10:03:14.098Z</time>
      </trkpt>
      <trkpt lat="46.85165" lon="0.42833">
        <ele>134</ele>
        <time>2019-02-17T10:03:15.098Z</time>
      </trkpt>
      <trkpt lat="46.85163" lon="0.42837">
        <ele>134</ele>
        <time>2019-02-17T10:03:16.098Z</time>
      </trkpt>
      <trkpt lat="46.85161" lon="0.42841">
        <ele>135</ele>
        <time>2019-02-17T10:03:17.098Z</time>
      </trkpt>
      <trkpt lat="46.85158" lon="0.42845">
        <ele>136</ele>
        <time>2019-02-17T10:03:18.098Z</time>
      </trkpt>
      <trkpt lat="46.85156" lon="0.42848">
        <ele>137</ele>
        <time>2019-02-17T10:03:19.098Z</time>
      </trkpt>
      <trkpt lat="46.85153" lon="0.42852">
        <ele>137</ele>
        <time>2019-02-17T10:03:20.098Z</time>
      </trkpt>
      <trkpt lat="46.85151" lon="0.42856">
        <ele>137</ele>
        <time>2019-02-17T10:03:21.098Z</time>
      </trkpt>
      <trkpt lat="46.85149" lon="0.42859">
        <ele>137</ele>
        <time>2019-02-17T10:03:22.098Z</time>
      </trkpt>
      <trkpt lat="46.85146" lon="0.42863">
        <ele>136</ele>
        <time>2019-02-17T10:03:23.098Z</time>
      </trkpt>
      <trkpt lat="46.85144" lon="0.42866">
        <ele>136</ele>
        <time>2019-02-17T10:03:24.098Z</time>
      </trkpt>
      <trkpt lat="46.85142" lon="0.42869">
        <ele>136</ele>
        <time>2019-02-17T10:03:25.098Z</time>
      </trkpt>
      <trkpt lat="46.85139" lon="0.42871">
        <ele>137</ele>
        <time>2019-02-17T10:03:26.098Z</time>
      </trkpt>
      <trkpt lat="46.85137" lon="0.42875">
        <ele>137</ele>
        <time>2019-02-17T10:03:27.098Z</time>
      </trkpt>
      <trkpt lat="46.85134" lon="0.42878">
        <ele>137</ele>
        <time>2019-02-17T10:03:28.098Z</time>
      </trkpt>
      <trkpt lat="46.85132" lon="0.42881">
        <ele>137</ele>
        <time>2019-02-17T10:03:29.098Z</time>
      </trkpt>
      <trkpt lat="46.8513" lon="0.42885">
        <ele>137</ele>
        <time>2019-02-17T10:03:30.098Z</time>
      </trkpt>
      <trkpt lat="46.85128" lon="0.42889">
        <ele>136</ele>
        <time>2019-02-17T10:03:31.098Z</time>
      </trkpt>
      <trkpt lat="46.85125" lon="0.42893">
        <ele>135</ele>
        <time>2019-02-17T10:03:32.098Z</time>
      </trkpt>
      <trkpt lat="46.85123" lon="0.42896">
        <ele>135</ele>
        <time>2019-02-17T10:03:33.098Z</time>
      </trkpt>
      <trkpt lat="46.8512" lon="0.429">
        <ele>135</ele>
        <time>2019-02-17T10:03:34.098Z</time>
      </trkpt>
      <trkpt lat="46.85118" lon="0.42904">
        <ele>134</ele>
        <time>2019-02-17T10:03:35.098Z</time>
      </trkpt>
      <trkpt lat="46.85116" lon="0.42907">
        <ele>133</ele>
        <time>2019-02-17T10:03:36.098Z</time>
      </trkpt>
      <trkpt lat="46.85114" lon="0.42911">
        <ele>133</ele>
        <time>2019-02-17T10:03:37.098Z</time>
      </trkpt>
      <trkpt lat="46.85112" lon="0.42915">
        <ele>133</ele>
        <time>2019-02-17T10:03:38.098Z</time>
      </trkpt>
      <trkpt lat="46.85109" lon="0.42919">
        <ele>133</ele>
        <time>2019-02-17T10:03:39.098Z</time>
      </trkpt>
      <trkpt lat="46.85107" lon="0.42922">
        <ele>132</ele>
        <time>2019-02-17T10:03:40.098Z</time>
      </trkpt>
      <trkpt lat="46.85104" lon="0.42926">
        <ele>131</ele>
        <time>2019-02-17T10:03:41.098Z</time>
      </trkpt>
      <trkpt lat="46.85102" lon="0.42929">
        <ele>131</ele>
        <time>2019-02-17T10:03:42.098Z</time>
      </trkpt>
      <trkpt lat="46.85099" lon="0.42933">
        <ele>131</ele>
        <time>2019-02-17T10:03:43.098Z</time>
      </trkpt>
      <trkpt lat="46.85096" lon="0.42936">
        <ele>131</ele>
        <time>2019-02-17T10:03:44.098Z</time>
      </trkpt>
      <trkpt lat="46.85094" lon="0.4294">
        <ele>131</ele>
        <time>2019-02-17T10:03:45.098Z</time>
      </trkpt>
      <trkpt lat="46.85091" lon="0.42944">
        <ele>131</ele>
        <time>2019-02-17T10:03:46.098Z</time>
      </trkpt>
      <trkpt lat="46.85088" lon="0.42947">
        <ele>130</ele>
        <time>2019-02-17T10:03:47.098Z</time>
      </trkpt>
      <trkpt lat="46.85086" lon="0.42951">
        <ele>130</ele>
        <time>2019-02-17T10:03:48.098Z</time>
      </trkpt>
      <trkpt lat="46.85083" lon="0.42954">
        <ele>130</ele>
        <time>2019-02-17T10:03:49.098Z</time>
      </trkpt>
      <trkpt lat="46.85081" lon="0.42958">
        <ele>130</ele>
        <time>2019-02-17T10:03:50.098Z</time>
      </trkpt>
      <trkpt lat="46.85078" lon="0.42961">
        <ele>131</ele>
        <time>2019-02-17T10:03:51.098Z</time>
      </trkpt>
      <trkpt lat="46.85075" lon="0.42964">
        <ele>131</ele>
        <time>2019-02-17T10:03:52.098Z</time>
      </trkpt>
      <trkpt lat="46.85073" lon="0.42967">
        <ele>131</ele>
        <time>2019-02-17T10:03:53.098Z</time>
      </trkpt>
      <trkpt lat="46.8507" lon="0.4297">
        <ele>131</ele>
        <time>2019-02-17T10:03:54.098Z</time>
      </trkpt>
      <trkpt lat="46.85067" lon="0.42973">
        <ele>131</ele>
        <time>2019-02-17T10:03:55.098Z</time>
      </trkpt>
      <trkpt lat="46.85065" lon="0.42976">
        <ele>131</ele>
        <time>2019-02-17T10:03:56.098Z</time>
      </trkpt>
      <trkpt lat="46.85062" lon="0.42979">
        <ele>131</ele>
        <time>2019-02-17T10:03:57.098Z</time>
      </trkpt>
      <trkpt lat="46.8506" lon="0.42982">
        <ele>131</ele>
        <time>2019-02-17T10:03:58.098Z</time>
      </trkpt>
      <trkpt lat="46.85058" lon="0.42985">
        <ele>131</ele>
        <time>2019-02-17T10:03:59.098Z</time>
      </trkpt>
      <trkpt lat="46.85055" lon="0.42988">
        <ele>131</ele>
        <time>2019-02-17T10:04:00.098Z</time>
      </trkpt>
      <trkpt lat="46.85053" lon="0.42992">
        <ele>131</ele>
        <time>2019-02-17T10:04:01.098Z</time>
      </trkpt>
      <trkpt lat="46.8505" lon="0.42995">
        <ele>132</ele>
        <time>2019-02-17T10:04:02.098Z</time>
      </trkpt>
      <trkpt lat="46.85048" lon="0.42999">
        <ele>134</ele>
        <time>2019-02-17T10:04:03.098Z</time>
      </trkpt>
      <trkpt lat="46.85046" lon="0.43003">
        <ele>135</ele>
        <time>2019-02-17T10:04:04.098Z</time>
      </trkpt>
      <trkpt lat="46.85044" lon="0.43007">
        <ele>135</ele>
        <time>2019-02-17T10:04:05.098Z</time>
      </trkpt>
      <trkpt lat="46.85042" lon="0.43011">
        <ele>137</ele>
        <time>2019-02-17T10:04:06.098Z</time>
      </trkpt>
      <trkpt lat="46.85039" lon="0.43014">
        <ele>137</ele>
        <time>2019-02-17T10:04:07.098Z</time>
      </trkpt>
      <trkpt lat="46.85037" lon="0.43018">
        <ele>137</ele>
        <time>2019-02-17T10:04:08.098Z</time>
      </trkpt>
      <trkpt lat="46.85034" lon="0.43021">
        <ele>138</ele>
        <time>2019-02-17T10:04:09.098Z</time>
      </trkpt>
      <trkpt lat="46.85032" lon="0.43024">
        <ele>139</ele>
        <time>2019-02-17T10:04:10.098Z</time>
      </trkpt>
      <trkpt lat="46.8503" lon="0.43028">
        <ele>140</ele>
        <time>2019-02-17T10:04:11.098Z</time>
      </trkpt>
      <trkpt lat="46.85028" lon="0.43032">
        <ele>142</ele>
        <time>2019-02-17T10:04:12.098Z</time>
      </trkpt>
      <trkpt lat="46.85026" lon="0.43036">
        <ele>143</ele>
        <time>2019-02-17T10:04:13.098Z</time>
      </trkpt>
      <trkpt lat="46.85024" lon="0.4304">
        <ele>143</ele>
        <time>2019-02-17T10:04:14.098Z</time>
      </trkpt>
      <trkpt lat="46.85022" lon="0.43045">
        <ele>144</ele>
        <time>2019-02-17T10:04:15.098Z</time>
      </trkpt>
      <trkpt lat="46.85019" lon="0.43049">
        <ele>145</ele>
        <time>2019-02-17T10:04:16.098Z</time>
      </trkpt>
      <trkpt lat="46.85017" lon="0.43053">
        <ele>146</ele>
        <time>2019-02-17T10:04:17.098Z</time>
      </trkpt>
      <trkpt lat="46.85014" lon="0.43056">
        <ele>146</ele>
        <time>2019-02-17T10:04:18.098Z</time>
      </trkpt>
      <trkpt lat="46.85012" lon="0.4306">
        <ele>146</ele>
        <time>2019-02-17T10:04:19.098Z</time>
      </trkpt>
      <trkpt lat="46.85009" lon="0.43064">
        <ele>146</ele>
        <time>2019-02-17T10:04:20.098Z</time>
      </trkpt>
      <trkpt lat="46.85007" lon="0.43068">
        <ele>146</ele>
        <time>2019-02-17T10:04:21.098Z</time>
      </trkpt>
      <trkpt lat="46.85004" lon="0.43071">
        <ele>146</ele>
        <time>2019-02-17T10:04:22.098Z</time>
      </trkpt>
      <trkpt lat="46.85002" lon="0.43075">
        <ele>147</ele>
        <time>2019-02-17T10:04:23.098Z</time>
      </trkpt>
      <trkpt lat="46.84999" lon="0.43078">
        <ele>147</ele>
        <time>2019-02-17T10:04:24.098Z</time>
      </trkpt>
      <trkpt lat="46.84997" lon="0.43081">
        <ele>147</ele>
        <time>2019-02-17T10:04:25.098Z</time>
      </trkpt>
      <trkpt lat="46.84994" lon="0.43085">
        <ele>147</ele>
        <time>2019-02-17T10:04:26.098Z</time>
      </trkpt>
      <trkpt lat="46.84991" lon="0.43088">
        <ele>147</ele>
        <time>2019-02-17T10:04:27.098Z</time>
      </trkpt>
      <trkpt lat="46.84989" lon="0.43092">
        <ele>148</ele>
        <time>2019-02-17T10:04:28.098Z</time>
      </trkpt>
      <trkpt lat="46.84986" lon="0.43095">
        <ele>148</ele>
        <time>2019-02-17T10:04:29.098Z</time>
      </trkpt>
      <trkpt lat="46.84984" lon="0.43098">
        <ele>147</ele>
        <time>2019-02-17T10:04:30.098Z</time>
      </trkpt>
      <trkpt lat="46.84981" lon="0.43101">
        <ele>147</ele>
        <time>2019-02-17T10:04:31.098Z</time>
      </trkpt>
      <trkpt lat="46.84979" lon="0.43104">
        <ele>147</ele>
        <time>2019-02-17T10:04:32.098Z</time>
      </trkpt>
      <trkpt lat="46.84976" lon="0.43107">
        <ele>147</ele>
        <time>2019-02-17T10:04:33.098Z</time>
      </trkpt>
      <trkpt lat="46.84973" lon="0.4311">
        <ele>147</ele>
        <time>2019-02-17T10:04:34.098Z</time>
      </trkpt>
      <trkpt lat="46.8497" lon="0.43113">
        <ele>146</ele>
        <time>2019-02-17T10:04:35.098Z</time>
      </trkpt>
      <trkpt lat="46.84968" lon="0.43117">
        <ele>146</ele>
        <time>2019-02-17T10:04:36.098Z</time>
      </trkpt>
      <trkpt lat="46.84965" lon="0.4312">
        <ele>146</ele>
        <time>2019-02-17T10:04:37.098Z</time>
      </trkpt>
      <trkpt lat="46.84962" lon="0.43123">
        <ele>146</ele>
        <time>2019-02-17T10:04:38.098Z</time>
      </trkpt>
      <trkpt lat="46.8496" lon="0.43125">
        <ele>145</ele>
        <time>2019-02-17T10:04:39.098Z</time>
      </trkpt>
      <trkpt lat="46.84958" lon="0.43128">
        <ele>145</ele>
        <time>2019-02-17T10:04:40.098Z</time>
      </trkpt>
      <trkpt lat="46.84956" lon="0.43131">
        <ele>145</ele>
        <time>2019-02-17T10:04:41.098Z</time>
      </trkpt>
      <trkpt lat="46.84954" lon="0.43133">
        <ele>145</ele>
        <time>2019-02-17T10:04:42.098Z</time>
      </trkpt>
      <trkpt lat="46.84952" lon="0.43135">
        <ele>144</ele>
        <time>2019-02-17T10:04:43.098Z</time>
      </trkpt>
      <trkpt lat="46.8495" lon="0.43137">
        <ele>144</ele>
        <time>2019-02-17T10:04:44.098Z</time>
      </trkpt>
      <trkpt lat="46.84948" lon="0.43139">
        <ele>144</ele>
        <time>2019-02-17T10:04:45.098Z</time>
      </trkpt>
      <trkpt lat="46.84945" lon="0.43141">
        <ele>144</ele>
        <time>2019-02-17T10:04:46.098Z</time>
      </trkpt>
      <trkpt lat="46.84943" lon="0.43144">
        <ele>143</ele>
        <time>2019-02-17T10:04:47.098Z</time>
      </trkpt>
      <trkpt lat="46.84941" lon="0.43146">
        <ele>143</ele>
        <time>2019-02-17T10:04:48.098Z</time>
      </trkpt>
      <trkpt lat="46.84938" lon="0.43149">
        <ele>143</ele>
        <time>2019-02-17T10:04:49.098Z</time>
      </trkpt>
      <trkpt lat="46.84935" lon="0.43151">
        <ele>142</ele>
        <time>2019-02-17T10:04:50.098Z</time>
      </trkpt>
      <trkpt lat="46.84933" lon="0.43154">
        <ele>141</ele>
        <time>2019-02-17T10:04:51.098Z</time>
      </trkpt>
      <trkpt lat="46.8493" lon="0.43157">
        <ele>141</ele>
        <time>2019-02-17T10:04:52.098Z</time>
      </trkpt>
      <trkpt lat="46.84928" lon="0.4316">
        <ele>139</ele>
        <time>2019-02-17T10:04:53.098Z</time>
      </trkpt>
      <trkpt lat="46.84924" lon="0.43165">
        <ele>138</ele>
        <time>2019-02-17T10:04:54.098Z</time>
      </trkpt>
      <trkpt lat="46.84921" lon="0.43169">
        <ele>138</ele>
        <time>2019-02-17T10:04:55.098Z</time>
      </trkpt>
      <trkpt lat="46.84918" lon="0.43171">
        <ele>139</ele>
        <time>2019-02-17T10:04:56.098Z</time>
      </trkpt>
      <trkpt lat="46.84914" lon="0.43174">
        <ele>140</ele>
        <time>2019-02-17T10:04:57.098Z</time>
      </trkpt>
      <trkpt lat="46.84912" lon="0.43177">
        <ele>139</ele>
        <time>2019-02-17T10:04:58.098Z</time>
      </trkpt>
      <trkpt lat="46.84908" lon="0.4318">
        <ele>138</ele>
        <time>2019-02-17T10:04:59.098Z</time>
      </trkpt>
      <trkpt lat="46.84905" lon="0.43183">
        <ele>138</ele>
        <time>2019-02-17T10:05:00.098Z</time>
      </trkpt>
      <trkpt lat="46.84902" lon="0.43186">
        <ele>137</ele>
        <time>2019-02-17T10:05:01.098Z</time>
      </trkpt>
      <trkpt lat="46.84899" lon="0.43188">
        <ele>137</ele>
        <time>2019-02-17T10:05:02.098Z</time>
      </trkpt>
      <trkpt lat="46.84896" lon="0.43191">
        <ele>138</ele>
        <time>2019-02-17T10:05:03.098Z</time>
      </trkpt>
      <trkpt lat="46.84893" lon="0.43193">
        <ele>138</ele>
        <time>2019-02-17T10:05:04.098Z</time>
      </trkpt>
      <trkpt lat="46.8489" lon="0.43196">
        <ele>137</ele>
        <time>2019-02-17T10:05:05.098Z</time>
      </trkpt>
      <trkpt lat="46.84886" lon="0.43199">
        <ele>135</ele>
        <time>2019-02-17T10:05:06.098Z</time>
      </trkpt>
      <trkpt lat="46.84883" lon="0.43202">
        <ele>134</ele>
        <time>2019-02-17T10:05:07.098Z</time>
      </trkpt>
      <trkpt lat="46.84879" lon="0.43204">
        <ele>133</ele>
        <time>2019-02-17T10:05:08.098Z</time>
      </trkpt>
      <trkpt lat="46.84876" lon="0.43207">
        <ele>132</ele>
        <time>2019-02-17T10:05:09.098Z</time>
      </trkpt>
      <trkpt lat="46.84872" lon="0.43209">
        <ele>131</ele>
        <time>2019-02-17T10:05:10.098Z</time>
      </trkpt>
      <trkpt lat="46.84869" lon="0.43211">
        <ele>130</ele>
        <time>2019-02-17T10:05:11.098Z</time>
      </trkpt>
      <trkpt lat="46.84866" lon="0.43214">
        <ele>128</ele>
        <time>2019-02-17T10:05:12.098Z</time>
      </trkpt>
      <trkpt lat="46.84863" lon="0.43216">
        <ele>126</ele>
        <time>2019-02-17T10:05:13.098Z</time>
      </trkpt>
      <trkpt lat="46.84859" lon="0.43218">
        <ele>126</ele>
        <time>2019-02-17T10:05:14.098Z</time>
      </trkpt>
      <trkpt lat="46.84856" lon="0.4322">
        <ele>124</ele>
        <time>2019-02-17T10:05:15.098Z</time>
      </trkpt>
      <trkpt lat="46.84853" lon="0.43223">
        <ele>123</ele>
        <time>2019-02-17T10:05:16.098Z</time>
      </trkpt>
      <trkpt lat="46.84849" lon="0.43225">
        <ele>122</ele>
        <time>2019-02-17T10:05:17.098Z</time>
      </trkpt>
      <trkpt lat="46.84846" lon="0.43227">
        <ele>122</ele>
        <time>2019-02-17T10:05:18.098Z</time>
      </trkpt>
      <trkpt lat="46.84843" lon="0.43228">
        <ele>123</ele>
        <time>2019-02-17T10:05:19.098Z</time>
      </trkpt>
      <trkpt lat="46.8484" lon="0.43229">
        <ele>124</ele>
        <time>2019-02-17T10:05:20.098Z</time>
      </trkpt>
      <trkpt lat="46.84837" lon="0.43229">
        <ele>123</ele>
        <time>2019-02-17T10:05:21.098Z</time>
      </trkpt>
      <trkpt lat="46.84834" lon="0.43228">
        <ele>124</ele>
        <time>2019-02-17T10:05:22.098Z</time>
      </trkpt>
      <trkpt lat="46.84831" lon="0.43227">
        <ele>124</ele>
        <time>2019-02-17T10:05:23.098Z</time>
      </trkpt>
      <trkpt lat="46.84829" lon="0.43226">
        <ele>124</ele>
        <time>2019-02-17T10:05:24.098Z</time>
      </trkpt>
      <trkpt lat="46.84827" lon="0.43224">
        <ele>125</ele>
        <time>2019-02-17T10:05:25.098Z</time>
      </trkpt>
      <trkpt lat="46.84825" lon="0.43221">
        <ele>125</ele>
        <time>2019-02-17T10:05:26.098Z</time>
      </trkpt>
      <trkpt lat="46.84824" lon="0.43219">
        <ele>126</ele>
        <time>2019-02-17T10:05:27.098Z</time>
      </trkpt>
      <trkpt lat="46.84822" lon="0.43216">
        <ele>126</ele>
        <time>2019-02-17T10:05:28.098Z</time>
      </trkpt>
      <trkpt lat="46.8482" lon="0.43213">
        <ele>128</ele>
        <time>2019-02-17T10:05:29.098Z</time>
      </trkpt>
      <trkpt lat="46.84819" lon="0.43211">
        <ele>128</ele>
        <time>2019-02-17T10:05:30.098Z</time>
      </trkpt>
      <trkpt lat="46.84817" lon="0.43208">
        <ele>129</ele>
        <time>2019-02-17T10:05:31.098Z</time>
      </trkpt>
      <trkpt lat="46.84816" lon="0.43205">
        <ele>130</ele>
        <time>2019-02-17T10:05:32.098Z</time>
      </trkpt>
      <trkpt lat="46.84814" lon="0.43201">
        <ele>129</ele>
        <time>2019-02-17T10:05:33.098Z</time>
      </trkpt>
      <trkpt lat="46.84812" lon="0.43198">
        <ele>128</ele>
        <time>2019-02-17T10:05:34.098Z</time>
      </trkpt>
      <trkpt lat="46.8481" lon="0.43195">
        <ele>129</ele>
        <time>2019-02-17T10:05:35.098Z</time>
      </trkpt>
      <trkpt lat="46.84808" lon="0.43192">
        <ele>129</ele>
        <time>2019-02-17T10:05:36.098Z</time>
      </trkpt>
      <trkpt lat="46.84806" lon="0.43189">
        <ele>129</ele>
        <time>2019-02-17T10:05:37.098Z</time>
      </trkpt>
      <trkpt lat="46.84804" lon="0.43186">
        <ele>130</ele>
        <time>2019-02-17T10:05:38.098Z</time>
      </trkpt>
      <trkpt lat="46.84802" lon="0.43183">
        <ele>132</ele>
        <time>2019-02-17T10:05:39.098Z</time>
      </trkpt>
      <trkpt lat="46.84801" lon="0.4318">
        <ele>132</ele>
        <time>2019-02-17T10:05:40.098Z</time>
      </trkpt>
      <trkpt lat="46.848" lon="0.43177">
        <ele>132</ele>
        <time>2019-02-17T10:05:41.098Z</time>
      </trkpt>
      <trkpt lat="46.84799" lon="0.43173">
        <ele>133</ele>
        <time>2019-02-17T10:05:42.098Z</time>
      </trkpt>
      <trkpt lat="46.84798" lon="0.4317">
        <ele>133</ele>
        <time>2019-02-17T10:05:43.098Z</time>
      </trkpt>
      <trkpt lat="46.84796" lon="0.43166">
        <ele>133</ele>
        <time>2019-02-17T10:05:44.098Z</time>
      </trkpt>
      <trkpt lat="46.84794" lon="0.43163">
        <ele>133</ele>
        <time>2019-02-17T10:05:45.098Z</time>
      </trkpt>
      <trkpt lat="46.84793" lon="0.4316">
        <ele>137</ele>
        <time>2019-02-17T10:05:46.098Z</time>
      </trkpt>
      <trkpt lat="46.84791" lon="0.43158">
        <ele>137</ele>
        <time>2019-02-17T10:05:47.098Z</time>
      </trkpt>
      <trkpt lat="46.84789" lon="0.43156">
        <ele>139</ele>
        <time>2019-02-17T10:05:48.098Z</time>
      </trkpt>
      <trkpt lat="46.84788" lon="0.43155">
        <ele>141</ele>
        <time>2019-02-17T10:05:49.098Z</time>
      </trkpt>
      <trkpt lat="46.84788" lon="0.43155">
        <ele>141</ele>
        <time>2019-02-17T10:05:50.098Z</time>
      </trkpt>
      <trkpt lat="46.84828" lon="0.43256">
        <ele>155</ele>
        <time>2019-02-17T10:05:51.086Z</time>
      </trkpt>
      <trkpt lat="46.84825" lon="0.43258">
        <ele>153</ele>
        <time>2019-02-17T10:05:52.086Z</time>
      </trkpt>
      <trkpt lat="46.84822" lon="0.43261">
        <ele>152</ele>
        <time>2019-02-17T10:05:53.086Z</time>
      </trkpt>
      <trkpt lat="46.84819" lon="0.43263">
        <ele>149</ele>
        <time>2019-02-17T10:05:54.086Z</time>
      </trkpt>
      <trkpt lat="46.84815" lon="0.43265">
        <ele>149</ele>
        <time>2019-02-17T10:05:55.086Z</time>
      </trkpt>
      <trkpt lat="46.84812" lon="0.43267">
        <ele>148</ele>
        <time>2019-02-17T10:05:56.086Z</time>
      </trkpt>
      <trkpt lat="46.84809" lon="0.43269">
        <ele>145</ele>
        <time>2019-02-17T10:05:57.086Z</time>
      </trkpt>
      <trkpt lat="46.84806" lon="0.43271">
        <ele>143</ele>
        <time>2019-02-17T10:05:58.086Z</time>
      </trkpt>
      <trkpt lat="46.84803" lon="0.43275">
        <ele>140</ele>
        <time>2019-02-17T10:05:59.086Z</time>
      </trkpt>
      <trkpt lat="46.84799" lon="0.43278">
        <ele>137</ele>
        <time>2019-02-17T10:06:00.086Z</time>
      </trkpt>
      <trkpt lat="46.84796" lon="0.43281">
        <ele>134</ele>
        <time>2019-02-17T10:06:01.086Z</time>
      </trkpt>
      <trkpt lat="46.84792" lon="0.43285">
        <ele>133</ele>
        <time>2019-02-17T10:06:02.086Z</time>
      </trkpt>
      <trkpt lat="46.84789" lon="0.43288">
        <ele>131</ele>
        <time>2019-02-17T10:06:03.086Z</time>
      </trkpt>
      <trkpt lat="46.84786" lon="0.43292">
        <ele>127</ele>
        <time>2019-02-17T10:06:04.086Z</time>
      </trkpt>
      <trkpt lat="46.84782" lon="0.43296">
        <ele>124</ele>
        <time>2019-02-17T10:06:05.086Z</time>
      </trkpt>
      <trkpt lat="46.84778" lon="0.433">
        <ele>122</ele>
        <time>2019-02-17T10:06:06.086Z</time>
      </trkpt>
      <trkpt lat="46.84775" lon="0.43304">
        <ele>120</ele>
        <time>2019-02-17T10:06:07.086Z</time>
      </trkpt>
      <trkpt lat="46.84772" lon="0.43309">
        <ele>120</ele>
        <time>2019-02-17T10:06:08.086Z</time>
      </trkpt>
      <trkpt lat="46.84769" lon="0.43314">
        <ele>119</ele>
        <time>2019-02-17T10:06:09.086Z</time>
      </trkpt>
      <trkpt lat="46.84766" lon="0.43319">
        <ele>117</ele>
        <time>2019-02-17T10:06:10.086Z</time>
      </trkpt>
      <trkpt lat="46.84764" lon="0.43324">
        <ele>117</ele>
        <time>2019-02-17T10:06:11.086Z</time>
      </trkpt>
      <trkpt lat="46.84762" lon="0.4333">
        <ele>119</ele>
        <time>2019-02-17T10:06:12.086Z</time>
      </trkpt>
      <trkpt lat="46.8476" lon="0.43337">
        <ele>122</ele>
        <time>2019-02-17T10:06:13.086Z</time>
      </trkpt>
      <trkpt lat="46.84759" lon="0.43344">
        <ele>124</ele>
        <time>2019-02-17T10:06:14.086Z</time>
      </trkpt>
      <trkpt lat="46.84757" lon="0.43351">
        <ele>123</ele>
        <time>2019-02-17T10:06:15.086Z</time>
      </trkpt>
      <trkpt lat="46.84756" lon="0.43357">
        <ele>123</ele>
        <time>2019-02-17T10:06:16.086Z</time>
      </trkpt>
      <trkpt lat="46.84754" lon="0.43363">
        <ele>121</ele>
        <time>2019-02-17T10:06:17.086Z</time>
      </trkpt>
      <trkpt lat="46.84752" lon="0.43369">
        <ele>122</ele>
        <time>2019-02-17T10:06:18.086Z</time>
      </trkpt>
      <trkpt lat="46.84751" lon="0.43374">
        <ele>121</ele>
        <time>2019-02-17T10:06:19.086Z</time>
      </trkpt>
      <trkpt lat="46.84749" lon="0.4338">
        <ele>122</ele>
        <time>2019-02-17T10:06:20.086Z</time>
      </trkpt>
      <trkpt lat="46.84747" lon="0.43385">
        <ele>122</ele>
        <time>2019-02-17T10:06:21.086Z</time>
      </trkpt>
      <trkpt lat="46.84745" lon="0.4339">
        <ele>123</ele>
        <time>2019-02-17T10:06:22.086Z</time>
      </trkpt>
      <trkpt lat="46.84743" lon="0.43396">
        <ele>123</ele>
        <time>2019-02-17T10:06:23.086Z</time>
      </trkpt>
      <trkpt lat="46.84741" lon="0.43401">
        <ele>125</ele>
        <time>2019-02-17T10:06:24.086Z</time>
      </trkpt>
      <trkpt lat="46.84739" lon="0.43405">
        <ele>125</ele>
        <time>2019-02-17T10:06:25.086Z</time>
      </trkpt>
      <trkpt lat="46.84738" lon="0.43408">
        <ele>124</ele>
        <time>2019-02-17T10:06:26.086Z</time>
      </trkpt>
      <trkpt lat="46.84738" lon="0.4341">
        <ele>127</ele>
        <time>2019-02-17T10:06:27.086Z</time>
      </trkpt>
      <trkpt lat="46.84738" lon="0.43412">
        <ele>138</ele>
        <time>2019-02-17T10:06:28.086Z</time>
      </trkpt>
      <trkpt lat="46.84738" lon="0.43413">
        <ele>140</ele>
        <time>2019-02-17T10:06:29.086Z</time>
      </trkpt>
      <trkpt lat="46.84738" lon="0.43415">
        <ele>142</ele>
        <time>2019-02-17T10:06:30.086Z</time>
      </trkpt>
      <trkpt lat="46.84739" lon="0.43415">
        <ele>146</ele>
        <time>2019-02-17T10:06:31.086Z</time>
      </trkpt>
      <trkpt lat="46.8474" lon="0.43413">
        <ele>149</ele>
        <time>2019-02-17T10:06:32.086Z</time>
      </trkpt>
      <trkpt lat="46.84741" lon="0.43411">
        <ele>150</ele>
        <time>2019-02-17T10:06:33.086Z</time>
      </trkpt>
      <trkpt lat="46.84741" lon="0.43409">
        <ele>150</ele>
        <time>2019-02-17T10:06:34.086Z</time>
      </trkpt>
      <trkpt lat="46.84741" lon="0.43406">
        <ele>151</ele>
        <time>2019-02-17T10:06:35.086Z</time>
      </trkpt>
      <trkpt lat="46.8474" lon="0.43403">
        <ele>152</ele>
        <time>2019-02-17T10:06:36.086Z</time>
      </trkpt>
      <trkpt lat="46.84739" lon="0.434">
        <ele>153</ele>
        <time>2019-02-17T10:06:37.086Z</time>
      </trkpt>
      <trkpt lat="46.84738" lon="0.43397">
        <ele>154</ele>
        <time>2019-02-17T10:06:38.086Z</time>
      </trkpt>
      <trkpt lat="46.84737" lon="0.43395">
        <ele>154</ele>
        <time>2019-02-17T10:06:39.086Z</time>
      </trkpt>
      <trkpt lat="46.84736" lon="0.43392">
        <ele>154</ele>
        <time>2019-02-17T10:06:40.086Z</time>
      </trkpt>
      <trkpt lat="46.84734" lon="0.4339">
        <ele>155</ele>
        <time>2019-02-17T10:06:41.086Z</time>
      </trkpt>
      <trkpt lat="46.84732" lon="0.43387">
        <ele>155</ele>
        <time>2019-02-17T10:06:42.086Z</time>
      </trkpt>
      <trkpt lat="46.8473" lon="0.43385">
        <ele>155</ele>
        <time>2019-02-17T10:06:43.086Z</time>
      </trkpt>
      <trkpt lat="46.84729" lon="0.43383">
        <ele>155</ele>
        <time>2019-02-17T10:06:44.086Z</time>
      </trkpt>
      <trkpt lat="46.84728" lon="0.43381">
        <ele>157</ele>
        <time>2019-02-17T10:06:45.086Z</time>
      </trkpt>
      <trkpt lat="46.84725" lon="0.43379">
        <ele>157</ele>
        <time>2019-02-17T10:06:46.086Z</time>
      </trkpt>
      <trkpt lat="46.84723" lon="0.43378">
        <ele>158</ele>
        <time>2019-02-17T10:06:47.086Z</time>
      </trkpt>
      <trkpt lat="46.8472" lon="0.43377">
        <ele>156</ele>
        <time>2019-02-17T10:06:48.086Z</time>
      </trkpt>
      <trkpt lat="46.84716" lon="0.43376">
        <ele>155</ele>
        <time>2019-02-17T10:06:49.086Z</time>
      </trkpt>
      <trkpt lat="46.84712" lon="0.43374">
        <ele>154</ele>
        <time>2019-02-17T10:06:50.086Z</time>
      </trkpt>
      <trkpt lat="46.84709" lon="0.43374">
        <ele>153</ele>
        <time>2019-02-17T10:06:51.086Z</time>
      </trkpt>
      <trkpt lat="46.84706" lon="0.43373">
        <ele>153</ele>
        <time>2019-02-17T10:06:52.086Z</time>
      </trkpt>
      <trkpt lat="46.84703" lon="0.43373">
        <ele>154</ele>
        <time>2019-02-17T10:06:53.086Z</time>
      </trkpt>
      <trkpt lat="46.84701" lon="0.43373">
        <ele>154</ele>
        <time>2019-02-17T10:06:54.086Z</time>
      </trkpt>
      <trkpt lat="46.84698" lon="0.43373">
        <ele>154</ele>
        <time>2019-02-17T10:06:55.086Z</time>
      </trkpt>
      <trkpt lat="46.84695" lon="0.43373">
        <ele>153</ele>
        <time>2019-02-17T10:06:56.086Z</time>
      </trkpt>
      <trkpt lat="46.84692" lon="0.43372">
        <ele>153</ele>
        <time>2019-02-17T10:06:57.086Z</time>
      </trkpt>
      <trkpt lat="46.84689" lon="0.43372">
        <ele>154</ele>
        <time>2019-02-17T10:06:58.086Z</time>
      </trkpt>
      <trkpt lat="46.84686" lon="0.43371">
        <ele>153</ele>
        <time>2019-02-17T10:06:59.086Z</time>
      </trkpt>
      <trkpt lat="46.84683" lon="0.4337">
        <ele>154</ele>
        <time>2019-02-17T10:07:00.086Z</time>
      </trkpt>
      <trkpt lat="46.8468" lon="0.43369">
        <ele>154</ele>
        <time>2019-02-17T10:07:01.086Z</time>
      </trkpt>
      <trkpt lat="46.84677" lon="0.43368">
        <ele>154</ele>
        <time>2019-02-17T10:07:02.086Z</time>
      </trkpt>
      <trkpt lat="46.84674" lon="0.43366">
        <ele>154</ele>
        <time>2019-02-17T10:07:03.086Z</time>
      </trkpt>
      <trkpt lat="46.84671" lon="0.43363">
        <ele>154</ele>
        <time>2019-02-17T10:07:04.086Z</time>
      </trkpt>
      <trkpt lat="46.84668" lon="0.43361">
        <ele>153</ele>
        <time>2019-02-17T10:07:05.086Z</time>
      </trkpt>
      <trkpt lat="46.84666" lon="0.43359">
        <ele>153</ele>
        <time>2019-02-17T10:07:06.086Z</time>
      </trkpt>
      <trkpt lat="46.84663" lon="0.43358">
        <ele>152</ele>
        <time>2019-02-17T10:07:07.086Z</time>
      </trkpt>
      <trkpt lat="46.84661" lon="0.43357">
        <ele>152</ele>
        <time>2019-02-17T10:07:08.086Z</time>
      </trkpt>
      <trkpt lat="46.84659" lon="0.43356">
        <ele>152</ele>
        <time>2019-02-17T10:07:09.086Z</time>
      </trkpt>
      <trkpt lat="46.84657" lon="0.43355">
        <ele>151</ele>
        <time>2019-02-17T10:07:10.086Z</time>
      </trkpt>
      <trkpt lat="46.84655" lon="0.43355">
        <ele>150</ele>
        <time>2019-02-17T10:07:11.086Z</time>
      </trkpt>
      <trkpt lat="46.84653" lon="0.43357">
        <ele>148</ele>
        <time>2019-02-17T10:07:12.086Z</time>
      </trkpt>
      <trkpt lat="46.84651" lon="0.43359">
        <ele>146</ele>
        <time>2019-02-17T10:07:13.086Z</time>
      </trkpt>
      <trkpt lat="46.84649" lon="0.4336">
        <ele>146</ele>
        <time>2019-02-17T10:07:14.086Z</time>
      </trkpt>
      <trkpt lat="46.84646" lon="0.43361">
        <ele>145</ele>
        <time>2019-02-17T10:07:15.086Z</time>
      </trkpt>
      <trkpt lat="46.84644" lon="0.43361">
        <ele>144</ele>
        <time>2019-02-17T10:07:16.086Z</time>
      </trkpt>
      <trkpt lat="46.84641" lon="0.43362">
        <ele>142</ele>
        <time>2019-02-17T10:07:17.086Z</time>
      </trkpt>
      <trkpt lat="46.84639" lon="0.43362">
        <ele>140</ele>
        <time>2019-02-17T10:07:18.086Z</time>
      </trkpt>
      <trkpt lat="46.84635" lon="0.43363">
        <ele>137</ele>
        <time>2019-02-17T10:07:19.086Z</time>
      </trkpt>
      <trkpt lat="46.84632" lon="0.43364">
        <ele>135</ele>
        <time>2019-02-17T10:07:20.086Z</time>
      </trkpt>
      <trkpt lat="46.84629" lon="0.43364">
        <ele>134</ele>
        <time>2019-02-17T10:07:21.086Z</time>
      </trkpt>
      <trkpt lat="46.84626" lon="0.43364">
        <ele>134</ele>
        <time>2019-02-17T10:07:22.086Z</time>
      </trkpt>
      <trkpt lat="46.84622" lon="0.43363">
        <ele>135</ele>
        <time>2019-02-17T10:07:23.086Z</time>
      </trkpt>
      <trkpt lat="46.84619" lon="0.43363">
        <ele>135</ele>
        <time>2019-02-17T10:07:24.086Z</time>
      </trkpt>
      <trkpt lat="46.84617" lon="0.43364">
        <ele>134</ele>
        <time>2019-02-17T10:07:25.086Z</time>
      </trkpt>
      <trkpt lat="46.84614" lon="0.43365">
        <ele>133</ele>
        <time>2019-02-17T10:07:26.086Z</time>
      </trkpt>
      <trkpt lat="46.84611" lon="0.43367">
        <ele>132</ele>
        <time>2019-02-17T10:07:27.086Z</time>
      </trkpt>
      <trkpt lat="46.84609" lon="0.43368">
        <ele>130</ele>
        <time>2019-02-17T10:07:28.086Z</time>
      </trkpt>
      <trkpt lat="46.84608" lon="0.4337">
        <ele>130</ele>
        <time>2019-02-17T10:07:29.086Z</time>
      </trkpt>
      <trkpt lat="46.84607" lon="0.43372">
        <ele>131</ele>
        <time>2019-02-17T10:07:30.086Z</time>
      </trkpt>
      <trkpt lat="46.84607" lon="0.43375">
        <ele>130</ele>
        <time>2019-02-17T10:07:31.086Z</time>
      </trkpt>
      <trkpt lat="46.84607" lon="0.43378">
        <ele>131</ele>
        <time>2019-02-17T10:07:32.086Z</time>
      </trkpt>
      <trkpt lat="46.84606" lon="0.43382">
        <ele>131</ele>
        <time>2019-02-17T10:07:33.086Z</time>
      </trkpt>
      <trkpt lat="46.84606" lon="0.43385">
        <ele>131</ele>
        <time>2019-02-17T10:07:34.086Z</time>
      </trkpt>
      <trkpt lat="46.84605" lon="0.43387">
        <ele>131</ele>
        <time>2019-02-17T10:07:35.086Z</time>
      </trkpt>
      <trkpt lat="46.84604" lon="0.43388">
        <ele>132</ele>
        <time>2019-02-17T10:07:36.086Z</time>
      </trkpt>
      <trkpt lat="46.84601" lon="0.43389">
        <ele>132</ele>
        <time>2019-02-17T10:07:37.086Z</time>
      </trkpt>
      <trkpt lat="46.846" lon="0.4339">
        <ele>132</ele>
        <time>2019-02-17T10:07:38.086Z</time>
      </trkpt>
      <trkpt lat="46.84597" lon="0.4339">
        <ele>132</ele>
        <time>2019-02-17T10:07:39.086Z</time>
      </trkpt>
      <trkpt lat="46.84595" lon="0.43391">
        <ele>131</ele>
        <time>2019-02-17T10:07:40.086Z</time>
      </trkpt>
      <trkpt lat="46.84593" lon="0.43393">
        <ele>131</ele>
        <time>2019-02-17T10:07:41.086Z</time>
      </trkpt>
      <trkpt lat="46.84591" lon="0.43394">
        <ele>132</ele>
        <time>2019-02-17T10:07:42.086Z</time>
      </trkpt>
      <trkpt lat="46.84589" lon="0.43394">
        <ele>133</ele>
        <time>2019-02-17T10:07:43.086Z</time>
      </trkpt>
      <trkpt lat="46.84587" lon="0.43395">
        <ele>132</ele>
        <time>2019-02-17T10:07:44.086Z</time>
      </trkpt>
      <trkpt lat="46.84585" lon="0.43395">
        <ele>133</ele>
        <time>2019-02-17T10:07:45.086Z</time>
      </trkpt>
      <trkpt lat="46.84583" lon="0.43396">
        <ele>134</ele>
        <time>2019-02-17T10:07:46.086Z</time>
      </trkpt>
      <trkpt lat="46.8458" lon="0.43396">
        <ele>134</ele>
        <time>2019-02-17T10:07:47.086Z</time>
      </trkpt>
      <trkpt lat="46.84578" lon="0.43398">
        <ele>135</ele>
        <time>2019-02-17T10:07:48.086Z</time>
      </trkpt>
      <trkpt lat="46.84575" lon="0.43399">
        <ele>132</ele>
        <time>2019-02-17T10:07:49.086Z</time>
      </trkpt>
      <trkpt lat="46.84572" lon="0.43401">
        <ele>132</ele>
        <time>2019-02-17T10:07:50.086Z</time>
      </trkpt>
      <trkpt lat="46.84568" lon="0.43402">
        <ele>132</ele>
        <time>2019-02-17T10:07:51.086Z</time>
      </trkpt>
      <trkpt lat="46.84565" lon="0.43401">
        <ele>132</ele>
        <time>2019-02-17T10:07:52.086Z</time>
      </trkpt>
      <trkpt lat="46.84563" lon="0.43398">
        <ele>136</ele>
        <time>2019-02-17T10:07:53.086Z</time>
      </trkpt>
      <trkpt lat="46.84562" lon="0.43395">
        <ele>137</ele>
        <time>2019-02-17T10:07:54.086Z</time>
      </trkpt>
      <trkpt lat="46.84562" lon="0.43392">
        <ele>138</ele>
        <time>2019-02-17T10:07:55.086Z</time>
      </trkpt>
      <trkpt lat="46.84561" lon="0.43389">
        <ele>139</ele>
        <time>2019-02-17T10:07:56.086Z</time>
      </trkpt>
      <trkpt lat="46.84561" lon="0.43386">
        <ele>139</ele>
        <time>2019-02-17T10:07:57.086Z</time>
      </trkpt>
      <trkpt lat="46.8456" lon="0.43383">
        <ele>140</ele>
        <time>2019-02-17T10:07:58.086Z</time>
      </trkpt>
      <trkpt lat="46.84559" lon="0.4338">
        <ele>140</ele>
        <time>2019-02-17T10:07:59.086Z</time>
      </trkpt>
      <trkpt lat="46.84558" lon="0.43377">
        <ele>140</ele>
        <time>2019-02-17T10:08:00.086Z</time>
      </trkpt>
      <trkpt lat="46.84556" lon="0.43374">
        <ele>140</ele>
        <time>2019-02-17T10:08:01.086Z</time>
      </trkpt>
      <trkpt lat="46.84553" lon="0.4337">
        <ele>141</ele>
        <time>2019-02-17T10:08:02.086Z</time>
      </trkpt>
      <trkpt lat="46.8455" lon="0.43367">
        <ele>141</ele>
        <time>2019-02-17T10:08:03.086Z</time>
      </trkpt>
      <trkpt lat="46.84548" lon="0.43363">
        <ele>142</ele>
        <time>2019-02-17T10:08:04.086Z</time>
      </trkpt>
      <trkpt lat="46.84546" lon="0.43359">
        <ele>141</ele>
        <time>2019-02-17T10:08:05.086Z</time>
      </trkpt>
      <trkpt lat="46.84543" lon="0.43356">
        <ele>142</ele>
        <time>2019-02-17T10:08:06.086Z</time>
      </trkpt>
      <trkpt lat="46.84541" lon="0.43353">
        <ele>141</ele>
        <time>2019-02-17T10:08:07.086Z</time>
      </trkpt>
      <trkpt lat="46.84538" lon="0.4335">
        <ele>141</ele>
        <time>2019-02-17T10:08:08.086Z</time>
      </trkpt>
      <trkpt lat="46.84536" lon="0.43346">
        <ele>141</ele>
        <time>2019-02-17T10:08:09.086Z</time>
      </trkpt>
      <trkpt lat="46.84535" lon="0.43343">
        <ele>141</ele>
        <time>2019-02-17T10:08:10.086Z</time>
      </trkpt>
      <trkpt lat="46.84533" lon="0.4334">
        <ele>142</ele>
        <time>2019-02-17T10:08:11.086Z</time>
      </trkpt>
      <trkpt lat="46.84531" lon="0.43338">
        <ele>142</ele>
        <time>2019-02-17T10:08:12.086Z</time>
      </trkpt>
      <trkpt lat="46.8453" lon="0.43336">
        <ele>143</ele>
        <time>2019-02-17T10:08:13.086Z</time>
      </trkpt>
      <trkpt lat="46.84527" lon="0.43334">
        <ele>143</ele>
        <time>2019-02-17T10:08:14.086Z</time>
      </trkpt>
      <trkpt lat="46.84526" lon="0.43331">
        <ele>144</ele>
        <time>2019-02-17T10:08:15.086Z</time>
      </trkpt>
      <trkpt lat="46.84524" lon="0.43328">
        <ele>144</ele>
        <time>2019-02-17T10:08:16.086Z</time>
      </trkpt>
      <trkpt lat="46.84523" lon="0.43325">
        <ele>144</ele>
        <time>2019-02-17T10:08:17.086Z</time>
      </trkpt>
      <trkpt lat="46.84523" lon="0.43322">
        <ele>145</ele>
        <time>2019-02-17T10:08:18.086Z</time>
      </trkpt>
      <trkpt lat="46.84523" lon="0.43318">
        <ele>145</ele>
        <time>2019-02-17T10:08:19.086Z</time>
      </trkpt>
      <trkpt lat="46.84524" lon="0.43314">
        <ele>146</ele>
        <time>2019-02-17T10:08:20.086Z</time>
      </trkpt>
      <trkpt lat="46.84524" lon="0.43309">
        <ele>145</ele>
        <time>2019-02-17T10:08:21.086Z</time>
      </trkpt>
      <trkpt lat="46.84525" lon="0.43305">
        <ele>146</ele>
        <time>2019-02-17T10:08:22.086Z</time>
      </trkpt>
      <trkpt lat="46.84526" lon="0.433">
        <ele>146</ele>
        <time>2019-02-17T10:08:23.086Z</time>
      </trkpt>
      <trkpt lat="46.84528" lon="0.43296">
        <ele>146</ele>
        <time>2019-02-17T10:08:24.086Z</time>
      </trkpt>
      <trkpt lat="46.8453" lon="0.43293">
        <ele>147</ele>
        <time>2019-02-17T10:08:25.086Z</time>
      </trkpt>
      <trkpt lat="46.84533" lon="0.4329">
        <ele>148</ele>
        <time>2019-02-17T10:08:26.086Z</time>
      </trkpt>
      <trkpt lat="46.84534" lon="0.43287">
        <ele>148</ele>
        <time>2019-02-17T10:08:27.086Z</time>
      </trkpt>
      <trkpt lat="46.84533" lon="0.43283">
        <ele>147</ele>
        <time>2019-02-17T10:08:28.086Z</time>
      </trkpt>
      <trkpt lat="46.84531" lon="0.4328">
        <ele>147</ele>
        <time>2019-02-17T10:08:29.086Z</time>
      </trkpt>
      <trkpt lat="46.84529" lon="0.43277">
        <ele>146</ele>
        <time>2019-02-17T10:08:30.086Z</time>
      </trkpt>
      <trkpt lat="46.84527" lon="0.43275">
        <ele>146</ele>
        <time>2019-02-17T10:08:31.086Z</time>
      </trkpt>
      <trkpt lat="46.84525" lon="0.43272">
        <ele>146</ele>
        <time>2019-02-17T10:08:32.086Z</time>
      </trkpt>
      <trkpt lat="46.84523" lon="0.43269">
        <ele>146</ele>
        <time>2019-02-17T10:08:33.086Z</time>
      </trkpt>
      <trkpt lat="46.84522" lon="0.43265">
        <ele>146</ele>
        <time>2019-02-17T10:08:34.086Z</time>
      </trkpt>
      <trkpt lat="46.84521" lon="0.43262">
        <ele>146</ele>
        <time>2019-02-17T10:08:35.086Z</time>
      </trkpt>
      <trkpt lat="46.8452" lon="0.43259">
        <ele>146</ele>
        <time>2019-02-17T10:08:36.086Z</time>
      </trkpt>
      <trkpt lat="46.84519" lon="0.43257">
        <ele>146</ele>
        <time>2019-02-17T10:08:37.086Z</time>
      </trkpt>
      <trkpt lat="46.84517" lon="0.43255">
        <ele>146</ele>
        <time>2019-02-17T10:08:38.086Z</time>
      </trkpt>
      <trkpt lat="46.84514" lon="0.43253">
        <ele>146</ele>
        <time>2019-02-17T10:08:39.086Z</time>
      </trkpt>
      <trkpt lat="46.84511" lon="0.43252">
        <ele>145</ele>
        <time>2019-02-17T10:08:40.086Z</time>
      </trkpt>
      <trkpt lat="46.84508" lon="0.43252">
        <ele>145</ele>
        <time>2019-02-17T10:08:41.086Z</time>
      </trkpt>
      <trkpt lat="46.84505" lon="0.43251">
        <ele>146</ele>
        <time>2019-02-17T10:08:42.086Z</time>
      </trkpt>
      <trkpt lat="46.84502" lon="0.4325">
        <ele>145</ele>
        <time>2019-02-17T10:08:43.086Z</time>
      </trkpt>
      <trkpt lat="46.845" lon="0.43247">
        <ele>145</ele>
        <time>2019-02-17T10:08:44.086Z</time>
      </trkpt>
      <trkpt lat="46.84499" lon="0.43244">
        <ele>145</ele>
        <time>2019-02-17T10:08:45.086Z</time>
      </trkpt>
      <trkpt lat="46.84498" lon="0.43241">
        <ele>146</ele>
        <time>2019-02-17T10:08:46.086Z</time>
      </trkpt>
      <trkpt lat="46.84497" lon="0.43238">
        <ele>145</ele>
        <time>2019-02-17T10:08:47.086Z</time>
      </trkpt>
      <trkpt lat="46.84495" lon="0.43235">
        <ele>145</ele>
        <time>2019-02-17T10:08:48.086Z</time>
      </trkpt>
      <trkpt lat="46.84493" lon="0.43232">
        <ele>146</ele>
        <time>2019-02-17T10:08:49.086Z</time>
      </trkpt>
      <trkpt lat="46.84492" lon="0.43228">
        <ele>147</ele>
        <time>2019-02-17T10:08:50.086Z</time>
      </trkpt>
      <trkpt lat="46.84492" lon="0.43225">
        <ele>148</ele>
        <time>2019-02-17T10:08:51.086Z</time>
      </trkpt>
      <trkpt lat="46.84492" lon="0.43222">
        <ele>148</ele>
        <time>2019-02-17T10:08:52.086Z</time>
      </trkpt>
      <trkpt lat="46.84492" lon="0.43218">
        <ele>148</ele>
        <time>2019-02-17T10:08:53.086Z</time>
      </trkpt>
      <trkpt lat="46.84492" lon="0.43214">
        <ele>148</ele>
        <time>2019-02-17T10:08:54.086Z</time>
      </trkpt>
      <trkpt lat="46.84491" lon="0.4321">
        <ele>148</ele>
        <time>2019-02-17T10:08:55.086Z</time>
      </trkpt>
      <trkpt lat="46.84491" lon="0.43206">
        <ele>149</ele>
        <time>2019-02-17T10:08:56.086Z</time>
      </trkpt>
      <trkpt lat="46.8449" lon="0.43201">
        <ele>148</ele>
        <time>2019-02-17T10:08:57.086Z</time>
      </trkpt>
      <trkpt lat="46.84491" lon="0.43196">
        <ele>148</ele>
        <time>2019-02-17T10:08:58.086Z</time>
      </trkpt>
      <trkpt lat="46.8449" lon="0.43191">
        <ele>149</ele>
        <time>2019-02-17T10:08:59.086Z</time>
      </trkpt>
      <trkpt lat="46.8449" lon="0.43187">
        <ele>149</ele>
        <time>2019-02-17T10:09:00.086Z</time>
      </trkpt>
      <trkpt lat="46.84489" lon="0.43183">
        <ele>150</ele>
        <time>2019-02-17T10:09:01.086Z</time>
      </trkpt>
      <trkpt lat="46.84488" lon="0.43178">
        <ele>149</ele>
        <time>2019-02-17T10:09:02.086Z</time>
      </trkpt>
      <trkpt lat="46.84488" lon="0.43174">
        <ele>150</ele>
        <time>2019-02-17T10:09:03.086Z</time>
      </trkpt>
      <trkpt lat="46.84488" lon="0.43169">
        <ele>150</ele>
        <time>2019-02-17T10:09:04.086Z</time>
      </trkpt>
      <trkpt lat="46.84487" lon="0.43165">
        <ele>150</ele>
        <time>2019-02-17T10:09:05.086Z</time>
      </trkpt>
      <trkpt lat="46.84487" lon="0.43161">
        <ele>150</ele>
        <time>2019-02-17T10:09:06.086Z</time>
      </trkpt>
      <trkpt lat="46.84487" lon="0.43157">
        <ele>151</ele>
        <time>2019-02-17T10:09:07.086Z</time>
      </trkpt>
      <trkpt lat="46.84488" lon="0.43154">
        <ele>152</ele>
        <time>2019-02-17T10:09:08.086Z</time>
      </trkpt>
      <trkpt lat="46.8449" lon="0.43152">
        <ele>152</ele>
        <time>2019-02-17T10:09:09.086Z</time>
      </trkpt>
      <trkpt lat="46.84491" lon="0.4315">
        <ele>152</ele>
        <time>2019-02-17T10:09:10.086Z</time>
      </trkpt>
      <trkpt lat="46.84492" lon="0.43148">
        <ele>152</ele>
        <time>2019-02-17T10:09:11.086Z</time>
      </trkpt>
      <trkpt lat="46.84492" lon="0.43145">
        <ele>152</ele>
        <time>2019-02-17T10:09:12.086Z</time>
      </trkpt>
      <trkpt lat="46.84493" lon="0.43142">
        <ele>153</ele>
        <time>2019-02-17T10:09:13.086Z</time>
      </trkpt>
      <trkpt lat="46.84494" lon="0.43139">
        <ele>154</ele>
        <time>2019-02-17T10:09:14.086Z</time>
      </trkpt>
      <trkpt lat="46.84494" lon="0.43136">
        <ele>154</ele>
        <time>2019-02-17T10:09:15.086Z</time>
      </trkpt>
      <trkpt lat="46.84495" lon="0.43132">
        <ele>154</ele>
        <time>2019-02-17T10:09:16.086Z</time>
      </trkpt>
      <trkpt lat="46.84496" lon="0.43129">
        <ele>154</ele>
        <time>2019-02-17T10:09:17.086Z</time>
      </trkpt>
      <trkpt lat="46.84497" lon="0.43125">
        <ele>154</ele>
        <time>2019-02-17T10:09:18.086Z</time>
      </trkpt>
      <trkpt lat="46.84498" lon="0.43122">
        <ele>155</ele>
        <time>2019-02-17T10:09:19.086Z</time>
      </trkpt>
      <trkpt lat="46.84499" lon="0.43118">
        <ele>155</ele>
        <time>2019-02-17T10:09:20.086Z</time>
      </trkpt>
      <trkpt lat="46.845" lon="0.43115">
        <ele>156</ele>
        <time>2019-02-17T10:09:21.086Z</time>
      </trkpt>
      <trkpt lat="46.84501" lon="0.43111">
        <ele>156</ele>
        <time>2019-02-17T10:09:22.086Z</time>
      </trkpt>
      <trkpt lat="46.84503" lon="0.43108">
        <ele>157</ele>
        <time>2019-02-17T10:09:23.086Z</time>
      </trkpt>
      <trkpt lat="46.84504" lon="0.43105">
        <ele>157</ele>
        <time>2019-02-17T10:09:24.086Z</time>
      </trkpt>
      <trkpt lat="46.84505" lon="0.43102">
        <ele>157</ele>
        <time>2019-02-17T10:09:25.086Z</time>
      </trkpt>
      <trkpt lat="46.84506" lon="0.43097">
        <ele>157</ele>
        <time>2019-02-17T10:09:26.086Z</time>
      </trkpt>
      <trkpt lat="46.84508" lon="0.43093">
        <ele>157</ele>
        <time>2019-02-17T10:09:27.086Z</time>
      </trkpt>
      <trkpt lat="46.84509" lon="0.43088">
        <ele>156</ele>
        <time>2019-02-17T10:09:28.086Z</time>
      </trkpt>
      <trkpt lat="46.8451" lon="0.43083">
        <ele>157</ele>
        <time>2019-02-17T10:09:29.086Z</time>
      </trkpt>
      <trkpt lat="46.84511" lon="0.43078">
        <ele>157</ele>
        <time>2019-02-17T10:09:30.086Z</time>
      </trkpt>
      <trkpt lat="46.84512" lon="0.43072">
        <ele>157</ele>
        <time>2019-02-17T10:09:31.086Z</time>
      </trkpt>
      <trkpt lat="46.84513" lon="0.43066">
        <ele>157</ele>
        <time>2019-02-17T10:09:32.086Z</time>
      </trkpt>
      <trkpt lat="46.84515" lon="0.4306">
        <ele>157</ele>
        <time>2019-02-17T10:09:33.086Z</time>
      </trkpt>
      <trkpt lat="46.84517" lon="0.43055">
        <ele>157</ele>
        <time>2019-02-17T10:09:34.086Z</time>
      </trkpt>
      <trkpt lat="46.84519" lon="0.43051">
        <ele>157</ele>
        <time>2019-02-17T10:09:35.086Z</time>
      </trkpt>
      <trkpt lat="46.84521" lon="0.43049">
        <ele>157</ele>
        <time>2019-02-17T10:09:36.086Z</time>
      </trkpt>
      <trkpt lat="46.84523" lon="0.43049">
        <ele>157</ele>
        <time>2019-02-17T10:09:37.086Z</time>
      </trkpt>
      <trkpt lat="46.84524" lon="0.43048">
        <ele>158</ele>
        <time>2019-02-17T10:09:38.086Z</time>
      </trkpt>
      <trkpt lat="46.84525" lon="0.43046">
        <ele>158</ele>
        <time>2019-02-17T10:09:39.086Z</time>
      </trkpt>
      <trkpt lat="46.84526" lon="0.43043">
        <ele>158</ele>
        <time>2019-02-17T10:09:40.086Z</time>
      </trkpt>
      <trkpt lat="46.84527" lon="0.43039">
        <ele>157</ele>
        <time>2019-02-17T10:09:41.086Z</time>
      </trkpt>
      <trkpt lat="46.84529" lon="0.43035">
        <ele>158</ele>
        <time>2019-02-17T10:09:42.086Z</time>
      </trkpt>
      <trkpt lat="46.84531" lon="0.43032">
        <ele>158</ele>
        <time>2019-02-17T10:09:43.086Z</time>
      </trkpt>
      <trkpt lat="46.84532" lon="0.43029">
        <ele>158</ele>
        <time>2019-02-17T10:09:44.086Z</time>
      </trkpt>
      <trkpt lat="46.84533" lon="0.43027">
        <ele>158</ele>
        <time>2019-02-17T10:09:45.086Z</time>
      </trkpt>
      <trkpt lat="46.84534" lon="0.43024">
        <ele>158</ele>
        <time>2019-02-17T10:09:46.086Z</time>
      </trkpt>
      <trkpt lat="46.84534" lon="0.43021">
        <ele>159</ele>
        <time>2019-02-17T10:09:47.086Z</time>
      </trkpt>
      <trkpt lat="46.84534" lon="0.43018">
        <ele>159</ele>
        <time>2019-02-17T10:09:48.086Z</time>
      </trkpt>
      <trkpt lat="46.84533" lon="0.43015">
        <ele>159</ele>
        <time>2019-02-17T10:09:49.086Z</time>
      </trkpt>
      <trkpt lat="46.84531" lon="0.43012">
        <ele>159</ele>
        <time>2019-02-17T10:09:50.086Z</time>
      </trkpt>
      <trkpt lat="46.84529" lon="0.43009">
        <ele>159</ele>
        <time>2019-02-17T10:09:51.086Z</time>
      </trkpt>
      <trkpt lat="46.84528" lon="0.43005">
        <ele>160</ele>
        <time>2019-02-17T10:09:52.086Z</time>
      </trkpt>
      <trkpt lat="46.84528" lon="0.43001">
        <ele>160</ele>
        <time>2019-02-17T10:09:53.086Z</time>
      </trkpt>
      <trkpt lat="46.84527" lon="0.42999">
        <ele>160</ele>
        <time>2019-02-17T10:09:54.086Z</time>
      </trkpt>
      <trkpt lat="46.84526" lon="0.42997">
        <ele>160</ele>
        <time>2019-02-17T10:09:55.086Z</time>
      </trkpt>
      <trkpt lat="46.84526" lon="0.42996">
        <ele>161</ele>
        <time>2019-02-17T10:09:56.086Z</time>
      </trkpt>
      <trkpt lat="46.84526" lon="0.42994">
        <ele>161</ele>
        <time>2019-02-17T10:09:57.086Z</time>
      </trkpt>
      <trkpt lat="46.84525" lon="0.42992">
        <ele>162</ele>
        <time>2019-02-17T10:09:58.086Z</time>
      </trkpt>
      <trkpt lat="46.84523" lon="0.4299">
        <ele>162</ele>
        <time>2019-02-17T10:09:59.086Z</time>
      </trkpt>
      <trkpt lat="46.84522" lon="0.42988">
        <ele>162</ele>
        <time>2019-02-17T10:10:00.086Z</time>
      </trkpt>
      <trkpt lat="46.8452" lon="0.42987">
        <ele>162</ele>
        <time>2019-02-17T10:10:01.086Z</time>
      </trkpt>
      <trkpt lat="46.84518" lon="0.42985">
        <ele>161</ele>
        <time>2019-02-17T10:10:02.086Z</time>
      </trkpt>
      <trkpt lat="46.84516" lon="0.42983">
        <ele>160</ele>
        <time>2019-02-17T10:10:03.086Z</time>
      </trkpt>
      <trkpt lat="46.84514" lon="0.4298">
        <ele>161</ele>
        <time>2019-02-17T10:10:04.086Z</time>
      </trkpt>
      <trkpt lat="46.84512" lon="0.42978">
        <ele>160</ele>
        <time>2019-02-17T10:10:05.086Z</time>
      </trkpt>
      <trkpt lat="46.84509" lon="0.42975">
        <ele>160</ele>
        <time>2019-02-17T10:10:06.086Z</time>
      </trkpt>
      <trkpt lat="46.84506" lon="0.42972">
        <ele>160</ele>
        <time>2019-02-17T10:10:07.086Z</time>
      </trkpt>
      <trkpt lat="46.84503" lon="0.4297">
        <ele>159</ele>
        <time>2019-02-17T10:10:08.086Z</time>
      </trkpt>
      <trkpt lat="46.84501" lon="0.42966">
        <ele>159</ele>
        <time>2019-02-17T10:10:09.086Z</time>
      </trkpt>
      <trkpt lat="46.84498" lon="0.42963">
        <ele>159</ele>
        <time>2019-02-17T10:10:10.086Z</time>
      </trkpt>
      <trkpt lat="46.84495" lon="0.42959">
        <ele>159</ele>
        <time>2019-02-17T10:10:11.086Z</time>
      </trkpt>
      <trkpt lat="46.84492" lon="0.42956">
        <ele>159</ele>
        <time>2019-02-17T10:10:12.086Z</time>
      </trkpt>
      <trkpt lat="46.8449" lon="0.42952">
        <ele>160</ele>
        <time>2019-02-17T10:10:13.086Z</time>
      </trkpt>
      <trkpt lat="46.84487" lon="0.42948">
        <ele>159</ele>
        <time>2019-02-17T10:10:14.086Z</time>
      </trkpt>
      <trkpt lat="46.84485" lon="0.42944">
        <ele>160</ele>
        <time>2019-02-17T10:10:15.086Z</time>
      </trkpt>
      <trkpt lat="46.84482" lon="0.42941">
        <ele>160</ele>
        <time>2019-02-17T10:10:16.086Z</time>
      </trkpt>
      <trkpt lat="46.8448" lon="0.42937">
        <ele>160</ele>
        <time>2019-02-17T10:10:17.086Z</time>
      </trkpt>
      <trkpt lat="46.84477" lon="0.42934">
        <ele>160</ele>
        <time>2019-02-17T10:10:18.086Z</time>
      </trkpt>
      <trkpt lat="46.84475" lon="0.4293">
        <ele>159</ele>
        <time>2019-02-17T10:10:19.086Z</time>
      </trkpt>
      <trkpt lat="46.84472" lon="0.42927">
        <ele>159</ele>
        <time>2019-02-17T10:10:20.086Z</time>
      </trkpt>
      <trkpt lat="46.84469" lon="0.42924">
        <ele>158</ele>
        <time>2019-02-17T10:10:21.086Z</time>
      </trkpt>
      <trkpt lat="46.84466" lon="0.42921">
        <ele>158</ele>
        <time>2019-02-17T10:10:22.086Z</time>
      </trkpt>
      <trkpt lat="46.84464" lon="0.42918">
        <ele>158</ele>
        <time>2019-02-17T10:10:23.086Z</time>
      </trkpt>
      <trkpt lat="46.84462" lon="0.42916">
        <ele>158</ele>
        <time>2019-02-17T10:10:24.086Z</time>
      </trkpt>
      <trkpt lat="46.8446" lon="0.42913">
        <ele>158</ele>
        <time>2019-02-17T10:10:25.086Z</time>
      </trkpt>
      <trkpt lat="46.84459" lon="0.42912">
        <ele>158</ele>
        <time>2019-02-17T10:10:26.086Z</time>
      </trkpt>
      <trkpt lat="46.84459" lon="0.4291">
        <ele>158</ele>
        <time>2019-02-17T10:10:27.086Z</time>
      </trkpt>
      <trkpt lat="46.84458" lon="0.42908">
        <ele>158</ele>
        <time>2019-02-17T10:10:28.086Z</time>
      </trkpt>
      <trkpt lat="46.84455" lon="0.42906">
        <ele>158</ele>
        <time>2019-02-17T10:10:29.086Z</time>
      </trkpt>
      <trkpt lat="46.84453" lon="0.42904">
        <ele>158</ele>
        <time>2019-02-17T10:10:30.086Z</time>
      </trkpt>
      <trkpt lat="46.84451" lon="0.42901">
        <ele>158</ele>
        <time>2019-02-17T10:10:31.086Z</time>
      </trkpt>
      <trkpt lat="46.84448" lon="0.42898">
        <ele>158</ele>
        <time>2019-02-17T10:10:32.086Z</time>
      </trkpt>
      <trkpt lat="46.84446" lon="0.42894">
        <ele>158</ele>
        <time>2019-02-17T10:10:33.086Z</time>
      </trkpt>
      <trkpt lat="46.84443" lon="0.42892">
        <ele>157</ele>
        <time>2019-02-17T10:10:34.086Z</time>
      </trkpt>
      <trkpt lat="46.8444" lon="0.42889">
        <ele>157</ele>
        <time>2019-02-17T10:10:35.086Z</time>
      </trkpt>
      <trkpt lat="46.84437" lon="0.42886">
        <ele>157</ele>
        <time>2019-02-17T10:10:36.086Z</time>
      </trkpt>
      <trkpt lat="46.84435" lon="0.42883">
        <ele>157</ele>
        <time>2019-02-17T10:10:37.086Z</time>
      </trkpt>
      <trkpt lat="46.84432" lon="0.42881">
        <ele>157</ele>
        <time>2019-02-17T10:10:38.086Z</time>
      </trkpt>
      <trkpt lat="46.84429" lon="0.42878">
        <ele>157</ele>
        <time>2019-02-17T10:10:39.086Z</time>
      </trkpt>
      <trkpt lat="46.84425" lon="0.42876">
        <ele>156</ele>
        <time>2019-02-17T10:10:40.086Z</time>
      </trkpt>
      <trkpt lat="46.84422" lon="0.42873">
        <ele>156</ele>
        <time>2019-02-17T10:10:41.086Z</time>
      </trkpt>
      <trkpt lat="46.84419" lon="0.4287">
        <ele>156</ele>
        <time>2019-02-17T10:10:42.086Z</time>
      </trkpt>
      <trkpt lat="46.84416" lon="0.42866">
        <ele>156</ele>
        <time>2019-02-17T10:10:43.086Z</time>
      </trkpt>
      <trkpt lat="46.84412" lon="0.42862">
        <ele>155</ele>
        <time>2019-02-17T10:10:44.086Z</time>
      </trkpt>
      <trkpt lat="46.84407" lon="0.42858">
        <ele>154</ele>
        <time>2019-02-17T10:10:45.086Z</time>
      </trkpt>
      <trkpt lat="46.84403" lon="0.42854">
        <ele>152</ele>
        <time>2019-02-17T10:10:46.086Z</time>
      </trkpt>
      <trkpt lat="46.84399" lon="0.4285">
        <ele>151</ele>
        <time>2019-02-17T10:10:47.086Z</time>
      </trkpt>
      <trkpt lat="46.84395" lon="0.42846">
        <ele>150</ele>
        <time>2019-02-17T10:10:48.086Z</time>
      </trkpt>
      <trkpt lat="46.84392" lon="0.42842">
        <ele>150</ele>
        <time>2019-02-17T10:10:49.086Z</time>
      </trkpt>
      <trkpt lat="46.84389" lon="0.42838">
        <ele>150</ele>
        <time>2019-02-17T10:10:50.086Z</time>
      </trkpt>
      <trkpt lat="46.84387" lon="0.42834">
        <ele>150</ele>
        <time>2019-02-17T10:10:51.086Z</time>
      </trkpt>
      <trkpt lat="46.84385" lon="0.42831">
        <ele>150</ele>
        <time>2019-02-17T10:10:52.086Z</time>
      </trkpt>
      <trkpt lat="46.84382" lon="0.42827">
        <ele>149</ele>
        <time>2019-02-17T10:10:53.086Z</time>
      </trkpt>
      <trkpt lat="46.8438" lon="0.42823">
        <ele>149</ele>
        <time>2019-02-17T10:10:54.086Z</time>
      </trkpt>
      <trkpt lat="46.84376" lon="0.4282">
        <ele>148</ele>
        <time>2019-02-17T10:10:55.086Z</time>
      </trkpt>
      <trkpt lat="46.84373" lon="0.42816">
        <ele>149</ele>
        <time>2019-02-17T10:10:56.086Z</time>
      </trkpt>
      <trkpt lat="46.8437" lon="0.42813">
        <ele>149</ele>
        <time>2019-02-17T10:10:57.086Z</time>
      </trkpt>
      <trkpt lat="46.84368" lon="0.42809">
        <ele>149</ele>
        <time>2019-02-17T10:10:58.086Z</time>
      </trkpt>
      <trkpt lat="46.84365" lon="0.42806">
        <ele>149</ele>
        <time>2019-02-17T10:10:59.086Z</time>
      </trkpt>
      <trkpt lat="46.84362" lon="0.42803">
        <ele>148</ele>
        <time>2019-02-17T10:11:00.086Z</time>
      </trkpt>
      <trkpt lat="46.84359" lon="0.42799">
        <ele>148</ele>
        <time>2019-02-17T10:11:01.086Z</time>
      </trkpt>
      <trkpt lat="46.84356" lon="0.42796">
        <ele>147</ele>
        <time>2019-02-17T10:11:02.086Z</time>
      </trkpt>
      <trkpt lat="46.84354" lon="0.42794">
        <ele>147</ele>
        <time>2019-02-17T10:11:03.086Z</time>
      </trkpt>
      <trkpt lat="46.84352" lon="0.42792">
        <ele>147</ele>
        <time>2019-02-17T10:11:04.086Z</time>
      </trkpt>
      <trkpt lat="46.84349" lon="0.4279">
        <ele>147</ele>
        <time>2019-02-17T10:11:05.086Z</time>
      </trkpt>
      <trkpt lat="46.84346" lon="0.42788">
        <ele>146</ele>
        <time>2019-02-17T10:11:06.086Z</time>
      </trkpt>
      <trkpt lat="46.84343" lon="0.42785">
        <ele>145</ele>
        <time>2019-02-17T10:11:07.086Z</time>
      </trkpt>
      <trkpt lat="46.84338" lon="0.42781">
        <ele>144</ele>
        <time>2019-02-17T10:11:08.086Z</time>
      </trkpt>
      <trkpt lat="46.84335" lon="0.42778">
        <ele>144</ele>
        <time>2019-02-17T10:11:09.086Z</time>
      </trkpt>
      <trkpt lat="46.84331" lon="0.42775">
        <ele>144</ele>
        <time>2019-02-17T10:11:10.086Z</time>
      </trkpt>
      <trkpt lat="46.84328" lon="0.42773">
        <ele>143</ele>
        <time>2019-02-17T10:11:11.086Z</time>
      </trkpt>
      <trkpt lat="46.84325" lon="0.4277">
        <ele>143</ele>
        <time>2019-02-17T10:11:12.086Z</time>
      </trkpt>
      <trkpt lat="46.84321" lon="0.42766">
        <ele>142</ele>
        <time>2019-02-17T10:11:13.086Z</time>
      </trkpt>
      <trkpt lat="46.84318" lon="0.42762">
        <ele>141</ele>
        <time>2019-02-17T10:11:14.086Z</time>
      </trkpt>
      <trkpt lat="46.84315" lon="0.42758">
        <ele>140</ele>
        <time>2019-02-17T10:11:15.086Z</time>
      </trkpt>
      <trkpt lat="46.84312" lon="0.42754">
        <ele>140</ele>
        <time>2019-02-17T10:11:16.086Z</time>
      </trkpt>
      <trkpt lat="46.84309" lon="0.42751">
        <ele>140</ele>
        <time>2019-02-17T10:11:17.086Z</time>
      </trkpt>
      <trkpt lat="46.84307" lon="0.42748">
        <ele>140</ele>
        <time>2019-02-17T10:11:18.086Z</time>
      </trkpt>
      <trkpt lat="46.84306" lon="0.42745">
        <ele>141</ele>
        <time>2019-02-17T10:11:19.086Z</time>
      </trkpt>
      <trkpt lat="46.84305" lon="0.42742">
        <ele>141</ele>
        <time>2019-02-17T10:11:20.086Z</time>
      </trkpt>
      <trkpt lat="46.84303" lon="0.4274">
        <ele>141</ele>
        <time>2019-02-17T10:11:21.086Z</time>
      </trkpt>
      <trkpt lat="46.843" lon="0.42738">
        <ele>141</ele>
        <time>2019-02-17T10:11:22.086Z</time>
      </trkpt>
      <trkpt lat="46.84297" lon="0.42735">
        <ele>140</ele>
        <time>2019-02-17T10:11:23.086Z</time>
      </trkpt>
      <trkpt lat="46.84294" lon="0.42731">
        <ele>139</ele>
        <time>2019-02-17T10:11:24.086Z</time>
      </trkpt>
      <trkpt lat="46.84291" lon="0.42728">
        <ele>139</ele>
        <time>2019-02-17T10:11:25.086Z</time>
      </trkpt>
      <trkpt lat="46.84287" lon="0.42726">
        <ele>138</ele>
        <time>2019-02-17T10:11:26.086Z</time>
      </trkpt>
      <trkpt lat="46.84284" lon="0.42723">
        <ele>138</ele>
        <time>2019-02-17T10:11:27.086Z</time>
      </trkpt>
      <trkpt lat="46.84281" lon="0.4272">
        <ele>138</ele>
        <time>2019-02-17T10:11:28.086Z</time>
      </trkpt>
      <trkpt lat="46.84278" lon="0.42717">
        <ele>138</ele>
        <time>2019-02-17T10:11:29.086Z</time>
      </trkpt>
      <trkpt lat="46.84277" lon="0.42714">
        <ele>139</ele>
        <time>2019-02-17T10:11:30.086Z</time>
      </trkpt>
      <trkpt lat="46.84276" lon="0.42711">
        <ele>139</ele>
        <time>2019-02-17T10:11:31.086Z</time>
      </trkpt>
      <trkpt lat="46.84276" lon="0.42709">
        <ele>138</ele>
        <time>2019-02-17T10:11:32.086Z</time>
      </trkpt>
      <trkpt lat="46.84277" lon="0.42707">
        <ele>138</ele>
        <time>2019-02-17T10:11:33.086Z</time>
      </trkpt>
      <trkpt lat="46.84278" lon="0.42706">
        <ele>138</ele>
        <time>2019-02-17T10:11:34.086Z</time>
      </trkpt>
      <trkpt lat="46.8428" lon="0.42705">
        <ele>138</ele>
        <time>2019-02-17T10:11:35.086Z</time>
      </trkpt>
      <trkpt lat="46.84282" lon="0.42702">
        <ele>137</ele>
        <time>2019-02-17T10:11:36.086Z</time>
      </trkpt>
      <trkpt lat="46.84283" lon="0.427">
        <ele>137</ele>
        <time>2019-02-17T10:11:37.086Z</time>
      </trkpt>
      <trkpt lat="46.84286" lon="0.42697">
        <ele>138</ele>
        <time>2019-02-17T10:11:38.086Z</time>
      </trkpt>
      <trkpt lat="46.84288" lon="0.42694">
        <ele>139</ele>
        <time>2019-02-17T10:11:39.086Z</time>
      </trkpt>
      <trkpt lat="46.84291" lon="0.42691">
        <ele>140</ele>
        <time>2019-02-17T10:11:40.086Z</time>
      </trkpt>
      <trkpt lat="46.84294" lon="0.42688">
        <ele>140</ele>
        <time>2019-02-17T10:11:41.086Z</time>
      </trkpt>
      <trkpt lat="46.84299" lon="0.42686">
        <ele>139</ele>
        <time>2019-02-17T10:11:42.086Z</time>
      </trkpt>
      <trkpt lat="46.84303" lon="0.42684">
        <ele>139</ele>
        <time>2019-02-17T10:11:43.086Z</time>
      </trkpt>
      <trkpt lat="46.84307" lon="0.42682">
        <ele>139</ele>
        <time>2019-02-17T10:11:44.086Z</time>
      </trkpt>
      <trkpt lat="46.84311" lon="0.42679">
        <ele>139</ele>
        <time>2019-02-17T10:11:45.086Z</time>
      </trkpt>
      <trkpt lat="46.84314" lon="0.42677">
        <ele>141</ele>
        <time>2019-02-17T10:11:46.086Z</time>
      </trkpt>
      <trkpt lat="46.84318" lon="0.42673">
        <ele>140</ele>
        <time>2019-02-17T10:11:47.086Z</time>
      </trkpt>
      <trkpt lat="46.84323" lon="0.4267">
        <ele>141</ele>
        <time>2019-02-17T10:11:48.086Z</time>
      </trkpt>
      <trkpt lat="46.84328" lon="0.42666">
        <ele>140</ele>
        <time>2019-02-17T10:11:49.086Z</time>
      </trkpt>
      <trkpt lat="46.84333" lon="0.42661">
        <ele>141</ele>
        <time>2019-02-17T10:11:50.086Z</time>
      </trkpt>
      <trkpt lat="46.84338" lon="0.42657">
        <ele>141</ele>
        <time>2019-02-17T10:11:51.086Z</time>
      </trkpt>
      <trkpt lat="46.84343" lon="0.42652">
        <ele>141</ele>
        <time>2019-02-17T10:11:52.086Z</time>
      </trkpt>
      <trkpt lat="46.84347" lon="0.42648">
        <ele>142</ele>
        <time>2019-02-17T10:11:53.086Z</time>
      </trkpt>
      <trkpt lat="46.84351" lon="0.42645">
        <ele>143</ele>
        <time>2019-02-17T10:11:54.086Z</time>
      </trkpt>
      <trkpt lat="46.84356" lon="0.42641">
        <ele>144</ele>
        <time>2019-02-17T10:11:55.086Z</time>
      </trkpt>
      <trkpt lat="46.84361" lon="0.42637">
        <ele>144</ele>
        <time>2019-02-17T10:11:56.086Z</time>
      </trkpt>
      <trkpt lat="46.84367" lon="0.42633">
        <ele>145</ele>
        <time>2019-02-17T10:11:57.086Z</time>
      </trkpt>
      <trkpt lat="46.84373" lon="0.42628">
        <ele>147</ele>
        <time>2019-02-17T10:11:58.086Z</time>
      </trkpt>
      <trkpt lat="46.84378" lon="0.42624">
        <ele>148</ele>
        <time>2019-02-17T10:11:59.086Z</time>
      </trkpt>
      <trkpt lat="46.84382" lon="0.42621">
        <ele>151</ele>
        <time>2019-02-17T10:12:00.086Z</time>
      </trkpt>
      <trkpt lat="46.84387" lon="0.42617">
        <ele>153</ele>
        <time>2019-02-17T10:12:01.086Z</time>
      </trkpt>
      <trkpt lat="46.84392" lon="0.42614">
        <ele>154</ele>
        <time>2019-02-17T10:12:02.086Z</time>
      </trkpt>
      <trkpt lat="46.84397" lon="0.42611">
        <ele>157</ele>
        <time>2019-02-17T10:12:03.086Z</time>
      </trkpt>
      <trkpt lat="46.84402" lon="0.42608">
        <ele>158</ele>
        <time>2019-02-17T10:12:04.086Z</time>
      </trkpt>
      <trkpt lat="46.84408" lon="0.42606">
        <ele>161</ele>
        <time>2019-02-17T10:12:05.086Z</time>
      </trkpt>
      <trkpt lat="46.84413" lon="0.42604">
        <ele>163</ele>
        <time>2019-02-17T10:12:06.086Z</time>
      </trkpt>
      <trkpt lat="46.84418" lon="0.42603">
        <ele>163</ele>
        <time>2019-02-17T10:12:07.086Z</time>
      </trkpt>
      <trkpt lat="46.84423" lon="0.42601">
        <ele>164</ele>
        <time>2019-02-17T10:12:08.086Z</time>
      </trkpt>
      <trkpt lat="46.84427" lon="0.42599">
        <ele>164</ele>
        <time>2019-02-17T10:12:09.086Z</time>
      </trkpt>
      <trkpt lat="46.84431" lon="0.42597">
        <ele>164</ele>
        <time>2019-02-17T10:12:10.086Z</time>
      </trkpt>
      <trkpt lat="46.84436" lon="0.42594">
        <ele>165</ele>
        <time>2019-02-17T10:12:11.086Z</time>
      </trkpt>
      <trkpt lat="46.8444" lon="0.42592">
        <ele>165</ele>
        <time>2019-02-17T10:12:12.086Z</time>
      </trkpt>
      <trkpt lat="46.84444" lon="0.42589">
        <ele>164</ele>
        <time>2019-02-17T10:12:13.086Z</time>
      </trkpt>
      <trkpt lat="46.84449" lon="0.42587">
        <ele>164</ele>
        <time>2019-02-17T10:12:14.086Z</time>
      </trkpt>
      <trkpt lat="46.84454" lon="0.42585">
        <ele>165</ele>
        <time>2019-02-17T10:12:15.086Z</time>
      </trkpt>
      <trkpt lat="46.84459" lon="0.42583">
        <ele>168</ele>
        <time>2019-02-17T10:12:16.086Z</time>
      </trkpt>
      <trkpt lat="46.84464" lon="0.42582">
        <ele>169</ele>
        <time>2019-02-17T10:12:17.086Z</time>
      </trkpt>
      <trkpt lat="46.84468" lon="0.4258">
        <ele>170</ele>
        <time>2019-02-17T10:12:18.086Z</time>
      </trkpt>
      <trkpt lat="46.84473" lon="0.42579">
        <ele>170</ele>
        <time>2019-02-17T10:12:19.086Z</time>
      </trkpt>
      <trkpt lat="46.84477" lon="0.42576">
        <ele>166</ele>
        <time>2019-02-17T10:12:20.086Z</time>
      </trkpt>
      <trkpt lat="46.84481" lon="0.42572">
        <ele>162</ele>
        <time>2019-02-17T10:12:21.086Z</time>
      </trkpt>
      <trkpt lat="46.84485" lon="0.42568">
        <ele>161</ele>
        <time>2019-02-17T10:12:22.086Z</time>
      </trkpt>
      <trkpt lat="46.84489" lon="0.42565">
        <ele>160</ele>
        <time>2019-02-17T10:12:23.086Z</time>
      </trkpt>
      <trkpt lat="46.84494" lon="0.42563">
        <ele>160</ele>
        <time>2019-02-17T10:12:24.086Z</time>
      </trkpt>
      <trkpt lat="46.84498" lon="0.42562">
        <ele>160</ele>
        <time>2019-02-17T10:12:25.086Z</time>
      </trkpt>
      <trkpt lat="46.84502" lon="0.42561">
        <ele>160</ele>
        <time>2019-02-17T10:12:26.086Z</time>
      </trkpt>
      <trkpt lat="46.84506" lon="0.42561">
        <ele>160</ele>
        <time>2019-02-17T10:12:27.086Z</time>
      </trkpt>
      <trkpt lat="46.8451" lon="0.42562">
        <ele>160</ele>
        <time>2019-02-17T10:12:28.086Z</time>
      </trkpt>
      <trkpt lat="46.84514" lon="0.42562">
        <ele>160</ele>
        <time>2019-02-17T10:12:29.086Z</time>
      </trkpt>
      <trkpt lat="46.84519" lon="0.42563">
        <ele>161</ele>
        <time>2019-02-17T10:12:30.086Z</time>
      </trkpt>
      <trkpt lat="46.84523" lon="0.42563">
        <ele>161</ele>
        <time>2019-02-17T10:12:31.086Z</time>
      </trkpt>
      <trkpt lat="46.84527" lon="0.42563">
        <ele>161</ele>
        <time>2019-02-17T10:12:32.086Z</time>
      </trkpt>
      <trkpt lat="46.84531" lon="0.42563">
        <ele>160</ele>
        <time>2019-02-17T10:12:33.086Z</time>
      </trkpt>
      <trkpt lat="46.84535" lon="0.42563">
        <ele>161</ele>
        <time>2019-02-17T10:12:34.086Z</time>
      </trkpt>
      <trkpt lat="46.84539" lon="0.42563">
        <ele>161</ele>
        <time>2019-02-17T10:12:35.086Z</time>
      </trkpt>
      <trkpt lat="46.84544" lon="0.42563">
        <ele>162</ele>
        <time>2019-02-17T10:12:36.086Z</time>
      </trkpt>
      <trkpt lat="46.84548" lon="0.42562">
        <ele>161</ele>
        <time>2019-02-17T10:12:37.086Z</time>
      </trkpt>
      <trkpt lat="46.84552" lon="0.42561">
        <ele>161</ele>
        <time>2019-02-17T10:12:38.086Z</time>
      </trkpt>
      <trkpt lat="46.84556" lon="0.42561">
        <ele>161</ele>
        <time>2019-02-17T10:12:39.086Z</time>
      </trkpt>
      <trkpt lat="46.84561" lon="0.4256">
        <ele>161</ele>
        <time>2019-02-17T10:12:40.086Z</time>
      </trkpt>
      <trkpt lat="46.84565" lon="0.42559">
        <ele>161</ele>
        <time>2019-02-17T10:12:41.086Z</time>
      </trkpt>
      <trkpt lat="46.8457" lon="0.42557">
        <ele>161</ele>
        <time>2019-02-17T10:12:42.086Z</time>
      </trkpt>
      <trkpt lat="46.84574" lon="0.42556">
        <ele>161</ele>
        <time>2019-02-17T10:12:43.086Z</time>
      </trkpt>
      <trkpt lat="46.84578" lon="0.42555">
        <ele>161</ele>
        <time>2019-02-17T10:12:44.086Z</time>
      </trkpt>
      <trkpt lat="46.84583" lon="0.42553">
        <ele>161</ele>
        <time>2019-02-17T10:12:45.086Z</time>
      </trkpt>
      <trkpt lat="46.84587" lon="0.42552">
        <ele>161</ele>
        <time>2019-02-17T10:12:46.086Z</time>
      </trkpt>
      <trkpt lat="46.84592" lon="0.42551">
        <ele>160</ele>
        <time>2019-02-17T10:12:47.086Z</time>
      </trkpt>
      <trkpt lat="46.84597" lon="0.42549">
        <ele>160</ele>
        <time>2019-02-17T10:12:48.086Z</time>
      </trkpt>
      <trkpt lat="46.84601" lon="0.42548">
        <ele>160</ele>
        <time>2019-02-17T10:12:49.086Z</time>
      </trkpt>
      <trkpt lat="46.84606" lon="0.42547">
        <ele>159</ele>
        <time>2019-02-17T10:12:50.086Z</time>
      </trkpt>
      <trkpt lat="46.84611" lon="0.42546">
        <ele>158</ele>
        <time>2019-02-17T10:12:51.086Z</time>
      </trkpt>
      <trkpt lat="46.84615" lon="0.42545">
        <ele>158</ele>
        <time>2019-02-17T10:12:52.086Z</time>
      </trkpt>
      <trkpt lat="46.8462" lon="0.42544">
        <ele>158</ele>
        <time>2019-02-17T10:12:53.086Z</time>
      </trkpt>
      <trkpt lat="46.84625" lon="0.42544">
        <ele>158</ele>
        <time>2019-02-17T10:12:54.086Z</time>
      </trkpt>
      <trkpt lat="46.8463" lon="0.42544">
        <ele>158</ele>
        <time>2019-02-17T10:12:55.086Z</time>
      </trkpt>
      <trkpt lat="46.84635" lon="0.42544">
        <ele>158</ele>
        <time>2019-02-17T10:12:56.086Z</time>
      </trkpt>
      <trkpt lat="46.84639" lon="0.42545">
        <ele>158</ele>
        <time>2019-02-17T10:12:57.086Z</time>
      </trkpt>
      <trkpt lat="46.84644" lon="0.42546">
        <ele>158</ele>
        <time>2019-02-17T10:12:58.086Z</time>
      </trkpt>
      <trkpt lat="46.84649" lon="0.42548">
        <ele>158</ele>
        <time>2019-02-17T10:12:59.086Z</time>
      </trkpt>
      <trkpt lat="46.84653" lon="0.42549">
        <ele>158</ele>
        <time>2019-02-17T10:13:00.086Z</time>
      </trkpt>
      <trkpt lat="46.84657" lon="0.42551">
        <ele>158</ele>
        <time>2019-02-17T10:13:01.086Z</time>
      </trkpt>
      <trkpt lat="46.84662" lon="0.42552">
        <ele>158</ele>
        <time>2019-02-17T10:13:02.086Z</time>
      </trkpt>
      <trkpt lat="46.84666" lon="0.42553">
        <ele>159</ele>
        <time>2019-02-17T10:13:03.086Z</time>
      </trkpt>
      <trkpt lat="46.84671" lon="0.42553">
        <ele>159</ele>
        <time>2019-02-17T10:13:04.086Z</time>
      </trkpt>
      <trkpt lat="46.84675" lon="0.42553">
        <ele>159</ele>
        <time>2019-02-17T10:13:05.086Z</time>
      </trkpt>
      <trkpt lat="46.8468" lon="0.42551">
        <ele>160</ele>
        <time>2019-02-17T10:13:06.086Z</time>
      </trkpt>
      <trkpt lat="46.84684" lon="0.4255">
        <ele>160</ele>
        <time>2019-02-17T10:13:07.086Z</time>
      </trkpt>
      <trkpt lat="46.84688" lon="0.42548">
        <ele>161</ele>
        <time>2019-02-17T10:13:08.086Z</time>
      </trkpt>
      <trkpt lat="46.84692" lon="0.42546">
        <ele>161</ele>
        <time>2019-02-17T10:13:09.086Z</time>
      </trkpt>
      <trkpt lat="46.84695" lon="0.42544">
        <ele>161</ele>
        <time>2019-02-17T10:13:10.086Z</time>
      </trkpt>
      <trkpt lat="46.84699" lon="0.42542">
        <ele>161</ele>
        <time>2019-02-17T10:13:11.086Z</time>
      </trkpt>
      <trkpt lat="46.84702" lon="0.42539">
        <ele>160</ele>
        <time>2019-02-17T10:13:12.086Z</time>
      </trkpt>
      <trkpt lat="46.84706" lon="0.42537">
        <ele>160</ele>
        <time>2019-02-17T10:13:13.086Z</time>
      </trkpt>
      <trkpt lat="46.84709" lon="0.42535">
        <ele>160</ele>
        <time>2019-02-17T10:13:14.086Z</time>
      </trkpt>
      <trkpt lat="46.84712" lon="0.42532">
        <ele>160</ele>
        <time>2019-02-17T10:13:15.086Z</time>
      </trkpt>
      <trkpt lat="46.84715" lon="0.4253">
        <ele>160</ele>
        <time>2019-02-17T10:13:16.086Z</time>
      </trkpt>
      <trkpt lat="46.84718" lon="0.42528">
        <ele>161</ele>
        <time>2019-02-17T10:13:17.086Z</time>
      </trkpt>
      <trkpt lat="46.84721" lon="0.42525">
        <ele>161</ele>
        <time>2019-02-17T10:13:18.086Z</time>
      </trkpt>
      <trkpt lat="46.84724" lon="0.42523">
        <ele>162</ele>
        <time>2019-02-17T10:13:19.086Z</time>
      </trkpt>
      <trkpt lat="46.84727" lon="0.4252">
        <ele>162</ele>
        <time>2019-02-17T10:13:20.086Z</time>
      </trkpt>
      <trkpt lat="46.8473" lon="0.42518">
        <ele>162</ele>
        <time>2019-02-17T10:13:21.086Z</time>
      </trkpt>
      <trkpt lat="46.84732" lon="0.42515">
        <ele>162</ele>
        <time>2019-02-17T10:13:22.086Z</time>
      </trkpt>
      <trkpt lat="46.84734" lon="0.42512">
        <ele>162</ele>
        <time>2019-02-17T10:13:23.086Z</time>
      </trkpt>
      <trkpt lat="46.84736" lon="0.42509">
        <ele>161</ele>
        <time>2019-02-17T10:13:24.086Z</time>
      </trkpt>
      <trkpt lat="46.84738" lon="0.42505">
        <ele>160</ele>
        <time>2019-02-17T10:13:25.086Z</time>
      </trkpt>
      <trkpt lat="46.84739" lon="0.42501">
        <ele>160</ele>
        <time>2019-02-17T10:13:26.086Z</time>
      </trkpt>
      <trkpt lat="46.8474" lon="0.42497">
        <ele>160</ele>
        <time>2019-02-17T10:13:27.086Z</time>
      </trkpt>
      <trkpt lat="46.84743" lon="0.42493">
        <ele>160</ele>
        <time>2019-02-17T10:13:28.086Z</time>
      </trkpt>
      <trkpt lat="46.84745" lon="0.42489">
        <ele>159</ele>
        <time>2019-02-17T10:13:29.086Z</time>
      </trkpt>
      <trkpt lat="46.84747" lon="0.42485">
        <ele>160</ele>
        <time>2019-02-17T10:13:30.086Z</time>
      </trkpt>
      <trkpt lat="46.84748" lon="0.4248">
        <ele>160</ele>
        <time>2019-02-17T10:13:31.086Z</time>
      </trkpt>
      <trkpt lat="46.84749" lon="0.42476">
        <ele>159</ele>
        <time>2019-02-17T10:13:32.086Z</time>
      </trkpt>
      <trkpt lat="46.84749" lon="0.42472">
        <ele>160</ele>
        <time>2019-02-17T10:13:33.086Z</time>
      </trkpt>
      <trkpt lat="46.8475" lon="0.42468">
        <ele>159</ele>
        <time>2019-02-17T10:13:34.086Z</time>
      </trkpt>
      <trkpt lat="46.84751" lon="0.42464">
        <ele>159</ele>
        <time>2019-02-17T10:13:35.086Z</time>
      </trkpt>
      <trkpt lat="46.84753" lon="0.42459">
        <ele>159</ele>
        <time>2019-02-17T10:13:36.086Z</time>
      </trkpt>
      <trkpt lat="46.84754" lon="0.42455">
        <ele>158</ele>
        <time>2019-02-17T10:13:37.086Z</time>
      </trkpt>
      <trkpt lat="46.84755" lon="0.42452">
        <ele>158</ele>
        <time>2019-02-17T10:13:38.086Z</time>
      </trkpt>
      <trkpt lat="46.84756" lon="0.42449">
        <ele>158</ele>
        <time>2019-02-17T10:13:39.086Z</time>
      </trkpt>
      <trkpt lat="46.84757" lon="0.42445">
        <ele>158</ele>
        <time>2019-02-17T10:13:40.086Z</time>
      </trkpt>
      <trkpt lat="46.84758" lon="0.42441">
        <ele>158</ele>
        <time>2019-02-17T10:13:41.086Z</time>
      </trkpt>
      <trkpt lat="46.8476" lon="0.42437">
        <ele>158</ele>
        <time>2019-02-17T10:13:42.086Z</time>
      </trkpt>
      <trkpt lat="46.84761" lon="0.42433">
        <ele>159</ele>
        <time>2019-02-17T10:13:43.086Z</time>
      </trkpt>
      <trkpt lat="46.84762" lon="0.42429">
        <ele>158</ele>
        <time>2019-02-17T10:13:44.086Z</time>
      </trkpt>
      <trkpt lat="46.84763" lon="0.42425">
        <ele>159</ele>
        <time>2019-02-17T10:13:45.086Z</time>
      </trkpt>
      <trkpt lat="46.84764" lon="0.42421">
        <ele>159</ele>
        <time>2019-02-17T10:13:46.086Z</time>
      </trkpt>
      <trkpt lat="46.84766" lon="0.42417">
        <ele>159</ele>
        <time>2019-02-17T10:13:47.086Z</time>
      </trkpt>
      <trkpt lat="46.84767" lon="0.42413">
        <ele>159</ele>
        <time>2019-02-17T10:13:48.086Z</time>
      </trkpt>
      <trkpt lat="46.84768" lon="0.42409">
        <ele>159</ele>
        <time>2019-02-17T10:13:49.086Z</time>
      </trkpt>
      <trkpt lat="46.84769" lon="0.42404">
        <ele>159</ele>
        <time>2019-02-17T10:13:50.086Z</time>
      </trkpt>
      <trkpt lat="46.84771" lon="0.424">
        <ele>159</ele>
        <time>2019-02-17T10:13:51.086Z</time>
      </trkpt>
      <trkpt lat="46.84772" lon="0.42395">
        <ele>159</ele>
        <time>2019-02-17T10:13:52.086Z</time>
      </trkpt>
      <trkpt lat="46.84772" lon="0.4239">
        <ele>159</ele>
        <time>2019-02-17T10:13:53.086Z</time>
      </trkpt>
      <trkpt lat="46.84773" lon="0.42385">
        <ele>159</ele>
        <time>2019-02-17T10:13:54.086Z</time>
      </trkpt>
      <trkpt lat="46.84774" lon="0.42381">
        <ele>159</ele>
        <time>2019-02-17T10:13:55.086Z</time>
      </trkpt>
      <trkpt lat="46.84774" lon="0.42377">
        <ele>158</ele>
        <time>2019-02-17T10:13:56.086Z</time>
      </trkpt>
      <trkpt lat="46.84776" lon="0.42375">
        <ele>158</ele>
        <time>2019-02-17T10:13:57.086Z</time>
      </trkpt>
      <trkpt lat="46.84778" lon="0.42373">
        <ele>157</ele>
        <time>2019-02-17T10:13:58.086Z</time>
      </trkpt>
      <trkpt lat="46.8478" lon="0.4237">
        <ele>157</ele>
        <time>2019-02-17T10:13:59.086Z</time>
      </trkpt>
      <trkpt lat="46.84783" lon="0.42367">
        <ele>158</ele>
        <time>2019-02-17T10:14:00.086Z</time>
      </trkpt>
      <trkpt lat="46.84784" lon="0.42363">
        <ele>158</ele>
        <time>2019-02-17T10:14:01.086Z</time>
      </trkpt>
      <trkpt lat="46.84786" lon="0.42358">
        <ele>157</ele>
        <time>2019-02-17T10:14:02.086Z</time>
      </trkpt>
      <trkpt lat="46.84787" lon="0.42352">
        <ele>157</ele>
        <time>2019-02-17T10:14:03.086Z</time>
      </trkpt>
      <trkpt lat="46.84788" lon="0.42348">
        <ele>156</ele>
        <time>2019-02-17T10:14:04.086Z</time>
      </trkpt>
      <trkpt lat="46.84789" lon="0.42343">
        <ele>156</ele>
        <time>2019-02-17T10:14:05.086Z</time>
      </trkpt>
      <trkpt lat="46.84789" lon="0.42338">
        <ele>156</ele>
        <time>2019-02-17T10:14:06.086Z</time>
      </trkpt>
      <trkpt lat="46.84789" lon="0.42332">
        <ele>156</ele>
        <time>2019-02-17T10:14:07.086Z</time>
      </trkpt>
      <trkpt lat="46.8479" lon="0.42328">
        <ele>156</ele>
        <time>2019-02-17T10:14:08.086Z</time>
      </trkpt>
      <trkpt lat="46.84791" lon="0.42323">
        <ele>156</ele>
        <time>2019-02-17T10:14:09.086Z</time>
      </trkpt>
      <trkpt lat="46.84792" lon="0.42318">
        <ele>156</ele>
        <time>2019-02-17T10:14:10.086Z</time>
      </trkpt>
      <trkpt lat="46.84792" lon="0.42312">
        <ele>154</ele>
        <time>2019-02-17T10:14:11.086Z</time>
      </trkpt>
      <trkpt lat="46.84792" lon="0.42307">
        <ele>152</ele>
        <time>2019-02-17T10:14:12.086Z</time>
      </trkpt>
      <trkpt lat="46.84792" lon="0.42301">
        <ele>152</ele>
        <time>2019-02-17T10:14:13.086Z</time>
      </trkpt>
      <trkpt lat="46.84793" lon="0.42296">
        <ele>152</ele>
        <time>2019-02-17T10:14:14.086Z</time>
      </trkpt>
      <trkpt lat="46.84794" lon="0.4229">
        <ele>152</ele>
        <time>2019-02-17T10:14:15.086Z</time>
      </trkpt>
      <trkpt lat="46.84795" lon="0.42285">
        <ele>151</ele>
        <time>2019-02-17T10:14:16.086Z</time>
      </trkpt>
      <trkpt lat="46.84796" lon="0.4228">
        <ele>151</ele>
        <time>2019-02-17T10:14:17.086Z</time>
      </trkpt>
      <trkpt lat="46.84796" lon="0.42275">
        <ele>152</ele>
        <time>2019-02-17T10:14:18.086Z</time>
      </trkpt>
      <trkpt lat="46.84797" lon="0.4227">
        <ele>152</ele>
        <time>2019-02-17T10:14:19.086Z</time>
      </trkpt>
      <trkpt lat="46.84798" lon="0.42266">
        <ele>152</ele>
        <time>2019-02-17T10:14:20.086Z</time>
      </trkpt>
      <trkpt lat="46.84798" lon="0.42261">
        <ele>152</ele>
        <time>2019-02-17T10:14:21.086Z</time>
      </trkpt>
      <trkpt lat="46.848" lon="0.42256">
        <ele>152</ele>
        <time>2019-02-17T10:14:22.086Z</time>
      </trkpt>
      <trkpt lat="46.84801" lon="0.42251">
        <ele>152</ele>
        <time>2019-02-17T10:14:23.086Z</time>
      </trkpt>
      <trkpt lat="46.84802" lon="0.42246">
        <ele>152</ele>
        <time>2019-02-17T10:14:24.086Z</time>
      </trkpt>
      <trkpt lat="46.84803" lon="0.42241">
        <ele>152</ele>
        <time>2019-02-17T10:14:25.086Z</time>
      </trkpt>
      <trkpt lat="46.84804" lon="0.42236">
        <ele>152</ele>
        <time>2019-02-17T10:14:26.086Z</time>
      </trkpt>
      <trkpt lat="46.84805" lon="0.42231">
        <ele>153</ele>
        <time>2019-02-17T10:14:27.086Z</time>
      </trkpt>
      <trkpt lat="46.84806" lon="0.42227">
        <ele>153</ele>
        <time>2019-02-17T10:14:28.086Z</time>
      </trkpt>
      <trkpt lat="46.84807" lon="0.42223">
        <ele>153</ele>
        <time>2019-02-17T10:14:29.086Z</time>
      </trkpt>
      <trkpt lat="46.84808" lon="0.42219">
        <ele>153</ele>
        <time>2019-02-17T10:14:30.086Z</time>
      </trkpt>
      <trkpt lat="46.84809" lon="0.42216">
        <ele>153</ele>
        <time>2019-02-17T10:14:31.086Z</time>
      </trkpt>
      <trkpt lat="46.8481" lon="0.42213">
        <ele>154</ele>
        <time>2019-02-17T10:14:32.086Z</time>
      </trkpt>
      <trkpt lat="46.84809" lon="0.42211">
        <ele>152</ele>
        <time>2019-02-17T10:14:33.086Z</time>
      </trkpt>
      <trkpt lat="46.84806" lon="0.42208">
        <ele>151</ele>
        <time>2019-02-17T10:14:34.086Z</time>
      </trkpt>
      <trkpt lat="46.84804" lon="0.42204">
        <ele>149</ele>
        <time>2019-02-17T10:14:35.086Z</time>
      </trkpt>
      <trkpt lat="46.84803" lon="0.42201">
        <ele>148</ele>
        <time>2019-02-17T10:14:36.086Z</time>
      </trkpt>
      <trkpt lat="46.84802" lon="0.42197">
        <ele>147</ele>
        <time>2019-02-17T10:14:37.086Z</time>
      </trkpt>
      <trkpt lat="46.84802" lon="0.42192">
        <ele>146</ele>
        <time>2019-02-17T10:14:38.086Z</time>
      </trkpt>
      <trkpt lat="46.84802" lon="0.42188">
        <ele>145</ele>
        <time>2019-02-17T10:14:39.086Z</time>
      </trkpt>
      <trkpt lat="46.84803" lon="0.42185">
        <ele>144</ele>
        <time>2019-02-17T10:14:40.086Z</time>
      </trkpt>
      <trkpt lat="46.84805" lon="0.42183">
        <ele>144</ele>
        <time>2019-02-17T10:14:41.086Z</time>
      </trkpt>
      <trkpt lat="46.84808" lon="0.42182">
        <ele>144</ele>
        <time>2019-02-17T10:14:42.086Z</time>
      </trkpt>
      <trkpt lat="46.84811" lon="0.42182">
        <ele>143</ele>
        <time>2019-02-17T10:14:43.086Z</time>
      </trkpt>
      <trkpt lat="46.84814" lon="0.42181">
        <ele>142</ele>
        <time>2019-02-17T10:14:44.086Z</time>
      </trkpt>
      <trkpt lat="46.84817" lon="0.42182">
        <ele>141</ele>
        <time>2019-02-17T10:14:45.086Z</time>
      </trkpt>
      <trkpt lat="46.8482" lon="0.42182">
        <ele>143</ele>
        <time>2019-02-17T10:14:46.086Z</time>
      </trkpt>
      <trkpt lat="46.84824" lon="0.42182">
        <ele>144</ele>
        <time>2019-02-17T10:14:47.086Z</time>
      </trkpt>
      <trkpt lat="46.84828" lon="0.42182">
        <ele>144</ele>
        <time>2019-02-17T10:14:48.086Z</time>
      </trkpt>
      <trkpt lat="46.84832" lon="0.42181">
        <ele>143</ele>
        <time>2019-02-17T10:14:49.086Z</time>
      </trkpt>
      <trkpt lat="46.84836" lon="0.42179">
        <ele>143</ele>
        <time>2019-02-17T10:14:50.086Z</time>
      </trkpt>
      <trkpt lat="46.8484" lon="0.42177">
        <ele>144</ele>
        <time>2019-02-17T10:14:51.086Z</time>
      </trkpt>
      <trkpt lat="46.84844" lon="0.42176">
        <ele>145</ele>
        <time>2019-02-17T10:14:52.086Z</time>
      </trkpt>
      <trkpt lat="46.84848" lon="0.42175">
        <ele>146</ele>
        <time>2019-02-17T10:14:53.086Z</time>
      </trkpt>
      <trkpt lat="46.84853" lon="0.42175">
        <ele>145</ele>
        <time>2019-02-17T10:14:54.086Z</time>
      </trkpt>
      <trkpt lat="46.84857" lon="0.42175">
        <ele>146</ele>
        <time>2019-02-17T10:14:55.086Z</time>
      </trkpt>
      <trkpt lat="46.84861" lon="0.42175">
        <ele>146</ele>
        <time>2019-02-17T10:14:56.086Z</time>
      </trkpt>
      <trkpt lat="46.84865" lon="0.42174">
        <ele>146</ele>
        <time>2019-02-17T10:14:57.086Z</time>
      </trkpt>
      <trkpt lat="46.84868" lon="0.42172">
        <ele>147</ele>
        <time>2019-02-17T10:14:58.086Z</time>
      </trkpt>
      <trkpt lat="46.84872" lon="0.42171">
        <ele>148</ele>
        <time>2019-02-17T10:14:59.086Z</time>
      </trkpt>
      <trkpt lat="46.84874" lon="0.4217">
        <ele>147</ele>
        <time>2019-02-17T10:15:00.086Z</time>
      </trkpt>
      <trkpt lat="46.84874" lon="0.42169">
        <ele>146</ele>
        <time>2019-02-17T10:15:01.086Z</time>
      </trkpt>
      <trkpt lat="46.84873" lon="0.42167">
        <ele>145</ele>
        <time>2019-02-17T10:15:02.086Z</time>
      </trkpt>
      <trkpt lat="46.84873" lon="0.42163">
        <ele>144</ele>
        <time>2019-02-17T10:15:03.086Z</time>
      </trkpt>
      <trkpt lat="46.84875" lon="0.42158">
        <ele>143</ele>
        <time>2019-02-17T10:15:04.086Z</time>
      </trkpt>
      <trkpt lat="46.84876" lon="0.42152">
        <ele>143</ele>
        <time>2019-02-17T10:15:05.086Z</time>
      </trkpt>
      <trkpt lat="46.84878" lon="0.42146">
        <ele>141</ele>
        <time>2019-02-17T10:15:06.086Z</time>
      </trkpt>
      <trkpt lat="46.8488" lon="0.42141">
        <ele>140</ele>
        <time>2019-02-17T10:15:07.086Z</time>
      </trkpt>
      <trkpt lat="46.84883" lon="0.42136">
        <ele>140</ele>
        <time>2019-02-17T10:15:08.086Z</time>
      </trkpt>
      <trkpt lat="46.84886" lon="0.42133">
        <ele>140</ele>
        <time>2019-02-17T10:15:09.086Z</time>
      </trkpt>
      <trkpt lat="46.8489" lon="0.4213">
        <ele>139</ele>
        <time>2019-02-17T10:15:10.086Z</time>
      </trkpt>
      <trkpt lat="46.84894" lon="0.42127">
        <ele>138</ele>
        <time>2019-02-17T10:15:11.086Z</time>
      </trkpt>
      <trkpt lat="46.84898" lon="0.42124">
        <ele>139</ele>
        <time>2019-02-17T10:15:12.086Z</time>
      </trkpt>
      <trkpt lat="46.84902" lon="0.42119">
        <ele>139</ele>
        <time>2019-02-17T10:15:13.086Z</time>
      </trkpt>
      <trkpt lat="46.84906" lon="0.42114">
        <ele>138</ele>
        <time>2019-02-17T10:15:14.086Z</time>
      </trkpt>
      <trkpt lat="46.84909" lon="0.42108">
        <ele>140</ele>
        <time>2019-02-17T10:15:15.086Z</time>
      </trkpt>
      <trkpt lat="46.84913" lon="0.42102">
        <ele>140</ele>
        <time>2019-02-17T10:15:16.086Z</time>
      </trkpt>
      <trkpt lat="46.84916" lon="0.42097">
        <ele>141</ele>
        <time>2019-02-17T10:15:17.086Z</time>
      </trkpt>
      <trkpt lat="46.84919" lon="0.42092">
        <ele>142</ele>
        <time>2019-02-17T10:15:18.086Z</time>
      </trkpt>
      <trkpt lat="46.84922" lon="0.42089">
        <ele>143</ele>
        <time>2019-02-17T10:15:19.086Z</time>
      </trkpt>
      <trkpt lat="46.84924" lon="0.42085">
        <ele>144</ele>
        <time>2019-02-17T10:15:20.086Z</time>
      </trkpt>
      <trkpt lat="46.84927" lon="0.42081">
        <ele>145</ele>
        <time>2019-02-17T10:15:21.086Z</time>
      </trkpt>
      <trkpt lat="46.8493" lon="0.42078">
        <ele>146</ele>
        <time>2019-02-17T10:15:22.086Z</time>
      </trkpt>
      <trkpt lat="46.84933" lon="0.42075">
        <ele>146</ele>
        <time>2019-02-17T10:15:23.086Z</time>
      </trkpt>
      <trkpt lat="46.84935" lon="0.42071">
        <ele>147</ele>
        <time>2019-02-17T10:15:24.086Z</time>
      </trkpt>
      <trkpt lat="46.84937" lon="0.42068">
        <ele>147</ele>
        <time>2019-02-17T10:15:25.086Z</time>
      </trkpt>
      <trkpt lat="46.84939" lon="0.42065">
        <ele>148</ele>
        <time>2019-02-17T10:15:26.086Z</time>
      </trkpt>
      <trkpt lat="46.84941" lon="0.42063">
        <ele>148</ele>
        <time>2019-02-17T10:15:27.086Z</time>
      </trkpt>
      <trkpt lat="46.84942" lon="0.42061">
        <ele>148</ele>
        <time>2019-02-17T10:15:28.086Z</time>
      </trkpt>
      <trkpt lat="46.84944" lon="0.42059">
        <ele>149</ele>
        <time>2019-02-17T10:15:29.086Z</time>
      </trkpt>
      <trkpt lat="46.84946" lon="0.42055">
        <ele>150</ele>
        <time>2019-02-17T10:15:30.086Z</time>
      </trkpt>
      <trkpt lat="46.84948" lon="0.42052">
        <ele>150</ele>
        <time>2019-02-17T10:15:31.086Z</time>
      </trkpt>
      <trkpt lat="46.8495" lon="0.42048">
        <ele>150</ele>
        <time>2019-02-17T10:15:32.086Z</time>
      </trkpt>
      <trkpt lat="46.84951" lon="0.42046">
        <ele>150</ele>
        <time>2019-02-17T10:15:33.086Z</time>
      </trkpt>
      <trkpt lat="46.84952" lon="0.42042">
        <ele>150</ele>
        <time>2019-02-17T10:15:34.086Z</time>
      </trkpt>
      <trkpt lat="46.84954" lon="0.42038">
        <ele>149</ele>
        <time>2019-02-17T10:15:35.086Z</time>
      </trkpt>
      <trkpt lat="46.84956" lon="0.42034">
        <ele>150</ele>
        <time>2019-02-17T10:15:36.086Z</time>
      </trkpt>
      <trkpt lat="46.84959" lon="0.42032">
        <ele>151</ele>
        <time>2019-02-17T10:15:37.086Z</time>
      </trkpt>
      <trkpt lat="46.84961" lon="0.4203">
        <ele>151</ele>
        <time>2019-02-17T10:15:38.086Z</time>
      </trkpt>
      <trkpt lat="46.84964" lon="0.42027">
        <ele>149</ele>
        <time>2019-02-17T10:15:39.086Z</time>
      </trkpt>
      <trkpt lat="46.84967" lon="0.42023">
        <ele>148</ele>
        <time>2019-02-17T10:15:40.086Z</time>
      </trkpt>
      <trkpt lat="46.84969" lon="0.42018">
        <ele>149</ele>
        <time>2019-02-17T10:15:41.086Z</time>
      </trkpt>
      <trkpt lat="46.84972" lon="0.42013">
        <ele>149</ele>
        <time>2019-02-17T10:15:42.086Z</time>
      </trkpt>
      <trkpt lat="46.84974" lon="0.42008">
        <ele>149</ele>
        <time>2019-02-17T10:15:43.086Z</time>
      </trkpt>
      <trkpt lat="46.84977" lon="0.42004">
        <ele>147</ele>
        <time>2019-02-17T10:15:44.086Z</time>
      </trkpt>
      <trkpt lat="46.84978" lon="0.42">
        <ele>146</ele>
        <time>2019-02-17T10:15:45.086Z</time>
      </trkpt>
      <trkpt lat="46.8498" lon="0.41994">
        <ele>145</ele>
        <time>2019-02-17T10:15:46.086Z</time>
      </trkpt>
      <trkpt lat="46.84982" lon="0.4199">
        <ele>144</ele>
        <time>2019-02-17T10:15:47.086Z</time>
      </trkpt>
      <trkpt lat="46.84984" lon="0.41986">
        <ele>143</ele>
        <time>2019-02-17T10:15:48.086Z</time>
      </trkpt>
      <trkpt lat="46.84986" lon="0.41982">
        <ele>143</ele>
        <time>2019-02-17T10:15:49.086Z</time>
      </trkpt>
      <trkpt lat="46.84988" lon="0.41979">
        <ele>142</ele>
        <time>2019-02-17T10:15:50.086Z</time>
      </trkpt>
      <trkpt lat="46.8499" lon="0.41976">
        <ele>141</ele>
        <time>2019-02-17T10:15:51.086Z</time>
      </trkpt>
      <trkpt lat="46.84992" lon="0.41973">
        <ele>141</ele>
        <time>2019-02-17T10:15:52.086Z</time>
      </trkpt>
      <trkpt lat="46.84993" lon="0.4197">
        <ele>141</ele>
        <time>2019-02-17T10:15:53.086Z</time>
      </trkpt>
      <trkpt lat="46.84994" lon="0.41966">
        <ele>140</ele>
        <time>2019-02-17T10:15:54.086Z</time>
      </trkpt>
      <trkpt lat="46.84996" lon="0.41962">
        <ele>139</ele>
        <time>2019-02-17T10:15:55.086Z</time>
      </trkpt>
      <trkpt lat="46.84997" lon="0.41957">
        <ele>137</ele>
        <time>2019-02-17T10:15:56.086Z</time>
      </trkpt>
      <trkpt lat="46.84999" lon="0.41953">
        <ele>136</ele>
        <time>2019-02-17T10:15:57.086Z</time>
      </trkpt>
      <trkpt lat="46.85001" lon="0.41949">
        <ele>136</ele>
        <time>2019-02-17T10:15:58.086Z</time>
      </trkpt>
      <trkpt lat="46.85002" lon="0.41946">
        <ele>136</ele>
        <time>2019-02-17T10:15:59.086Z</time>
      </trkpt>
      <trkpt lat="46.85004" lon="0.41942">
        <ele>135</ele>
        <time>2019-02-17T10:16:00.086Z</time>
      </trkpt>
      <trkpt lat="46.85005" lon="0.41937">
        <ele>134</ele>
        <time>2019-02-17T10:16:01.086Z</time>
      </trkpt>
      <trkpt lat="46.85007" lon="0.41932">
        <ele>132</ele>
        <time>2019-02-17T10:16:02.086Z</time>
      </trkpt>
      <trkpt lat="46.85009" lon="0.41927">
        <ele>130</ele>
        <time>2019-02-17T10:16:03.086Z</time>
      </trkpt>
      <trkpt lat="46.8501" lon="0.41922">
        <ele>128</ele>
        <time>2019-02-17T10:16:04.086Z</time>
      </trkpt>
      <trkpt lat="46.85011" lon="0.41917">
        <ele>127</ele>
        <time>2019-02-17T10:16:05.086Z</time>
      </trkpt>
      <trkpt lat="46.85012" lon="0.41912">
        <ele>126</ele>
        <time>2019-02-17T10:16:06.086Z</time>
      </trkpt>
      <trkpt lat="46.85014" lon="0.41908">
        <ele>128</ele>
        <time>2019-02-17T10:16:07.086Z</time>
      </trkpt>
      <trkpt lat="46.85015" lon="0.41904">
        <ele>127</ele>
        <time>2019-02-17T10:16:08.086Z</time>
      </trkpt>
      <trkpt lat="46.85016" lon="0.41901">
        <ele>127</ele>
        <time>2019-02-17T10:16:09.086Z</time>
      </trkpt>
      <trkpt lat="46.85017" lon="0.41897">
        <ele>126</ele>
        <time>2019-02-17T10:16:10.086Z</time>
      </trkpt>
      <trkpt lat="46.85016" lon="0.41893">
        <ele>126</ele>
        <time>2019-02-17T10:16:11.086Z</time>
      </trkpt>
      <trkpt lat="46.85015" lon="0.41889">
        <ele>126</ele>
        <time>2019-02-17T10:16:12.086Z</time>
      </trkpt>
      <trkpt lat="46.85014" lon="0.41886">
        <ele>126</ele>
        <time>2019-02-17T10:16:13.086Z</time>
      </trkpt>
      <trkpt lat="46.85014" lon="0.41883">
        <ele>126</ele>
        <time>2019-02-17T10:16:14.086Z</time>
      </trkpt>
      <trkpt lat="46.85014" lon="0.41879">
        <ele>126</ele>
        <time>2019-02-17T10:16:15.086Z</time>
      </trkpt>
      <trkpt lat="46.85014" lon="0.41875">
        <ele>125</ele>
        <time>2019-02-17T10:16:16.086Z</time>
      </trkpt>
      <trkpt lat="46.85015" lon="0.41872">
        <ele>124</ele>
        <time>2019-02-17T10:16:17.086Z</time>
      </trkpt>
      <trkpt lat="46.85015" lon="0.41869">
        <ele>124</ele>
        <time>2019-02-17T10:16:18.086Z</time>
      </trkpt>
      <trkpt lat="46.85016" lon="0.41867">
        <ele>123</ele>
        <time>2019-02-17T10:16:19.086Z</time>
      </trkpt>
      <trkpt lat="46.85017" lon="0.41864">
        <ele>124</ele>
        <time>2019-02-17T10:16:20.086Z</time>
      </trkpt>
      <trkpt lat="46.85017" lon="0.41863">
        <ele>124</ele>
        <time>2019-02-17T10:16:21.086Z</time>
      </trkpt>
      <trkpt lat="46.85017" lon="0.41861">
        <ele>124</ele>
        <time>2019-02-17T10:16:22.086Z</time>
      </trkpt>
      <trkpt lat="46.85017" lon="0.41859">
        <ele>124</ele>
        <time>2019-02-17T10:16:23.086Z</time>
      </trkpt>
      <trkpt lat="46.85017" lon="0.41857">
        <ele>125</ele>
        <time>2019-02-17T10:16:24.086Z</time>
      </trkpt>
      <trkpt lat="46.85017" lon="0.41855">
        <ele>125</ele>
        <time>2019-02-17T10:16:25.086Z</time>
      </trkpt>
      <trkpt lat="46.85017" lon="0.41853">
        <ele>124</ele>
        <time>2019-02-17T10:16:26.086Z</time>
      </trkpt>
      <trkpt lat="46.85016" lon="0.4185">
        <ele>124</ele>
        <time>2019-02-17T10:16:27.086Z</time>
      </trkpt>
      <trkpt lat="46.85015" lon="0.41848">
        <ele>124</ele>
        <time>2019-02-17T10:16:28.086Z</time>
      </trkpt>
      <trkpt lat="46.85015" lon="0.41845">
        <ele>124</ele>
        <time>2019-02-17T10:16:29.086Z</time>
      </trkpt>
      <trkpt lat="46.85014" lon="0.41842">
        <ele>122</ele>
        <time>2019-02-17T10:16:30.086Z</time>
      </trkpt>
      <trkpt lat="46.85015" lon="0.41838">
        <ele>123</ele>
        <time>2019-02-17T10:16:31.086Z</time>
      </trkpt>
      <trkpt lat="46.85015" lon="0.41835">
        <ele>123</ele>
        <time>2019-02-17T10:16:32.086Z</time>
      </trkpt>
      <trkpt lat="46.85015" lon="0.41829">
        <ele>123</ele>
        <time>2019-02-17T10:16:33.086Z</time>
      </trkpt>
      <trkpt lat="46.85014" lon="0.41823">
        <ele>124</ele>
        <time>2019-02-17T10:16:34.086Z</time>
      </trkpt>
      <trkpt lat="46.85013" lon="0.41816">
        <ele>125</ele>
        <time>2019-02-17T10:16:35.086Z</time>
      </trkpt>
      <trkpt lat="46.85013" lon="0.4181">
        <ele>124</ele>
        <time>2019-02-17T10:16:36.086Z</time>
      </trkpt>
      <trkpt lat="46.85013" lon="0.41804">
        <ele>125</ele>
        <time>2019-02-17T10:16:37.086Z</time>
      </trkpt>
      <trkpt lat="46.85012" lon="0.41799">
        <ele>126</ele>
        <time>2019-02-17T10:16:38.086Z</time>
      </trkpt>
      <trkpt lat="46.85012" lon="0.41794">
        <ele>125</ele>
        <time>2019-02-17T10:16:39.086Z</time>
      </trkpt>
      <trkpt lat="46.85012" lon="0.4179">
        <ele>126</ele>
        <time>2019-02-17T10:16:40.086Z</time>
      </trkpt>
      <trkpt lat="46.85012" lon="0.41785">
        <ele>126</ele>
        <time>2019-02-17T10:16:41.086Z</time>
      </trkpt>
      <trkpt lat="46.85013" lon="0.41781">
        <ele>127</ele>
        <time>2019-02-17T10:16:42.086Z</time>
      </trkpt>
      <trkpt lat="46.85013" lon="0.41777">
        <ele>127</ele>
        <time>2019-02-17T10:16:43.086Z</time>
      </trkpt>
      <trkpt lat="46.85014" lon="0.41774">
        <ele>128</ele>
        <time>2019-02-17T10:16:44.086Z</time>
      </trkpt>
      <trkpt lat="46.85015" lon="0.41771">
        <ele>128</ele>
        <time>2019-02-17T10:16:45.086Z</time>
      </trkpt>
      <trkpt lat="46.85015" lon="0.41768">
        <ele>128</ele>
        <time>2019-02-17T10:16:46.086Z</time>
      </trkpt>
      <trkpt lat="46.85016" lon="0.41765">
        <ele>129</ele>
        <time>2019-02-17T10:16:47.086Z</time>
      </trkpt>
      <trkpt lat="46.85016" lon="0.41761">
        <ele>128</ele>
        <time>2019-02-17T10:16:48.086Z</time>
      </trkpt>
      <trkpt lat="46.85016" lon="0.41758">
        <ele>128</ele>
        <time>2019-02-17T10:16:49.086Z</time>
      </trkpt>
      <trkpt lat="46.85016" lon="0.41755">
        <ele>129</ele>
        <time>2019-02-17T10:16:50.086Z</time>
      </trkpt>
      <trkpt lat="46.85017" lon="0.41751">
        <ele>129</ele>
        <time>2019-02-17T10:16:51.086Z</time>
      </trkpt>
      <trkpt lat="46.85017" lon="0.41747">
        <ele>129</ele>
        <time>2019-02-17T10:16:52.086Z</time>
      </trkpt>
      <trkpt lat="46.85018" lon="0.41743">
        <ele>129</ele>
        <time>2019-02-17T10:16:53.086Z</time>
      </trkpt>
      <trkpt lat="46.85018" lon="0.41739">
        <ele>129</ele>
        <time>2019-02-17T10:16:54.086Z</time>
      </trkpt>
      <trkpt lat="46.85018" lon="0.41736">
        <ele>129</ele>
        <time>2019-02-17T10:16:55.086Z</time>
      </trkpt>
      <trkpt lat="46.85019" lon="0.41733">
        <ele>130</ele>
        <time>2019-02-17T10:16:56.086Z</time>
      </trkpt>
      <trkpt lat="46.85019" lon="0.41731">
        <ele>130</ele>
        <time>2019-02-17T10:16:57.086Z</time>
      </trkpt>
      <trkpt lat="46.85018" lon="0.41728">
        <ele>130</ele>
        <time>2019-02-17T10:16:58.086Z</time>
      </trkpt>
      <trkpt lat="46.85017" lon="0.41725">
        <ele>130</ele>
        <time>2019-02-17T10:16:59.086Z</time>
      </trkpt>
      <trkpt lat="46.85016" lon="0.41722">
        <ele>129</ele>
        <time>2019-02-17T10:17:00.086Z</time>
      </trkpt>
      <trkpt lat="46.85015" lon="0.41718">
        <ele>130</ele>
        <time>2019-02-17T10:17:01.086Z</time>
      </trkpt>
      <trkpt lat="46.85015" lon="0.41715">
        <ele>129</ele>
        <time>2019-02-17T10:17:02.086Z</time>
      </trkpt>
      <trkpt lat="46.85017" lon="0.41711">
        <ele>128</ele>
        <time>2019-02-17T10:17:03.086Z</time>
      </trkpt>
      <trkpt lat="46.85018" lon="0.41708">
        <ele>128</ele>
        <time>2019-02-17T10:17:04.086Z</time>
      </trkpt>
      <trkpt lat="46.85019" lon="0.41705">
        <ele>127</ele>
        <time>2019-02-17T10:17:05.086Z</time>
      </trkpt>
      <trkpt lat="46.8502" lon="0.41702">
        <ele>127</ele>
        <time>2019-02-17T10:17:06.086Z</time>
      </trkpt>
      <trkpt lat="46.85021" lon="0.41699">
        <ele>127</ele>
        <time>2019-02-17T10:17:07.086Z</time>
      </trkpt>
      <trkpt lat="46.85023" lon="0.41696">
        <ele>126</ele>
        <time>2019-02-17T10:17:08.086Z</time>
      </trkpt>
      <trkpt lat="46.85025" lon="0.41694">
        <ele>126</ele>
        <time>2019-02-17T10:17:09.086Z</time>
      </trkpt>
      <trkpt lat="46.85026" lon="0.41691">
        <ele>125</ele>
        <time>2019-02-17T10:17:10.086Z</time>
      </trkpt>
      <trkpt lat="46.85027" lon="0.41689">
        <ele>124</ele>
        <time>2019-02-17T10:17:11.086Z</time>
      </trkpt>
      <trkpt lat="46.85027" lon="0.41687">
        <ele>124</ele>
        <time>2019-02-17T10:17:12.086Z</time>
      </trkpt>
      <trkpt lat="46.85025" lon="0.41685">
        <ele>123</ele>
        <time>2019-02-17T10:17:13.086Z</time>
      </trkpt>
      <trkpt lat="46.85023" lon="0.41683">
        <ele>123</ele>
        <time>2019-02-17T10:17:14.086Z</time>
      </trkpt>
      <trkpt lat="46.85022" lon="0.41681">
        <ele>123</ele>
        <time>2019-02-17T10:17:15.086Z</time>
      </trkpt>
      <trkpt lat="46.8502" lon="0.4168">
        <ele>122</ele>
        <time>2019-02-17T10:17:16.086Z</time>
      </trkpt>
      <trkpt lat="46.85018" lon="0.41678">
        <ele>121</ele>
        <time>2019-02-17T10:17:17.086Z</time>
      </trkpt>
      <trkpt lat="46.85015" lon="0.41676">
        <ele>120</ele>
        <time>2019-02-17T10:17:18.086Z</time>
      </trkpt>
      <trkpt lat="46.85013" lon="0.41675">
        <ele>119</ele>
        <time>2019-02-17T10:17:19.086Z</time>
      </trkpt>
      <trkpt lat="46.8501" lon="0.41673">
        <ele>118</ele>
        <time>2019-02-17T10:17:20.086Z</time>
      </trkpt>
      <trkpt lat="46.85008" lon="0.41672">
        <ele>117</ele>
        <time>2019-02-17T10:17:21.086Z</time>
      </trkpt>
      <trkpt lat="46.85005" lon="0.41671">
        <ele>117</ele>
        <time>2019-02-17T10:17:22.086Z</time>
      </trkpt>
      <trkpt lat="46.85003" lon="0.4167">
        <ele>116</ele>
        <time>2019-02-17T10:17:23.086Z</time>
      </trkpt>
      <trkpt lat="46.85001" lon="0.41669">
        <ele>116</ele>
        <time>2019-02-17T10:17:24.086Z</time>
      </trkpt>
      <trkpt lat="46.84999" lon="0.41668">
        <ele>116</ele>
        <time>2019-02-17T10:17:25.086Z</time>
      </trkpt>
      <trkpt lat="46.84997" lon="0.41668">
        <ele>115</ele>
        <time>2019-02-17T10:17:26.086Z</time>
      </trkpt>
      <trkpt lat="46.84995" lon="0.41667">
        <ele>115</ele>
        <time>2019-02-17T10:17:27.086Z</time>
      </trkpt>
      <trkpt lat="46.84993" lon="0.41666">
        <ele>115</ele>
        <time>2019-02-17T10:17:28.086Z</time>
      </trkpt>
      <trkpt lat="46.8499" lon="0.41666">
        <ele>115</ele>
        <time>2019-02-17T10:17:29.086Z</time>
      </trkpt>
      <trkpt lat="46.84988" lon="0.41666">
        <ele>115</ele>
        <time>2019-02-17T10:17:30.086Z</time>
      </trkpt>
      <trkpt lat="46.84986" lon="0.41666">
        <ele>115</ele>
        <time>2019-02-17T10:17:31.086Z</time>
      </trkpt>
      <trkpt lat="46.84985" lon="0.41666">
        <ele>115</ele>
        <time>2019-02-17T10:17:32.086Z</time>
      </trkpt>
      <trkpt lat="46.84983" lon="0.41666">
        <ele>115</ele>
        <time>2019-02-17T10:17:33.086Z</time>
      </trkpt>
      <trkpt lat="46.84981" lon="0.41665">
        <ele>115</ele>
        <time>2019-02-17T10:17:34.086Z</time>
      </trkpt>
      <trkpt lat="46.84979" lon="0.41665">
        <ele>115</ele>
        <time>2019-02-17T10:17:35.086Z</time>
      </trkpt>
      <trkpt lat="46.84978" lon="0.41664">
        <ele>114</ele>
        <time>2019-02-17T10:17:36.086Z</time>
      </trkpt>
      <trkpt lat="46.84976" lon="0.41664">
        <ele>115</ele>
        <time>2019-02-17T10:17:37.086Z</time>
      </trkpt>
      <trkpt lat="46.84974" lon="0.41664">
        <ele>115</ele>
        <time>2019-02-17T10:17:38.086Z</time>
      </trkpt>
      <trkpt lat="46.84973" lon="0.41664">
        <ele>114</ele>
        <time>2019-02-17T10:17:39.086Z</time>
      </trkpt>
      <trkpt lat="46.84971" lon="0.41664">
        <ele>114</ele>
        <time>2019-02-17T10:17:40.086Z</time>
      </trkpt>
      <trkpt lat="46.84969" lon="0.41665">
        <ele>115</ele>
        <time>2019-02-17T10:17:41.086Z</time>
      </trkpt>
      <trkpt lat="46.84968" lon="0.41665">
        <ele>115</ele>
        <time>2019-02-17T10:17:42.086Z</time>
      </trkpt>
      <trkpt lat="46.84966" lon="0.41666">
        <ele>115</ele>
        <time>2019-02-17T10:17:43.086Z</time>
      </trkpt>
      <trkpt lat="46.84963" lon="0.41666">
        <ele>115</ele>
        <time>2019-02-17T10:17:44.086Z</time>
      </trkpt>
      <trkpt lat="46.84961" lon="0.41666">
        <ele>114</ele>
        <time>2019-02-17T10:17:45.086Z</time>
      </trkpt>
      <trkpt lat="46.84958" lon="0.41665">
        <ele>114</ele>
        <time>2019-02-17T10:17:46.086Z</time>
      </trkpt>
      <trkpt lat="46.84956" lon="0.41665">
        <ele>115</ele>
        <time>2019-02-17T10:17:47.086Z</time>
      </trkpt>
      <trkpt lat="46.84954" lon="0.41664">
        <ele>114</ele>
        <time>2019-02-17T10:17:48.086Z</time>
      </trkpt>
      <trkpt lat="46.84952" lon="0.41664">
        <ele>115</ele>
        <time>2019-02-17T10:17:49.086Z</time>
      </trkpt>
      <trkpt lat="46.8495" lon="0.41664">
        <ele>114</ele>
        <time>2019-02-17T10:17:50.086Z</time>
      </trkpt>
      <trkpt lat="46.84947" lon="0.41664">
        <ele>114</ele>
        <time>2019-02-17T10:17:51.086Z</time>
      </trkpt>
      <trkpt lat="46.84945" lon="0.41664">
        <ele>114</ele>
        <time>2019-02-17T10:17:52.086Z</time>
      </trkpt>
      <trkpt lat="46.84943" lon="0.41664">
        <ele>113</ele>
        <time>2019-02-17T10:17:53.086Z</time>
      </trkpt>
      <trkpt lat="46.84941" lon="0.41664">
        <ele>115</ele>
        <time>2019-02-17T10:17:54.086Z</time>
      </trkpt>
      <trkpt lat="46.84939" lon="0.41665">
        <ele>116</ele>
        <time>2019-02-17T10:17:55.086Z</time>
      </trkpt>
      <trkpt lat="46.84937" lon="0.41665">
        <ele>116</ele>
        <time>2019-02-17T10:17:56.086Z</time>
      </trkpt>
      <trkpt lat="46.84935" lon="0.41664">
        <ele>116</ele>
        <time>2019-02-17T10:17:57.086Z</time>
      </trkpt>
      <trkpt lat="46.84932" lon="0.41663">
        <ele>116</ele>
        <time>2019-02-17T10:17:58.086Z</time>
      </trkpt>
      <trkpt lat="46.84929" lon="0.41661">
        <ele>117</ele>
        <time>2019-02-17T10:17:59.086Z</time>
      </trkpt>
      <trkpt lat="46.84927" lon="0.4166">
        <ele>118</ele>
        <time>2019-02-17T10:18:00.086Z</time>
      </trkpt>
      <trkpt lat="46.84925" lon="0.41659">
        <ele>119</ele>
        <time>2019-02-17T10:18:01.086Z</time>
      </trkpt>
      <trkpt lat="46.84923" lon="0.41657">
        <ele>119</ele>
        <time>2019-02-17T10:18:02.086Z</time>
      </trkpt>
      <trkpt lat="46.84921" lon="0.41655">
        <ele>120</ele>
        <time>2019-02-17T10:18:03.086Z</time>
      </trkpt>
      <trkpt lat="46.84919" lon="0.41654">
        <ele>122</ele>
        <time>2019-02-17T10:18:04.086Z</time>
      </trkpt>
      <trkpt lat="46.84917" lon="0.41652">
        <ele>122</ele>
        <time>2019-02-17T10:18:05.086Z</time>
      </trkpt>
      <trkpt lat="46.84916" lon="0.41651">
        <ele>123</ele>
        <time>2019-02-17T10:18:06.086Z</time>
      </trkpt>
      <trkpt lat="46.84914" lon="0.41649">
        <ele>124</ele>
        <time>2019-02-17T10:18:07.086Z</time>
      </trkpt>
      <trkpt lat="46.84913" lon="0.41647">
        <ele>125</ele>
        <time>2019-02-17T10:18:08.086Z</time>
      </trkpt>
      <trkpt lat="46.84911" lon="0.41645">
        <ele>125</ele>
        <time>2019-02-17T10:18:09.086Z</time>
      </trkpt>
      <trkpt lat="46.8491" lon="0.41643">
        <ele>126</ele>
        <time>2019-02-17T10:18:10.086Z</time>
      </trkpt>
      <trkpt lat="46.84908" lon="0.41641">
        <ele>126</ele>
        <time>2019-02-17T10:18:11.086Z</time>
      </trkpt>
      <trkpt lat="46.84907" lon="0.41639">
        <ele>127</ele>
        <time>2019-02-17T10:18:12.086Z</time>
      </trkpt>
      <trkpt lat="46.84905" lon="0.41636">
        <ele>128</ele>
        <time>2019-02-17T10:18:13.086Z</time>
      </trkpt>
      <trkpt lat="46.84903" lon="0.41634">
        <ele>128</ele>
        <time>2019-02-17T10:18:14.086Z</time>
      </trkpt>
      <trkpt lat="46.84902" lon="0.41633">
        <ele>129</ele>
        <time>2019-02-17T10:18:15.086Z</time>
      </trkpt>
      <trkpt lat="46.849" lon="0.41632">
        <ele>128</ele>
        <time>2019-02-17T10:18:16.086Z</time>
      </trkpt>
      <trkpt lat="46.84899" lon="0.41632">
        <ele>128</ele>
        <time>2019-02-17T10:18:17.086Z</time>
      </trkpt>
      <trkpt lat="46.84898" lon="0.41632">
        <ele>128</ele>
        <time>2019-02-17T10:18:18.086Z</time>
      </trkpt>
      <trkpt lat="46.84897" lon="0.41632">
        <ele>129</ele>
        <time>2019-02-17T10:18:19.086Z</time>
      </trkpt>
      <trkpt lat="46.84897" lon="0.41632">
        <ele>130</ele>
        <time>2019-02-17T10:18:20.086Z</time>
      </trkpt>
      <trkpt lat="46.84897" lon="0.41632">
        <ele>130</ele>
        <time>2019-02-17T10:18:21.086Z</time>
      </trkpt>
      <trkpt lat="46.84896" lon="0.41632">
        <ele>130</ele>
        <time>2019-02-17T10:18:22.086Z</time>
      </trkpt>
      <trkpt lat="46.84896" lon="0.41632">
        <ele>132</ele>
        <time>2019-02-17T10:18:23.086Z</time>
      </trkpt>
      <trkpt lat="46.84895" lon="0.41633">
        <ele>134</ele>
        <time>2019-02-17T10:18:24.086Z</time>
      </trkpt>
      <trkpt lat="46.84895" lon="0.41633">
        <ele>135</ele>
        <time>2019-02-17T10:18:25.086Z</time>
      </trkpt>
      <trkpt lat="46.84895" lon="0.41634">
        <ele>136</ele>
        <time>2019-02-17T10:18:26.086Z</time>
      </trkpt>
      <trkpt lat="46.84894" lon="0.41634">
        <ele>138</ele>
        <time>2019-02-17T10:18:27.086Z</time>
      </trkpt>
      <trkpt lat="46.84894" lon="0.41634">
        <ele>138</ele>
        <time>2019-02-17T10:18:28.086Z</time>
      </trkpt>
      <trkpt lat="46.84893" lon="0.41635">
        <ele>138</ele>
        <time>2019-02-17T10:18:29.086Z</time>
      </trkpt>
      <trkpt lat="46.84892" lon="0.41635">
        <ele>138</ele>
        <time>2019-02-17T10:18:30.086Z</time>
      </trkpt>
      <trkpt lat="46.84892" lon="0.41635">
        <ele>138</ele>
        <time>2019-02-17T10:18:31.086Z</time>
      </trkpt>
      <trkpt lat="46.84891" lon="0.41636">
        <ele>138</ele>
        <time>2019-02-17T10:18:32.086Z</time>
      </trkpt>
      <trkpt lat="46.8489" lon="0.41637">
        <ele>138</ele>
        <time>2019-02-17T10:18:33.086Z</time>
      </trkpt>
      <trkpt lat="46.8489" lon="0.41639">
        <ele>139</ele>
        <time>2019-02-17T10:18:34.086Z</time>
      </trkpt>
      <trkpt lat="46.8489" lon="0.41642">
        <ele>137</ele>
        <time>2019-02-17T10:18:35.086Z</time>
      </trkpt>
      <trkpt lat="46.8489" lon="0.41645">
        <ele>137</ele>
        <time>2019-02-17T10:18:36.086Z</time>
      </trkpt>
      <trkpt lat="46.84891" lon="0.41648">
        <ele>137</ele>
        <time>2019-02-17T10:18:37.086Z</time>
      </trkpt>
      <trkpt lat="46.84891" lon="0.41651">
        <ele>139</ele>
        <time>2019-02-17T10:18:38.086Z</time>
      </trkpt>
      <trkpt lat="46.84892" lon="0.41654">
        <ele>139</ele>
        <time>2019-02-17T10:18:39.086Z</time>
      </trkpt>
      <trkpt lat="46.84893" lon="0.41657">
        <ele>140</ele>
        <time>2019-02-17T10:18:40.086Z</time>
      </trkpt>
      <trkpt lat="46.84894" lon="0.41661">
        <ele>141</ele>
        <time>2019-02-17T10:18:41.086Z</time>
      </trkpt>
      <trkpt lat="46.84895" lon="0.41664">
        <ele>141</ele>
        <time>2019-02-17T10:18:42.086Z</time>
      </trkpt>
      <trkpt lat="46.84896" lon="0.41668">
        <ele>140</ele>
        <time>2019-02-17T10:18:43.086Z</time>
      </trkpt>
      <trkpt lat="46.84898" lon="0.41672">
        <ele>140</ele>
        <time>2019-02-17T10:18:44.086Z</time>
      </trkpt>
      <trkpt lat="46.84898" lon="0.41675">
        <ele>139</ele>
        <time>2019-02-17T10:18:45.086Z</time>
      </trkpt>
      <trkpt lat="46.84899" lon="0.41679">
        <ele>139</ele>
        <time>2019-02-17T10:18:46.086Z</time>
      </trkpt>
      <trkpt lat="46.84898" lon="0.41682">
        <ele>138</ele>
        <time>2019-02-17T10:18:47.086Z</time>
      </trkpt>
      <trkpt lat="46.84898" lon="0.41686">
        <ele>139</ele>
        <time>2019-02-17T10:18:48.086Z</time>
      </trkpt>
      <trkpt lat="46.84897" lon="0.41689">
        <ele>139</ele>
        <time>2019-02-17T10:18:49.086Z</time>
      </trkpt>
      <trkpt lat="46.84897" lon="0.41692">
        <ele>139</ele>
        <time>2019-02-17T10:18:50.086Z</time>
      </trkpt>
      <trkpt lat="46.84896" lon="0.41693">
        <ele>139</ele>
        <time>2019-02-17T10:18:51.086Z</time>
      </trkpt>
      <trkpt lat="46.84896" lon="0.41693">
        <ele>139</ele>
        <time>2019-02-17T10:18:52.086Z</time>
      </trkpt>
      <trkpt lat="46.84896" lon="0.41694">
        <ele>139</ele>
        <time>2019-02-17T10:18:53.086Z</time>
      </trkpt>
      <trkpt lat="46.84897" lon="0.41695">
        <ele>140</ele>
        <time>2019-02-17T10:18:54.086Z</time>
      </trkpt>
      <trkpt lat="46.84897" lon="0.41695">
        <ele>139</ele>
        <time>2019-02-17T10:18:55.086Z</time>
      </trkpt>
      <trkpt lat="46.84897" lon="0.41696">
        <ele>139</ele>
        <time>2019-02-17T10:18:56.086Z</time>
      </trkpt>
      <trkpt lat="46.84898" lon="0.41697">
        <ele>139</ele>
        <time>2019-02-17T10:18:57.086Z</time>
      </trkpt>
      <trkpt lat="46.84899" lon="0.41698">
        <ele>141</ele>
        <time>2019-02-17T10:18:58.086Z</time>
      </trkpt>
      <trkpt lat="46.849" lon="0.41699">
        <ele>143</ele>
        <time>2019-02-17T10:18:59.086Z</time>
      </trkpt>
      <trkpt lat="46.84901" lon="0.417">
        <ele>144</ele>
        <time>2019-02-17T10:19:00.086Z</time>
      </trkpt>
      <trkpt lat="46.84902" lon="0.41701">
        <ele>145</ele>
        <time>2019-02-17T10:19:01.086Z</time>
      </trkpt>
      <trkpt lat="46.84903" lon="0.41701">
        <ele>145</ele>
        <time>2019-02-17T10:19:02.086Z</time>
      </trkpt>
      <trkpt lat="46.84904" lon="0.41702">
        <ele>145</ele>
        <time>2019-02-17T10:19:03.086Z</time>
      </trkpt>
      <trkpt lat="46.84906" lon="0.41703">
        <ele>146</ele>
        <time>2019-02-17T10:19:04.086Z</time>
      </trkpt>
      <trkpt lat="46.84908" lon="0.41703">
        <ele>147</ele>
        <time>2019-02-17T10:19:05.086Z</time>
      </trkpt>
      <trkpt lat="46.84909" lon="0.41704">
        <ele>147</ele>
        <time>2019-02-17T10:19:06.086Z</time>
      </trkpt>
      <trkpt lat="46.8491" lon="0.41705">
        <ele>148</ele>
        <time>2019-02-17T10:19:07.086Z</time>
      </trkpt>
      <trkpt lat="46.84911" lon="0.41706">
        <ele>148</ele>
        <time>2019-02-17T10:19:08.086Z</time>
      </trkpt>
      <trkpt lat="46.84912" lon="0.41707">
        <ele>149</ele>
        <time>2019-02-17T10:19:09.086Z</time>
      </trkpt>
      <trkpt lat="46.84912" lon="0.41709">
        <ele>150</ele>
        <time>2019-02-17T10:19:10.086Z</time>
      </trkpt>
      <trkpt lat="46.84912" lon="0.41711">
        <ele>149</ele>
        <time>2019-02-17T10:19:11.086Z</time>
      </trkpt>
      <trkpt lat="46.84912" lon="0.41713">
        <ele>149</ele>
        <time>2019-02-17T10:19:12.086Z</time>
      </trkpt>
      <trkpt lat="46.84912" lon="0.41715">
        <ele>149</ele>
        <time>2019-02-17T10:19:13.086Z</time>
      </trkpt>
      <trkpt lat="46.84913" lon="0.41716">
        <ele>149</ele>
        <time>2019-02-17T10:19:14.086Z</time>
      </trkpt>
      <trkpt lat="46.84913" lon="0.41718">
        <ele>149</ele>
        <time>2019-02-17T10:19:15.086Z</time>
      </trkpt>
      <trkpt lat="46.84914" lon="0.41719">
        <ele>149</ele>
        <time>2019-02-17T10:19:16.086Z</time>
      </trkpt>
      <trkpt lat="46.84914" lon="0.4172">
        <ele>149</ele>
        <time>2019-02-17T10:19:17.086Z</time>
      </trkpt>
      <trkpt lat="46.84913" lon="0.41722">
        <ele>147</ele>
        <time>2019-02-17T10:19:18.086Z</time>
      </trkpt>
      <trkpt lat="46.84912" lon="0.41723">
        <ele>146</ele>
        <time>2019-02-17T10:19:19.086Z</time>
      </trkpt>
      <trkpt lat="46.8491" lon="0.41724">
        <ele>147</ele>
        <time>2019-02-17T10:19:20.086Z</time>
      </trkpt>
      <trkpt lat="46.84909" lon="0.41724">
        <ele>147</ele>
        <time>2019-02-17T10:19:21.086Z</time>
      </trkpt>
      <trkpt lat="46.84907" lon="0.41724">
        <ele>147</ele>
        <time>2019-02-17T10:19:22.086Z</time>
      </trkpt>
      <trkpt lat="46.84905" lon="0.41724">
        <ele>146</ele>
        <time>2019-02-17T10:19:23.086Z</time>
      </trkpt>
      <trkpt lat="46.84903" lon="0.41724">
        <ele>146</ele>
        <time>2019-02-17T10:19:24.086Z</time>
      </trkpt>
      <trkpt lat="46.84901" lon="0.41724">
        <ele>145</ele>
        <time>2019-02-17T10:19:25.086Z</time>
      </trkpt>
      <trkpt lat="46.84899" lon="0.41724">
        <ele>145</ele>
        <time>2019-02-17T10:19:26.086Z</time>
      </trkpt>
      <trkpt lat="46.84897" lon="0.41724">
        <ele>144</ele>
        <time>2019-02-17T10:19:27.086Z</time>
      </trkpt>
      <trkpt lat="46.84895" lon="0.41725">
        <ele>144</ele>
        <time>2019-02-17T10:19:28.086Z</time>
      </trkpt>
      <trkpt lat="46.84893" lon="0.41725">
        <ele>144</ele>
        <time>2019-02-17T10:19:29.086Z</time>
      </trkpt>
      <trkpt lat="46.84891" lon="0.41725">
        <ele>143</ele>
        <time>2019-02-17T10:19:30.086Z</time>
      </trkpt>
      <trkpt lat="46.84889" lon="0.41724">
        <ele>142</ele>
        <time>2019-02-17T10:19:31.086Z</time>
      </trkpt>
      <trkpt lat="46.84886" lon="0.41722">
        <ele>142</ele>
        <time>2019-02-17T10:19:32.086Z</time>
      </trkpt>
      <trkpt lat="46.84884" lon="0.41721">
        <ele>141</ele>
        <time>2019-02-17T10:19:33.086Z</time>
      </trkpt>
      <trkpt lat="46.84881" lon="0.41719">
        <ele>142</ele>
        <time>2019-02-17T10:19:34.086Z</time>
      </trkpt>
      <trkpt lat="46.84879" lon="0.41718">
        <ele>140</ele>
        <time>2019-02-17T10:19:35.086Z</time>
      </trkpt>
      <trkpt lat="46.84876" lon="0.41718">
        <ele>140</ele>
        <time>2019-02-17T10:19:36.086Z</time>
      </trkpt>
      <trkpt lat="46.84874" lon="0.41717">
        <ele>141</ele>
        <time>2019-02-17T10:19:37.086Z</time>
      </trkpt>
      <trkpt lat="46.84871" lon="0.41716">
        <ele>139</ele>
        <time>2019-02-17T10:19:38.086Z</time>
      </trkpt>
      <trkpt lat="46.84869" lon="0.41716">
        <ele>138</ele>
        <time>2019-02-17T10:19:39.086Z</time>
      </trkpt>
      <trkpt lat="46.84866" lon="0.41717">
        <ele>137</ele>
        <time>2019-02-17T10:19:40.086Z</time>
      </trkpt>
      <trkpt lat="46.84864" lon="0.41717">
        <ele>135</ele>
        <time>2019-02-17T10:19:41.086Z</time>
      </trkpt>
      <trkpt lat="46.84861" lon="0.41718">
        <ele>133</ele>
        <time>2019-02-17T10:19:42.086Z</time>
      </trkpt>
      <trkpt lat="46.84859" lon="0.4172">
        <ele>133</ele>
        <time>2019-02-17T10:19:43.086Z</time>
      </trkpt>
      <trkpt lat="46.84857" lon="0.41721">
        <ele>133</ele>
        <time>2019-02-17T10:19:44.086Z</time>
      </trkpt>
      <trkpt lat="46.84856" lon="0.41724">
        <ele>133</ele>
        <time>2019-02-17T10:19:45.086Z</time>
      </trkpt>
      <trkpt lat="46.84856" lon="0.41729">
        <ele>137</ele>
        <time>2019-02-17T10:19:46.086Z</time>
      </trkpt>
      <trkpt lat="46.84855" lon="0.41734">
        <ele>137</ele>
        <time>2019-02-17T10:19:47.086Z</time>
      </trkpt>
      <trkpt lat="46.84854" lon="0.4174">
        <ele>136</ele>
        <time>2019-02-17T10:19:48.086Z</time>
      </trkpt>
      <trkpt lat="46.84853" lon="0.41743">
        <ele>136</ele>
        <time>2019-02-17T10:19:49.086Z</time>
      </trkpt>
      <trkpt lat="46.84852" lon="0.41747">
        <ele>137</ele>
        <time>2019-02-17T10:19:50.086Z</time>
      </trkpt>
      <trkpt lat="46.84851" lon="0.41752">
        <ele>142</ele>
        <time>2019-02-17T10:19:51.086Z</time>
      </trkpt>
      <trkpt lat="46.84851" lon="0.41757">
        <ele>141</ele>
        <time>2019-02-17T10:19:52.086Z</time>
      </trkpt>
      <trkpt lat="46.8485" lon="0.41762">
        <ele>141</ele>
        <time>2019-02-17T10:19:53.086Z</time>
      </trkpt>
      <trkpt lat="46.8485" lon="0.41766">
        <ele>141</ele>
        <time>2019-02-17T10:19:54.086Z</time>
      </trkpt>
      <trkpt lat="46.84849" lon="0.41771">
        <ele>141</ele>
        <time>2019-02-17T10:19:55.086Z</time>
      </trkpt>
      <trkpt lat="46.84849" lon="0.41775">
        <ele>141</ele>
        <time>2019-02-17T10:19:56.086Z</time>
      </trkpt>
      <trkpt lat="46.84848" lon="0.41779">
        <ele>142</ele>
        <time>2019-02-17T10:19:57.086Z</time>
      </trkpt>
      <trkpt lat="46.84846" lon="0.41782">
        <ele>142</ele>
        <time>2019-02-17T10:19:58.086Z</time>
      </trkpt>
      <trkpt lat="46.84845" lon="0.41785">
        <ele>141</ele>
        <time>2019-02-17T10:19:59.086Z</time>
      </trkpt>
      <trkpt lat="46.84844" lon="0.41788">
        <ele>140</ele>
        <time>2019-02-17T10:20:00.086Z</time>
      </trkpt>
      <trkpt lat="46.84844" lon="0.41791">
        <ele>140</ele>
        <time>2019-02-17T10:20:01.086Z</time>
      </trkpt>
      <trkpt lat="46.84845" lon="0.41794">
        <ele>141</ele>
        <time>2019-02-17T10:20:02.086Z</time>
      </trkpt>
      <trkpt lat="46.84845" lon="0.41795">
        <ele>142</ele>
        <time>2019-02-17T10:20:03.086Z</time>
      </trkpt>
      <trkpt lat="46.84847" lon="0.41797">
        <ele>145</ele>
        <time>2019-02-17T10:20:04.086Z</time>
      </trkpt>
      <trkpt lat="46.84848" lon="0.41798">
        <ele>145</ele>
        <time>2019-02-17T10:20:05.086Z</time>
      </trkpt>
      <trkpt lat="46.84851" lon="0.41799">
        <ele>145</ele>
        <time>2019-02-17T10:20:06.086Z</time>
      </trkpt>
      <trkpt lat="46.84852" lon="0.41801">
        <ele>146</ele>
        <time>2019-02-17T10:20:07.086Z</time>
      </trkpt>
      <trkpt lat="46.84853" lon="0.41803">
        <ele>148</ele>
        <time>2019-02-17T10:20:08.086Z</time>
      </trkpt>
      <trkpt lat="46.84854" lon="0.41807">
        <ele>148</ele>
        <time>2019-02-17T10:20:09.086Z</time>
      </trkpt>
      <trkpt lat="46.84854" lon="0.41811">
        <ele>147</ele>
        <time>2019-02-17T10:20:10.086Z</time>
      </trkpt>
      <trkpt lat="46.84853" lon="0.41815">
        <ele>148</ele>
        <time>2019-02-17T10:20:11.086Z</time>
      </trkpt>
      <trkpt lat="46.84853" lon="0.4182">
        <ele>147</ele>
        <time>2019-02-17T10:20:12.086Z</time>
      </trkpt>
      <trkpt lat="46.84853" lon="0.41824">
        <ele>146</ele>
        <time>2019-02-17T10:20:13.086Z</time>
      </trkpt>
      <trkpt lat="46.84854" lon="0.41828">
        <ele>147</ele>
        <time>2019-02-17T10:20:14.086Z</time>
      </trkpt>
      <trkpt lat="46.84854" lon="0.41832">
        <ele>148</ele>
        <time>2019-02-17T10:20:15.086Z</time>
      </trkpt>
      <trkpt lat="46.84855" lon="0.41837">
        <ele>148</ele>
        <time>2019-02-17T10:20:16.086Z</time>
      </trkpt>
      <trkpt lat="46.84856" lon="0.41841">
        <ele>150</ele>
        <time>2019-02-17T10:20:17.086Z</time>
      </trkpt>
      <trkpt lat="46.84857" lon="0.41846">
        <ele>150</ele>
        <time>2019-02-17T10:20:18.086Z</time>
      </trkpt>
      <trkpt lat="46.84858" lon="0.41851">
        <ele>150</ele>
        <time>2019-02-17T10:20:19.086Z</time>
      </trkpt>
      <trkpt lat="46.84859" lon="0.41855">
        <ele>151</ele>
        <time>2019-02-17T10:20:20.086Z</time>
      </trkpt>
      <trkpt lat="46.84859" lon="0.41858">
        <ele>152</ele>
        <time>2019-02-17T10:20:21.086Z</time>
      </trkpt>
      <trkpt lat="46.84859" lon="0.41862">
        <ele>151</ele>
        <time>2019-02-17T10:20:22.086Z</time>
      </trkpt>
      <trkpt lat="46.8486" lon="0.41867">
        <ele>153</ele>
        <time>2019-02-17T10:20:23.086Z</time>
      </trkpt>
      <trkpt lat="46.8486" lon="0.41871">
        <ele>154</ele>
        <time>2019-02-17T10:20:24.086Z</time>
      </trkpt>
      <trkpt lat="46.8486" lon="0.41876">
        <ele>154</ele>
        <time>2019-02-17T10:20:25.086Z</time>
      </trkpt>
      <trkpt lat="46.8486" lon="0.4188">
        <ele>154</ele>
        <time>2019-02-17T10:20:26.086Z</time>
      </trkpt>
      <trkpt lat="46.8486" lon="0.41884">
        <ele>151</ele>
        <time>2019-02-17T10:20:27.086Z</time>
      </trkpt>
      <trkpt lat="46.84858" lon="0.41887">
        <ele>150</ele>
        <time>2019-02-17T10:20:28.086Z</time>
      </trkpt>
      <trkpt lat="46.84857" lon="0.41889">
        <ele>150</ele>
        <time>2019-02-17T10:20:29.086Z</time>
      </trkpt>
      <trkpt lat="46.84855" lon="0.41889">
        <ele>151</ele>
        <time>2019-02-17T10:20:30.086Z</time>
      </trkpt>
      <trkpt lat="46.84852" lon="0.41889">
        <ele>149</ele>
        <time>2019-02-17T10:20:31.086Z</time>
      </trkpt>
      <trkpt lat="46.8485" lon="0.41886">
        <ele>150</ele>
        <time>2019-02-17T10:20:32.086Z</time>
      </trkpt>
      <trkpt lat="46.84848" lon="0.41884">
        <ele>151</ele>
        <time>2019-02-17T10:20:33.086Z</time>
      </trkpt>
      <trkpt lat="46.84846" lon="0.41882">
        <ele>151</ele>
        <time>2019-02-17T10:20:34.086Z</time>
      </trkpt>
      <trkpt lat="46.84844" lon="0.4188">
        <ele>151</ele>
        <time>2019-02-17T10:20:35.086Z</time>
      </trkpt>
      <trkpt lat="46.84842" lon="0.41879">
        <ele>149</ele>
        <time>2019-02-17T10:20:36.086Z</time>
      </trkpt>
      <trkpt lat="46.84841" lon="0.41877">
        <ele>147</ele>
        <time>2019-02-17T10:20:37.086Z</time>
      </trkpt>
      <trkpt lat="46.84839" lon="0.41874">
        <ele>147</ele>
        <time>2019-02-17T10:20:38.086Z</time>
      </trkpt>
      <trkpt lat="46.84837" lon="0.41872">
        <ele>146</ele>
        <time>2019-02-17T10:20:39.086Z</time>
      </trkpt>
      <trkpt lat="46.84835" lon="0.41869">
        <ele>146</ele>
        <time>2019-02-17T10:20:40.086Z</time>
      </trkpt>
      <trkpt lat="46.84833" lon="0.41867">
        <ele>146</ele>
        <time>2019-02-17T10:20:41.086Z</time>
      </trkpt>
      <trkpt lat="46.8483" lon="0.41866">
        <ele>145</ele>
        <time>2019-02-17T10:20:42.086Z</time>
      </trkpt>
      <trkpt lat="46.84827" lon="0.41865">
        <ele>143</ele>
        <time>2019-02-17T10:20:43.086Z</time>
      </trkpt>
      <trkpt lat="46.84824" lon="0.41865">
        <ele>142</ele>
        <time>2019-02-17T10:20:44.086Z</time>
      </trkpt>
      <trkpt lat="46.84821" lon="0.41865">
        <ele>142</ele>
        <time>2019-02-17T10:20:45.086Z</time>
      </trkpt>
      <trkpt lat="46.84817" lon="0.41864">
        <ele>141</ele>
        <time>2019-02-17T10:20:46.086Z</time>
      </trkpt>
      <trkpt lat="46.84814" lon="0.41862">
        <ele>140</ele>
        <time>2019-02-17T10:20:47.086Z</time>
      </trkpt>
      <trkpt lat="46.84811" lon="0.4186">
        <ele>140</ele>
        <time>2019-02-17T10:20:48.086Z</time>
      </trkpt>
      <trkpt lat="46.84807" lon="0.41858">
        <ele>139</ele>
        <time>2019-02-17T10:20:49.086Z</time>
      </trkpt>
      <trkpt lat="46.84804" lon="0.41855">
        <ele>139</ele>
        <time>2019-02-17T10:20:50.086Z</time>
      </trkpt>
      <trkpt lat="46.848" lon="0.41853">
        <ele>139</ele>
        <time>2019-02-17T10:20:51.086Z</time>
      </trkpt>
      <trkpt lat="46.84797" lon="0.4185">
        <ele>140</ele>
        <time>2019-02-17T10:20:52.086Z</time>
      </trkpt>
      <trkpt lat="46.84793" lon="0.41849">
        <ele>140</ele>
        <time>2019-02-17T10:20:53.086Z</time>
      </trkpt>
      <trkpt lat="46.8479" lon="0.41848">
        <ele>139</ele>
        <time>2019-02-17T10:20:54.086Z</time>
      </trkpt>
      <trkpt lat="46.84787" lon="0.41849">
        <ele>135</ele>
        <time>2019-02-17T10:20:55.086Z</time>
      </trkpt>
      <trkpt lat="46.84784" lon="0.41851">
        <ele>133</ele>
        <time>2019-02-17T10:20:56.086Z</time>
      </trkpt>
      <trkpt lat="46.84782" lon="0.41853">
        <ele>131</ele>
        <time>2019-02-17T10:20:57.086Z</time>
      </trkpt>
      <trkpt lat="46.84779" lon="0.41854">
        <ele>132</ele>
        <time>2019-02-17T10:20:58.086Z</time>
      </trkpt>
      <trkpt lat="46.84777" lon="0.41854">
        <ele>133</ele>
        <time>2019-02-17T10:20:59.086Z</time>
      </trkpt>
      <trkpt lat="46.84774" lon="0.41852">
        <ele>131</ele>
        <time>2019-02-17T10:21:00.086Z</time>
      </trkpt>
      <trkpt lat="46.84771" lon="0.41848">
        <ele>133</ele>
        <time>2019-02-17T10:21:01.086Z</time>
      </trkpt>
      <trkpt lat="46.84768" lon="0.41845">
        <ele>132</ele>
        <time>2019-02-17T10:21:02.086Z</time>
      </trkpt>
      <trkpt lat="46.84766" lon="0.41843">
        <ele>131</ele>
        <time>2019-02-17T10:21:03.086Z</time>
      </trkpt>
      <trkpt lat="46.84764" lon="0.41842">
        <ele>126</ele>
        <time>2019-02-17T10:21:04.086Z</time>
      </trkpt>
      <trkpt lat="46.84762" lon="0.41843">
        <ele>125</ele>
        <time>2019-02-17T10:21:05.086Z</time>
      </trkpt>
      <trkpt lat="46.84759" lon="0.41845">
        <ele>123</ele>
        <time>2019-02-17T10:21:06.086Z</time>
      </trkpt>
      <trkpt lat="46.84756" lon="0.41847">
        <ele>120</ele>
        <time>2019-02-17T10:21:07.086Z</time>
      </trkpt>
      <trkpt lat="46.84753" lon="0.4185">
        <ele>119</ele>
        <time>2019-02-17T10:21:08.086Z</time>
      </trkpt>
      <trkpt lat="46.8475" lon="0.41853">
        <ele>117</ele>
        <time>2019-02-17T10:21:09.086Z</time>
      </trkpt>
      <trkpt lat="46.84747" lon="0.41855">
        <ele>115</ele>
        <time>2019-02-17T10:21:10.086Z</time>
      </trkpt>
      <trkpt lat="46.84743" lon="0.41856">
        <ele>113</ele>
        <time>2019-02-17T10:21:11.086Z</time>
      </trkpt>
      <trkpt lat="46.84739" lon="0.41856">
        <ele>111</ele>
        <time>2019-02-17T10:21:12.086Z</time>
      </trkpt>
      <trkpt lat="46.84735" lon="0.41856">
        <ele>110</ele>
        <time>2019-02-17T10:21:13.086Z</time>
      </trkpt>
      <trkpt lat="46.84731" lon="0.41856">
        <ele>111</ele>
        <time>2019-02-17T10:21:14.086Z</time>
      </trkpt>
      <trkpt lat="46.84728" lon="0.41857">
        <ele>112</ele>
        <time>2019-02-17T10:21:15.086Z</time>
      </trkpt>
      <trkpt lat="46.84725" lon="0.41859">
        <ele>113</ele>
        <time>2019-02-17T10:21:16.086Z</time>
      </trkpt>
      <trkpt lat="46.84724" lon="0.41861">
        <ele>112</ele>
        <time>2019-02-17T10:21:17.086Z</time>
      </trkpt>
      <trkpt lat="46.84723" lon="0.41864">
        <ele>113</ele>
        <time>2019-02-17T10:21:18.086Z</time>
      </trkpt>
      <trkpt lat="46.84723" lon="0.41869">
        <ele>115</ele>
        <time>2019-02-17T10:21:19.086Z</time>
      </trkpt>
      <trkpt lat="46.84722" lon="0.41874">
        <ele>121</ele>
        <time>2019-02-17T10:21:20.086Z</time>
      </trkpt>
      <trkpt lat="46.84721" lon="0.4188">
        <ele>122</ele>
        <time>2019-02-17T10:21:21.086Z</time>
      </trkpt>
      <trkpt lat="46.8472" lon="0.41885">
        <ele>122</ele>
        <time>2019-02-17T10:21:22.086Z</time>
      </trkpt>
      <trkpt lat="46.84719" lon="0.4189">
        <ele>122</ele>
        <time>2019-02-17T10:21:23.086Z</time>
      </trkpt>
      <trkpt lat="46.84718" lon="0.41895">
        <ele>123</ele>
        <time>2019-02-17T10:21:24.086Z</time>
      </trkpt>
      <trkpt lat="46.84717" lon="0.41901">
        <ele>124</ele>
        <time>2019-02-17T10:21:25.086Z</time>
      </trkpt>
      <trkpt lat="46.84716" lon="0.41906">
        <ele>128</ele>
        <time>2019-02-17T10:21:26.086Z</time>
      </trkpt>
      <trkpt lat="46.84715" lon="0.41912">
        <ele>131</ele>
        <time>2019-02-17T10:21:27.086Z</time>
      </trkpt>
      <trkpt lat="46.84714" lon="0.41919">
        <ele>133</ele>
        <time>2019-02-17T10:21:28.086Z</time>
      </trkpt>
      <trkpt lat="46.84713" lon="0.41925">
        <ele>135</ele>
        <time>2019-02-17T10:21:29.086Z</time>
      </trkpt>
      <trkpt lat="46.84712" lon="0.4193">
        <ele>136</ele>
        <time>2019-02-17T10:21:30.086Z</time>
      </trkpt>
      <trkpt lat="46.84711" lon="0.41936">
        <ele>137</ele>
        <time>2019-02-17T10:21:31.086Z</time>
      </trkpt>
      <trkpt lat="46.84709" lon="0.41941">
        <ele>137</ele>
        <time>2019-02-17T10:21:32.086Z</time>
      </trkpt>
      <trkpt lat="46.84708" lon="0.41946">
        <ele>137</ele>
        <time>2019-02-17T10:21:33.086Z</time>
      </trkpt>
      <trkpt lat="46.84707" lon="0.41951">
        <ele>137</ele>
        <time>2019-02-17T10:21:34.086Z</time>
      </trkpt>
      <trkpt lat="46.84706" lon="0.41956">
        <ele>138</ele>
        <time>2019-02-17T10:21:35.086Z</time>
      </trkpt>
      <trkpt lat="46.84705" lon="0.41962">
        <ele>139</ele>
        <time>2019-02-17T10:21:36.086Z</time>
      </trkpt>
      <trkpt lat="46.84705" lon="0.41967">
        <ele>139</ele>
        <time>2019-02-17T10:21:37.086Z</time>
      </trkpt>
      <trkpt lat="46.84704" lon="0.41972">
        <ele>140</ele>
        <time>2019-02-17T10:21:38.086Z</time>
      </trkpt>
      <trkpt lat="46.84703" lon="0.41977">
        <ele>140</ele>
        <time>2019-02-17T10:21:39.086Z</time>
      </trkpt>
      <trkpt lat="46.84702" lon="0.41982">
        <ele>142</ele>
        <time>2019-02-17T10:21:40.086Z</time>
      </trkpt>
      <trkpt lat="46.84701" lon="0.41988">
        <ele>143</ele>
        <time>2019-02-17T10:21:41.086Z</time>
      </trkpt>
      <trkpt lat="46.84701" lon="0.41994">
        <ele>144</ele>
        <time>2019-02-17T10:21:42.086Z</time>
      </trkpt>
      <trkpt lat="46.847" lon="0.41999">
        <ele>145</ele>
        <time>2019-02-17T10:21:43.086Z</time>
      </trkpt>
      <trkpt lat="46.847" lon="0.42005">
        <ele>147</ele>
        <time>2019-02-17T10:21:44.086Z</time>
      </trkpt>
      <trkpt lat="46.84699" lon="0.42011">
        <ele>148</ele>
        <time>2019-02-17T10:21:45.086Z</time>
      </trkpt>
      <trkpt lat="46.84699" lon="0.42016">
        <ele>148</ele>
        <time>2019-02-17T10:21:46.086Z</time>
      </trkpt>
      <trkpt lat="46.84698" lon="0.42022">
        <ele>149</ele>
        <time>2019-02-17T10:21:47.086Z</time>
      </trkpt>
      <trkpt lat="46.84698" lon="0.42027">
        <ele>149</ele>
        <time>2019-02-17T10:21:48.086Z</time>
      </trkpt>
      <trkpt lat="46.84697" lon="0.42032">
        <ele>150</ele>
        <time>2019-02-17T10:21:49.086Z</time>
      </trkpt>
      <trkpt lat="46.84697" lon="0.42038">
        <ele>150</ele>
        <time>2019-02-17T10:21:50.086Z</time>
      </trkpt>
      <trkpt lat="46.84696" lon="0.42043">
        <ele>150</ele>
        <time>2019-02-17T10:21:51.086Z</time>
      </trkpt>
      <trkpt lat="46.84695" lon="0.42048">
        <ele>151</ele>
        <time>2019-02-17T10:21:52.086Z</time>
      </trkpt>
      <trkpt lat="46.84695" lon="0.42053">
        <ele>152</ele>
        <time>2019-02-17T10:21:53.086Z</time>
      </trkpt>
      <trkpt lat="46.84694" lon="0.42058">
        <ele>152</ele>
        <time>2019-02-17T10:21:54.086Z</time>
      </trkpt>
      <trkpt lat="46.84694" lon="0.42063">
        <ele>152</ele>
        <time>2019-02-17T10:21:55.086Z</time>
      </trkpt>
      <trkpt lat="46.84693" lon="0.42068">
        <ele>152</ele>
        <time>2019-02-17T10:21:56.086Z</time>
      </trkpt>
      <trkpt lat="46.84692" lon="0.42073">
        <ele>152</ele>
        <time>2019-02-17T10:21:57.086Z</time>
      </trkpt>
      <trkpt lat="46.84692" lon="0.42078">
        <ele>152</ele>
        <time>2019-02-17T10:21:58.086Z</time>
      </trkpt>
      <trkpt lat="46.84691" lon="0.42084">
        <ele>152</ele>
        <time>2019-02-17T10:21:59.086Z</time>
      </trkpt>
      <trkpt lat="46.84691" lon="0.42089">
        <ele>153</ele>
        <time>2019-02-17T10:22:00.086Z</time>
      </trkpt>
      <trkpt lat="46.8469" lon="0.42095">
        <ele>152</ele>
        <time>2019-02-17T10:22:01.086Z</time>
      </trkpt>
      <trkpt lat="46.84689" lon="0.42101">
        <ele>152</ele>
        <time>2019-02-17T10:22:02.086Z</time>
      </trkpt>
      <trkpt lat="46.84689" lon="0.42106">
        <ele>152</ele>
        <time>2019-02-17T10:22:03.086Z</time>
      </trkpt>
      <trkpt lat="46.84688" lon="0.42111">
        <ele>152</ele>
        <time>2019-02-17T10:22:04.086Z</time>
      </trkpt>
      <trkpt lat="46.84687" lon="0.42116">
        <ele>152</ele>
        <time>2019-02-17T10:22:05.086Z</time>
      </trkpt>
      <trkpt lat="46.84687" lon="0.42122">
        <ele>153</ele>
        <time>2019-02-17T10:22:06.086Z</time>
      </trkpt>
      <trkpt lat="46.84685" lon="0.42127">
        <ele>153</ele>
        <time>2019-02-17T10:22:07.086Z</time>
      </trkpt>
      <trkpt lat="46.84684" lon="0.42133">
        <ele>152</ele>
        <time>2019-02-17T10:22:08.086Z</time>
      </trkpt>
      <trkpt lat="46.84683" lon="0.42138">
        <ele>152</ele>
        <time>2019-02-17T10:22:09.086Z</time>
      </trkpt>
      <trkpt lat="46.84682" lon="0.42143">
        <ele>152</ele>
        <time>2019-02-17T10:22:10.086Z</time>
      </trkpt>
      <trkpt lat="46.8468" lon="0.42148">
        <ele>152</ele>
        <time>2019-02-17T10:22:11.086Z</time>
      </trkpt>
      <trkpt lat="46.84679" lon="0.42154">
        <ele>152</ele>
        <time>2019-02-17T10:22:12.086Z</time>
      </trkpt>
      <trkpt lat="46.84678" lon="0.42159">
        <ele>152</ele>
        <time>2019-02-17T10:22:13.086Z</time>
      </trkpt>
      <trkpt lat="46.84676" lon="0.42165">
        <ele>151</ele>
        <time>2019-02-17T10:22:14.086Z</time>
      </trkpt>
      <trkpt lat="46.84675" lon="0.4217">
        <ele>150</ele>
        <time>2019-02-17T10:22:15.086Z</time>
      </trkpt>
      <trkpt lat="46.84674" lon="0.42175">
        <ele>149</ele>
        <time>2019-02-17T10:22:16.086Z</time>
      </trkpt>
      <trkpt lat="46.84673" lon="0.42181">
        <ele>149</ele>
        <time>2019-02-17T10:22:17.086Z</time>
      </trkpt>
      <trkpt lat="46.84671" lon="0.42187">
        <ele>150</ele>
        <time>2019-02-17T10:22:18.086Z</time>
      </trkpt>
      <trkpt lat="46.8467" lon="0.42192">
        <ele>151</ele>
        <time>2019-02-17T10:22:19.086Z</time>
      </trkpt>
      <trkpt lat="46.84668" lon="0.42198">
        <ele>151</ele>
        <time>2019-02-17T10:22:20.086Z</time>
      </trkpt>
      <trkpt lat="46.84666" lon="0.42203">
        <ele>150</ele>
        <time>2019-02-17T10:22:21.086Z</time>
      </trkpt>
      <trkpt lat="46.84665" lon="0.42208">
        <ele>150</ele>
        <time>2019-02-17T10:22:22.086Z</time>
      </trkpt>
      <trkpt lat="46.84663" lon="0.42214">
        <ele>149</ele>
        <time>2019-02-17T10:22:23.086Z</time>
      </trkpt>
      <trkpt lat="46.84662" lon="0.42219">
        <ele>148</ele>
        <time>2019-02-17T10:22:24.086Z</time>
      </trkpt>
      <trkpt lat="46.8466" lon="0.42225">
        <ele>148</ele>
        <time>2019-02-17T10:22:25.086Z</time>
      </trkpt>
      <trkpt lat="46.84658" lon="0.4223">
        <ele>148</ele>
        <time>2019-02-17T10:22:26.086Z</time>
      </trkpt>
      <trkpt lat="46.84656" lon="0.42235">
        <ele>147</ele>
        <time>2019-02-17T10:22:27.086Z</time>
      </trkpt>
      <trkpt lat="46.84654" lon="0.4224">
        <ele>147</ele>
        <time>2019-02-17T10:22:28.086Z</time>
      </trkpt>
      <trkpt lat="46.84652" lon="0.42246">
        <ele>147</ele>
        <time>2019-02-17T10:22:29.086Z</time>
      </trkpt>
      <trkpt lat="46.8465" lon="0.42251">
        <ele>146</ele>
        <time>2019-02-17T10:22:30.086Z</time>
      </trkpt>
      <trkpt lat="46.84648" lon="0.42256">
        <ele>146</ele>
        <time>2019-02-17T10:22:31.086Z</time>
      </trkpt>
      <trkpt lat="46.84645" lon="0.42261">
        <ele>146</ele>
        <time>2019-02-17T10:22:32.086Z</time>
      </trkpt>
      <trkpt lat="46.84643" lon="0.42266">
        <ele>146</ele>
        <time>2019-02-17T10:22:33.086Z</time>
      </trkpt>
      <trkpt lat="46.84641" lon="0.42271">
        <ele>146</ele>
        <time>2019-02-17T10:22:34.086Z</time>
      </trkpt>
      <trkpt lat="46.84638" lon="0.42277">
        <ele>147</ele>
        <time>2019-02-17T10:22:35.086Z</time>
      </trkpt>
      <trkpt lat="46.84636" lon="0.42282">
        <ele>146</ele>
        <time>2019-02-17T10:22:36.086Z</time>
      </trkpt>
      <trkpt lat="46.84634" lon="0.42287">
        <ele>146</ele>
        <time>2019-02-17T10:22:37.086Z</time>
      </trkpt>
      <trkpt lat="46.84631" lon="0.42293">
        <ele>146</ele>
        <time>2019-02-17T10:22:38.086Z</time>
      </trkpt>
      <trkpt lat="46.84629" lon="0.42298">
        <ele>145</ele>
        <time>2019-02-17T10:22:39.086Z</time>
      </trkpt>
      <trkpt lat="46.84626" lon="0.42304">
        <ele>144</ele>
        <time>2019-02-17T10:22:40.086Z</time>
      </trkpt>
      <trkpt lat="46.84624" lon="0.42309">
        <ele>145</ele>
        <time>2019-02-17T10:22:41.086Z</time>
      </trkpt>
      <trkpt lat="46.84622" lon="0.42315">
        <ele>144</ele>
        <time>2019-02-17T10:22:42.086Z</time>
      </trkpt>
      <trkpt lat="46.8462" lon="0.4232">
        <ele>143</ele>
        <time>2019-02-17T10:22:43.086Z</time>
      </trkpt>
      <trkpt lat="46.84618" lon="0.42325">
        <ele>142</ele>
        <time>2019-02-17T10:22:44.086Z</time>
      </trkpt>
      <trkpt lat="46.84616" lon="0.4233">
        <ele>142</ele>
        <time>2019-02-17T10:22:45.086Z</time>
      </trkpt>
      <trkpt lat="46.84614" lon="0.42336">
        <ele>141</ele>
        <time>2019-02-17T10:22:46.086Z</time>
      </trkpt>
      <trkpt lat="46.84612" lon="0.42341">
        <ele>140</ele>
        <time>2019-02-17T10:22:47.086Z</time>
      </trkpt>
      <trkpt lat="46.8461" lon="0.42346">
        <ele>139</ele>
        <time>2019-02-17T10:22:48.086Z</time>
      </trkpt>
      <trkpt lat="46.84607" lon="0.42352">
        <ele>138</ele>
        <time>2019-02-17T10:22:49.086Z</time>
      </trkpt>
      <trkpt lat="46.84605" lon="0.42356">
        <ele>137</ele>
        <time>2019-02-17T10:22:50.086Z</time>
      </trkpt>
      <trkpt lat="46.84602" lon="0.42361">
        <ele>136</ele>
        <time>2019-02-17T10:22:51.086Z</time>
      </trkpt>
      <trkpt lat="46.846" lon="0.42366">
        <ele>135</ele>
        <time>2019-02-17T10:22:52.086Z</time>
      </trkpt>
      <trkpt lat="46.84597" lon="0.42371">
        <ele>135</ele>
        <time>2019-02-17T10:22:53.086Z</time>
      </trkpt>
      <trkpt lat="46.84594" lon="0.42376">
        <ele>136</ele>
        <time>2019-02-17T10:22:54.086Z</time>
      </trkpt>
      <trkpt lat="46.84592" lon="0.42381">
        <ele>139</ele>
        <time>2019-02-17T10:22:55.086Z</time>
      </trkpt>
      <trkpt lat="46.84589" lon="0.42385">
        <ele>139</ele>
        <time>2019-02-17T10:22:56.086Z</time>
      </trkpt>
      <trkpt lat="46.84586" lon="0.42388">
        <ele>140</ele>
        <time>2019-02-17T10:22:57.086Z</time>
      </trkpt>
      <trkpt lat="46.84584" lon="0.4239">
        <ele>140</ele>
        <time>2019-02-17T10:22:58.086Z</time>
      </trkpt>
      <trkpt lat="46.8458" lon="0.42391">
        <ele>140</ele>
        <time>2019-02-17T10:22:59.086Z</time>
      </trkpt>
      <trkpt lat="46.84577" lon="0.4239">
        <ele>139</ele>
        <time>2019-02-17T10:23:00.086Z</time>
      </trkpt>
      <trkpt lat="46.84574" lon="0.42389">
        <ele>139</ele>
        <time>2019-02-17T10:23:01.086Z</time>
      </trkpt>
      <trkpt lat="46.84572" lon="0.42385">
        <ele>137</ele>
        <time>2019-02-17T10:23:02.086Z</time>
      </trkpt>
      <trkpt lat="46.8457" lon="0.42382">
        <ele>137</ele>
        <time>2019-02-17T10:23:03.086Z</time>
      </trkpt>
      <trkpt lat="46.84569" lon="0.42378">
        <ele>137</ele>
        <time>2019-02-17T10:23:04.086Z</time>
      </trkpt>
      <trkpt lat="46.84568" lon="0.42376">
        <ele>137</ele>
        <time>2019-02-17T10:23:05.086Z</time>
      </trkpt>
      <trkpt lat="46.84568" lon="0.42373">
        <ele>138</ele>
        <time>2019-02-17T10:23:06.086Z</time>
      </trkpt>
      <trkpt lat="46.84568" lon="0.42369">
        <ele>139</ele>
        <time>2019-02-17T10:23:07.086Z</time>
      </trkpt>
      <trkpt lat="46.84568" lon="0.42365">
        <ele>138</ele>
        <time>2019-02-17T10:23:08.086Z</time>
      </trkpt>
      <trkpt lat="46.84567" lon="0.4236">
        <ele>138</ele>
        <time>2019-02-17T10:23:09.086Z</time>
      </trkpt>
      <trkpt lat="46.84566" lon="0.42355">
        <ele>138</ele>
        <time>2019-02-17T10:23:10.086Z</time>
      </trkpt>
      <trkpt lat="46.84566" lon="0.4235">
        <ele>137</ele>
        <time>2019-02-17T10:23:11.086Z</time>
      </trkpt>
      <trkpt lat="46.84566" lon="0.42346">
        <ele>137</ele>
        <time>2019-02-17T10:23:12.086Z</time>
      </trkpt>
      <trkpt lat="46.84566" lon="0.42341">
        <ele>136</ele>
        <time>2019-02-17T10:23:13.086Z</time>
      </trkpt>
      <trkpt lat="46.84566" lon="0.42337">
        <ele>135</ele>
        <time>2019-02-17T10:23:14.086Z</time>
      </trkpt>
      <trkpt lat="46.84565" lon="0.42332">
        <ele>134</ele>
        <time>2019-02-17T10:23:15.086Z</time>
      </trkpt>
      <trkpt lat="46.84564" lon="0.42328">
        <ele>133</ele>
        <time>2019-02-17T10:23:16.086Z</time>
      </trkpt>
      <trkpt lat="46.84562" lon="0.42324">
        <ele>133</ele>
        <time>2019-02-17T10:23:17.086Z</time>
      </trkpt>
      <trkpt lat="46.84561" lon="0.42319">
        <ele>130</ele>
        <time>2019-02-17T10:23:18.086Z</time>
      </trkpt>
      <trkpt lat="46.84559" lon="0.42314">
        <ele>129</ele>
        <time>2019-02-17T10:23:19.086Z</time>
      </trkpt>
      <trkpt lat="46.84559" lon="0.42309">
        <ele>129</ele>
        <time>2019-02-17T10:23:20.086Z</time>
      </trkpt>
      <trkpt lat="46.84558" lon="0.42305">
        <ele>128</ele>
        <time>2019-02-17T10:23:21.086Z</time>
      </trkpt>
      <trkpt lat="46.84558" lon="0.423">
        <ele>127</ele>
        <time>2019-02-17T10:23:22.086Z</time>
      </trkpt>
      <trkpt lat="46.84557" lon="0.42296">
        <ele>126</ele>
        <time>2019-02-17T10:23:23.086Z</time>
      </trkpt>
      <trkpt lat="46.84557" lon="0.42292">
        <ele>126</ele>
        <time>2019-02-17T10:23:24.086Z</time>
      </trkpt>
      <trkpt lat="46.84556" lon="0.42288">
        <ele>124</ele>
        <time>2019-02-17T10:23:25.086Z</time>
      </trkpt>
      <trkpt lat="46.84555" lon="0.42283">
        <ele>123</ele>
        <time>2019-02-17T10:23:26.086Z</time>
      </trkpt>
      <trkpt lat="46.84555" lon="0.42279">
        <ele>124</ele>
        <time>2019-02-17T10:23:27.086Z</time>
      </trkpt>
      <trkpt lat="46.84553" lon="0.42276">
        <ele>124</ele>
        <time>2019-02-17T10:23:28.086Z</time>
      </trkpt>
      <trkpt lat="46.84552" lon="0.42274">
        <ele>122</ele>
        <time>2019-02-17T10:23:29.086Z</time>
      </trkpt>
      <trkpt lat="46.84549" lon="0.42271">
        <ele>122</ele>
        <time>2019-02-17T10:23:30.086Z</time>
      </trkpt>
      <trkpt lat="46.84547" lon="0.42268">
        <ele>121</ele>
        <time>2019-02-17T10:23:31.086Z</time>
      </trkpt>
      <trkpt lat="46.84545" lon="0.42265">
        <ele>119</ele>
        <time>2019-02-17T10:23:32.086Z</time>
      </trkpt>
      <trkpt lat="46.84543" lon="0.4226">
        <ele>120</ele>
        <time>2019-02-17T10:23:33.086Z</time>
      </trkpt>
      <trkpt lat="46.84542" lon="0.42256">
        <ele>119</ele>
        <time>2019-02-17T10:23:34.086Z</time>
      </trkpt>
      <trkpt lat="46.8454" lon="0.42252">
        <ele>116</ele>
        <time>2019-02-17T10:23:35.086Z</time>
      </trkpt>
      <trkpt lat="46.84538" lon="0.42249">
        <ele>115</ele>
        <time>2019-02-17T10:23:36.086Z</time>
      </trkpt>
      <trkpt lat="46.84535" lon="0.42246">
        <ele>114</ele>
        <time>2019-02-17T10:23:37.086Z</time>
      </trkpt>
      <trkpt lat="46.84532" lon="0.42244">
        <ele>114</ele>
        <time>2019-02-17T10:23:38.086Z</time>
      </trkpt>
      <trkpt lat="46.8453" lon="0.42241">
        <ele>114</ele>
        <time>2019-02-17T10:23:39.086Z</time>
      </trkpt>
      <trkpt lat="46.84527" lon="0.42238">
        <ele>113</ele>
        <time>2019-02-17T10:23:40.086Z</time>
      </trkpt>
      <trkpt lat="46.84523" lon="0.42236">
        <ele>114</ele>
        <time>2019-02-17T10:23:41.086Z</time>
      </trkpt>
      <trkpt lat="46.8452" lon="0.42234">
        <ele>114</ele>
        <time>2019-02-17T10:23:42.086Z</time>
      </trkpt>
      <trkpt lat="46.84517" lon="0.4223">
        <ele>113</ele>
        <time>2019-02-17T10:23:43.086Z</time>
      </trkpt>
      <trkpt lat="46.84513" lon="0.42227">
        <ele>112</ele>
        <time>2019-02-17T10:23:44.086Z</time>
      </trkpt>
      <trkpt lat="46.8451" lon="0.42225">
        <ele>110</ele>
        <time>2019-02-17T10:23:45.086Z</time>
      </trkpt>
      <trkpt lat="46.84507" lon="0.42223">
        <ele>110</ele>
        <time>2019-02-17T10:23:46.086Z</time>
      </trkpt>
      <trkpt lat="46.84503" lon="0.42221">
        <ele>109</ele>
        <time>2019-02-17T10:23:47.086Z</time>
      </trkpt>
      <trkpt lat="46.845" lon="0.4222">
        <ele>108</ele>
        <time>2019-02-17T10:23:48.086Z</time>
      </trkpt>
      <trkpt lat="46.84497" lon="0.42219">
        <ele>108</ele>
        <time>2019-02-17T10:23:49.086Z</time>
      </trkpt>
      <trkpt lat="46.84495" lon="0.4222">
        <ele>104</ele>
        <time>2019-02-17T10:23:50.086Z</time>
      </trkpt>
      <trkpt lat="46.84492" lon="0.42221">
        <ele>104</ele>
        <time>2019-02-17T10:23:51.086Z</time>
      </trkpt>
      <trkpt lat="46.84489" lon="0.42222">
        <ele>103</ele>
        <time>2019-02-17T10:23:52.086Z</time>
      </trkpt>
      <trkpt lat="46.84486" lon="0.42222">
        <ele>102</ele>
        <time>2019-02-17T10:23:53.086Z</time>
      </trkpt>
      <trkpt lat="46.84483" lon="0.42222">
        <ele>101</ele>
        <time>2019-02-17T10:23:54.086Z</time>
      </trkpt>
      <trkpt lat="46.8448" lon="0.42221">
        <ele>100</ele>
        <time>2019-02-17T10:23:55.086Z</time>
      </trkpt>
      <trkpt lat="46.84477" lon="0.4222">
        <ele>100</ele>
        <time>2019-02-17T10:23:56.086Z</time>
      </trkpt>
      <trkpt lat="46.84475" lon="0.42221">
        <ele>100</ele>
        <time>2019-02-17T10:23:57.086Z</time>
      </trkpt>
      <trkpt lat="46.84473" lon="0.42223">
        <ele>102</ele>
        <time>2019-02-17T10:23:58.086Z</time>
      </trkpt>
      <trkpt lat="46.84471" lon="0.42226">
        <ele>105</ele>
        <time>2019-02-17T10:23:59.086Z</time>
      </trkpt>
      <trkpt lat="46.84469" lon="0.42228">
        <ele>107</ele>
        <time>2019-02-17T10:24:00.086Z</time>
      </trkpt>
      <trkpt lat="46.84468" lon="0.42231">
        <ele>106</ele>
        <time>2019-02-17T10:24:01.086Z</time>
      </trkpt>
      <trkpt lat="46.84466" lon="0.42233">
        <ele>106</ele>
        <time>2019-02-17T10:24:02.086Z</time>
      </trkpt>
      <trkpt lat="46.84465" lon="0.42236">
        <ele>106</ele>
        <time>2019-02-17T10:24:03.086Z</time>
      </trkpt>
      <trkpt lat="46.84463" lon="0.42239">
        <ele>108</ele>
        <time>2019-02-17T10:24:04.086Z</time>
      </trkpt>
      <trkpt lat="46.84462" lon="0.42242">
        <ele>108</ele>
        <time>2019-02-17T10:24:05.086Z</time>
      </trkpt>
      <trkpt lat="46.84461" lon="0.42244">
        <ele>109</ele>
        <time>2019-02-17T10:24:06.086Z</time>
      </trkpt>
      <trkpt lat="46.8446" lon="0.42248">
        <ele>109</ele>
        <time>2019-02-17T10:24:07.086Z</time>
      </trkpt>
      <trkpt lat="46.84458" lon="0.42251">
        <ele>111</ele>
        <time>2019-02-17T10:24:08.086Z</time>
      </trkpt>
      <trkpt lat="46.84457" lon="0.42255">
        <ele>111</ele>
        <time>2019-02-17T10:24:09.086Z</time>
      </trkpt>
      <trkpt lat="46.84455" lon="0.42258">
        <ele>111</ele>
        <time>2019-02-17T10:24:10.086Z</time>
      </trkpt>
      <trkpt lat="46.84453" lon="0.42261">
        <ele>112</ele>
        <time>2019-02-17T10:24:11.086Z</time>
      </trkpt>
      <trkpt lat="46.84451" lon="0.42264">
        <ele>111</ele>
        <time>2019-02-17T10:24:12.086Z</time>
      </trkpt>
      <trkpt lat="46.84449" lon="0.42266">
        <ele>112</ele>
        <time>2019-02-17T10:24:13.086Z</time>
      </trkpt>
      <trkpt lat="46.84447" lon="0.42269">
        <ele>112</ele>
        <time>2019-02-17T10:24:14.086Z</time>
      </trkpt>
      <trkpt lat="46.84445" lon="0.4227">
        <ele>112</ele>
        <time>2019-02-17T10:24:15.086Z</time>
      </trkpt>
      <trkpt lat="46.84442" lon="0.42271">
        <ele>112</ele>
        <time>2019-02-17T10:24:16.086Z</time>
      </trkpt>
      <trkpt lat="46.8444" lon="0.42272">
        <ele>113</ele>
        <time>2019-02-17T10:24:17.086Z</time>
      </trkpt>
      <trkpt lat="46.84439" lon="0.42273">
        <ele>114</ele>
        <time>2019-02-17T10:24:18.086Z</time>
      </trkpt>
      <trkpt lat="46.84437" lon="0.42274">
        <ele>112</ele>
        <time>2019-02-17T10:24:19.086Z</time>
      </trkpt>
      <trkpt lat="46.84435" lon="0.42276">
        <ele>112</ele>
        <time>2019-02-17T10:24:20.086Z</time>
      </trkpt>
      <trkpt lat="46.84433" lon="0.42278">
        <ele>112</ele>
        <time>2019-02-17T10:24:21.086Z</time>
      </trkpt>
      <trkpt lat="46.84431" lon="0.4228">
        <ele>113</ele>
        <time>2019-02-17T10:24:22.086Z</time>
      </trkpt>
      <trkpt lat="46.84429" lon="0.42282">
        <ele>113</ele>
        <time>2019-02-17T10:24:23.086Z</time>
      </trkpt>
      <trkpt lat="46.84427" lon="0.42283">
        <ele>113</ele>
        <time>2019-02-17T10:24:24.086Z</time>
      </trkpt>
      <trkpt lat="46.84425" lon="0.42284">
        <ele>114</ele>
        <time>2019-02-17T10:24:25.086Z</time>
      </trkpt>
      <trkpt lat="46.84423" lon="0.42285">
        <ele>114</ele>
        <time>2019-02-17T10:24:26.086Z</time>
      </trkpt>
      <trkpt lat="46.84421" lon="0.42286">
        <ele>115</ele>
        <time>2019-02-17T10:24:27.086Z</time>
      </trkpt>
      <trkpt lat="46.84419" lon="0.42287">
        <ele>116</ele>
        <time>2019-02-17T10:24:28.086Z</time>
      </trkpt>
      <trkpt lat="46.84417" lon="0.42288">
        <ele>116</ele>
        <time>2019-02-17T10:24:29.086Z</time>
      </trkpt>
      <trkpt lat="46.84416" lon="0.4229">
        <ele>116</ele>
        <time>2019-02-17T10:24:30.086Z</time>
      </trkpt>
      <trkpt lat="46.84415" lon="0.42293">
        <ele>116</ele>
        <time>2019-02-17T10:24:31.086Z</time>
      </trkpt>
      <trkpt lat="46.84413" lon="0.42297">
        <ele>117</ele>
        <time>2019-02-17T10:24:32.086Z</time>
      </trkpt>
      <trkpt lat="46.84412" lon="0.42301">
        <ele>117</ele>
        <time>2019-02-17T10:24:33.086Z</time>
      </trkpt>
      <trkpt lat="46.8441" lon="0.42304">
        <ele>118</ele>
        <time>2019-02-17T10:24:34.086Z</time>
      </trkpt>
      <trkpt lat="46.84409" lon="0.42307">
        <ele>117</ele>
        <time>2019-02-17T10:24:35.086Z</time>
      </trkpt>
      <trkpt lat="46.84407" lon="0.4231">
        <ele>118</ele>
        <time>2019-02-17T10:24:36.086Z</time>
      </trkpt>
      <trkpt lat="46.84405" lon="0.42312">
        <ele>119</ele>
        <time>2019-02-17T10:24:37.086Z</time>
      </trkpt>
      <trkpt lat="46.84403" lon="0.42314">
        <ele>120</ele>
        <time>2019-02-17T10:24:38.086Z</time>
      </trkpt>
      <trkpt lat="46.84401" lon="0.42316">
        <ele>121</ele>
        <time>2019-02-17T10:24:39.086Z</time>
      </trkpt>
      <trkpt lat="46.84399" lon="0.42317">
        <ele>121</ele>
        <time>2019-02-17T10:24:40.086Z</time>
      </trkpt>
      <trkpt lat="46.84397" lon="0.42318">
        <ele>121</ele>
        <time>2019-02-17T10:24:41.086Z</time>
      </trkpt>
      <trkpt lat="46.84394" lon="0.42319">
        <ele>121</ele>
        <time>2019-02-17T10:24:42.086Z</time>
      </trkpt>
      <trkpt lat="46.84393" lon="0.4232">
        <ele>122</ele>
        <time>2019-02-17T10:24:43.086Z</time>
      </trkpt>
      <trkpt lat="46.84391" lon="0.42322">
        <ele>123</ele>
        <time>2019-02-17T10:24:44.086Z</time>
      </trkpt>
      <trkpt lat="46.84391" lon="0.42324">
        <ele>124</ele>
        <time>2019-02-17T10:24:45.086Z</time>
      </trkpt>
      <trkpt lat="46.8439" lon="0.42326">
        <ele>125</ele>
        <time>2019-02-17T10:24:46.086Z</time>
      </trkpt>
      <trkpt lat="46.84389" lon="0.42328">
        <ele>126</ele>
        <time>2019-02-17T10:24:47.086Z</time>
      </trkpt>
      <trkpt lat="46.84389" lon="0.4233">
        <ele>128</ele>
        <time>2019-02-17T10:24:48.086Z</time>
      </trkpt>
      <trkpt lat="46.84388" lon="0.42332">
        <ele>129</ele>
        <time>2019-02-17T10:24:49.086Z</time>
      </trkpt>
      <trkpt lat="46.84388" lon="0.42335">
        <ele>128</ele>
        <time>2019-02-17T10:24:50.086Z</time>
      </trkpt>
      <trkpt lat="46.84386" lon="0.42337">
        <ele>129</ele>
        <time>2019-02-17T10:24:51.086Z</time>
      </trkpt>
      <trkpt lat="46.84385" lon="0.4234">
        <ele>129</ele>
        <time>2019-02-17T10:24:52.086Z</time>
      </trkpt>
      <trkpt lat="46.84384" lon="0.42342">
        <ele>129</ele>
        <time>2019-02-17T10:24:53.086Z</time>
      </trkpt>
      <trkpt lat="46.84383" lon="0.42345">
        <ele>129</ele>
        <time>2019-02-17T10:24:54.086Z</time>
      </trkpt>
      <trkpt lat="46.84383" lon="0.42349">
        <ele>130</ele>
        <time>2019-02-17T10:24:55.086Z</time>
      </trkpt>
      <trkpt lat="46.84382" lon="0.42354">
        <ele>132</ele>
        <time>2019-02-17T10:24:56.086Z</time>
      </trkpt>
      <trkpt lat="46.84382" lon="0.42359">
        <ele>133</ele>
        <time>2019-02-17T10:24:57.086Z</time>
      </trkpt>
      <trkpt lat="46.84382" lon="0.42363">
        <ele>134</ele>
        <time>2019-02-17T10:24:58.086Z</time>
      </trkpt>
      <trkpt lat="46.84381" lon="0.42367">
        <ele>135</ele>
        <time>2019-02-17T10:24:59.086Z</time>
      </trkpt>
      <trkpt lat="46.8438" lon="0.42371">
        <ele>135</ele>
        <time>2019-02-17T10:25:00.086Z</time>
      </trkpt>
      <trkpt lat="46.84378" lon="0.42373">
        <ele>136</ele>
        <time>2019-02-17T10:25:01.086Z</time>
      </trkpt>
      <trkpt lat="46.84377" lon="0.42374">
        <ele>136</ele>
        <time>2019-02-17T10:25:02.086Z</time>
      </trkpt>
      <trkpt lat="46.84375" lon="0.42376">
        <ele>137</ele>
        <time>2019-02-17T10:25:03.086Z</time>
      </trkpt>
      <trkpt lat="46.84374" lon="0.42379">
        <ele>137</ele>
        <time>2019-02-17T10:25:04.086Z</time>
      </trkpt>
      <trkpt lat="46.84373" lon="0.42382">
        <ele>137</ele>
        <time>2019-02-17T10:25:05.086Z</time>
      </trkpt>
      <trkpt lat="46.84371" lon="0.42386">
        <ele>137</ele>
        <time>2019-02-17T10:25:06.086Z</time>
      </trkpt>
      <trkpt lat="46.8437" lon="0.42389">
        <ele>136</ele>
        <time>2019-02-17T10:25:07.086Z</time>
      </trkpt>
      <trkpt lat="46.84368" lon="0.42392">
        <ele>136</ele>
        <time>2019-02-17T10:25:08.086Z</time>
      </trkpt>
      <trkpt lat="46.84367" lon="0.42394">
        <ele>136</ele>
        <time>2019-02-17T10:25:09.086Z</time>
      </trkpt>
      <trkpt lat="46.84365" lon="0.42396">
        <ele>137</ele>
        <time>2019-02-17T10:25:10.086Z</time>
      </trkpt>
      <trkpt lat="46.84363" lon="0.42399">
        <ele>137</ele>
        <time>2019-02-17T10:25:11.086Z</time>
      </trkpt>
      <trkpt lat="46.84362" lon="0.42402">
        <ele>138</ele>
        <time>2019-02-17T10:25:12.086Z</time>
      </trkpt>
      <trkpt lat="46.84361" lon="0.42405">
        <ele>138</ele>
        <time>2019-02-17T10:25:13.086Z</time>
      </trkpt>
      <trkpt lat="46.84359" lon="0.42408">
        <ele>139</ele>
        <time>2019-02-17T10:25:14.086Z</time>
      </trkpt>
      <trkpt lat="46.84357" lon="0.4241">
        <ele>138</ele>
        <time>2019-02-17T10:25:15.086Z</time>
      </trkpt>
      <trkpt lat="46.84356" lon="0.42412">
        <ele>138</ele>
        <time>2019-02-17T10:25:16.086Z</time>
      </trkpt>
      <trkpt lat="46.84355" lon="0.42414">
        <ele>138</ele>
        <time>2019-02-17T10:25:17.086Z</time>
      </trkpt>
      <trkpt lat="46.84354" lon="0.42416">
        <ele>138</ele>
        <time>2019-02-17T10:25:18.086Z</time>
      </trkpt>
      <trkpt lat="46.84352" lon="0.42419">
        <ele>138</ele>
        <time>2019-02-17T10:25:19.086Z</time>
      </trkpt>
      <trkpt lat="46.84351" lon="0.42422">
        <ele>139</ele>
        <time>2019-02-17T10:25:20.086Z</time>
      </trkpt>
      <trkpt lat="46.8435" lon="0.42425">
        <ele>139</ele>
        <time>2019-02-17T10:25:21.086Z</time>
      </trkpt>
      <trkpt lat="46.84349" lon="0.42428">
        <ele>140</ele>
        <time>2019-02-17T10:25:22.086Z</time>
      </trkpt>
      <trkpt lat="46.84348" lon="0.42432">
        <ele>140</ele>
        <time>2019-02-17T10:25:23.086Z</time>
      </trkpt>
      <trkpt lat="46.84347" lon="0.42434">
        <ele>140</ele>
        <time>2019-02-17T10:25:24.086Z</time>
      </trkpt>
      <trkpt lat="46.84345" lon="0.42437">
        <ele>140</ele>
        <time>2019-02-17T10:25:25.086Z</time>
      </trkpt>
      <trkpt lat="46.84344" lon="0.42438">
        <ele>140</ele>
        <time>2019-02-17T10:25:26.086Z</time>
      </trkpt>
      <trkpt lat="46.84344" lon="0.42439">
        <ele>140</ele>
        <time>2019-02-17T10:25:27.086Z</time>
      </trkpt>
      <trkpt lat="46.84343" lon="0.42439">
        <ele>141</ele>
        <time>2019-02-17T10:25:28.086Z</time>
      </trkpt>
      <trkpt lat="46.84342" lon="0.42439">
        <ele>141</ele>
        <time>2019-02-17T10:25:29.086Z</time>
      </trkpt>
      <trkpt lat="46.84341" lon="0.42439">
        <ele>141</ele>
        <time>2019-02-17T10:25:30.086Z</time>
      </trkpt>
      <trkpt lat="46.8434" lon="0.42439">
        <ele>141</ele>
        <time>2019-02-17T10:25:31.086Z</time>
      </trkpt>
      <trkpt lat="46.84339" lon="0.4244">
        <ele>142</ele>
        <time>2019-02-17T10:25:32.086Z</time>
      </trkpt>
      <trkpt lat="46.84338" lon="0.4244">
        <ele>142</ele>
        <time>2019-02-17T10:25:33.086Z</time>
      </trkpt>
      <trkpt lat="46.84337" lon="0.42441">
        <ele>142</ele>
        <time>2019-02-17T10:25:34.086Z</time>
      </trkpt>
      <trkpt lat="46.84337" lon="0.42441">
        <ele>142</ele>
        <time>2019-02-17T10:25:35.086Z</time>
      </trkpt>
      <trkpt lat="46.84336" lon="0.42442">
        <ele>143</ele>
        <time>2019-02-17T10:25:36.086Z</time>
      </trkpt>
      <trkpt lat="46.84335" lon="0.42443">
        <ele>143</ele>
        <time>2019-02-17T10:25:37.086Z</time>
      </trkpt>
      <trkpt lat="46.84335" lon="0.42445">
        <ele>144</ele>
        <time>2019-02-17T10:25:38.086Z</time>
      </trkpt>
      <trkpt lat="46.84334" lon="0.42447">
        <ele>144</ele>
        <time>2019-02-17T10:25:39.086Z</time>
      </trkpt>
      <trkpt lat="46.84334" lon="0.42449">
        <ele>144</ele>
        <time>2019-02-17T10:25:40.086Z</time>
      </trkpt>
      <trkpt lat="46.84333" lon="0.42452">
        <ele>144</ele>
        <time>2019-02-17T10:25:41.086Z</time>
      </trkpt>
      <trkpt lat="46.84332" lon="0.42455">
        <ele>144</ele>
        <time>2019-02-17T10:25:42.086Z</time>
      </trkpt>
      <trkpt lat="46.84332" lon="0.42458">
        <ele>145</ele>
        <time>2019-02-17T10:25:43.086Z</time>
      </trkpt>
      <trkpt lat="46.84332" lon="0.42461">
        <ele>145</ele>
        <time>2019-02-17T10:25:44.086Z</time>
      </trkpt>
      <trkpt lat="46.84333" lon="0.42464">
        <ele>145</ele>
        <time>2019-02-17T10:25:45.086Z</time>
      </trkpt>
      <trkpt lat="46.84332" lon="0.42468">
        <ele>146</ele>
        <time>2019-02-17T10:25:46.086Z</time>
      </trkpt>
      <trkpt lat="46.84332" lon="0.42472">
        <ele>146</ele>
        <time>2019-02-17T10:25:47.086Z</time>
      </trkpt>
      <trkpt lat="46.84332" lon="0.42476">
        <ele>147</ele>
        <time>2019-02-17T10:25:48.086Z</time>
      </trkpt>
      <trkpt lat="46.84332" lon="0.4248">
        <ele>148</ele>
        <time>2019-02-17T10:25:49.086Z</time>
      </trkpt>
      <trkpt lat="46.84332" lon="0.42484">
        <ele>149</ele>
        <time>2019-02-17T10:25:50.086Z</time>
      </trkpt>
      <trkpt lat="46.84333" lon="0.42488">
        <ele>149</ele>
        <time>2019-02-17T10:25:51.086Z</time>
      </trkpt>
      <trkpt lat="46.84332" lon="0.4249">
        <ele>150</ele>
        <time>2019-02-17T10:25:52.086Z</time>
      </trkpt>
      <trkpt lat="46.84332" lon="0.42491">
        <ele>151</ele>
        <time>2019-02-17T10:25:53.086Z</time>
      </trkpt>
      <trkpt lat="46.84332" lon="0.42492">
        <ele>151</ele>
        <time>2019-02-17T10:25:54.086Z</time>
      </trkpt>
      <trkpt lat="46.84332" lon="0.42492">
        <ele>152</ele>
        <time>2019-02-17T10:25:55.086Z</time>
      </trkpt>
      <trkpt lat="46.84332" lon="0.42493">
        <ele>152</ele>
        <time>2019-02-17T10:25:56.086Z</time>
      </trkpt>
      <trkpt lat="46.84332" lon="0.42493">
        <ele>152</ele>
        <time>2019-02-17T10:25:57.086Z</time>
      </trkpt>
      <trkpt lat="46.84332" lon="0.42494">
        <ele>153</ele>
        <time>2019-02-17T10:25:58.086Z</time>
      </trkpt>
      <trkpt lat="46.84332" lon="0.42495">
        <ele>153</ele>
        <time>2019-02-17T10:25:59.086Z</time>
      </trkpt>
      <trkpt lat="46.84332" lon="0.42496">
        <ele>154</ele>
        <time>2019-02-17T10:26:00.086Z</time>
      </trkpt>
      <trkpt lat="46.84332" lon="0.42497">
        <ele>154</ele>
        <time>2019-02-17T10:26:01.086Z</time>
      </trkpt>
      <trkpt lat="46.84331" lon="0.42498">
        <ele>155</ele>
        <time>2019-02-17T10:26:02.086Z</time>
      </trkpt>
      <trkpt lat="46.84331" lon="0.42499">
        <ele>155</ele>
        <time>2019-02-17T10:26:03.086Z</time>
      </trkpt>
      <trkpt lat="46.84331" lon="0.42499">
        <ele>155</ele>
        <time>2019-02-17T10:26:04.086Z</time>
      </trkpt>
      <trkpt lat="46.84331" lon="0.425">
        <ele>154</ele>
        <time>2019-02-17T10:26:05.086Z</time>
      </trkpt>
      <trkpt lat="46.84331" lon="0.425">
        <ele>154</ele>
        <time>2019-02-17T10:26:06.086Z</time>
      </trkpt>
      <trkpt lat="46.84331" lon="0.425">
        <ele>154</ele>
        <time>2019-02-17T10:26:07.086Z</time>
      </trkpt>
      <trkpt lat="46.84331" lon="0.425">
        <ele>154</ele>
        <time>2019-02-17T10:26:08.086Z</time>
      </trkpt>
      <trkpt lat="46.84331" lon="0.425">
        <ele>154</ele>
        <time>2019-02-17T10:26:09.086Z</time>
      </trkpt>
      <trkpt lat="46.84331" lon="0.425">
        <ele>154</ele>
        <time>2019-02-17T10:26:10.086Z</time>
      </trkpt>
      <trkpt lat="46.84331" lon="0.42501">
        <ele>154</ele>
        <time>2019-02-17T10:26:11.086Z</time>
      </trkpt>
      <trkpt lat="46.84331" lon="0.42501">
        <ele>155</ele>
        <time>2019-02-17T10:26:12.086Z</time>
      </trkpt>
      <trkpt lat="46.84331" lon="0.42502">
        <ele>155</ele>
        <time>2019-02-17T10:26:13.086Z</time>
      </trkpt>
      <trkpt lat="46.84331" lon="0.42504">
        <ele>155</ele>
        <time>2019-02-17T10:26:14.086Z</time>
      </trkpt>
      <trkpt lat="46.84331" lon="0.42506">
        <ele>155</ele>
        <time>2019-02-17T10:26:15.086Z</time>
      </trkpt>
      <trkpt lat="46.8433" lon="0.42508">
        <ele>154</ele>
        <time>2019-02-17T10:26:16.086Z</time>
      </trkpt>
      <trkpt lat="46.8433" lon="0.4251">
        <ele>154</ele>
        <time>2019-02-17T10:26:17.086Z</time>
      </trkpt>
      <trkpt lat="46.8433" lon="0.42513">
        <ele>154</ele>
        <time>2019-02-17T10:26:18.086Z</time>
      </trkpt>
      <trkpt lat="46.8433" lon="0.42515">
        <ele>155</ele>
        <time>2019-02-17T10:26:19.086Z</time>
      </trkpt>
      <trkpt lat="46.8433" lon="0.42518">
        <ele>155</ele>
        <time>2019-02-17T10:26:20.086Z</time>
      </trkpt>
      <trkpt lat="46.8433" lon="0.4252">
        <ele>154</ele>
        <time>2019-02-17T10:26:21.086Z</time>
      </trkpt>
      <trkpt lat="46.8433" lon="0.42522">
        <ele>155</ele>
        <time>2019-02-17T10:26:22.086Z</time>
      </trkpt>
      <trkpt lat="46.8433" lon="0.42523">
        <ele>154</ele>
        <time>2019-02-17T10:26:23.086Z</time>
      </trkpt>
      <trkpt lat="46.84329" lon="0.42525">
        <ele>154</ele>
        <time>2019-02-17T10:26:24.086Z</time>
      </trkpt>
      <trkpt lat="46.84329" lon="0.42526">
        <ele>154</ele>
        <time>2019-02-17T10:26:25.086Z</time>
      </trkpt>
      <trkpt lat="46.84329" lon="0.42528">
        <ele>154</ele>
        <time>2019-02-17T10:26:26.086Z</time>
      </trkpt>
      <trkpt lat="46.84329" lon="0.42529">
        <ele>154</ele>
        <time>2019-02-17T10:26:27.086Z</time>
      </trkpt>
      <trkpt lat="46.84328" lon="0.42531">
        <ele>154</ele>
        <time>2019-02-17T10:26:28.086Z</time>
      </trkpt>
      <trkpt lat="46.84328" lon="0.42534">
        <ele>154</ele>
        <time>2019-02-17T10:26:29.086Z</time>
      </trkpt>
      <trkpt lat="46.84326" lon="0.42536">
        <ele>154</ele>
        <time>2019-02-17T10:26:30.086Z</time>
      </trkpt>
      <trkpt lat="46.84325" lon="0.42538">
        <ele>154</ele>
        <time>2019-02-17T10:26:31.086Z</time>
      </trkpt>
      <trkpt lat="46.84325" lon="0.4254">
        <ele>153</ele>
        <time>2019-02-17T10:26:32.086Z</time>
      </trkpt>
      <trkpt lat="46.84325" lon="0.42543">
        <ele>154</ele>
        <time>2019-02-17T10:26:33.086Z</time>
      </trkpt>
      <trkpt lat="46.84324" lon="0.42545">
        <ele>154</ele>
        <time>2019-02-17T10:26:34.086Z</time>
      </trkpt>
      <trkpt lat="46.84324" lon="0.42548">
        <ele>154</ele>
        <time>2019-02-17T10:26:35.086Z</time>
      </trkpt>
      <trkpt lat="46.84323" lon="0.4255">
        <ele>154</ele>
        <time>2019-02-17T10:26:36.086Z</time>
      </trkpt>
      <trkpt lat="46.84322" lon="0.42552">
        <ele>154</ele>
        <time>2019-02-17T10:26:37.086Z</time>
      </trkpt>
      <trkpt lat="46.8432" lon="0.42553">
        <ele>154</ele>
        <time>2019-02-17T10:26:38.086Z</time>
      </trkpt>
      <trkpt lat="46.84319" lon="0.42554">
        <ele>154</ele>
        <time>2019-02-17T10:26:39.086Z</time>
      </trkpt>
      <trkpt lat="46.84317" lon="0.42556">
        <ele>154</ele>
        <time>2019-02-17T10:26:40.086Z</time>
      </trkpt>
      <trkpt lat="46.84316" lon="0.42558">
        <ele>155</ele>
        <time>2019-02-17T10:26:41.086Z</time>
      </trkpt>
      <trkpt lat="46.84315" lon="0.42561">
        <ele>155</ele>
        <time>2019-02-17T10:26:42.086Z</time>
      </trkpt>
      <trkpt lat="46.84315" lon="0.42564">
        <ele>156</ele>
        <time>2019-02-17T10:26:43.086Z</time>
      </trkpt>
      <trkpt lat="46.84314" lon="0.42568">
        <ele>156</ele>
        <time>2019-02-17T10:26:44.086Z</time>
      </trkpt>
      <trkpt lat="46.84313" lon="0.42571">
        <ele>157</ele>
        <time>2019-02-17T10:26:45.086Z</time>
      </trkpt>
      <trkpt lat="46.84312" lon="0.42573">
        <ele>157</ele>
        <time>2019-02-17T10:26:46.086Z</time>
      </trkpt>
      <trkpt lat="46.84312" lon="0.42576">
        <ele>158</ele>
        <time>2019-02-17T10:26:47.086Z</time>
      </trkpt>
      <trkpt lat="46.84311" lon="0.42578">
        <ele>158</ele>
        <time>2019-02-17T10:26:48.086Z</time>
      </trkpt>
      <trkpt lat="46.84311" lon="0.42579">
        <ele>158</ele>
        <time>2019-02-17T10:26:49.086Z</time>
      </trkpt>
      <trkpt lat="46.84312" lon="0.42581">
        <ele>158</ele>
        <time>2019-02-17T10:26:50.086Z</time>
      </trkpt>
      <trkpt lat="46.84313" lon="0.42584">
        <ele>158</ele>
        <time>2019-02-17T10:26:51.086Z</time>
      </trkpt>
      <trkpt lat="46.84314" lon="0.42587">
        <ele>158</ele>
        <time>2019-02-17T10:26:52.086Z</time>
      </trkpt>
      <trkpt lat="46.84314" lon="0.4259">
        <ele>158</ele>
        <time>2019-02-17T10:26:53.086Z</time>
      </trkpt>
      <trkpt lat="46.84314" lon="0.42592">
        <ele>158</ele>
        <time>2019-02-17T10:26:54.086Z</time>
      </trkpt>
      <trkpt lat="46.84314" lon="0.42594">
        <ele>158</ele>
        <time>2019-02-17T10:26:55.086Z</time>
      </trkpt>
      <trkpt lat="46.84313" lon="0.42597">
        <ele>154</ele>
        <time>2019-02-17T10:26:56.086Z</time>
      </trkpt>
      <trkpt lat="46.84312" lon="0.426">
        <ele>152</ele>
        <time>2019-02-17T10:26:57.086Z</time>
      </trkpt>
      <trkpt lat="46.8431" lon="0.42603">
        <ele>149</ele>
        <time>2019-02-17T10:26:58.086Z</time>
      </trkpt>
      <trkpt lat="46.84309" lon="0.42605">
        <ele>147</ele>
        <time>2019-02-17T10:26:59.086Z</time>
      </trkpt>
      <trkpt lat="46.84307" lon="0.42606">
        <ele>147</ele>
        <time>2019-02-17T10:27:00.086Z</time>
      </trkpt>
      <trkpt lat="46.84306" lon="0.42606">
        <ele>146</ele>
        <time>2019-02-17T10:27:01.086Z</time>
      </trkpt>
      <trkpt lat="46.84304" lon="0.42606">
        <ele>145</ele>
        <time>2019-02-17T10:27:02.086Z</time>
      </trkpt>
      <trkpt lat="46.84302" lon="0.42606">
        <ele>143</ele>
        <time>2019-02-17T10:27:03.086Z</time>
      </trkpt>
      <trkpt lat="46.843" lon="0.42606">
        <ele>143</ele>
        <time>2019-02-17T10:27:04.086Z</time>
      </trkpt>
      <trkpt lat="46.84298" lon="0.42605">
        <ele>142</ele>
        <time>2019-02-17T10:27:05.086Z</time>
      </trkpt>
      <trkpt lat="46.84295" lon="0.42604">
        <ele>141</ele>
        <time>2019-02-17T10:27:06.086Z</time>
      </trkpt>
      <trkpt lat="46.84293" lon="0.42604">
        <ele>140</ele>
        <time>2019-02-17T10:27:07.086Z</time>
      </trkpt>
      <trkpt lat="46.8429" lon="0.42603">
        <ele>140</ele>
        <time>2019-02-17T10:27:08.086Z</time>
      </trkpt>
      <trkpt lat="46.84288" lon="0.42602">
        <ele>139</ele>
        <time>2019-02-17T10:27:09.086Z</time>
      </trkpt>
      <trkpt lat="46.84285" lon="0.42602">
        <ele>137</ele>
        <time>2019-02-17T10:27:10.086Z</time>
      </trkpt>
      <trkpt lat="46.84282" lon="0.42601">
        <ele>136</ele>
        <time>2019-02-17T10:27:11.086Z</time>
      </trkpt>
      <trkpt lat="46.84279" lon="0.426">
        <ele>135</ele>
        <time>2019-02-17T10:27:12.086Z</time>
      </trkpt>
      <trkpt lat="46.84276" lon="0.426">
        <ele>135</ele>
        <time>2019-02-17T10:27:13.086Z</time>
      </trkpt>
      <trkpt lat="46.84273" lon="0.42599">
        <ele>135</ele>
        <time>2019-02-17T10:27:14.086Z</time>
      </trkpt>
      <trkpt lat="46.8427" lon="0.42598">
        <ele>134</ele>
        <time>2019-02-17T10:27:15.086Z</time>
      </trkpt>
      <trkpt lat="46.84267" lon="0.42597">
        <ele>133</ele>
        <time>2019-02-17T10:27:16.086Z</time>
      </trkpt>
      <trkpt lat="46.84264" lon="0.42596">
        <ele>133</ele>
        <time>2019-02-17T10:27:17.086Z</time>
      </trkpt>
      <trkpt lat="46.84261" lon="0.42595">
        <ele>132</ele>
        <time>2019-02-17T10:27:18.086Z</time>
      </trkpt>
      <trkpt lat="46.84258" lon="0.42594">
        <ele>131</ele>
        <time>2019-02-17T10:27:19.086Z</time>
      </trkpt>
      <trkpt lat="46.84255" lon="0.42593">
        <ele>130</ele>
        <time>2019-02-17T10:27:20.086Z</time>
      </trkpt>
      <trkpt lat="46.84252" lon="0.42592">
        <ele>131</ele>
        <time>2019-02-17T10:27:21.086Z</time>
      </trkpt>
      <trkpt lat="46.84249" lon="0.42591">
        <ele>132</ele>
        <time>2019-02-17T10:27:22.086Z</time>
      </trkpt>
      <trkpt lat="46.84245" lon="0.42591">
        <ele>132</ele>
        <time>2019-02-17T10:27:23.086Z</time>
      </trkpt>
      <trkpt lat="46.84242" lon="0.4259">
        <ele>131</ele>
        <time>2019-02-17T10:27:24.086Z</time>
      </trkpt>
      <trkpt lat="46.84238" lon="0.42589">
        <ele>130</ele>
        <time>2019-02-17T10:27:25.086Z</time>
      </trkpt>
      <trkpt lat="46.84235" lon="0.42588">
        <ele>129</ele>
        <time>2019-02-17T10:27:26.086Z</time>
      </trkpt>
      <trkpt lat="46.84232" lon="0.42587">
        <ele>129</ele>
        <time>2019-02-17T10:27:27.086Z</time>
      </trkpt>
      <trkpt lat="46.84228" lon="0.42585">
        <ele>128</ele>
        <time>2019-02-17T10:27:28.086Z</time>
      </trkpt>
      <trkpt lat="46.84225" lon="0.42584">
        <ele>128</ele>
        <time>2019-02-17T10:27:29.086Z</time>
      </trkpt>
      <trkpt lat="46.84222" lon="0.42582">
        <ele>128</ele>
        <time>2019-02-17T10:27:30.086Z</time>
      </trkpt>
      <trkpt lat="46.84218" lon="0.42581">
        <ele>127</ele>
        <time>2019-02-17T10:27:31.086Z</time>
      </trkpt>
      <trkpt lat="46.84215" lon="0.4258">
        <ele>127</ele>
        <time>2019-02-17T10:27:32.086Z</time>
      </trkpt>
      <trkpt lat="46.84211" lon="0.42579">
        <ele>126</ele>
        <time>2019-02-17T10:27:33.086Z</time>
      </trkpt>
      <trkpt lat="46.84208" lon="0.42578">
        <ele>125</ele>
        <time>2019-02-17T10:27:34.086Z</time>
      </trkpt>
      <trkpt lat="46.84205" lon="0.42577">
        <ele>124</ele>
        <time>2019-02-17T10:27:35.086Z</time>
      </trkpt>
      <trkpt lat="46.84201" lon="0.42575">
        <ele>123</ele>
        <time>2019-02-17T10:27:36.086Z</time>
      </trkpt>
      <trkpt lat="46.84198" lon="0.42573">
        <ele>122</ele>
        <time>2019-02-17T10:27:37.086Z</time>
      </trkpt>
      <trkpt lat="46.84194" lon="0.42572">
        <ele>121</ele>
        <time>2019-02-17T10:27:38.086Z</time>
      </trkpt>
      <trkpt lat="46.8419" lon="0.4257">
        <ele>121</ele>
        <time>2019-02-17T10:27:39.086Z</time>
      </trkpt>
      <trkpt lat="46.84187" lon="0.42567">
        <ele>121</ele>
        <time>2019-02-17T10:27:40.086Z</time>
      </trkpt>
      <trkpt lat="46.84183" lon="0.42565">
        <ele>120</ele>
        <time>2019-02-17T10:27:41.086Z</time>
      </trkpt>
      <trkpt lat="46.8418" lon="0.42562">
        <ele>120</ele>
        <time>2019-02-17T10:27:42.086Z</time>
      </trkpt>
      <trkpt lat="46.84176" lon="0.42559">
        <ele>119</ele>
        <time>2019-02-17T10:27:43.086Z</time>
      </trkpt>
      <trkpt lat="46.84173" lon="0.42557">
        <ele>120</ele>
        <time>2019-02-17T10:27:44.086Z</time>
      </trkpt>
      <trkpt lat="46.84169" lon="0.42555">
        <ele>119</ele>
        <time>2019-02-17T10:27:45.086Z</time>
      </trkpt>
      <trkpt lat="46.84166" lon="0.42553">
        <ele>122</ele>
        <time>2019-02-17T10:27:46.086Z</time>
      </trkpt>
      <trkpt lat="46.84162" lon="0.42551">
        <ele>122</ele>
        <time>2019-02-17T10:27:47.086Z</time>
      </trkpt>
      <trkpt lat="46.84159" lon="0.42548">
        <ele>123</ele>
        <time>2019-02-17T10:27:48.086Z</time>
      </trkpt>
      <trkpt lat="46.84155" lon="0.42546">
        <ele>125</ele>
        <time>2019-02-17T10:27:49.086Z</time>
      </trkpt>
      <trkpt lat="46.84151" lon="0.42544">
        <ele>124</ele>
        <time>2019-02-17T10:27:50.086Z</time>
      </trkpt>
      <trkpt lat="46.84147" lon="0.42542">
        <ele>125</ele>
        <time>2019-02-17T10:27:51.086Z</time>
      </trkpt>
      <trkpt lat="46.84143" lon="0.4254">
        <ele>125</ele>
        <time>2019-02-17T10:27:52.086Z</time>
      </trkpt>
      <trkpt lat="46.84139" lon="0.42537">
        <ele>124</ele>
        <time>2019-02-17T10:27:53.086Z</time>
      </trkpt>
      <trkpt lat="46.84136" lon="0.42535">
        <ele>124</ele>
        <time>2019-02-17T10:27:54.086Z</time>
      </trkpt>
      <trkpt lat="46.84132" lon="0.42532">
        <ele>124</ele>
        <time>2019-02-17T10:27:55.086Z</time>
      </trkpt>
      <trkpt lat="46.84129" lon="0.42529">
        <ele>124</ele>
        <time>2019-02-17T10:27:56.086Z</time>
      </trkpt>
      <trkpt lat="46.84125" lon="0.42526">
        <ele>125</ele>
        <time>2019-02-17T10:27:57.086Z</time>
      </trkpt>
      <trkpt lat="46.84122" lon="0.42523">
        <ele>125</ele>
        <time>2019-02-17T10:27:58.086Z</time>
      </trkpt>
      <trkpt lat="46.84118" lon="0.42519">
        <ele>125</ele>
        <time>2019-02-17T10:27:59.086Z</time>
      </trkpt>
      <trkpt lat="46.84114" lon="0.42516">
        <ele>124</ele>
        <time>2019-02-17T10:28:00.086Z</time>
      </trkpt>
      <trkpt lat="46.84111" lon="0.42513">
        <ele>124</ele>
        <time>2019-02-17T10:28:01.086Z</time>
      </trkpt>
      <trkpt lat="46.84107" lon="0.4251">
        <ele>126</ele>
        <time>2019-02-17T10:28:02.086Z</time>
      </trkpt>
      <trkpt lat="46.84103" lon="0.42508">
        <ele>126</ele>
        <time>2019-02-17T10:28:03.086Z</time>
      </trkpt>
      <trkpt lat="46.84099" lon="0.42505">
        <ele>128</ele>
        <time>2019-02-17T10:28:04.086Z</time>
      </trkpt>
      <trkpt lat="46.84095" lon="0.42503">
        <ele>128</ele>
        <time>2019-02-17T10:28:05.086Z</time>
      </trkpt>
      <trkpt lat="46.84091" lon="0.425">
        <ele>129</ele>
        <time>2019-02-17T10:28:06.086Z</time>
      </trkpt>
      <trkpt lat="46.84087" lon="0.42497">
        <ele>128</ele>
        <time>2019-02-17T10:28:07.086Z</time>
      </trkpt>
      <trkpt lat="46.84082" lon="0.42495">
        <ele>127</ele>
        <time>2019-02-17T10:28:08.086Z</time>
      </trkpt>
      <trkpt lat="46.84078" lon="0.42492">
        <ele>127</ele>
        <time>2019-02-17T10:28:09.086Z</time>
      </trkpt>
      <trkpt lat="46.84074" lon="0.4249">
        <ele>127</ele>
        <time>2019-02-17T10:28:10.086Z</time>
      </trkpt>
      <trkpt lat="46.8407" lon="0.42488">
        <ele>126</ele>
        <time>2019-02-17T10:28:11.086Z</time>
      </trkpt>
      <trkpt lat="46.84066" lon="0.42485">
        <ele>125</ele>
        <time>2019-02-17T10:28:12.086Z</time>
      </trkpt>
      <trkpt lat="46.84062" lon="0.42483">
        <ele>126</ele>
        <time>2019-02-17T10:28:13.086Z</time>
      </trkpt>
      <trkpt lat="46.84058" lon="0.4248">
        <ele>125</ele>
        <time>2019-02-17T10:28:14.086Z</time>
      </trkpt>
      <trkpt lat="46.84054" lon="0.42477">
        <ele>125</ele>
        <time>2019-02-17T10:28:15.086Z</time>
      </trkpt>
      <trkpt lat="46.84049" lon="0.42474">
        <ele>125</ele>
        <time>2019-02-17T10:28:16.086Z</time>
      </trkpt>
      <trkpt lat="46.84045" lon="0.42471">
        <ele>125</ele>
        <time>2019-02-17T10:28:17.086Z</time>
      </trkpt>
      <trkpt lat="46.8404" lon="0.42468">
        <ele>126</ele>
        <time>2019-02-17T10:28:18.086Z</time>
      </trkpt>
      <trkpt lat="46.84036" lon="0.42464">
        <ele>125</ele>
        <time>2019-02-17T10:28:19.086Z</time>
      </trkpt>
      <trkpt lat="46.84032" lon="0.4246">
        <ele>125</ele>
        <time>2019-02-17T10:28:20.086Z</time>
      </trkpt>
      <trkpt lat="46.84027" lon="0.42456">
        <ele>125</ele>
        <time>2019-02-17T10:28:21.086Z</time>
      </trkpt>
      <trkpt lat="46.84023" lon="0.42453">
        <ele>125</ele>
        <time>2019-02-17T10:28:22.086Z</time>
      </trkpt>
      <trkpt lat="46.84018" lon="0.4245">
        <ele>126</ele>
        <time>2019-02-17T10:28:23.086Z</time>
      </trkpt>
      <trkpt lat="46.84013" lon="0.42447">
        <ele>125</ele>
        <time>2019-02-17T10:28:24.086Z</time>
      </trkpt>
      <trkpt lat="46.84009" lon="0.42444">
        <ele>125</ele>
        <time>2019-02-17T10:28:25.086Z</time>
      </trkpt>
      <trkpt lat="46.84004" lon="0.42441">
        <ele>125</ele>
        <time>2019-02-17T10:28:26.086Z</time>
      </trkpt>
      <trkpt lat="46.83998" lon="0.42439">
        <ele>125</ele>
        <time>2019-02-17T10:28:27.086Z</time>
      </trkpt>
      <trkpt lat="46.83993" lon="0.42436">
        <ele>125</ele>
        <time>2019-02-17T10:28:28.086Z</time>
      </trkpt>
      <trkpt lat="46.83988" lon="0.42433">
        <ele>124</ele>
        <time>2019-02-17T10:28:29.086Z</time>
      </trkpt>
      <trkpt lat="46.83982" lon="0.42429">
        <ele>123</ele>
        <time>2019-02-17T10:28:30.086Z</time>
      </trkpt>
      <trkpt lat="46.83976" lon="0.42424">
        <ele>123</ele>
        <time>2019-02-17T10:28:31.086Z</time>
      </trkpt>
      <trkpt lat="46.83971" lon="0.4242">
        <ele>122</ele>
        <time>2019-02-17T10:28:32.086Z</time>
      </trkpt>
      <trkpt lat="46.83965" lon="0.42415">
        <ele>120</ele>
        <time>2019-02-17T10:28:33.086Z</time>
      </trkpt>
      <trkpt lat="46.83959" lon="0.42412">
        <ele>118</ele>
        <time>2019-02-17T10:28:34.086Z</time>
      </trkpt>
      <trkpt lat="46.83953" lon="0.42409">
        <ele>115</ele>
        <time>2019-02-17T10:28:35.086Z</time>
      </trkpt>
      <trkpt lat="46.83948" lon="0.42406">
        <ele>113</ele>
        <time>2019-02-17T10:28:36.086Z</time>
      </trkpt>
      <trkpt lat="46.83942" lon="0.42402">
        <ele>111</ele>
        <time>2019-02-17T10:28:37.086Z</time>
      </trkpt>
      <trkpt lat="46.83936" lon="0.42395">
        <ele>111</ele>
        <time>2019-02-17T10:28:38.086Z</time>
      </trkpt>
      <trkpt lat="46.83929" lon="0.42389">
        <ele>109</ele>
        <time>2019-02-17T10:28:39.086Z</time>
      </trkpt>
      <trkpt lat="46.83923" lon="0.42382">
        <ele>109</ele>
        <time>2019-02-17T10:28:40.086Z</time>
      </trkpt>
      <trkpt lat="46.83916" lon="0.42377">
        <ele>110</ele>
        <time>2019-02-17T10:28:41.086Z</time>
      </trkpt>
      <trkpt lat="46.83911" lon="0.42371">
        <ele>110</ele>
        <time>2019-02-17T10:28:42.086Z</time>
      </trkpt>
      <trkpt lat="46.83907" lon="0.42367">
        <ele>110</ele>
        <time>2019-02-17T10:28:43.086Z</time>
      </trkpt>
      <trkpt lat="46.83903" lon="0.42362">
        <ele>110</ele>
        <time>2019-02-17T10:28:44.086Z</time>
      </trkpt>
      <trkpt lat="46.839" lon="0.42358">
        <ele>113</ele>
        <time>2019-02-17T10:28:45.086Z</time>
      </trkpt>
      <trkpt lat="46.83898" lon="0.42355">
        <ele>118</ele>
        <time>2019-02-17T10:28:46.086Z</time>
      </trkpt>
      <trkpt lat="46.83896" lon="0.42351">
        <ele>121</ele>
        <time>2019-02-17T10:28:47.086Z</time>
      </trkpt>
      <trkpt lat="46.83896" lon="0.42347">
        <ele>125</ele>
        <time>2019-02-17T10:28:48.086Z</time>
      </trkpt>
      <trkpt lat="46.83895" lon="0.42343">
        <ele>125</ele>
        <time>2019-02-17T10:28:49.086Z</time>
      </trkpt>
      <trkpt lat="46.83895" lon="0.42339">
        <ele>126</ele>
        <time>2019-02-17T10:28:50.086Z</time>
      </trkpt>
      <trkpt lat="46.83895" lon="0.42335">
        <ele>126</ele>
        <time>2019-02-17T10:28:51.086Z</time>
      </trkpt>
      <trkpt lat="46.83895" lon="0.42332">
        <ele>127</ele>
        <time>2019-02-17T10:28:52.086Z</time>
      </trkpt>
      <trkpt lat="46.83896" lon="0.42329">
        <ele>126</ele>
        <time>2019-02-17T10:28:53.086Z</time>
      </trkpt>
      <trkpt lat="46.83898" lon="0.42326">
        <ele>127</ele>
        <time>2019-02-17T10:28:54.086Z</time>
      </trkpt>
      <trkpt lat="46.83901" lon="0.42323">
        <ele>128</ele>
        <time>2019-02-17T10:28:55.086Z</time>
      </trkpt>
      <trkpt lat="46.83904" lon="0.42319">
        <ele>129</ele>
        <time>2019-02-17T10:28:56.086Z</time>
      </trkpt>
      <trkpt lat="46.83907" lon="0.42316">
        <ele>130</ele>
        <time>2019-02-17T10:28:57.086Z</time>
      </trkpt>
      <trkpt lat="46.8391" lon="0.42312">
        <ele>130</ele>
        <time>2019-02-17T10:28:58.086Z</time>
      </trkpt>
      <trkpt lat="46.83913" lon="0.42309">
        <ele>130</ele>
        <time>2019-02-17T10:28:59.086Z</time>
      </trkpt>
      <trkpt lat="46.83916" lon="0.42304">
        <ele>130</ele>
        <time>2019-02-17T10:29:00.086Z</time>
      </trkpt>
      <trkpt lat="46.83919" lon="0.42298">
        <ele>130</ele>
        <time>2019-02-17T10:29:01.086Z</time>
      </trkpt>
      <trkpt lat="46.83922" lon="0.42293">
        <ele>131</ele>
        <time>2019-02-17T10:29:02.086Z</time>
      </trkpt>
      <trkpt lat="46.83925" lon="0.42288">
        <ele>131</ele>
        <time>2019-02-17T10:29:03.086Z</time>
      </trkpt>
      <trkpt lat="46.83927" lon="0.42284">
        <ele>132</ele>
        <time>2019-02-17T10:29:04.086Z</time>
      </trkpt>
      <trkpt lat="46.8393" lon="0.4228">
        <ele>132</ele>
        <time>2019-02-17T10:29:05.086Z</time>
      </trkpt>
      <trkpt lat="46.83934" lon="0.42276">
        <ele>132</ele>
        <time>2019-02-17T10:29:06.086Z</time>
      </trkpt>
      <trkpt lat="46.83937" lon="0.42272">
        <ele>132</ele>
        <time>2019-02-17T10:29:07.086Z</time>
      </trkpt>
      <trkpt lat="46.83941" lon="0.42268">
        <ele>132</ele>
        <time>2019-02-17T10:29:08.086Z</time>
      </trkpt>
      <trkpt lat="46.83944" lon="0.42264">
        <ele>133</ele>
        <time>2019-02-17T10:29:09.086Z</time>
      </trkpt>
      <trkpt lat="46.83948" lon="0.42261">
        <ele>133</ele>
        <time>2019-02-17T10:29:10.086Z</time>
      </trkpt>
      <trkpt lat="46.83952" lon="0.42257">
        <ele>133</ele>
        <time>2019-02-17T10:29:11.086Z</time>
      </trkpt>
      <trkpt lat="46.83956" lon="0.42254">
        <ele>134</ele>
        <time>2019-02-17T10:29:12.086Z</time>
      </trkpt>
      <trkpt lat="46.8396" lon="0.42251">
        <ele>135</ele>
        <time>2019-02-17T10:29:13.086Z</time>
      </trkpt>
      <trkpt lat="46.83964" lon="0.42248">
        <ele>135</ele>
        <time>2019-02-17T10:29:14.086Z</time>
      </trkpt>
      <trkpt lat="46.83969" lon="0.42245">
        <ele>137</ele>
        <time>2019-02-17T10:29:15.086Z</time>
      </trkpt>
      <trkpt lat="46.83975" lon="0.42242">
        <ele>139</ele>
        <time>2019-02-17T10:29:16.086Z</time>
      </trkpt>
      <trkpt lat="46.83981" lon="0.42238">
        <ele>138</ele>
        <time>2019-02-17T10:29:17.086Z</time>
      </trkpt>
      <trkpt lat="46.83986" lon="0.42232">
        <ele>137</ele>
        <time>2019-02-17T10:29:18.086Z</time>
      </trkpt>
      <trkpt lat="46.83991" lon="0.42226">
        <ele>136</ele>
        <time>2019-02-17T10:29:19.086Z</time>
      </trkpt>
      <trkpt lat="46.83996" lon="0.42219">
        <ele>136</ele>
        <time>2019-02-17T10:29:20.086Z</time>
      </trkpt>
      <trkpt lat="46.84001" lon="0.42213">
        <ele>135</ele>
        <time>2019-02-17T10:29:21.086Z</time>
      </trkpt>
      <trkpt lat="46.84006" lon="0.42207">
        <ele>135</ele>
        <time>2019-02-17T10:29:22.086Z</time>
      </trkpt>
      <trkpt lat="46.84011" lon="0.42201">
        <ele>135</ele>
        <time>2019-02-17T10:29:23.086Z</time>
      </trkpt>
      <trkpt lat="46.84016" lon="0.42195">
        <ele>134</ele>
        <time>2019-02-17T10:29:24.086Z</time>
      </trkpt>
      <trkpt lat="46.8402" lon="0.42189">
        <ele>134</ele>
        <time>2019-02-17T10:29:25.086Z</time>
      </trkpt>
      <trkpt lat="46.84024" lon="0.42183">
        <ele>135</ele>
        <time>2019-02-17T10:29:26.086Z</time>
      </trkpt>
      <trkpt lat="46.84028" lon="0.42179">
        <ele>134</ele>
        <time>2019-02-17T10:29:27.086Z</time>
      </trkpt>
      <trkpt lat="46.84031" lon="0.42174">
        <ele>133</ele>
        <time>2019-02-17T10:29:28.086Z</time>
      </trkpt>
      <trkpt lat="46.84033" lon="0.42171">
        <ele>132</ele>
        <time>2019-02-17T10:29:29.086Z</time>
      </trkpt>
      <trkpt lat="46.84032" lon="0.42167">
        <ele>129</ele>
        <time>2019-02-17T10:29:30.086Z</time>
      </trkpt>
      <trkpt lat="46.8403" lon="0.42163">
        <ele>128</ele>
        <time>2019-02-17T10:29:31.086Z</time>
      </trkpt>
      <trkpt lat="46.84028" lon="0.42159">
        <ele>129</ele>
        <time>2019-02-17T10:29:32.086Z</time>
      </trkpt>
      <trkpt lat="46.84027" lon="0.42156">
        <ele>129</ele>
        <time>2019-02-17T10:29:33.086Z</time>
      </trkpt>
      <trkpt lat="46.84026" lon="0.42153">
        <ele>128</ele>
        <time>2019-02-17T10:29:34.086Z</time>
      </trkpt>
      <trkpt lat="46.84025" lon="0.4215">
        <ele>128</ele>
        <time>2019-02-17T10:29:35.086Z</time>
      </trkpt>
      <trkpt lat="46.84025" lon="0.42146">
        <ele>128</ele>
        <time>2019-02-17T10:29:36.086Z</time>
      </trkpt>
      <trkpt lat="46.84025" lon="0.42142">
        <ele>127</ele>
        <time>2019-02-17T10:29:37.086Z</time>
      </trkpt>
      <trkpt lat="46.84024" lon="0.42138">
        <ele>128</ele>
        <time>2019-02-17T10:29:38.086Z</time>
      </trkpt>
      <trkpt lat="46.84022" lon="0.42134">
        <ele>128</ele>
        <time>2019-02-17T10:29:39.086Z</time>
      </trkpt>
      <trkpt lat="46.84021" lon="0.42128">
        <ele>127</ele>
        <time>2019-02-17T10:29:40.086Z</time>
      </trkpt>
      <trkpt lat="46.84022" lon="0.42123">
        <ele>130</ele>
        <time>2019-02-17T10:29:41.086Z</time>
      </trkpt>
      <trkpt lat="46.84022" lon="0.42118">
        <ele>130</ele>
        <time>2019-02-17T10:29:42.086Z</time>
      </trkpt>
      <trkpt lat="46.84024" lon="0.42114">
        <ele>130</ele>
        <time>2019-02-17T10:29:43.086Z</time>
      </trkpt>
      <trkpt lat="46.84024" lon="0.4211">
        <ele>130</ele>
        <time>2019-02-17T10:29:44.086Z</time>
      </trkpt>
      <trkpt lat="46.84023" lon="0.42107">
        <ele>130</ele>
        <time>2019-02-17T10:29:45.086Z</time>
      </trkpt>
      <trkpt lat="46.84022" lon="0.42103">
        <ele>129</ele>
        <time>2019-02-17T10:29:46.086Z</time>
      </trkpt>
      <trkpt lat="46.8402" lon="0.42099">
        <ele>129</ele>
        <time>2019-02-17T10:29:47.086Z</time>
      </trkpt>
      <trkpt lat="46.84019" lon="0.42095">
        <ele>129</ele>
        <time>2019-02-17T10:29:48.086Z</time>
      </trkpt>
      <trkpt lat="46.84018" lon="0.42091">
        <ele>128</ele>
        <time>2019-02-17T10:29:49.086Z</time>
      </trkpt>
      <trkpt lat="46.84017" lon="0.42088">
        <ele>128</ele>
        <time>2019-02-17T10:29:50.086Z</time>
      </trkpt>
      <trkpt lat="46.84015" lon="0.42085">
        <ele>126</ele>
        <time>2019-02-17T10:29:51.086Z</time>
      </trkpt>
      <trkpt lat="46.84014" lon="0.42082">
        <ele>126</ele>
        <time>2019-02-17T10:29:52.086Z</time>
      </trkpt>
      <trkpt lat="46.84012" lon="0.42079">
        <ele>126</ele>
        <time>2019-02-17T10:29:53.086Z</time>
      </trkpt>
      <trkpt lat="46.84011" lon="0.42076">
        <ele>127</ele>
        <time>2019-02-17T10:29:54.086Z</time>
      </trkpt>
      <trkpt lat="46.84009" lon="0.42074">
        <ele>126</ele>
        <time>2019-02-17T10:29:55.086Z</time>
      </trkpt>
      <trkpt lat="46.84008" lon="0.42072">
        <ele>126</ele>
        <time>2019-02-17T10:29:56.086Z</time>
      </trkpt>
      <trkpt lat="46.84006" lon="0.4207">
        <ele>126</ele>
        <time>2019-02-17T10:29:57.086Z</time>
      </trkpt>
      <trkpt lat="46.84004" lon="0.42067">
        <ele>125</ele>
        <time>2019-02-17T10:29:58.086Z</time>
      </trkpt>
      <trkpt lat="46.84002" lon="0.42065">
        <ele>125</ele>
        <time>2019-02-17T10:29:59.086Z</time>
      </trkpt>
      <trkpt lat="46.84001" lon="0.42063">
        <ele>125</ele>
        <time>2019-02-17T10:30:00.086Z</time>
      </trkpt>
      <trkpt lat="46.83999" lon="0.42061">
        <ele>125</ele>
        <time>2019-02-17T10:30:01.086Z</time>
      </trkpt>
      <trkpt lat="46.83996" lon="0.4206">
        <ele>125</ele>
        <time>2019-02-17T10:30:02.086Z</time>
      </trkpt>
      <trkpt lat="46.83995" lon="0.42058">
        <ele>125</ele>
        <time>2019-02-17T10:30:03.086Z</time>
      </trkpt>
      <trkpt lat="46.83992" lon="0.42057">
        <ele>124</ele>
        <time>2019-02-17T10:30:04.086Z</time>
      </trkpt>
      <trkpt lat="46.8399" lon="0.42056">
        <ele>124</ele>
        <time>2019-02-17T10:30:05.086Z</time>
      </trkpt>
      <trkpt lat="46.83987" lon="0.42054">
        <ele>124</ele>
        <time>2019-02-17T10:30:06.086Z</time>
      </trkpt>
      <trkpt lat="46.83985" lon="0.42054">
        <ele>124</ele>
        <time>2019-02-17T10:30:07.086Z</time>
      </trkpt>
      <trkpt lat="46.83982" lon="0.42053">
        <ele>126</ele>
        <time>2019-02-17T10:30:08.086Z</time>
      </trkpt>
      <trkpt lat="46.8398" lon="0.42054">
        <ele>126</ele>
        <time>2019-02-17T10:30:09.086Z</time>
      </trkpt>
      <trkpt lat="46.83977" lon="0.42054">
        <ele>126</ele>
        <time>2019-02-17T10:30:10.086Z</time>
      </trkpt>
      <trkpt lat="46.83975" lon="0.42054">
        <ele>126</ele>
        <time>2019-02-17T10:30:11.086Z</time>
      </trkpt>
      <trkpt lat="46.83972" lon="0.42054">
        <ele>127</ele>
        <time>2019-02-17T10:30:12.086Z</time>
      </trkpt>
      <trkpt lat="46.8397" lon="0.42053">
        <ele>128</ele>
        <time>2019-02-17T10:30:13.086Z</time>
      </trkpt>
      <trkpt lat="46.83968" lon="0.42052">
        <ele>129</ele>
        <time>2019-02-17T10:30:14.086Z</time>
      </trkpt>
      <trkpt lat="46.83966" lon="0.42051">
        <ele>130</ele>
        <time>2019-02-17T10:30:15.086Z</time>
      </trkpt>
      <trkpt lat="46.83964" lon="0.4205">
        <ele>130</ele>
        <time>2019-02-17T10:30:16.086Z</time>
      </trkpt>
      <trkpt lat="46.83961" lon="0.42048">
        <ele>131</ele>
        <time>2019-02-17T10:30:17.086Z</time>
      </trkpt>
      <trkpt lat="46.8396" lon="0.42046">
        <ele>132</ele>
        <time>2019-02-17T10:30:18.086Z</time>
      </trkpt>
      <trkpt lat="46.83958" lon="0.42043">
        <ele>132</ele>
        <time>2019-02-17T10:30:19.086Z</time>
      </trkpt>
      <trkpt lat="46.83956" lon="0.42041">
        <ele>135</ele>
        <time>2019-02-17T10:30:20.086Z</time>
      </trkpt>
      <trkpt lat="46.83955" lon="0.42039">
        <ele>136</ele>
        <time>2019-02-17T10:30:21.086Z</time>
      </trkpt>
      <trkpt lat="46.83953" lon="0.42038">
        <ele>137</ele>
        <time>2019-02-17T10:30:22.086Z</time>
      </trkpt>
      <trkpt lat="46.83951" lon="0.42036">
        <ele>137</ele>
        <time>2019-02-17T10:30:23.086Z</time>
      </trkpt>
      <trkpt lat="46.8395" lon="0.42034">
        <ele>138</ele>
        <time>2019-02-17T10:30:24.086Z</time>
      </trkpt>
      <trkpt lat="46.83949" lon="0.42032">
        <ele>138</ele>
        <time>2019-02-17T10:30:25.086Z</time>
      </trkpt>
      <trkpt lat="46.83947" lon="0.4203">
        <ele>139</ele>
        <time>2019-02-17T10:30:26.086Z</time>
      </trkpt>
      <trkpt lat="46.83946" lon="0.42028">
        <ele>139</ele>
        <time>2019-02-17T10:30:27.086Z</time>
      </trkpt>
      <trkpt lat="46.83945" lon="0.42026">
        <ele>140</ele>
        <time>2019-02-17T10:30:28.086Z</time>
      </trkpt>
      <trkpt lat="46.83943" lon="0.42024">
        <ele>140</ele>
        <time>2019-02-17T10:30:29.086Z</time>
      </trkpt>
      <trkpt lat="46.83942" lon="0.42023">
        <ele>140</ele>
        <time>2019-02-17T10:30:30.086Z</time>
      </trkpt>
      <trkpt lat="46.83941" lon="0.42022">
        <ele>140</ele>
        <time>2019-02-17T10:30:31.086Z</time>
      </trkpt>
      <trkpt lat="46.83939" lon="0.42021">
        <ele>141</ele>
        <time>2019-02-17T10:30:32.086Z</time>
      </trkpt>
      <trkpt lat="46.83938" lon="0.42021">
        <ele>141</ele>
        <time>2019-02-17T10:30:33.086Z</time>
      </trkpt>
      <trkpt lat="46.83937" lon="0.42022">
        <ele>139</ele>
        <time>2019-02-17T10:30:34.086Z</time>
      </trkpt>
      <trkpt lat="46.83936" lon="0.42023">
        <ele>139</ele>
        <time>2019-02-17T10:30:35.086Z</time>
      </trkpt>
      <trkpt lat="46.83934" lon="0.42024">
        <ele>140</ele>
        <time>2019-02-17T10:30:36.086Z</time>
      </trkpt>
      <trkpt lat="46.83933" lon="0.42026">
        <ele>139</ele>
        <time>2019-02-17T10:30:37.086Z</time>
      </trkpt>
      <trkpt lat="46.83931" lon="0.42028">
        <ele>139</ele>
        <time>2019-02-17T10:30:38.086Z</time>
      </trkpt>
      <trkpt lat="46.83929" lon="0.42031">
        <ele>139</ele>
        <time>2019-02-17T10:30:39.086Z</time>
      </trkpt>
      <trkpt lat="46.83928" lon="0.42033">
        <ele>139</ele>
        <time>2019-02-17T10:30:40.086Z</time>
      </trkpt>
      <trkpt lat="46.83927" lon="0.42035">
        <ele>139</ele>
        <time>2019-02-17T10:30:41.086Z</time>
      </trkpt>
      <trkpt lat="46.83925" lon="0.42036">
        <ele>139</ele>
        <time>2019-02-17T10:30:42.086Z</time>
      </trkpt>
      <trkpt lat="46.83924" lon="0.42037">
        <ele>138</ele>
        <time>2019-02-17T10:30:43.086Z</time>
      </trkpt>
      <trkpt lat="46.83922" lon="0.42039">
        <ele>138</ele>
        <time>2019-02-17T10:30:44.086Z</time>
      </trkpt>
      <trkpt lat="46.83921" lon="0.4204">
        <ele>137</ele>
        <time>2019-02-17T10:30:45.086Z</time>
      </trkpt>
      <trkpt lat="46.83919" lon="0.42042">
        <ele>138</ele>
        <time>2019-02-17T10:30:46.086Z</time>
      </trkpt>
      <trkpt lat="46.83918" lon="0.42045">
        <ele>140</ele>
        <time>2019-02-17T10:30:47.086Z</time>
      </trkpt>
      <trkpt lat="46.83916" lon="0.42047">
        <ele>140</ele>
        <time>2019-02-17T10:30:48.086Z</time>
      </trkpt>
      <trkpt lat="46.83915" lon="0.42049">
        <ele>139</ele>
        <time>2019-02-17T10:30:49.086Z</time>
      </trkpt>
      <trkpt lat="46.83913" lon="0.4205">
        <ele>139</ele>
        <time>2019-02-17T10:30:50.086Z</time>
      </trkpt>
      <trkpt lat="46.83911" lon="0.42052">
        <ele>140</ele>
        <time>2019-02-17T10:30:51.086Z</time>
      </trkpt>
      <trkpt lat="46.8391" lon="0.42055">
        <ele>140</ele>
        <time>2019-02-17T10:30:52.086Z</time>
      </trkpt>
      <trkpt lat="46.83908" lon="0.42058">
        <ele>140</ele>
        <time>2019-02-17T10:30:53.086Z</time>
      </trkpt>
      <trkpt lat="46.83907" lon="0.4206">
        <ele>140</ele>
        <time>2019-02-17T10:30:54.086Z</time>
      </trkpt>
      <trkpt lat="46.83905" lon="0.42062">
        <ele>140</ele>
        <time>2019-02-17T10:30:55.086Z</time>
      </trkpt>
      <trkpt lat="46.83904" lon="0.42064">
        <ele>140</ele>
        <time>2019-02-17T10:30:56.086Z</time>
      </trkpt>
      <trkpt lat="46.83902" lon="0.42066">
        <ele>140</ele>
        <time>2019-02-17T10:30:57.086Z</time>
      </trkpt>
      <trkpt lat="46.839" lon="0.42068">
        <ele>141</ele>
        <time>2019-02-17T10:30:58.086Z</time>
      </trkpt>
      <trkpt lat="46.83899" lon="0.42071">
        <ele>141</ele>
        <time>2019-02-17T10:30:59.086Z</time>
      </trkpt>
      <trkpt lat="46.83898" lon="0.42073">
        <ele>141</ele>
        <time>2019-02-17T10:31:00.086Z</time>
      </trkpt>
      <trkpt lat="46.83897" lon="0.42075">
        <ele>140</ele>
        <time>2019-02-17T10:31:01.086Z</time>
      </trkpt>
      <trkpt lat="46.83896" lon="0.42078">
        <ele>142</ele>
        <time>2019-02-17T10:31:02.086Z</time>
      </trkpt>
      <trkpt lat="46.83895" lon="0.42081">
        <ele>144</ele>
        <time>2019-02-17T10:31:03.086Z</time>
      </trkpt>
      <trkpt lat="46.83893" lon="0.42084">
        <ele>146</ele>
        <time>2019-02-17T10:31:04.086Z</time>
      </trkpt>
      <trkpt lat="46.83892" lon="0.42088">
        <ele>146</ele>
        <time>2019-02-17T10:31:05.086Z</time>
      </trkpt>
      <trkpt lat="46.8389" lon="0.42092">
        <ele>147</ele>
        <time>2019-02-17T10:31:06.086Z</time>
      </trkpt>
      <trkpt lat="46.83889" lon="0.42096">
        <ele>148</ele>
        <time>2019-02-17T10:31:07.086Z</time>
      </trkpt>
      <trkpt lat="46.83888" lon="0.42099">
        <ele>149</ele>
        <time>2019-02-17T10:31:08.086Z</time>
      </trkpt>
      <trkpt lat="46.83887" lon="0.42103">
        <ele>149</ele>
        <time>2019-02-17T10:31:09.086Z</time>
      </trkpt>
      <trkpt lat="46.83886" lon="0.42106">
        <ele>150</ele>
        <time>2019-02-17T10:31:10.086Z</time>
      </trkpt>
      <trkpt lat="46.83884" lon="0.42109">
        <ele>149</ele>
        <time>2019-02-17T10:31:11.086Z</time>
      </trkpt>
      <trkpt lat="46.83883" lon="0.42113">
        <ele>150</ele>
        <time>2019-02-17T10:31:12.086Z</time>
      </trkpt>
      <trkpt lat="46.83882" lon="0.42116">
        <ele>150</ele>
        <time>2019-02-17T10:31:13.086Z</time>
      </trkpt>
      <trkpt lat="46.8388" lon="0.4212">
        <ele>150</ele>
        <time>2019-02-17T10:31:14.086Z</time>
      </trkpt>
      <trkpt lat="46.83879" lon="0.42123">
        <ele>150</ele>
        <time>2019-02-17T10:31:15.086Z</time>
      </trkpt>
      <trkpt lat="46.83878" lon="0.42127">
        <ele>150</ele>
        <time>2019-02-17T10:31:16.086Z</time>
      </trkpt>
      <trkpt lat="46.83877" lon="0.4213">
        <ele>150</ele>
        <time>2019-02-17T10:31:17.086Z</time>
      </trkpt>
      <trkpt lat="46.83875" lon="0.42133">
        <ele>151</ele>
        <time>2019-02-17T10:31:18.086Z</time>
      </trkpt>
      <trkpt lat="46.83874" lon="0.42137">
        <ele>151</ele>
        <time>2019-02-17T10:31:19.086Z</time>
      </trkpt>
      <trkpt lat="46.83873" lon="0.4214">
        <ele>151</ele>
        <time>2019-02-17T10:31:20.086Z</time>
      </trkpt>
      <trkpt lat="46.83872" lon="0.42143">
        <ele>150</ele>
        <time>2019-02-17T10:31:21.086Z</time>
      </trkpt>
      <trkpt lat="46.8387" lon="0.42146">
        <ele>150</ele>
        <time>2019-02-17T10:31:22.086Z</time>
      </trkpt>
      <trkpt lat="46.83869" lon="0.4215">
        <ele>150</ele>
        <time>2019-02-17T10:31:23.086Z</time>
      </trkpt>
      <trkpt lat="46.83867" lon="0.42154">
        <ele>149</ele>
        <time>2019-02-17T10:31:24.086Z</time>
      </trkpt>
      <trkpt lat="46.83866" lon="0.42157">
        <ele>149</ele>
        <time>2019-02-17T10:31:25.086Z</time>
      </trkpt>
      <trkpt lat="46.83864" lon="0.42161">
        <ele>149</ele>
        <time>2019-02-17T10:31:26.086Z</time>
      </trkpt>
      <trkpt lat="46.83863" lon="0.42164">
        <ele>149</ele>
        <time>2019-02-17T10:31:27.086Z</time>
      </trkpt>
      <trkpt lat="46.83861" lon="0.42167">
        <ele>149</ele>
        <time>2019-02-17T10:31:28.086Z</time>
      </trkpt>
      <trkpt lat="46.83859" lon="0.4217">
        <ele>149</ele>
        <time>2019-02-17T10:31:29.086Z</time>
      </trkpt>
      <trkpt lat="46.83857" lon="0.42174">
        <ele>149</ele>
        <time>2019-02-17T10:31:30.086Z</time>
      </trkpt>
      <trkpt lat="46.83855" lon="0.42178">
        <ele>150</ele>
        <time>2019-02-17T10:31:31.086Z</time>
      </trkpt>
      <trkpt lat="46.83853" lon="0.42181">
        <ele>150</ele>
        <time>2019-02-17T10:31:32.086Z</time>
      </trkpt>
      <trkpt lat="46.83851" lon="0.42185">
        <ele>150</ele>
        <time>2019-02-17T10:31:33.086Z</time>
      </trkpt>
      <trkpt lat="46.83849" lon="0.42188">
        <ele>151</ele>
        <time>2019-02-17T10:31:34.086Z</time>
      </trkpt>
      <trkpt lat="46.83846" lon="0.42192">
        <ele>151</ele>
        <time>2019-02-17T10:31:35.086Z</time>
      </trkpt>
      <trkpt lat="46.83844" lon="0.42195">
        <ele>151</ele>
        <time>2019-02-17T10:31:36.086Z</time>
      </trkpt>
      <trkpt lat="46.83842" lon="0.42199">
        <ele>151</ele>
        <time>2019-02-17T10:31:37.086Z</time>
      </trkpt>
      <trkpt lat="46.8384" lon="0.42202">
        <ele>151</ele>
        <time>2019-02-17T10:31:38.086Z</time>
      </trkpt>
      <trkpt lat="46.83838" lon="0.42206">
        <ele>152</ele>
        <time>2019-02-17T10:31:39.086Z</time>
      </trkpt>
      <trkpt lat="46.83837" lon="0.4221">
        <ele>152</ele>
        <time>2019-02-17T10:31:40.086Z</time>
      </trkpt>
      <trkpt lat="46.83835" lon="0.42214">
        <ele>152</ele>
        <time>2019-02-17T10:31:41.086Z</time>
      </trkpt>
      <trkpt lat="46.83832" lon="0.42217">
        <ele>153</ele>
        <time>2019-02-17T10:31:42.086Z</time>
      </trkpt>
      <trkpt lat="46.8383" lon="0.4222">
        <ele>153</ele>
        <time>2019-02-17T10:31:43.086Z</time>
      </trkpt>
      <trkpt lat="46.83828" lon="0.42224">
        <ele>153</ele>
        <time>2019-02-17T10:31:44.086Z</time>
      </trkpt>
      <trkpt lat="46.83827" lon="0.42227">
        <ele>153</ele>
        <time>2019-02-17T10:31:45.086Z</time>
      </trkpt>
      <trkpt lat="46.83825" lon="0.4223">
        <ele>153</ele>
        <time>2019-02-17T10:31:46.086Z</time>
      </trkpt>
      <trkpt lat="46.83823" lon="0.42233">
        <ele>153</ele>
        <time>2019-02-17T10:31:47.086Z</time>
      </trkpt>
      <trkpt lat="46.83821" lon="0.42236">
        <ele>153</ele>
        <time>2019-02-17T10:31:48.086Z</time>
      </trkpt>
      <trkpt lat="46.83819" lon="0.4224">
        <ele>152</ele>
        <time>2019-02-17T10:31:49.086Z</time>
      </trkpt>
      <trkpt lat="46.83817" lon="0.42243">
        <ele>153</ele>
        <time>2019-02-17T10:31:50.086Z</time>
      </trkpt>
      <trkpt lat="46.83815" lon="0.42246">
        <ele>152</ele>
        <time>2019-02-17T10:31:51.086Z</time>
      </trkpt>
      <trkpt lat="46.83813" lon="0.42249">
        <ele>152</ele>
        <time>2019-02-17T10:31:52.086Z</time>
      </trkpt>
      <trkpt lat="46.83811" lon="0.42253">
        <ele>153</ele>
        <time>2019-02-17T10:31:53.086Z</time>
      </trkpt>
      <trkpt lat="46.83809" lon="0.42256">
        <ele>153</ele>
        <time>2019-02-17T10:31:54.086Z</time>
      </trkpt>
      <trkpt lat="46.83807" lon="0.42259">
        <ele>153</ele>
        <time>2019-02-17T10:31:55.086Z</time>
      </trkpt>
      <trkpt lat="46.83805" lon="0.42263">
        <ele>154</ele>
        <time>2019-02-17T10:31:56.086Z</time>
      </trkpt>
      <trkpt lat="46.83803" lon="0.42267">
        <ele>154</ele>
        <time>2019-02-17T10:31:57.086Z</time>
      </trkpt>
      <trkpt lat="46.83801" lon="0.4227">
        <ele>154</ele>
        <time>2019-02-17T10:31:58.086Z</time>
      </trkpt>
      <trkpt lat="46.83798" lon="0.42272">
        <ele>154</ele>
        <time>2019-02-17T10:31:59.086Z</time>
      </trkpt>
      <trkpt lat="46.83796" lon="0.42273">
        <ele>155</ele>
        <time>2019-02-17T10:32:00.086Z</time>
      </trkpt>
      <trkpt lat="46.83794" lon="0.42274">
        <ele>154</ele>
        <time>2019-02-17T10:32:01.086Z</time>
      </trkpt>
      <trkpt lat="46.83792" lon="0.42274">
        <ele>154</ele>
        <time>2019-02-17T10:32:02.086Z</time>
      </trkpt>
      <trkpt lat="46.8379" lon="0.42274">
        <ele>153</ele>
        <time>2019-02-17T10:32:03.086Z</time>
      </trkpt>
      <trkpt lat="46.83787" lon="0.42274">
        <ele>153</ele>
        <time>2019-02-17T10:32:04.086Z</time>
      </trkpt>
      <trkpt lat="46.83785" lon="0.42274">
        <ele>152</ele>
        <time>2019-02-17T10:32:05.086Z</time>
      </trkpt>
      <trkpt lat="46.83783" lon="0.42273">
        <ele>152</ele>
        <time>2019-02-17T10:32:06.086Z</time>
      </trkpt>
      <trkpt lat="46.8378" lon="0.42272">
        <ele>152</ele>
        <time>2019-02-17T10:32:07.086Z</time>
      </trkpt>
      <trkpt lat="46.83778" lon="0.42272">
        <ele>152</ele>
        <time>2019-02-17T10:32:08.086Z</time>
      </trkpt>
      <trkpt lat="46.83776" lon="0.42271">
        <ele>151</ele>
        <time>2019-02-17T10:32:09.086Z</time>
      </trkpt>
      <trkpt lat="46.83773" lon="0.4227">
        <ele>150</ele>
        <time>2019-02-17T10:32:10.086Z</time>
      </trkpt>
      <trkpt lat="46.8377" lon="0.4227">
        <ele>149</ele>
        <time>2019-02-17T10:32:11.086Z</time>
      </trkpt>
      <trkpt lat="46.83768" lon="0.42269">
        <ele>149</ele>
        <time>2019-02-17T10:32:12.086Z</time>
      </trkpt>
      <trkpt lat="46.83765" lon="0.42269">
        <ele>149</ele>
        <time>2019-02-17T10:32:13.086Z</time>
      </trkpt>
      <trkpt lat="46.83763" lon="0.42268">
        <ele>148</ele>
        <time>2019-02-17T10:32:14.086Z</time>
      </trkpt>
      <trkpt lat="46.83761" lon="0.42267">
        <ele>147</ele>
        <time>2019-02-17T10:32:15.086Z</time>
      </trkpt>
      <trkpt lat="46.83758" lon="0.42267">
        <ele>148</ele>
        <time>2019-02-17T10:32:16.086Z</time>
      </trkpt>
      <trkpt lat="46.83756" lon="0.42266">
        <ele>148</ele>
        <time>2019-02-17T10:32:17.086Z</time>
      </trkpt>
      <trkpt lat="46.83754" lon="0.42265">
        <ele>147</ele>
        <time>2019-02-17T10:32:18.086Z</time>
      </trkpt>
      <trkpt lat="46.83751" lon="0.42265">
        <ele>147</ele>
        <time>2019-02-17T10:32:19.086Z</time>
      </trkpt>
      <trkpt lat="46.83749" lon="0.42264">
        <ele>146</ele>
        <time>2019-02-17T10:32:20.086Z</time>
      </trkpt>
      <trkpt lat="46.83747" lon="0.42263">
        <ele>145</ele>
        <time>2019-02-17T10:32:21.086Z</time>
      </trkpt>
      <trkpt lat="46.83744" lon="0.42262">
        <ele>145</ele>
        <time>2019-02-17T10:32:22.086Z</time>
      </trkpt>
      <trkpt lat="46.83742" lon="0.42262">
        <ele>145</ele>
        <time>2019-02-17T10:32:23.086Z</time>
      </trkpt>
      <trkpt lat="46.8374" lon="0.42261">
        <ele>145</ele>
        <time>2019-02-17T10:32:24.086Z</time>
      </trkpt>
      <trkpt lat="46.83738" lon="0.42261">
        <ele>144</ele>
        <time>2019-02-17T10:32:25.086Z</time>
      </trkpt>
      <trkpt lat="46.83735" lon="0.4226">
        <ele>143</ele>
        <time>2019-02-17T10:32:26.086Z</time>
      </trkpt>
      <trkpt lat="46.83733" lon="0.4226">
        <ele>143</ele>
        <time>2019-02-17T10:32:27.086Z</time>
      </trkpt>
      <trkpt lat="46.8373" lon="0.42259">
        <ele>143</ele>
        <time>2019-02-17T10:32:28.086Z</time>
      </trkpt>
      <trkpt lat="46.83728" lon="0.42258">
        <ele>143</ele>
        <time>2019-02-17T10:32:29.086Z</time>
      </trkpt>
      <trkpt lat="46.83726" lon="0.42258">
        <ele>143</ele>
        <time>2019-02-17T10:32:30.086Z</time>
      </trkpt>
      <trkpt lat="46.83724" lon="0.42257">
        <ele>143</ele>
        <time>2019-02-17T10:32:31.086Z</time>
      </trkpt>
      <trkpt lat="46.83722" lon="0.42257">
        <ele>143</ele>
        <time>2019-02-17T10:32:32.086Z</time>
      </trkpt>
      <trkpt lat="46.8372" lon="0.42257">
        <ele>143</ele>
        <time>2019-02-17T10:32:33.086Z</time>
      </trkpt>
      <trkpt lat="46.83718" lon="0.42256">
        <ele>143</ele>
        <time>2019-02-17T10:32:34.086Z</time>
      </trkpt>
      <trkpt lat="46.83716" lon="0.42256">
        <ele>143</ele>
        <time>2019-02-17T10:32:35.086Z</time>
      </trkpt>
      <trkpt lat="46.83713" lon="0.42256">
        <ele>143</ele>
        <time>2019-02-17T10:32:36.086Z</time>
      </trkpt>
      <trkpt lat="46.83711" lon="0.42255">
        <ele>143</ele>
        <time>2019-02-17T10:32:37.086Z</time>
      </trkpt>
      <trkpt lat="46.83708" lon="0.42255">
        <ele>141</ele>
        <time>2019-02-17T10:32:38.086Z</time>
      </trkpt>
      <trkpt lat="46.83705" lon="0.42255">
        <ele>141</ele>
        <time>2019-02-17T10:32:39.086Z</time>
      </trkpt>
      <trkpt lat="46.83702" lon="0.42254">
        <ele>142</ele>
        <time>2019-02-17T10:32:40.086Z</time>
      </trkpt>
      <trkpt lat="46.83699" lon="0.42253">
        <ele>144</ele>
        <time>2019-02-17T10:32:41.086Z</time>
      </trkpt>
      <trkpt lat="46.83696" lon="0.42252">
        <ele>144</ele>
        <time>2019-02-17T10:32:42.086Z</time>
      </trkpt>
      <trkpt lat="46.83694" lon="0.42252">
        <ele>144</ele>
        <time>2019-02-17T10:32:43.086Z</time>
      </trkpt>
      <trkpt lat="46.83691" lon="0.42251">
        <ele>144</ele>
        <time>2019-02-17T10:32:44.086Z</time>
      </trkpt>
      <trkpt lat="46.83689" lon="0.4225">
        <ele>144</ele>
        <time>2019-02-17T10:32:45.086Z</time>
      </trkpt>
      <trkpt lat="46.83686" lon="0.4225">
        <ele>143</ele>
        <time>2019-02-17T10:32:46.086Z</time>
      </trkpt>
      <trkpt lat="46.83683" lon="0.42249">
        <ele>143</ele>
        <time>2019-02-17T10:32:47.086Z</time>
      </trkpt>
      <trkpt lat="46.83681" lon="0.42249">
        <ele>143</ele>
        <time>2019-02-17T10:32:48.086Z</time>
      </trkpt>
      <trkpt lat="46.83678" lon="0.42248">
        <ele>144</ele>
        <time>2019-02-17T10:32:49.086Z</time>
      </trkpt>
      <trkpt lat="46.83676" lon="0.42248">
        <ele>144</ele>
        <time>2019-02-17T10:32:50.086Z</time>
      </trkpt>
      <trkpt lat="46.83673" lon="0.42247">
        <ele>144</ele>
        <time>2019-02-17T10:32:51.086Z</time>
      </trkpt>
      <trkpt lat="46.8367" lon="0.42246">
        <ele>144</ele>
        <time>2019-02-17T10:32:52.086Z</time>
      </trkpt>
      <trkpt lat="46.83668" lon="0.42244">
        <ele>143</ele>
        <time>2019-02-17T10:32:53.086Z</time>
      </trkpt>
      <trkpt lat="46.83665" lon="0.42243">
        <ele>143</ele>
        <time>2019-02-17T10:32:54.086Z</time>
      </trkpt>
      <trkpt lat="46.83662" lon="0.42242">
        <ele>144</ele>
        <time>2019-02-17T10:32:55.086Z</time>
      </trkpt>
      <trkpt lat="46.83659" lon="0.42241">
        <ele>143</ele>
        <time>2019-02-17T10:32:56.086Z</time>
      </trkpt>
      <trkpt lat="46.83656" lon="0.4224">
        <ele>143</ele>
        <time>2019-02-17T10:32:57.086Z</time>
      </trkpt>
      <trkpt lat="46.83654" lon="0.42239">
        <ele>143</ele>
        <time>2019-02-17T10:32:58.086Z</time>
      </trkpt>
      <trkpt lat="46.83651" lon="0.42238">
        <ele>142</ele>
        <time>2019-02-17T10:32:59.086Z</time>
      </trkpt>
      <trkpt lat="46.83648" lon="0.42237">
        <ele>142</ele>
        <time>2019-02-17T10:33:00.086Z</time>
      </trkpt>
      <trkpt lat="46.83646" lon="0.42236">
        <ele>142</ele>
        <time>2019-02-17T10:33:01.086Z</time>
      </trkpt>
      <trkpt lat="46.83643" lon="0.42235">
        <ele>143</ele>
        <time>2019-02-17T10:33:02.086Z</time>
      </trkpt>
      <trkpt lat="46.83641" lon="0.42235">
        <ele>143</ele>
        <time>2019-02-17T10:33:03.086Z</time>
      </trkpt>
      <trkpt lat="46.83638" lon="0.42235">
        <ele>143</ele>
        <time>2019-02-17T10:33:04.086Z</time>
      </trkpt>
      <trkpt lat="46.83636" lon="0.42234">
        <ele>143</ele>
        <time>2019-02-17T10:33:05.086Z</time>
      </trkpt>
      <trkpt lat="46.83633" lon="0.42233">
        <ele>142</ele>
        <time>2019-02-17T10:33:06.086Z</time>
      </trkpt>
      <trkpt lat="46.8363" lon="0.42233">
        <ele>141</ele>
        <time>2019-02-17T10:33:07.086Z</time>
      </trkpt>
      <trkpt lat="46.83627" lon="0.42232">
        <ele>140</ele>
        <time>2019-02-17T10:33:08.086Z</time>
      </trkpt>
      <trkpt lat="46.83624" lon="0.42232">
        <ele>140</ele>
        <time>2019-02-17T10:33:09.086Z</time>
      </trkpt>
      <trkpt lat="46.83621" lon="0.42232">
        <ele>139</ele>
        <time>2019-02-17T10:33:10.086Z</time>
      </trkpt>
      <trkpt lat="46.83618" lon="0.42232">
        <ele>138</ele>
        <time>2019-02-17T10:33:11.086Z</time>
      </trkpt>
      <trkpt lat="46.83616" lon="0.42232">
        <ele>137</ele>
        <time>2019-02-17T10:33:12.086Z</time>
      </trkpt>
      <trkpt lat="46.83613" lon="0.42232">
        <ele>137</ele>
        <time>2019-02-17T10:33:13.086Z</time>
      </trkpt>
      <trkpt lat="46.8361" lon="0.42233">
        <ele>136</ele>
        <time>2019-02-17T10:33:14.086Z</time>
      </trkpt>
      <trkpt lat="46.83607" lon="0.42234">
        <ele>137</ele>
        <time>2019-02-17T10:33:15.086Z</time>
      </trkpt>
      <trkpt lat="46.83604" lon="0.42235">
        <ele>137</ele>
        <time>2019-02-17T10:33:16.086Z</time>
      </trkpt>
      <trkpt lat="46.83602" lon="0.42236">
        <ele>135</ele>
        <time>2019-02-17T10:33:17.086Z</time>
      </trkpt>
      <trkpt lat="46.836" lon="0.42237">
        <ele>136</ele>
        <time>2019-02-17T10:33:18.086Z</time>
      </trkpt>
      <trkpt lat="46.83597" lon="0.42237">
        <ele>135</ele>
        <time>2019-02-17T10:33:19.086Z</time>
      </trkpt>
      <trkpt lat="46.83594" lon="0.42237">
        <ele>135</ele>
        <time>2019-02-17T10:33:20.086Z</time>
      </trkpt>
      <trkpt lat="46.83591" lon="0.42237">
        <ele>134</ele>
        <time>2019-02-17T10:33:21.086Z</time>
      </trkpt>
      <trkpt lat="46.83588" lon="0.42237">
        <ele>134</ele>
        <time>2019-02-17T10:33:22.086Z</time>
      </trkpt>
      <trkpt lat="46.83585" lon="0.42237">
        <ele>134</ele>
        <time>2019-02-17T10:33:23.086Z</time>
      </trkpt>
      <trkpt lat="46.83582" lon="0.42236">
        <ele>134</ele>
        <time>2019-02-17T10:33:24.086Z</time>
      </trkpt>
      <trkpt lat="46.83579" lon="0.42236">
        <ele>134</ele>
        <time>2019-02-17T10:33:25.086Z</time>
      </trkpt>
      <trkpt lat="46.83576" lon="0.42236">
        <ele>133</ele>
        <time>2019-02-17T10:33:26.086Z</time>
      </trkpt>
      <trkpt lat="46.83573" lon="0.42236">
        <ele>132</ele>
        <time>2019-02-17T10:33:27.086Z</time>
      </trkpt>
      <trkpt lat="46.8357" lon="0.42235">
        <ele>131</ele>
        <time>2019-02-17T10:33:28.086Z</time>
      </trkpt>
      <trkpt lat="46.83566" lon="0.42234">
        <ele>131</ele>
        <time>2019-02-17T10:33:29.086Z</time>
      </trkpt>
      <trkpt lat="46.83563" lon="0.42233">
        <ele>131</ele>
        <time>2019-02-17T10:33:30.086Z</time>
      </trkpt>
      <trkpt lat="46.83559" lon="0.42233">
        <ele>130</ele>
        <time>2019-02-17T10:33:31.086Z</time>
      </trkpt>
      <trkpt lat="46.83556" lon="0.42233">
        <ele>131</ele>
        <time>2019-02-17T10:33:32.086Z</time>
      </trkpt>
      <trkpt lat="46.83552" lon="0.42233">
        <ele>131</ele>
        <time>2019-02-17T10:33:33.086Z</time>
      </trkpt>
      <trkpt lat="46.83549" lon="0.42233">
        <ele>131</ele>
        <time>2019-02-17T10:33:34.086Z</time>
      </trkpt>
      <trkpt lat="46.83545" lon="0.42232">
        <ele>131</ele>
        <time>2019-02-17T10:33:35.086Z</time>
      </trkpt>
      <trkpt lat="46.83542" lon="0.42232">
        <ele>131</ele>
        <time>2019-02-17T10:33:36.086Z</time>
      </trkpt>
      <trkpt lat="46.83539" lon="0.42232">
        <ele>130</ele>
        <time>2019-02-17T10:33:37.086Z</time>
      </trkpt>
      <trkpt lat="46.83536" lon="0.42231">
        <ele>131</ele>
        <time>2019-02-17T10:33:38.086Z</time>
      </trkpt>
      <trkpt lat="46.83533" lon="0.4223">
        <ele>133</ele>
        <time>2019-02-17T10:33:39.086Z</time>
      </trkpt>
      <trkpt lat="46.8353" lon="0.42229">
        <ele>135</ele>
        <time>2019-02-17T10:33:40.086Z</time>
      </trkpt>
      <trkpt lat="46.83526" lon="0.42228">
        <ele>135</ele>
        <time>2019-02-17T10:33:41.086Z</time>
      </trkpt>
      <trkpt lat="46.83523" lon="0.42228">
        <ele>137</ele>
        <time>2019-02-17T10:33:42.086Z</time>
      </trkpt>
      <trkpt lat="46.8352" lon="0.42229">
        <ele>138</ele>
        <time>2019-02-17T10:33:43.086Z</time>
      </trkpt>
      <trkpt lat="46.83516" lon="0.42228">
        <ele>139</ele>
        <time>2019-02-17T10:33:44.086Z</time>
      </trkpt>
      <trkpt lat="46.83513" lon="0.42228">
        <ele>140</ele>
        <time>2019-02-17T10:33:45.086Z</time>
      </trkpt>
      <trkpt lat="46.83509" lon="0.42228">
        <ele>139</ele>
        <time>2019-02-17T10:33:46.086Z</time>
      </trkpt>
      <trkpt lat="46.83505" lon="0.42229">
        <ele>141</ele>
        <time>2019-02-17T10:33:47.086Z</time>
      </trkpt>
      <trkpt lat="46.83502" lon="0.42229">
        <ele>141</ele>
        <time>2019-02-17T10:33:48.086Z</time>
      </trkpt>
      <trkpt lat="46.83498" lon="0.42229">
        <ele>140</ele>
        <time>2019-02-17T10:33:49.086Z</time>
      </trkpt>
      <trkpt lat="46.83494" lon="0.42229">
        <ele>140</ele>
        <time>2019-02-17T10:33:50.086Z</time>
      </trkpt>
      <trkpt lat="46.83491" lon="0.42229">
        <ele>139</ele>
        <time>2019-02-17T10:33:51.086Z</time>
      </trkpt>
      <trkpt lat="46.83488" lon="0.42228">
        <ele>140</ele>
        <time>2019-02-17T10:33:52.086Z</time>
      </trkpt>
      <trkpt lat="46.83484" lon="0.42228">
        <ele>140</ele>
        <time>2019-02-17T10:33:53.086Z</time>
      </trkpt>
      <trkpt lat="46.83481" lon="0.42227">
        <ele>140</ele>
        <time>2019-02-17T10:33:54.086Z</time>
      </trkpt>
      <trkpt lat="46.83478" lon="0.42227">
        <ele>140</ele>
        <time>2019-02-17T10:33:55.086Z</time>
      </trkpt>
      <trkpt lat="46.83474" lon="0.42225">
        <ele>142</ele>
        <time>2019-02-17T10:33:56.086Z</time>
      </trkpt>
      <trkpt lat="46.8347" lon="0.42224">
        <ele>144</ele>
        <time>2019-02-17T10:33:57.086Z</time>
      </trkpt>
      <trkpt lat="46.83466" lon="0.42222">
        <ele>145</ele>
        <time>2019-02-17T10:33:58.086Z</time>
      </trkpt>
      <trkpt lat="46.83464" lon="0.42219">
        <ele>145</ele>
        <time>2019-02-17T10:33:59.086Z</time>
      </trkpt>
      <trkpt lat="46.83462" lon="0.42215">
        <ele>147</ele>
        <time>2019-02-17T10:34:00.086Z</time>
      </trkpt>
      <trkpt lat="46.83462" lon="0.4221">
        <ele>147</ele>
        <time>2019-02-17T10:34:01.086Z</time>
      </trkpt>
      <trkpt lat="46.83462" lon="0.42204">
        <ele>147</ele>
        <time>2019-02-17T10:34:02.086Z</time>
      </trkpt>
      <trkpt lat="46.83463" lon="0.42199">
        <ele>147</ele>
        <time>2019-02-17T10:34:03.086Z</time>
      </trkpt>
      <trkpt lat="46.83463" lon="0.42194">
        <ele>149</ele>
        <time>2019-02-17T10:34:04.086Z</time>
      </trkpt>
      <trkpt lat="46.83464" lon="0.42189">
        <ele>149</ele>
        <time>2019-02-17T10:34:05.086Z</time>
      </trkpt>
      <trkpt lat="46.83464" lon="0.42184">
        <ele>150</ele>
        <time>2019-02-17T10:34:06.086Z</time>
      </trkpt>
      <trkpt lat="46.83465" lon="0.42179">
        <ele>151</ele>
        <time>2019-02-17T10:34:07.086Z</time>
      </trkpt>
      <trkpt lat="46.83466" lon="0.42174">
        <ele>152</ele>
        <time>2019-02-17T10:34:08.086Z</time>
      </trkpt>
      <trkpt lat="46.83467" lon="0.4217">
        <ele>153</ele>
        <time>2019-02-17T10:34:09.086Z</time>
      </trkpt>
      <trkpt lat="46.83469" lon="0.42165">
        <ele>153</ele>
        <time>2019-02-17T10:34:10.086Z</time>
      </trkpt>
      <trkpt lat="46.8347" lon="0.42161">
        <ele>153</ele>
        <time>2019-02-17T10:34:11.086Z</time>
      </trkpt>
      <trkpt lat="46.83471" lon="0.42156">
        <ele>153</ele>
        <time>2019-02-17T10:34:12.086Z</time>
      </trkpt>
      <trkpt lat="46.83472" lon="0.42152">
        <ele>154</ele>
        <time>2019-02-17T10:34:13.086Z</time>
      </trkpt>
      <trkpt lat="46.83474" lon="0.42147">
        <ele>154</ele>
        <time>2019-02-17T10:34:14.086Z</time>
      </trkpt>
      <trkpt lat="46.83476" lon="0.42142">
        <ele>154</ele>
        <time>2019-02-17T10:34:15.086Z</time>
      </trkpt>
      <trkpt lat="46.83478" lon="0.42137">
        <ele>154</ele>
        <time>2019-02-17T10:34:16.086Z</time>
      </trkpt>
      <trkpt lat="46.8348" lon="0.42132">
        <ele>154</ele>
        <time>2019-02-17T10:34:17.086Z</time>
      </trkpt>
      <trkpt lat="46.83482" lon="0.42126">
        <ele>154</ele>
        <time>2019-02-17T10:34:18.086Z</time>
      </trkpt>
      <trkpt lat="46.83483" lon="0.42121">
        <ele>154</ele>
        <time>2019-02-17T10:34:19.086Z</time>
      </trkpt>
      <trkpt lat="46.83485" lon="0.42116">
        <ele>154</ele>
        <time>2019-02-17T10:34:20.086Z</time>
      </trkpt>
      <trkpt lat="46.83487" lon="0.42111">
        <ele>154</ele>
        <time>2019-02-17T10:34:21.086Z</time>
      </trkpt>
      <trkpt lat="46.83488" lon="0.42107">
        <ele>154</ele>
        <time>2019-02-17T10:34:22.086Z</time>
      </trkpt>
      <trkpt lat="46.83489" lon="0.42102">
        <ele>154</ele>
        <time>2019-02-17T10:34:23.086Z</time>
      </trkpt>
      <trkpt lat="46.8349" lon="0.42098">
        <ele>154</ele>
        <time>2019-02-17T10:34:24.086Z</time>
      </trkpt>
      <trkpt lat="46.83491" lon="0.42094">
        <ele>154</ele>
        <time>2019-02-17T10:34:25.086Z</time>
      </trkpt>
      <trkpt lat="46.83491" lon="0.4209">
        <ele>153</ele>
        <time>2019-02-17T10:34:26.086Z</time>
      </trkpt>
      <trkpt lat="46.83492" lon="0.42086">
        <ele>153</ele>
        <time>2019-02-17T10:34:27.086Z</time>
      </trkpt>
      <trkpt lat="46.83492" lon="0.42083">
        <ele>153</ele>
        <time>2019-02-17T10:34:28.086Z</time>
      </trkpt>
      <trkpt lat="46.83492" lon="0.42079">
        <ele>152</ele>
        <time>2019-02-17T10:34:29.086Z</time>
      </trkpt>
      <trkpt lat="46.83491" lon="0.42076">
        <ele>151</ele>
        <time>2019-02-17T10:34:30.086Z</time>
      </trkpt>
      <trkpt lat="46.83489" lon="0.42073">
        <ele>151</ele>
        <time>2019-02-17T10:34:31.086Z</time>
      </trkpt>
      <trkpt lat="46.83487" lon="0.4207">
        <ele>151</ele>
        <time>2019-02-17T10:34:32.086Z</time>
      </trkpt>
      <trkpt lat="46.83486" lon="0.42067">
        <ele>151</ele>
        <time>2019-02-17T10:34:33.086Z</time>
      </trkpt>
      <trkpt lat="46.83484" lon="0.42065">
        <ele>151</ele>
        <time>2019-02-17T10:34:34.086Z</time>
      </trkpt>
      <trkpt lat="46.83482" lon="0.42062">
        <ele>151</ele>
        <time>2019-02-17T10:34:35.086Z</time>
      </trkpt>
      <trkpt lat="46.83481" lon="0.4206">
        <ele>151</ele>
        <time>2019-02-17T10:34:36.086Z</time>
      </trkpt>
      <trkpt lat="46.8348" lon="0.42057">
        <ele>151</ele>
        <time>2019-02-17T10:34:37.086Z</time>
      </trkpt>
      <trkpt lat="46.83479" lon="0.42054">
        <ele>151</ele>
        <time>2019-02-17T10:34:38.086Z</time>
      </trkpt>
      <trkpt lat="46.83479" lon="0.4205">
        <ele>150</ele>
        <time>2019-02-17T10:34:39.086Z</time>
      </trkpt>
      <trkpt lat="46.83478" lon="0.42047">
        <ele>151</ele>
        <time>2019-02-17T10:34:40.086Z</time>
      </trkpt>
      <trkpt lat="46.83479" lon="0.42043">
        <ele>150</ele>
        <time>2019-02-17T10:34:41.086Z</time>
      </trkpt>
      <trkpt lat="46.83479" lon="0.42039">
        <ele>150</ele>
        <time>2019-02-17T10:34:42.086Z</time>
      </trkpt>
      <trkpt lat="46.83479" lon="0.42036">
        <ele>150</ele>
        <time>2019-02-17T10:34:43.086Z</time>
      </trkpt>
      <trkpt lat="46.8348" lon="0.42032">
        <ele>150</ele>
        <time>2019-02-17T10:34:44.086Z</time>
      </trkpt>
      <trkpt lat="46.8348" lon="0.42028">
        <ele>149</ele>
        <time>2019-02-17T10:34:45.086Z</time>
      </trkpt>
      <trkpt lat="46.83479" lon="0.42024">
        <ele>147</ele>
        <time>2019-02-17T10:34:46.086Z</time>
      </trkpt>
      <trkpt lat="46.83479" lon="0.4202">
        <ele>147</ele>
        <time>2019-02-17T10:34:47.086Z</time>
      </trkpt>
      <trkpt lat="46.83479" lon="0.42016">
        <ele>145</ele>
        <time>2019-02-17T10:34:48.086Z</time>
      </trkpt>
      <trkpt lat="46.83479" lon="0.42012">
        <ele>144</ele>
        <time>2019-02-17T10:34:49.086Z</time>
      </trkpt>
      <trkpt lat="46.83479" lon="0.42007">
        <ele>144</ele>
        <time>2019-02-17T10:34:50.086Z</time>
      </trkpt>
      <trkpt lat="46.83481" lon="0.42003">
        <ele>144</ele>
        <time>2019-02-17T10:34:51.086Z</time>
      </trkpt>
      <trkpt lat="46.83482" lon="0.41999">
        <ele>144</ele>
        <time>2019-02-17T10:34:52.086Z</time>
      </trkpt>
      <trkpt lat="46.83485" lon="0.41996">
        <ele>144</ele>
        <time>2019-02-17T10:34:53.086Z</time>
      </trkpt>
      <trkpt lat="46.83485" lon="0.41992">
        <ele>143</ele>
        <time>2019-02-17T10:34:54.086Z</time>
      </trkpt>
      <trkpt lat="46.83486" lon="0.41988">
        <ele>142</ele>
        <time>2019-02-17T10:34:55.086Z</time>
      </trkpt>
      <trkpt lat="46.83487" lon="0.41984">
        <ele>142</ele>
        <time>2019-02-17T10:34:56.086Z</time>
      </trkpt>
      <trkpt lat="46.83489" lon="0.4198">
        <ele>142</ele>
        <time>2019-02-17T10:34:57.086Z</time>
      </trkpt>
      <trkpt lat="46.83491" lon="0.41977">
        <ele>142</ele>
        <time>2019-02-17T10:34:58.086Z</time>
      </trkpt>
      <trkpt lat="46.83492" lon="0.41974">
        <ele>141</ele>
        <time>2019-02-17T10:34:59.086Z</time>
      </trkpt>
      <trkpt lat="46.83494" lon="0.41971">
        <ele>142</ele>
        <time>2019-02-17T10:35:00.086Z</time>
      </trkpt>
      <trkpt lat="46.83495" lon="0.41967">
        <ele>141</ele>
        <time>2019-02-17T10:35:01.086Z</time>
      </trkpt>
      <trkpt lat="46.83496" lon="0.41963">
        <ele>142</ele>
        <time>2019-02-17T10:35:02.086Z</time>
      </trkpt>
      <trkpt lat="46.83496" lon="0.4196">
        <ele>142</ele>
        <time>2019-02-17T10:35:03.086Z</time>
      </trkpt>
      <trkpt lat="46.83497" lon="0.41957">
        <ele>142</ele>
        <time>2019-02-17T10:35:04.086Z</time>
      </trkpt>
      <trkpt lat="46.83499" lon="0.41954">
        <ele>141</ele>
        <time>2019-02-17T10:35:05.086Z</time>
      </trkpt>
      <trkpt lat="46.835" lon="0.41951">
        <ele>143</ele>
        <time>2019-02-17T10:35:06.086Z</time>
      </trkpt>
      <trkpt lat="46.83503" lon="0.41947">
        <ele>146</ele>
        <time>2019-02-17T10:35:07.086Z</time>
      </trkpt>
      <trkpt lat="46.83505" lon="0.41944">
        <ele>147</ele>
        <time>2019-02-17T10:35:08.086Z</time>
      </trkpt>
      <trkpt lat="46.83508" lon="0.4194">
        <ele>147</ele>
        <time>2019-02-17T10:35:09.086Z</time>
      </trkpt>
      <trkpt lat="46.8351" lon="0.41938">
        <ele>148</ele>
        <time>2019-02-17T10:35:10.086Z</time>
      </trkpt>
      <trkpt lat="46.83513" lon="0.41935">
        <ele>149</ele>
        <time>2019-02-17T10:35:11.086Z</time>
      </trkpt>
      <trkpt lat="46.83515" lon="0.41932">
        <ele>149</ele>
        <time>2019-02-17T10:35:12.086Z</time>
      </trkpt>
      <trkpt lat="46.83516" lon="0.41929">
        <ele>149</ele>
        <time>2019-02-17T10:35:13.086Z</time>
      </trkpt>
      <trkpt lat="46.83518" lon="0.41926">
        <ele>149</ele>
        <time>2019-02-17T10:35:14.086Z</time>
      </trkpt>
      <trkpt lat="46.8352" lon="0.41924">
        <ele>150</ele>
        <time>2019-02-17T10:35:15.086Z</time>
      </trkpt>
      <trkpt lat="46.83522" lon="0.41921">
        <ele>151</ele>
        <time>2019-02-17T10:35:16.086Z</time>
      </trkpt>
      <trkpt lat="46.83524" lon="0.41919">
        <ele>150</ele>
        <time>2019-02-17T10:35:17.086Z</time>
      </trkpt>
      <trkpt lat="46.83527" lon="0.41917">
        <ele>151</ele>
        <time>2019-02-17T10:35:18.086Z</time>
      </trkpt>
      <trkpt lat="46.83531" lon="0.41915">
        <ele>150</ele>
        <time>2019-02-17T10:35:19.086Z</time>
      </trkpt>
      <trkpt lat="46.83534" lon="0.41914">
        <ele>150</ele>
        <time>2019-02-17T10:35:20.086Z</time>
      </trkpt>
      <trkpt lat="46.83536" lon="0.41912">
        <ele>150</ele>
        <time>2019-02-17T10:35:21.086Z</time>
      </trkpt>
      <trkpt lat="46.83539" lon="0.4191">
        <ele>149</ele>
        <time>2019-02-17T10:35:22.086Z</time>
      </trkpt>
      <trkpt lat="46.83541" lon="0.41908">
        <ele>149</ele>
        <time>2019-02-17T10:35:23.086Z</time>
      </trkpt>
      <trkpt lat="46.83544" lon="0.41905">
        <ele>149</ele>
        <time>2019-02-17T10:35:24.086Z</time>
      </trkpt>
      <trkpt lat="46.83547" lon="0.41902">
        <ele>150</ele>
        <time>2019-02-17T10:35:25.086Z</time>
      </trkpt>
      <trkpt lat="46.83549" lon="0.419">
        <ele>150</ele>
        <time>2019-02-17T10:35:26.086Z</time>
      </trkpt>
      <trkpt lat="46.83554" lon="0.41898">
        <ele>153</ele>
        <time>2019-02-17T10:35:27.086Z</time>
      </trkpt>
      <trkpt lat="46.83558" lon="0.41896">
        <ele>154</ele>
        <time>2019-02-17T10:35:28.086Z</time>
      </trkpt>
      <trkpt lat="46.83563" lon="0.41894">
        <ele>155</ele>
        <time>2019-02-17T10:35:29.086Z</time>
      </trkpt>
      <trkpt lat="46.83566" lon="0.41892">
        <ele>156</ele>
        <time>2019-02-17T10:35:30.086Z</time>
      </trkpt>
      <trkpt lat="46.8357" lon="0.41891">
        <ele>156</ele>
        <time>2019-02-17T10:35:31.086Z</time>
      </trkpt>
      <trkpt lat="46.83574" lon="0.41889">
        <ele>156</ele>
        <time>2019-02-17T10:35:32.086Z</time>
      </trkpt>
      <trkpt lat="46.83577" lon="0.41888">
        <ele>156</ele>
        <time>2019-02-17T10:35:33.086Z</time>
      </trkpt>
      <trkpt lat="46.83581" lon="0.41886">
        <ele>156</ele>
        <time>2019-02-17T10:35:34.086Z</time>
      </trkpt>
      <trkpt lat="46.83584" lon="0.41885">
        <ele>156</ele>
        <time>2019-02-17T10:35:35.086Z</time>
      </trkpt>
      <trkpt lat="46.83587" lon="0.41883">
        <ele>156</ele>
        <time>2019-02-17T10:35:36.086Z</time>
      </trkpt>
      <trkpt lat="46.8359" lon="0.41881">
        <ele>155</ele>
        <time>2019-02-17T10:35:37.086Z</time>
      </trkpt>
      <trkpt lat="46.83593" lon="0.41879">
        <ele>154</ele>
        <time>2019-02-17T10:35:38.086Z</time>
      </trkpt>
      <trkpt lat="46.83595" lon="0.41877">
        <ele>154</ele>
        <time>2019-02-17T10:35:39.086Z</time>
      </trkpt>
      <trkpt lat="46.83598" lon="0.41874">
        <ele>154</ele>
        <time>2019-02-17T10:35:40.086Z</time>
      </trkpt>
      <trkpt lat="46.83601" lon="0.41872">
        <ele>153</ele>
        <time>2019-02-17T10:35:41.086Z</time>
      </trkpt>
      <trkpt lat="46.83604" lon="0.4187">
        <ele>153</ele>
        <time>2019-02-17T10:35:42.086Z</time>
      </trkpt>
      <trkpt lat="46.83607" lon="0.41868">
        <ele>153</ele>
        <time>2019-02-17T10:35:43.086Z</time>
      </trkpt>
      <trkpt lat="46.8361" lon="0.41867">
        <ele>154</ele>
        <time>2019-02-17T10:35:44.086Z</time>
      </trkpt>
      <trkpt lat="46.83613" lon="0.41866">
        <ele>155</ele>
        <time>2019-02-17T10:35:45.086Z</time>
      </trkpt>
      <trkpt lat="46.83615" lon="0.41865">
        <ele>154</ele>
        <time>2019-02-17T10:35:46.086Z</time>
      </trkpt>
      <trkpt lat="46.83618" lon="0.41864">
        <ele>154</ele>
        <time>2019-02-17T10:35:47.086Z</time>
      </trkpt>
      <trkpt lat="46.8362" lon="0.41863">
        <ele>153</ele>
        <time>2019-02-17T10:35:48.086Z</time>
      </trkpt>
      <trkpt lat="46.83622" lon="0.41861">
        <ele>154</ele>
        <time>2019-02-17T10:35:49.086Z</time>
      </trkpt>
      <trkpt lat="46.83623" lon="0.4186">
        <ele>154</ele>
        <time>2019-02-17T10:35:50.086Z</time>
      </trkpt>
      <trkpt lat="46.83624" lon="0.41858">
        <ele>154</ele>
        <time>2019-02-17T10:35:51.086Z</time>
      </trkpt>
      <trkpt lat="46.83625" lon="0.41857">
        <ele>155</ele>
        <time>2019-02-17T10:35:52.086Z</time>
      </trkpt>
      <trkpt lat="46.83625" lon="0.41856">
        <ele>154</ele>
        <time>2019-02-17T10:35:53.086Z</time>
      </trkpt>
      <trkpt lat="46.83624" lon="0.41855">
        <ele>155</ele>
        <time>2019-02-17T10:35:54.086Z</time>
      </trkpt>
      <trkpt lat="46.83624" lon="0.41855">
        <ele>155</ele>
        <time>2019-02-17T10:35:55.086Z</time>
      </trkpt>
      <trkpt lat="46.83625" lon="0.41854">
        <ele>155</ele>
        <time>2019-02-17T10:35:56.086Z</time>
      </trkpt>
      <trkpt lat="46.83625" lon="0.41852">
        <ele>156</ele>
        <time>2019-02-17T10:35:57.086Z</time>
      </trkpt>
      <trkpt lat="46.83625" lon="0.4185">
        <ele>155</ele>
        <time>2019-02-17T10:35:58.086Z</time>
      </trkpt>
      <trkpt lat="46.83626" lon="0.41847">
        <ele>153</ele>
        <time>2019-02-17T10:35:59.086Z</time>
      </trkpt>
      <trkpt lat="46.83626" lon="0.41845">
        <ele>153</ele>
        <time>2019-02-17T10:36:00.086Z</time>
      </trkpt>
      <trkpt lat="46.83626" lon="0.41842">
        <ele>151</ele>
        <time>2019-02-17T10:36:01.086Z</time>
      </trkpt>
      <trkpt lat="46.83627" lon="0.41839">
        <ele>150</ele>
        <time>2019-02-17T10:36:02.086Z</time>
      </trkpt>
      <trkpt lat="46.83627" lon="0.41836">
        <ele>150</ele>
        <time>2019-02-17T10:36:03.086Z</time>
      </trkpt>
      <trkpt lat="46.83627" lon="0.41833">
        <ele>149</ele>
        <time>2019-02-17T10:36:04.086Z</time>
      </trkpt>
      <trkpt lat="46.83627" lon="0.4183">
        <ele>148</ele>
        <time>2019-02-17T10:36:05.086Z</time>
      </trkpt>
      <trkpt lat="46.83627" lon="0.41827">
        <ele>147</ele>
        <time>2019-02-17T10:36:06.086Z</time>
      </trkpt>
      <trkpt lat="46.83626" lon="0.41824">
        <ele>146</ele>
        <time>2019-02-17T10:36:07.086Z</time>
      </trkpt>
      <trkpt lat="46.83625" lon="0.4182">
        <ele>145</ele>
        <time>2019-02-17T10:36:08.086Z</time>
      </trkpt>
      <trkpt lat="46.83624" lon="0.41816">
        <ele>145</ele>
        <time>2019-02-17T10:36:09.086Z</time>
      </trkpt>
      <trkpt lat="46.83623" lon="0.41812">
        <ele>145</ele>
        <time>2019-02-17T10:36:10.086Z</time>
      </trkpt>
      <trkpt lat="46.83621" lon="0.41808">
        <ele>144</ele>
        <time>2019-02-17T10:36:11.086Z</time>
      </trkpt>
      <trkpt lat="46.83619" lon="0.41804">
        <ele>145</ele>
        <time>2019-02-17T10:36:12.086Z</time>
      </trkpt>
      <trkpt lat="46.83618" lon="0.41801">
        <ele>144</ele>
        <time>2019-02-17T10:36:13.086Z</time>
      </trkpt>
      <trkpt lat="46.83617" lon="0.41798">
        <ele>145</ele>
        <time>2019-02-17T10:36:14.086Z</time>
      </trkpt>
      <trkpt lat="46.83617" lon="0.41794">
        <ele>145</ele>
        <time>2019-02-17T10:36:15.086Z</time>
      </trkpt>
      <trkpt lat="46.83616" lon="0.41792">
        <ele>144</ele>
        <time>2019-02-17T10:36:16.086Z</time>
      </trkpt>
      <trkpt lat="46.83615" lon="0.4179">
        <ele>142</ele>
        <time>2019-02-17T10:36:17.086Z</time>
      </trkpt>
      <trkpt lat="46.83613" lon="0.41789">
        <ele>142</ele>
        <time>2019-02-17T10:36:18.086Z</time>
      </trkpt>
      <trkpt lat="46.83612" lon="0.41788">
        <ele>141</ele>
        <time>2019-02-17T10:36:19.086Z</time>
      </trkpt>
      <trkpt lat="46.83611" lon="0.41786">
        <ele>141</ele>
        <time>2019-02-17T10:36:20.086Z</time>
      </trkpt>
      <trkpt lat="46.83609" lon="0.41784">
        <ele>140</ele>
        <time>2019-02-17T10:36:21.086Z</time>
      </trkpt>
      <trkpt lat="46.83608" lon="0.41782">
        <ele>140</ele>
        <time>2019-02-17T10:36:22.086Z</time>
      </trkpt>
      <trkpt lat="46.83608" lon="0.4178">
        <ele>140</ele>
        <time>2019-02-17T10:36:23.086Z</time>
      </trkpt>
      <trkpt lat="46.83607" lon="0.41778">
        <ele>140</ele>
        <time>2019-02-17T10:36:24.086Z</time>
      </trkpt>
      <trkpt lat="46.83606" lon="0.41776">
        <ele>140</ele>
        <time>2019-02-17T10:36:25.086Z</time>
      </trkpt>
      <trkpt lat="46.83605" lon="0.41774">
        <ele>140</ele>
        <time>2019-02-17T10:36:26.086Z</time>
      </trkpt>
      <trkpt lat="46.83604" lon="0.41772">
        <ele>140</ele>
        <time>2019-02-17T10:36:27.086Z</time>
      </trkpt>
      <trkpt lat="46.83603" lon="0.41771">
        <ele>140</ele>
        <time>2019-02-17T10:36:28.086Z</time>
      </trkpt>
      <trkpt lat="46.83603" lon="0.4177">
        <ele>139</ele>
        <time>2019-02-17T10:36:29.086Z</time>
      </trkpt>
      <trkpt lat="46.83602" lon="0.41768">
        <ele>139</ele>
        <time>2019-02-17T10:36:30.086Z</time>
      </trkpt>
      <trkpt lat="46.83601" lon="0.41766">
        <ele>139</ele>
        <time>2019-02-17T10:36:31.086Z</time>
      </trkpt>
      <trkpt lat="46.836" lon="0.41765">
        <ele>139</ele>
        <time>2019-02-17T10:36:32.086Z</time>
      </trkpt>
      <trkpt lat="46.836" lon="0.41763">
        <ele>140</ele>
        <time>2019-02-17T10:36:33.086Z</time>
      </trkpt>
      <trkpt lat="46.83599" lon="0.4176">
        <ele>141</ele>
        <time>2019-02-17T10:36:34.086Z</time>
      </trkpt>
      <trkpt lat="46.83597" lon="0.41757">
        <ele>142</ele>
        <time>2019-02-17T10:36:35.086Z</time>
      </trkpt>
      <trkpt lat="46.83596" lon="0.41754">
        <ele>142</ele>
        <time>2019-02-17T10:36:36.086Z</time>
      </trkpt>
      <trkpt lat="46.83595" lon="0.41751">
        <ele>142</ele>
        <time>2019-02-17T10:36:37.086Z</time>
      </trkpt>
      <trkpt lat="46.83594" lon="0.41748">
        <ele>141</ele>
        <time>2019-02-17T10:36:38.086Z</time>
      </trkpt>
      <trkpt lat="46.83593" lon="0.41746">
        <ele>141</ele>
        <time>2019-02-17T10:36:39.086Z</time>
      </trkpt>
      <trkpt lat="46.83593" lon="0.41743">
        <ele>140</ele>
        <time>2019-02-17T10:36:40.086Z</time>
      </trkpt>
      <trkpt lat="46.83592" lon="0.4174">
        <ele>140</ele>
        <time>2019-02-17T10:36:41.086Z</time>
      </trkpt>
      <trkpt lat="46.83591" lon="0.41737">
        <ele>141</ele>
        <time>2019-02-17T10:36:42.086Z</time>
      </trkpt>
      <trkpt lat="46.83591" lon="0.41734">
        <ele>140</ele>
        <time>2019-02-17T10:36:43.086Z</time>
      </trkpt>
      <trkpt lat="46.8359" lon="0.41731">
        <ele>139</ele>
        <time>2019-02-17T10:36:44.086Z</time>
      </trkpt>
      <trkpt lat="46.8359" lon="0.41728">
        <ele>137</ele>
        <time>2019-02-17T10:36:45.086Z</time>
      </trkpt>
      <trkpt lat="46.83589" lon="0.41725">
        <ele>137</ele>
        <time>2019-02-17T10:36:46.086Z</time>
      </trkpt>
      <trkpt lat="46.83589" lon="0.41723">
        <ele>138</ele>
        <time>2019-02-17T10:36:47.086Z</time>
      </trkpt>
      <trkpt lat="46.83588" lon="0.4172">
        <ele>137</ele>
        <time>2019-02-17T10:36:48.086Z</time>
      </trkpt>
      <trkpt lat="46.83587" lon="0.41717">
        <ele>137</ele>
        <time>2019-02-17T10:36:49.086Z</time>
      </trkpt>
      <trkpt lat="46.83586" lon="0.41713">
        <ele>136</ele>
        <time>2019-02-17T10:36:50.086Z</time>
      </trkpt>
      <trkpt lat="46.83584" lon="0.4171">
        <ele>134</ele>
        <time>2019-02-17T10:36:51.086Z</time>
      </trkpt>
      <trkpt lat="46.83583" lon="0.41706">
        <ele>134</ele>
        <time>2019-02-17T10:36:52.086Z</time>
      </trkpt>
      <trkpt lat="46.83582" lon="0.41703">
        <ele>132</ele>
        <time>2019-02-17T10:36:53.086Z</time>
      </trkpt>
      <trkpt lat="46.83581" lon="0.41701">
        <ele>130</ele>
        <time>2019-02-17T10:36:54.086Z</time>
      </trkpt>
      <trkpt lat="46.83581" lon="0.41699">
        <ele>132</ele>
        <time>2019-02-17T10:36:55.086Z</time>
      </trkpt>
      <trkpt lat="46.8358" lon="0.41697">
        <ele>130</ele>
        <time>2019-02-17T10:36:56.086Z</time>
      </trkpt>
      <trkpt lat="46.8358" lon="0.41694">
        <ele>129</ele>
        <time>2019-02-17T10:36:57.086Z</time>
      </trkpt>
      <trkpt lat="46.8358" lon="0.41691">
        <ele>129</ele>
        <time>2019-02-17T10:36:58.086Z</time>
      </trkpt>
      <trkpt lat="46.8358" lon="0.41687">
        <ele>129</ele>
        <time>2019-02-17T10:36:59.086Z</time>
      </trkpt>
      <trkpt lat="46.83579" lon="0.41683">
        <ele>131</ele>
        <time>2019-02-17T10:37:00.086Z</time>
      </trkpt>
      <trkpt lat="46.83579" lon="0.41679">
        <ele>131</ele>
        <time>2019-02-17T10:37:01.086Z</time>
      </trkpt>
      <trkpt lat="46.83578" lon="0.41675">
        <ele>131</ele>
        <time>2019-02-17T10:37:02.086Z</time>
      </trkpt>
      <trkpt lat="46.83577" lon="0.41672">
        <ele>131</ele>
        <time>2019-02-17T10:37:03.086Z</time>
      </trkpt>
      <trkpt lat="46.83576" lon="0.41668">
        <ele>130</ele>
        <time>2019-02-17T10:37:04.086Z</time>
      </trkpt>
      <trkpt lat="46.83576" lon="0.41665">
        <ele>129</ele>
        <time>2019-02-17T10:37:05.086Z</time>
      </trkpt>
      <trkpt lat="46.83575" lon="0.41662">
        <ele>130</ele>
        <time>2019-02-17T10:37:06.086Z</time>
      </trkpt>
      <trkpt lat="46.83575" lon="0.4166">
        <ele>128</ele>
        <time>2019-02-17T10:37:07.086Z</time>
      </trkpt>
      <trkpt lat="46.83574" lon="0.41657">
        <ele>128</ele>
        <time>2019-02-17T10:37:08.086Z</time>
      </trkpt>
      <trkpt lat="46.83571" lon="0.41655">
        <ele>124</ele>
        <time>2019-02-17T10:37:09.086Z</time>
      </trkpt>
      <trkpt lat="46.83569" lon="0.41653">
        <ele>123</ele>
        <time>2019-02-17T10:37:10.086Z</time>
      </trkpt>
      <trkpt lat="46.83566" lon="0.41651">
        <ele>123</ele>
        <time>2019-02-17T10:37:11.086Z</time>
      </trkpt>
      <trkpt lat="46.83564" lon="0.41649">
        <ele>122</ele>
        <time>2019-02-17T10:37:12.086Z</time>
      </trkpt>
      <trkpt lat="46.83561" lon="0.41647">
        <ele>123</ele>
        <time>2019-02-17T10:37:13.086Z</time>
      </trkpt>
      <trkpt lat="46.83559" lon="0.41644">
        <ele>124</ele>
        <time>2019-02-17T10:37:14.086Z</time>
      </trkpt>
      <trkpt lat="46.83557" lon="0.41641">
        <ele>123</ele>
        <time>2019-02-17T10:37:15.086Z</time>
      </trkpt>
      <trkpt lat="46.83556" lon="0.41637">
        <ele>122</ele>
        <time>2019-02-17T10:37:16.086Z</time>
      </trkpt>
      <trkpt lat="46.83555" lon="0.41633">
        <ele>119</ele>
        <time>2019-02-17T10:37:17.086Z</time>
      </trkpt>
      <trkpt lat="46.83555" lon="0.41628">
        <ele>118</ele>
        <time>2019-02-17T10:37:18.086Z</time>
      </trkpt>
      <trkpt lat="46.83555" lon="0.41623">
        <ele>117</ele>
        <time>2019-02-17T10:37:19.086Z</time>
      </trkpt>
      <trkpt lat="46.83555" lon="0.41619">
        <ele>115</ele>
        <time>2019-02-17T10:37:20.086Z</time>
      </trkpt>
      <trkpt lat="46.83554" lon="0.41614">
        <ele>114</ele>
        <time>2019-02-17T10:37:21.086Z</time>
      </trkpt>
      <trkpt lat="46.83554" lon="0.41609">
        <ele>114</ele>
        <time>2019-02-17T10:37:22.086Z</time>
      </trkpt>
      <trkpt lat="46.83554" lon="0.41605">
        <ele>114</ele>
        <time>2019-02-17T10:37:23.086Z</time>
      </trkpt>
      <trkpt lat="46.83554" lon="0.41601">
        <ele>111</ele>
        <time>2019-02-17T10:37:24.086Z</time>
      </trkpt>
      <trkpt lat="46.83555" lon="0.41596">
        <ele>111</ele>
        <time>2019-02-17T10:37:25.086Z</time>
      </trkpt>
      <trkpt lat="46.83555" lon="0.4159">
        <ele>112</ele>
        <time>2019-02-17T10:37:26.086Z</time>
      </trkpt>
      <trkpt lat="46.83555" lon="0.41586">
        <ele>111</ele>
        <time>2019-02-17T10:37:27.086Z</time>
      </trkpt>
      <trkpt lat="46.83556" lon="0.41581">
        <ele>111</ele>
        <time>2019-02-17T10:37:28.086Z</time>
      </trkpt>
      <trkpt lat="46.83557" lon="0.41577">
        <ele>113</ele>
        <time>2019-02-17T10:37:29.086Z</time>
      </trkpt>
      <trkpt lat="46.83558" lon="0.41572">
        <ele>115</ele>
        <time>2019-02-17T10:37:30.086Z</time>
      </trkpt>
      <trkpt lat="46.83559" lon="0.41568">
        <ele>116</ele>
        <time>2019-02-17T10:37:31.086Z</time>
      </trkpt>
      <trkpt lat="46.8356" lon="0.41564">
        <ele>116</ele>
        <time>2019-02-17T10:37:32.086Z</time>
      </trkpt>
      <trkpt lat="46.83561" lon="0.4156">
        <ele>117</ele>
        <time>2019-02-17T10:37:33.086Z</time>
      </trkpt>
      <trkpt lat="46.83561" lon="0.41557">
        <ele>118</ele>
        <time>2019-02-17T10:37:34.086Z</time>
      </trkpt>
      <trkpt lat="46.83561" lon="0.41552">
        <ele>119</ele>
        <time>2019-02-17T10:37:35.086Z</time>
      </trkpt>
      <trkpt lat="46.8356" lon="0.41548">
        <ele>118</ele>
        <time>2019-02-17T10:37:36.086Z</time>
      </trkpt>
      <trkpt lat="46.8356" lon="0.41542">
        <ele>118</ele>
        <time>2019-02-17T10:37:37.086Z</time>
      </trkpt>
      <trkpt lat="46.8356" lon="0.41537">
        <ele>117</ele>
        <time>2019-02-17T10:37:38.086Z</time>
      </trkpt>
      <trkpt lat="46.83561" lon="0.41532">
        <ele>117</ele>
        <time>2019-02-17T10:37:39.086Z</time>
      </trkpt>
      <trkpt lat="46.83561" lon="0.41527">
        <ele>116</ele>
        <time>2019-02-17T10:37:40.086Z</time>
      </trkpt>
      <trkpt lat="46.83561" lon="0.41523">
        <ele>115</ele>
        <time>2019-02-17T10:37:41.086Z</time>
      </trkpt>
      <trkpt lat="46.83561" lon="0.41518">
        <ele>114</ele>
        <time>2019-02-17T10:37:42.086Z</time>
      </trkpt>
      <trkpt lat="46.83562" lon="0.41512">
        <ele>114</ele>
        <time>2019-02-17T10:37:43.086Z</time>
      </trkpt>
      <trkpt lat="46.83562" lon="0.41507">
        <ele>113</ele>
        <time>2019-02-17T10:37:44.086Z</time>
      </trkpt>
      <trkpt lat="46.83561" lon="0.41503">
        <ele>113</ele>
        <time>2019-02-17T10:37:45.086Z</time>
      </trkpt>
      <trkpt lat="46.83561" lon="0.41498">
        <ele>115</ele>
        <time>2019-02-17T10:37:46.086Z</time>
      </trkpt>
      <trkpt lat="46.83561" lon="0.41492">
        <ele>117</ele>
        <time>2019-02-17T10:37:47.086Z</time>
      </trkpt>
      <trkpt lat="46.83561" lon="0.41487">
        <ele>119</ele>
        <time>2019-02-17T10:37:48.086Z</time>
      </trkpt>
      <trkpt lat="46.83561" lon="0.41482">
        <ele>120</ele>
        <time>2019-02-17T10:37:49.086Z</time>
      </trkpt>
      <trkpt lat="46.83561" lon="0.41477">
        <ele>121</ele>
        <time>2019-02-17T10:37:50.086Z</time>
      </trkpt>
      <trkpt lat="46.83561" lon="0.41473">
        <ele>121</ele>
        <time>2019-02-17T10:37:51.086Z</time>
      </trkpt>
      <trkpt lat="46.83562" lon="0.41469">
        <ele>122</ele>
        <time>2019-02-17T10:37:52.086Z</time>
      </trkpt>
      <trkpt lat="46.83562" lon="0.41465">
        <ele>124</ele>
        <time>2019-02-17T10:37:53.086Z</time>
      </trkpt>
      <trkpt lat="46.83563" lon="0.41461">
        <ele>125</ele>
        <time>2019-02-17T10:37:54.086Z</time>
      </trkpt>
      <trkpt lat="46.83564" lon="0.41456">
        <ele>125</ele>
        <time>2019-02-17T10:37:55.086Z</time>
      </trkpt>
      <trkpt lat="46.83565" lon="0.41453">
        <ele>125</ele>
        <time>2019-02-17T10:37:56.086Z</time>
      </trkpt>
      <trkpt lat="46.83567" lon="0.41449">
        <ele>126</ele>
        <time>2019-02-17T10:37:57.086Z</time>
      </trkpt>
      <trkpt lat="46.83568" lon="0.41446">
        <ele>125</ele>
        <time>2019-02-17T10:37:58.086Z</time>
      </trkpt>
      <trkpt lat="46.8357" lon="0.41444">
        <ele>128</ele>
        <time>2019-02-17T10:37:59.086Z</time>
      </trkpt>
      <trkpt lat="46.83572" lon="0.41443">
        <ele>128</ele>
        <time>2019-02-17T10:38:00.086Z</time>
      </trkpt>
      <trkpt lat="46.83573" lon="0.41442">
        <ele>129</ele>
        <time>2019-02-17T10:38:01.086Z</time>
      </trkpt>
      <trkpt lat="46.83575" lon="0.41441">
        <ele>129</ele>
        <time>2019-02-17T10:38:02.086Z</time>
      </trkpt>
      <trkpt lat="46.83577" lon="0.41441">
        <ele>131</ele>
        <time>2019-02-17T10:38:03.086Z</time>
      </trkpt>
      <trkpt lat="46.83578" lon="0.4144">
        <ele>131</ele>
        <time>2019-02-17T10:38:04.086Z</time>
      </trkpt>
      <trkpt lat="46.8358" lon="0.4144">
        <ele>131</ele>
        <time>2019-02-17T10:38:05.086Z</time>
      </trkpt>
      <trkpt lat="46.83582" lon="0.4144">
        <ele>133</ele>
        <time>2019-02-17T10:38:06.086Z</time>
      </trkpt>
      <trkpt lat="46.83585" lon="0.4144">
        <ele>133</ele>
        <time>2019-02-17T10:38:07.086Z</time>
      </trkpt>
      <trkpt lat="46.83587" lon="0.4144">
        <ele>134</ele>
        <time>2019-02-17T10:38:08.086Z</time>
      </trkpt>
      <trkpt lat="46.83589" lon="0.41439">
        <ele>136</ele>
        <time>2019-02-17T10:38:09.086Z</time>
      </trkpt>
      <trkpt lat="46.83591" lon="0.41438">
        <ele>138</ele>
        <time>2019-02-17T10:38:10.086Z</time>
      </trkpt>
      <trkpt lat="46.83594" lon="0.41438">
        <ele>140</ele>
        <time>2019-02-17T10:38:11.086Z</time>
      </trkpt>
      <trkpt lat="46.83596" lon="0.41438">
        <ele>141</ele>
        <time>2019-02-17T10:38:12.086Z</time>
      </trkpt>
      <trkpt lat="46.83598" lon="0.41438">
        <ele>141</ele>
        <time>2019-02-17T10:38:13.086Z</time>
      </trkpt>
      <trkpt lat="46.836" lon="0.41438">
        <ele>142</ele>
        <time>2019-02-17T10:38:14.086Z</time>
      </trkpt>
      <trkpt lat="46.83602" lon="0.41439">
        <ele>143</ele>
        <time>2019-02-17T10:38:15.086Z</time>
      </trkpt>
      <trkpt lat="46.83604" lon="0.41439">
        <ele>145</ele>
        <time>2019-02-17T10:38:16.086Z</time>
      </trkpt>
      <trkpt lat="46.83607" lon="0.41439">
        <ele>146</ele>
        <time>2019-02-17T10:38:17.086Z</time>
      </trkpt>
      <trkpt lat="46.83609" lon="0.41439">
        <ele>147</ele>
        <time>2019-02-17T10:38:18.086Z</time>
      </trkpt>
      <trkpt lat="46.83612" lon="0.41439">
        <ele>148</ele>
        <time>2019-02-17T10:38:19.086Z</time>
      </trkpt>
      <trkpt lat="46.83614" lon="0.41438">
        <ele>148</ele>
        <time>2019-02-17T10:38:20.086Z</time>
      </trkpt>
      <trkpt lat="46.83617" lon="0.41437">
        <ele>148</ele>
        <time>2019-02-17T10:38:21.086Z</time>
      </trkpt>
      <trkpt lat="46.83619" lon="0.41437">
        <ele>148</ele>
        <time>2019-02-17T10:38:22.086Z</time>
      </trkpt>
      <trkpt lat="46.83621" lon="0.41436">
        <ele>148</ele>
        <time>2019-02-17T10:38:23.086Z</time>
      </trkpt>
      <trkpt lat="46.83624" lon="0.41435">
        <ele>148</ele>
        <time>2019-02-17T10:38:24.086Z</time>
      </trkpt>
      <trkpt lat="46.83626" lon="0.41434">
        <ele>149</ele>
        <time>2019-02-17T10:38:25.086Z</time>
      </trkpt>
      <trkpt lat="46.83628" lon="0.41432">
        <ele>149</ele>
        <time>2019-02-17T10:38:26.086Z</time>
      </trkpt>
      <trkpt lat="46.8363" lon="0.4143">
        <ele>148</ele>
        <time>2019-02-17T10:38:27.086Z</time>
      </trkpt>
      <trkpt lat="46.83632" lon="0.41427">
        <ele>147</ele>
        <time>2019-02-17T10:38:28.086Z</time>
      </trkpt>
      <trkpt lat="46.83634" lon="0.41425">
        <ele>148</ele>
        <time>2019-02-17T10:38:29.086Z</time>
      </trkpt>
      <trkpt lat="46.83636" lon="0.41422">
        <ele>147</ele>
        <time>2019-02-17T10:38:30.086Z</time>
      </trkpt>
      <trkpt lat="46.83637" lon="0.41419">
        <ele>147</ele>
        <time>2019-02-17T10:38:31.086Z</time>
      </trkpt>
      <trkpt lat="46.83639" lon="0.41416">
        <ele>147</ele>
        <time>2019-02-17T10:38:32.086Z</time>
      </trkpt>
      <trkpt lat="46.83641" lon="0.41412">
        <ele>145</ele>
        <time>2019-02-17T10:38:33.086Z</time>
      </trkpt>
      <trkpt lat="46.83644" lon="0.41407">
        <ele>143</ele>
        <time>2019-02-17T10:38:34.086Z</time>
      </trkpt>
      <trkpt lat="46.83647" lon="0.41402">
        <ele>143</ele>
        <time>2019-02-17T10:38:35.086Z</time>
      </trkpt>
      <trkpt lat="46.8365" lon="0.41397">
        <ele>143</ele>
        <time>2019-02-17T10:38:36.086Z</time>
      </trkpt>
      <trkpt lat="46.83654" lon="0.41393">
        <ele>142</ele>
        <time>2019-02-17T10:38:37.086Z</time>
      </trkpt>
      <trkpt lat="46.83657" lon="0.41389">
        <ele>140</ele>
        <time>2019-02-17T10:38:38.086Z</time>
      </trkpt>
      <trkpt lat="46.8366" lon="0.41384">
        <ele>138</ele>
        <time>2019-02-17T10:38:39.086Z</time>
      </trkpt>
      <trkpt lat="46.83663" lon="0.41381">
        <ele>137</ele>
        <time>2019-02-17T10:38:40.086Z</time>
      </trkpt>
      <trkpt lat="46.83666" lon="0.41377">
        <ele>136</ele>
        <time>2019-02-17T10:38:41.086Z</time>
      </trkpt>
      <trkpt lat="46.83668" lon="0.41372">
        <ele>135</ele>
        <time>2019-02-17T10:38:42.086Z</time>
      </trkpt>
      <trkpt lat="46.8367" lon="0.41367">
        <ele>135</ele>
        <time>2019-02-17T10:38:43.086Z</time>
      </trkpt>
      <trkpt lat="46.83672" lon="0.41362">
        <ele>135</ele>
        <time>2019-02-17T10:38:44.086Z</time>
      </trkpt>
      <trkpt lat="46.83674" lon="0.41357">
        <ele>135</ele>
        <time>2019-02-17T10:38:45.086Z</time>
      </trkpt>
      <trkpt lat="46.83676" lon="0.4135">
        <ele>135</ele>
        <time>2019-02-17T10:38:46.086Z</time>
      </trkpt>
      <trkpt lat="46.83677" lon="0.41343">
        <ele>135</ele>
        <time>2019-02-17T10:38:47.086Z</time>
      </trkpt>
      <trkpt lat="46.83678" lon="0.41335">
        <ele>134</ele>
        <time>2019-02-17T10:38:48.086Z</time>
      </trkpt>
      <trkpt lat="46.8368" lon="0.41326">
        <ele>133</ele>
        <time>2019-02-17T10:38:49.086Z</time>
      </trkpt>
      <trkpt lat="46.83681" lon="0.41318">
        <ele>133</ele>
        <time>2019-02-17T10:38:50.086Z</time>
      </trkpt>
      <trkpt lat="46.83683" lon="0.4131">
        <ele>133</ele>
        <time>2019-02-17T10:38:51.086Z</time>
      </trkpt>
      <trkpt lat="46.83684" lon="0.41302">
        <ele>133</ele>
        <time>2019-02-17T10:38:52.086Z</time>
      </trkpt>
      <trkpt lat="46.83685" lon="0.41295">
        <ele>131</ele>
        <time>2019-02-17T10:38:53.086Z</time>
      </trkpt>
      <trkpt lat="46.83685" lon="0.41289">
        <ele>130</ele>
        <time>2019-02-17T10:38:54.086Z</time>
      </trkpt>
      <trkpt lat="46.83684" lon="0.41283">
        <ele>129</ele>
        <time>2019-02-17T10:38:55.086Z</time>
      </trkpt>
      <trkpt lat="46.8368" lon="0.41278">
        <ele>127</ele>
        <time>2019-02-17T10:38:56.086Z</time>
      </trkpt>
      <trkpt lat="46.83675" lon="0.41273">
        <ele>123</ele>
        <time>2019-02-17T10:38:57.086Z</time>
      </trkpt>
      <trkpt lat="46.8367" lon="0.41268">
        <ele>124</ele>
        <time>2019-02-17T10:38:58.086Z</time>
      </trkpt>
      <trkpt lat="46.83666" lon="0.41264">
        <ele>124</ele>
        <time>2019-02-17T10:38:59.086Z</time>
      </trkpt>
      <trkpt lat="46.83663" lon="0.4126">
        <ele>124</ele>
        <time>2019-02-17T10:39:00.086Z</time>
      </trkpt>
      <trkpt lat="46.8366" lon="0.41257">
        <ele>123</ele>
        <time>2019-02-17T10:39:01.086Z</time>
      </trkpt>
      <trkpt lat="46.83657" lon="0.41254">
        <ele>123</ele>
        <time>2019-02-17T10:39:02.086Z</time>
      </trkpt>
      <trkpt lat="46.83655" lon="0.41251">
        <ele>122</ele>
        <time>2019-02-17T10:39:03.086Z</time>
      </trkpt>
      <trkpt lat="46.83653" lon="0.41247">
        <ele>121</ele>
        <time>2019-02-17T10:39:04.086Z</time>
      </trkpt>
      <trkpt lat="46.83652" lon="0.41243">
        <ele>120</ele>
        <time>2019-02-17T10:39:05.086Z</time>
      </trkpt>
      <trkpt lat="46.83652" lon="0.41238">
        <ele>119</ele>
        <time>2019-02-17T10:39:06.086Z</time>
      </trkpt>
      <trkpt lat="46.83652" lon="0.41233">
        <ele>119</ele>
        <time>2019-02-17T10:39:07.086Z</time>
      </trkpt>
      <trkpt lat="46.83651" lon="0.41227">
        <ele>118</ele>
        <time>2019-02-17T10:39:08.086Z</time>
      </trkpt>
      <trkpt lat="46.83651" lon="0.41222">
        <ele>119</ele>
        <time>2019-02-17T10:39:09.086Z</time>
      </trkpt>
      <trkpt lat="46.8365" lon="0.41219">
        <ele>118</ele>
        <time>2019-02-17T10:39:10.086Z</time>
      </trkpt>
      <trkpt lat="46.83649" lon="0.41216">
        <ele>118</ele>
        <time>2019-02-17T10:39:11.086Z</time>
      </trkpt>
      <trkpt lat="46.83647" lon="0.41214">
        <ele>118</ele>
        <time>2019-02-17T10:39:12.086Z</time>
      </trkpt>
      <trkpt lat="46.83645" lon="0.4121">
        <ele>117</ele>
        <time>2019-02-17T10:39:13.086Z</time>
      </trkpt>
      <trkpt lat="46.83644" lon="0.41207">
        <ele>116</ele>
        <time>2019-02-17T10:39:14.086Z</time>
      </trkpt>
      <trkpt lat="46.83643" lon="0.41203">
        <ele>115</ele>
        <time>2019-02-17T10:39:15.086Z</time>
      </trkpt>
      <trkpt lat="46.83642" lon="0.41199">
        <ele>115</ele>
        <time>2019-02-17T10:39:16.086Z</time>
      </trkpt>
      <trkpt lat="46.83642" lon="0.41195">
        <ele>114</ele>
        <time>2019-02-17T10:39:17.086Z</time>
      </trkpt>
      <trkpt lat="46.83642" lon="0.41191">
        <ele>117</ele>
        <time>2019-02-17T10:39:18.086Z</time>
      </trkpt>
      <trkpt lat="46.83643" lon="0.41188">
        <ele>117</ele>
        <time>2019-02-17T10:39:19.086Z</time>
      </trkpt>
      <trkpt lat="46.83644" lon="0.41184">
        <ele>117</ele>
        <time>2019-02-17T10:39:20.086Z</time>
      </trkpt>
      <trkpt lat="46.83645" lon="0.41181">
        <ele>118</ele>
        <time>2019-02-17T10:39:21.086Z</time>
      </trkpt>
      <trkpt lat="46.83646" lon="0.41177">
        <ele>120</ele>
        <time>2019-02-17T10:39:22.086Z</time>
      </trkpt>
      <trkpt lat="46.83648" lon="0.41175">
        <ele>118</ele>
        <time>2019-02-17T10:39:23.086Z</time>
      </trkpt>
      <trkpt lat="46.83651" lon="0.41173">
        <ele>122</ele>
        <time>2019-02-17T10:39:24.086Z</time>
      </trkpt>
      <trkpt lat="46.83653" lon="0.41172">
        <ele>122</ele>
        <time>2019-02-17T10:39:25.086Z</time>
      </trkpt>
      <trkpt lat="46.83655" lon="0.4117">
        <ele>121</ele>
        <time>2019-02-17T10:39:26.086Z</time>
      </trkpt>
      <trkpt lat="46.83656" lon="0.41168">
        <ele>123</ele>
        <time>2019-02-17T10:39:27.086Z</time>
      </trkpt>
      <trkpt lat="46.83657" lon="0.41166">
        <ele>123</ele>
        <time>2019-02-17T10:39:28.086Z</time>
      </trkpt>
      <trkpt lat="46.83658" lon="0.41164">
        <ele>124</ele>
        <time>2019-02-17T10:39:29.086Z</time>
      </trkpt>
      <trkpt lat="46.8366" lon="0.41162">
        <ele>124</ele>
        <time>2019-02-17T10:39:30.086Z</time>
      </trkpt>
      <trkpt lat="46.8366" lon="0.41161">
        <ele>124</ele>
        <time>2019-02-17T10:39:31.086Z</time>
      </trkpt>
      <trkpt lat="46.8366" lon="0.4116">
        <ele>124</ele>
        <time>2019-02-17T10:39:32.086Z</time>
      </trkpt>
      <trkpt lat="46.8366" lon="0.41159">
        <ele>124</ele>
        <time>2019-02-17T10:39:33.086Z</time>
      </trkpt>
      <trkpt lat="46.83661" lon="0.41157">
        <ele>125</ele>
        <time>2019-02-17T10:39:34.086Z</time>
      </trkpt>
      <trkpt lat="46.83661" lon="0.41155">
        <ele>129</ele>
        <time>2019-02-17T10:39:35.086Z</time>
      </trkpt>
      <trkpt lat="46.83661" lon="0.41153">
        <ele>130</ele>
        <time>2019-02-17T10:39:36.086Z</time>
      </trkpt>
      <trkpt lat="46.83661" lon="0.4115">
        <ele>130</ele>
        <time>2019-02-17T10:39:37.086Z</time>
      </trkpt>
      <trkpt lat="46.83661" lon="0.41148">
        <ele>130</ele>
        <time>2019-02-17T10:39:38.086Z</time>
      </trkpt>
      <trkpt lat="46.83661" lon="0.41146">
        <ele>130</ele>
        <time>2019-02-17T10:39:39.086Z</time>
      </trkpt>
      <trkpt lat="46.83661" lon="0.41145">
        <ele>130</ele>
        <time>2019-02-17T10:39:40.086Z</time>
      </trkpt>
      <trkpt lat="46.83661" lon="0.41144">
        <ele>131</ele>
        <time>2019-02-17T10:39:41.086Z</time>
      </trkpt>
      <trkpt lat="46.83661" lon="0.41143">
        <ele>131</ele>
        <time>2019-02-17T10:39:42.086Z</time>
      </trkpt>
      <trkpt lat="46.8366" lon="0.41142">
        <ele>131</ele>
        <time>2019-02-17T10:39:43.086Z</time>
      </trkpt>
      <trkpt lat="46.8366" lon="0.41141">
        <ele>131</ele>
        <time>2019-02-17T10:39:44.086Z</time>
      </trkpt>
      <trkpt lat="46.83659" lon="0.41141">
        <ele>132</ele>
        <time>2019-02-17T10:39:45.086Z</time>
      </trkpt>
      <trkpt lat="46.83658" lon="0.41141">
        <ele>132</ele>
        <time>2019-02-17T10:39:46.086Z</time>
      </trkpt>
      <trkpt lat="46.83657" lon="0.41141">
        <ele>132</ele>
        <time>2019-02-17T10:39:47.086Z</time>
      </trkpt>
      <trkpt lat="46.83656" lon="0.41142">
        <ele>132</ele>
        <time>2019-02-17T10:39:48.086Z</time>
      </trkpt>
      <trkpt lat="46.83655" lon="0.41143">
        <ele>131</ele>
        <time>2019-02-17T10:39:49.086Z</time>
      </trkpt>
      <trkpt lat="46.83654" lon="0.41144">
        <ele>129</ele>
        <time>2019-02-17T10:39:50.086Z</time>
      </trkpt>
      <trkpt lat="46.83652" lon="0.41146">
        <ele>129</ele>
        <time>2019-02-17T10:39:51.086Z</time>
      </trkpt>
      <trkpt lat="46.8365" lon="0.41147">
        <ele>128</ele>
        <time>2019-02-17T10:39:52.086Z</time>
      </trkpt>
      <trkpt lat="46.83648" lon="0.41149">
        <ele>128</ele>
        <time>2019-02-17T10:39:53.086Z</time>
      </trkpt>
      <trkpt lat="46.83646" lon="0.4115">
        <ele>128</ele>
        <time>2019-02-17T10:39:54.086Z</time>
      </trkpt>
      <trkpt lat="46.83644" lon="0.41151">
        <ele>128</ele>
        <time>2019-02-17T10:39:55.086Z</time>
      </trkpt>
      <trkpt lat="46.83641" lon="0.41151">
        <ele>127</ele>
        <time>2019-02-17T10:39:56.086Z</time>
      </trkpt>
      <trkpt lat="46.83639" lon="0.41152">
        <ele>126</ele>
        <time>2019-02-17T10:39:57.086Z</time>
      </trkpt>
      <trkpt lat="46.83636" lon="0.41153">
        <ele>124</ele>
        <time>2019-02-17T10:39:58.086Z</time>
      </trkpt>
      <trkpt lat="46.83634" lon="0.41154">
        <ele>125</ele>
        <time>2019-02-17T10:39:59.086Z</time>
      </trkpt>
      <trkpt lat="46.83631" lon="0.41155">
        <ele>124</ele>
        <time>2019-02-17T10:40:00.086Z</time>
      </trkpt>
      <trkpt lat="46.83629" lon="0.41156">
        <ele>122</ele>
        <time>2019-02-17T10:40:01.086Z</time>
      </trkpt>
      <trkpt lat="46.83627" lon="0.41158">
        <ele>121</ele>
        <time>2019-02-17T10:40:02.086Z</time>
      </trkpt>
      <trkpt lat="46.83625" lon="0.4116">
        <ele>121</ele>
        <time>2019-02-17T10:40:03.086Z</time>
      </trkpt>
      <trkpt lat="46.83623" lon="0.4116">
        <ele>121</ele>
        <time>2019-02-17T10:40:04.086Z</time>
      </trkpt>
      <trkpt lat="46.83621" lon="0.4116">
        <ele>123</ele>
        <time>2019-02-17T10:40:05.086Z</time>
      </trkpt>
      <trkpt lat="46.83619" lon="0.41159">
        <ele>124</ele>
        <time>2019-02-17T10:40:06.086Z</time>
      </trkpt>
      <trkpt lat="46.83616" lon="0.41157">
        <ele>123</ele>
        <time>2019-02-17T10:40:07.086Z</time>
      </trkpt>
      <trkpt lat="46.83614" lon="0.41156">
        <ele>122</ele>
        <time>2019-02-17T10:40:08.086Z</time>
      </trkpt>
      <trkpt lat="46.83611" lon="0.41156">
        <ele>120</ele>
        <time>2019-02-17T10:40:09.086Z</time>
      </trkpt>
      <trkpt lat="46.83607" lon="0.41156">
        <ele>119</ele>
        <time>2019-02-17T10:40:10.086Z</time>
      </trkpt>
      <trkpt lat="46.83604" lon="0.41157">
        <ele>118</ele>
        <time>2019-02-17T10:40:11.086Z</time>
      </trkpt>
      <trkpt lat="46.83602" lon="0.41158">
        <ele>117</ele>
        <time>2019-02-17T10:40:12.086Z</time>
      </trkpt>
      <trkpt lat="46.83599" lon="0.4116">
        <ele>116</ele>
        <time>2019-02-17T10:40:13.086Z</time>
      </trkpt>
      <trkpt lat="46.83597" lon="0.41159">
        <ele>118</ele>
        <time>2019-02-17T10:40:14.086Z</time>
      </trkpt>
      <trkpt lat="46.83594" lon="0.41158">
        <ele>117</ele>
        <time>2019-02-17T10:40:15.086Z</time>
      </trkpt>
      <trkpt lat="46.83591" lon="0.41156">
        <ele>118</ele>
        <time>2019-02-17T10:40:16.086Z</time>
      </trkpt>
      <trkpt lat="46.83588" lon="0.41154">
        <ele>116</ele>
        <time>2019-02-17T10:40:17.086Z</time>
      </trkpt>
      <trkpt lat="46.83583" lon="0.41152">
        <ele>116</ele>
        <time>2019-02-17T10:40:18.086Z</time>
      </trkpt>
      <trkpt lat="46.83579" lon="0.4115">
        <ele>117</ele>
        <time>2019-02-17T10:40:19.086Z</time>
      </trkpt>
      <trkpt lat="46.83576" lon="0.41149">
        <ele>118</ele>
        <time>2019-02-17T10:40:20.086Z</time>
      </trkpt>
      <trkpt lat="46.83573" lon="0.41145">
        <ele>119</ele>
        <time>2019-02-17T10:40:21.086Z</time>
      </trkpt>
      <trkpt lat="46.8357" lon="0.41142">
        <ele>118</ele>
        <time>2019-02-17T10:40:22.086Z</time>
      </trkpt>
      <trkpt lat="46.83568" lon="0.41136">
        <ele>116</ele>
        <time>2019-02-17T10:40:23.086Z</time>
      </trkpt>
      <trkpt lat="46.83567" lon="0.41132">
        <ele>117</ele>
        <time>2019-02-17T10:40:24.086Z</time>
      </trkpt>
      <trkpt lat="46.83565" lon="0.41127">
        <ele>118</ele>
        <time>2019-02-17T10:40:25.086Z</time>
      </trkpt>
      <trkpt lat="46.83564" lon="0.41124">
        <ele>119</ele>
        <time>2019-02-17T10:40:26.086Z</time>
      </trkpt>
      <trkpt lat="46.83563" lon="0.4112">
        <ele>119</ele>
        <time>2019-02-17T10:40:27.086Z</time>
      </trkpt>
      <trkpt lat="46.83562" lon="0.41117">
        <ele>118</ele>
        <time>2019-02-17T10:40:28.086Z</time>
      </trkpt>
      <trkpt lat="46.83561" lon="0.41114">
        <ele>119</ele>
        <time>2019-02-17T10:40:29.086Z</time>
      </trkpt>
      <trkpt lat="46.8356" lon="0.41111">
        <ele>119</ele>
        <time>2019-02-17T10:40:30.086Z</time>
      </trkpt>
      <trkpt lat="46.83559" lon="0.41109">
        <ele>119</ele>
        <time>2019-02-17T10:40:31.086Z</time>
      </trkpt>
      <trkpt lat="46.83558" lon="0.41106">
        <ele>119</ele>
        <time>2019-02-17T10:40:32.086Z</time>
      </trkpt>
      <trkpt lat="46.83558" lon="0.41104">
        <ele>119</ele>
        <time>2019-02-17T10:40:33.086Z</time>
      </trkpt>
      <trkpt lat="46.83557" lon="0.41102">
        <ele>120</ele>
        <time>2019-02-17T10:40:34.086Z</time>
      </trkpt>
      <trkpt lat="46.83558" lon="0.41099">
        <ele>123</ele>
        <time>2019-02-17T10:40:35.086Z</time>
      </trkpt>
      <trkpt lat="46.83558" lon="0.41097">
        <ele>124</ele>
        <time>2019-02-17T10:40:36.086Z</time>
      </trkpt>
      <trkpt lat="46.83559" lon="0.41095">
        <ele>124</ele>
        <time>2019-02-17T10:40:37.086Z</time>
      </trkpt>
      <trkpt lat="46.83559" lon="0.41093">
        <ele>123</ele>
        <time>2019-02-17T10:40:38.086Z</time>
      </trkpt>
      <trkpt lat="46.83559" lon="0.41092">
        <ele>124</ele>
        <time>2019-02-17T10:40:39.086Z</time>
      </trkpt>
      <trkpt lat="46.83559" lon="0.41091">
        <ele>124</ele>
        <time>2019-02-17T10:40:40.086Z</time>
      </trkpt>
      <trkpt lat="46.83559" lon="0.41091">
        <ele>126</ele>
        <time>2019-02-17T10:40:41.086Z</time>
      </trkpt>
      <trkpt lat="46.83559" lon="0.4109">
        <ele>127</ele>
        <time>2019-02-17T10:40:42.086Z</time>
      </trkpt>
      <trkpt lat="46.83558" lon="0.41089">
        <ele>127</ele>
        <time>2019-02-17T10:40:43.086Z</time>
      </trkpt>
      <trkpt lat="46.83558" lon="0.41088">
        <ele>128</ele>
        <time>2019-02-17T10:40:44.086Z</time>
      </trkpt>
      <trkpt lat="46.83557" lon="0.41087">
        <ele>129</ele>
        <time>2019-02-17T10:40:45.086Z</time>
      </trkpt>
      <trkpt lat="46.83556" lon="0.41086">
        <ele>129</ele>
        <time>2019-02-17T10:40:46.086Z</time>
      </trkpt>
      <trkpt lat="46.83555" lon="0.41085">
        <ele>129</ele>
        <time>2019-02-17T10:40:47.086Z</time>
      </trkpt>
      <trkpt lat="46.83554" lon="0.41084">
        <ele>128</ele>
        <time>2019-02-17T10:40:48.086Z</time>
      </trkpt>
      <trkpt lat="46.83553" lon="0.41082">
        <ele>128</ele>
        <time>2019-02-17T10:40:49.086Z</time>
      </trkpt>
      <trkpt lat="46.83552" lon="0.41079">
        <ele>128</ele>
        <time>2019-02-17T10:40:50.086Z</time>
      </trkpt>
      <trkpt lat="46.83551" lon="0.41075">
        <ele>127</ele>
        <time>2019-02-17T10:40:51.086Z</time>
      </trkpt>
      <trkpt lat="46.8355" lon="0.41071">
        <ele>127</ele>
        <time>2019-02-17T10:40:52.086Z</time>
      </trkpt>
      <trkpt lat="46.83549" lon="0.41068">
        <ele>126</ele>
        <time>2019-02-17T10:40:53.086Z</time>
      </trkpt>
      <trkpt lat="46.83548" lon="0.41065">
        <ele>126</ele>
        <time>2019-02-17T10:40:54.086Z</time>
      </trkpt>
      <trkpt lat="46.83546" lon="0.41061">
        <ele>126</ele>
        <time>2019-02-17T10:40:55.086Z</time>
      </trkpt>
      <trkpt lat="46.83545" lon="0.41058">
        <ele>126</ele>
        <time>2019-02-17T10:40:56.086Z</time>
      </trkpt>
      <trkpt lat="46.83544" lon="0.41054">
        <ele>126</ele>
        <time>2019-02-17T10:40:57.086Z</time>
      </trkpt>
      <trkpt lat="46.83544" lon="0.41051">
        <ele>126</ele>
        <time>2019-02-17T10:40:58.086Z</time>
      </trkpt>
      <trkpt lat="46.83543" lon="0.41048">
        <ele>126</ele>
        <time>2019-02-17T10:40:59.086Z</time>
      </trkpt>
      <trkpt lat="46.83541" lon="0.41044">
        <ele>125</ele>
        <time>2019-02-17T10:41:00.086Z</time>
      </trkpt>
      <trkpt lat="46.83538" lon="0.41041">
        <ele>125</ele>
        <time>2019-02-17T10:41:01.086Z</time>
      </trkpt>
      <trkpt lat="46.83536" lon="0.41037">
        <ele>124</ele>
        <time>2019-02-17T10:41:02.086Z</time>
      </trkpt>
      <trkpt lat="46.83534" lon="0.41033">
        <ele>125</ele>
        <time>2019-02-17T10:41:03.086Z</time>
      </trkpt>
      <trkpt lat="46.83532" lon="0.4103">
        <ele>124</ele>
        <time>2019-02-17T10:41:04.086Z</time>
      </trkpt>
      <trkpt lat="46.8353" lon="0.41027">
        <ele>124</ele>
        <time>2019-02-17T10:41:05.086Z</time>
      </trkpt>
      <trkpt lat="46.83528" lon="0.41024">
        <ele>123</ele>
        <time>2019-02-17T10:41:06.086Z</time>
      </trkpt>
      <trkpt lat="46.83527" lon="0.4102">
        <ele>122</ele>
        <time>2019-02-17T10:41:07.086Z</time>
      </trkpt>
      <trkpt lat="46.83525" lon="0.41017">
        <ele>121</ele>
        <time>2019-02-17T10:41:08.086Z</time>
      </trkpt>
      <trkpt lat="46.83524" lon="0.41014">
        <ele>120</ele>
        <time>2019-02-17T10:41:09.086Z</time>
      </trkpt>
      <trkpt lat="46.83523" lon="0.41011">
        <ele>119</ele>
        <time>2019-02-17T10:41:10.086Z</time>
      </trkpt>
      <trkpt lat="46.83522" lon="0.41008">
        <ele>120</ele>
        <time>2019-02-17T10:41:11.086Z</time>
      </trkpt>
      <trkpt lat="46.8352" lon="0.41004">
        <ele>119</ele>
        <time>2019-02-17T10:41:12.086Z</time>
      </trkpt>
      <trkpt lat="46.83519" lon="0.41001">
        <ele>118</ele>
        <time>2019-02-17T10:41:13.086Z</time>
      </trkpt>
      <trkpt lat="46.83518" lon="0.40998">
        <ele>118</ele>
        <time>2019-02-17T10:41:14.086Z</time>
      </trkpt>
      <trkpt lat="46.83516" lon="0.40994">
        <ele>116</ele>
        <time>2019-02-17T10:41:15.086Z</time>
      </trkpt>
      <trkpt lat="46.83513" lon="0.40991">
        <ele>116</ele>
        <time>2019-02-17T10:41:16.086Z</time>
      </trkpt>
      <trkpt lat="46.83512" lon="0.40987">
        <ele>116</ele>
        <time>2019-02-17T10:41:17.086Z</time>
      </trkpt>
      <trkpt lat="46.8351" lon="0.40982">
        <ele>114</ele>
        <time>2019-02-17T10:41:18.086Z</time>
      </trkpt>
      <trkpt lat="46.8351" lon="0.40978">
        <ele>112</ele>
        <time>2019-02-17T10:41:19.086Z</time>
      </trkpt>
      <trkpt lat="46.83509" lon="0.40973">
        <ele>111</ele>
        <time>2019-02-17T10:41:20.086Z</time>
      </trkpt>
      <trkpt lat="46.83508" lon="0.40969">
        <ele>110</ele>
        <time>2019-02-17T10:41:21.086Z</time>
      </trkpt>
      <trkpt lat="46.83508" lon="0.40964">
        <ele>110</ele>
        <time>2019-02-17T10:41:22.086Z</time>
      </trkpt>
      <trkpt lat="46.83507" lon="0.40959">
        <ele>110</ele>
        <time>2019-02-17T10:41:23.086Z</time>
      </trkpt>
      <trkpt lat="46.83507" lon="0.40956">
        <ele>110</ele>
        <time>2019-02-17T10:41:24.086Z</time>
      </trkpt>
      <trkpt lat="46.83506" lon="0.40952">
        <ele>109</ele>
        <time>2019-02-17T10:41:25.086Z</time>
      </trkpt>
      <trkpt lat="46.83505" lon="0.40948">
        <ele>109</ele>
        <time>2019-02-17T10:41:26.086Z</time>
      </trkpt>
      <trkpt lat="46.83505" lon="0.40943">
        <ele>110</ele>
        <time>2019-02-17T10:41:27.086Z</time>
      </trkpt>
      <trkpt lat="46.83505" lon="0.40939">
        <ele>112</ele>
        <time>2019-02-17T10:41:28.086Z</time>
      </trkpt>
      <trkpt lat="46.83505" lon="0.40936">
        <ele>112</ele>
        <time>2019-02-17T10:41:29.086Z</time>
      </trkpt>
      <trkpt lat="46.83506" lon="0.40932">
        <ele>112</ele>
        <time>2019-02-17T10:41:30.086Z</time>
      </trkpt>
      <trkpt lat="46.83507" lon="0.40929">
        <ele>113</ele>
        <time>2019-02-17T10:41:31.086Z</time>
      </trkpt>
      <trkpt lat="46.83507" lon="0.40926">
        <ele>113</ele>
        <time>2019-02-17T10:41:32.086Z</time>
      </trkpt>
      <trkpt lat="46.83507" lon="0.40922">
        <ele>115</ele>
        <time>2019-02-17T10:41:33.086Z</time>
      </trkpt>
      <trkpt lat="46.83507" lon="0.40919">
        <ele>116</ele>
        <time>2019-02-17T10:41:34.086Z</time>
      </trkpt>
      <trkpt lat="46.83507" lon="0.40916">
        <ele>116</ele>
        <time>2019-02-17T10:41:35.086Z</time>
      </trkpt>
      <trkpt lat="46.83506" lon="0.40913">
        <ele>116</ele>
        <time>2019-02-17T10:41:36.086Z</time>
      </trkpt>
      <trkpt lat="46.83505" lon="0.4091">
        <ele>117</ele>
        <time>2019-02-17T10:41:37.086Z</time>
      </trkpt>
      <trkpt lat="46.83504" lon="0.40906">
        <ele>118</ele>
        <time>2019-02-17T10:41:38.086Z</time>
      </trkpt>
      <trkpt lat="46.83503" lon="0.40901">
        <ele>117</ele>
        <time>2019-02-17T10:41:39.086Z</time>
      </trkpt>
      <trkpt lat="46.83502" lon="0.40898">
        <ele>117</ele>
        <time>2019-02-17T10:41:40.086Z</time>
      </trkpt>
      <trkpt lat="46.83502" lon="0.40894">
        <ele>116</ele>
        <time>2019-02-17T10:41:41.086Z</time>
      </trkpt>
      <trkpt lat="46.83501" lon="0.40891">
        <ele>116</ele>
        <time>2019-02-17T10:41:42.086Z</time>
      </trkpt>
      <trkpt lat="46.835" lon="0.40888">
        <ele>116</ele>
        <time>2019-02-17T10:41:43.086Z</time>
      </trkpt>
      <trkpt lat="46.83499" lon="0.40885">
        <ele>117</ele>
        <time>2019-02-17T10:41:44.086Z</time>
      </trkpt>
      <trkpt lat="46.83498" lon="0.40882">
        <ele>116</ele>
        <time>2019-02-17T10:41:45.086Z</time>
      </trkpt>
      <trkpt lat="46.83497" lon="0.40879">
        <ele>116</ele>
        <time>2019-02-17T10:41:46.086Z</time>
      </trkpt>
      <trkpt lat="46.83495" lon="0.40877">
        <ele>115</ele>
        <time>2019-02-17T10:41:47.086Z</time>
      </trkpt>
      <trkpt lat="46.83492" lon="0.40874">
        <ele>113</ele>
        <time>2019-02-17T10:41:48.086Z</time>
      </trkpt>
      <trkpt lat="46.83489" lon="0.40871">
        <ele>112</ele>
        <time>2019-02-17T10:41:49.086Z</time>
      </trkpt>
      <trkpt lat="46.83485" lon="0.40868">
        <ele>111</ele>
        <time>2019-02-17T10:41:50.086Z</time>
      </trkpt>
      <trkpt lat="46.83482" lon="0.40865">
        <ele>111</ele>
        <time>2019-02-17T10:41:51.086Z</time>
      </trkpt>
      <trkpt lat="46.83479" lon="0.40862">
        <ele>112</ele>
        <time>2019-02-17T10:41:52.086Z</time>
      </trkpt>
      <trkpt lat="46.83477" lon="0.4086">
        <ele>113</ele>
        <time>2019-02-17T10:41:53.086Z</time>
      </trkpt>
      <trkpt lat="46.83474" lon="0.40857">
        <ele>112</ele>
        <time>2019-02-17T10:41:54.086Z</time>
      </trkpt>
      <trkpt lat="46.83471" lon="0.40855">
        <ele>112</ele>
        <time>2019-02-17T10:41:55.086Z</time>
      </trkpt>
      <trkpt lat="46.83468" lon="0.40853">
        <ele>111</ele>
        <time>2019-02-17T10:41:56.086Z</time>
      </trkpt>
      <trkpt lat="46.83465" lon="0.40851">
        <ele>110</ele>
        <time>2019-02-17T10:41:57.086Z</time>
      </trkpt>
      <trkpt lat="46.83463" lon="0.4085">
        <ele>108</ele>
        <time>2019-02-17T10:41:58.086Z</time>
      </trkpt>
      <trkpt lat="46.8346" lon="0.40849">
        <ele>107</ele>
        <time>2019-02-17T10:41:59.086Z</time>
      </trkpt>
      <trkpt lat="46.83457" lon="0.40849">
        <ele>108</ele>
        <time>2019-02-17T10:42:00.086Z</time>
      </trkpt>
      <trkpt lat="46.83455" lon="0.40849">
        <ele>108</ele>
        <time>2019-02-17T10:42:01.086Z</time>
      </trkpt>
      <trkpt lat="46.83452" lon="0.40849">
        <ele>108</ele>
        <time>2019-02-17T10:42:02.086Z</time>
      </trkpt>
      <trkpt lat="46.83449" lon="0.40848">
        <ele>109</ele>
        <time>2019-02-17T10:42:03.086Z</time>
      </trkpt>
      <trkpt lat="46.83447" lon="0.40847">
        <ele>110</ele>
        <time>2019-02-17T10:42:04.086Z</time>
      </trkpt>
      <trkpt lat="46.83444" lon="0.40846">
        <ele>110</ele>
        <time>2019-02-17T10:42:05.086Z</time>
      </trkpt>
      <trkpt lat="46.83442" lon="0.40846">
        <ele>110</ele>
        <time>2019-02-17T10:42:06.086Z</time>
      </trkpt>
      <trkpt lat="46.8344" lon="0.40846">
        <ele>112</ele>
        <time>2019-02-17T10:42:07.086Z</time>
      </trkpt>
      <trkpt lat="46.83438" lon="0.40846">
        <ele>113</ele>
        <time>2019-02-17T10:42:08.086Z</time>
      </trkpt>
      <trkpt lat="46.83437" lon="0.40846">
        <ele>114</ele>
        <time>2019-02-17T10:42:09.086Z</time>
      </trkpt>
      <trkpt lat="46.83435" lon="0.40846">
        <ele>116</ele>
        <time>2019-02-17T10:42:10.086Z</time>
      </trkpt>
      <trkpt lat="46.83433" lon="0.40846">
        <ele>117</ele>
        <time>2019-02-17T10:42:11.086Z</time>
      </trkpt>
      <trkpt lat="46.83431" lon="0.40847">
        <ele>118</ele>
        <time>2019-02-17T10:42:12.086Z</time>
      </trkpt>
      <trkpt lat="46.83429" lon="0.40847">
        <ele>119</ele>
        <time>2019-02-17T10:42:13.086Z</time>
      </trkpt>
      <trkpt lat="46.83427" lon="0.40846">
        <ele>120</ele>
        <time>2019-02-17T10:42:14.086Z</time>
      </trkpt>
      <trkpt lat="46.83424" lon="0.40846">
        <ele>121</ele>
        <time>2019-02-17T10:42:15.086Z</time>
      </trkpt>
      <trkpt lat="46.83422" lon="0.40845">
        <ele>123</ele>
        <time>2019-02-17T10:42:16.086Z</time>
      </trkpt>
      <trkpt lat="46.8342" lon="0.40845">
        <ele>123</ele>
        <time>2019-02-17T10:42:17.086Z</time>
      </trkpt>
      <trkpt lat="46.83417" lon="0.40846">
        <ele>124</ele>
        <time>2019-02-17T10:42:18.086Z</time>
      </trkpt>
      <trkpt lat="46.83415" lon="0.40847">
        <ele>125</ele>
        <time>2019-02-17T10:42:19.086Z</time>
      </trkpt>
      <trkpt lat="46.83413" lon="0.40847">
        <ele>125</ele>
        <time>2019-02-17T10:42:20.086Z</time>
      </trkpt>
      <trkpt lat="46.83411" lon="0.40848">
        <ele>124</ele>
        <time>2019-02-17T10:42:21.086Z</time>
      </trkpt>
      <trkpt lat="46.83408" lon="0.40848">
        <ele>125</ele>
        <time>2019-02-17T10:42:22.086Z</time>
      </trkpt>
      <trkpt lat="46.83406" lon="0.40848">
        <ele>125</ele>
        <time>2019-02-17T10:42:23.086Z</time>
      </trkpt>
      <trkpt lat="46.83403" lon="0.40848">
        <ele>125</ele>
        <time>2019-02-17T10:42:24.086Z</time>
      </trkpt>
      <trkpt lat="46.83402" lon="0.40847">
        <ele>125</ele>
        <time>2019-02-17T10:42:25.086Z</time>
      </trkpt>
      <trkpt lat="46.834" lon="0.40845">
        <ele>125</ele>
        <time>2019-02-17T10:42:26.086Z</time>
      </trkpt>
      <trkpt lat="46.83398" lon="0.40844">
        <ele>126</ele>
        <time>2019-02-17T10:42:27.086Z</time>
      </trkpt>
      <trkpt lat="46.83396" lon="0.40844">
        <ele>126</ele>
        <time>2019-02-17T10:42:28.086Z</time>
      </trkpt>
      <trkpt lat="46.83395" lon="0.40844">
        <ele>126</ele>
        <time>2019-02-17T10:42:29.086Z</time>
      </trkpt>
      <trkpt lat="46.83393" lon="0.40844">
        <ele>127</ele>
        <time>2019-02-17T10:42:30.086Z</time>
      </trkpt>
      <trkpt lat="46.83392" lon="0.40846">
        <ele>128</ele>
        <time>2019-02-17T10:42:31.086Z</time>
      </trkpt>
      <trkpt lat="46.8339" lon="0.40847">
        <ele>129</ele>
        <time>2019-02-17T10:42:32.086Z</time>
      </trkpt>
      <trkpt lat="46.83388" lon="0.40848">
        <ele>129</ele>
        <time>2019-02-17T10:42:33.086Z</time>
      </trkpt>
      <trkpt lat="46.83386" lon="0.40849">
        <ele>130</ele>
        <time>2019-02-17T10:42:34.086Z</time>
      </trkpt>
      <trkpt lat="46.83384" lon="0.4085">
        <ele>131</ele>
        <time>2019-02-17T10:42:35.086Z</time>
      </trkpt>
      <trkpt lat="46.83383" lon="0.40851">
        <ele>130</ele>
        <time>2019-02-17T10:42:36.086Z</time>
      </trkpt>
      <trkpt lat="46.83381" lon="0.40851">
        <ele>131</ele>
        <time>2019-02-17T10:42:37.086Z</time>
      </trkpt>
      <trkpt lat="46.83379" lon="0.40852">
        <ele>131</ele>
        <time>2019-02-17T10:42:38.086Z</time>
      </trkpt>
      <trkpt lat="46.83378" lon="0.40852">
        <ele>132</ele>
        <time>2019-02-17T10:42:39.086Z</time>
      </trkpt>
      <trkpt lat="46.83376" lon="0.40853">
        <ele>133</ele>
        <time>2019-02-17T10:42:40.086Z</time>
      </trkpt>
      <trkpt lat="46.83374" lon="0.40855">
        <ele>135</ele>
        <time>2019-02-17T10:42:41.086Z</time>
      </trkpt>
      <trkpt lat="46.83373" lon="0.40858">
        <ele>136</ele>
        <time>2019-02-17T10:42:42.086Z</time>
      </trkpt>
      <trkpt lat="46.83371" lon="0.4086">
        <ele>137</ele>
        <time>2019-02-17T10:42:43.086Z</time>
      </trkpt>
      <trkpt lat="46.8337" lon="0.40862">
        <ele>138</ele>
        <time>2019-02-17T10:42:44.086Z</time>
      </trkpt>
      <trkpt lat="46.83368" lon="0.40865">
        <ele>140</ele>
        <time>2019-02-17T10:42:45.086Z</time>
      </trkpt>
      <trkpt lat="46.83367" lon="0.40868">
        <ele>142</ele>
        <time>2019-02-17T10:42:46.086Z</time>
      </trkpt>
      <trkpt lat="46.83365" lon="0.4087">
        <ele>143</ele>
        <time>2019-02-17T10:42:47.086Z</time>
      </trkpt>
      <trkpt lat="46.83364" lon="0.40873">
        <ele>144</ele>
        <time>2019-02-17T10:42:48.086Z</time>
      </trkpt>
      <trkpt lat="46.83362" lon="0.40874">
        <ele>145</ele>
        <time>2019-02-17T10:42:49.086Z</time>
      </trkpt>
      <trkpt lat="46.83361" lon="0.40876">
        <ele>146</ele>
        <time>2019-02-17T10:42:50.086Z</time>
      </trkpt>
      <trkpt lat="46.83359" lon="0.40877">
        <ele>146</ele>
        <time>2019-02-17T10:42:51.086Z</time>
      </trkpt>
      <trkpt lat="46.83358" lon="0.40879">
        <ele>147</ele>
        <time>2019-02-17T10:42:52.086Z</time>
      </trkpt>
      <trkpt lat="46.83356" lon="0.4088">
        <ele>146</ele>
        <time>2019-02-17T10:42:53.086Z</time>
      </trkpt>
      <trkpt lat="46.83355" lon="0.40882">
        <ele>146</ele>
        <time>2019-02-17T10:42:54.086Z</time>
      </trkpt>
      <trkpt lat="46.83354" lon="0.40883">
        <ele>146</ele>
        <time>2019-02-17T10:42:55.086Z</time>
      </trkpt>
      <trkpt lat="46.83352" lon="0.40885">
        <ele>147</ele>
        <time>2019-02-17T10:42:56.086Z</time>
      </trkpt>
      <trkpt lat="46.83351" lon="0.40887">
        <ele>148</ele>
        <time>2019-02-17T10:42:57.086Z</time>
      </trkpt>
      <trkpt lat="46.8335" lon="0.40888">
        <ele>148</ele>
        <time>2019-02-17T10:42:58.086Z</time>
      </trkpt>
      <trkpt lat="46.83348" lon="0.4089">
        <ele>149</ele>
        <time>2019-02-17T10:42:59.086Z</time>
      </trkpt>
      <trkpt lat="46.83347" lon="0.40891">
        <ele>150</ele>
        <time>2019-02-17T10:43:00.086Z</time>
      </trkpt>
      <trkpt lat="46.83345" lon="0.40893">
        <ele>151</ele>
        <time>2019-02-17T10:43:01.086Z</time>
      </trkpt>
      <trkpt lat="46.83343" lon="0.40895">
        <ele>151</ele>
        <time>2019-02-17T10:43:02.086Z</time>
      </trkpt>
      <trkpt lat="46.83341" lon="0.40896">
        <ele>151</ele>
        <time>2019-02-17T10:43:03.086Z</time>
      </trkpt>
      <trkpt lat="46.8334" lon="0.40897">
        <ele>151</ele>
        <time>2019-02-17T10:43:04.086Z</time>
      </trkpt>
      <trkpt lat="46.83338" lon="0.40897">
        <ele>151</ele>
        <time>2019-02-17T10:43:05.086Z</time>
      </trkpt>
      <trkpt lat="46.83337" lon="0.40898">
        <ele>152</ele>
        <time>2019-02-17T10:43:06.086Z</time>
      </trkpt>
      <trkpt lat="46.83336" lon="0.40899">
        <ele>152</ele>
        <time>2019-02-17T10:43:07.086Z</time>
      </trkpt>
      <trkpt lat="46.83334" lon="0.409">
        <ele>151</ele>
        <time>2019-02-17T10:43:08.086Z</time>
      </trkpt>
      <trkpt lat="46.83332" lon="0.409">
        <ele>152</ele>
        <time>2019-02-17T10:43:09.086Z</time>
      </trkpt>
      <trkpt lat="46.8333" lon="0.40901">
        <ele>151</ele>
        <time>2019-02-17T10:43:10.086Z</time>
      </trkpt>
      <trkpt lat="46.83328" lon="0.40901">
        <ele>151</ele>
        <time>2019-02-17T10:43:11.086Z</time>
      </trkpt>
      <trkpt lat="46.83327" lon="0.409">
        <ele>151</ele>
        <time>2019-02-17T10:43:12.086Z</time>
      </trkpt>
      <trkpt lat="46.83325" lon="0.409">
        <ele>151</ele>
        <time>2019-02-17T10:43:13.086Z</time>
      </trkpt>
      <trkpt lat="46.83324" lon="0.409">
        <ele>151</ele>
        <time>2019-02-17T10:43:14.086Z</time>
      </trkpt>
      <trkpt lat="46.83322" lon="0.40901">
        <ele>151</ele>
        <time>2019-02-17T10:43:15.086Z</time>
      </trkpt>
      <trkpt lat="46.8332" lon="0.40901">
        <ele>151</ele>
        <time>2019-02-17T10:43:16.086Z</time>
      </trkpt>
      <trkpt lat="46.83318" lon="0.40901">
        <ele>151</ele>
        <time>2019-02-17T10:43:17.086Z</time>
      </trkpt>
      <trkpt lat="46.83317" lon="0.40903">
        <ele>150</ele>
        <time>2019-02-17T10:43:18.086Z</time>
      </trkpt>
      <trkpt lat="46.83315" lon="0.40904">
        <ele>150</ele>
        <time>2019-02-17T10:43:19.086Z</time>
      </trkpt>
      <trkpt lat="46.83314" lon="0.40906">
        <ele>151</ele>
        <time>2019-02-17T10:43:20.086Z</time>
      </trkpt>
      <trkpt lat="46.83312" lon="0.40908">
        <ele>150</ele>
        <time>2019-02-17T10:43:21.086Z</time>
      </trkpt>
      <trkpt lat="46.8331" lon="0.40908">
        <ele>152</ele>
        <time>2019-02-17T10:43:22.086Z</time>
      </trkpt>
      <trkpt lat="46.83308" lon="0.40909">
        <ele>153</ele>
        <time>2019-02-17T10:43:23.086Z</time>
      </trkpt>
      <trkpt lat="46.83306" lon="0.40909">
        <ele>152</ele>
        <time>2019-02-17T10:43:24.086Z</time>
      </trkpt>
      <trkpt lat="46.83304" lon="0.40909">
        <ele>152</ele>
        <time>2019-02-17T10:43:25.086Z</time>
      </trkpt>
      <trkpt lat="46.83303" lon="0.40909">
        <ele>152</ele>
        <time>2019-02-17T10:43:26.086Z</time>
      </trkpt>
      <trkpt lat="46.83301" lon="0.40909">
        <ele>153</ele>
        <time>2019-02-17T10:43:27.086Z</time>
      </trkpt>
      <trkpt lat="46.833" lon="0.40909">
        <ele>153</ele>
        <time>2019-02-17T10:43:28.086Z</time>
      </trkpt>
      <trkpt lat="46.83298" lon="0.4091">
        <ele>153</ele>
        <time>2019-02-17T10:43:29.086Z</time>
      </trkpt>
      <trkpt lat="46.83297" lon="0.40911">
        <ele>153</ele>
        <time>2019-02-17T10:43:30.086Z</time>
      </trkpt>
      <trkpt lat="46.83296" lon="0.40911">
        <ele>153</ele>
        <time>2019-02-17T10:43:31.086Z</time>
      </trkpt>
      <trkpt lat="46.83294" lon="0.40912">
        <ele>153</ele>
        <time>2019-02-17T10:43:32.086Z</time>
      </trkpt>
      <trkpt lat="46.83293" lon="0.40913">
        <ele>154</ele>
        <time>2019-02-17T10:43:33.086Z</time>
      </trkpt>
      <trkpt lat="46.83291" lon="0.40913">
        <ele>155</ele>
        <time>2019-02-17T10:43:34.086Z</time>
      </trkpt>
      <trkpt lat="46.83289" lon="0.40913">
        <ele>154</ele>
        <time>2019-02-17T10:43:35.086Z</time>
      </trkpt>
      <trkpt lat="46.83287" lon="0.40914">
        <ele>155</ele>
        <time>2019-02-17T10:43:36.086Z</time>
      </trkpt>
      <trkpt lat="46.83284" lon="0.40913">
        <ele>155</ele>
        <time>2019-02-17T10:43:37.086Z</time>
      </trkpt>
      <trkpt lat="46.83282" lon="0.40911">
        <ele>154</ele>
        <time>2019-02-17T10:43:38.086Z</time>
      </trkpt>
      <trkpt lat="46.83281" lon="0.4091">
        <ele>153</ele>
        <time>2019-02-17T10:43:39.086Z</time>
      </trkpt>
      <trkpt lat="46.83279" lon="0.40908">
        <ele>153</ele>
        <time>2019-02-17T10:43:40.086Z</time>
      </trkpt>
      <trkpt lat="46.83278" lon="0.40907">
        <ele>152</ele>
        <time>2019-02-17T10:43:41.086Z</time>
      </trkpt>
      <trkpt lat="46.83277" lon="0.40907">
        <ele>152</ele>
        <time>2019-02-17T10:43:42.086Z</time>
      </trkpt>
      <trkpt lat="46.83276" lon="0.40906">
        <ele>152</ele>
        <time>2019-02-17T10:43:43.086Z</time>
      </trkpt>
      <trkpt lat="46.83274" lon="0.40905">
        <ele>152</ele>
        <time>2019-02-17T10:43:44.086Z</time>
      </trkpt>
      <trkpt lat="46.83272" lon="0.40904">
        <ele>152</ele>
        <time>2019-02-17T10:43:45.086Z</time>
      </trkpt>
      <trkpt lat="46.83271" lon="0.40902">
        <ele>153</ele>
        <time>2019-02-17T10:43:46.086Z</time>
      </trkpt>
      <trkpt lat="46.83269" lon="0.409">
        <ele>153</ele>
        <time>2019-02-17T10:43:47.086Z</time>
      </trkpt>
      <trkpt lat="46.83267" lon="0.40899">
        <ele>153</ele>
        <time>2019-02-17T10:43:48.086Z</time>
      </trkpt>
      <trkpt lat="46.83266" lon="0.40898">
        <ele>153</ele>
        <time>2019-02-17T10:43:49.086Z</time>
      </trkpt>
      <trkpt lat="46.83264" lon="0.40898">
        <ele>154</ele>
        <time>2019-02-17T10:43:50.086Z</time>
      </trkpt>
      <trkpt lat="46.83263" lon="0.40898">
        <ele>154</ele>
        <time>2019-02-17T10:43:51.086Z</time>
      </trkpt>
      <trkpt lat="46.83261" lon="0.40897">
        <ele>153</ele>
        <time>2019-02-17T10:43:52.086Z</time>
      </trkpt>
      <trkpt lat="46.83258" lon="0.40897">
        <ele>152</ele>
        <time>2019-02-17T10:43:53.086Z</time>
      </trkpt>
      <trkpt lat="46.83256" lon="0.40897">
        <ele>151</ele>
        <time>2019-02-17T10:43:54.086Z</time>
      </trkpt>
      <trkpt lat="46.83253" lon="0.40897">
        <ele>151</ele>
        <time>2019-02-17T10:43:55.086Z</time>
      </trkpt>
      <trkpt lat="46.83251" lon="0.40895">
        <ele>151</ele>
        <time>2019-02-17T10:43:56.086Z</time>
      </trkpt>
      <trkpt lat="46.83249" lon="0.40893">
        <ele>150</ele>
        <time>2019-02-17T10:43:57.086Z</time>
      </trkpt>
      <trkpt lat="46.83248" lon="0.4089">
        <ele>149</ele>
        <time>2019-02-17T10:43:58.086Z</time>
      </trkpt>
      <trkpt lat="46.83247" lon="0.40888">
        <ele>149</ele>
        <time>2019-02-17T10:43:59.086Z</time>
      </trkpt>
      <trkpt lat="46.83246" lon="0.40886">
        <ele>148</ele>
        <time>2019-02-17T10:44:00.086Z</time>
      </trkpt>
      <trkpt lat="46.83245" lon="0.40883">
        <ele>149</ele>
        <time>2019-02-17T10:44:01.086Z</time>
      </trkpt>
      <trkpt lat="46.83244" lon="0.4088">
        <ele>150</ele>
        <time>2019-02-17T10:44:02.086Z</time>
      </trkpt>
      <trkpt lat="46.83244" lon="0.40877">
        <ele>151</ele>
        <time>2019-02-17T10:44:03.086Z</time>
      </trkpt>
      <trkpt lat="46.83244" lon="0.40873">
        <ele>150</ele>
        <time>2019-02-17T10:44:04.086Z</time>
      </trkpt>
      <trkpt lat="46.83244" lon="0.40869">
        <ele>149</ele>
        <time>2019-02-17T10:44:05.086Z</time>
      </trkpt>
      <trkpt lat="46.83244" lon="0.40866">
        <ele>149</ele>
        <time>2019-02-17T10:44:06.086Z</time>
      </trkpt>
      <trkpt lat="46.83245" lon="0.40862">
        <ele>149</ele>
        <time>2019-02-17T10:44:07.086Z</time>
      </trkpt>
      <trkpt lat="46.83245" lon="0.40858">
        <ele>149</ele>
        <time>2019-02-17T10:44:08.086Z</time>
      </trkpt>
      <trkpt lat="46.83247" lon="0.40854">
        <ele>148</ele>
        <time>2019-02-17T10:44:09.086Z</time>
      </trkpt>
      <trkpt lat="46.83248" lon="0.40849">
        <ele>148</ele>
        <time>2019-02-17T10:44:10.086Z</time>
      </trkpt>
      <trkpt lat="46.8325" lon="0.40846">
        <ele>147</ele>
        <time>2019-02-17T10:44:11.086Z</time>
      </trkpt>
      <trkpt lat="46.83252" lon="0.40842">
        <ele>147</ele>
        <time>2019-02-17T10:44:12.086Z</time>
      </trkpt>
      <trkpt lat="46.83254" lon="0.40837">
        <ele>145</ele>
        <time>2019-02-17T10:44:13.086Z</time>
      </trkpt>
      <trkpt lat="46.83256" lon="0.40831">
        <ele>142</ele>
        <time>2019-02-17T10:44:14.086Z</time>
      </trkpt>
      <trkpt lat="46.83258" lon="0.40825">
        <ele>142</ele>
        <time>2019-02-17T10:44:15.086Z</time>
      </trkpt>
      <trkpt lat="46.8326" lon="0.4082">
        <ele>141</ele>
        <time>2019-02-17T10:44:16.086Z</time>
      </trkpt>
      <trkpt lat="46.83263" lon="0.40815">
        <ele>141</ele>
        <time>2019-02-17T10:44:17.086Z</time>
      </trkpt>
      <trkpt lat="46.83266" lon="0.40809">
        <ele>141</ele>
        <time>2019-02-17T10:44:18.086Z</time>
      </trkpt>
      <trkpt lat="46.83268" lon="0.40803">
        <ele>140</ele>
        <time>2019-02-17T10:44:19.086Z</time>
      </trkpt>
      <trkpt lat="46.83271" lon="0.40795">
        <ele>140</ele>
        <time>2019-02-17T10:44:20.086Z</time>
      </trkpt>
      <trkpt lat="46.83273" lon="0.40786">
        <ele>142</ele>
        <time>2019-02-17T10:44:21.086Z</time>
      </trkpt>
      <trkpt lat="46.83275" lon="0.40775">
        <ele>142</ele>
        <time>2019-02-17T10:44:22.086Z</time>
      </trkpt>
      <trkpt lat="46.83277" lon="0.40764">
        <ele>140</ele>
        <time>2019-02-17T10:44:23.086Z</time>
      </trkpt>
      <trkpt lat="46.83279" lon="0.40754">
        <ele>139</ele>
        <time>2019-02-17T10:44:24.086Z</time>
      </trkpt>
      <trkpt lat="46.83281" lon="0.40745">
        <ele>140</ele>
        <time>2019-02-17T10:44:25.086Z</time>
      </trkpt>
      <trkpt lat="46.83283" lon="0.40735">
        <ele>139</ele>
        <time>2019-02-17T10:44:26.086Z</time>
      </trkpt>
      <trkpt lat="46.83285" lon="0.40726">
        <ele>139</ele>
        <time>2019-02-17T10:44:27.086Z</time>
      </trkpt>
      <trkpt lat="46.83287" lon="0.40716">
        <ele>138</ele>
        <time>2019-02-17T10:44:28.086Z</time>
      </trkpt>
      <trkpt lat="46.83289" lon="0.40707">
        <ele>137</ele>
        <time>2019-02-17T10:44:29.086Z</time>
      </trkpt>
      <trkpt lat="46.8329" lon="0.40696">
        <ele>137</ele>
        <time>2019-02-17T10:44:30.086Z</time>
      </trkpt>
      <trkpt lat="46.83289" lon="0.40683">
        <ele>137</ele>
        <time>2019-02-17T10:44:31.086Z</time>
      </trkpt>
      <trkpt lat="46.83289" lon="0.40671">
        <ele>137</ele>
        <time>2019-02-17T10:44:32.086Z</time>
      </trkpt>
      <trkpt lat="46.8329" lon="0.40659">
        <ele>137</ele>
        <time>2019-02-17T10:44:33.086Z</time>
      </trkpt>
      <trkpt lat="46.83291" lon="0.40649">
        <ele>138</ele>
        <time>2019-02-17T10:44:34.086Z</time>
      </trkpt>
      <trkpt lat="46.83292" lon="0.40641">
        <ele>137</ele>
        <time>2019-02-17T10:44:35.086Z</time>
      </trkpt>
      <trkpt lat="46.83293" lon="0.40634">
        <ele>135</ele>
        <time>2019-02-17T10:44:36.086Z</time>
      </trkpt>
      <trkpt lat="46.83294" lon="0.4063">
        <ele>135</ele>
        <time>2019-02-17T10:44:37.086Z</time>
      </trkpt>
      <trkpt lat="46.83295" lon="0.40625">
        <ele>135</ele>
        <time>2019-02-17T10:44:38.086Z</time>
      </trkpt>
      <trkpt lat="46.83296" lon="0.40621">
        <ele>135</ele>
        <time>2019-02-17T10:44:39.086Z</time>
      </trkpt>
      <trkpt lat="46.83297" lon="0.40617">
        <ele>135</ele>
        <time>2019-02-17T10:44:40.086Z</time>
      </trkpt>
      <trkpt lat="46.83298" lon="0.40612">
        <ele>136</ele>
        <time>2019-02-17T10:44:41.086Z</time>
      </trkpt>
      <trkpt lat="46.83299" lon="0.40608">
        <ele>137</ele>
        <time>2019-02-17T10:44:42.086Z</time>
      </trkpt>
      <trkpt lat="46.83301" lon="0.40604">
        <ele>137</ele>
        <time>2019-02-17T10:44:43.086Z</time>
      </trkpt>
      <trkpt lat="46.83302" lon="0.406">
        <ele>137</ele>
        <time>2019-02-17T10:44:44.086Z</time>
      </trkpt>
      <trkpt lat="46.83303" lon="0.40596">
        <ele>139</ele>
        <time>2019-02-17T10:44:45.086Z</time>
      </trkpt>
      <trkpt lat="46.83303" lon="0.40592">
        <ele>139</ele>
        <time>2019-02-17T10:44:46.086Z</time>
      </trkpt>
      <trkpt lat="46.83305" lon="0.40588">
        <ele>140</ele>
        <time>2019-02-17T10:44:47.086Z</time>
      </trkpt>
      <trkpt lat="46.83307" lon="0.40584">
        <ele>140</ele>
        <time>2019-02-17T10:44:48.086Z</time>
      </trkpt>
      <trkpt lat="46.83309" lon="0.4058">
        <ele>141</ele>
        <time>2019-02-17T10:44:49.086Z</time>
      </trkpt>
      <trkpt lat="46.83311" lon="0.40575">
        <ele>141</ele>
        <time>2019-02-17T10:44:50.086Z</time>
      </trkpt>
      <trkpt lat="46.83313" lon="0.40571">
        <ele>142</ele>
        <time>2019-02-17T10:44:51.086Z</time>
      </trkpt>
      <trkpt lat="46.83315" lon="0.40567">
        <ele>143</ele>
        <time>2019-02-17T10:44:52.086Z</time>
      </trkpt>
      <trkpt lat="46.83317" lon="0.40562">
        <ele>143</ele>
        <time>2019-02-17T10:44:53.086Z</time>
      </trkpt>
      <trkpt lat="46.83319" lon="0.40556">
        <ele>143</ele>
        <time>2019-02-17T10:44:54.086Z</time>
      </trkpt>
      <trkpt lat="46.83321" lon="0.4055">
        <ele>143</ele>
        <time>2019-02-17T10:44:55.086Z</time>
      </trkpt>
      <trkpt lat="46.83322" lon="0.40545">
        <ele>144</ele>
        <time>2019-02-17T10:44:56.086Z</time>
      </trkpt>
      <trkpt lat="46.83324" lon="0.4054">
        <ele>144</ele>
        <time>2019-02-17T10:44:57.086Z</time>
      </trkpt>
      <trkpt lat="46.83326" lon="0.40536">
        <ele>144</ele>
        <time>2019-02-17T10:44:58.086Z</time>
      </trkpt>
      <trkpt lat="46.83326" lon="0.40531">
        <ele>144</ele>
        <time>2019-02-17T10:44:59.086Z</time>
      </trkpt>
      <trkpt lat="46.83327" lon="0.40527">
        <ele>143</ele>
        <time>2019-02-17T10:45:00.086Z</time>
      </trkpt>
      <trkpt lat="46.83325" lon="0.40523">
        <ele>143</ele>
        <time>2019-02-17T10:45:01.086Z</time>
      </trkpt>
    </trkseg>
  </trk>
</gpx>